<?xml version='1.0' encoding='UTF-8'?><gpx version="1.1" creator="JPX - https://github.com/jenetics/jpx" xmlns="http://www.topografix.com/GPX/1/1"><trk><trkseg><trkpt lat="43.7095336" lon="10.4398395"><ele>7.999999999999999</ele><time>2026-04-19T13:24:55.946Z</time></trkpt><trkpt lat="43.7096412" lon="10.4398208"><ele>8.0</ele><time>2026-04-19T13:25:07.946Z</time></trkpt><trkpt lat="43.7097048" lon="10.4397984"><ele>8.0</ele><time>2026-04-19T13:25:09.946Z</time></trkpt><trkpt lat="43.7097697" lon="10.4397582"><ele>8.0</ele><time>2026-04-19T13:25:11.946Z</time></trkpt><trkpt lat="43.7098366" lon="10.4396772"><ele>7.999999999999999</ele><time>2026-04-19T13:25:13.946Z</time></trkpt><trkpt lat="43.7098876" lon="10.4396111"><ele>8.0</ele><time>2026-04-19T13:25:15.947Z</time></trkpt><trkpt lat="43.7099636" lon="10.4395979"><ele>7.999999999999999</ele><time>2026-04-19T13:25:18.946Z</time></trkpt><trkpt lat="43.7100417" lon="10.4396628"><ele>8.0</ele><time>2026-04-19T13:25:20.947Z</time></trkpt><trkpt lat="43.7101185" lon="10.4397369"><ele>8.0</ele><time>2026-04-19T13:25:22.946Z</time></trkpt><trkpt lat="43.7102163" lon="10.4397821"><ele>8.0</ele><time>2026-04-19T13:25:24.946Z</time></trkpt><trkpt lat="43.7102742" lon="10.4398751"><ele>7.999999999999999</ele><time>2026-04-19T13:25:26.946Z</time></trkpt><trkpt lat="43.7103187" lon="10.4399486"><ele>8.0</ele><time>2026-04-19T13:25:28.946Z</time></trkpt><trkpt lat="43.7103839" lon="10.4400483"><ele>6.800000000000001</ele><time>2026-04-19T13:25:31.946Z</time></trkpt><trkpt lat="43.710445" lon="10.4401174"><ele>5.6000000000000005</ele><time>2026-04-19T13:25:34.946Z</time></trkpt><trkpt lat="43.710491" lon="10.4402568"><ele>4.4</ele><time>2026-04-19T13:26:48.946Z</time></trkpt><trkpt lat="43.7104965" lon="10.4403599"><ele>3.2</ele><time>2026-04-19T13:26:49.946Z</time></trkpt><trkpt lat="43.7105067" lon="10.440485"><ele>2.0</ele><time>2026-04-19T13:26:50.946Z</time></trkpt><trkpt lat="43.7105193" lon="10.4406199"><ele>1.9999999999999998</ele><time>2026-04-19T13:26:51.946Z</time></trkpt><trkpt lat="43.71054" lon="10.4407534"><ele>2.0</ele><time>2026-04-19T13:26:52.946Z</time></trkpt><trkpt lat="43.7105629" lon="10.440875"><ele>2.0</ele><time>2026-04-19T13:26:53.947Z</time></trkpt><trkpt lat="43.7105777" lon="10.440977"><ele>2.0</ele><time>2026-04-19T13:26:54.946Z</time></trkpt><trkpt lat="43.7105794" lon="10.4411039"><ele>1.9999999999999998</ele><time>2026-04-19T13:26:56.946Z</time></trkpt><trkpt lat="43.7104977" lon="10.4411242"><ele>2.0</ele><time>2026-04-19T13:26:59.946Z</time></trkpt><trkpt lat="43.7104498" lon="10.441064"><ele>2.0</ele><time>2026-04-19T13:27:00.946Z</time></trkpt><trkpt lat="43.7103834" lon="10.4409668"><ele>2.0</ele><time>2026-04-19T13:27:01.946Z</time></trkpt><trkpt lat="43.7102954" lon="10.4408497"><ele>2.0</ele><time>2026-04-19T13:27:02.946Z</time></trkpt><trkpt lat="43.7102053" lon="10.4407298"><ele>2.0</ele><time>2026-04-19T13:27:03.946Z</time></trkpt><trkpt lat="43.7101159" lon="10.4406113"><ele>2.6</ele><time>2026-04-19T13:27:04.946Z</time></trkpt><trkpt lat="43.7100387" lon="10.440501"><ele>3.2</ele><time>2026-04-19T13:27:05.946Z</time></trkpt><trkpt lat="43.7099637" lon="10.4403926"><ele>3.8</ele><time>2026-04-19T13:27:06.946Z</time></trkpt><trkpt lat="43.7098809" lon="10.4402768"><ele>4.4</ele><time>2026-04-19T13:27:07.946Z</time></trkpt><trkpt lat="43.7098029" lon="10.4401739"><ele>5.0</ele><time>2026-04-19T13:27:08.946Z</time></trkpt><trkpt lat="43.7097254" lon="10.4400809"><ele>5.0</ele><time>2026-04-19T13:27:09.947Z</time></trkpt><trkpt lat="43.7096474" lon="10.4399808"><ele>5.0</ele><time>2026-04-19T13:27:10.946Z</time></trkpt><trkpt lat="43.7095779" lon="10.4398865"><ele>5.0</ele><time>2026-04-19T13:27:11.946Z</time></trkpt><trkpt lat="43.7095194" lon="10.4398069"><ele>5.0</ele><time>2026-04-19T13:27:12.946Z</time></trkpt><trkpt lat="43.709466" lon="10.439739"><ele>5.0</ele><time>2026-04-19T13:27:13.946Z</time></trkpt><trkpt lat="43.7094157" lon="10.4396678"><ele>5.0</ele><time>2026-04-19T13:27:14.946Z</time></trkpt><trkpt lat="43.709342" lon="10.4395671"><ele>5.0</ele><time>2026-04-19T13:27:16.947Z</time></trkpt><trkpt lat="43.7092551" lon="10.4394459"><ele>5.0</ele><time>2026-04-19T13:27:18.946Z</time></trkpt><trkpt lat="43.7092008" lon="10.4393666"><ele>5.0</ele><time>2026-04-19T13:27:19.946Z</time></trkpt><trkpt lat="43.7091438" lon="10.4392893"><ele>5.0</ele><time>2026-04-19T13:27:20.946Z</time></trkpt><trkpt lat="43.7090828" lon="10.4392008"><ele>5.0</ele><time>2026-04-19T13:27:21.946Z</time></trkpt><trkpt lat="43.709011" lon="10.4390998"><ele>5.0</ele><time>2026-04-19T13:27:22.946Z</time></trkpt><trkpt lat="43.708943" lon="10.4390046"><ele>5.0</ele><time>2026-04-19T13:27:23.946Z</time></trkpt><trkpt lat="43.7088706" lon="10.4389021"><ele>5.0</ele><time>2026-04-19T13:27:24.946Z</time></trkpt><trkpt lat="43.7088043" lon="10.4388107"><ele>5.0</ele><time>2026-04-19T13:27:25.946Z</time></trkpt><trkpt lat="43.7087376" lon="10.4387151"><ele>5.0</ele><time>2026-04-19T13:27:26.946Z</time></trkpt><trkpt lat="43.7086703" lon="10.4386148"><ele>4.8</ele><time>2026-04-19T13:27:27.947Z</time></trkpt><trkpt lat="43.7085957" lon="10.4385033"><ele>4.6</ele><time>2026-04-19T13:27:28.946Z</time></trkpt><trkpt lat="43.708527" lon="10.4383888"><ele>4.4</ele><time>2026-04-19T13:27:29.946Z</time></trkpt><trkpt lat="43.7084591" lon="10.4382851"><ele>4.2</ele><time>2026-04-19T13:27:30.946Z</time></trkpt><trkpt lat="43.7083942" lon="10.4381896"><ele>4.0</ele><time>2026-04-19T13:27:31.946Z</time></trkpt><trkpt lat="43.7083365" lon="10.4381091"><ele>4.0</ele><time>2026-04-19T13:27:32.946Z</time></trkpt><trkpt lat="43.708279" lon="10.4380303"><ele>4.0</ele><time>2026-04-19T13:27:33.946Z</time></trkpt><trkpt lat="43.7082265" lon="10.4379651"><ele>4.0</ele><time>2026-04-19T13:27:34.946Z</time></trkpt><trkpt lat="43.7081377" lon="10.4378582"><ele>4.0</ele><time>2026-04-19T13:27:36.946Z</time></trkpt><trkpt lat="43.7080542" lon="10.437773"><ele>4.0</ele><time>2026-04-19T13:27:38.946Z</time></trkpt><trkpt lat="43.7079848" lon="10.4376751"><ele>4.0</ele><time>2026-04-19T13:27:40.947Z</time></trkpt><trkpt lat="43.7079311" lon="10.4375228"><ele>4.0</ele><time>2026-04-19T13:27:42.946Z</time></trkpt><trkpt lat="43.7078844" lon="10.4373667"><ele>4.0</ele><time>2026-04-19T13:27:44.946Z</time></trkpt><trkpt lat="43.7077956" lon="10.4372862"><ele>4.0</ele><time>2026-04-19T13:27:46.946Z</time></trkpt><trkpt lat="43.7076832" lon="10.4373079"><ele>4.0</ele><time>2026-04-19T13:27:48.946Z</time></trkpt><trkpt lat="43.7076189" lon="10.4374209"><ele>4.0</ele><time>2026-04-19T13:27:50.946Z</time></trkpt><trkpt lat="43.7076467" lon="10.4375831"><ele>4.0</ele><time>2026-04-19T13:27:52.946Z</time></trkpt><trkpt lat="43.7076998" lon="10.4376512"><ele>4.0</ele><time>2026-04-19T13:27:53.946Z</time></trkpt><trkpt lat="43.7077741" lon="10.4376975"><ele>4.0</ele><time>2026-04-19T13:27:54.946Z</time></trkpt><trkpt lat="43.7078849" lon="10.4377412"><ele>4.0</ele><time>2026-04-19T13:27:55.946Z</time></trkpt><trkpt lat="43.7080004" lon="10.4378029"><ele>4.0</ele><time>2026-04-19T13:27:56.947Z</time></trkpt><trkpt lat="43.7080972" lon="10.437889"><ele>4.0</ele><time>2026-04-19T13:27:57.946Z</time></trkpt><trkpt lat="43.7081794" lon="10.4379896"><ele>4.0</ele><time>2026-04-19T13:27:58.947Z</time></trkpt><trkpt lat="43.7082539" lon="10.4380922"><ele>3.9999999999999996</ele><time>2026-04-19T13:27:59.946Z</time></trkpt><trkpt lat="43.7083158" lon="10.4381939"><ele>4.0</ele><time>2026-04-19T13:28:00.946Z</time></trkpt><trkpt lat="43.7083787" lon="10.4382786"><ele>4.0</ele><time>2026-04-19T13:28:01.946Z</time></trkpt><trkpt lat="43.7084347" lon="10.4383631"><ele>4.0</ele><time>2026-04-19T13:28:02.947Z</time></trkpt><trkpt lat="43.7084794" lon="10.4384397"><ele>3.9999999999999996</ele><time>2026-04-19T13:28:03.946Z</time></trkpt><trkpt lat="43.7085227" lon="10.4385092"><ele>4.0</ele><time>2026-04-19T13:28:04.946Z</time></trkpt><trkpt lat="43.7085745" lon="10.4385983"><ele>3.9999999999999996</ele><time>2026-04-19T13:28:06.947Z</time></trkpt><trkpt lat="43.7086206" lon="10.4386633"><ele>4.0</ele><time>2026-04-19T13:28:09.947Z</time></trkpt><trkpt lat="43.7086746" lon="10.4387643"><ele>4.0</ele><time>2026-04-19T13:28:37.946Z</time></trkpt><trkpt lat="43.708723" lon="10.4388316"><ele>4.0</ele><time>2026-04-19T13:28:38.947Z</time></trkpt><trkpt lat="43.7087755" lon="10.4389075"><ele>3.9999999999999996</ele><time>2026-04-19T13:28:39.946Z</time></trkpt><trkpt lat="43.7088354" lon="10.4389994"><ele>4.0</ele><time>2026-04-19T13:28:40.947Z</time></trkpt><trkpt lat="43.7089061" lon="10.4391023"><ele>4.25</ele><time>2026-04-19T13:28:41.946Z</time></trkpt><trkpt lat="43.7089789" lon="10.4392097"><ele>4.5</ele><time>2026-04-19T13:28:42.946Z</time></trkpt><trkpt lat="43.7090575" lon="10.43932"><ele>4.75</ele><time>2026-04-19T13:28:43.946Z</time></trkpt><trkpt lat="43.7091434" lon="10.4394429"><ele>5.0</ele><time>2026-04-19T13:28:44.946Z</time></trkpt><trkpt lat="43.7092392" lon="10.4395698"><ele>5.25</ele><time>2026-04-19T13:28:45.946Z</time></trkpt><trkpt lat="43.7093295" lon="10.4397011"><ele>5.5</ele><time>2026-04-19T13:28:46.946Z</time></trkpt><trkpt lat="43.7094285" lon="10.4398464"><ele>5.75</ele><time>2026-04-19T13:28:47.946Z</time></trkpt><trkpt lat="43.7095382" lon="10.4399942"><ele>6.0</ele><time>2026-04-19T13:28:48.946Z</time></trkpt><trkpt lat="43.709647" lon="10.4401512"><ele>5.75</ele><time>2026-04-19T13:28:49.946Z</time></trkpt><trkpt lat="43.7097519" lon="10.4402999"><ele>5.5</ele><time>2026-04-19T13:28:50.946Z</time></trkpt><trkpt lat="43.7098565" lon="10.4404459"><ele>5.25</ele><time>2026-04-19T13:28:51.946Z</time></trkpt><trkpt lat="43.7099592" lon="10.4405919"><ele>5.0</ele><time>2026-04-19T13:28:52.946Z</time></trkpt><trkpt lat="43.7100703" lon="10.4407493"><ele>5.0</ele><time>2026-04-19T13:28:53.946Z</time></trkpt><trkpt lat="43.7101876" lon="10.4409185"><ele>5.0</ele><time>2026-04-19T13:28:54.946Z</time></trkpt><trkpt lat="43.7103125" lon="10.4410952"><ele>5.0</ele><time>2026-04-19T13:28:55.947Z</time></trkpt><trkpt lat="43.7104284" lon="10.4412667"><ele>4.666666666666667</ele><time>2026-04-19T13:28:56.946Z</time></trkpt><trkpt lat="43.7105473" lon="10.4414421"><ele>4.333333333333333</ele><time>2026-04-19T13:28:57.946Z</time></trkpt><trkpt lat="43.7106693" lon="10.4416064"><ele>4.0</ele><time>2026-04-19T13:28:58.946Z</time></trkpt><trkpt lat="43.7107853" lon="10.4417497"><ele>4.0</ele><time>2026-04-19T13:28:59.946Z</time></trkpt><trkpt lat="43.7109083" lon="10.4418743"><ele>4.0</ele><time>2026-04-19T13:29:00.946Z</time></trkpt><trkpt lat="43.7110351" lon="10.4419805"><ele>4.0</ele><time>2026-04-19T13:29:01.946Z</time></trkpt><trkpt lat="43.7111724" lon="10.4420719"><ele>3.6666666666666665</ele><time>2026-04-19T13:29:02.946Z</time></trkpt><trkpt lat="43.711317" lon="10.4421562"><ele>3.333333333333333</ele><time>2026-04-19T13:29:03.946Z</time></trkpt><trkpt lat="43.711479" lon="10.4422416"><ele>3.0</ele><time>2026-04-19T13:29:04.946Z</time></trkpt><trkpt lat="43.7116557" lon="10.4423236"><ele>3.0</ele><time>2026-04-19T13:29:05.946Z</time></trkpt><trkpt lat="43.7118268" lon="10.4423992"><ele>3.0</ele><time>2026-04-19T13:29:06.946Z</time></trkpt><trkpt lat="43.7119985" lon="10.4424706"><ele>3.0</ele><time>2026-04-19T13:29:07.946Z</time></trkpt><trkpt lat="43.7121742" lon="10.4425367"><ele>2.6666666666666665</ele><time>2026-04-19T13:29:08.946Z</time></trkpt><trkpt lat="43.712345" lon="10.4426014"><ele>2.333333333333333</ele><time>2026-04-19T13:29:09.946Z</time></trkpt><trkpt lat="43.7125115" lon="10.4426717"><ele>2.0</ele><time>2026-04-19T13:29:10.946Z</time></trkpt><trkpt lat="43.7126691" lon="10.44274"><ele>2.333333333333333</ele><time>2026-04-19T13:29:11.946Z</time></trkpt><trkpt lat="43.7128265" lon="10.4428074"><ele>2.6666666666666665</ele><time>2026-04-19T13:29:12.946Z</time></trkpt><trkpt lat="43.7129827" lon="10.4428733"><ele>3.0</ele><time>2026-04-19T13:29:13.946Z</time></trkpt><trkpt lat="43.7131438" lon="10.4429421"><ele>3.0</ele><time>2026-04-19T13:29:14.946Z</time></trkpt><trkpt lat="43.713306" lon="10.4430145"><ele>3.0</ele><time>2026-04-19T13:29:15.946Z</time></trkpt><trkpt lat="43.7134674" lon="10.4430774"><ele>3.0</ele><time>2026-04-19T13:29:16.946Z</time></trkpt><trkpt lat="43.7136351" lon="10.4431456"><ele>2.6666666666666665</ele><time>2026-04-19T13:29:17.946Z</time></trkpt><trkpt lat="43.7137934" lon="10.4432404"><ele>2.333333333333333</ele><time>2026-04-19T13:29:18.946Z</time></trkpt><trkpt lat="43.7139567" lon="10.4433302"><ele>2.0</ele><time>2026-04-19T13:29:19.946Z</time></trkpt><trkpt lat="43.7141093" lon="10.4434242"><ele>2.0</ele><time>2026-04-19T13:29:20.946Z</time></trkpt><trkpt lat="43.7142534" lon="10.4435138"><ele>2.0</ele><time>2026-04-19T13:29:21.947Z</time></trkpt><trkpt lat="43.7143821" lon="10.4435997"><ele>2.0</ele><time>2026-04-19T13:29:22.947Z</time></trkpt><trkpt lat="43.714505" lon="10.4436817"><ele>2.0</ele><time>2026-04-19T13:29:23.946Z</time></trkpt><trkpt lat="43.7146225" lon="10.4437592"><ele>2.0</ele><time>2026-04-19T13:29:24.946Z</time></trkpt><trkpt lat="43.7147375" lon="10.4438262"><ele>2.0</ele><time>2026-04-19T13:29:25.946Z</time></trkpt><trkpt lat="43.7148614" lon="10.4439014"><ele>2.0</ele><time>2026-04-19T13:29:26.946Z</time></trkpt><trkpt lat="43.7149887" lon="10.4439779"><ele>2.0</ele><time>2026-04-19T13:29:27.946Z</time></trkpt><trkpt lat="43.7151163" lon="10.4440503"><ele>2.5</ele><time>2026-04-19T13:29:28.946Z</time></trkpt><trkpt lat="43.7152438" lon="10.4441316"><ele>3.0</ele><time>2026-04-19T13:29:29.946Z</time></trkpt><trkpt lat="43.7153787" lon="10.4442095"><ele>3.5</ele><time>2026-04-19T13:29:30.946Z</time></trkpt><trkpt lat="43.7155053" lon="10.4442882"><ele>4.0</ele><time>2026-04-19T13:29:31.946Z</time></trkpt><trkpt lat="43.7156299" lon="10.4443668"><ele>4.0</ele><time>2026-04-19T13:29:32.946Z</time></trkpt><trkpt lat="43.7157594" lon="10.4444521"><ele>4.0</ele><time>2026-04-19T13:29:33.946Z</time></trkpt><trkpt lat="43.7158932" lon="10.4445249"><ele>4.0</ele><time>2026-04-19T13:29:34.946Z</time></trkpt><trkpt lat="43.7160337" lon="10.4446008"><ele>4.0</ele><time>2026-04-19T13:29:35.946Z</time></trkpt><trkpt lat="43.7161739" lon="10.4446771"><ele>4.333333333333333</ele><time>2026-04-19T13:29:36.946Z</time></trkpt><trkpt lat="43.7163284" lon="10.4447514"><ele>4.666666666666667</ele><time>2026-04-19T13:29:37.947Z</time></trkpt><trkpt lat="43.7164851" lon="10.4448206"><ele>5.0</ele><time>2026-04-19T13:29:38.947Z</time></trkpt><trkpt lat="43.7166474" lon="10.4448899"><ele>5.0</ele><time>2026-04-19T13:29:39.946Z</time></trkpt><trkpt lat="43.7168215" lon="10.4449648"><ele>5.0</ele><time>2026-04-19T13:29:40.947Z</time></trkpt><trkpt lat="43.7169939" lon="10.4450365"><ele>5.0</ele><time>2026-04-19T13:29:41.947Z</time></trkpt><trkpt lat="43.717167" lon="10.4451124"><ele>5.0</ele><time>2026-04-19T13:29:42.946Z</time></trkpt><trkpt lat="43.7173433" lon="10.4451876"><ele>5.0</ele><time>2026-04-19T13:29:43.946Z</time></trkpt><trkpt lat="43.71751" lon="10.4452603"><ele>5.0</ele><time>2026-04-19T13:29:44.946Z</time></trkpt><trkpt lat="43.7176806" lon="10.445329"><ele>4.666666666666667</ele><time>2026-04-19T13:29:45.946Z</time></trkpt><trkpt lat="43.7178552" lon="10.4454031"><ele>4.333333333333333</ele><time>2026-04-19T13:29:46.947Z</time></trkpt><trkpt lat="43.7180268" lon="10.4454739"><ele>4.0</ele><time>2026-04-19T13:29:47.947Z</time></trkpt><trkpt lat="43.7181989" lon="10.4455467"><ele>4.0</ele><time>2026-04-19T13:29:48.946Z</time></trkpt><trkpt lat="43.71837" lon="10.4456219"><ele>4.0</ele><time>2026-04-19T13:29:49.946Z</time></trkpt><trkpt lat="43.7185349" lon="10.4457006"><ele>4.0</ele><time>2026-04-19T13:29:50.946Z</time></trkpt><trkpt lat="43.7187054" lon="10.4457842"><ele>4.0</ele><time>2026-04-19T13:29:51.946Z</time></trkpt><trkpt lat="43.7188751" lon="10.4458705"><ele>4.0</ele><time>2026-04-19T13:29:52.946Z</time></trkpt><trkpt lat="43.7190344" lon="10.4459495"><ele>4.0</ele><time>2026-04-19T13:29:53.946Z</time></trkpt><trkpt lat="43.7191931" lon="10.4460496"><ele>4.0</ele><time>2026-04-19T13:29:54.946Z</time></trkpt><trkpt lat="43.7193547" lon="10.4461452"><ele>4.0</ele><time>2026-04-19T13:29:55.946Z</time></trkpt><trkpt lat="43.7195121" lon="10.4462322"><ele>4.0</ele><time>2026-04-19T13:29:56.946Z</time></trkpt><trkpt lat="43.7196772" lon="10.4463043"><ele>4.666666666666666</ele><time>2026-04-19T13:29:57.946Z</time></trkpt><trkpt lat="43.7198458" lon="10.4463659"><ele>5.333333333333333</ele><time>2026-04-19T13:29:58.947Z</time></trkpt><trkpt lat="43.7200206" lon="10.4464179"><ele>6.0</ele><time>2026-04-19T13:29:59.946Z</time></trkpt><trkpt lat="43.720193" lon="10.4464705"><ele>5.666666666666667</ele><time>2026-04-19T13:30:00.946Z</time></trkpt><trkpt lat="43.7203642" lon="10.4465176"><ele>5.333333333333334</ele><time>2026-04-19T13:30:01.946Z</time></trkpt><trkpt lat="43.7205368" lon="10.4465638"><ele>5.0</ele><time>2026-04-19T13:30:02.946Z</time></trkpt><trkpt lat="43.7207055" lon="10.4465976"><ele>5.0</ele><time>2026-04-19T13:30:03.947Z</time></trkpt><trkpt lat="43.7208819" lon="10.4466213"><ele>5.0</ele><time>2026-04-19T13:30:04.946Z</time></trkpt><trkpt lat="43.7210624" lon="10.4466457"><ele>5.0</ele><time>2026-04-19T13:30:05.946Z</time></trkpt><trkpt lat="43.7212364" lon="10.4466632"><ele>4.333333333333334</ele><time>2026-04-19T13:30:06.946Z</time></trkpt><trkpt lat="43.7214031" lon="10.4466869"><ele>3.666666666666667</ele><time>2026-04-19T13:30:07.947Z</time></trkpt><trkpt lat="43.7215685" lon="10.4467227"><ele>3.0</ele><time>2026-04-19T13:30:08.947Z</time></trkpt><trkpt lat="43.7217358" lon="10.4467913"><ele>2.6666666666666665</ele><time>2026-04-19T13:30:09.947Z</time></trkpt><trkpt lat="43.7219006" lon="10.4468725"><ele>2.333333333333333</ele><time>2026-04-19T13:30:10.946Z</time></trkpt><trkpt lat="43.7220503" lon="10.4469614"><ele>2.0</ele><time>2026-04-19T13:30:11.946Z</time></trkpt><trkpt lat="43.7222055" lon="10.4470623"><ele>3.333333333333333</ele><time>2026-04-19T13:30:12.946Z</time></trkpt><trkpt lat="43.7223588" lon="10.4471687"><ele>4.666666666666667</ele><time>2026-04-19T13:30:13.946Z</time></trkpt><trkpt lat="43.7225064" lon="10.4472816"><ele>6.0</ele><time>2026-04-19T13:30:14.946Z</time></trkpt><trkpt lat="43.7226455" lon="10.4473877"><ele>4.666666666666667</ele><time>2026-04-19T13:30:15.946Z</time></trkpt><trkpt lat="43.7227921" lon="10.4475077"><ele>3.333333333333333</ele><time>2026-04-19T13:30:16.946Z</time></trkpt><trkpt lat="43.722938" lon="10.4476248"><ele>2.0</ele><time>2026-04-19T13:30:17.946Z</time></trkpt><trkpt lat="43.723075" lon="10.4477417"><ele>2.0</ele><time>2026-04-19T13:30:18.946Z</time></trkpt><trkpt lat="43.7232109" lon="10.4478604"><ele>2.0</ele><time>2026-04-19T13:30:19.946Z</time></trkpt><trkpt lat="43.7233504" lon="10.4479786"><ele>2.0</ele><time>2026-04-19T13:30:20.946Z</time></trkpt><trkpt lat="43.7234881" lon="10.448108"><ele>1.6666666666666665</ele><time>2026-04-19T13:30:21.946Z</time></trkpt><trkpt lat="43.7236225" lon="10.448231"><ele>1.3333333333333333</ele><time>2026-04-19T13:30:22.946Z</time></trkpt><trkpt lat="43.723758" lon="10.4483527"><ele>1.0</ele><time>2026-04-19T13:30:23.946Z</time></trkpt><trkpt lat="43.7238899" lon="10.4484729"><ele>1.0</ele><time>2026-04-19T13:30:24.946Z</time></trkpt><trkpt lat="43.7240199" lon="10.4485953"><ele>1.0</ele><time>2026-04-19T13:30:25.946Z</time></trkpt><trkpt lat="43.7241441" lon="10.4487145"><ele>1.0</ele><time>2026-04-19T13:30:26.946Z</time></trkpt><trkpt lat="43.7242588" lon="10.4488379"><ele>1.0</ele><time>2026-04-19T13:30:27.946Z</time></trkpt><trkpt lat="43.7243605" lon="10.4489635"><ele>1.0</ele><time>2026-04-19T13:30:28.946Z</time></trkpt><trkpt lat="43.7244471" lon="10.4490898"><ele>1.0</ele><time>2026-04-19T13:30:29.946Z</time></trkpt><trkpt lat="43.7245345" lon="10.4492129"><ele>1.0</ele><time>2026-04-19T13:30:30.946Z</time></trkpt><trkpt lat="43.7246178" lon="10.4493433"><ele>1.0</ele><time>2026-04-19T13:30:31.947Z</time></trkpt><trkpt lat="43.724697" lon="10.4494606"><ele>1.0</ele><time>2026-04-19T13:30:32.946Z</time></trkpt><trkpt lat="43.7247796" lon="10.4495487"><ele>1.0</ele><time>2026-04-19T13:30:33.947Z</time></trkpt><trkpt lat="43.7248665" lon="10.4496234"><ele>1.0</ele><time>2026-04-19T13:30:34.946Z</time></trkpt><trkpt lat="43.7249474" lon="10.4496784"><ele>1.0</ele><time>2026-04-19T13:30:35.946Z</time></trkpt><trkpt lat="43.7250215" lon="10.4497147"><ele>1.5</ele><time>2026-04-19T13:30:36.947Z</time></trkpt><trkpt lat="43.7250859" lon="10.4497504"><ele>2.0</ele><time>2026-04-19T13:30:37.946Z</time></trkpt><trkpt lat="43.7251438" lon="10.4497851"><ele>2.5</ele><time>2026-04-19T13:30:38.946Z</time></trkpt><trkpt lat="43.7252316" lon="10.4499166"><ele>3.0</ele><time>2026-04-19T13:30:40.946Z</time></trkpt><trkpt lat="43.7252796" lon="10.4500133"><ele>3.4999999999999996</ele><time>2026-04-19T13:30:41.946Z</time></trkpt><trkpt lat="43.7253302" lon="10.4501203"><ele>4.0</ele><time>2026-04-19T13:30:42.946Z</time></trkpt><trkpt lat="43.7253717" lon="10.450235"><ele>4.0</ele><time>2026-04-19T13:30:43.946Z</time></trkpt><trkpt lat="43.725416" lon="10.4503683"><ele>4.0</ele><time>2026-04-19T13:30:44.946Z</time></trkpt><trkpt lat="43.7254677" lon="10.4504917"><ele>4.0</ele><time>2026-04-19T13:30:45.946Z</time></trkpt><trkpt lat="43.7255314" lon="10.4506202"><ele>4.0</ele><time>2026-04-19T13:30:46.946Z</time></trkpt><trkpt lat="43.7256055" lon="10.450749"><ele>4.0</ele><time>2026-04-19T13:30:47.946Z</time></trkpt><trkpt lat="43.7256808" lon="10.4508797"><ele>4.0</ele><time>2026-04-19T13:30:48.946Z</time></trkpt><trkpt lat="43.7257655" lon="10.4510277"><ele>4.0</ele><time>2026-04-19T13:30:49.946Z</time></trkpt><trkpt lat="43.7258524" lon="10.4511822"><ele>4.0</ele><time>2026-04-19T13:30:50.946Z</time></trkpt><trkpt lat="43.7259402" lon="10.45133"><ele>4.0</ele><time>2026-04-19T13:30:51.946Z</time></trkpt><trkpt lat="43.7260229" lon="10.4514737"><ele>3.75</ele><time>2026-04-19T13:30:52.946Z</time></trkpt><trkpt lat="43.726091" lon="10.4516292"><ele>3.5</ele><time>2026-04-19T13:30:53.946Z</time></trkpt><trkpt lat="43.7261444" lon="10.4517975"><ele>3.25</ele><time>2026-04-19T13:30:54.946Z</time></trkpt><trkpt lat="43.7261717" lon="10.4519607"><ele>3.0</ele><time>2026-04-19T13:30:55.946Z</time></trkpt><trkpt lat="43.7261812" lon="10.4521418"><ele>3.0</ele><time>2026-04-19T13:30:56.946Z</time></trkpt><trkpt lat="43.7261695" lon="10.4523606"><ele>3.0</ele><time>2026-04-19T13:30:57.946Z</time></trkpt><trkpt lat="43.7261476" lon="10.4526063"><ele>3.0</ele><time>2026-04-19T13:30:58.946Z</time></trkpt><trkpt lat="43.7261249" lon="10.4528574"><ele>2.6666666666666665</ele><time>2026-04-19T13:30:59.946Z</time></trkpt><trkpt lat="43.726111" lon="10.4531221"><ele>2.333333333333333</ele><time>2026-04-19T13:31:00.946Z</time></trkpt><trkpt lat="43.7261115" lon="10.4533861"><ele>2.0</ele><time>2026-04-19T13:31:01.946Z</time></trkpt><trkpt lat="43.7261217" lon="10.4536392"><ele>2.333333333333333</ele><time>2026-04-19T13:31:02.947Z</time></trkpt><trkpt lat="43.7261332" lon="10.4538892"><ele>2.6666666666666665</ele><time>2026-04-19T13:31:03.946Z</time></trkpt><trkpt lat="43.726139" lon="10.4541362"><ele>3.0</ele><time>2026-04-19T13:31:04.946Z</time></trkpt><trkpt lat="43.7261355" lon="10.4543663"><ele>3.0</ele><time>2026-04-19T13:31:05.946Z</time></trkpt><trkpt lat="43.7261363" lon="10.4545898"><ele>3.0</ele><time>2026-04-19T13:31:06.946Z</time></trkpt><trkpt lat="43.7261292" lon="10.4548205"><ele>3.0</ele><time>2026-04-19T13:31:07.946Z</time></trkpt><trkpt lat="43.7261175" lon="10.4550549"><ele>3.0</ele><time>2026-04-19T13:31:08.946Z</time></trkpt><trkpt lat="43.7261024" lon="10.4552897"><ele>3.0</ele><time>2026-04-19T13:31:09.946Z</time></trkpt><trkpt lat="43.7260835" lon="10.4555158"><ele>3.0</ele><time>2026-04-19T13:31:10.946Z</time></trkpt><trkpt lat="43.7260688" lon="10.4557396"><ele>3.666666666666667</ele><time>2026-04-19T13:31:11.946Z</time></trkpt><trkpt lat="43.7260536" lon="10.4559579"><ele>4.333333333333334</ele><time>2026-04-19T13:31:12.946Z</time></trkpt><trkpt lat="43.7260392" lon="10.456167"><ele>5.0</ele><time>2026-04-19T13:31:13.946Z</time></trkpt><trkpt lat="43.7260265" lon="10.4563701"><ele>5.0</ele><time>2026-04-19T13:31:14.946Z</time></trkpt><trkpt lat="43.7260126" lon="10.4565667"><ele>5.0</ele><time>2026-04-19T13:31:15.946Z</time></trkpt><trkpt lat="43.7260021" lon="10.4567679"><ele>5.0</ele><time>2026-04-19T13:31:16.946Z</time></trkpt><trkpt lat="43.7259889" lon="10.4569646"><ele>5.0</ele><time>2026-04-19T13:31:17.947Z</time></trkpt><trkpt lat="43.7259826" lon="10.4571488"><ele>5.0</ele><time>2026-04-19T13:31:18.946Z</time></trkpt><trkpt lat="43.7259749" lon="10.4573291"><ele>5.0</ele><time>2026-04-19T13:31:19.946Z</time></trkpt><trkpt lat="43.7259686" lon="10.4575177"><ele>5.0</ele><time>2026-04-19T13:31:20.946Z</time></trkpt><trkpt lat="43.7259567" lon="10.4577058"><ele>5.0</ele><time>2026-04-19T13:31:21.946Z</time></trkpt><trkpt lat="43.7259482" lon="10.4578994"><ele>5.0</ele><time>2026-04-19T13:31:22.946Z</time></trkpt><trkpt lat="43.7259429" lon="10.4580936"><ele>5.0</ele><time>2026-04-19T13:31:23.946Z</time></trkpt><trkpt lat="43.7259461" lon="10.4582898"><ele>5.0</ele><time>2026-04-19T13:31:24.946Z</time></trkpt><trkpt lat="43.7259566" lon="10.458478"><ele>5.0</ele><time>2026-04-19T13:31:25.946Z</time></trkpt><trkpt lat="43.7259672" lon="10.458655"><ele>5.0</ele><time>2026-04-19T13:31:26.946Z</time></trkpt><trkpt lat="43.72597" lon="10.4588316"><ele>5.0</ele><time>2026-04-19T13:31:27.947Z</time></trkpt><trkpt lat="43.725957" lon="10.4590104"><ele>5.0</ele><time>2026-04-19T13:31:28.947Z</time></trkpt><trkpt lat="43.7259311" lon="10.459185"><ele>5.0</ele><time>2026-04-19T13:31:29.946Z</time></trkpt><trkpt lat="43.7258935" lon="10.4593582"><ele>5.0</ele><time>2026-04-19T13:31:30.946Z</time></trkpt><trkpt lat="43.7258552" lon="10.4595225"><ele>5.0</ele><time>2026-04-19T13:31:31.946Z</time></trkpt><trkpt lat="43.7258072" lon="10.4596834"><ele>5.0</ele><time>2026-04-19T13:31:32.946Z</time></trkpt><trkpt lat="43.7257562" lon="10.4598401"><ele>5.0</ele><time>2026-04-19T13:31:33.946Z</time></trkpt><trkpt lat="43.7257075" lon="10.4599852"><ele>5.0</ele><time>2026-04-19T13:31:34.946Z</time></trkpt><trkpt lat="43.7256566" lon="10.4601225"><ele>5.0</ele><time>2026-04-19T13:31:35.946Z</time></trkpt><trkpt lat="43.7256026" lon="10.460267"><ele>5.0</ele><time>2026-04-19T13:31:36.946Z</time></trkpt><trkpt lat="43.7255541" lon="10.4604186"><ele>5.0</ele><time>2026-04-19T13:31:37.946Z</time></trkpt><trkpt lat="43.725507" lon="10.4605637"><ele>5.0</ele><time>2026-04-19T13:31:38.946Z</time></trkpt><trkpt lat="43.725458" lon="10.4607118"><ele>5.0</ele><time>2026-04-19T13:31:39.946Z</time></trkpt><trkpt lat="43.7254103" lon="10.4608587"><ele>5.0</ele><time>2026-04-19T13:31:40.946Z</time></trkpt><trkpt lat="43.7253627" lon="10.4610043"><ele>5.0</ele><time>2026-04-19T13:31:41.946Z</time></trkpt><trkpt lat="43.7253117" lon="10.4611509"><ele>4.8</ele><time>2026-04-19T13:31:42.947Z</time></trkpt><trkpt lat="43.7252639" lon="10.4612889"><ele>4.6</ele><time>2026-04-19T13:31:43.946Z</time></trkpt><trkpt lat="43.7252207" lon="10.4614203"><ele>4.4</ele><time>2026-04-19T13:31:44.946Z</time></trkpt><trkpt lat="43.7251721" lon="10.4615546"><ele>4.2</ele><time>2026-04-19T13:31:45.947Z</time></trkpt><trkpt lat="43.7251246" lon="10.4616955"><ele>4.0</ele><time>2026-04-19T13:31:46.946Z</time></trkpt><trkpt lat="43.7250725" lon="10.4618285"><ele>3.75</ele><time>2026-04-19T13:31:47.946Z</time></trkpt><trkpt lat="43.7250201" lon="10.4619685"><ele>3.5</ele><time>2026-04-19T13:31:48.947Z</time></trkpt><trkpt lat="43.7249661" lon="10.4621171"><ele>3.25</ele><time>2026-04-19T13:31:49.946Z</time></trkpt><trkpt lat="43.7249138" lon="10.4622641"><ele>3.0</ele><time>2026-04-19T13:31:50.946Z</time></trkpt><trkpt lat="43.7248635" lon="10.4624106"><ele>3.0</ele><time>2026-04-19T13:31:51.946Z</time></trkpt><trkpt lat="43.7248129" lon="10.4625526"><ele>3.0</ele><time>2026-04-19T13:31:52.946Z</time></trkpt><trkpt lat="43.7247591" lon="10.462688"><ele>3.0</ele><time>2026-04-19T13:31:53.946Z</time></trkpt><trkpt lat="43.7247068" lon="10.4628235"><ele>3.0</ele><time>2026-04-19T13:31:54.946Z</time></trkpt><trkpt lat="43.7246533" lon="10.4629589"><ele>3.0</ele><time>2026-04-19T13:31:55.946Z</time></trkpt><trkpt lat="43.7245992" lon="10.4630873"><ele>3.0</ele><time>2026-04-19T13:31:56.946Z</time></trkpt><trkpt lat="43.7245443" lon="10.4632064"><ele>3.0</ele><time>2026-04-19T13:31:57.946Z</time></trkpt><trkpt lat="43.7244871" lon="10.4633476"><ele>3.0</ele><time>2026-04-19T13:31:58.946Z</time></trkpt><trkpt lat="43.7244268" lon="10.463477"><ele>3.0</ele><time>2026-04-19T13:31:59.946Z</time></trkpt><trkpt lat="43.7243634" lon="10.4636091"><ele>3.0</ele><time>2026-04-19T13:32:00.946Z</time></trkpt><trkpt lat="43.7243016" lon="10.4637412"><ele>3.5</ele><time>2026-04-19T13:32:01.946Z</time></trkpt><trkpt lat="43.724237" lon="10.4638703"><ele>4.0</ele><time>2026-04-19T13:32:02.946Z</time></trkpt><trkpt lat="43.724173" lon="10.4640073"><ele>4.5</ele><time>2026-04-19T13:32:03.946Z</time></trkpt><trkpt lat="43.7241086" lon="10.4641392"><ele>5.0</ele><time>2026-04-19T13:32:04.946Z</time></trkpt><trkpt lat="43.7240494" lon="10.4642709"><ele>5.0</ele><time>2026-04-19T13:32:05.946Z</time></trkpt><trkpt lat="43.723992" lon="10.4644008"><ele>5.0</ele><time>2026-04-19T13:32:06.946Z</time></trkpt><trkpt lat="43.7239319" lon="10.4645442"><ele>5.0</ele><time>2026-04-19T13:32:07.946Z</time></trkpt><trkpt lat="43.7238707" lon="10.4646848"><ele>5.0</ele><time>2026-04-19T13:32:08.946Z</time></trkpt><trkpt lat="43.7238132" lon="10.4648265"><ele>5.0</ele><time>2026-04-19T13:32:09.947Z</time></trkpt><trkpt lat="43.7237624" lon="10.4649654"><ele>5.0</ele><time>2026-04-19T13:32:10.947Z</time></trkpt><trkpt lat="43.7237089" lon="10.4650983"><ele>5.0</ele><time>2026-04-19T13:32:11.946Z</time></trkpt><trkpt lat="43.7236563" lon="10.4652319"><ele>5.0</ele><time>2026-04-19T13:32:12.947Z</time></trkpt><trkpt lat="43.7236066" lon="10.4653536"><ele>5.0</ele><time>2026-04-19T13:32:13.946Z</time></trkpt><trkpt lat="43.723554" lon="10.465478"><ele>5.0</ele><time>2026-04-19T13:32:14.946Z</time></trkpt><trkpt lat="43.7235048" lon="10.4656079"><ele>5.0</ele><time>2026-04-19T13:32:15.946Z</time></trkpt><trkpt lat="43.7234575" lon="10.4657347"><ele>5.0</ele><time>2026-04-19T13:32:16.946Z</time></trkpt><trkpt lat="43.7234172" lon="10.4658583"><ele>5.0</ele><time>2026-04-19T13:32:17.946Z</time></trkpt><trkpt lat="43.7233803" lon="10.4659967"><ele>5.0</ele><time>2026-04-19T13:32:18.946Z</time></trkpt><trkpt lat="43.7233462" lon="10.466144"><ele>4.75</ele><time>2026-04-19T13:32:19.946Z</time></trkpt><trkpt lat="43.7233293" lon="10.4662952"><ele>4.5</ele><time>2026-04-19T13:32:20.946Z</time></trkpt><trkpt lat="43.7233197" lon="10.4664654"><ele>4.25</ele><time>2026-04-19T13:32:21.946Z</time></trkpt><trkpt lat="43.723313" lon="10.4666333"><ele>4.0</ele><time>2026-04-19T13:32:22.946Z</time></trkpt><trkpt lat="43.7232987" lon="10.4667974"><ele>4.0</ele><time>2026-04-19T13:32:23.946Z</time></trkpt><trkpt lat="43.7232893" lon="10.4669685"><ele>4.0</ele><time>2026-04-19T13:32:24.946Z</time></trkpt><trkpt lat="43.7232842" lon="10.4671323"><ele>4.0</ele><time>2026-04-19T13:32:25.946Z</time></trkpt><trkpt lat="43.7232752" lon="10.4673016"><ele>4.0</ele><time>2026-04-19T13:32:26.946Z</time></trkpt><trkpt lat="43.7232625" lon="10.4674646"><ele>4.0</ele><time>2026-04-19T13:32:27.946Z</time></trkpt><trkpt lat="43.7232512" lon="10.46762"><ele>4.0</ele><time>2026-04-19T13:32:28.946Z</time></trkpt><trkpt lat="43.7232434" lon="10.4677717"><ele>4.0</ele><time>2026-04-19T13:32:29.946Z</time></trkpt><trkpt lat="43.7232363" lon="10.4679202"><ele>4.0</ele><time>2026-04-19T13:32:30.946Z</time></trkpt><trkpt lat="43.7232324" lon="10.4680724"><ele>4.0</ele><time>2026-04-19T13:32:31.946Z</time></trkpt><trkpt lat="43.7232298" lon="10.4682234"><ele>4.0</ele><time>2026-04-19T13:32:32.946Z</time></trkpt><trkpt lat="43.7232246" lon="10.4683763"><ele>4.0</ele><time>2026-04-19T13:32:33.946Z</time></trkpt><trkpt lat="43.7232169" lon="10.4685244"><ele>4.0</ele><time>2026-04-19T13:32:34.947Z</time></trkpt><trkpt lat="43.7232129" lon="10.46867"><ele>4.0</ele><time>2026-04-19T13:32:35.946Z</time></trkpt><trkpt lat="43.7232108" lon="10.4688142"><ele>4.0</ele><time>2026-04-19T13:32:36.946Z</time></trkpt><trkpt lat="43.7232095" lon="10.4689513"><ele>3.833333333333333</ele><time>2026-04-19T13:32:37.946Z</time></trkpt><trkpt lat="43.7232126" lon="10.4690829"><ele>3.6666666666666665</ele><time>2026-04-19T13:32:38.946Z</time></trkpt><trkpt lat="43.7232165" lon="10.4692032"><ele>3.5</ele><time>2026-04-19T13:32:39.946Z</time></trkpt><trkpt lat="43.7232201" lon="10.4693127"><ele>3.333333333333333</ele><time>2026-04-19T13:32:40.947Z</time></trkpt><trkpt lat="43.723219" lon="10.469412"><ele>3.1666666666666665</ele><time>2026-04-19T13:32:41.946Z</time></trkpt><trkpt lat="43.7232206" lon="10.4695041"><ele>3.0</ele><time>2026-04-19T13:32:42.946Z</time></trkpt><trkpt lat="43.7232192" lon="10.4695939"><ele>3.0</ele><time>2026-04-19T13:32:43.947Z</time></trkpt><trkpt lat="43.7232197" lon="10.4697474"><ele>3.0</ele><time>2026-04-19T13:32:45.946Z</time></trkpt><trkpt lat="43.7232252" lon="10.4698662"><ele>3.0</ele><time>2026-04-19T13:32:47.946Z</time></trkpt><trkpt lat="43.7232303" lon="10.4699931"><ele>3.0</ele><time>2026-04-19T13:32:50.946Z</time></trkpt><trkpt lat="43.7232349" lon="10.4700903"><ele>3.0</ele><time>2026-04-19T13:32:54.947Z</time></trkpt><trkpt lat="43.7232299" lon="10.4701869"><ele>3.0</ele><time>2026-04-19T13:33:04.946Z</time></trkpt><trkpt lat="43.7232297" lon="10.4702908"><ele>3.0</ele><time>2026-04-19T13:33:06.947Z</time></trkpt><trkpt lat="43.7232283" lon="10.4704261"><ele>3.0</ele><time>2026-04-19T13:33:08.946Z</time></trkpt><trkpt lat="43.7232321" lon="10.470593"><ele>3.0</ele><time>2026-04-19T13:33:10.946Z</time></trkpt><trkpt lat="43.723237" lon="10.4706811"><ele>3.0</ele><time>2026-04-19T13:33:11.947Z</time></trkpt><trkpt lat="43.723239" lon="10.4707727"><ele>3.0</ele><time>2026-04-19T13:33:12.946Z</time></trkpt><trkpt lat="43.7232435" lon="10.4708747"><ele>3.0</ele><time>2026-04-19T13:33:13.946Z</time></trkpt><trkpt lat="43.723244" lon="10.4709894"><ele>3.0</ele><time>2026-04-19T13:33:14.946Z</time></trkpt><trkpt lat="43.7232499" lon="10.4711233"><ele>3.0</ele><time>2026-04-19T13:33:15.946Z</time></trkpt><trkpt lat="43.7232578" lon="10.4712615"><ele>3.0</ele><time>2026-04-19T13:33:16.946Z</time></trkpt><trkpt lat="43.7232644" lon="10.4713928"><ele>3.0</ele><time>2026-04-19T13:33:17.946Z</time></trkpt><trkpt lat="43.7232712" lon="10.4715276"><ele>3.0</ele><time>2026-04-19T13:33:18.946Z</time></trkpt><trkpt lat="43.7232749" lon="10.4716708"><ele>3.0</ele><time>2026-04-19T13:33:19.946Z</time></trkpt><trkpt lat="43.72328" lon="10.4718073"><ele>3.0</ele><time>2026-04-19T13:33:20.946Z</time></trkpt><trkpt lat="43.7232855" lon="10.4719489"><ele>3.0</ele><time>2026-04-19T13:33:21.946Z</time></trkpt><trkpt lat="43.7232949" lon="10.4720897"><ele>3.0</ele><time>2026-04-19T13:33:22.946Z</time></trkpt><trkpt lat="43.7233009" lon="10.4722267"><ele>3.0</ele><time>2026-04-19T13:33:23.946Z</time></trkpt><trkpt lat="43.7233076" lon="10.472369"><ele>3.0</ele><time>2026-04-19T13:33:24.946Z</time></trkpt><trkpt lat="43.7233145" lon="10.4725128"><ele>3.0</ele><time>2026-04-19T13:33:25.946Z</time></trkpt><trkpt lat="43.7233224" lon="10.4726648"><ele>3.0</ele><time>2026-04-19T13:33:26.946Z</time></trkpt><trkpt lat="43.7233295" lon="10.4728153"><ele>3.0</ele><time>2026-04-19T13:33:27.946Z</time></trkpt><trkpt lat="43.7233368" lon="10.4729662"><ele>3.0</ele><time>2026-04-19T13:33:28.946Z</time></trkpt><trkpt lat="43.7233413" lon="10.4731142"><ele>3.0</ele><time>2026-04-19T13:33:29.946Z</time></trkpt><trkpt lat="43.7233465" lon="10.4732631"><ele>3.0</ele><time>2026-04-19T13:33:30.946Z</time></trkpt><trkpt lat="43.7233502" lon="10.4734193"><ele>3.0</ele><time>2026-04-19T13:33:31.946Z</time></trkpt><trkpt lat="43.7233448" lon="10.4735787"><ele>3.0</ele><time>2026-04-19T13:33:32.946Z</time></trkpt><trkpt lat="43.7233373" lon="10.4737553"><ele>3.0</ele><time>2026-04-19T13:33:33.947Z</time></trkpt><trkpt lat="43.7233196" lon="10.4739515"><ele>3.0</ele><time>2026-04-19T13:33:34.946Z</time></trkpt><trkpt lat="43.7232902" lon="10.4741527"><ele>3.0</ele><time>2026-04-19T13:33:35.947Z</time></trkpt><trkpt lat="43.7232486" lon="10.4743666"><ele>3.0</ele><time>2026-04-19T13:33:36.946Z</time></trkpt><trkpt lat="43.7231978" lon="10.4745884"><ele>3.0</ele><time>2026-04-19T13:33:37.946Z</time></trkpt><trkpt lat="43.7231403" lon="10.47481"><ele>3.0</ele><time>2026-04-19T13:33:38.946Z</time></trkpt><trkpt lat="43.7230773" lon="10.4750242"><ele>3.333333333333333</ele><time>2026-04-19T13:33:39.946Z</time></trkpt><trkpt lat="43.7230177" lon="10.4752413"><ele>3.6666666666666665</ele><time>2026-04-19T13:33:40.946Z</time></trkpt><trkpt lat="43.7229598" lon="10.475473"><ele>4.0</ele><time>2026-04-19T13:33:41.946Z</time></trkpt><trkpt lat="43.7228961" lon="10.4757448"><ele>4.0</ele><time>2026-04-19T13:33:42.946Z</time></trkpt><trkpt lat="43.7228249" lon="10.4760063"><ele>4.0</ele><time>2026-04-19T13:33:43.946Z</time></trkpt><trkpt lat="43.7227662" lon="10.4762689"><ele>4.0</ele><time>2026-04-19T13:33:44.946Z</time></trkpt><trkpt lat="43.7227201" lon="10.4765297"><ele>4.0</ele><time>2026-04-19T13:33:45.946Z</time></trkpt><trkpt lat="43.7226767" lon="10.4767854"><ele>4.0</ele><time>2026-04-19T13:33:46.946Z</time></trkpt><trkpt lat="43.7226226" lon="10.4770412"><ele>4.0</ele><time>2026-04-19T13:33:47.947Z</time></trkpt><trkpt lat="43.7225703" lon="10.4772899"><ele>3.6666666666666665</ele><time>2026-04-19T13:33:48.947Z</time></trkpt><trkpt lat="43.7225207" lon="10.4775289"><ele>3.333333333333333</ele><time>2026-04-19T13:33:49.947Z</time></trkpt><trkpt lat="43.7224825" lon="10.477785"><ele>3.0</ele><time>2026-04-19T13:33:50.947Z</time></trkpt><trkpt lat="43.7224573" lon="10.4780462"><ele>3.0</ele><time>2026-04-19T13:33:51.946Z</time></trkpt><trkpt lat="43.7224412" lon="10.4783084"><ele>3.0</ele><time>2026-04-19T13:33:52.946Z</time></trkpt><trkpt lat="43.7224273" lon="10.4785676"><ele>3.0</ele><time>2026-04-19T13:33:53.946Z</time></trkpt><trkpt lat="43.7224188" lon="10.4788268"><ele>3.0</ele><time>2026-04-19T13:33:54.946Z</time></trkpt><trkpt lat="43.7224067" lon="10.4790912"><ele>3.0</ele><time>2026-04-19T13:33:55.946Z</time></trkpt><trkpt lat="43.7223867" lon="10.479345"><ele>3.0</ele><time>2026-04-19T13:33:56.946Z</time></trkpt><trkpt lat="43.722366" lon="10.479608"><ele>3.0</ele><time>2026-04-19T13:33:57.947Z</time></trkpt><trkpt lat="43.7223457" lon="10.4798803"><ele>3.0</ele><time>2026-04-19T13:33:58.946Z</time></trkpt><trkpt lat="43.7223132" lon="10.4801547"><ele>3.0</ele><time>2026-04-19T13:33:59.946Z</time></trkpt><trkpt lat="43.7222671" lon="10.4804453"><ele>3.333333333333333</ele><time>2026-04-19T13:34:00.946Z</time></trkpt><trkpt lat="43.722219" lon="10.480721"><ele>3.6666666666666665</ele><time>2026-04-19T13:34:01.946Z</time></trkpt><trkpt lat="43.7221727" lon="10.4809912"><ele>4.0</ele><time>2026-04-19T13:34:02.947Z</time></trkpt><trkpt lat="43.7221356" lon="10.4812615"><ele>4.0</ele><time>2026-04-19T13:34:03.946Z</time></trkpt><trkpt lat="43.7220983" lon="10.4815293"><ele>4.0</ele><time>2026-04-19T13:34:04.946Z</time></trkpt><trkpt lat="43.7220667" lon="10.4817951"><ele>4.0</ele><time>2026-04-19T13:34:05.946Z</time></trkpt><trkpt lat="43.7220415" lon="10.4820723"><ele>3.333333333333333</ele><time>2026-04-19T13:34:06.946Z</time></trkpt><trkpt lat="43.7220209" lon="10.4823596"><ele>2.6666666666666665</ele><time>2026-04-19T13:34:07.946Z</time></trkpt><trkpt lat="43.7220074" lon="10.4826478"><ele>2.0</ele><time>2026-04-19T13:34:08.946Z</time></trkpt><trkpt lat="43.7219959" lon="10.4829324"><ele>2.0</ele><time>2026-04-19T13:34:09.946Z</time></trkpt><trkpt lat="43.7219842" lon="10.4832041"><ele>2.0</ele><time>2026-04-19T13:34:10.946Z</time></trkpt><trkpt lat="43.7219744" lon="10.4834832"><ele>2.0</ele><time>2026-04-19T13:34:11.946Z</time></trkpt><trkpt lat="43.7219534" lon="10.4837534"><ele>2.0</ele><time>2026-04-19T13:34:12.946Z</time></trkpt><trkpt lat="43.7219147" lon="10.4840271"><ele>2.0</ele><time>2026-04-19T13:34:13.946Z</time></trkpt><trkpt lat="43.7218695" lon="10.4843041"><ele>2.0</ele><time>2026-04-19T13:34:14.946Z</time></trkpt><trkpt lat="43.7218137" lon="10.4845774"><ele>2.333333333333333</ele><time>2026-04-19T13:34:15.946Z</time></trkpt><trkpt lat="43.721768" lon="10.4848501"><ele>2.6666666666666665</ele><time>2026-04-19T13:34:16.946Z</time></trkpt><trkpt lat="43.7217352" lon="10.485125"><ele>3.0</ele><time>2026-04-19T13:34:17.946Z</time></trkpt><trkpt lat="43.7217189" lon="10.485398"><ele>3.666666666666667</ele><time>2026-04-19T13:34:18.946Z</time></trkpt><trkpt lat="43.7217183" lon="10.4856783"><ele>4.333333333333334</ele><time>2026-04-19T13:34:19.946Z</time></trkpt><trkpt lat="43.7217285" lon="10.4859511"><ele>5.0</ele><time>2026-04-19T13:34:20.946Z</time></trkpt><trkpt lat="43.7217598" lon="10.4862241"><ele>4.333333333333334</ele><time>2026-04-19T13:34:21.946Z</time></trkpt><trkpt lat="43.721803" lon="10.4864933"><ele>3.666666666666667</ele><time>2026-04-19T13:34:22.946Z</time></trkpt><trkpt lat="43.7218513" lon="10.4867534"><ele>3.0</ele><time>2026-04-19T13:34:23.946Z</time></trkpt><trkpt lat="43.7218942" lon="10.4870077"><ele>3.0</ele><time>2026-04-19T13:34:24.946Z</time></trkpt><trkpt lat="43.7219301" lon="10.487256"><ele>3.0</ele><time>2026-04-19T13:34:25.946Z</time></trkpt><trkpt lat="43.7219632" lon="10.4874987"><ele>3.0</ele><time>2026-04-19T13:34:26.946Z</time></trkpt><trkpt lat="43.7219878" lon="10.4877315"><ele>3.0</ele><time>2026-04-19T13:34:27.947Z</time></trkpt><trkpt lat="43.7220103" lon="10.4879515"><ele>3.0</ele><time>2026-04-19T13:34:28.946Z</time></trkpt><trkpt lat="43.722029" lon="10.4881544"><ele>3.0</ele><time>2026-04-19T13:34:29.946Z</time></trkpt><trkpt lat="43.7220433" lon="10.4883502"><ele>3.0</ele><time>2026-04-19T13:34:30.946Z</time></trkpt><trkpt lat="43.7220567" lon="10.4885293"><ele>3.0</ele><time>2026-04-19T13:34:31.947Z</time></trkpt><trkpt lat="43.7220698" lon="10.4887096"><ele>3.0</ele><time>2026-04-19T13:34:32.946Z</time></trkpt><trkpt lat="43.7220835" lon="10.4888961"><ele>3.0</ele><time>2026-04-19T13:34:33.946Z</time></trkpt><trkpt lat="43.722098" lon="10.4890895"><ele>3.0</ele><time>2026-04-19T13:34:34.947Z</time></trkpt><trkpt lat="43.7221141" lon="10.4892692"><ele>3.0</ele><time>2026-04-19T13:34:35.946Z</time></trkpt><trkpt lat="43.7221363" lon="10.4894405"><ele>3.0</ele><time>2026-04-19T13:34:36.946Z</time></trkpt><trkpt lat="43.722157" lon="10.4895964"><ele>3.0</ele><time>2026-04-19T13:34:37.946Z</time></trkpt><trkpt lat="43.722173" lon="10.4897423"><ele>3.0</ele><time>2026-04-19T13:34:38.947Z</time></trkpt><trkpt lat="43.7221766" lon="10.4898743"><ele>3.0</ele><time>2026-04-19T13:34:39.946Z</time></trkpt><trkpt lat="43.7221784" lon="10.4899923"><ele>3.0</ele><time>2026-04-19T13:34:40.946Z</time></trkpt><trkpt lat="43.7221833" lon="10.490093"><ele>3.0</ele><time>2026-04-19T13:34:41.946Z</time></trkpt><trkpt lat="43.7221999" lon="10.4901917"><ele>3.0</ele><time>2026-04-19T13:34:42.947Z</time></trkpt><trkpt lat="43.7222332" lon="10.4902927"><ele>3.0</ele><time>2026-04-19T13:34:43.946Z</time></trkpt><trkpt lat="43.7222861" lon="10.4903975"><ele>3.0</ele><time>2026-04-19T13:34:44.946Z</time></trkpt><trkpt lat="43.722347" lon="10.4905075"><ele>3.0</ele><time>2026-04-19T13:34:45.946Z</time></trkpt><trkpt lat="43.7224274" lon="10.4906245"><ele>3.0</ele><time>2026-04-19T13:34:46.947Z</time></trkpt><trkpt lat="43.722508" lon="10.4907354"><ele>3.0</ele><time>2026-04-19T13:34:47.946Z</time></trkpt><trkpt lat="43.7226011" lon="10.4908418"><ele>3.0</ele><time>2026-04-19T13:34:48.947Z</time></trkpt><trkpt lat="43.722702" lon="10.4909488"><ele>3.0</ele><time>2026-04-19T13:34:49.946Z</time></trkpt><trkpt lat="43.7228086" lon="10.4910644"><ele>3.0</ele><time>2026-04-19T13:34:50.946Z</time></trkpt><trkpt lat="43.722926" lon="10.4911806"><ele>3.0</ele><time>2026-04-19T13:34:51.946Z</time></trkpt><trkpt lat="43.7230411" lon="10.4912956"><ele>3.25</ele><time>2026-04-19T13:34:52.946Z</time></trkpt><trkpt lat="43.7231513" lon="10.4914024"><ele>3.5</ele><time>2026-04-19T13:34:53.946Z</time></trkpt><trkpt lat="43.7232527" lon="10.4915042"><ele>3.75</ele><time>2026-04-19T13:34:54.946Z</time></trkpt><trkpt lat="43.7233532" lon="10.4916378"><ele>4.0</ele><time>2026-04-19T13:34:55.946Z</time></trkpt><trkpt lat="43.7234395" lon="10.4917742"><ele>4.0</ele><time>2026-04-19T13:34:56.946Z</time></trkpt><trkpt lat="43.7235265" lon="10.4919205"><ele>4.0</ele><time>2026-04-19T13:34:57.946Z</time></trkpt><trkpt lat="43.7236113" lon="10.492069"><ele>4.0</ele><time>2026-04-19T13:34:58.947Z</time></trkpt><trkpt lat="43.7236993" lon="10.492221"><ele>4.0</ele><time>2026-04-19T13:34:59.946Z</time></trkpt><trkpt lat="43.7237858" lon="10.4923637"><ele>4.25</ele><time>2026-04-19T13:35:00.946Z</time></trkpt><trkpt lat="43.7238653" lon="10.4925099"><ele>4.5</ele><time>2026-04-19T13:35:01.947Z</time></trkpt><trkpt lat="43.7239387" lon="10.4926512"><ele>4.75</ele><time>2026-04-19T13:35:02.946Z</time></trkpt><trkpt lat="43.7240131" lon="10.4928059"><ele>5.0</ele><time>2026-04-19T13:35:03.946Z</time></trkpt><trkpt lat="43.724081" lon="10.4929551"><ele>5.0</ele><time>2026-04-19T13:35:04.947Z</time></trkpt><trkpt lat="43.7241489" lon="10.4930955"><ele>5.0</ele><time>2026-04-19T13:35:05.946Z</time></trkpt><trkpt lat="43.7242002" lon="10.4932317"><ele>5.0</ele><time>2026-04-19T13:35:06.946Z</time></trkpt><trkpt lat="43.7242504" lon="10.4933583"><ele>5.0</ele><time>2026-04-19T13:35:07.946Z</time></trkpt><trkpt lat="43.7243012" lon="10.4934758"><ele>5.0</ele><time>2026-04-19T13:35:08.946Z</time></trkpt><trkpt lat="43.7243471" lon="10.4935922"><ele>5.0</ele><time>2026-04-19T13:35:09.946Z</time></trkpt><trkpt lat="43.724384" lon="10.4936976"><ele>5.0</ele><time>2026-04-19T13:35:10.946Z</time></trkpt><trkpt lat="43.7244209" lon="10.4937952"><ele>5.0</ele><time>2026-04-19T13:35:11.946Z</time></trkpt><trkpt lat="43.7244513" lon="10.4938831"><ele>5.0</ele><time>2026-04-19T13:35:12.946Z</time></trkpt><trkpt lat="43.7244771" lon="10.4940132"><ele>5.0</ele><time>2026-04-19T13:35:14.946Z</time></trkpt><trkpt lat="43.7244911" lon="10.4941151"><ele>5.0</ele><time>2026-04-19T13:35:45.946Z</time></trkpt><trkpt lat="43.7244747" lon="10.4942492"><ele>5.166666666666667</ele><time>2026-04-19T13:35:48.946Z</time></trkpt><trkpt lat="43.7244545" lon="10.494336"><ele>5.333333333333334</ele><time>2026-04-19T13:35:49.947Z</time></trkpt><trkpt lat="43.7244168" lon="10.4944195"><ele>5.5</ele><time>2026-04-19T13:35:50.946Z</time></trkpt><trkpt lat="43.7243756" lon="10.4945014"><ele>5.666666666666667</ele><time>2026-04-19T13:35:51.946Z</time></trkpt><trkpt lat="43.7243312" lon="10.4945907"><ele>5.833333333333333</ele><time>2026-04-19T13:35:52.946Z</time></trkpt><trkpt lat="43.7242856" lon="10.4946797"><ele>6.0</ele><time>2026-04-19T13:35:53.946Z</time></trkpt><trkpt lat="43.7242288" lon="10.4947883"><ele>6.75</ele><time>2026-04-19T13:35:54.946Z</time></trkpt><trkpt lat="43.7241656" lon="10.4949202"><ele>7.5</ele><time>2026-04-19T13:35:55.946Z</time></trkpt><trkpt lat="43.7241044" lon="10.4950484"><ele>8.25</ele><time>2026-04-19T13:35:56.946Z</time></trkpt><trkpt lat="43.7240364" lon="10.495197"><ele>9.0</ele><time>2026-04-19T13:35:57.946Z</time></trkpt><trkpt lat="43.7239652" lon="10.495335"><ele>9.5</ele><time>2026-04-19T13:35:58.946Z</time></trkpt><trkpt lat="43.7238918" lon="10.495475"><ele>10.0</ele><time>2026-04-19T13:35:59.946Z</time></trkpt><trkpt lat="43.7238187" lon="10.4956099"><ele>10.5</ele><time>2026-04-19T13:36:00.946Z</time></trkpt><trkpt lat="43.7237459" lon="10.4957465"><ele>11.0</ele><time>2026-04-19T13:36:01.946Z</time></trkpt><trkpt lat="43.7236753" lon="10.4958938"><ele>11.0</ele><time>2026-04-19T13:36:02.946Z</time></trkpt><trkpt lat="43.7236096" lon="10.4960371"><ele>11.0</ele><time>2026-04-19T13:36:03.946Z</time></trkpt><trkpt lat="43.7235427" lon="10.4961655"><ele>11.0</ele><time>2026-04-19T13:36:04.947Z</time></trkpt><trkpt lat="43.7234793" lon="10.4962976"><ele>11.0</ele><time>2026-04-19T13:36:05.946Z</time></trkpt><trkpt lat="43.7234188" lon="10.4964223"><ele>10.25</ele><time>2026-04-19T13:36:06.947Z</time></trkpt><trkpt lat="43.7233596" lon="10.4965512"><ele>9.5</ele><time>2026-04-19T13:36:07.947Z</time></trkpt><trkpt lat="43.7232943" lon="10.4967013"><ele>8.75</ele><time>2026-04-19T13:36:08.946Z</time></trkpt><trkpt lat="43.7232357" lon="10.4968453"><ele>8.0</ele><time>2026-04-19T13:36:09.946Z</time></trkpt><trkpt lat="43.7231787" lon="10.4969956"><ele>8.25</ele><time>2026-04-19T13:36:10.947Z</time></trkpt><trkpt lat="43.7231283" lon="10.4971525"><ele>8.5</ele><time>2026-04-19T13:36:11.946Z</time></trkpt><trkpt lat="43.7230854" lon="10.4973135"><ele>8.75</ele><time>2026-04-19T13:36:12.946Z</time></trkpt><trkpt lat="43.7230398" lon="10.4974775"><ele>9.0</ele><time>2026-04-19T13:36:13.946Z</time></trkpt><trkpt lat="43.7229969" lon="10.4976457"><ele>9.0</ele><time>2026-04-19T13:36:14.947Z</time></trkpt><trkpt lat="43.7229637" lon="10.4978126"><ele>9.0</ele><time>2026-04-19T13:36:15.946Z</time></trkpt><trkpt lat="43.7229253" lon="10.4979818"><ele>9.0</ele><time>2026-04-19T13:36:16.946Z</time></trkpt><trkpt lat="43.722893" lon="10.4981449"><ele>9.0</ele><time>2026-04-19T13:36:17.947Z</time></trkpt><trkpt lat="43.7228609" lon="10.4983123"><ele>9.0</ele><time>2026-04-19T13:36:18.946Z</time></trkpt><trkpt lat="43.7228191" lon="10.4984891"><ele>9.0</ele><time>2026-04-19T13:36:19.947Z</time></trkpt><trkpt lat="43.722775" lon="10.4986633"><ele>9.0</ele><time>2026-04-19T13:36:20.946Z</time></trkpt><trkpt lat="43.7227381" lon="10.4988262"><ele>9.0</ele><time>2026-04-19T13:36:21.946Z</time></trkpt><trkpt lat="43.7227165" lon="10.4989771"><ele>9.0</ele><time>2026-04-19T13:36:22.946Z</time></trkpt><trkpt lat="43.7227123" lon="10.499147"><ele>9.0</ele><time>2026-04-19T13:36:23.946Z</time></trkpt><trkpt lat="43.7227202" lon="10.4993204"><ele>9.0</ele><time>2026-04-19T13:36:24.946Z</time></trkpt><trkpt lat="43.7227327" lon="10.499477"><ele>9.0</ele><time>2026-04-19T13:36:25.946Z</time></trkpt><trkpt lat="43.722734" lon="10.4996113"><ele>9.8</ele><time>2026-04-19T13:36:26.946Z</time></trkpt><trkpt lat="43.7227115" lon="10.4997257"><ele>10.600000000000001</ele><time>2026-04-19T13:36:27.946Z</time></trkpt><trkpt lat="43.7226595" lon="10.4998205"><ele>11.4</ele><time>2026-04-19T13:36:28.946Z</time></trkpt><trkpt lat="43.7225915" lon="10.499914"><ele>12.200000000000001</ele><time>2026-04-19T13:36:29.946Z</time></trkpt><trkpt lat="43.7225404" lon="10.5000207"><ele>13.0</ele><time>2026-04-19T13:36:30.946Z</time></trkpt><trkpt lat="43.7225174" lon="10.5001418"><ele>13.0</ele><time>2026-04-19T13:36:31.946Z</time></trkpt><trkpt lat="43.722516" lon="10.5003121"><ele>13.0</ele><time>2026-04-19T13:36:32.946Z</time></trkpt><trkpt lat="43.7225079" lon="10.5004696"><ele>13.0</ele><time>2026-04-19T13:36:33.946Z</time></trkpt><trkpt lat="43.7224806" lon="10.500659"><ele>13.0</ele><time>2026-04-19T13:36:34.946Z</time></trkpt><trkpt lat="43.7224283" lon="10.500874"><ele>12.333333333333332</ele><time>2026-04-19T13:36:35.946Z</time></trkpt><trkpt lat="43.7223483" lon="10.5010893"><ele>11.666666666666666</ele><time>2026-04-19T13:36:36.946Z</time></trkpt><trkpt lat="43.7222488" lon="10.501312"><ele>11.0</ele><time>2026-04-19T13:36:37.946Z</time></trkpt><trkpt lat="43.7221363" lon="10.5015513"><ele>11.0</ele><time>2026-04-19T13:36:38.946Z</time></trkpt><trkpt lat="43.7220189" lon="10.5018008"><ele>11.0</ele><time>2026-04-19T13:36:39.946Z</time></trkpt><trkpt lat="43.7218996" lon="10.5020485"><ele>11.0</ele><time>2026-04-19T13:36:40.947Z</time></trkpt><trkpt lat="43.72178" lon="10.5022882"><ele>10.666666666666666</ele><time>2026-04-19T13:36:41.946Z</time></trkpt><trkpt lat="43.721663" lon="10.5025374"><ele>10.333333333333334</ele><time>2026-04-19T13:36:42.946Z</time></trkpt><trkpt lat="43.7215478" lon="10.5027767"><ele>10.0</ele><time>2026-04-19T13:36:43.946Z</time></trkpt><trkpt lat="43.7214345" lon="10.5030126"><ele>10.0</ele><time>2026-04-19T13:36:44.946Z</time></trkpt><trkpt lat="43.7213219" lon="10.5032558"><ele>10.0</ele><time>2026-04-19T13:36:45.946Z</time></trkpt><trkpt lat="43.7212054" lon="10.5035014"><ele>10.0</ele><time>2026-04-19T13:36:46.947Z</time></trkpt><trkpt lat="43.72109" lon="10.5037429"><ele>10.0</ele><time>2026-04-19T13:36:47.946Z</time></trkpt><trkpt lat="43.7209774" lon="10.5039715"><ele>10.0</ele><time>2026-04-19T13:36:48.947Z</time></trkpt><trkpt lat="43.7208627" lon="10.5042079"><ele>10.0</ele><time>2026-04-19T13:36:49.946Z</time></trkpt><trkpt lat="43.720749" lon="10.5044481"><ele>10.666666666666668</ele><time>2026-04-19T13:36:50.946Z</time></trkpt><trkpt lat="43.7206313" lon="10.5046981"><ele>11.333333333333334</ele><time>2026-04-19T13:36:51.946Z</time></trkpt><trkpt lat="43.7205152" lon="10.5049455"><ele>12.0</ele><time>2026-04-19T13:36:52.946Z</time></trkpt><trkpt lat="43.7203972" lon="10.5051965"><ele>12.0</ele><time>2026-04-19T13:36:53.946Z</time></trkpt><trkpt lat="43.7202812" lon="10.5054429"><ele>12.0</ele><time>2026-04-19T13:36:54.946Z</time></trkpt><trkpt lat="43.7201641" lon="10.5056862"><ele>12.0</ele><time>2026-04-19T13:36:55.946Z</time></trkpt><trkpt lat="43.7200515" lon="10.5059391"><ele>12.0</ele><time>2026-04-19T13:36:56.946Z</time></trkpt><trkpt lat="43.7199336" lon="10.506193"><ele>12.0</ele><time>2026-04-19T13:36:57.946Z</time></trkpt><trkpt lat="43.7198199" lon="10.50644"><ele>12.0</ele><time>2026-04-19T13:36:58.946Z</time></trkpt><trkpt lat="43.7197139" lon="10.5066779"><ele>12.0</ele><time>2026-04-19T13:36:59.946Z</time></trkpt><trkpt lat="43.7196064" lon="10.5069111"><ele>12.0</ele><time>2026-04-19T13:37:00.946Z</time></trkpt><trkpt lat="43.7195042" lon="10.5071453"><ele>12.0</ele><time>2026-04-19T13:37:01.946Z</time></trkpt><trkpt lat="43.719394" lon="10.5073779"><ele>11.666666666666666</ele><time>2026-04-19T13:37:02.946Z</time></trkpt><trkpt lat="43.719279" lon="10.5076085"><ele>11.333333333333332</ele><time>2026-04-19T13:37:03.946Z</time></trkpt><trkpt lat="43.7191589" lon="10.5078407"><ele>11.0</ele><time>2026-04-19T13:37:04.946Z</time></trkpt><trkpt lat="43.7190346" lon="10.5080734"><ele>11.0</ele><time>2026-04-19T13:37:05.946Z</time></trkpt><trkpt lat="43.718909" lon="10.5083052"><ele>11.0</ele><time>2026-04-19T13:37:06.946Z</time></trkpt><trkpt lat="43.7187878" lon="10.5085268"><ele>11.0</ele><time>2026-04-19T13:37:07.946Z</time></trkpt><trkpt lat="43.7186735" lon="10.5087404"><ele>12.0</ele><time>2026-04-19T13:37:08.946Z</time></trkpt><trkpt lat="43.7185638" lon="10.5089473"><ele>13.0</ele><time>2026-04-19T13:37:09.946Z</time></trkpt><trkpt lat="43.7184556" lon="10.5091435"><ele>14.0</ele><time>2026-04-19T13:37:10.946Z</time></trkpt><trkpt lat="43.7183513" lon="10.5093354"><ele>14.0</ele><time>2026-04-19T13:37:11.947Z</time></trkpt><trkpt lat="43.7182561" lon="10.5095104"><ele>14.0</ele><time>2026-04-19T13:37:12.946Z</time></trkpt><trkpt lat="43.7181705" lon="10.5096692"><ele>14.0</ele><time>2026-04-19T13:37:13.946Z</time></trkpt><trkpt lat="43.7180976" lon="10.5098112"><ele>14.0</ele><time>2026-04-19T13:37:14.946Z</time></trkpt><trkpt lat="43.7180244" lon="10.5099332"><ele>14.799999999999999</ele><time>2026-04-19T13:37:15.946Z</time></trkpt><trkpt lat="43.7179568" lon="10.5100416"><ele>15.599999999999998</ele><time>2026-04-19T13:37:16.946Z</time></trkpt><trkpt lat="43.7178831" lon="10.5101236"><ele>16.4</ele><time>2026-04-19T13:37:17.946Z</time></trkpt><trkpt lat="43.7177995" lon="10.5101749"><ele>17.2</ele><time>2026-04-19T13:37:18.946Z</time></trkpt><trkpt lat="43.7176963" lon="10.5102117"><ele>18.0</ele><time>2026-04-19T13:37:19.946Z</time></trkpt><trkpt lat="43.7175828" lon="10.5102241"><ele>18.0</ele><time>2026-04-19T13:37:20.947Z</time></trkpt><trkpt lat="43.7174393" lon="10.5102011"><ele>18.0</ele><time>2026-04-19T13:37:21.946Z</time></trkpt><trkpt lat="43.7172724" lon="10.5101613"><ele>18.0</ele><time>2026-04-19T13:37:22.946Z</time></trkpt><trkpt lat="43.7170866" lon="10.5101291"><ele>18.333333333333332</ele><time>2026-04-19T13:37:23.947Z</time></trkpt><trkpt lat="43.7168801" lon="10.5100878"><ele>18.666666666666664</ele><time>2026-04-19T13:37:24.947Z</time></trkpt><trkpt lat="43.7166741" lon="10.5100505"><ele>19.0</ele><time>2026-04-19T13:37:25.946Z</time></trkpt><trkpt lat="43.7164876" lon="10.5100061"><ele>19.0</ele><time>2026-04-19T13:37:26.946Z</time></trkpt><trkpt lat="43.716299" lon="10.5099522"><ele>19.0</ele><time>2026-04-19T13:37:27.946Z</time></trkpt><trkpt lat="43.7161159" lon="10.5098889"><ele>19.0</ele><time>2026-04-19T13:37:28.946Z</time></trkpt><trkpt lat="43.715919" lon="10.5098015"><ele>18.333333333333332</ele><time>2026-04-19T13:37:29.946Z</time></trkpt><trkpt lat="43.7157195" lon="10.5096885"><ele>17.666666666666668</ele><time>2026-04-19T13:37:30.946Z</time></trkpt><trkpt lat="43.7155152" lon="10.5095499"><ele>17.0</ele><time>2026-04-19T13:37:31.946Z</time></trkpt><trkpt lat="43.7152941" lon="10.5093857"><ele>16.5</ele><time>2026-04-19T13:37:32.946Z</time></trkpt><trkpt lat="43.7150814" lon="10.5092303"><ele>16.0</ele><time>2026-04-19T13:37:33.946Z</time></trkpt><trkpt lat="43.7148712" lon="10.5090803"><ele>16.0</ele><time>2026-04-19T13:37:34.946Z</time></trkpt><trkpt lat="43.7146676" lon="10.5089298"><ele>16.0</ele><time>2026-04-19T13:37:35.946Z</time></trkpt><trkpt lat="43.7144735" lon="10.5087895"><ele>14.666666666666666</ele><time>2026-04-19T13:37:36.946Z</time></trkpt><trkpt lat="43.7142839" lon="10.508654"><ele>13.333333333333332</ele><time>2026-04-19T13:37:37.946Z</time></trkpt><trkpt lat="43.7140887" lon="10.5085094"><ele>12.0</ele><time>2026-04-19T13:37:38.946Z</time></trkpt><trkpt lat="43.7138937" lon="10.508379"><ele>12.0</ele><time>2026-04-19T13:37:39.946Z</time></trkpt><trkpt lat="43.7136888" lon="10.5082451"><ele>12.0</ele><time>2026-04-19T13:37:40.946Z</time></trkpt><trkpt lat="43.7134867" lon="10.5081223"><ele>12.0</ele><time>2026-04-19T13:37:41.946Z</time></trkpt><trkpt lat="43.7132766" lon="10.5080007"><ele>11.0</ele><time>2026-04-19T13:37:42.946Z</time></trkpt><trkpt lat="43.7130697" lon="10.50789"><ele>10.0</ele><time>2026-04-19T13:37:43.946Z</time></trkpt><trkpt lat="43.7128715" lon="10.507784"><ele>9.0</ele><time>2026-04-19T13:37:44.946Z</time></trkpt><trkpt lat="43.7126779" lon="10.5076673"><ele>9.0</ele><time>2026-04-19T13:37:45.946Z</time></trkpt><trkpt lat="43.7124834" lon="10.5075495"><ele>9.0</ele><time>2026-04-19T13:37:46.946Z</time></trkpt><trkpt lat="43.7122944" lon="10.5074155"><ele>9.0</ele><time>2026-04-19T13:37:47.946Z</time></trkpt><trkpt lat="43.7121074" lon="10.5072864"><ele>9.0</ele><time>2026-04-19T13:37:48.946Z</time></trkpt><trkpt lat="43.7119284" lon="10.5071716"><ele>9.0</ele><time>2026-04-19T13:37:49.946Z</time></trkpt><trkpt lat="43.7117455" lon="10.5070582"><ele>9.0</ele><time>2026-04-19T13:37:50.946Z</time></trkpt><trkpt lat="43.7115656" lon="10.5069564"><ele>9.333333333333334</ele><time>2026-04-19T13:37:51.946Z</time></trkpt><trkpt lat="43.7113887" lon="10.5068504"><ele>9.666666666666668</ele><time>2026-04-19T13:37:52.946Z</time></trkpt><trkpt lat="43.7112168" lon="10.5067468"><ele>10.0</ele><time>2026-04-19T13:37:53.946Z</time></trkpt><trkpt lat="43.7110497" lon="10.506644"><ele>10.666666666666668</ele><time>2026-04-19T13:37:54.946Z</time></trkpt><trkpt lat="43.710877" lon="10.5065313"><ele>11.333333333333334</ele><time>2026-04-19T13:37:55.946Z</time></trkpt><trkpt lat="43.710733" lon="10.5064366"><ele>12.0</ele><time>2026-04-19T13:37:56.946Z</time></trkpt><trkpt lat="43.7105918" lon="10.506342"><ele>12.0</ele><time>2026-04-19T13:37:57.946Z</time></trkpt><trkpt lat="43.7104568" lon="10.5062548"><ele>12.0</ele><time>2026-04-19T13:37:58.946Z</time></trkpt><trkpt lat="43.710316" lon="10.5061556"><ele>12.0</ele><time>2026-04-19T13:37:59.946Z</time></trkpt><trkpt lat="43.7101773" lon="10.5060595"><ele>11.75</ele><time>2026-04-19T13:38:00.946Z</time></trkpt><trkpt lat="43.7100505" lon="10.5059693"><ele>11.5</ele><time>2026-04-19T13:38:01.946Z</time></trkpt><trkpt lat="43.7099176" lon="10.5058735"><ele>11.25</ele><time>2026-04-19T13:38:02.946Z</time></trkpt><trkpt lat="43.7097884" lon="10.5057877"><ele>11.0</ele><time>2026-04-19T13:38:03.946Z</time></trkpt><trkpt lat="43.7096581" lon="10.5057017"><ele>11.0</ele><time>2026-04-19T13:38:04.946Z</time></trkpt><trkpt lat="43.709529" lon="10.5056005"><ele>11.0</ele><time>2026-04-19T13:38:05.946Z</time></trkpt><trkpt lat="43.7094084" lon="10.505489"><ele>11.0</ele><time>2026-04-19T13:38:06.946Z</time></trkpt><trkpt lat="43.7092969" lon="10.5053802"><ele>11.0</ele><time>2026-04-19T13:38:07.946Z</time></trkpt><trkpt lat="43.7091909" lon="10.5052638"><ele>10.5</ele><time>2026-04-19T13:38:08.946Z</time></trkpt><trkpt lat="43.709086" lon="10.5051472"><ele>10.0</ele><time>2026-04-19T13:38:09.946Z</time></trkpt><trkpt lat="43.7089895" lon="10.5050342"><ele>9.5</ele><time>2026-04-19T13:38:10.946Z</time></trkpt><trkpt lat="43.7088944" lon="10.5049312"><ele>9.0</ele><time>2026-04-19T13:38:11.946Z</time></trkpt><trkpt lat="43.7088029" lon="10.5048283"><ele>9.0</ele><time>2026-04-19T13:38:12.946Z</time></trkpt><trkpt lat="43.708707" lon="10.5047244"><ele>9.0</ele><time>2026-04-19T13:38:13.946Z</time></trkpt><trkpt lat="43.7086228" lon="10.5046325"><ele>9.0</ele><time>2026-04-19T13:38:14.946Z</time></trkpt><trkpt lat="43.7085519" lon="10.5045442"><ele>9.0</ele><time>2026-04-19T13:38:15.946Z</time></trkpt><trkpt lat="43.7084847" lon="10.5044665"><ele>9.0</ele><time>2026-04-19T13:38:16.946Z</time></trkpt><trkpt lat="43.7084279" lon="10.5044004"><ele>9.000000000000002</ele><time>2026-04-19T13:38:17.946Z</time></trkpt><trkpt lat="43.7083798" lon="10.5043438"><ele>9.0</ele><time>2026-04-19T13:38:18.946Z</time></trkpt><trkpt lat="43.7083182" lon="10.5042735"><ele>9.0</ele><time>2026-04-19T13:38:20.946Z</time></trkpt><trkpt lat="43.7082609" lon="10.5042118"><ele>9.0</ele><time>2026-04-19T13:38:23.946Z</time></trkpt><trkpt lat="43.7082098" lon="10.5041567"><ele>9.0</ele><time>2026-04-19T13:38:27.946Z</time></trkpt><trkpt lat="43.708153" lon="10.5040951"><ele>9.000000000000002</ele><time>2026-04-19T13:38:33.946Z</time></trkpt><trkpt lat="43.7080907" lon="10.504037"><ele>9.0</ele><time>2026-04-19T13:38:46.946Z</time></trkpt><trkpt lat="43.7080363" lon="10.5039748"><ele>9.0</ele><time>2026-04-19T13:38:48.946Z</time></trkpt><trkpt lat="43.7079909" lon="10.5039038"><ele>9.0</ele><time>2026-04-19T13:38:50.946Z</time></trkpt><trkpt lat="43.7079457" lon="10.503802"><ele>9.0</ele><time>2026-04-19T13:38:53.947Z</time></trkpt><trkpt lat="43.7078935" lon="10.5037439"><ele>9.0</ele><time>2026-04-19T13:38:56.946Z</time></trkpt><trkpt lat="43.7077904" lon="10.5037691"><ele>9.0</ele><time>2026-04-19T13:38:58.946Z</time></trkpt><trkpt lat="43.7076874" lon="10.5038469"><ele>9.0</ele><time>2026-04-19T13:39:00.946Z</time></trkpt><trkpt lat="43.7076175" lon="10.5038828"><ele>9.4</ele><time>2026-04-19T13:39:01.947Z</time></trkpt><trkpt lat="43.7075416" lon="10.5039184"><ele>9.8</ele><time>2026-04-19T13:39:02.946Z</time></trkpt><trkpt lat="43.7074509" lon="10.5039567"><ele>10.200000000000001</ele><time>2026-04-19T13:39:03.946Z</time></trkpt><trkpt lat="43.7073537" lon="10.5039989"><ele>10.600000000000001</ele><time>2026-04-19T13:39:04.946Z</time></trkpt><trkpt lat="43.7072596" lon="10.5040402"><ele>11.0</ele><time>2026-04-19T13:39:05.946Z</time></trkpt><trkpt lat="43.707175" lon="10.5040687"><ele>11.0</ele><time>2026-04-19T13:39:06.947Z</time></trkpt><trkpt lat="43.7070964" lon="10.5040922"><ele>11.0</ele><time>2026-04-19T13:39:07.947Z</time></trkpt><trkpt lat="43.7070224" lon="10.5041128"><ele>11.0</ele><time>2026-04-19T13:39:08.946Z</time></trkpt><trkpt lat="43.7069546" lon="10.5041352"><ele>11.0</ele><time>2026-04-19T13:39:09.946Z</time></trkpt><trkpt lat="43.7068607" lon="10.5042362"><ele>11.0</ele><time>2026-04-19T13:39:11.946Z</time></trkpt><trkpt lat="43.7068273" lon="10.504323"><ele>11.0</ele><time>2026-04-19T13:39:12.946Z</time></trkpt><trkpt lat="43.706779" lon="10.5044282"><ele>10.75</ele><time>2026-04-19T13:39:13.947Z</time></trkpt><trkpt lat="43.7066952" lon="10.5045506"><ele>10.5</ele><time>2026-04-19T13:39:14.946Z</time></trkpt><trkpt lat="43.7066247" lon="10.5046636"><ele>10.25</ele><time>2026-04-19T13:39:15.946Z</time></trkpt><trkpt lat="43.7065417" lon="10.5047837"><ele>10.0</ele><time>2026-04-19T13:39:16.946Z</time></trkpt><trkpt lat="43.7064485" lon="10.5049198"><ele>10.5</ele><time>2026-04-19T13:39:17.946Z</time></trkpt><trkpt lat="43.7063592" lon="10.5050481"><ele>11.0</ele><time>2026-04-19T13:39:18.946Z</time></trkpt><trkpt lat="43.7062641" lon="10.5051704"><ele>11.5</ele><time>2026-04-19T13:39:19.946Z</time></trkpt><trkpt lat="43.7061594" lon="10.5053075"><ele>12.0</ele><time>2026-04-19T13:39:20.946Z</time></trkpt><trkpt lat="43.706048" lon="10.5054412"><ele>12.333333333333332</ele><time>2026-04-19T13:39:21.946Z</time></trkpt><trkpt lat="43.7059379" lon="10.5055757"><ele>12.666666666666666</ele><time>2026-04-19T13:39:22.946Z</time></trkpt><trkpt lat="43.7058212" lon="10.505714"><ele>13.0</ele><time>2026-04-19T13:39:23.946Z</time></trkpt><trkpt lat="43.7056995" lon="10.5058676"><ele>13.0</ele><time>2026-04-19T13:39:24.946Z</time></trkpt><trkpt lat="43.7055802" lon="10.5060344"><ele>13.0</ele><time>2026-04-19T13:39:25.946Z</time></trkpt><trkpt lat="43.705456" lon="10.5061834"><ele>13.0</ele><time>2026-04-19T13:39:26.946Z</time></trkpt><trkpt lat="43.7053307" lon="10.5063633"><ele>11.666666666666666</ele><time>2026-04-19T13:39:27.946Z</time></trkpt><trkpt lat="43.7052022" lon="10.5065396"><ele>10.333333333333332</ele><time>2026-04-19T13:39:28.946Z</time></trkpt><trkpt lat="43.7050759" lon="10.5067085"><ele>9.0</ele><time>2026-04-19T13:39:29.946Z</time></trkpt><trkpt lat="43.7049455" lon="10.5068943"><ele>9.0</ele><time>2026-04-19T13:39:30.946Z</time></trkpt><trkpt lat="43.7048161" lon="10.5070512"><ele>9.0</ele><time>2026-04-19T13:39:31.946Z</time></trkpt><trkpt lat="43.7046833" lon="10.5072168"><ele>9.0</ele><time>2026-04-19T13:39:32.946Z</time></trkpt><trkpt lat="43.7045467" lon="10.507373"><ele>9.0</ele><time>2026-04-19T13:39:33.946Z</time></trkpt><trkpt lat="43.7044042" lon="10.5075353"><ele>9.0</ele><time>2026-04-19T13:39:34.947Z</time></trkpt><trkpt lat="43.704262" lon="10.507687"><ele>9.0</ele><time>2026-04-19T13:39:35.946Z</time></trkpt><trkpt lat="43.7041226" lon="10.5078313"><ele>10.333333333333332</ele><time>2026-04-19T13:39:36.946Z</time></trkpt><trkpt lat="43.7039873" lon="10.507966"><ele>11.666666666666666</ele><time>2026-04-19T13:39:37.946Z</time></trkpt><trkpt lat="43.703855" lon="10.5080996"><ele>13.0</ele><time>2026-04-19T13:39:38.946Z</time></trkpt><trkpt lat="43.7037159" lon="10.5082302"><ele>13.0</ele><time>2026-04-19T13:39:39.946Z</time></trkpt><trkpt lat="43.7035882" lon="10.5083714"><ele>13.0</ele><time>2026-04-19T13:39:40.946Z</time></trkpt><trkpt lat="43.7034583" lon="10.5085061"><ele>13.0</ele><time>2026-04-19T13:39:41.947Z</time></trkpt><trkpt lat="43.7033407" lon="10.5086499"><ele>15.333333333333332</ele><time>2026-04-19T13:39:42.946Z</time></trkpt><trkpt lat="43.7032353" lon="10.5088115"><ele>17.666666666666668</ele><time>2026-04-19T13:39:43.946Z</time></trkpt><trkpt lat="43.7031376" lon="10.5089781"><ele>20.0</ele><time>2026-04-19T13:39:44.946Z</time></trkpt><trkpt lat="43.7030466" lon="10.5091509"><ele>20.0</ele><time>2026-04-19T13:39:45.946Z</time></trkpt><trkpt lat="43.7029537" lon="10.5093338"><ele>20.0</ele><time>2026-04-19T13:39:46.946Z</time></trkpt><trkpt lat="43.7028614" lon="10.5095234"><ele>20.0</ele><time>2026-04-19T13:39:47.947Z</time></trkpt><trkpt lat="43.702768" lon="10.5097116"><ele>17.666666666666668</ele><time>2026-04-19T13:39:48.946Z</time></trkpt><trkpt lat="43.7026894" lon="10.5099134"><ele>15.333333333333332</ele><time>2026-04-19T13:39:49.946Z</time></trkpt><trkpt lat="43.702617" lon="10.510116"><ele>13.0</ele><time>2026-04-19T13:39:50.946Z</time></trkpt><trkpt lat="43.7025525" lon="10.5103323"><ele>15.333333333333332</ele><time>2026-04-19T13:39:51.946Z</time></trkpt><trkpt lat="43.7024935" lon="10.5105403"><ele>17.666666666666668</ele><time>2026-04-19T13:39:52.946Z</time></trkpt><trkpt lat="43.7024356" lon="10.5107573"><ele>20.0</ele><time>2026-04-19T13:39:53.946Z</time></trkpt><trkpt lat="43.702379" lon="10.5109776"><ele>20.0</ele><time>2026-04-19T13:39:54.946Z</time></trkpt><trkpt lat="43.7023167" lon="10.511203"><ele>20.0</ele><time>2026-04-19T13:39:55.946Z</time></trkpt><trkpt lat="43.7022591" lon="10.5114278"><ele>20.0</ele><time>2026-04-19T13:39:56.946Z</time></trkpt><trkpt lat="43.7022018" lon="10.5116414"><ele>21.0</ele><time>2026-04-19T13:39:57.946Z</time></trkpt><trkpt lat="43.7021443" lon="10.5118587"><ele>22.0</ele><time>2026-04-19T13:39:58.946Z</time></trkpt><trkpt lat="43.7020778" lon="10.51207"><ele>23.0</ele><time>2026-04-19T13:39:59.946Z</time></trkpt><trkpt lat="43.7020065" lon="10.5122779"><ele>18.666666666666668</ele><time>2026-04-19T13:40:00.946Z</time></trkpt><trkpt lat="43.7019087" lon="10.5124784"><ele>14.333333333333334</ele><time>2026-04-19T13:40:01.946Z</time></trkpt><trkpt lat="43.701816" lon="10.5126751"><ele>10.0</ele><time>2026-04-19T13:40:02.946Z</time></trkpt><trkpt lat="43.7017109" lon="10.5128746"><ele>11.0</ele><time>2026-04-19T13:40:03.946Z</time></trkpt><trkpt lat="43.7015988" lon="10.5130717"><ele>12.0</ele><time>2026-04-19T13:40:04.946Z</time></trkpt><trkpt lat="43.7014733" lon="10.5132556"><ele>13.0</ele><time>2026-04-19T13:40:05.946Z</time></trkpt><trkpt lat="43.7013532" lon="10.5134338"><ele>13.0</ele><time>2026-04-19T13:40:06.946Z</time></trkpt><trkpt lat="43.7012201" lon="10.5136026"><ele>13.0</ele><time>2026-04-19T13:40:07.946Z</time></trkpt><trkpt lat="43.7010902" lon="10.513764"><ele>13.0</ele><time>2026-04-19T13:40:08.947Z</time></trkpt><trkpt lat="43.7009643" lon="10.5139304"><ele>11.333333333333332</ele><time>2026-04-19T13:40:09.946Z</time></trkpt><trkpt lat="43.7008441" lon="10.5140696"><ele>9.666666666666666</ele><time>2026-04-19T13:40:10.947Z</time></trkpt><trkpt lat="43.7007277" lon="10.5142276"><ele>8.0</ele><time>2026-04-19T13:40:11.947Z</time></trkpt><trkpt lat="43.7006171" lon="10.5143749"><ele>8.0</ele><time>2026-04-19T13:40:12.946Z</time></trkpt><trkpt lat="43.7005162" lon="10.514509"><ele>8.0</ele><time>2026-04-19T13:40:13.947Z</time></trkpt><trkpt lat="43.7004187" lon="10.51461"><ele>8.0</ele><time>2026-04-19T13:40:14.946Z</time></trkpt><trkpt lat="43.7003209" lon="10.5147203"><ele>8.0</ele><time>2026-04-19T13:40:15.946Z</time></trkpt><trkpt lat="43.700222" lon="10.5147942"><ele>8.200000000000001</ele><time>2026-04-19T13:40:16.946Z</time></trkpt><trkpt lat="43.7001203" lon="10.5148441"><ele>8.4</ele><time>2026-04-19T13:40:17.946Z</time></trkpt><trkpt lat="43.7000161" lon="10.5148825"><ele>8.600000000000001</ele><time>2026-04-19T13:40:18.946Z</time></trkpt><trkpt lat="43.6999137" lon="10.5149053"><ele>8.8</ele><time>2026-04-19T13:40:19.946Z</time></trkpt><trkpt lat="43.6998235" lon="10.5149446"><ele>9.0</ele><time>2026-04-19T13:40:20.946Z</time></trkpt><trkpt lat="43.699742" lon="10.5150046"><ele>9.0</ele><time>2026-04-19T13:40:21.947Z</time></trkpt><trkpt lat="43.6996752" lon="10.5150855"><ele>9.0</ele><time>2026-04-19T13:40:22.946Z</time></trkpt><trkpt lat="43.6996361" lon="10.5151845"><ele>9.0</ele><time>2026-04-19T13:40:23.947Z</time></trkpt><trkpt lat="43.6996202" lon="10.5153051"><ele>9.0</ele><time>2026-04-19T13:40:24.946Z</time></trkpt><trkpt lat="43.6996101" lon="10.515457"><ele>9.0</ele><time>2026-04-19T13:40:25.946Z</time></trkpt><trkpt lat="43.6995904" lon="10.5156044"><ele>9.25</ele><time>2026-04-19T13:40:26.946Z</time></trkpt><trkpt lat="43.6995454" lon="10.515752"><ele>9.5</ele><time>2026-04-19T13:40:27.947Z</time></trkpt><trkpt lat="43.6994704" lon="10.5158978"><ele>9.75</ele><time>2026-04-19T13:40:28.946Z</time></trkpt><trkpt lat="43.6993898" lon="10.5160412"><ele>10.0</ele><time>2026-04-19T13:40:29.946Z</time></trkpt><trkpt lat="43.6992756" lon="10.5161868"><ele>12.0</ele><time>2026-04-19T13:40:30.946Z</time></trkpt><trkpt lat="43.6991667" lon="10.5163266"><ele>14.0</ele><time>2026-04-19T13:40:31.946Z</time></trkpt><trkpt lat="43.6990558" lon="10.5164762"><ele>16.0</ele><time>2026-04-19T13:40:32.947Z</time></trkpt><trkpt lat="43.6989407" lon="10.5166284"><ele>16.0</ele><time>2026-04-19T13:40:33.946Z</time></trkpt><trkpt lat="43.6988215" lon="10.5167795"><ele>16.0</ele><time>2026-04-19T13:40:34.946Z</time></trkpt><trkpt lat="43.6986991" lon="10.5169284"><ele>16.0</ele><time>2026-04-19T13:40:35.946Z</time></trkpt><trkpt lat="43.6985744" lon="10.5170718"><ele>16.0</ele><time>2026-04-19T13:40:36.946Z</time></trkpt><trkpt lat="43.6984468" lon="10.5172018"><ele>16.0</ele><time>2026-04-19T13:40:37.946Z</time></trkpt><trkpt lat="43.6983236" lon="10.5173223"><ele>16.0</ele><time>2026-04-19T13:40:38.947Z</time></trkpt><trkpt lat="43.6981903" lon="10.5174272"><ele>16.0</ele><time>2026-04-19T13:40:39.946Z</time></trkpt><trkpt lat="43.6980458" lon="10.5175254"><ele>16.0</ele><time>2026-04-19T13:40:40.947Z</time></trkpt><trkpt lat="43.6979023" lon="10.5176242"><ele>16.0</ele><time>2026-04-19T13:40:41.946Z</time></trkpt><trkpt lat="43.6977649" lon="10.5177182"><ele>17.0</ele><time>2026-04-19T13:40:42.946Z</time></trkpt><trkpt lat="43.6976329" lon="10.5178447"><ele>18.0</ele><time>2026-04-19T13:40:43.946Z</time></trkpt><trkpt lat="43.6975002" lon="10.5179776"><ele>19.0</ele><time>2026-04-19T13:40:44.946Z</time></trkpt><trkpt lat="43.69738" lon="10.5181153"><ele>19.0</ele><time>2026-04-19T13:40:45.946Z</time></trkpt><trkpt lat="43.6972541" lon="10.5182531"><ele>19.0</ele><time>2026-04-19T13:40:46.946Z</time></trkpt><trkpt lat="43.6971278" lon="10.518384"><ele>19.0</ele><time>2026-04-19T13:40:47.946Z</time></trkpt><trkpt lat="43.6969893" lon="10.5185055"><ele>19.666666666666664</ele><time>2026-04-19T13:40:48.947Z</time></trkpt><trkpt lat="43.6968482" lon="10.5186122"><ele>20.333333333333332</ele><time>2026-04-19T13:40:49.946Z</time></trkpt><trkpt lat="43.6966992" lon="10.51871"><ele>21.0</ele><time>2026-04-19T13:40:50.946Z</time></trkpt><trkpt lat="43.6965537" lon="10.5187962"><ele>21.0</ele><time>2026-04-19T13:40:51.946Z</time></trkpt><trkpt lat="43.6964035" lon="10.5188658"><ele>21.0</ele><time>2026-04-19T13:40:52.946Z</time></trkpt><trkpt lat="43.6962573" lon="10.5189269"><ele>21.0</ele><time>2026-04-19T13:40:53.946Z</time></trkpt><trkpt lat="43.6961117" lon="10.5189861"><ele>19.25</ele><time>2026-04-19T13:40:54.946Z</time></trkpt><trkpt lat="43.6959635" lon="10.5190459"><ele>17.5</ele><time>2026-04-19T13:40:55.946Z</time></trkpt><trkpt lat="43.6958248" lon="10.5191212"><ele>15.75</ele><time>2026-04-19T13:40:56.946Z</time></trkpt><trkpt lat="43.695704" lon="10.5192044"><ele>14.0</ele><time>2026-04-19T13:40:57.947Z</time></trkpt><trkpt lat="43.6955908" lon="10.5192945"><ele>14.0</ele><time>2026-04-19T13:40:58.946Z</time></trkpt><trkpt lat="43.6954845" lon="10.5193783"><ele>14.0</ele><time>2026-04-19T13:40:59.946Z</time></trkpt><trkpt lat="43.6953837" lon="10.5194588"><ele>14.0</ele><time>2026-04-19T13:41:00.946Z</time></trkpt><trkpt lat="43.6952888" lon="10.519541"><ele>14.0</ele><time>2026-04-19T13:41:01.946Z</time></trkpt><trkpt lat="43.6951904" lon="10.5196133"><ele>13.799999999999999</ele><time>2026-04-19T13:41:02.946Z</time></trkpt><trkpt lat="43.6950938" lon="10.5196773"><ele>13.599999999999998</ele><time>2026-04-19T13:41:03.946Z</time></trkpt><trkpt lat="43.6950071" lon="10.5197424"><ele>13.4</ele><time>2026-04-19T13:41:04.946Z</time></trkpt><trkpt lat="43.6949178" lon="10.5198246"><ele>13.2</ele><time>2026-04-19T13:41:05.947Z</time></trkpt><trkpt lat="43.6948214" lon="10.5199127"><ele>13.0</ele><time>2026-04-19T13:41:06.946Z</time></trkpt><trkpt lat="43.6947231" lon="10.5200086"><ele>13.0</ele><time>2026-04-19T13:41:07.946Z</time></trkpt><trkpt lat="43.6946287" lon="10.5201092"><ele>13.0</ele><time>2026-04-19T13:41:08.946Z</time></trkpt><trkpt lat="43.6945316" lon="10.5202074"><ele>13.0</ele><time>2026-04-19T13:41:09.946Z</time></trkpt><trkpt lat="43.6944388" lon="10.5203064"><ele>13.0</ele><time>2026-04-19T13:41:10.947Z</time></trkpt><trkpt lat="43.6943427" lon="10.5204043"><ele>13.5</ele><time>2026-04-19T13:41:11.946Z</time></trkpt><trkpt lat="43.6942416" lon="10.5204985"><ele>14.0</ele><time>2026-04-19T13:41:12.946Z</time></trkpt><trkpt lat="43.694141" lon="10.5205958"><ele>14.5</ele><time>2026-04-19T13:41:13.947Z</time></trkpt><trkpt lat="43.6940394" lon="10.5206878"><ele>15.0</ele><time>2026-04-19T13:41:14.946Z</time></trkpt><trkpt lat="43.6939389" lon="10.5207879"><ele>15.0</ele><time>2026-04-19T13:41:15.946Z</time></trkpt><trkpt lat="43.6938354" lon="10.5208846"><ele>15.0</ele><time>2026-04-19T13:41:16.946Z</time></trkpt><trkpt lat="43.6937364" lon="10.5209749"><ele>15.0</ele><time>2026-04-19T13:41:17.946Z</time></trkpt><trkpt lat="43.6936424" lon="10.521072"><ele>15.0</ele><time>2026-04-19T13:41:18.946Z</time></trkpt><trkpt lat="43.6935541" lon="10.5211861"><ele>14.25</ele><time>2026-04-19T13:41:19.946Z</time></trkpt><trkpt lat="43.6934808" lon="10.5213314"><ele>13.5</ele><time>2026-04-19T13:41:20.946Z</time></trkpt><trkpt lat="43.6934116" lon="10.5214992"><ele>12.75</ele><time>2026-04-19T13:41:21.946Z</time></trkpt><trkpt lat="43.693347" lon="10.5216693"><ele>12.0</ele><time>2026-04-19T13:41:22.946Z</time></trkpt><trkpt lat="43.6932846" lon="10.5218373"><ele>12.0</ele><time>2026-04-19T13:41:23.946Z</time></trkpt><trkpt lat="43.6932281" lon="10.5220097"><ele>12.0</ele><time>2026-04-19T13:41:24.947Z</time></trkpt><trkpt lat="43.6931671" lon="10.5221891"><ele>12.0</ele><time>2026-04-19T13:41:25.947Z</time></trkpt><trkpt lat="43.6931088" lon="10.5223564"><ele>12.0</ele><time>2026-04-19T13:41:26.946Z</time></trkpt><trkpt lat="43.6930471" lon="10.5225281"><ele>13.25</ele><time>2026-04-19T13:41:27.946Z</time></trkpt><trkpt lat="43.6929899" lon="10.522689"><ele>14.5</ele><time>2026-04-19T13:41:28.946Z</time></trkpt><trkpt lat="43.692938" lon="10.5228484"><ele>15.75</ele><time>2026-04-19T13:41:29.946Z</time></trkpt><trkpt lat="43.6928846" lon="10.5229983"><ele>17.0</ele><time>2026-04-19T13:41:30.946Z</time></trkpt><trkpt lat="43.692831" lon="10.5231572"><ele>17.5</ele><time>2026-04-19T13:41:31.946Z</time></trkpt><trkpt lat="43.6927849" lon="10.5233163"><ele>18.0</ele><time>2026-04-19T13:41:32.946Z</time></trkpt><trkpt lat="43.6927285" lon="10.5234781"><ele>18.5</ele><time>2026-04-19T13:41:33.946Z</time></trkpt><trkpt lat="43.6926782" lon="10.5236414"><ele>19.0</ele><time>2026-04-19T13:41:34.946Z</time></trkpt><trkpt lat="43.6926273" lon="10.5238072"><ele>19.5</ele><time>2026-04-19T13:41:35.946Z</time></trkpt><trkpt lat="43.6925685" lon="10.5239622"><ele>20.0</ele><time>2026-04-19T13:41:36.946Z</time></trkpt><trkpt lat="43.6925167" lon="10.5241257"><ele>20.5</ele><time>2026-04-19T13:41:37.946Z</time></trkpt><trkpt lat="43.692467" lon="10.5242875"><ele>21.0</ele><time>2026-04-19T13:41:38.946Z</time></trkpt><trkpt lat="43.692416" lon="10.5244465"><ele>21.75</ele><time>2026-04-19T13:41:39.947Z</time></trkpt><trkpt lat="43.6923624" lon="10.5246191"><ele>22.5</ele><time>2026-04-19T13:41:40.946Z</time></trkpt><trkpt lat="43.6923114" lon="10.5247804"><ele>23.25</ele><time>2026-04-19T13:41:41.946Z</time></trkpt><trkpt lat="43.6922635" lon="10.5249316"><ele>24.0</ele><time>2026-04-19T13:41:42.946Z</time></trkpt><trkpt lat="43.6922091" lon="10.5250803"><ele>24.0</ele><time>2026-04-19T13:41:43.946Z</time></trkpt><trkpt lat="43.6921611" lon="10.5252335"><ele>24.0</ele><time>2026-04-19T13:41:44.946Z</time></trkpt><trkpt lat="43.6921103" lon="10.5253818"><ele>24.0</ele><time>2026-04-19T13:41:45.946Z</time></trkpt><trkpt lat="43.6920503" lon="10.5255271"><ele>24.0</ele><time>2026-04-19T13:41:46.946Z</time></trkpt><trkpt lat="43.6919779" lon="10.5256634"><ele>21.25</ele><time>2026-04-19T13:41:47.946Z</time></trkpt><trkpt lat="43.691893" lon="10.5257975"><ele>18.5</ele><time>2026-04-19T13:41:48.946Z</time></trkpt><trkpt lat="43.6918078" lon="10.525922"><ele>15.75</ele><time>2026-04-19T13:41:49.946Z</time></trkpt><trkpt lat="43.6917178" lon="10.5260381"><ele>13.0</ele><time>2026-04-19T13:41:50.946Z</time></trkpt><trkpt lat="43.6916223" lon="10.5261505"><ele>14.5</ele><time>2026-04-19T13:41:51.946Z</time></trkpt><trkpt lat="43.6915231" lon="10.526265"><ele>16.0</ele><time>2026-04-19T13:41:52.946Z</time></trkpt><trkpt lat="43.6914263" lon="10.5263703"><ele>17.5</ele><time>2026-04-19T13:41:53.947Z</time></trkpt><trkpt lat="43.691331" lon="10.5264978"><ele>19.0</ele><time>2026-04-19T13:41:54.946Z</time></trkpt><trkpt lat="43.6912417" lon="10.5266215"><ele>19.0</ele><time>2026-04-19T13:41:55.946Z</time></trkpt><trkpt lat="43.6911598" lon="10.5267581"><ele>19.0</ele><time>2026-04-19T13:41:56.946Z</time></trkpt><trkpt lat="43.6910784" lon="10.5269138"><ele>19.0</ele><time>2026-04-19T13:41:57.946Z</time></trkpt><trkpt lat="43.6910031" lon="10.5270744"><ele>19.0</ele><time>2026-04-19T13:41:58.946Z</time></trkpt><trkpt lat="43.6909346" lon="10.5272368"><ele>18.5</ele><time>2026-04-19T13:41:59.946Z</time></trkpt><trkpt lat="43.6908812" lon="10.5273802"><ele>18.0</ele><time>2026-04-19T13:42:00.946Z</time></trkpt><trkpt lat="43.690814" lon="10.5275454"><ele>17.5</ele><time>2026-04-19T13:42:01.946Z</time></trkpt><trkpt lat="43.6907555" lon="10.5277045"><ele>17.0</ele><time>2026-04-19T13:42:02.946Z</time></trkpt><trkpt lat="43.6906879" lon="10.5278671"><ele>17.25</ele><time>2026-04-19T13:42:03.946Z</time></trkpt><trkpt lat="43.6906344" lon="10.5280317"><ele>17.5</ele><time>2026-04-19T13:42:04.946Z</time></trkpt><trkpt lat="43.6905723" lon="10.5282223"><ele>17.75</ele><time>2026-04-19T13:42:05.946Z</time></trkpt><trkpt lat="43.6905194" lon="10.5283929"><ele>18.0</ele><time>2026-04-19T13:42:06.946Z</time></trkpt><trkpt lat="43.690477" lon="10.528556"><ele>17.75</ele><time>2026-04-19T13:42:07.946Z</time></trkpt><trkpt lat="43.6904269" lon="10.5287545"><ele>17.5</ele><time>2026-04-19T13:42:08.946Z</time></trkpt><trkpt lat="43.6903798" lon="10.5289327"><ele>17.25</ele><time>2026-04-19T13:42:09.946Z</time></trkpt><trkpt lat="43.6903394" lon="10.5290958"><ele>17.0</ele><time>2026-04-19T13:42:10.946Z</time></trkpt><trkpt lat="43.6902908" lon="10.5292678"><ele>17.0</ele><time>2026-04-19T13:42:11.946Z</time></trkpt><trkpt lat="43.6902589" lon="10.5294474"><ele>17.0</ele><time>2026-04-19T13:42:12.946Z</time></trkpt><trkpt lat="43.6902192" lon="10.5296173"><ele>17.0</ele><time>2026-04-19T13:42:13.946Z</time></trkpt><trkpt lat="43.690177" lon="10.5297851"><ele>17.0</ele><time>2026-04-19T13:42:14.946Z</time></trkpt><trkpt lat="43.6901349" lon="10.5299489"><ele>16.75</ele><time>2026-04-19T13:42:15.946Z</time></trkpt><trkpt lat="43.6900977" lon="10.5301034"><ele>16.5</ele><time>2026-04-19T13:42:16.946Z</time></trkpt><trkpt lat="43.6900538" lon="10.5302748"><ele>16.25</ele><time>2026-04-19T13:42:17.946Z</time></trkpt><trkpt lat="43.690011" lon="10.5304482"><ele>16.0</ele><time>2026-04-19T13:42:18.946Z</time></trkpt><trkpt lat="43.6899699" lon="10.5306282"><ele>16.0</ele><time>2026-04-19T13:42:19.947Z</time></trkpt><trkpt lat="43.6899342" lon="10.5307914"><ele>16.0</ele><time>2026-04-19T13:42:20.946Z</time></trkpt><trkpt lat="43.6898986" lon="10.5309559"><ele>16.0</ele><time>2026-04-19T13:42:21.946Z</time></trkpt><trkpt lat="43.689859" lon="10.5311141"><ele>16.0</ele><time>2026-04-19T13:42:22.946Z</time></trkpt><trkpt lat="43.6898267" lon="10.5312858"><ele>15.75</ele><time>2026-04-19T13:42:23.947Z</time></trkpt><trkpt lat="43.6897801" lon="10.5314788"><ele>15.5</ele><time>2026-04-19T13:42:24.946Z</time></trkpt><trkpt lat="43.6897387" lon="10.5316662"><ele>15.25</ele><time>2026-04-19T13:42:25.946Z</time></trkpt><trkpt lat="43.6896946" lon="10.5318599"><ele>15.0</ele><time>2026-04-19T13:42:26.946Z</time></trkpt><trkpt lat="43.6896535" lon="10.5320365"><ele>14.5</ele><time>2026-04-19T13:42:27.946Z</time></trkpt><trkpt lat="43.6896087" lon="10.5322325"><ele>14.0</ele><time>2026-04-19T13:42:28.946Z</time></trkpt><trkpt lat="43.6895739" lon="10.5324134"><ele>13.5</ele><time>2026-04-19T13:42:29.946Z</time></trkpt><trkpt lat="43.6895313" lon="10.5325882"><ele>13.0</ele><time>2026-04-19T13:42:30.947Z</time></trkpt><trkpt lat="43.6894915" lon="10.5327692"><ele>12.75</ele><time>2026-04-19T13:42:31.946Z</time></trkpt><trkpt lat="43.6894502" lon="10.5329458"><ele>12.5</ele><time>2026-04-19T13:42:32.946Z</time></trkpt><trkpt lat="43.6894149" lon="10.5331152"><ele>12.25</ele><time>2026-04-19T13:42:33.946Z</time></trkpt><trkpt lat="43.689371" lon="10.5332968"><ele>12.0</ele><time>2026-04-19T13:42:34.946Z</time></trkpt><trkpt lat="43.6893325" lon="10.5334612"><ele>12.0</ele><time>2026-04-19T13:42:35.946Z</time></trkpt><trkpt lat="43.6892965" lon="10.5336226"><ele>12.0</ele><time>2026-04-19T13:42:36.946Z</time></trkpt><trkpt lat="43.6892558" lon="10.533789"><ele>12.0</ele><time>2026-04-19T13:42:37.947Z</time></trkpt><trkpt lat="43.6892189" lon="10.5339464"><ele>12.0</ele><time>2026-04-19T13:42:38.946Z</time></trkpt><trkpt lat="43.6891829" lon="10.5341087"><ele>12.25</ele><time>2026-04-19T13:42:39.946Z</time></trkpt><trkpt lat="43.689146" lon="10.534277"><ele>12.5</ele><time>2026-04-19T13:42:40.946Z</time></trkpt><trkpt lat="43.6890992" lon="10.5344688"><ele>12.75</ele><time>2026-04-19T13:42:41.946Z</time></trkpt><trkpt lat="43.6890648" lon="10.534641"><ele>13.0</ele><time>2026-04-19T13:42:42.946Z</time></trkpt><trkpt lat="43.6890258" lon="10.5348138"><ele>13.0</ele><time>2026-04-19T13:42:43.946Z</time></trkpt><trkpt lat="43.6889929" lon="10.5349788"><ele>13.0</ele><time>2026-04-19T13:42:44.946Z</time></trkpt><trkpt lat="43.68895" lon="10.535152"><ele>13.0</ele><time>2026-04-19T13:42:45.947Z</time></trkpt><trkpt lat="43.6889121" lon="10.5353056"><ele>13.0</ele><time>2026-04-19T13:42:46.946Z</time></trkpt><trkpt lat="43.6888729" lon="10.5354768"><ele>13.0</ele><time>2026-04-19T13:42:47.946Z</time></trkpt><trkpt lat="43.6888298" lon="10.5356452"><ele>13.0</ele><time>2026-04-19T13:42:48.946Z</time></trkpt><trkpt lat="43.6887938" lon="10.5358092"><ele>13.0</ele><time>2026-04-19T13:42:49.946Z</time></trkpt><trkpt lat="43.6887562" lon="10.5359768"><ele>13.0</ele><time>2026-04-19T13:42:50.946Z</time></trkpt><trkpt lat="43.6887195" lon="10.5361523"><ele>13.0</ele><time>2026-04-19T13:42:51.946Z</time></trkpt><trkpt lat="43.6886784" lon="10.5363216"><ele>13.0</ele><time>2026-04-19T13:42:52.947Z</time></trkpt><trkpt lat="43.6886405" lon="10.5364816"><ele>13.0</ele><time>2026-04-19T13:42:53.946Z</time></trkpt><trkpt lat="43.6885952" lon="10.5366567"><ele>13.0</ele><time>2026-04-19T13:42:54.946Z</time></trkpt><trkpt lat="43.6885547" lon="10.5368279"><ele>13.0</ele><time>2026-04-19T13:42:55.946Z</time></trkpt><trkpt lat="43.6885201" lon="10.5369999"><ele>13.0</ele><time>2026-04-19T13:42:56.946Z</time></trkpt><trkpt lat="43.688485" lon="10.5371669"><ele>13.0</ele><time>2026-04-19T13:42:57.946Z</time></trkpt><trkpt lat="43.6884461" lon="10.537336"><ele>13.0</ele><time>2026-04-19T13:42:58.946Z</time></trkpt><trkpt lat="43.6884078" lon="10.5375136"><ele>13.5</ele><time>2026-04-19T13:42:59.946Z</time></trkpt><trkpt lat="43.6883534" lon="10.5377164"><ele>14.0</ele><time>2026-04-19T13:43:00.947Z</time></trkpt><trkpt lat="43.6883184" lon="10.5379006"><ele>14.5</ele><time>2026-04-19T13:43:01.947Z</time></trkpt><trkpt lat="43.6882717" lon="10.5380794"><ele>15.0</ele><time>2026-04-19T13:43:02.946Z</time></trkpt><trkpt lat="43.6882355" lon="10.5382425"><ele>15.5</ele><time>2026-04-19T13:43:03.946Z</time></trkpt><trkpt lat="43.6882015" lon="10.5383882"><ele>16.0</ele><time>2026-04-19T13:43:04.946Z</time></trkpt><trkpt lat="43.6881647" lon="10.5385383"><ele>16.5</ele><time>2026-04-19T13:43:05.947Z</time></trkpt><trkpt lat="43.6881234" lon="10.5387106"><ele>17.0</ele><time>2026-04-19T13:43:06.946Z</time></trkpt><trkpt lat="43.6880844" lon="10.5388847"><ele>18.0</ele><time>2026-04-19T13:43:07.946Z</time></trkpt><trkpt lat="43.6880606" lon="10.5390396"><ele>19.0</ele><time>2026-04-19T13:43:08.946Z</time></trkpt><trkpt lat="43.6880234" lon="10.5392068"><ele>20.0</ele><time>2026-04-19T13:43:09.946Z</time></trkpt><trkpt lat="43.6879797" lon="10.5393821"><ele>21.0</ele><time>2026-04-19T13:43:10.947Z</time></trkpt><trkpt lat="43.6879307" lon="10.5395601"><ele>22.5</ele><time>2026-04-19T13:43:11.946Z</time></trkpt><trkpt lat="43.6878868" lon="10.5397342"><ele>24.0</ele><time>2026-04-19T13:43:12.946Z</time></trkpt><trkpt lat="43.687843" lon="10.539917"><ele>25.5</ele><time>2026-04-19T13:43:13.946Z</time></trkpt><trkpt lat="43.6877959" lon="10.540107"><ele>27.0</ele><time>2026-04-19T13:43:14.946Z</time></trkpt><trkpt lat="43.6877547" lon="10.5402898"><ele>23.5</ele><time>2026-04-19T13:43:15.946Z</time></trkpt><trkpt lat="43.6877084" lon="10.5404717"><ele>20.0</ele><time>2026-04-19T13:43:16.946Z</time></trkpt><trkpt lat="43.6876663" lon="10.5406594"><ele>16.5</ele><time>2026-04-19T13:43:17.946Z</time></trkpt><trkpt lat="43.6876281" lon="10.540832"><ele>13.0</ele><time>2026-04-19T13:43:18.947Z</time></trkpt><trkpt lat="43.6875764" lon="10.5410059"><ele>13.0</ele><time>2026-04-19T13:43:19.946Z</time></trkpt><trkpt lat="43.6875383" lon="10.5411815"><ele>13.0</ele><time>2026-04-19T13:43:20.946Z</time></trkpt><trkpt lat="43.6874968" lon="10.5413451"><ele>13.0</ele><time>2026-04-19T13:43:21.946Z</time></trkpt><trkpt lat="43.6874596" lon="10.5415166"><ele>13.0</ele><time>2026-04-19T13:43:22.946Z</time></trkpt><trkpt lat="43.6874171" lon="10.5416738"><ele>13.0</ele><time>2026-04-19T13:43:23.946Z</time></trkpt><trkpt lat="43.6873736" lon="10.5418239"><ele>13.0</ele><time>2026-04-19T13:43:24.946Z</time></trkpt><trkpt lat="43.6873378" lon="10.5419784"><ele>13.0</ele><time>2026-04-19T13:43:25.946Z</time></trkpt><trkpt lat="43.6873015" lon="10.5421344"><ele>13.0</ele><time>2026-04-19T13:43:26.946Z</time></trkpt><trkpt lat="43.6872574" lon="10.5423175"><ele>13.0</ele><time>2026-04-19T13:43:27.946Z</time></trkpt><trkpt lat="43.6872077" lon="10.5425141"><ele>13.0</ele><time>2026-04-19T13:43:28.946Z</time></trkpt><trkpt lat="43.687154" lon="10.542707"><ele>13.0</ele><time>2026-04-19T13:43:29.946Z</time></trkpt><trkpt lat="43.6870938" lon="10.5428946"><ele>13.0</ele><time>2026-04-19T13:43:30.946Z</time></trkpt><trkpt lat="43.6870208" lon="10.5430648"><ele>13.0</ele><time>2026-04-19T13:43:31.946Z</time></trkpt><trkpt lat="43.6869547" lon="10.5432322"><ele>13.0</ele><time>2026-04-19T13:43:32.946Z</time></trkpt><trkpt lat="43.6868839" lon="10.543383"><ele>13.0</ele><time>2026-04-19T13:43:33.946Z</time></trkpt><trkpt lat="43.6868167" lon="10.5435316"><ele>13.0</ele><time>2026-04-19T13:43:34.946Z</time></trkpt><trkpt lat="43.6867492" lon="10.5436774"><ele>13.0</ele><time>2026-04-19T13:43:35.946Z</time></trkpt><trkpt lat="43.6866806" lon="10.5438247"><ele>13.0</ele><time>2026-04-19T13:43:36.946Z</time></trkpt><trkpt lat="43.6866065" lon="10.5439725"><ele>13.0</ele><time>2026-04-19T13:43:37.946Z</time></trkpt><trkpt lat="43.6865384" lon="10.5441258"><ele>13.0</ele><time>2026-04-19T13:43:38.946Z</time></trkpt><trkpt lat="43.6864747" lon="10.5442666"><ele>13.0</ele><time>2026-04-19T13:43:39.947Z</time></trkpt><trkpt lat="43.6864076" lon="10.5444055"><ele>13.0</ele><time>2026-04-19T13:43:40.946Z</time></trkpt><trkpt lat="43.68634" lon="10.544541"><ele>13.0</ele><time>2026-04-19T13:43:41.946Z</time></trkpt><trkpt lat="43.6862728" lon="10.5446856"><ele>13.0</ele><time>2026-04-19T13:43:42.946Z</time></trkpt><trkpt lat="43.686199" lon="10.5448335"><ele>13.0</ele><time>2026-04-19T13:43:43.946Z</time></trkpt><trkpt lat="43.6861258" lon="10.5449909"><ele>13.0</ele><time>2026-04-19T13:43:44.946Z</time></trkpt><trkpt lat="43.686059" lon="10.5451461"><ele>13.0</ele><time>2026-04-19T13:43:45.946Z</time></trkpt><trkpt lat="43.6859941" lon="10.5452977"><ele>13.0</ele><time>2026-04-19T13:43:46.946Z</time></trkpt><trkpt lat="43.6859313" lon="10.5454263"><ele>12.999999999999998</ele><time>2026-04-19T13:43:47.946Z</time></trkpt><trkpt lat="43.6858769" lon="10.5455458"><ele>13.0</ele><time>2026-04-19T13:43:48.946Z</time></trkpt><trkpt lat="43.6858281" lon="10.5456483"><ele>13.0</ele><time>2026-04-19T13:43:49.946Z</time></trkpt><trkpt lat="43.6857809" lon="10.5457485"><ele>13.0</ele><time>2026-04-19T13:43:50.946Z</time></trkpt><trkpt lat="43.6857384" lon="10.5458372"><ele>12.999999999999998</ele><time>2026-04-19T13:43:51.947Z</time></trkpt><trkpt lat="43.6856992" lon="10.5459521"><ele>13.0</ele><time>2026-04-19T13:43:53.946Z</time></trkpt><trkpt lat="43.6856436" lon="10.5460388"><ele>13.0</ele><time>2026-04-19T13:43:57.946Z</time></trkpt><trkpt lat="43.6855632" lon="10.546145"><ele>13.0</ele><time>2026-04-19T13:43:59.946Z</time></trkpt><trkpt lat="43.6855107" lon="10.5462911"><ele>13.0</ele><time>2026-04-19T13:44:01.946Z</time></trkpt><trkpt lat="43.6854981" lon="10.5464001"><ele>13.0</ele><time>2026-04-19T13:44:02.947Z</time></trkpt><trkpt lat="43.6854772" lon="10.5465213"><ele>13.0</ele><time>2026-04-19T13:44:03.946Z</time></trkpt><trkpt lat="43.6854529" lon="10.546662"><ele>13.2</ele><time>2026-04-19T13:44:04.946Z</time></trkpt><trkpt lat="43.6854235" lon="10.5467942"><ele>13.4</ele><time>2026-04-19T13:44:05.946Z</time></trkpt><trkpt lat="43.6853904" lon="10.5469317"><ele>13.599999999999998</ele><time>2026-04-19T13:44:06.946Z</time></trkpt><trkpt lat="43.6853587" lon="10.5470786"><ele>13.799999999999999</ele><time>2026-04-19T13:44:07.946Z</time></trkpt><trkpt lat="43.6853224" lon="10.5472272"><ele>14.0</ele><time>2026-04-19T13:44:08.946Z</time></trkpt><trkpt lat="43.6852886" lon="10.5473725"><ele>14.0</ele><time>2026-04-19T13:44:09.946Z</time></trkpt><trkpt lat="43.6852496" lon="10.5475159"><ele>13.999999999999998</ele><time>2026-04-19T13:44:10.947Z</time></trkpt><trkpt lat="43.6852158" lon="10.5476628"><ele>13.999999999999998</ele><time>2026-04-19T13:44:11.946Z</time></trkpt><trkpt lat="43.68518" lon="10.5478091"><ele>14.0</ele><time>2026-04-19T13:44:12.946Z</time></trkpt><trkpt lat="43.6851476" lon="10.5479509"><ele>14.0</ele><time>2026-04-19T13:44:13.946Z</time></trkpt><trkpt lat="43.6851204" lon="10.5480969"><ele>14.0</ele><time>2026-04-19T13:44:14.946Z</time></trkpt><trkpt lat="43.6850867" lon="10.5482512"><ele>14.0</ele><time>2026-04-19T13:44:15.946Z</time></trkpt><trkpt lat="43.6850483" lon="10.5484101"><ele>14.0</ele><time>2026-04-19T13:44:16.946Z</time></trkpt><trkpt lat="43.6850059" lon="10.5485894"><ele>14.0</ele><time>2026-04-19T13:44:17.946Z</time></trkpt><trkpt lat="43.6849629" lon="10.5487841"><ele>14.25</ele><time>2026-04-19T13:44:18.946Z</time></trkpt><trkpt lat="43.6849254" lon="10.5489743"><ele>14.5</ele><time>2026-04-19T13:44:19.946Z</time></trkpt><trkpt lat="43.6848851" lon="10.5491587"><ele>14.75</ele><time>2026-04-19T13:44:20.946Z</time></trkpt><trkpt lat="43.6848455" lon="10.5493434"><ele>15.0</ele><time>2026-04-19T13:44:21.946Z</time></trkpt><trkpt lat="43.6848018" lon="10.5495299"><ele>15.0</ele><time>2026-04-19T13:44:22.946Z</time></trkpt><trkpt lat="43.6847553" lon="10.5497161"><ele>15.0</ele><time>2026-04-19T13:44:23.946Z</time></trkpt><trkpt lat="43.6847111" lon="10.5498926"><ele>15.0</ele><time>2026-04-19T13:44:24.946Z</time></trkpt><trkpt lat="43.6846698" lon="10.5500667"><ele>15.0</ele><time>2026-04-19T13:44:25.946Z</time></trkpt><trkpt lat="43.6846285" lon="10.5502477"><ele>14.75</ele><time>2026-04-19T13:44:26.946Z</time></trkpt><trkpt lat="43.6845899" lon="10.5504215"><ele>14.5</ele><time>2026-04-19T13:44:27.946Z</time></trkpt><trkpt lat="43.6845579" lon="10.5506039"><ele>14.25</ele><time>2026-04-19T13:44:28.946Z</time></trkpt><trkpt lat="43.6845353" lon="10.5507787"><ele>14.0</ele><time>2026-04-19T13:44:29.946Z</time></trkpt><trkpt lat="43.6845171" lon="10.5509475"><ele>14.0</ele><time>2026-04-19T13:44:30.946Z</time></trkpt><trkpt lat="43.6845061" lon="10.5511252"><ele>14.0</ele><time>2026-04-19T13:44:31.946Z</time></trkpt><trkpt lat="43.6844946" lon="10.5512978"><ele>14.0</ele><time>2026-04-19T13:44:32.946Z</time></trkpt><trkpt lat="43.6844868" lon="10.5514697"><ele>14.0</ele><time>2026-04-19T13:44:33.946Z</time></trkpt><trkpt lat="43.6844785" lon="10.5516407"><ele>14.25</ele><time>2026-04-19T13:44:34.946Z</time></trkpt><trkpt lat="43.6844706" lon="10.5518135"><ele>14.5</ele><time>2026-04-19T13:44:35.946Z</time></trkpt><trkpt lat="43.6844636" lon="10.5519903"><ele>14.75</ele><time>2026-04-19T13:44:36.946Z</time></trkpt><trkpt lat="43.6844576" lon="10.5521607"><ele>15.0</ele><time>2026-04-19T13:44:37.946Z</time></trkpt><trkpt lat="43.6844511" lon="10.5523379"><ele>15.25</ele><time>2026-04-19T13:44:38.946Z</time></trkpt><trkpt lat="43.6844506" lon="10.5525"><ele>15.5</ele><time>2026-04-19T13:44:39.947Z</time></trkpt><trkpt lat="43.6844713" lon="10.5526851"><ele>15.75</ele><time>2026-04-19T13:44:40.946Z</time></trkpt><trkpt lat="43.6844977" lon="10.5528729"><ele>16.0</ele><time>2026-04-19T13:44:41.946Z</time></trkpt><trkpt lat="43.6845352" lon="10.5530573"><ele>16.0</ele><time>2026-04-19T13:44:42.947Z</time></trkpt><trkpt lat="43.6845692" lon="10.5532373"><ele>16.0</ele><time>2026-04-19T13:44:43.946Z</time></trkpt><trkpt lat="43.6846051" lon="10.5534124"><ele>16.0</ele><time>2026-04-19T13:44:44.946Z</time></trkpt><trkpt lat="43.684638" lon="10.5535924"><ele>16.0</ele><time>2026-04-19T13:44:45.946Z</time></trkpt><trkpt lat="43.6846491" lon="10.553787"><ele>16.0</ele><time>2026-04-19T13:44:46.947Z</time></trkpt><trkpt lat="43.6846512" lon="10.5539842"><ele>16.0</ele><time>2026-04-19T13:44:47.947Z</time></trkpt><trkpt lat="43.6846371" lon="10.5541934"><ele>16.0</ele><time>2026-04-19T13:44:48.946Z</time></trkpt><trkpt lat="43.6846217" lon="10.5543919"><ele>16.0</ele><time>2026-04-19T13:44:49.946Z</time></trkpt><trkpt lat="43.6846013" lon="10.5545749"><ele>16.75</ele><time>2026-04-19T13:44:50.946Z</time></trkpt><trkpt lat="43.6845851" lon="10.5547525"><ele>17.5</ele><time>2026-04-19T13:44:51.947Z</time></trkpt><trkpt lat="43.6845653" lon="10.5549261"><ele>18.25</ele><time>2026-04-19T13:44:52.946Z</time></trkpt><trkpt lat="43.6845494" lon="10.5551035"><ele>19.0</ele><time>2026-04-19T13:44:53.946Z</time></trkpt><trkpt lat="43.684535" lon="10.5552754"><ele>20.0</ele><time>2026-04-19T13:44:54.946Z</time></trkpt><trkpt lat="43.6845218" lon="10.5554498"><ele>21.0</ele><time>2026-04-19T13:44:55.946Z</time></trkpt><trkpt lat="43.6845028" lon="10.5556232"><ele>22.0</ele><time>2026-04-19T13:44:56.946Z</time></trkpt><trkpt lat="43.6844825" lon="10.5558"><ele>23.0</ele><time>2026-04-19T13:44:57.947Z</time></trkpt><trkpt lat="43.684458" lon="10.5559892"><ele>23.0</ele><time>2026-04-19T13:44:58.946Z</time></trkpt><trkpt lat="43.6844315" lon="10.5561824"><ele>23.0</ele><time>2026-04-19T13:44:59.947Z</time></trkpt><trkpt lat="43.6844071" lon="10.556377"><ele>23.0</ele><time>2026-04-19T13:45:00.946Z</time></trkpt><trkpt lat="43.6843798" lon="10.5565629"><ele>23.0</ele><time>2026-04-19T13:45:01.946Z</time></trkpt><trkpt lat="43.6843545" lon="10.5567443"><ele>20.5</ele><time>2026-04-19T13:45:02.946Z</time></trkpt><trkpt lat="43.6843303" lon="10.5569325"><ele>18.0</ele><time>2026-04-19T13:45:03.946Z</time></trkpt><trkpt lat="43.6843019" lon="10.5571152"><ele>15.5</ele><time>2026-04-19T13:45:04.947Z</time></trkpt><trkpt lat="43.6842694" lon="10.5572917"><ele>13.0</ele><time>2026-04-19T13:45:05.946Z</time></trkpt><trkpt lat="43.684231" lon="10.5574676"><ele>12.75</ele><time>2026-04-19T13:45:06.946Z</time></trkpt><trkpt lat="43.6841873" lon="10.5576389"><ele>12.5</ele><time>2026-04-19T13:45:07.947Z</time></trkpt><trkpt lat="43.6841401" lon="10.557816"><ele>12.25</ele><time>2026-04-19T13:45:08.947Z</time></trkpt><trkpt lat="43.6840938" lon="10.5579848"><ele>12.0</ele><time>2026-04-19T13:45:09.947Z</time></trkpt><trkpt lat="43.6840459" lon="10.5581504"><ele>12.75</ele><time>2026-04-19T13:45:10.946Z</time></trkpt><trkpt lat="43.6839973" lon="10.5583115"><ele>13.5</ele><time>2026-04-19T13:45:11.946Z</time></trkpt><trkpt lat="43.6839485" lon="10.5584715"><ele>14.25</ele><time>2026-04-19T13:45:12.946Z</time></trkpt><trkpt lat="43.6838946" lon="10.5586186"><ele>15.0</ele><time>2026-04-19T13:45:13.946Z</time></trkpt><trkpt lat="43.6838379" lon="10.5587693"><ele>15.0</ele><time>2026-04-19T13:45:14.946Z</time></trkpt><trkpt lat="43.6837753" lon="10.5589254"><ele>15.0</ele><time>2026-04-19T13:45:15.946Z</time></trkpt><trkpt lat="43.6837128" lon="10.5590839"><ele>15.0</ele><time>2026-04-19T13:45:16.946Z</time></trkpt><trkpt lat="43.6836497" lon="10.5592369"><ele>15.0</ele><time>2026-04-19T13:45:17.946Z</time></trkpt><trkpt lat="43.6835832" lon="10.5594003"><ele>14.75</ele><time>2026-04-19T13:45:18.946Z</time></trkpt><trkpt lat="43.6835187" lon="10.5595599"><ele>14.5</ele><time>2026-04-19T13:45:19.946Z</time></trkpt><trkpt lat="43.6834565" lon="10.5597193"><ele>14.25</ele><time>2026-04-19T13:45:20.946Z</time></trkpt><trkpt lat="43.6833925" lon="10.5598754"><ele>14.0</ele><time>2026-04-19T13:45:21.946Z</time></trkpt><trkpt lat="43.683327" lon="10.5600249"><ele>14.0</ele><time>2026-04-19T13:45:22.947Z</time></trkpt><trkpt lat="43.6832628" lon="10.5601816"><ele>14.0</ele><time>2026-04-19T13:45:23.946Z</time></trkpt><trkpt lat="43.6831969" lon="10.5603348"><ele>14.0</ele><time>2026-04-19T13:45:24.946Z</time></trkpt><trkpt lat="43.6831373" lon="10.5604933"><ele>14.0</ele><time>2026-04-19T13:45:25.946Z</time></trkpt><trkpt lat="43.6830668" lon="10.5606459"><ele>14.0</ele><time>2026-04-19T13:45:26.946Z</time></trkpt><trkpt lat="43.6829976" lon="10.5607999"><ele>14.0</ele><time>2026-04-19T13:45:27.946Z</time></trkpt><trkpt lat="43.682915" lon="10.5609555"><ele>14.0</ele><time>2026-04-19T13:45:28.946Z</time></trkpt><trkpt lat="43.6828244" lon="10.5611095"><ele>14.0</ele><time>2026-04-19T13:45:29.946Z</time></trkpt><trkpt lat="43.6827323" lon="10.5612591"><ele>14.5</ele><time>2026-04-19T13:45:30.947Z</time></trkpt><trkpt lat="43.6826385" lon="10.5614096"><ele>15.0</ele><time>2026-04-19T13:45:31.946Z</time></trkpt><trkpt lat="43.6825485" lon="10.5615531"><ele>15.5</ele><time>2026-04-19T13:45:32.946Z</time></trkpt><trkpt lat="43.6824562" lon="10.5616974"><ele>16.0</ele><time>2026-04-19T13:45:33.946Z</time></trkpt><trkpt lat="43.6823638" lon="10.5618402"><ele>16.0</ele><time>2026-04-19T13:45:34.947Z</time></trkpt><trkpt lat="43.6822667" lon="10.5619799"><ele>16.0</ele><time>2026-04-19T13:45:35.947Z</time></trkpt><trkpt lat="43.6821691" lon="10.5621184"><ele>16.0</ele><time>2026-04-19T13:45:36.946Z</time></trkpt><trkpt lat="43.6820771" lon="10.5622634"><ele>16.0</ele><time>2026-04-19T13:45:37.946Z</time></trkpt><trkpt lat="43.6819853" lon="10.5624105"><ele>16.0</ele><time>2026-04-19T13:45:38.946Z</time></trkpt><trkpt lat="43.6818967" lon="10.5625657"><ele>16.0</ele><time>2026-04-19T13:45:39.946Z</time></trkpt><trkpt lat="43.6818042" lon="10.5627165"><ele>16.0</ele><time>2026-04-19T13:45:40.947Z</time></trkpt><trkpt lat="43.6817145" lon="10.5628635"><ele>16.0</ele><time>2026-04-19T13:45:41.947Z</time></trkpt><trkpt lat="43.6816316" lon="10.5630238"><ele>16.0</ele><time>2026-04-19T13:45:42.946Z</time></trkpt><trkpt lat="43.6815551" lon="10.5631843"><ele>16.0</ele><time>2026-04-19T13:45:43.946Z</time></trkpt><trkpt lat="43.6814771" lon="10.5633513"><ele>16.0</ele><time>2026-04-19T13:45:44.946Z</time></trkpt><trkpt lat="43.681403" lon="10.5635215"><ele>16.0</ele><time>2026-04-19T13:45:45.947Z</time></trkpt><trkpt lat="43.6813276" lon="10.5636957"><ele>16.5</ele><time>2026-04-19T13:45:46.947Z</time></trkpt><trkpt lat="43.6812535" lon="10.5638669"><ele>17.0</ele><time>2026-04-19T13:45:47.946Z</time></trkpt><trkpt lat="43.6811813" lon="10.5640312"><ele>17.5</ele><time>2026-04-19T13:45:48.946Z</time></trkpt><trkpt lat="43.6811115" lon="10.5641939"><ele>18.0</ele><time>2026-04-19T13:45:49.946Z</time></trkpt><trkpt lat="43.6810415" lon="10.5643569"><ele>17.0</ele><time>2026-04-19T13:45:50.946Z</time></trkpt><trkpt lat="43.6809712" lon="10.564519"><ele>16.0</ele><time>2026-04-19T13:45:51.946Z</time></trkpt><trkpt lat="43.6809027" lon="10.56468"><ele>15.0</ele><time>2026-04-19T13:45:52.946Z</time></trkpt><trkpt lat="43.680831" lon="10.5648321"><ele>14.0</ele><time>2026-04-19T13:45:53.947Z</time></trkpt><trkpt lat="43.6807589" lon="10.5649963"><ele>14.0</ele><time>2026-04-19T13:45:54.946Z</time></trkpt><trkpt lat="43.6806899" lon="10.5651646"><ele>14.0</ele><time>2026-04-19T13:45:55.947Z</time></trkpt><trkpt lat="43.6806295" lon="10.5653396"><ele>14.0</ele><time>2026-04-19T13:45:56.946Z</time></trkpt><trkpt lat="43.6805794" lon="10.5655201"><ele>14.0</ele><time>2026-04-19T13:45:57.947Z</time></trkpt><trkpt lat="43.6805287" lon="10.5657172"><ele>14.0</ele><time>2026-04-19T13:45:58.946Z</time></trkpt><trkpt lat="43.6804915" lon="10.56591"><ele>14.0</ele><time>2026-04-19T13:45:59.946Z</time></trkpt><trkpt lat="43.6804542" lon="10.566112"><ele>14.0</ele><time>2026-04-19T13:46:00.946Z</time></trkpt><trkpt lat="43.6804315" lon="10.5663048"><ele>14.0</ele><time>2026-04-19T13:46:01.946Z</time></trkpt><trkpt lat="43.6804151" lon="10.5664898"><ele>14.0</ele><time>2026-04-19T13:46:02.946Z</time></trkpt><trkpt lat="43.6804063" lon="10.5666694"><ele>14.0</ele><time>2026-04-19T13:46:03.946Z</time></trkpt><trkpt lat="43.6804068" lon="10.5668593"><ele>14.0</ele><time>2026-04-19T13:46:04.946Z</time></trkpt><trkpt lat="43.6804099" lon="10.567048"><ele>14.0</ele><time>2026-04-19T13:46:05.946Z</time></trkpt><trkpt lat="43.6804236" lon="10.5672272"><ele>13.75</ele><time>2026-04-19T13:46:06.946Z</time></trkpt><trkpt lat="43.6804347" lon="10.5673948"><ele>13.5</ele><time>2026-04-19T13:46:07.946Z</time></trkpt><trkpt lat="43.6804479" lon="10.5675548"><ele>13.25</ele><time>2026-04-19T13:46:08.946Z</time></trkpt><trkpt lat="43.6804672" lon="10.5677149"><ele>13.0</ele><time>2026-04-19T13:46:09.946Z</time></trkpt><trkpt lat="43.6804861" lon="10.5678858"><ele>12.5</ele><time>2026-04-19T13:46:10.946Z</time></trkpt><trkpt lat="43.6805053" lon="10.5680661"><ele>12.0</ele><time>2026-04-19T13:46:11.946Z</time></trkpt><trkpt lat="43.6805273" lon="10.5682592"><ele>11.5</ele><time>2026-04-19T13:46:12.946Z</time></trkpt><trkpt lat="43.6805479" lon="10.5684509"><ele>11.0</ele><time>2026-04-19T13:46:13.946Z</time></trkpt><trkpt lat="43.6805638" lon="10.5686438"><ele>11.5</ele><time>2026-04-19T13:46:14.946Z</time></trkpt><trkpt lat="43.6805788" lon="10.5688324"><ele>12.0</ele><time>2026-04-19T13:46:15.946Z</time></trkpt><trkpt lat="43.6806008" lon="10.5690129"><ele>12.5</ele><time>2026-04-19T13:46:16.946Z</time></trkpt><trkpt lat="43.6806168" lon="10.5691907"><ele>13.0</ele><time>2026-04-19T13:46:17.946Z</time></trkpt><trkpt lat="43.680634" lon="10.5693735"><ele>13.25</ele><time>2026-04-19T13:46:18.946Z</time></trkpt><trkpt lat="43.6806536" lon="10.5695522"><ele>13.5</ele><time>2026-04-19T13:46:19.947Z</time></trkpt><trkpt lat="43.6806742" lon="10.5697422"><ele>13.75</ele><time>2026-04-19T13:46:20.946Z</time></trkpt><trkpt lat="43.6806941" lon="10.5699339"><ele>14.0</ele><time>2026-04-19T13:46:21.946Z</time></trkpt><trkpt lat="43.6807127" lon="10.5701102"><ele>14.0</ele><time>2026-04-19T13:46:22.946Z</time></trkpt><trkpt lat="43.6807332" lon="10.5702773"><ele>14.0</ele><time>2026-04-19T13:46:23.946Z</time></trkpt><trkpt lat="43.6807576" lon="10.5704353"><ele>14.0</ele><time>2026-04-19T13:46:24.946Z</time></trkpt><trkpt lat="43.6807839" lon="10.5706076"><ele>14.0</ele><time>2026-04-19T13:46:25.946Z</time></trkpt><trkpt lat="43.6808202" lon="10.5707797"><ele>13.75</ele><time>2026-04-19T13:46:26.946Z</time></trkpt><trkpt lat="43.6808683" lon="10.5709546"><ele>13.5</ele><time>2026-04-19T13:46:27.946Z</time></trkpt><trkpt lat="43.6809235" lon="10.5711237"><ele>13.25</ele><time>2026-04-19T13:46:28.946Z</time></trkpt><trkpt lat="43.6809807" lon="10.571283"><ele>13.0</ele><time>2026-04-19T13:46:29.946Z</time></trkpt><trkpt lat="43.6810417" lon="10.5714479"><ele>13.0</ele><time>2026-04-19T13:46:30.946Z</time></trkpt><trkpt lat="43.6811182" lon="10.5716163"><ele>13.0</ele><time>2026-04-19T13:46:31.946Z</time></trkpt><trkpt lat="43.6811951" lon="10.5717857"><ele>13.0</ele><time>2026-04-19T13:46:32.946Z</time></trkpt><trkpt lat="43.6812735" lon="10.5719395"><ele>13.0</ele><time>2026-04-19T13:46:33.946Z</time></trkpt><trkpt lat="43.6813553" lon="10.572092"><ele>12.75</ele><time>2026-04-19T13:46:34.946Z</time></trkpt><trkpt lat="43.6814318" lon="10.5722389"><ele>12.5</ele><time>2026-04-19T13:46:35.946Z</time></trkpt><trkpt lat="43.6815007" lon="10.5723743"><ele>12.25</ele><time>2026-04-19T13:46:36.946Z</time></trkpt><trkpt lat="43.6815676" lon="10.5724962"><ele>12.0</ele><time>2026-04-19T13:46:37.946Z</time></trkpt><trkpt lat="43.681633" lon="10.5726175"><ele>12.0</ele><time>2026-04-19T13:46:38.946Z</time></trkpt><trkpt lat="43.6816954" lon="10.5727443"><ele>12.0</ele><time>2026-04-19T13:46:39.946Z</time></trkpt><trkpt lat="43.681764" lon="10.5728752"><ele>12.0</ele><time>2026-04-19T13:46:40.947Z</time></trkpt><trkpt lat="43.6818348" lon="10.5730112"><ele>12.0</ele><time>2026-04-19T13:46:41.946Z</time></trkpt><trkpt lat="43.6819121" lon="10.5731577"><ele>12.25</ele><time>2026-04-19T13:46:42.947Z</time></trkpt><trkpt lat="43.6819896" lon="10.5733172"><ele>12.5</ele><time>2026-04-19T13:46:43.946Z</time></trkpt><trkpt lat="43.6820659" lon="10.5734745"><ele>12.75</ele><time>2026-04-19T13:46:44.946Z</time></trkpt><trkpt lat="43.6821471" lon="10.57364"><ele>13.0</ele><time>2026-04-19T13:46:45.946Z</time></trkpt><trkpt lat="43.6822333" lon="10.5738081"><ele>13.333333333333332</ele><time>2026-04-19T13:46:46.946Z</time></trkpt><trkpt lat="43.6823221" lon="10.5739812"><ele>13.666666666666668</ele><time>2026-04-19T13:46:47.946Z</time></trkpt><trkpt lat="43.6824152" lon="10.57416"><ele>14.0</ele><time>2026-04-19T13:46:48.946Z</time></trkpt><trkpt lat="43.6825048" lon="10.5743341"><ele>14.0</ele><time>2026-04-19T13:46:49.946Z</time></trkpt><trkpt lat="43.6825925" lon="10.5745033"><ele>14.0</ele><time>2026-04-19T13:46:50.947Z</time></trkpt><trkpt lat="43.6826781" lon="10.5746668"><ele>14.0</ele><time>2026-04-19T13:46:51.946Z</time></trkpt><trkpt lat="43.6827609" lon="10.5748307"><ele>14.0</ele><time>2026-04-19T13:46:52.946Z</time></trkpt><trkpt lat="43.6828441" lon="10.5749899"><ele>14.0</ele><time>2026-04-19T13:46:53.946Z</time></trkpt><trkpt lat="43.6829282" lon="10.575145"><ele>14.0</ele><time>2026-04-19T13:46:54.946Z</time></trkpt><trkpt lat="43.6830095" lon="10.5753002"><ele>14.0</ele><time>2026-04-19T13:46:55.946Z</time></trkpt><trkpt lat="43.6830851" lon="10.5754442"><ele>14.0</ele><time>2026-04-19T13:46:56.946Z</time></trkpt><trkpt lat="43.6831626" lon="10.5755837"><ele>14.25</ele><time>2026-04-19T13:46:57.946Z</time></trkpt><trkpt lat="43.6832372" lon="10.575724"><ele>14.5</ele><time>2026-04-19T13:46:58.946Z</time></trkpt><trkpt lat="43.6833066" lon="10.5758665"><ele>14.75</ele><time>2026-04-19T13:46:59.946Z</time></trkpt><trkpt lat="43.6833834" lon="10.5760146"><ele>15.0</ele><time>2026-04-19T13:47:00.946Z</time></trkpt><trkpt lat="43.6834602" lon="10.5761581"><ele>15.0</ele><time>2026-04-19T13:47:01.946Z</time></trkpt><trkpt lat="43.6835464" lon="10.5763054"><ele>15.0</ele><time>2026-04-19T13:47:02.946Z</time></trkpt><trkpt lat="43.6836447" lon="10.5764411"><ele>15.0</ele><time>2026-04-19T13:47:03.946Z</time></trkpt><trkpt lat="43.6837433" lon="10.5765689"><ele>15.0</ele><time>2026-04-19T13:47:04.947Z</time></trkpt><trkpt lat="43.6838463" lon="10.5766831"><ele>15.0</ele><time>2026-04-19T13:47:05.946Z</time></trkpt><trkpt lat="43.6839477" lon="10.5767858"><ele>15.0</ele><time>2026-04-19T13:47:06.946Z</time></trkpt><trkpt lat="43.6840506" lon="10.5768905"><ele>15.0</ele><time>2026-04-19T13:47:07.947Z</time></trkpt><trkpt lat="43.6841569" lon="10.57699"><ele>15.0</ele><time>2026-04-19T13:47:08.946Z</time></trkpt><trkpt lat="43.6842599" lon="10.5770794"><ele>15.0</ele><time>2026-04-19T13:47:09.946Z</time></trkpt><trkpt lat="43.684367" lon="10.5771778"><ele>15.0</ele><time>2026-04-19T13:47:10.947Z</time></trkpt><trkpt lat="43.6844676" lon="10.5772696"><ele>15.0</ele><time>2026-04-19T13:47:11.947Z</time></trkpt><trkpt lat="43.6845733" lon="10.5773634"><ele>15.0</ele><time>2026-04-19T13:47:12.946Z</time></trkpt><trkpt lat="43.6846729" lon="10.5774523"><ele>15.0</ele><time>2026-04-19T13:47:13.947Z</time></trkpt><trkpt lat="43.6847685" lon="10.5775282"><ele>15.0</ele><time>2026-04-19T13:47:14.946Z</time></trkpt><trkpt lat="43.684863" lon="10.5776056"><ele>15.0</ele><time>2026-04-19T13:47:15.946Z</time></trkpt><trkpt lat="43.6849519" lon="10.5776916"><ele>15.0</ele><time>2026-04-19T13:47:16.946Z</time></trkpt><trkpt lat="43.685043" lon="10.5777792"><ele>15.0</ele><time>2026-04-19T13:47:17.947Z</time></trkpt><trkpt lat="43.6851362" lon="10.5778621"><ele>15.0</ele><time>2026-04-19T13:47:18.946Z</time></trkpt><trkpt lat="43.6852264" lon="10.5779435"><ele>15.0</ele><time>2026-04-19T13:47:19.946Z</time></trkpt><trkpt lat="43.685315" lon="10.5780271"><ele>15.0</ele><time>2026-04-19T13:47:20.946Z</time></trkpt><trkpt lat="43.6854028" lon="10.5781078"><ele>15.0</ele><time>2026-04-19T13:47:21.946Z</time></trkpt><trkpt lat="43.6854925" lon="10.5781858"><ele>15.0</ele><time>2026-04-19T13:47:22.946Z</time></trkpt><trkpt lat="43.6855743" lon="10.5782575"><ele>15.0</ele><time>2026-04-19T13:47:23.947Z</time></trkpt><trkpt lat="43.685652" lon="10.5783235"><ele>15.0</ele><time>2026-04-19T13:47:24.946Z</time></trkpt><trkpt lat="43.6857315" lon="10.5783954"><ele>15.0</ele><time>2026-04-19T13:47:25.946Z</time></trkpt><trkpt lat="43.6858083" lon="10.5784607"><ele>15.0</ele><time>2026-04-19T13:47:26.946Z</time></trkpt><trkpt lat="43.6858881" lon="10.5785361"><ele>15.0</ele><time>2026-04-19T13:47:27.947Z</time></trkpt><trkpt lat="43.6859675" lon="10.5786064"><ele>15.0</ele><time>2026-04-19T13:47:28.946Z</time></trkpt><trkpt lat="43.6860544" lon="10.5786835"><ele>15.0</ele><time>2026-04-19T13:47:29.946Z</time></trkpt><trkpt lat="43.6861385" lon="10.5787595"><ele>15.0</ele><time>2026-04-19T13:47:30.946Z</time></trkpt><trkpt lat="43.6862132" lon="10.5788232"><ele>15.0</ele><time>2026-04-19T13:47:31.946Z</time></trkpt><trkpt lat="43.6862833" lon="10.578886"><ele>15.0</ele><time>2026-04-19T13:47:32.947Z</time></trkpt><trkpt lat="43.6863455" lon="10.5789396"><ele>15.0</ele><time>2026-04-19T13:47:33.946Z</time></trkpt><trkpt lat="43.6863976" lon="10.5789906"><ele>14.8</ele><time>2026-04-19T13:47:34.946Z</time></trkpt><trkpt lat="43.6864765" lon="10.5790586"><ele>14.6</ele><time>2026-04-19T13:47:36.946Z</time></trkpt><trkpt lat="43.6865489" lon="10.5791273"><ele>14.399999999999999</ele><time>2026-04-19T13:47:59.946Z</time></trkpt><trkpt lat="43.6866536" lon="10.5792224"><ele>14.2</ele><time>2026-04-19T13:48:01.946Z</time></trkpt><trkpt lat="43.6867171" lon="10.5792782"><ele>14.0</ele><time>2026-04-19T13:48:02.946Z</time></trkpt><trkpt lat="43.6867889" lon="10.5793365"><ele>14.0</ele><time>2026-04-19T13:48:03.946Z</time></trkpt><trkpt lat="43.6868608" lon="10.5794094"><ele>13.999999999999998</ele><time>2026-04-19T13:48:04.946Z</time></trkpt><trkpt lat="43.6869452" lon="10.5794867"><ele>13.999999999999998</ele><time>2026-04-19T13:48:05.946Z</time></trkpt><trkpt lat="43.6870324" lon="10.5795578"><ele>14.0</ele><time>2026-04-19T13:48:06.946Z</time></trkpt><trkpt lat="43.6871177" lon="10.5796399"><ele>14.0</ele><time>2026-04-19T13:48:07.946Z</time></trkpt><trkpt lat="43.6871973" lon="10.5797328"><ele>14.25</ele><time>2026-04-19T13:48:08.946Z</time></trkpt><trkpt lat="43.6872844" lon="10.5798428"><ele>14.5</ele><time>2026-04-19T13:48:09.946Z</time></trkpt><trkpt lat="43.6873751" lon="10.5799661"><ele>14.75</ele><time>2026-04-19T13:48:10.946Z</time></trkpt><trkpt lat="43.6874693" lon="10.5800839"><ele>15.0</ele><time>2026-04-19T13:48:11.947Z</time></trkpt><trkpt lat="43.6875572" lon="10.5802125"><ele>15.0</ele><time>2026-04-19T13:48:12.946Z</time></trkpt><trkpt lat="43.6876473" lon="10.5803381"><ele>15.0</ele><time>2026-04-19T13:48:13.946Z</time></trkpt><trkpt lat="43.6877394" lon="10.5804664"><ele>15.0</ele><time>2026-04-19T13:48:14.946Z</time></trkpt><trkpt lat="43.6878289" lon="10.580602"><ele>15.0</ele><time>2026-04-19T13:48:15.946Z</time></trkpt><trkpt lat="43.6879184" lon="10.5807385"><ele>15.5</ele><time>2026-04-19T13:48:16.947Z</time></trkpt><trkpt lat="43.6880139" lon="10.5808941"><ele>16.0</ele><time>2026-04-19T13:48:17.946Z</time></trkpt><trkpt lat="43.688122" lon="10.5810509"><ele>16.5</ele><time>2026-04-19T13:48:18.947Z</time></trkpt><trkpt lat="43.6882112" lon="10.5811983"><ele>17.0</ele><time>2026-04-19T13:48:19.946Z</time></trkpt><trkpt lat="43.6883032" lon="10.5813529"><ele>17.0</ele><time>2026-04-19T13:48:20.947Z</time></trkpt><trkpt lat="43.6883316" lon="10.5815418"><ele>17.0</ele><time>2026-04-19T13:48:21.946Z</time></trkpt><trkpt lat="43.6883031" lon="10.5817555"><ele>17.0</ele><time>2026-04-19T13:48:22.946Z</time></trkpt><trkpt lat="43.6882967" lon="10.5819588"><ele>17.0</ele><time>2026-04-19T13:48:23.946Z</time></trkpt><trkpt lat="43.6882661" lon="10.5821807"><ele>17.0</ele><time>2026-04-19T13:48:24.946Z</time></trkpt><trkpt lat="43.6882397" lon="10.5823906"><ele>17.0</ele><time>2026-04-19T13:48:25.946Z</time></trkpt><trkpt lat="43.6882126" lon="10.5826042"><ele>17.0</ele><time>2026-04-19T13:48:26.946Z</time></trkpt><trkpt lat="43.6881903" lon="10.5827929"><ele>17.0</ele><time>2026-04-19T13:48:27.946Z</time></trkpt><trkpt lat="43.6881708" lon="10.5829843"><ele>16.5</ele><time>2026-04-19T13:48:28.946Z</time></trkpt><trkpt lat="43.6881479" lon="10.5831617"><ele>16.0</ele><time>2026-04-19T13:48:29.946Z</time></trkpt><trkpt lat="43.6881311" lon="10.5833316"><ele>15.5</ele><time>2026-04-19T13:48:30.946Z</time></trkpt><trkpt lat="43.6881107" lon="10.583493"><ele>15.0</ele><time>2026-04-19T13:48:31.946Z</time></trkpt><trkpt lat="43.6880855" lon="10.5836476"><ele>14.6</ele><time>2026-04-19T13:48:32.946Z</time></trkpt><trkpt lat="43.6880531" lon="10.5837856"><ele>14.2</ele><time>2026-04-19T13:48:33.947Z</time></trkpt><trkpt lat="43.6880194" lon="10.5839063"><ele>13.8</ele><time>2026-04-19T13:48:34.946Z</time></trkpt><trkpt lat="43.6879765" lon="10.5840135"><ele>13.4</ele><time>2026-04-19T13:48:35.946Z</time></trkpt><trkpt lat="43.6879194" lon="10.5841139"><ele>13.0</ele><time>2026-04-19T13:48:36.946Z</time></trkpt><trkpt lat="43.6878538" lon="10.5841864"><ele>13.0</ele><time>2026-04-19T13:48:37.946Z</time></trkpt><trkpt lat="43.6878012" lon="10.5842585"><ele>13.0</ele><time>2026-04-19T13:48:38.946Z</time></trkpt><trkpt lat="43.6877641" lon="10.5844249"><ele>13.0</ele><time>2026-04-19T13:48:40.946Z</time></trkpt><trkpt lat="43.6878346" lon="10.5845886"><ele>13.0</ele><time>2026-04-19T13:48:42.946Z</time></trkpt><trkpt lat="43.687867" lon="10.5846821"><ele>13.0</ele><time>2026-04-19T13:48:43.946Z</time></trkpt><trkpt lat="43.6878736" lon="10.5848241"><ele>12.8</ele><time>2026-04-19T13:48:44.946Z</time></trkpt><trkpt lat="43.6878727" lon="10.5849773"><ele>12.600000000000001</ele><time>2026-04-19T13:48:45.946Z</time></trkpt><trkpt lat="43.6878704" lon="10.5851254"><ele>12.399999999999999</ele><time>2026-04-19T13:48:46.946Z</time></trkpt><trkpt lat="43.687866" lon="10.5852711"><ele>12.2</ele><time>2026-04-19T13:48:47.946Z</time></trkpt><trkpt lat="43.6878569" lon="10.585411"><ele>12.0</ele><time>2026-04-19T13:48:48.946Z</time></trkpt><trkpt lat="43.6878488" lon="10.5855517"><ele>12.0</ele><time>2026-04-19T13:48:49.947Z</time></trkpt><trkpt lat="43.6878444" lon="10.5856855"><ele>12.0</ele><time>2026-04-19T13:48:50.946Z</time></trkpt><trkpt lat="43.6878413" lon="10.5858081"><ele>12.0</ele><time>2026-04-19T13:48:51.946Z</time></trkpt><trkpt lat="43.6878395" lon="10.5859309"><ele>12.0</ele><time>2026-04-19T13:48:52.946Z</time></trkpt><trkpt lat="43.687836" lon="10.5860373"><ele>12.0</ele><time>2026-04-19T13:48:53.946Z</time></trkpt><trkpt lat="43.6878319" lon="10.5861344"><ele>12.0</ele><time>2026-04-19T13:48:54.946Z</time></trkpt><trkpt lat="43.687823" lon="10.58623"><ele>12.0</ele><time>2026-04-19T13:48:55.946Z</time></trkpt><trkpt lat="43.6878005" lon="10.5863141"><ele>12.0</ele><time>2026-04-19T13:48:56.946Z</time></trkpt><trkpt lat="43.6877792" lon="10.5864119"><ele>12.0</ele><time>2026-04-19T13:48:57.946Z</time></trkpt><trkpt lat="43.687764" lon="10.5865233"><ele>12.0</ele><time>2026-04-19T13:48:58.946Z</time></trkpt><trkpt lat="43.6877487" lon="10.5866481"><ele>12.0</ele><time>2026-04-19T13:48:59.947Z</time></trkpt><trkpt lat="43.6877308" lon="10.5867874"><ele>12.0</ele><time>2026-04-19T13:49:00.947Z</time></trkpt><trkpt lat="43.6877101" lon="10.5869404"><ele>12.5</ele><time>2026-04-19T13:49:01.946Z</time></trkpt><trkpt lat="43.6876954" lon="10.5870979"><ele>13.0</ele><time>2026-04-19T13:49:02.946Z</time></trkpt><trkpt lat="43.6876829" lon="10.5872807"><ele>13.5</ele><time>2026-04-19T13:49:03.946Z</time></trkpt><trkpt lat="43.6876629" lon="10.587496"><ele>14.0</ele><time>2026-04-19T13:49:04.946Z</time></trkpt><trkpt lat="43.6876339" lon="10.5877342"><ele>14.333333333333334</ele><time>2026-04-19T13:49:05.947Z</time></trkpt><trkpt lat="43.6875995" lon="10.5879615"><ele>14.666666666666668</ele><time>2026-04-19T13:49:06.946Z</time></trkpt><trkpt lat="43.6875642" lon="10.5882071"><ele>15.0</ele><time>2026-04-19T13:49:07.946Z</time></trkpt><trkpt lat="43.6875281" lon="10.5884751"><ele>14.333333333333332</ele><time>2026-04-19T13:49:08.946Z</time></trkpt><trkpt lat="43.6875011" lon="10.5887265"><ele>13.666666666666666</ele><time>2026-04-19T13:49:09.946Z</time></trkpt><trkpt lat="43.6874698" lon="10.5889692"><ele>13.0</ele><time>2026-04-19T13:49:10.947Z</time></trkpt><trkpt lat="43.6874384" lon="10.5892267"><ele>13.0</ele><time>2026-04-19T13:49:11.947Z</time></trkpt><trkpt lat="43.6874031" lon="10.5894935"><ele>13.0</ele><time>2026-04-19T13:49:12.946Z</time></trkpt><trkpt lat="43.6873632" lon="10.5897626"><ele>13.0</ele><time>2026-04-19T13:49:13.946Z</time></trkpt><trkpt lat="43.687319" lon="10.5900369"><ele>13.0</ele><time>2026-04-19T13:49:14.946Z</time></trkpt><trkpt lat="43.6872657" lon="10.5903066"><ele>13.0</ele><time>2026-04-19T13:49:15.947Z</time></trkpt><trkpt lat="43.6872062" lon="10.5905713"><ele>13.0</ele><time>2026-04-19T13:49:16.946Z</time></trkpt><trkpt lat="43.6871443" lon="10.5908372"><ele>12.666666666666666</ele><time>2026-04-19T13:49:17.946Z</time></trkpt><trkpt lat="43.6870739" lon="10.5911139"><ele>12.333333333333332</ele><time>2026-04-19T13:49:18.946Z</time></trkpt><trkpt lat="43.6869958" lon="10.5913766"><ele>12.0</ele><time>2026-04-19T13:49:19.946Z</time></trkpt><trkpt lat="43.6869125" lon="10.5916337"><ele>11.666666666666666</ele><time>2026-04-19T13:49:20.946Z</time></trkpt><trkpt lat="43.6868267" lon="10.5919052"><ele>11.333333333333332</ele><time>2026-04-19T13:49:21.946Z</time></trkpt><trkpt lat="43.6867447" lon="10.5921729"><ele>11.0</ele><time>2026-04-19T13:49:22.946Z</time></trkpt><trkpt lat="43.6866588" lon="10.5924472"><ele>11.666666666666666</ele><time>2026-04-19T13:49:23.946Z</time></trkpt><trkpt lat="43.6865705" lon="10.5927192"><ele>12.333333333333332</ele><time>2026-04-19T13:49:24.946Z</time></trkpt><trkpt lat="43.6864793" lon="10.5929857"><ele>13.0</ele><time>2026-04-19T13:49:25.946Z</time></trkpt><trkpt lat="43.6863897" lon="10.5932504"><ele>13.333333333333332</ele><time>2026-04-19T13:49:26.946Z</time></trkpt><trkpt lat="43.6863027" lon="10.5935133"><ele>13.666666666666668</ele><time>2026-04-19T13:49:27.946Z</time></trkpt><trkpt lat="43.6862132" lon="10.5937892"><ele>14.0</ele><time>2026-04-19T13:49:28.946Z</time></trkpt><trkpt lat="43.6861212" lon="10.5940445"><ele>14.333333333333334</ele><time>2026-04-19T13:49:29.946Z</time></trkpt><trkpt lat="43.6860329" lon="10.5943183"><ele>14.666666666666668</ele><time>2026-04-19T13:49:30.947Z</time></trkpt><trkpt lat="43.6859412" lon="10.5945814"><ele>15.0</ele><time>2026-04-19T13:49:31.947Z</time></trkpt><trkpt lat="43.6858601" lon="10.5948322"><ele>15.333333333333332</ele><time>2026-04-19T13:49:32.946Z</time></trkpt><trkpt lat="43.6857732" lon="10.5950894"><ele>15.666666666666666</ele><time>2026-04-19T13:49:33.946Z</time></trkpt><trkpt lat="43.6856867" lon="10.5953415"><ele>16.0</ele><time>2026-04-19T13:49:34.946Z</time></trkpt><trkpt lat="43.6856065" lon="10.5955906"><ele>16.0</ele><time>2026-04-19T13:49:35.947Z</time></trkpt><trkpt lat="43.6855328" lon="10.5958371"><ele>16.0</ele><time>2026-04-19T13:49:36.946Z</time></trkpt><trkpt lat="43.6854702" lon="10.5960884"><ele>16.0</ele><time>2026-04-19T13:49:37.946Z</time></trkpt><trkpt lat="43.6854236" lon="10.5963448"><ele>15.0</ele><time>2026-04-19T13:49:38.946Z</time></trkpt><trkpt lat="43.685386" lon="10.5966139"><ele>14.0</ele><time>2026-04-19T13:49:39.946Z</time></trkpt><trkpt lat="43.6853598" lon="10.5968838"><ele>13.0</ele><time>2026-04-19T13:49:40.946Z</time></trkpt><trkpt lat="43.6853381" lon="10.5971407"><ele>12.666666666666666</ele><time>2026-04-19T13:49:41.946Z</time></trkpt><trkpt lat="43.6853181" lon="10.5973766"><ele>12.333333333333332</ele><time>2026-04-19T13:49:42.947Z</time></trkpt><trkpt lat="43.6852969" lon="10.5976035"><ele>12.0</ele><time>2026-04-19T13:49:43.946Z</time></trkpt><trkpt lat="43.6852771" lon="10.5978227"><ele>12.333333333333332</ele><time>2026-04-19T13:49:44.946Z</time></trkpt><trkpt lat="43.6852584" lon="10.5980296"><ele>12.666666666666666</ele><time>2026-04-19T13:49:45.946Z</time></trkpt><trkpt lat="43.6852392" lon="10.5982326"><ele>13.0</ele><time>2026-04-19T13:49:46.946Z</time></trkpt><trkpt lat="43.6852224" lon="10.5984414"><ele>13.0</ele><time>2026-04-19T13:49:47.946Z</time></trkpt><trkpt lat="43.6852082" lon="10.5986412"><ele>13.0</ele><time>2026-04-19T13:49:48.946Z</time></trkpt><trkpt lat="43.6851884" lon="10.5988631"><ele>13.0</ele><time>2026-04-19T13:49:49.946Z</time></trkpt><trkpt lat="43.6851652" lon="10.5990753"><ele>13.333333333333332</ele><time>2026-04-19T13:49:50.946Z</time></trkpt><trkpt lat="43.6851401" lon="10.5992931"><ele>13.666666666666668</ele><time>2026-04-19T13:49:51.946Z</time></trkpt><trkpt lat="43.6851151" lon="10.5995212"><ele>14.0</ele><time>2026-04-19T13:49:52.947Z</time></trkpt><trkpt lat="43.6851007" lon="10.5997634"><ele>14.0</ele><time>2026-04-19T13:49:53.946Z</time></trkpt><trkpt lat="43.6850855" lon="10.6"><ele>14.0</ele><time>2026-04-19T13:49:54.946Z</time></trkpt><trkpt lat="43.6850666" lon="10.6002504"><ele>14.0</ele><time>2026-04-19T13:49:55.946Z</time></trkpt><trkpt lat="43.6850572" lon="10.6004925"><ele>13.666666666666668</ele><time>2026-04-19T13:49:56.946Z</time></trkpt><trkpt lat="43.6850527" lon="10.6007385"><ele>13.333333333333332</ele><time>2026-04-19T13:49:57.946Z</time></trkpt><trkpt lat="43.6850534" lon="10.6009896"><ele>13.0</ele><time>2026-04-19T13:49:58.946Z</time></trkpt><trkpt lat="43.685063" lon="10.6012386"><ele>14.333333333333332</ele><time>2026-04-19T13:49:59.946Z</time></trkpt><trkpt lat="43.6850744" lon="10.601492"><ele>15.666666666666668</ele><time>2026-04-19T13:50:00.946Z</time></trkpt><trkpt lat="43.6850949" lon="10.601751"><ele>17.0</ele><time>2026-04-19T13:50:01.946Z</time></trkpt><trkpt lat="43.6851203" lon="10.6020135"><ele>17.0</ele><time>2026-04-19T13:50:02.946Z</time></trkpt><trkpt lat="43.6851482" lon="10.6022794"><ele>17.0</ele><time>2026-04-19T13:50:03.946Z</time></trkpt><trkpt lat="43.6851846" lon="10.6025534"><ele>17.0</ele><time>2026-04-19T13:50:04.946Z</time></trkpt><trkpt lat="43.685224" lon="10.602824"><ele>15.0</ele><time>2026-04-19T13:50:05.946Z</time></trkpt><trkpt lat="43.685271" lon="10.6030817"><ele>13.0</ele><time>2026-04-19T13:50:06.946Z</time></trkpt><trkpt lat="43.685318" lon="10.6033544"><ele>11.0</ele><time>2026-04-19T13:50:07.947Z</time></trkpt><trkpt lat="43.6853571" lon="10.6036288"><ele>11.0</ele><time>2026-04-19T13:50:08.946Z</time></trkpt><trkpt lat="43.6854012" lon="10.6039003"><ele>11.0</ele><time>2026-04-19T13:50:09.946Z</time></trkpt><trkpt lat="43.6854465" lon="10.6041735"><ele>11.0</ele><time>2026-04-19T13:50:10.947Z</time></trkpt><trkpt lat="43.6854893" lon="10.6044471"><ele>11.333333333333332</ele><time>2026-04-19T13:50:11.946Z</time></trkpt><trkpt lat="43.6855321" lon="10.6047219"><ele>11.666666666666666</ele><time>2026-04-19T13:50:12.946Z</time></trkpt><trkpt lat="43.6855735" lon="10.6050031"><ele>12.0</ele><time>2026-04-19T13:50:13.946Z</time></trkpt><trkpt lat="43.685618" lon="10.605262"><ele>12.666666666666668</ele><time>2026-04-19T13:50:14.946Z</time></trkpt><trkpt lat="43.6856551" lon="10.6055114"><ele>13.333333333333334</ele><time>2026-04-19T13:50:15.946Z</time></trkpt><trkpt lat="43.6856921" lon="10.6057509"><ele>14.0</ele><time>2026-04-19T13:50:16.946Z</time></trkpt><trkpt lat="43.6857264" lon="10.6059835"><ele>13.333333333333334</ele><time>2026-04-19T13:50:17.946Z</time></trkpt><trkpt lat="43.6857615" lon="10.6062021"><ele>12.666666666666668</ele><time>2026-04-19T13:50:18.946Z</time></trkpt><trkpt lat="43.6857916" lon="10.6064042"><ele>12.0</ele><time>2026-04-19T13:50:19.946Z</time></trkpt><trkpt lat="43.6858253" lon="10.6065956"><ele>12.0</ele><time>2026-04-19T13:50:20.946Z</time></trkpt><trkpt lat="43.6858559" lon="10.6067792"><ele>12.0</ele><time>2026-04-19T13:50:21.946Z</time></trkpt><trkpt lat="43.6858864" lon="10.6069614"><ele>12.0</ele><time>2026-04-19T13:50:22.946Z</time></trkpt><trkpt lat="43.6859181" lon="10.6071338"><ele>12.0</ele><time>2026-04-19T13:50:23.946Z</time></trkpt><trkpt lat="43.6859427" lon="10.6073012"><ele>11.8</ele><time>2026-04-19T13:50:24.947Z</time></trkpt><trkpt lat="43.6859666" lon="10.6074427"><ele>11.6</ele><time>2026-04-19T13:50:25.946Z</time></trkpt><trkpt lat="43.6859882" lon="10.6075681"><ele>11.4</ele><time>2026-04-19T13:50:26.946Z</time></trkpt><trkpt lat="43.6860073" lon="10.6076845"><ele>11.200000000000001</ele><time>2026-04-19T13:50:27.946Z</time></trkpt><trkpt lat="43.686026" lon="10.6077755"><ele>11.0</ele><time>2026-04-19T13:50:28.946Z</time></trkpt><trkpt lat="43.6860469" lon="10.607916"><ele>11.0</ele><time>2026-04-19T13:50:30.947Z</time></trkpt><trkpt lat="43.6860677" lon="10.6080268"><ele>11.0</ele><time>2026-04-19T13:50:33.946Z</time></trkpt><trkpt lat="43.6860803" lon="10.6081126"><ele>11.0</ele><time>2026-04-19T13:50:39.946Z</time></trkpt><trkpt lat="43.6861067" lon="10.6083127"><ele>11.0</ele><time>2026-04-19T13:50:41.947Z</time></trkpt><trkpt lat="43.6861208" lon="10.6084427"><ele>11.0</ele><time>2026-04-19T13:50:42.947Z</time></trkpt><trkpt lat="43.6861446" lon="10.608618"><ele>10.75</ele><time>2026-04-19T13:50:43.946Z</time></trkpt><trkpt lat="43.6861738" lon="10.6087898"><ele>10.5</ele><time>2026-04-19T13:50:44.946Z</time></trkpt><trkpt lat="43.6862062" lon="10.6089839"><ele>10.25</ele><time>2026-04-19T13:50:45.946Z</time></trkpt><trkpt lat="43.6862475" lon="10.6092016"><ele>10.0</ele><time>2026-04-19T13:50:46.946Z</time></trkpt><trkpt lat="43.6862908" lon="10.6094415"><ele>10.333333333333334</ele><time>2026-04-19T13:50:47.946Z</time></trkpt><trkpt lat="43.6863272" lon="10.6096792"><ele>10.666666666666666</ele><time>2026-04-19T13:50:48.947Z</time></trkpt><trkpt lat="43.6863647" lon="10.6099404"><ele>11.0</ele><time>2026-04-19T13:50:49.946Z</time></trkpt><trkpt lat="43.686408" lon="10.6102212"><ele>10.5</ele><time>2026-04-19T13:50:50.946Z</time></trkpt><trkpt lat="43.6864663" lon="10.6105426"><ele>10.0</ele><time>2026-04-19T13:50:51.946Z</time></trkpt><trkpt lat="43.686524" lon="10.6108665"><ele>10.5</ele><time>2026-04-19T13:50:52.946Z</time></trkpt><trkpt lat="43.6865736" lon="10.6111796"><ele>11.0</ele><time>2026-04-19T13:50:53.946Z</time></trkpt><trkpt lat="43.6866231" lon="10.6114883"><ele>11.0</ele><time>2026-04-19T13:50:54.946Z</time></trkpt><trkpt lat="43.6866629" lon="10.6117827"><ele>11.0</ele><time>2026-04-19T13:50:55.947Z</time></trkpt><trkpt lat="43.6866956" lon="10.6120807"><ele>11.0</ele><time>2026-04-19T13:50:56.946Z</time></trkpt><trkpt lat="43.6867187" lon="10.6123792"><ele>10.666666666666666</ele><time>2026-04-19T13:50:57.947Z</time></trkpt><trkpt lat="43.6867373" lon="10.6126692"><ele>10.333333333333334</ele><time>2026-04-19T13:50:58.946Z</time></trkpt><trkpt lat="43.6867523" lon="10.6129572"><ele>10.0</ele><time>2026-04-19T13:50:59.947Z</time></trkpt><trkpt lat="43.6867558" lon="10.6132447"><ele>10.0</ele><time>2026-04-19T13:51:00.947Z</time></trkpt><trkpt lat="43.6867579" lon="10.6135332"><ele>10.0</ele><time>2026-04-19T13:51:01.946Z</time></trkpt><trkpt lat="43.6867575" lon="10.6138169"><ele>10.0</ele><time>2026-04-19T13:51:02.946Z</time></trkpt><trkpt lat="43.6867467" lon="10.6141047"><ele>10.0</ele><time>2026-04-19T13:51:03.946Z</time></trkpt><trkpt lat="43.6867296" lon="10.614391"><ele>10.0</ele><time>2026-04-19T13:51:04.946Z</time></trkpt><trkpt lat="43.6867034" lon="10.6146813"><ele>10.0</ele><time>2026-04-19T13:51:05.946Z</time></trkpt><trkpt lat="43.6866701" lon="10.6149705"><ele>10.666666666666668</ele><time>2026-04-19T13:51:06.946Z</time></trkpt><trkpt lat="43.6866315" lon="10.6152584"><ele>11.333333333333334</ele><time>2026-04-19T13:51:07.946Z</time></trkpt><trkpt lat="43.6865875" lon="10.6155485"><ele>12.0</ele><time>2026-04-19T13:51:08.946Z</time></trkpt><trkpt lat="43.6865351" lon="10.6158342"><ele>12.0</ele><time>2026-04-19T13:51:09.946Z</time></trkpt><trkpt lat="43.6864799" lon="10.6161064"><ele>12.0</ele><time>2026-04-19T13:51:10.946Z</time></trkpt><trkpt lat="43.6864222" lon="10.6163621"><ele>12.0</ele><time>2026-04-19T13:51:11.946Z</time></trkpt><trkpt lat="43.6863637" lon="10.6166042"><ele>11.666666666666666</ele><time>2026-04-19T13:51:12.946Z</time></trkpt><trkpt lat="43.6863063" lon="10.6168435"><ele>11.333333333333332</ele><time>2026-04-19T13:51:13.946Z</time></trkpt><trkpt lat="43.6862478" lon="10.617078"><ele>11.0</ele><time>2026-04-19T13:51:14.946Z</time></trkpt><trkpt lat="43.6861836" lon="10.6172889"><ele>10.75</ele><time>2026-04-19T13:51:15.946Z</time></trkpt><trkpt lat="43.6861164" lon="10.6174834"><ele>10.5</ele><time>2026-04-19T13:51:16.946Z</time></trkpt><trkpt lat="43.6860504" lon="10.6176606"><ele>10.25</ele><time>2026-04-19T13:51:17.946Z</time></trkpt><trkpt lat="43.6859883" lon="10.6178272"><ele>10.0</ele><time>2026-04-19T13:51:18.946Z</time></trkpt><trkpt lat="43.6859286" lon="10.6179895"><ele>10.4</ele><time>2026-04-19T13:51:19.946Z</time></trkpt><trkpt lat="43.6858725" lon="10.6181434"><ele>10.8</ele><time>2026-04-19T13:51:20.947Z</time></trkpt><trkpt lat="43.6858188" lon="10.618285"><ele>11.2</ele><time>2026-04-19T13:51:21.947Z</time></trkpt><trkpt lat="43.6857697" lon="10.6184177"><ele>11.6</ele><time>2026-04-19T13:51:22.946Z</time></trkpt><trkpt lat="43.685723" lon="10.618535"><ele>12.0</ele><time>2026-04-19T13:51:23.946Z</time></trkpt><trkpt lat="43.6856872" lon="10.6186276"><ele>12.333333333333334</ele><time>2026-04-19T13:51:24.946Z</time></trkpt><trkpt lat="43.6856546" lon="10.6187117"><ele>12.666666666666668</ele><time>2026-04-19T13:51:25.946Z</time></trkpt><trkpt lat="43.6856063" lon="10.6188405"><ele>13.0</ele><time>2026-04-19T13:51:27.946Z</time></trkpt><trkpt lat="43.6855676" lon="10.6189298"><ele>13.333333333333334</ele><time>2026-04-19T13:51:40.946Z</time></trkpt><trkpt lat="43.6855302" lon="10.6190453"><ele>13.666666666666668</ele><time>2026-04-19T13:51:42.946Z</time></trkpt><trkpt lat="43.6854902" lon="10.6191508"><ele>14.0</ele><time>2026-04-19T13:51:43.946Z</time></trkpt><trkpt lat="43.6854442" lon="10.6192697"><ele>14.0</ele><time>2026-04-19T13:51:44.946Z</time></trkpt><trkpt lat="43.6853875" lon="10.6194079"><ele>14.0</ele><time>2026-04-19T13:51:45.946Z</time></trkpt><trkpt lat="43.6853307" lon="10.6195451"><ele>14.0</ele><time>2026-04-19T13:51:46.946Z</time></trkpt><trkpt lat="43.6852719" lon="10.6196954"><ele>14.0</ele><time>2026-04-19T13:51:47.946Z</time></trkpt><trkpt lat="43.6852032" lon="10.6198753"><ele>14.0</ele><time>2026-04-19T13:51:48.946Z</time></trkpt><trkpt lat="43.6851181" lon="10.6201005"><ele>14.0</ele><time>2026-04-19T13:51:49.946Z</time></trkpt><trkpt lat="43.6850341" lon="10.6203174"><ele>14.0</ele><time>2026-04-19T13:51:50.946Z</time></trkpt><trkpt lat="43.6849504" lon="10.6205449"><ele>14.0</ele><time>2026-04-19T13:51:51.946Z</time></trkpt><trkpt lat="43.6848574" lon="10.6207982"><ele>14.0</ele><time>2026-04-19T13:51:52.946Z</time></trkpt><trkpt lat="43.6847675" lon="10.6210399"><ele>14.0</ele><time>2026-04-19T13:51:53.946Z</time></trkpt><trkpt lat="43.6846795" lon="10.6212889"><ele>14.0</ele><time>2026-04-19T13:51:54.946Z</time></trkpt><trkpt lat="43.684588" lon="10.6215375"><ele>14.0</ele><time>2026-04-19T13:51:55.946Z</time></trkpt><trkpt lat="43.6844957" lon="10.6217899"><ele>14.0</ele><time>2026-04-19T13:51:56.947Z</time></trkpt><trkpt lat="43.6844087" lon="10.6220353"><ele>13.333333333333334</ele><time>2026-04-19T13:51:57.947Z</time></trkpt><trkpt lat="43.6843185" lon="10.6222801"><ele>12.666666666666668</ele><time>2026-04-19T13:51:58.946Z</time></trkpt><trkpt lat="43.6842291" lon="10.6225184"><ele>12.0</ele><time>2026-04-19T13:51:59.946Z</time></trkpt><trkpt lat="43.6841423" lon="10.6227445"><ele>12.666666666666668</ele><time>2026-04-19T13:52:00.946Z</time></trkpt><trkpt lat="43.6840624" lon="10.6229692"><ele>13.333333333333334</ele><time>2026-04-19T13:52:01.946Z</time></trkpt><trkpt lat="43.6839904" lon="10.6231915"><ele>14.0</ele><time>2026-04-19T13:52:02.946Z</time></trkpt><trkpt lat="43.6839239" lon="10.6234044"><ele>14.0</ele><time>2026-04-19T13:52:03.947Z</time></trkpt><trkpt lat="43.6838698" lon="10.6236073"><ele>14.0</ele><time>2026-04-19T13:52:04.946Z</time></trkpt><trkpt lat="43.6838255" lon="10.6237939"><ele>14.0</ele><time>2026-04-19T13:52:05.946Z</time></trkpt><trkpt lat="43.6837881" lon="10.6239656"><ele>14.0</ele><time>2026-04-19T13:52:06.946Z</time></trkpt><trkpt lat="43.6837484" lon="10.624123"><ele>14.2</ele><time>2026-04-19T13:52:07.946Z</time></trkpt><trkpt lat="43.6837065" lon="10.6242637"><ele>14.399999999999999</ele><time>2026-04-19T13:52:08.946Z</time></trkpt><trkpt lat="43.6836575" lon="10.6243851"><ele>14.6</ele><time>2026-04-19T13:52:09.946Z</time></trkpt><trkpt lat="43.6835889" lon="10.6244891"><ele>14.8</ele><time>2026-04-19T13:52:10.946Z</time></trkpt><trkpt lat="43.6835122" lon="10.6245674"><ele>15.0</ele><time>2026-04-19T13:52:11.946Z</time></trkpt><trkpt lat="43.6834372" lon="10.6246885"><ele>16.8</ele><time>2026-04-19T13:52:12.947Z</time></trkpt><trkpt lat="43.6833804" lon="10.6247975"><ele>18.6</ele><time>2026-04-19T13:52:13.946Z</time></trkpt><trkpt lat="43.6833428" lon="10.6249322"><ele>20.4</ele><time>2026-04-19T13:52:14.946Z</time></trkpt><trkpt lat="43.6833158" lon="10.625081"><ele>22.2</ele><time>2026-04-19T13:52:15.946Z</time></trkpt><trkpt lat="43.6832803" lon="10.6252301"><ele>24.0</ele><time>2026-04-19T13:52:16.946Z</time></trkpt><trkpt lat="43.6832221" lon="10.6253815"><ele>26.0</ele><time>2026-04-19T13:52:17.946Z</time></trkpt><trkpt lat="43.683135" lon="10.6255469"><ele>28.0</ele><time>2026-04-19T13:52:18.946Z</time></trkpt><trkpt lat="43.6830419" lon="10.625718"><ele>30.0</ele><time>2026-04-19T13:52:19.946Z</time></trkpt><trkpt lat="43.6829421" lon="10.6258916"><ele>30.0</ele><time>2026-04-19T13:52:20.946Z</time></trkpt><trkpt lat="43.682838" lon="10.626079"><ele>30.0</ele><time>2026-04-19T13:52:21.946Z</time></trkpt><trkpt lat="43.6827341" lon="10.6262729"><ele>30.0</ele><time>2026-04-19T13:52:22.946Z</time></trkpt><trkpt lat="43.682628" lon="10.6264716"><ele>30.0</ele><time>2026-04-19T13:52:23.946Z</time></trkpt><trkpt lat="43.6825202" lon="10.626674"><ele>30.0</ele><time>2026-04-19T13:52:24.946Z</time></trkpt><trkpt lat="43.6824046" lon="10.6268911"><ele>30.0</ele><time>2026-04-19T13:52:25.947Z</time></trkpt><trkpt lat="43.6822891" lon="10.6271028"><ele>30.333333333333336</ele><time>2026-04-19T13:52:26.946Z</time></trkpt><trkpt lat="43.6821715" lon="10.6273144"><ele>30.666666666666668</ele><time>2026-04-19T13:52:27.946Z</time></trkpt><trkpt lat="43.6820531" lon="10.6275304"><ele>31.0</ele><time>2026-04-19T13:52:28.946Z</time></trkpt><trkpt lat="43.6819309" lon="10.6277536"><ele>26.666666666666668</ele><time>2026-04-19T13:52:29.946Z</time></trkpt><trkpt lat="43.6818092" lon="10.6279768"><ele>22.333333333333336</ele><time>2026-04-19T13:52:30.946Z</time></trkpt><trkpt lat="43.681688" lon="10.6282011"><ele>18.0</ele><time>2026-04-19T13:52:31.946Z</time></trkpt><trkpt lat="43.6815666" lon="10.6284253"><ele>17.0</ele><time>2026-04-19T13:52:32.947Z</time></trkpt><trkpt lat="43.681448" lon="10.6286466"><ele>16.0</ele><time>2026-04-19T13:52:33.946Z</time></trkpt><trkpt lat="43.681328" lon="10.6288668"><ele>15.0</ele><time>2026-04-19T13:52:34.946Z</time></trkpt><trkpt lat="43.6812072" lon="10.6290956"><ele>15.333333333333332</ele><time>2026-04-19T13:52:35.946Z</time></trkpt><trkpt lat="43.6810873" lon="10.6293198"><ele>15.666666666666666</ele><time>2026-04-19T13:52:36.946Z</time></trkpt><trkpt lat="43.6809687" lon="10.6295401"><ele>16.0</ele><time>2026-04-19T13:52:37.946Z</time></trkpt><trkpt lat="43.6808525" lon="10.6297544"><ele>16.0</ele><time>2026-04-19T13:52:38.946Z</time></trkpt><trkpt lat="43.6807341" lon="10.6299667"><ele>16.0</ele><time>2026-04-19T13:52:39.946Z</time></trkpt><trkpt lat="43.6806177" lon="10.6301763"><ele>16.0</ele><time>2026-04-19T13:52:40.946Z</time></trkpt><trkpt lat="43.6805001" lon="10.6303934"><ele>16.0</ele><time>2026-04-19T13:52:41.946Z</time></trkpt><trkpt lat="43.6803831" lon="10.6306078"><ele>16.0</ele><time>2026-04-19T13:52:42.946Z</time></trkpt><trkpt lat="43.6802656" lon="10.6308208"><ele>16.0</ele><time>2026-04-19T13:52:43.946Z</time></trkpt><trkpt lat="43.6801505" lon="10.6310312"><ele>13.333333333333332</ele><time>2026-04-19T13:52:44.946Z</time></trkpt><trkpt lat="43.6800367" lon="10.6312373"><ele>10.666666666666666</ele><time>2026-04-19T13:52:45.946Z</time></trkpt><trkpt lat="43.6799295" lon="10.6314329"><ele>8.0</ele><time>2026-04-19T13:52:46.946Z</time></trkpt><trkpt lat="43.6798281" lon="10.6316191"><ele>8.0</ele><time>2026-04-19T13:52:47.946Z</time></trkpt><trkpt lat="43.6797346" lon="10.6317912"><ele>8.0</ele><time>2026-04-19T13:52:48.946Z</time></trkpt><trkpt lat="43.6796519" lon="10.6319428"><ele>8.0</ele><time>2026-04-19T13:52:49.946Z</time></trkpt><trkpt lat="43.6795789" lon="10.6320708"><ele>8.0</ele><time>2026-04-19T13:52:50.946Z</time></trkpt><trkpt lat="43.6795114" lon="10.6321722"><ele>9.166666666666666</ele><time>2026-04-19T13:52:51.946Z</time></trkpt><trkpt lat="43.6794392" lon="10.6322394"><ele>10.333333333333332</ele><time>2026-04-19T13:52:52.946Z</time></trkpt><trkpt lat="43.6793592" lon="10.6322681"><ele>11.5</ele><time>2026-04-19T13:52:53.946Z</time></trkpt><trkpt lat="43.6792742" lon="10.6322723"><ele>12.666666666666666</ele><time>2026-04-19T13:52:54.946Z</time></trkpt><trkpt lat="43.6791799" lon="10.6322762"><ele>13.833333333333334</ele><time>2026-04-19T13:52:55.946Z</time></trkpt><trkpt lat="43.6790806" lon="10.6322886"><ele>15.0</ele><time>2026-04-19T13:52:56.946Z</time></trkpt><trkpt lat="43.6789716" lon="10.6322936"><ele>15.0</ele><time>2026-04-19T13:52:57.946Z</time></trkpt><trkpt lat="43.678854" lon="10.632273"><ele>15.0</ele><time>2026-04-19T13:52:58.946Z</time></trkpt><trkpt lat="43.6787222" lon="10.6322275"><ele>15.0</ele><time>2026-04-19T13:52:59.946Z</time></trkpt><trkpt lat="43.6785837" lon="10.6321721"><ele>15.0</ele><time>2026-04-19T13:53:00.946Z</time></trkpt><trkpt lat="43.6784403" lon="10.6321242"><ele>14.333333333333332</ele><time>2026-04-19T13:53:01.947Z</time></trkpt><trkpt lat="43.6782773" lon="10.6320945"><ele>13.666666666666666</ele><time>2026-04-19T13:53:02.946Z</time></trkpt><trkpt lat="43.6781003" lon="10.6320898"><ele>13.0</ele><time>2026-04-19T13:53:03.946Z</time></trkpt><trkpt lat="43.6779211" lon="10.6321088"><ele>13.0</ele><time>2026-04-19T13:53:04.947Z</time></trkpt><trkpt lat="43.6777395" lon="10.6321558"><ele>13.0</ele><time>2026-04-19T13:53:05.947Z</time></trkpt><trkpt lat="43.6775669" lon="10.6322298"><ele>13.0</ele><time>2026-04-19T13:53:06.946Z</time></trkpt><trkpt lat="43.677395" lon="10.6323328"><ele>13.0</ele><time>2026-04-19T13:53:07.947Z</time></trkpt><trkpt lat="43.677234" lon="10.6324634"><ele>13.0</ele><time>2026-04-19T13:53:08.946Z</time></trkpt><trkpt lat="43.6770851" lon="10.632619"><ele>13.0</ele><time>2026-04-19T13:53:09.946Z</time></trkpt><trkpt lat="43.6769489" lon="10.6328"><ele>12.333333333333332</ele><time>2026-04-19T13:53:10.946Z</time></trkpt><trkpt lat="43.6768295" lon="10.6330028"><ele>11.666666666666666</ele><time>2026-04-19T13:53:11.946Z</time></trkpt><trkpt lat="43.6767275" lon="10.6332241"><ele>11.0</ele><time>2026-04-19T13:53:12.946Z</time></trkpt><trkpt lat="43.6766447" lon="10.63346"><ele>11.0</ele><time>2026-04-19T13:53:13.946Z</time></trkpt><trkpt lat="43.6765828" lon="10.6337102"><ele>11.0</ele><time>2026-04-19T13:53:14.946Z</time></trkpt><trkpt lat="43.6765418" lon="10.6339759"><ele>11.0</ele><time>2026-04-19T13:53:15.946Z</time></trkpt><trkpt lat="43.6765185" lon="10.6342588"><ele>11.333333333333332</ele><time>2026-04-19T13:53:16.946Z</time></trkpt><trkpt lat="43.6765144" lon="10.6345579"><ele>11.666666666666666</ele><time>2026-04-19T13:53:17.946Z</time></trkpt><trkpt lat="43.6765271" lon="10.6348656"><ele>12.0</ele><time>2026-04-19T13:53:18.946Z</time></trkpt><trkpt lat="43.6765517" lon="10.6351696"><ele>12.5</ele><time>2026-04-19T13:53:19.946Z</time></trkpt><trkpt lat="43.6765885" lon="10.6354789"><ele>13.0</ele><time>2026-04-19T13:53:20.946Z</time></trkpt><trkpt lat="43.6766304" lon="10.6357946"><ele>13.0</ele><time>2026-04-19T13:53:21.946Z</time></trkpt><trkpt lat="43.6766758" lon="10.6361149"><ele>13.0</ele><time>2026-04-19T13:53:22.946Z</time></trkpt><trkpt lat="43.6767223" lon="10.6364409"><ele>13.0</ele><time>2026-04-19T13:53:23.946Z</time></trkpt><trkpt lat="43.6767705" lon="10.6367782"><ele>13.0</ele><time>2026-04-19T13:53:24.947Z</time></trkpt><trkpt lat="43.6768177" lon="10.6371115"><ele>13.5</ele><time>2026-04-19T13:53:25.946Z</time></trkpt><trkpt lat="43.6768626" lon="10.6374294"><ele>14.0</ele><time>2026-04-19T13:53:26.946Z</time></trkpt><trkpt lat="43.6769064" lon="10.6377377"><ele>15.666666666666668</ele><time>2026-04-19T13:53:27.947Z</time></trkpt><trkpt lat="43.6769477" lon="10.6380334"><ele>17.333333333333332</ele><time>2026-04-19T13:53:28.946Z</time></trkpt><trkpt lat="43.6769883" lon="10.6383251"><ele>19.0</ele><time>2026-04-19T13:53:29.946Z</time></trkpt><trkpt lat="43.6770267" lon="10.638606"><ele>18.0</ele><time>2026-04-19T13:53:30.946Z</time></trkpt><trkpt lat="43.6770648" lon="10.6388754"><ele>17.0</ele><time>2026-04-19T13:53:31.946Z</time></trkpt><trkpt lat="43.6771014" lon="10.6391407"><ele>16.0</ele><time>2026-04-19T13:53:32.946Z</time></trkpt><trkpt lat="43.6771346" lon="10.6394053"><ele>15.666666666666666</ele><time>2026-04-19T13:53:33.946Z</time></trkpt><trkpt lat="43.6771606" lon="10.6396719"><ele>15.333333333333332</ele><time>2026-04-19T13:53:34.946Z</time></trkpt><trkpt lat="43.6771796" lon="10.639942"><ele>15.0</ele><time>2026-04-19T13:53:35.947Z</time></trkpt><trkpt lat="43.6771886" lon="10.6402167"><ele>15.666666666666668</ele><time>2026-04-19T13:53:36.946Z</time></trkpt><trkpt lat="43.6771855" lon="10.6404856"><ele>16.333333333333336</ele><time>2026-04-19T13:53:37.946Z</time></trkpt><trkpt lat="43.6771679" lon="10.6407529"><ele>17.0</ele><time>2026-04-19T13:53:38.946Z</time></trkpt><trkpt lat="43.6771372" lon="10.6410193"><ele>17.333333333333336</ele><time>2026-04-19T13:53:39.946Z</time></trkpt><trkpt lat="43.6770928" lon="10.6412804"><ele>17.666666666666668</ele><time>2026-04-19T13:53:40.946Z</time></trkpt><trkpt lat="43.6770361" lon="10.6415351"><ele>18.0</ele><time>2026-04-19T13:53:41.946Z</time></trkpt><trkpt lat="43.6769683" lon="10.6417789"><ele>18.666666666666668</ele><time>2026-04-19T13:53:42.947Z</time></trkpt><trkpt lat="43.6768872" lon="10.6420174"><ele>19.333333333333336</ele><time>2026-04-19T13:53:43.947Z</time></trkpt><trkpt lat="43.6767942" lon="10.6422469"><ele>20.0</ele><time>2026-04-19T13:53:44.946Z</time></trkpt><trkpt lat="43.6766894" lon="10.6424691"><ele>20.0</ele><time>2026-04-19T13:53:45.946Z</time></trkpt><trkpt lat="43.676574" lon="10.6426747"><ele>20.0</ele><time>2026-04-19T13:53:46.947Z</time></trkpt><trkpt lat="43.6764529" lon="10.6428562"><ele>20.0</ele><time>2026-04-19T13:53:47.946Z</time></trkpt><trkpt lat="43.6763362" lon="10.6430124"><ele>18.75</ele><time>2026-04-19T13:53:48.946Z</time></trkpt><trkpt lat="43.6762245" lon="10.6431484"><ele>17.5</ele><time>2026-04-19T13:53:49.946Z</time></trkpt><trkpt lat="43.6761216" lon="10.6432657"><ele>16.25</ele><time>2026-04-19T13:53:50.946Z</time></trkpt><trkpt lat="43.6760249" lon="10.6433693"><ele>15.0</ele><time>2026-04-19T13:53:51.946Z</time></trkpt><trkpt lat="43.6759355" lon="10.6434554"><ele>15.0</ele><time>2026-04-19T13:53:52.946Z</time></trkpt><trkpt lat="43.6758462" lon="10.6435284"><ele>15.0</ele><time>2026-04-19T13:53:53.947Z</time></trkpt><trkpt lat="43.6757546" lon="10.6435779"><ele>15.0</ele><time>2026-04-19T13:53:54.946Z</time></trkpt><trkpt lat="43.6756535" lon="10.6436024"><ele>15.0</ele><time>2026-04-19T13:53:55.946Z</time></trkpt><trkpt lat="43.6755497" lon="10.6436121"><ele>15.0</ele><time>2026-04-19T13:53:56.946Z</time></trkpt><trkpt lat="43.6754476" lon="10.6436158"><ele>15.0</ele><time>2026-04-19T13:53:57.947Z</time></trkpt><trkpt lat="43.6753485" lon="10.643598"><ele>15.0</ele><time>2026-04-19T13:53:58.946Z</time></trkpt><trkpt lat="43.6752499" lon="10.6435485"><ele>15.0</ele><time>2026-04-19T13:53:59.946Z</time></trkpt><trkpt lat="43.6751508" lon="10.6434782"><ele>15.0</ele><time>2026-04-19T13:54:00.946Z</time></trkpt><trkpt lat="43.6750481" lon="10.6434003"><ele>15.0</ele><time>2026-04-19T13:54:01.946Z</time></trkpt><trkpt lat="43.6749493" lon="10.6433183"><ele>15.25</ele><time>2026-04-19T13:54:02.946Z</time></trkpt><trkpt lat="43.6748501" lon="10.6432364"><ele>15.5</ele><time>2026-04-19T13:54:03.946Z</time></trkpt><trkpt lat="43.6747447" lon="10.6431715"><ele>15.75</ele><time>2026-04-19T13:54:04.946Z</time></trkpt><trkpt lat="43.6746289" lon="10.6431196"><ele>16.0</ele><time>2026-04-19T13:54:05.946Z</time></trkpt><trkpt lat="43.6745029" lon="10.6430808"><ele>16.25</ele><time>2026-04-19T13:54:06.946Z</time></trkpt><trkpt lat="43.6743679" lon="10.6430572"><ele>16.5</ele><time>2026-04-19T13:54:07.946Z</time></trkpt><trkpt lat="43.6742326" lon="10.643043"><ele>16.75</ele><time>2026-04-19T13:54:08.946Z</time></trkpt><trkpt lat="43.6740988" lon="10.6430313"><ele>17.0</ele><time>2026-04-19T13:54:09.946Z</time></trkpt><trkpt lat="43.6739676" lon="10.6430187"><ele>17.0</ele><time>2026-04-19T13:54:10.946Z</time></trkpt><trkpt lat="43.6738315" lon="10.6430063"><ele>17.0</ele><time>2026-04-19T13:54:11.947Z</time></trkpt><trkpt lat="43.6736924" lon="10.6429934"><ele>17.0</ele><time>2026-04-19T13:54:12.946Z</time></trkpt><trkpt lat="43.6735591" lon="10.6429811"><ele>17.0</ele><time>2026-04-19T13:54:13.946Z</time></trkpt><trkpt lat="43.6734251" lon="10.6429662"><ele>17.25</ele><time>2026-04-19T13:54:14.946Z</time></trkpt><trkpt lat="43.6732943" lon="10.6429567"><ele>17.5</ele><time>2026-04-19T13:54:15.946Z</time></trkpt><trkpt lat="43.6731615" lon="10.6429467"><ele>17.75</ele><time>2026-04-19T13:54:16.946Z</time></trkpt><trkpt lat="43.6730306" lon="10.6429347"><ele>18.0</ele><time>2026-04-19T13:54:17.946Z</time></trkpt><trkpt lat="43.6729023" lon="10.6429227"><ele>18.0</ele><time>2026-04-19T13:54:18.946Z</time></trkpt><trkpt lat="43.6727737" lon="10.642911"><ele>18.0</ele><time>2026-04-19T13:54:19.946Z</time></trkpt><trkpt lat="43.6726557" lon="10.6428987"><ele>18.0</ele><time>2026-04-19T13:54:20.946Z</time></trkpt><trkpt lat="43.6725378" lon="10.6428858"><ele>18.0</ele><time>2026-04-19T13:54:21.946Z</time></trkpt><trkpt lat="43.6724207" lon="10.6428744"><ele>17.25</ele><time>2026-04-19T13:54:22.946Z</time></trkpt><trkpt lat="43.6723016" lon="10.6428634"><ele>16.5</ele><time>2026-04-19T13:54:23.946Z</time></trkpt><trkpt lat="43.6721826" lon="10.6428514"><ele>15.75</ele><time>2026-04-19T13:54:24.946Z</time></trkpt><trkpt lat="43.6720597" lon="10.6428412"><ele>15.0</ele><time>2026-04-19T13:54:25.947Z</time></trkpt><trkpt lat="43.6719358" lon="10.6428292"><ele>14.75</ele><time>2026-04-19T13:54:26.946Z</time></trkpt><trkpt lat="43.6718131" lon="10.6428185"><ele>14.5</ele><time>2026-04-19T13:54:27.947Z</time></trkpt><trkpt lat="43.6716941" lon="10.6428102"><ele>14.25</ele><time>2026-04-19T13:54:28.946Z</time></trkpt><trkpt lat="43.6715793" lon="10.6427979"><ele>14.0</ele><time>2026-04-19T13:54:29.946Z</time></trkpt><trkpt lat="43.6714692" lon="10.6427859"><ele>14.6</ele><time>2026-04-19T13:54:30.946Z</time></trkpt><trkpt lat="43.6713659" lon="10.6427764"><ele>15.2</ele><time>2026-04-19T13:54:31.946Z</time></trkpt><trkpt lat="43.6712668" lon="10.6427635"><ele>15.799999999999999</ele><time>2026-04-19T13:54:32.946Z</time></trkpt><trkpt lat="43.6711786" lon="10.6427545"><ele>16.4</ele><time>2026-04-19T13:54:33.946Z</time></trkpt><trkpt lat="43.6710964" lon="10.6427459"><ele>17.0</ele><time>2026-04-19T13:54:34.946Z</time></trkpt><trkpt lat="43.6710203" lon="10.6427362"><ele>16.999999999999996</ele><time>2026-04-19T13:54:35.946Z</time></trkpt><trkpt lat="43.6709506" lon="10.6427212"><ele>17.0</ele><time>2026-04-19T13:54:36.946Z</time></trkpt><trkpt lat="43.670887" lon="10.6426948"><ele>17.0</ele><time>2026-04-19T13:54:37.946Z</time></trkpt><trkpt lat="43.6708224" lon="10.6426617"><ele>17.0</ele><time>2026-04-19T13:54:38.946Z</time></trkpt><trkpt lat="43.6707541" lon="10.6426363"><ele>17.0</ele><time>2026-04-19T13:54:39.946Z</time></trkpt><trkpt lat="43.6706784" lon="10.6426261"><ele>16.999999999999996</ele><time>2026-04-19T13:54:40.946Z</time></trkpt><trkpt lat="43.6705986" lon="10.6426308"><ele>17.0</ele><time>2026-04-19T13:54:41.946Z</time></trkpt><trkpt lat="43.6705151" lon="10.6426406"><ele>17.0</ele><time>2026-04-19T13:54:42.947Z</time></trkpt><trkpt lat="43.6704279" lon="10.6426478"><ele>17.0</ele><time>2026-04-19T13:54:43.946Z</time></trkpt><trkpt lat="43.6703322" lon="10.64265"><ele>17.0</ele><time>2026-04-19T13:54:44.946Z</time></trkpt><trkpt lat="43.670227" lon="10.6426456"><ele>17.0</ele><time>2026-04-19T13:54:45.946Z</time></trkpt><trkpt lat="43.6701159" lon="10.6426377"><ele>17.0</ele><time>2026-04-19T13:54:46.946Z</time></trkpt><trkpt lat="43.6700077" lon="10.6426298"><ele>17.2</ele><time>2026-04-19T13:54:47.946Z</time></trkpt><trkpt lat="43.6698963" lon="10.6426204"><ele>17.4</ele><time>2026-04-19T13:54:48.946Z</time></trkpt><trkpt lat="43.6697871" lon="10.6426094"><ele>17.6</ele><time>2026-04-19T13:54:49.947Z</time></trkpt><trkpt lat="43.6696793" lon="10.6425992"><ele>17.8</ele><time>2026-04-19T13:54:50.946Z</time></trkpt><trkpt lat="43.6695755" lon="10.6425884"><ele>18.0</ele><time>2026-04-19T13:54:51.946Z</time></trkpt><trkpt lat="43.6694793" lon="10.6425776"><ele>17.8</ele><time>2026-04-19T13:54:52.947Z</time></trkpt><trkpt lat="43.6693884" lon="10.6425678"><ele>17.6</ele><time>2026-04-19T13:54:53.946Z</time></trkpt><trkpt lat="43.6693012" lon="10.6425628"><ele>17.4</ele><time>2026-04-19T13:54:54.946Z</time></trkpt><trkpt lat="43.6692109" lon="10.6425541"><ele>17.2</ele><time>2026-04-19T13:54:55.946Z</time></trkpt><trkpt lat="43.6691175" lon="10.642544"><ele>17.0</ele><time>2026-04-19T13:54:56.946Z</time></trkpt><trkpt lat="43.6690231" lon="10.6425354"><ele>17.0</ele><time>2026-04-19T13:54:57.946Z</time></trkpt><trkpt lat="43.6689297" lon="10.6425245"><ele>17.0</ele><time>2026-04-19T13:54:58.946Z</time></trkpt><trkpt lat="43.6688357" lon="10.6425135"><ele>17.0</ele><time>2026-04-19T13:54:59.946Z</time></trkpt><trkpt lat="43.6687387" lon="10.6425001"><ele>17.0</ele><time>2026-04-19T13:55:00.946Z</time></trkpt><trkpt lat="43.6686386" lon="10.6424874"><ele>17.0</ele><time>2026-04-19T13:55:01.946Z</time></trkpt><trkpt lat="43.6685347" lon="10.6424746"><ele>16.8</ele><time>2026-04-19T13:55:02.946Z</time></trkpt><trkpt lat="43.6684299" lon="10.6424629"><ele>16.6</ele><time>2026-04-19T13:55:03.946Z</time></trkpt><trkpt lat="43.6683283" lon="10.6424534"><ele>16.400000000000002</ele><time>2026-04-19T13:55:04.946Z</time></trkpt><trkpt lat="43.6682216" lon="10.6424423"><ele>16.2</ele><time>2026-04-19T13:55:05.946Z</time></trkpt><trkpt lat="43.6681154" lon="10.642431"><ele>16.0</ele><time>2026-04-19T13:55:06.946Z</time></trkpt><trkpt lat="43.6680085" lon="10.6424197"><ele>16.0</ele><time>2026-04-19T13:55:07.946Z</time></trkpt><trkpt lat="43.6679034" lon="10.6424093"><ele>16.0</ele><time>2026-04-19T13:55:08.946Z</time></trkpt><trkpt lat="43.6677977" lon="10.6423979"><ele>16.0</ele><time>2026-04-19T13:55:09.946Z</time></trkpt><trkpt lat="43.6676923" lon="10.642385"><ele>16.0</ele><time>2026-04-19T13:55:10.947Z</time></trkpt><trkpt lat="43.6675888" lon="10.6423669"><ele>16.0</ele><time>2026-04-19T13:55:11.946Z</time></trkpt><trkpt lat="43.6674873" lon="10.642349"><ele>16.166666666666664</ele><time>2026-04-19T13:55:12.946Z</time></trkpt><trkpt lat="43.6673904" lon="10.6423339"><ele>16.333333333333332</ele><time>2026-04-19T13:55:13.947Z</time></trkpt><trkpt lat="43.6672985" lon="10.6423191"><ele>16.5</ele><time>2026-04-19T13:55:14.946Z</time></trkpt><trkpt lat="43.6672127" lon="10.6423043"><ele>16.666666666666668</ele><time>2026-04-19T13:55:15.946Z</time></trkpt><trkpt lat="43.667129" lon="10.6422868"><ele>16.833333333333336</ele><time>2026-04-19T13:55:16.946Z</time></trkpt><trkpt lat="43.6670566" lon="10.6422618"><ele>17.0</ele><time>2026-04-19T13:55:17.946Z</time></trkpt><trkpt lat="43.6669934" lon="10.6422272"><ele>17.0</ele><time>2026-04-19T13:55:18.946Z</time></trkpt><trkpt lat="43.6668967" lon="10.64213"><ele>17.0</ele><time>2026-04-19T13:55:20.946Z</time></trkpt><trkpt lat="43.6667875" lon="10.6420729"><ele>17.0</ele><time>2026-04-19T13:55:22.946Z</time></trkpt><trkpt lat="43.6666759" lon="10.6421397"><ele>17.0</ele><time>2026-04-19T13:55:24.946Z</time></trkpt><trkpt lat="43.6666128" lon="10.6421923"><ele>17.0</ele><time>2026-04-19T13:55:25.946Z</time></trkpt><trkpt lat="43.6665409" lon="10.6422336"><ele>17.0</ele><time>2026-04-19T13:55:26.946Z</time></trkpt><trkpt lat="43.6664601" lon="10.6422612"><ele>17.0</ele><time>2026-04-19T13:55:27.946Z</time></trkpt><trkpt lat="43.6663667" lon="10.6422682"><ele>17.0</ele><time>2026-04-19T13:55:28.946Z</time></trkpt><trkpt lat="43.6662614" lon="10.6422636"><ele>17.0</ele><time>2026-04-19T13:55:29.947Z</time></trkpt><trkpt lat="43.6661575" lon="10.642255"><ele>17.0</ele><time>2026-04-19T13:55:30.946Z</time></trkpt><trkpt lat="43.6660531" lon="10.6422479"><ele>17.2</ele><time>2026-04-19T13:55:31.946Z</time></trkpt><trkpt lat="43.6659457" lon="10.6422402"><ele>17.4</ele><time>2026-04-19T13:55:32.947Z</time></trkpt><trkpt lat="43.6658338" lon="10.6422285"><ele>17.6</ele><time>2026-04-19T13:55:33.946Z</time></trkpt><trkpt lat="43.6657223" lon="10.6422094"><ele>17.8</ele><time>2026-04-19T13:55:34.947Z</time></trkpt><trkpt lat="43.66561" lon="10.6421961"><ele>18.0</ele><time>2026-04-19T13:55:35.946Z</time></trkpt><trkpt lat="43.665497" lon="10.6421758"><ele>18.0</ele><time>2026-04-19T13:55:36.946Z</time></trkpt><trkpt lat="43.665386" lon="10.6421553"><ele>18.0</ele><time>2026-04-19T13:55:37.946Z</time></trkpt><trkpt lat="43.6652758" lon="10.6421344"><ele>18.0</ele><time>2026-04-19T13:55:38.946Z</time></trkpt><trkpt lat="43.6651672" lon="10.6421138"><ele>18.0</ele><time>2026-04-19T13:55:39.946Z</time></trkpt><trkpt lat="43.6650599" lon="10.642096"><ele>18.0</ele><time>2026-04-19T13:55:40.946Z</time></trkpt><trkpt lat="43.6649596" lon="10.6420764"><ele>17.8</ele><time>2026-04-19T13:55:41.946Z</time></trkpt><trkpt lat="43.6648616" lon="10.6420574"><ele>17.6</ele><time>2026-04-19T13:55:42.946Z</time></trkpt><trkpt lat="43.6647619" lon="10.6420358"><ele>17.4</ele><time>2026-04-19T13:55:43.946Z</time></trkpt><trkpt lat="43.6646717" lon="10.6420157"><ele>17.2</ele><time>2026-04-19T13:55:44.946Z</time></trkpt><trkpt lat="43.6645885" lon="10.6420003"><ele>17.0</ele><time>2026-04-19T13:55:45.946Z</time></trkpt><trkpt lat="43.6645079" lon="10.6419827"><ele>17.0</ele><time>2026-04-19T13:55:46.946Z</time></trkpt><trkpt lat="43.6644316" lon="10.641964"><ele>17.0</ele><time>2026-04-19T13:55:47.946Z</time></trkpt><trkpt lat="43.6643561" lon="10.6419485"><ele>17.0</ele><time>2026-04-19T13:55:48.946Z</time></trkpt><trkpt lat="43.6642931" lon="10.6419374"><ele>17.0</ele><time>2026-04-19T13:55:49.946Z</time></trkpt><trkpt lat="43.664191" lon="10.6419252"><ele>17.0</ele><time>2026-04-19T13:55:51.946Z</time></trkpt><trkpt lat="43.6641244" lon="10.641916"><ele>17.0</ele><time>2026-04-19T13:55:53.946Z</time></trkpt><trkpt lat="43.6640507" lon="10.6419012"><ele>17.0</ele><time>2026-04-19T13:55:56.946Z</time></trkpt><trkpt lat="43.6639658" lon="10.6418884"><ele>17.0</ele><time>2026-04-19T13:55:58.946Z</time></trkpt><trkpt lat="43.6638658" lon="10.6418633"><ele>17.0</ele><time>2026-04-19T13:56:00.946Z</time></trkpt><trkpt lat="43.6637797" lon="10.6418136"><ele>17.0</ele><time>2026-04-19T13:56:02.946Z</time></trkpt><trkpt lat="43.6637538" lon="10.6416773"><ele>17.0</ele><time>2026-04-19T13:56:04.946Z</time></trkpt><trkpt lat="43.6637552" lon="10.6415735"><ele>17.0</ele><time>2026-04-19T13:56:05.946Z</time></trkpt><trkpt lat="43.6637583" lon="10.6414668"><ele>17.0</ele><time>2026-04-19T13:56:06.946Z</time></trkpt><trkpt lat="43.6637548" lon="10.641347"><ele>17.0</ele><time>2026-04-19T13:56:07.946Z</time></trkpt><trkpt lat="43.6637543" lon="10.6412199"><ele>17.0</ele><time>2026-04-19T13:56:08.946Z</time></trkpt><trkpt lat="43.6637539" lon="10.6411042"><ele>17.0</ele><time>2026-04-19T13:56:09.946Z</time></trkpt><trkpt lat="43.6637531" lon="10.6409987"><ele>17.0</ele><time>2026-04-19T13:56:10.946Z</time></trkpt><trkpt lat="43.6637538" lon="10.6408943"><ele>16.999999999999996</ele><time>2026-04-19T13:56:11.946Z</time></trkpt><trkpt lat="43.6637541" lon="10.6407936"><ele>17.0</ele><time>2026-04-19T13:56:12.946Z</time></trkpt><trkpt lat="43.6637547" lon="10.6406901"><ele>17.0</ele><time>2026-04-19T13:56:13.946Z</time></trkpt><trkpt lat="43.6637561" lon="10.640589"><ele>17.0</ele><time>2026-04-19T13:56:14.946Z</time></trkpt><trkpt lat="43.6637561" lon="10.6404883"><ele>17.0</ele><time>2026-04-19T13:56:15.946Z</time></trkpt><trkpt lat="43.6637548" lon="10.6403904"><ele>16.999999999999996</ele><time>2026-04-19T13:56:16.946Z</time></trkpt><trkpt lat="43.6637514" lon="10.6402903"><ele>17.0</ele><time>2026-04-19T13:56:17.946Z</time></trkpt><trkpt lat="43.663752" lon="10.6401883"><ele>16.999999999999996</ele><time>2026-04-19T13:56:18.946Z</time></trkpt><trkpt lat="43.6637514" lon="10.6400858"><ele>17.0</ele><time>2026-04-19T13:56:19.946Z</time></trkpt><trkpt lat="43.6637528" lon="10.6399813"><ele>17.0</ele><time>2026-04-19T13:56:20.946Z</time></trkpt><trkpt lat="43.663755" lon="10.6398731"><ele>17.0</ele><time>2026-04-19T13:56:21.946Z</time></trkpt><trkpt lat="43.6637524" lon="10.6397677"><ele>17.0</ele><time>2026-04-19T13:56:22.946Z</time></trkpt><trkpt lat="43.6637553" lon="10.6396745"><ele>16.999999999999996</ele><time>2026-04-19T13:56:23.947Z</time></trkpt><trkpt lat="43.663756" lon="10.6395874"><ele>17.0</ele><time>2026-04-19T13:56:24.946Z</time></trkpt><trkpt lat="43.6637636" lon="10.6394318"><ele>17.166666666666668</ele><time>2026-04-19T13:56:26.946Z</time></trkpt><trkpt lat="43.6637592" lon="10.6393009"><ele>17.333333333333336</ele><time>2026-04-19T13:56:28.947Z</time></trkpt><trkpt lat="43.663729" lon="10.6392155"><ele>17.5</ele><time>2026-04-19T13:56:30.946Z</time></trkpt><trkpt lat="43.6636659" lon="10.6391837"><ele>17.666666666666668</ele><time>2026-04-19T13:56:32.946Z</time></trkpt><trkpt lat="43.6635893" lon="10.6391768"><ele>17.833333333333332</ele><time>2026-04-19T13:56:34.946Z</time></trkpt><trkpt lat="43.6635018" lon="10.6391707"><ele>18.0</ele><time>2026-04-19T13:56:36.946Z</time></trkpt><trkpt lat="43.6634147" lon="10.6391363"><ele>18.0</ele><time>2026-04-19T13:56:38.946Z</time></trkpt><trkpt lat="43.6633511" lon="10.6390781"><ele>18.0</ele><time>2026-04-19T13:56:41.946Z</time></trkpt><trkpt lat="43.6632807" lon="10.6390029"><ele>18.0</ele><time>2026-04-19T13:56:44.946Z</time></trkpt><trkpt lat="43.6631961" lon="10.638983"><ele>18.0</ele><time>2026-04-19T13:56:46.946Z</time></trkpt><trkpt lat="43.6630752" lon="10.6389667"><ele>18.0</ele><time>2026-04-19T13:56:48.947Z</time></trkpt><trkpt lat="43.6630064" lon="10.6389587"><ele>18.0</ele><time>2026-04-19T13:56:49.946Z</time></trkpt><trkpt lat="43.6629398" lon="10.6389579"><ele>18.0</ele><time>2026-04-19T13:56:50.946Z</time></trkpt><trkpt lat="43.6628726" lon="10.6389581"><ele>18.0</ele><time>2026-04-19T13:56:51.946Z</time></trkpt><trkpt lat="43.6628053" lon="10.6389571"><ele>18.0</ele><time>2026-04-19T13:56:52.946Z</time></trkpt><trkpt lat="43.6627421" lon="10.6389597"><ele>18.0</ele><time>2026-04-19T13:56:53.947Z</time></trkpt><trkpt lat="43.6626361" lon="10.6389454"><ele>18.0</ele><time>2026-04-19T13:56:55.947Z</time></trkpt><trkpt lat="43.6625699" lon="10.6388202"><ele>18.0</ele><time>2026-04-19T13:56:57.946Z</time></trkpt><trkpt lat="43.6625557" lon="10.6386408"><ele>17.666666666666668</ele><time>2026-04-19T13:56:59.946Z</time></trkpt><trkpt lat="43.6625503" lon="10.638537"><ele>17.333333333333332</ele><time>2026-04-19T13:57:00.946Z</time></trkpt><trkpt lat="43.6625416" lon="10.6384332"><ele>17.0</ele><time>2026-04-19T13:57:01.946Z</time></trkpt><trkpt lat="43.6625339" lon="10.6383257"><ele>16.666666666666664</ele><time>2026-04-19T13:57:02.946Z</time></trkpt><trkpt lat="43.6625256" lon="10.6382132"><ele>16.333333333333332</ele><time>2026-04-19T13:57:03.946Z</time></trkpt><trkpt lat="43.6625187" lon="10.638097"><ele>16.0</ele><time>2026-04-19T13:57:04.947Z</time></trkpt><trkpt lat="43.6625109" lon="10.6379813"><ele>15.999999999999998</ele><time>2026-04-19T13:57:05.946Z</time></trkpt><trkpt lat="43.6625031" lon="10.6378676"><ele>16.0</ele><time>2026-04-19T13:57:06.946Z</time></trkpt><trkpt lat="43.662495" lon="10.637757"><ele>16.0</ele><time>2026-04-19T13:57:07.946Z</time></trkpt><trkpt lat="43.662489" lon="10.6376516"><ele>16.0</ele><time>2026-04-19T13:57:08.946Z</time></trkpt><trkpt lat="43.6624839" lon="10.6375399"><ele>15.999999999999998</ele><time>2026-04-19T13:57:09.946Z</time></trkpt><trkpt lat="43.6624832" lon="10.6374335"><ele>16.0</ele><time>2026-04-19T13:57:10.946Z</time></trkpt><trkpt lat="43.6624837" lon="10.6373265"><ele>15.999999999999998</ele><time>2026-04-19T13:57:11.946Z</time></trkpt><trkpt lat="43.6624843" lon="10.6372141"><ele>16.0</ele><time>2026-04-19T13:57:12.946Z</time></trkpt><trkpt lat="43.6624864" lon="10.6371003"><ele>16.0</ele><time>2026-04-19T13:57:13.946Z</time></trkpt><trkpt lat="43.662486" lon="10.6369823"><ele>16.0</ele><time>2026-04-19T13:57:14.946Z</time></trkpt><trkpt lat="43.6624865" lon="10.6368535"><ele>15.999999999999998</ele><time>2026-04-19T13:57:15.946Z</time></trkpt><trkpt lat="43.6624932" lon="10.636721"><ele>16.0</ele><time>2026-04-19T13:57:16.946Z</time></trkpt><trkpt lat="43.6624973" lon="10.6365845"><ele>16.0</ele><time>2026-04-19T13:57:17.946Z</time></trkpt><trkpt lat="43.6624957" lon="10.6364473"><ele>16.0</ele><time>2026-04-19T13:57:18.946Z</time></trkpt><trkpt lat="43.6624967" lon="10.6363082"><ele>16.0</ele><time>2026-04-19T13:57:19.946Z</time></trkpt><trkpt lat="43.6624985" lon="10.6361719"><ele>16.0</ele><time>2026-04-19T13:57:20.946Z</time></trkpt><trkpt lat="43.6624996" lon="10.6360433"><ele>16.0</ele><time>2026-04-19T13:57:21.947Z</time></trkpt><trkpt lat="43.6625001" lon="10.6359227"><ele>16.166666666666664</ele><time>2026-04-19T13:57:22.946Z</time></trkpt><trkpt lat="43.6625032" lon="10.6358073"><ele>16.333333333333332</ele><time>2026-04-19T13:57:23.946Z</time></trkpt><trkpt lat="43.6625096" lon="10.6356963"><ele>16.5</ele><time>2026-04-19T13:57:24.946Z</time></trkpt><trkpt lat="43.662515" lon="10.6355811"><ele>16.666666666666668</ele><time>2026-04-19T13:57:25.946Z</time></trkpt><trkpt lat="43.6625159" lon="10.6354655"><ele>16.833333333333336</ele><time>2026-04-19T13:57:26.946Z</time></trkpt><trkpt lat="43.6625245" lon="10.6353546"><ele>17.0</ele><time>2026-04-19T13:57:27.946Z</time></trkpt><trkpt lat="43.6625308" lon="10.6352415"><ele>17.0</ele><time>2026-04-19T13:57:28.946Z</time></trkpt><trkpt lat="43.6625363" lon="10.6351254"><ele>17.0</ele><time>2026-04-19T13:57:29.946Z</time></trkpt><trkpt lat="43.662538" lon="10.6350118"><ele>17.0</ele><time>2026-04-19T13:57:30.946Z</time></trkpt><trkpt lat="43.6625423" lon="10.6349044"><ele>17.0</ele><time>2026-04-19T13:57:31.946Z</time></trkpt><trkpt lat="43.6625466" lon="10.634804"><ele>17.0</ele><time>2026-04-19T13:57:32.946Z</time></trkpt><trkpt lat="43.66255" lon="10.6347083"><ele>17.0</ele><time>2026-04-19T13:57:33.946Z</time></trkpt><trkpt lat="43.66256" lon="10.6346169"><ele>17.2</ele><time>2026-04-19T13:57:34.946Z</time></trkpt><trkpt lat="43.6625781" lon="10.6344498"><ele>17.4</ele><time>2026-04-19T13:57:36.946Z</time></trkpt><trkpt lat="43.6625941" lon="10.6342772"><ele>17.6</ele><time>2026-04-19T13:57:38.946Z</time></trkpt><trkpt lat="43.6625966" lon="10.6341861"><ele>17.8</ele><time>2026-04-19T13:57:39.946Z</time></trkpt><trkpt lat="43.6626099" lon="10.6340154"><ele>18.0</ele><time>2026-04-19T13:57:41.946Z</time></trkpt><trkpt lat="43.6626104" lon="10.633926"><ele>18.0</ele><time>2026-04-19T13:57:42.946Z</time></trkpt><trkpt lat="43.6626137" lon="10.6338267"><ele>18.0</ele><time>2026-04-19T13:57:43.946Z</time></trkpt><trkpt lat="43.662622" lon="10.6337188"><ele>18.0</ele><time>2026-04-19T13:57:44.946Z</time></trkpt><trkpt lat="43.662627" lon="10.6336052"><ele>18.0</ele><time>2026-04-19T13:57:45.946Z</time></trkpt><trkpt lat="43.6626354" lon="10.6334929"><ele>18.0</ele><time>2026-04-19T13:57:46.946Z</time></trkpt><trkpt lat="43.6626387" lon="10.6333804"><ele>18.0</ele><time>2026-04-19T13:57:47.946Z</time></trkpt><trkpt lat="43.6626402" lon="10.6332704"><ele>18.0</ele><time>2026-04-19T13:57:48.946Z</time></trkpt><trkpt lat="43.6626392" lon="10.6331612"><ele>18.0</ele><time>2026-04-19T13:57:49.946Z</time></trkpt><trkpt lat="43.6626423" lon="10.6330534"><ele>18.0</ele><time>2026-04-19T13:57:50.946Z</time></trkpt><trkpt lat="43.6626426" lon="10.6329396"><ele>18.0</ele><time>2026-04-19T13:57:51.946Z</time></trkpt><trkpt lat="43.6626541" lon="10.6328277"><ele>18.0</ele><time>2026-04-19T13:57:52.946Z</time></trkpt><trkpt lat="43.6626606" lon="10.6327043"><ele>18.0</ele><time>2026-04-19T13:57:53.947Z</time></trkpt><trkpt lat="43.6626698" lon="10.6325649"><ele>17.8</ele><time>2026-04-19T13:57:54.946Z</time></trkpt><trkpt lat="43.6626825" lon="10.6324215"><ele>17.6</ele><time>2026-04-19T13:57:55.946Z</time></trkpt><trkpt lat="43.6626927" lon="10.6322833"><ele>17.4</ele><time>2026-04-19T13:57:56.946Z</time></trkpt><trkpt lat="43.6627003" lon="10.6321416"><ele>17.2</ele><time>2026-04-19T13:57:57.946Z</time></trkpt><trkpt lat="43.6627103" lon="10.6320068"><ele>17.0</ele><time>2026-04-19T13:57:58.946Z</time></trkpt><trkpt lat="43.662717" lon="10.6318735"><ele>16.6</ele><time>2026-04-19T13:57:59.946Z</time></trkpt><trkpt lat="43.6627208" lon="10.6317391"><ele>16.2</ele><time>2026-04-19T13:58:00.946Z</time></trkpt><trkpt lat="43.6627228" lon="10.6316037"><ele>15.8</ele><time>2026-04-19T13:58:01.946Z</time></trkpt><trkpt lat="43.6627245" lon="10.6314655"><ele>15.4</ele><time>2026-04-19T13:58:02.946Z</time></trkpt><trkpt lat="43.6627278" lon="10.6313241"><ele>15.0</ele><time>2026-04-19T13:58:03.946Z</time></trkpt><trkpt lat="43.6627337" lon="10.6311831"><ele>15.2</ele><time>2026-04-19T13:58:04.946Z</time></trkpt><trkpt lat="43.6627434" lon="10.6310446"><ele>15.4</ele><time>2026-04-19T13:58:05.946Z</time></trkpt><trkpt lat="43.6627435" lon="10.6309084"><ele>15.600000000000001</ele><time>2026-04-19T13:58:06.947Z</time></trkpt><trkpt lat="43.6627441" lon="10.6307724"><ele>15.8</ele><time>2026-04-19T13:58:07.947Z</time></trkpt><trkpt lat="43.662748" lon="10.6306278"><ele>16.0</ele><time>2026-04-19T13:58:08.946Z</time></trkpt><trkpt lat="43.6627512" lon="10.6304844"><ele>16.0</ele><time>2026-04-19T13:58:09.946Z</time></trkpt><trkpt lat="43.6627523" lon="10.6303486"><ele>16.0</ele><time>2026-04-19T13:58:10.946Z</time></trkpt><trkpt lat="43.6627571" lon="10.6302176"><ele>16.0</ele><time>2026-04-19T13:58:11.947Z</time></trkpt><trkpt lat="43.6627593" lon="10.630095"><ele>16.0</ele><time>2026-04-19T13:58:12.946Z</time></trkpt><trkpt lat="43.6627785" lon="10.6299769"><ele>16.0</ele><time>2026-04-19T13:58:13.946Z</time></trkpt><trkpt lat="43.6627795" lon="10.6298648"><ele>16.0</ele><time>2026-04-19T13:58:14.946Z</time></trkpt><trkpt lat="43.6627772" lon="10.6297613"><ele>16.0</ele><time>2026-04-19T13:58:15.946Z</time></trkpt><trkpt lat="43.6627681" lon="10.6296101"><ele>16.0</ele><time>2026-04-19T13:58:17.946Z</time></trkpt><trkpt lat="43.6627141" lon="10.629518"><ele>16.0</ele><time>2026-04-19T13:58:19.946Z</time></trkpt><trkpt lat="43.6626214" lon="10.6294799"><ele>16.0</ele><time>2026-04-19T13:58:21.946Z</time></trkpt><trkpt lat="43.6625309" lon="10.62947"><ele>15.999999999999998</ele><time>2026-04-19T13:58:23.946Z</time></trkpt><trkpt lat="43.6624501" lon="10.6295258"><ele>16.0</ele><time>2026-04-19T13:58:25.946Z</time></trkpt><trkpt lat="43.6624003" lon="10.6296561"><ele>16.0</ele><time>2026-04-19T13:58:27.946Z</time></trkpt><trkpt lat="43.6623823" lon="10.6297408"><ele>16.0</ele><time>2026-04-19T13:58:28.946Z</time></trkpt><trkpt lat="43.6623631" lon="10.6298296"><ele>15.999999999999998</ele><time>2026-04-19T13:58:29.946Z</time></trkpt><trkpt lat="43.6623448" lon="10.6299227"><ele>16.0</ele><time>2026-04-19T13:58:30.946Z</time></trkpt><trkpt lat="43.6623243" lon="10.6300255"><ele>15.999999999999998</ele><time>2026-04-19T13:58:31.946Z</time></trkpt><trkpt lat="43.6623038" lon="10.6301296"><ele>16.0</ele><time>2026-04-19T13:58:32.946Z</time></trkpt><trkpt lat="43.6622822" lon="10.630232"><ele>16.0</ele><time>2026-04-19T13:58:33.946Z</time></trkpt><trkpt lat="43.6622578" lon="10.6303466"><ele>16.0</ele><time>2026-04-19T13:58:34.946Z</time></trkpt><trkpt lat="43.6622317" lon="10.6304752"><ele>15.999999999999998</ele><time>2026-04-19T13:58:35.946Z</time></trkpt><trkpt lat="43.6622047" lon="10.6306068"><ele>16.0</ele><time>2026-04-19T13:58:36.946Z</time></trkpt><trkpt lat="43.6621784" lon="10.6307343"><ele>16.0</ele><time>2026-04-19T13:58:37.946Z</time></trkpt><trkpt lat="43.6621562" lon="10.6308606"><ele>16.0</ele><time>2026-04-19T13:58:38.946Z</time></trkpt><trkpt lat="43.6621328" lon="10.6309901"><ele>16.0</ele><time>2026-04-19T13:58:39.946Z</time></trkpt><trkpt lat="43.6621118" lon="10.6311277"><ele>16.0</ele><time>2026-04-19T13:58:40.946Z</time></trkpt><trkpt lat="43.6620925" lon="10.6312785"><ele>16.0</ele><time>2026-04-19T13:58:41.946Z</time></trkpt><trkpt lat="43.66207" lon="10.6314383"><ele>15.75</ele><time>2026-04-19T13:58:42.947Z</time></trkpt><trkpt lat="43.6620472" lon="10.6316005"><ele>15.5</ele><time>2026-04-19T13:58:43.946Z</time></trkpt><trkpt lat="43.6620266" lon="10.6317609"><ele>15.25</ele><time>2026-04-19T13:58:44.946Z</time></trkpt><trkpt lat="43.6620051" lon="10.631918"><ele>15.0</ele><time>2026-04-19T13:58:45.946Z</time></trkpt><trkpt lat="43.6619893" lon="10.6320737"><ele>15.4</ele><time>2026-04-19T13:58:46.946Z</time></trkpt><trkpt lat="43.6619695" lon="10.6322252"><ele>15.8</ele><time>2026-04-19T13:58:47.946Z</time></trkpt><trkpt lat="43.6619499" lon="10.6323765"><ele>16.2</ele><time>2026-04-19T13:58:48.946Z</time></trkpt><trkpt lat="43.6619302" lon="10.6325293"><ele>16.6</ele><time>2026-04-19T13:58:49.946Z</time></trkpt><trkpt lat="43.6619118" lon="10.632681"><ele>17.0</ele><time>2026-04-19T13:58:50.947Z</time></trkpt><trkpt lat="43.6618919" lon="10.6328329"><ele>17.0</ele><time>2026-04-19T13:58:51.946Z</time></trkpt><trkpt lat="43.6618686" lon="10.6329938"><ele>17.0</ele><time>2026-04-19T13:58:52.946Z</time></trkpt><trkpt lat="43.6618481" lon="10.6331656"><ele>17.0</ele><time>2026-04-19T13:58:53.947Z</time></trkpt><trkpt lat="43.6618223" lon="10.6333425"><ele>17.0</ele><time>2026-04-19T13:58:54.946Z</time></trkpt><trkpt lat="43.661797" lon="10.6335169"><ele>16.75</ele><time>2026-04-19T13:58:55.946Z</time></trkpt><trkpt lat="43.6617695" lon="10.6336824"><ele>16.5</ele><time>2026-04-19T13:58:56.946Z</time></trkpt><trkpt lat="43.6617417" lon="10.6338436"><ele>16.25</ele><time>2026-04-19T13:58:57.946Z</time></trkpt><trkpt lat="43.6617134" lon="10.6339986"><ele>16.0</ele><time>2026-04-19T13:58:58.947Z</time></trkpt><trkpt lat="43.6616827" lon="10.6341485"><ele>16.0</ele><time>2026-04-19T13:58:59.946Z</time></trkpt><trkpt lat="43.6616539" lon="10.6343025"><ele>16.0</ele><time>2026-04-19T13:59:00.946Z</time></trkpt><trkpt lat="43.6616276" lon="10.6344589"><ele>16.0</ele><time>2026-04-19T13:59:01.946Z</time></trkpt><trkpt lat="43.6616043" lon="10.6346224"><ele>16.0</ele><time>2026-04-19T13:59:02.946Z</time></trkpt><trkpt lat="43.6615827" lon="10.6347912"><ele>15.75</ele><time>2026-04-19T13:59:03.946Z</time></trkpt><trkpt lat="43.6615619" lon="10.6349572"><ele>15.5</ele><time>2026-04-19T13:59:04.946Z</time></trkpt><trkpt lat="43.6615413" lon="10.6351193"><ele>15.25</ele><time>2026-04-19T13:59:05.946Z</time></trkpt><trkpt lat="43.6615199" lon="10.6352834"><ele>15.0</ele><time>2026-04-19T13:59:06.946Z</time></trkpt><trkpt lat="43.6615006" lon="10.6354511"><ele>15.5</ele><time>2026-04-19T13:59:07.946Z</time></trkpt><trkpt lat="43.6614821" lon="10.6356252"><ele>16.0</ele><time>2026-04-19T13:59:08.946Z</time></trkpt><trkpt lat="43.6614648" lon="10.635799"><ele>16.5</ele><time>2026-04-19T13:59:09.946Z</time></trkpt><trkpt lat="43.6614457" lon="10.6359757"><ele>17.0</ele><time>2026-04-19T13:59:10.946Z</time></trkpt><trkpt lat="43.6614249" lon="10.6361498"><ele>17.25</ele><time>2026-04-19T13:59:11.946Z</time></trkpt><trkpt lat="43.6614033" lon="10.636314"><ele>17.5</ele><time>2026-04-19T13:59:12.946Z</time></trkpt><trkpt lat="43.661384" lon="10.6364795"><ele>17.75</ele><time>2026-04-19T13:59:13.946Z</time></trkpt><trkpt lat="43.6613647" lon="10.636637"><ele>18.0</ele><time>2026-04-19T13:59:14.946Z</time></trkpt><trkpt lat="43.6613457" lon="10.6367934"><ele>18.0</ele><time>2026-04-19T13:59:15.946Z</time></trkpt><trkpt lat="43.6613258" lon="10.6369569"><ele>18.0</ele><time>2026-04-19T13:59:16.947Z</time></trkpt><trkpt lat="43.6613053" lon="10.6371165"><ele>18.0</ele><time>2026-04-19T13:59:17.947Z</time></trkpt><trkpt lat="43.6612852" lon="10.6372714"><ele>18.0</ele><time>2026-04-19T13:59:18.946Z</time></trkpt><trkpt lat="43.6612676" lon="10.6374098"><ele>18.0</ele><time>2026-04-19T13:59:19.946Z</time></trkpt><trkpt lat="43.6612513" lon="10.6375379"><ele>18.0</ele><time>2026-04-19T13:59:20.947Z</time></trkpt><trkpt lat="43.6612351" lon="10.6376576"><ele>18.0</ele><time>2026-04-19T13:59:21.946Z</time></trkpt><trkpt lat="43.6612188" lon="10.6377811"><ele>18.0</ele><time>2026-04-19T13:59:22.946Z</time></trkpt><trkpt lat="43.6612042" lon="10.6379045"><ele>18.0</ele><time>2026-04-19T13:59:23.947Z</time></trkpt><trkpt lat="43.6611875" lon="10.6380194"><ele>18.0</ele><time>2026-04-19T13:59:24.946Z</time></trkpt><trkpt lat="43.6611732" lon="10.6381285"><ele>18.0</ele><time>2026-04-19T13:59:25.946Z</time></trkpt><trkpt lat="43.6611605" lon="10.6382348"><ele>18.0</ele><time>2026-04-19T13:59:26.947Z</time></trkpt><trkpt lat="43.6611484" lon="10.6383443"><ele>18.0</ele><time>2026-04-19T13:59:27.946Z</time></trkpt><trkpt lat="43.6611373" lon="10.6384524"><ele>18.0</ele><time>2026-04-19T13:59:28.947Z</time></trkpt><trkpt lat="43.6611278" lon="10.6385582"><ele>18.0</ele><time>2026-04-19T13:59:29.947Z</time></trkpt><trkpt lat="43.6611217" lon="10.6386539"><ele>18.0</ele><time>2026-04-19T13:59:30.946Z</time></trkpt><trkpt lat="43.6611062" lon="10.6387996"><ele>18.0</ele><time>2026-04-19T13:59:32.946Z</time></trkpt><trkpt lat="43.6610697" lon="10.6388997"><ele>18.0</ele><time>2026-04-19T13:59:34.946Z</time></trkpt><trkpt lat="43.6609907" lon="10.6389413"><ele>18.0</ele><time>2026-04-19T13:59:36.946Z</time></trkpt><trkpt lat="43.6608799" lon="10.6389279"><ele>18.0</ele><time>2026-04-19T13:59:38.946Z</time></trkpt><trkpt lat="43.6608159" lon="10.6389167"><ele>18.0</ele><time>2026-04-19T13:59:39.946Z</time></trkpt><trkpt lat="43.6607496" lon="10.6389044"><ele>18.0</ele><time>2026-04-19T13:59:40.946Z</time></trkpt><trkpt lat="43.6606743" lon="10.6388891"><ele>18.0</ele><time>2026-04-19T13:59:41.947Z</time></trkpt><trkpt lat="43.6606072" lon="10.6388755"><ele>18.0</ele><time>2026-04-19T13:59:42.946Z</time></trkpt><trkpt lat="43.6605321" lon="10.6388657"><ele>18.0</ele><time>2026-04-19T13:59:43.946Z</time></trkpt><trkpt lat="43.660455" lon="10.638852"><ele>18.0</ele><time>2026-04-19T13:59:44.946Z</time></trkpt><trkpt lat="43.6603734" lon="10.6388356"><ele>18.0</ele><time>2026-04-19T13:59:45.946Z</time></trkpt><trkpt lat="43.6602843" lon="10.6388163"><ele>18.0</ele><time>2026-04-19T13:59:46.946Z</time></trkpt><trkpt lat="43.6601966" lon="10.6387977"><ele>18.0</ele><time>2026-04-19T13:59:47.947Z</time></trkpt><trkpt lat="43.6601064" lon="10.6387824"><ele>18.0</ele><time>2026-04-19T13:59:48.946Z</time></trkpt><trkpt lat="43.660016" lon="10.6387654"><ele>18.0</ele><time>2026-04-19T13:59:49.946Z</time></trkpt><trkpt lat="43.659927" lon="10.6387455"><ele>18.0</ele><time>2026-04-19T13:59:50.946Z</time></trkpt><trkpt lat="43.6598362" lon="10.6387278"><ele>18.0</ele><time>2026-04-19T13:59:51.946Z</time></trkpt><trkpt lat="43.6597496" lon="10.6387099"><ele>18.0</ele><time>2026-04-19T13:59:52.946Z</time></trkpt><trkpt lat="43.659663" lon="10.6386922"><ele>18.0</ele><time>2026-04-19T13:59:53.946Z</time></trkpt><trkpt lat="43.6595713" lon="10.6386701"><ele>18.0</ele><time>2026-04-19T13:59:54.946Z</time></trkpt><trkpt lat="43.6594701" lon="10.6386495"><ele>18.0</ele><time>2026-04-19T13:59:55.946Z</time></trkpt><trkpt lat="43.6593668" lon="10.6386283"><ele>18.0</ele><time>2026-04-19T13:59:56.946Z</time></trkpt><trkpt lat="43.6592662" lon="10.6386036"><ele>17.8</ele><time>2026-04-19T13:59:57.946Z</time></trkpt><trkpt lat="43.6591622" lon="10.6385845"><ele>17.6</ele><time>2026-04-19T13:59:58.946Z</time></trkpt><trkpt lat="43.6590573" lon="10.6385652"><ele>17.4</ele><time>2026-04-19T13:59:59.946Z</time></trkpt><trkpt lat="43.6589513" lon="10.6385411"><ele>17.2</ele><time>2026-04-19T14:00:00.946Z</time></trkpt><trkpt lat="43.6588465" lon="10.6385019"><ele>17.0</ele><time>2026-04-19T14:00:01.946Z</time></trkpt><trkpt lat="43.6587366" lon="10.6384462"><ele>17.0</ele><time>2026-04-19T14:00:02.946Z</time></trkpt><trkpt lat="43.6586233" lon="10.6383815"><ele>17.0</ele><time>2026-04-19T14:00:03.946Z</time></trkpt><trkpt lat="43.6585117" lon="10.6383135"><ele>17.0</ele><time>2026-04-19T14:00:04.946Z</time></trkpt><trkpt lat="43.6584051" lon="10.6382415"><ele>17.0</ele><time>2026-04-19T14:00:05.946Z</time></trkpt><trkpt lat="43.6583076" lon="10.6381718"><ele>17.6</ele><time>2026-04-19T14:00:06.946Z</time></trkpt><trkpt lat="43.6582132" lon="10.6381049"><ele>18.2</ele><time>2026-04-19T14:00:07.946Z</time></trkpt><trkpt lat="43.6581194" lon="10.6380398"><ele>18.8</ele><time>2026-04-19T14:00:08.946Z</time></trkpt><trkpt lat="43.6580301" lon="10.6379773"><ele>19.4</ele><time>2026-04-19T14:00:09.947Z</time></trkpt><trkpt lat="43.6579449" lon="10.6379171"><ele>20.0</ele><time>2026-04-19T14:00:10.947Z</time></trkpt><trkpt lat="43.6578657" lon="10.6378598"><ele>20.0</ele><time>2026-04-19T14:00:11.946Z</time></trkpt><trkpt lat="43.6577903" lon="10.6378096"><ele>20.0</ele><time>2026-04-19T14:00:12.946Z</time></trkpt><trkpt lat="43.6577186" lon="10.6377606"><ele>20.0</ele><time>2026-04-19T14:00:13.947Z</time></trkpt><trkpt lat="43.6576512" lon="10.6377122"><ele>20.0</ele><time>2026-04-19T14:00:14.946Z</time></trkpt><trkpt lat="43.6575951" lon="10.6376685"><ele>20.0</ele><time>2026-04-19T14:00:15.947Z</time></trkpt><trkpt lat="43.6574962" lon="10.6375871"><ele>20.0</ele><time>2026-04-19T14:00:17.946Z</time></trkpt><trkpt lat="43.6574257" lon="10.6375335"><ele>20.166666666666668</ele><time>2026-04-19T14:00:19.946Z</time></trkpt><trkpt lat="43.6573557" lon="10.6374918"><ele>20.333333333333336</ele><time>2026-04-19T14:00:22.946Z</time></trkpt><trkpt lat="43.6572937" lon="10.6374483"><ele>20.5</ele><time>2026-04-19T14:00:55.947Z</time></trkpt><trkpt lat="43.6571832" lon="10.6373832"><ele>20.666666666666668</ele><time>2026-04-19T14:00:57.947Z</time></trkpt><trkpt lat="43.6571191" lon="10.6373395"><ele>20.833333333333332</ele><time>2026-04-19T14:00:58.946Z</time></trkpt><trkpt lat="43.6570508" lon="10.6372849"><ele>21.0</ele><time>2026-04-19T14:00:59.946Z</time></trkpt><trkpt lat="43.6569674" lon="10.6372285"><ele>20.2</ele><time>2026-04-19T14:01:00.946Z</time></trkpt><trkpt lat="43.656868" lon="10.6371615"><ele>19.400000000000002</ele><time>2026-04-19T14:01:01.946Z</time></trkpt><trkpt lat="43.6567671" lon="10.6370916"><ele>18.6</ele><time>2026-04-19T14:01:02.946Z</time></trkpt><trkpt lat="43.6566672" lon="10.6370236"><ele>17.8</ele><time>2026-04-19T14:01:03.946Z</time></trkpt><trkpt lat="43.6565639" lon="10.6369573"><ele>17.0</ele><time>2026-04-19T14:01:04.946Z</time></trkpt><trkpt lat="43.65646" lon="10.636889"><ele>17.0</ele><time>2026-04-19T14:01:05.946Z</time></trkpt><trkpt lat="43.656351" lon="10.6368163"><ele>17.0</ele><time>2026-04-19T14:01:06.946Z</time></trkpt><trkpt lat="43.6562406" lon="10.6367418"><ele>17.0</ele><time>2026-04-19T14:01:07.946Z</time></trkpt><trkpt lat="43.656128" lon="10.6366673"><ele>17.0</ele><time>2026-04-19T14:01:08.946Z</time></trkpt><trkpt lat="43.6560151" lon="10.6365932"><ele>16.75</ele><time>2026-04-19T14:01:09.946Z</time></trkpt><trkpt lat="43.655905" lon="10.6365219"><ele>16.5</ele><time>2026-04-19T14:01:10.946Z</time></trkpt><trkpt lat="43.6558004" lon="10.636454"><ele>16.25</ele><time>2026-04-19T14:01:11.946Z</time></trkpt><trkpt lat="43.6556983" lon="10.6363891"><ele>16.0</ele><time>2026-04-19T14:01:12.946Z</time></trkpt><trkpt lat="43.6555975" lon="10.6363235"><ele>16.0</ele><time>2026-04-19T14:01:13.946Z</time></trkpt><trkpt lat="43.6554964" lon="10.6362606"><ele>16.0</ele><time>2026-04-19T14:01:14.946Z</time></trkpt><trkpt lat="43.655393" lon="10.6361938"><ele>16.0</ele><time>2026-04-19T14:01:15.946Z</time></trkpt><trkpt lat="43.6552945" lon="10.6361277"><ele>16.0</ele><time>2026-04-19T14:01:16.946Z</time></trkpt><trkpt lat="43.6551993" lon="10.6360639"><ele>16.0</ele><time>2026-04-19T14:01:17.947Z</time></trkpt><trkpt lat="43.6551037" lon="10.6360019"><ele>16.2</ele><time>2026-04-19T14:01:18.946Z</time></trkpt><trkpt lat="43.6550084" lon="10.6359399"><ele>16.400000000000002</ele><time>2026-04-19T14:01:19.946Z</time></trkpt><trkpt lat="43.6549127" lon="10.6358781"><ele>16.6</ele><time>2026-04-19T14:01:20.946Z</time></trkpt><trkpt lat="43.6548172" lon="10.6358162"><ele>16.8</ele><time>2026-04-19T14:01:21.946Z</time></trkpt><trkpt lat="43.6547257" lon="10.6357555"><ele>17.0</ele><time>2026-04-19T14:01:22.946Z</time></trkpt><trkpt lat="43.6546401" lon="10.635699"><ele>17.0</ele><time>2026-04-19T14:01:23.946Z</time></trkpt><trkpt lat="43.6545601" lon="10.6356442"><ele>17.0</ele><time>2026-04-19T14:01:24.946Z</time></trkpt><trkpt lat="43.654485" lon="10.6355874"><ele>17.0</ele><time>2026-04-19T14:01:25.947Z</time></trkpt><trkpt lat="43.6544116" lon="10.6355231"><ele>17.0</ele><time>2026-04-19T14:01:26.946Z</time></trkpt><trkpt lat="43.6543404" lon="10.6354473"><ele>17.0</ele><time>2026-04-19T14:01:27.946Z</time></trkpt><trkpt lat="43.6542734" lon="10.6353628"><ele>17.0</ele><time>2026-04-19T14:01:28.946Z</time></trkpt><trkpt lat="43.6542149" lon="10.6352765"><ele>16.57142857142857</ele><time>2026-04-19T14:01:29.946Z</time></trkpt><trkpt lat="43.6541602" lon="10.6351908"><ele>16.142857142857142</ele><time>2026-04-19T14:01:30.946Z</time></trkpt><trkpt lat="43.6541037" lon="10.6351223"><ele>15.714285714285714</ele><time>2026-04-19T14:01:31.946Z</time></trkpt><trkpt lat="43.6540447" lon="10.6350772"><ele>15.285714285714285</ele><time>2026-04-19T14:01:32.946Z</time></trkpt><trkpt lat="43.6539799" lon="10.6350566"><ele>14.857142857142858</ele><time>2026-04-19T14:01:33.946Z</time></trkpt><trkpt lat="43.6539122" lon="10.6350601"><ele>14.428571428571429</ele><time>2026-04-19T14:01:34.947Z</time></trkpt><trkpt lat="43.6538467" lon="10.6350889"><ele>14.0</ele><time>2026-04-19T14:01:35.946Z</time></trkpt><trkpt lat="43.6537908" lon="10.6351425"><ele>14.000000000000002</ele><time>2026-04-19T14:01:36.946Z</time></trkpt><trkpt lat="43.653753" lon="10.6352162"><ele>14.0</ele><time>2026-04-19T14:01:37.946Z</time></trkpt><trkpt lat="43.6537353" lon="10.6353067"><ele>14.0</ele><time>2026-04-19T14:01:38.946Z</time></trkpt><trkpt lat="43.6537395" lon="10.6354176"><ele>14.0</ele><time>2026-04-19T14:01:39.946Z</time></trkpt><trkpt lat="43.6537656" lon="10.6355388"><ele>14.000000000000002</ele><time>2026-04-19T14:01:40.946Z</time></trkpt><trkpt lat="43.6537996" lon="10.6356775"><ele>14.0</ele><time>2026-04-19T14:01:41.947Z</time></trkpt><trkpt lat="43.6538249" lon="10.6358362"><ele>14.25</ele><time>2026-04-19T14:01:42.946Z</time></trkpt><trkpt lat="43.6538331" lon="10.6359966"><ele>14.5</ele><time>2026-04-19T14:01:43.947Z</time></trkpt><trkpt lat="43.65383" lon="10.6361601"><ele>14.75</ele><time>2026-04-19T14:01:44.946Z</time></trkpt><trkpt lat="43.6538181" lon="10.6363273"><ele>15.0</ele><time>2026-04-19T14:01:45.946Z</time></trkpt><trkpt lat="43.6537989" lon="10.6365142"><ele>15.333333333333332</ele><time>2026-04-19T14:01:46.947Z</time></trkpt><trkpt lat="43.6537771" lon="10.6367213"><ele>15.666666666666666</ele><time>2026-04-19T14:01:47.946Z</time></trkpt><trkpt lat="43.6537557" lon="10.6369278"><ele>16.0</ele><time>2026-04-19T14:01:48.946Z</time></trkpt><trkpt lat="43.6537361" lon="10.6371373"><ele>16.0</ele><time>2026-04-19T14:01:49.946Z</time></trkpt><trkpt lat="43.6537189" lon="10.6373527"><ele>16.0</ele><time>2026-04-19T14:01:50.946Z</time></trkpt><trkpt lat="43.6537025" lon="10.637572"><ele>16.0</ele><time>2026-04-19T14:01:51.946Z</time></trkpt><trkpt lat="43.6536873" lon="10.637794"><ele>15.666666666666666</ele><time>2026-04-19T14:01:52.946Z</time></trkpt><trkpt lat="43.6536755" lon="10.638017"><ele>15.333333333333332</ele><time>2026-04-19T14:01:53.946Z</time></trkpt><trkpt lat="43.6536712" lon="10.6382577"><ele>15.0</ele><time>2026-04-19T14:01:54.947Z</time></trkpt><trkpt lat="43.6536785" lon="10.6385216"><ele>14.666666666666668</ele><time>2026-04-19T14:01:55.946Z</time></trkpt><trkpt lat="43.6536947" lon="10.6387817"><ele>14.333333333333334</ele><time>2026-04-19T14:01:56.946Z</time></trkpt><trkpt lat="43.653715" lon="10.6390353"><ele>14.0</ele><time>2026-04-19T14:01:57.946Z</time></trkpt><trkpt lat="43.6537386" lon="10.6392826"><ele>15.0</ele><time>2026-04-19T14:01:58.946Z</time></trkpt><trkpt lat="43.6537654" lon="10.6395414"><ele>16.0</ele><time>2026-04-19T14:01:59.946Z</time></trkpt><trkpt lat="43.653794" lon="10.6397962"><ele>17.0</ele><time>2026-04-19T14:02:00.947Z</time></trkpt><trkpt lat="43.6538214" lon="10.6400506"><ele>16.0</ele><time>2026-04-19T14:02:01.946Z</time></trkpt><trkpt lat="43.6538475" lon="10.6403"><ele>15.0</ele><time>2026-04-19T14:02:02.946Z</time></trkpt><trkpt lat="43.6538737" lon="10.6405486"><ele>14.0</ele><time>2026-04-19T14:02:03.946Z</time></trkpt><trkpt lat="43.6539" lon="10.6407984"><ele>14.0</ele><time>2026-04-19T14:02:04.946Z</time></trkpt><trkpt lat="43.6539276" lon="10.6410435"><ele>14.0</ele><time>2026-04-19T14:02:05.946Z</time></trkpt><trkpt lat="43.6539555" lon="10.6412925"><ele>14.0</ele><time>2026-04-19T14:02:06.946Z</time></trkpt><trkpt lat="43.653982" lon="10.6415408"><ele>14.666666666666668</ele><time>2026-04-19T14:02:07.946Z</time></trkpt><trkpt lat="43.654007" lon="10.6417795"><ele>15.333333333333332</ele><time>2026-04-19T14:02:08.946Z</time></trkpt><trkpt lat="43.6540316" lon="10.6420073"><ele>16.0</ele><time>2026-04-19T14:02:09.946Z</time></trkpt><trkpt lat="43.6540549" lon="10.6422244"><ele>16.0</ele><time>2026-04-19T14:02:10.946Z</time></trkpt><trkpt lat="43.6540772" lon="10.6424341"><ele>16.0</ele><time>2026-04-19T14:02:11.946Z</time></trkpt><trkpt lat="43.6540998" lon="10.6426385"><ele>16.0</ele><time>2026-04-19T14:02:12.946Z</time></trkpt><trkpt lat="43.6541219" lon="10.6428445"><ele>16.0</ele><time>2026-04-19T14:02:13.946Z</time></trkpt><trkpt lat="43.6541463" lon="10.6430593"><ele>16.0</ele><time>2026-04-19T14:02:14.946Z</time></trkpt><trkpt lat="43.6541705" lon="10.6432739"><ele>16.0</ele><time>2026-04-19T14:02:15.946Z</time></trkpt><trkpt lat="43.6541942" lon="10.6434827"><ele>15.25</ele><time>2026-04-19T14:02:16.946Z</time></trkpt><trkpt lat="43.6542176" lon="10.6436808"><ele>14.5</ele><time>2026-04-19T14:02:17.946Z</time></trkpt><trkpt lat="43.6542399" lon="10.6438641"><ele>13.75</ele><time>2026-04-19T14:02:18.946Z</time></trkpt><trkpt lat="43.6542564" lon="10.6440326"><ele>13.0</ele><time>2026-04-19T14:02:19.946Z</time></trkpt><trkpt lat="43.6542642" lon="10.6441835"><ele>13.0</ele><time>2026-04-19T14:02:20.946Z</time></trkpt><trkpt lat="43.6542574" lon="10.6443158"><ele>13.0</ele><time>2026-04-19T14:02:21.946Z</time></trkpt><trkpt lat="43.6542257" lon="10.6444374"><ele>13.0</ele><time>2026-04-19T14:02:22.946Z</time></trkpt><trkpt lat="43.6541729" lon="10.6445434"><ele>13.0</ele><time>2026-04-19T14:02:23.946Z</time></trkpt><trkpt lat="43.6541204" lon="10.6446451"><ele>13.0</ele><time>2026-04-19T14:02:24.946Z</time></trkpt><trkpt lat="43.6540888" lon="10.644757"><ele>13.2</ele><time>2026-04-19T14:02:25.946Z</time></trkpt><trkpt lat="43.6540836" lon="10.6448802"><ele>13.4</ele><time>2026-04-19T14:02:26.946Z</time></trkpt><trkpt lat="43.6541086" lon="10.6450125"><ele>13.599999999999998</ele><time>2026-04-19T14:02:27.947Z</time></trkpt><trkpt lat="43.6541555" lon="10.6451595"><ele>13.799999999999999</ele><time>2026-04-19T14:02:28.946Z</time></trkpt><trkpt lat="43.6542039" lon="10.6453235"><ele>14.0</ele><time>2026-04-19T14:02:29.946Z</time></trkpt><trkpt lat="43.6542397" lon="10.6455056"><ele>14.0</ele><time>2026-04-19T14:02:30.946Z</time></trkpt><trkpt lat="43.6542544" lon="10.6457054"><ele>14.0</ele><time>2026-04-19T14:02:31.946Z</time></trkpt><trkpt lat="43.6542512" lon="10.6459047"><ele>14.0</ele><time>2026-04-19T14:02:32.946Z</time></trkpt><trkpt lat="43.6542297" lon="10.6461107"><ele>14.0</ele><time>2026-04-19T14:02:33.946Z</time></trkpt><trkpt lat="43.6541947" lon="10.6463219"><ele>14.0</ele><time>2026-04-19T14:02:34.947Z</time></trkpt><trkpt lat="43.654146" lon="10.6465424"><ele>14.0</ele><time>2026-04-19T14:02:35.946Z</time></trkpt><trkpt lat="43.6540877" lon="10.6467664"><ele>14.0</ele><time>2026-04-19T14:02:36.946Z</time></trkpt><trkpt lat="43.6540242" lon="10.6469804"><ele>14.0</ele><time>2026-04-19T14:02:37.946Z</time></trkpt><trkpt lat="43.6539531" lon="10.6471907"><ele>14.0</ele><time>2026-04-19T14:02:38.946Z</time></trkpt><trkpt lat="43.6538768" lon="10.647401"><ele>14.0</ele><time>2026-04-19T14:02:39.947Z</time></trkpt><trkpt lat="43.6537973" lon="10.6476062"><ele>14.333333333333334</ele><time>2026-04-19T14:02:40.946Z</time></trkpt><trkpt lat="43.6537134" lon="10.647811"><ele>14.666666666666668</ele><time>2026-04-19T14:02:41.947Z</time></trkpt><trkpt lat="43.6536262" lon="10.6480152"><ele>15.0</ele><time>2026-04-19T14:02:42.946Z</time></trkpt><trkpt lat="43.6535398" lon="10.6482188"><ele>15.0</ele><time>2026-04-19T14:02:43.947Z</time></trkpt><trkpt lat="43.653459" lon="10.6484233"><ele>15.0</ele><time>2026-04-19T14:02:44.946Z</time></trkpt><trkpt lat="43.6533845" lon="10.6486336"><ele>15.0</ele><time>2026-04-19T14:02:45.946Z</time></trkpt><trkpt lat="43.6533184" lon="10.6488484"><ele>15.333333333333332</ele><time>2026-04-19T14:02:46.946Z</time></trkpt><trkpt lat="43.6532613" lon="10.6490696"><ele>15.666666666666666</ele><time>2026-04-19T14:02:47.946Z</time></trkpt><trkpt lat="43.6532161" lon="10.6492963"><ele>16.0</ele><time>2026-04-19T14:02:48.946Z</time></trkpt><trkpt lat="43.6531835" lon="10.649528"><ele>16.666666666666664</ele><time>2026-04-19T14:02:49.946Z</time></trkpt><trkpt lat="43.653163" lon="10.649764"><ele>17.333333333333332</ele><time>2026-04-19T14:02:50.946Z</time></trkpt><trkpt lat="43.6531545" lon="10.6499986"><ele>18.0</ele><time>2026-04-19T14:02:51.946Z</time></trkpt><trkpt lat="43.65316" lon="10.6502329"><ele>18.0</ele><time>2026-04-19T14:02:52.946Z</time></trkpt><trkpt lat="43.6531786" lon="10.6504655"><ele>18.0</ele><time>2026-04-19T14:02:53.946Z</time></trkpt><trkpt lat="43.6532103" lon="10.6506948"><ele>18.0</ele><time>2026-04-19T14:02:54.946Z</time></trkpt><trkpt lat="43.6532515" lon="10.6509216"><ele>17.333333333333332</ele><time>2026-04-19T14:02:55.946Z</time></trkpt><trkpt lat="43.6533035" lon="10.6511445"><ele>16.666666666666664</ele><time>2026-04-19T14:02:56.946Z</time></trkpt><trkpt lat="43.6533654" lon="10.651366"><ele>16.0</ele><time>2026-04-19T14:02:57.946Z</time></trkpt><trkpt lat="43.6534338" lon="10.6515906"><ele>16.0</ele><time>2026-04-19T14:02:58.946Z</time></trkpt><trkpt lat="43.6535077" lon="10.6518081"><ele>16.0</ele><time>2026-04-19T14:02:59.946Z</time></trkpt><trkpt lat="43.6535823" lon="10.6520254"><ele>16.0</ele><time>2026-04-19T14:03:00.946Z</time></trkpt><trkpt lat="43.6536585" lon="10.6522397"><ele>15.666666666666666</ele><time>2026-04-19T14:03:01.946Z</time></trkpt><trkpt lat="43.6537359" lon="10.6524556"><ele>15.333333333333332</ele><time>2026-04-19T14:03:02.946Z</time></trkpt><trkpt lat="43.6538139" lon="10.6526713"><ele>15.0</ele><time>2026-04-19T14:03:03.946Z</time></trkpt><trkpt lat="43.6538913" lon="10.6528869"><ele>15.0</ele><time>2026-04-19T14:03:04.946Z</time></trkpt><trkpt lat="43.6539638" lon="10.6530924"><ele>15.0</ele><time>2026-04-19T14:03:05.946Z</time></trkpt><trkpt lat="43.6540336" lon="10.6532896"><ele>15.0</ele><time>2026-04-19T14:03:06.946Z</time></trkpt><trkpt lat="43.6540991" lon="10.6534792"><ele>15.25</ele><time>2026-04-19T14:03:07.946Z</time></trkpt><trkpt lat="43.6541603" lon="10.6536621"><ele>15.5</ele><time>2026-04-19T14:03:08.946Z</time></trkpt><trkpt lat="43.6542159" lon="10.6538364"><ele>15.75</ele><time>2026-04-19T14:03:09.946Z</time></trkpt><trkpt lat="43.6542626" lon="10.6540046"><ele>16.0</ele><time>2026-04-19T14:03:10.946Z</time></trkpt><trkpt lat="43.6543" lon="10.6541668"><ele>15.999999999999998</ele><time>2026-04-19T14:03:11.947Z</time></trkpt><trkpt lat="43.6543288" lon="10.65432"><ele>16.0</ele><time>2026-04-19T14:03:12.947Z</time></trkpt><trkpt lat="43.654345" lon="10.6544568"><ele>16.0</ele><time>2026-04-19T14:03:13.946Z</time></trkpt><trkpt lat="43.6543466" lon="10.6545734"><ele>16.0</ele><time>2026-04-19T14:03:14.946Z</time></trkpt><trkpt lat="43.6543337" lon="10.6546757"><ele>15.999999999999998</ele><time>2026-04-19T14:03:15.946Z</time></trkpt><trkpt lat="43.6543094" lon="10.6547601"><ele>16.0</ele><time>2026-04-19T14:03:16.946Z</time></trkpt><trkpt lat="43.6542292" lon="10.6548802"><ele>15.8</ele><time>2026-04-19T14:03:18.946Z</time></trkpt><trkpt lat="43.6541228" lon="10.6549855"><ele>15.600000000000001</ele><time>2026-04-19T14:03:20.946Z</time></trkpt><trkpt lat="43.6540652" lon="10.655053"><ele>15.4</ele><time>2026-04-19T14:03:21.946Z</time></trkpt><trkpt lat="43.6540146" lon="10.655137"><ele>15.2</ele><time>2026-04-19T14:03:22.946Z</time></trkpt><trkpt lat="43.6539754" lon="10.6552367"><ele>15.0</ele><time>2026-04-19T14:03:23.946Z</time></trkpt><trkpt lat="43.6539524" lon="10.6553472"><ele>14.666666666666666</ele><time>2026-04-19T14:03:24.946Z</time></trkpt><trkpt lat="43.6539462" lon="10.6554635"><ele>14.333333333333332</ele><time>2026-04-19T14:03:25.946Z</time></trkpt><trkpt lat="43.6539573" lon="10.6555801"><ele>14.0</ele><time>2026-04-19T14:03:26.946Z</time></trkpt><trkpt lat="43.653988" lon="10.6556921"><ele>13.666666666666666</ele><time>2026-04-19T14:03:27.946Z</time></trkpt><trkpt lat="43.654032" lon="10.6557967"><ele>13.333333333333332</ele><time>2026-04-19T14:03:28.947Z</time></trkpt><trkpt lat="43.6540866" lon="10.6558956"><ele>13.0</ele><time>2026-04-19T14:03:29.946Z</time></trkpt><trkpt lat="43.6541475" lon="10.6559885"><ele>13.0</ele><time>2026-04-19T14:03:30.946Z</time></trkpt><trkpt lat="43.6542145" lon="10.6560778"><ele>13.0</ele><time>2026-04-19T14:03:31.946Z</time></trkpt><trkpt lat="43.654288" lon="10.6561575"><ele>13.0</ele><time>2026-04-19T14:03:32.946Z</time></trkpt><trkpt lat="43.654372" lon="10.6562247"><ele>13.0</ele><time>2026-04-19T14:03:33.946Z</time></trkpt><trkpt lat="43.6544655" lon="10.6562716"><ele>13.0</ele><time>2026-04-19T14:03:34.946Z</time></trkpt><trkpt lat="43.6545718" lon="10.6563015"><ele>13.4</ele><time>2026-04-19T14:03:35.946Z</time></trkpt><trkpt lat="43.6546821" lon="10.6563242"><ele>13.8</ele><time>2026-04-19T14:03:36.946Z</time></trkpt><trkpt lat="43.6547895" lon="10.656348"><ele>14.2</ele><time>2026-04-19T14:03:37.946Z</time></trkpt><trkpt lat="43.6548969" lon="10.6563731"><ele>14.6</ele><time>2026-04-19T14:03:38.946Z</time></trkpt><trkpt lat="43.6550008" lon="10.6564084"><ele>15.0</ele><time>2026-04-19T14:03:39.946Z</time></trkpt><trkpt lat="43.6550961" lon="10.6564637"><ele>15.0</ele><time>2026-04-19T14:03:40.946Z</time></trkpt><trkpt lat="43.655186" lon="10.6565442"><ele>15.0</ele><time>2026-04-19T14:03:41.946Z</time></trkpt><trkpt lat="43.6552683" lon="10.6566419"><ele>15.0</ele><time>2026-04-19T14:03:42.946Z</time></trkpt><trkpt lat="43.6553503" lon="10.6567505"><ele>15.0</ele><time>2026-04-19T14:03:43.947Z</time></trkpt><trkpt lat="43.655435" lon="10.6568633"><ele>15.0</ele><time>2026-04-19T14:03:44.946Z</time></trkpt><trkpt lat="43.6555253" lon="10.6569735"><ele>15.0</ele><time>2026-04-19T14:03:45.946Z</time></trkpt><trkpt lat="43.6556164" lon="10.6570854"><ele>15.0</ele><time>2026-04-19T14:03:46.946Z</time></trkpt><trkpt lat="43.6557135" lon="10.6571966"><ele>15.0</ele><time>2026-04-19T14:03:47.946Z</time></trkpt><trkpt lat="43.6558213" lon="10.6573053"><ele>15.0</ele><time>2026-04-19T14:03:48.946Z</time></trkpt><trkpt lat="43.6559296" lon="10.6574009"><ele>15.0</ele><time>2026-04-19T14:03:49.946Z</time></trkpt><trkpt lat="43.6560428" lon="10.6574858"><ele>15.0</ele><time>2026-04-19T14:03:50.947Z</time></trkpt><trkpt lat="43.656167" lon="10.657565"><ele>15.0</ele><time>2026-04-19T14:03:51.946Z</time></trkpt><trkpt lat="43.6563" lon="10.657638"><ele>15.0</ele><time>2026-04-19T14:03:52.946Z</time></trkpt><trkpt lat="43.6564328" lon="10.6576988"><ele>15.0</ele><time>2026-04-19T14:03:53.946Z</time></trkpt><trkpt lat="43.6565687" lon="10.6577483"><ele>15.0</ele><time>2026-04-19T14:03:54.946Z</time></trkpt><trkpt lat="43.6567072" lon="10.6577862"><ele>15.0</ele><time>2026-04-19T14:03:55.946Z</time></trkpt><trkpt lat="43.6568478" lon="10.6578124"><ele>15.0</ele><time>2026-04-19T14:03:56.946Z</time></trkpt><trkpt lat="43.6569965" lon="10.6578293"><ele>15.333333333333332</ele><time>2026-04-19T14:03:57.946Z</time></trkpt><trkpt lat="43.6571497" lon="10.6578371"><ele>15.666666666666666</ele><time>2026-04-19T14:03:58.946Z</time></trkpt><trkpt lat="43.6573047" lon="10.6578384"><ele>16.0</ele><time>2026-04-19T14:03:59.946Z</time></trkpt><trkpt lat="43.657464" lon="10.6578357"><ele>16.0</ele><time>2026-04-19T14:04:00.946Z</time></trkpt><trkpt lat="43.6576261" lon="10.6578307"><ele>16.0</ele><time>2026-04-19T14:04:01.947Z</time></trkpt><trkpt lat="43.6577834" lon="10.6578233"><ele>16.0</ele><time>2026-04-19T14:04:02.947Z</time></trkpt><trkpt lat="43.6579381" lon="10.6578146"><ele>15.666666666666666</ele><time>2026-04-19T14:04:03.946Z</time></trkpt><trkpt lat="43.6580894" lon="10.6578058"><ele>15.333333333333332</ele><time>2026-04-19T14:04:04.946Z</time></trkpt><trkpt lat="43.6582382" lon="10.6577985"><ele>15.0</ele><time>2026-04-19T14:04:05.946Z</time></trkpt><trkpt lat="43.6583895" lon="10.6577924"><ele>15.0</ele><time>2026-04-19T14:04:06.946Z</time></trkpt><trkpt lat="43.6585413" lon="10.6577856"><ele>15.0</ele><time>2026-04-19T14:04:07.946Z</time></trkpt><trkpt lat="43.6586951" lon="10.6577794"><ele>15.0</ele><time>2026-04-19T14:04:08.946Z</time></trkpt><trkpt lat="43.6588515" lon="10.6577735"><ele>15.0</ele><time>2026-04-19T14:04:09.946Z</time></trkpt><trkpt lat="43.6590119" lon="10.6577656"><ele>15.0</ele><time>2026-04-19T14:04:10.946Z</time></trkpt><trkpt lat="43.6591769" lon="10.657756"><ele>15.0</ele><time>2026-04-19T14:04:11.946Z</time></trkpt><trkpt lat="43.6593436" lon="10.6577461"><ele>14.333333333333332</ele><time>2026-04-19T14:04:12.946Z</time></trkpt><trkpt lat="43.6595105" lon="10.6577368"><ele>13.666666666666666</ele><time>2026-04-19T14:04:13.946Z</time></trkpt><trkpt lat="43.6596765" lon="10.6577274"><ele>13.0</ele><time>2026-04-19T14:04:14.947Z</time></trkpt><trkpt lat="43.6598452" lon="10.6577189"><ele>13.0</ele><time>2026-04-19T14:04:15.946Z</time></trkpt><trkpt lat="43.6600151" lon="10.6577097"><ele>13.0</ele><time>2026-04-19T14:04:16.946Z</time></trkpt><trkpt lat="43.6601865" lon="10.6577021"><ele>13.0</ele><time>2026-04-19T14:04:17.947Z</time></trkpt><trkpt lat="43.6603602" lon="10.6576927"><ele>13.0</ele><time>2026-04-19T14:04:18.946Z</time></trkpt><trkpt lat="43.6605344" lon="10.6576852"><ele>13.0</ele><time>2026-04-19T14:04:19.947Z</time></trkpt><trkpt lat="43.6607091" lon="10.6576783"><ele>13.0</ele><time>2026-04-19T14:04:20.946Z</time></trkpt><trkpt lat="43.6608868" lon="10.6576706"><ele>13.0</ele><time>2026-04-19T14:04:21.946Z</time></trkpt><trkpt lat="43.6610643" lon="10.6576623"><ele>13.0</ele><time>2026-04-19T14:04:22.946Z</time></trkpt><trkpt lat="43.6612416" lon="10.6576545"><ele>13.0</ele><time>2026-04-19T14:04:23.946Z</time></trkpt><trkpt lat="43.6614195" lon="10.6576469"><ele>13.0</ele><time>2026-04-19T14:04:24.946Z</time></trkpt><trkpt lat="43.6615976" lon="10.6576371"><ele>13.0</ele><time>2026-04-19T14:04:25.946Z</time></trkpt><trkpt lat="43.661774" lon="10.6576284"><ele>13.0</ele><time>2026-04-19T14:04:26.946Z</time></trkpt><trkpt lat="43.6619506" lon="10.6576209"><ele>13.0</ele><time>2026-04-19T14:04:27.946Z</time></trkpt><trkpt lat="43.6621288" lon="10.6576134"><ele>13.0</ele><time>2026-04-19T14:04:28.946Z</time></trkpt><trkpt lat="43.6623063" lon="10.6576027"><ele>13.0</ele><time>2026-04-19T14:04:29.946Z</time></trkpt><trkpt lat="43.6624811" lon="10.6575916"><ele>13.0</ele><time>2026-04-19T14:04:30.947Z</time></trkpt><trkpt lat="43.6626557" lon="10.6575814"><ele>13.0</ele><time>2026-04-19T14:04:31.946Z</time></trkpt><trkpt lat="43.6628259" lon="10.6575747"><ele>13.0</ele><time>2026-04-19T14:04:32.946Z</time></trkpt><trkpt lat="43.6629939" lon="10.6575704"><ele>13.333333333333332</ele><time>2026-04-19T14:04:33.946Z</time></trkpt><trkpt lat="43.6631588" lon="10.6575677"><ele>13.666666666666668</ele><time>2026-04-19T14:04:34.946Z</time></trkpt><trkpt lat="43.6633205" lon="10.6575716"><ele>14.0</ele><time>2026-04-19T14:04:35.946Z</time></trkpt><trkpt lat="43.663473" lon="10.6575857"><ele>14.25</ele><time>2026-04-19T14:04:36.947Z</time></trkpt><trkpt lat="43.6636192" lon="10.6576095"><ele>14.5</ele><time>2026-04-19T14:04:37.946Z</time></trkpt><trkpt lat="43.663758" lon="10.6576397"><ele>14.75</ele><time>2026-04-19T14:04:38.946Z</time></trkpt><trkpt lat="43.6638887" lon="10.657677"><ele>15.0</ele><time>2026-04-19T14:04:39.947Z</time></trkpt><trkpt lat="43.66401" lon="10.6577238"><ele>15.0</ele><time>2026-04-19T14:04:40.946Z</time></trkpt><trkpt lat="43.664123" lon="10.6577793"><ele>15.0</ele><time>2026-04-19T14:04:41.946Z</time></trkpt><trkpt lat="43.6642227" lon="10.6578411"><ele>15.0</ele><time>2026-04-19T14:04:42.946Z</time></trkpt><trkpt lat="43.664305" lon="10.6579038"><ele>15.0</ele><time>2026-04-19T14:04:43.946Z</time></trkpt><trkpt lat="43.664369" lon="10.6579683"><ele>15.0</ele><time>2026-04-19T14:04:44.946Z</time></trkpt><trkpt lat="43.6644173" lon="10.6580431"><ele>15.0</ele><time>2026-04-19T14:04:45.946Z</time></trkpt><trkpt lat="43.6644481" lon="10.6581255"><ele>15.0</ele><time>2026-04-19T14:04:46.947Z</time></trkpt><trkpt lat="43.6644708" lon="10.6582892"><ele>15.0</ele><time>2026-04-19T14:04:48.946Z</time></trkpt><trkpt lat="43.6644826" lon="10.6583777"><ele>15.0</ele><time>2026-04-19T14:04:49.946Z</time></trkpt><trkpt lat="43.664505" lon="10.6584688"><ele>15.0</ele><time>2026-04-19T14:04:50.946Z</time></trkpt><trkpt lat="43.6645415" lon="10.6585502"><ele>15.0</ele><time>2026-04-19T14:04:51.946Z</time></trkpt><trkpt lat="43.6645911" lon="10.6586208"><ele>15.0</ele><time>2026-04-19T14:04:52.946Z</time></trkpt><trkpt lat="43.664652" lon="10.6586737"><ele>15.0</ele><time>2026-04-19T14:04:53.946Z</time></trkpt><trkpt lat="43.6647216" lon="10.6587045"><ele>15.0</ele><time>2026-04-19T14:04:54.946Z</time></trkpt><trkpt lat="43.6647954" lon="10.6587101"><ele>15.0</ele><time>2026-04-19T14:04:55.946Z</time></trkpt><trkpt lat="43.6648653" lon="10.6586887"><ele>15.0</ele><time>2026-04-19T14:04:56.946Z</time></trkpt><trkpt lat="43.6649291" lon="10.658643"><ele>15.0</ele><time>2026-04-19T14:04:57.947Z</time></trkpt><trkpt lat="43.6649824" lon="10.6585775"><ele>15.0</ele><time>2026-04-19T14:04:58.946Z</time></trkpt><trkpt lat="43.6650237" lon="10.6584923"><ele>14.833333333333334</ele><time>2026-04-19T14:04:59.946Z</time></trkpt><trkpt lat="43.6650471" lon="10.6583955"><ele>14.666666666666668</ele><time>2026-04-19T14:05:00.946Z</time></trkpt><trkpt lat="43.6650533" lon="10.6582893"><ele>14.5</ele><time>2026-04-19T14:05:01.946Z</time></trkpt><trkpt lat="43.6650406" lon="10.6581851"><ele>14.333333333333334</ele><time>2026-04-19T14:05:02.946Z</time></trkpt><trkpt lat="43.665008" lon="10.6580921"><ele>14.166666666666668</ele><time>2026-04-19T14:05:03.946Z</time></trkpt><trkpt lat="43.6649564" lon="10.6580132"><ele>14.0</ele><time>2026-04-19T14:05:04.946Z</time></trkpt><trkpt lat="43.6648885" lon="10.6579546"><ele>14.0</ele><time>2026-04-19T14:05:05.946Z</time></trkpt><trkpt lat="43.6648043" lon="10.6579195"><ele>13.999999999999998</ele><time>2026-04-19T14:05:06.947Z</time></trkpt><trkpt lat="43.6647003" lon="10.6579062"><ele>13.999999999999998</ele><time>2026-04-19T14:05:07.946Z</time></trkpt><trkpt lat="43.664591" lon="10.6578998"><ele>14.0</ele><time>2026-04-19T14:05:08.946Z</time></trkpt><trkpt lat="43.6644726" lon="10.6578755"><ele>14.0</ele><time>2026-04-19T14:05:09.946Z</time></trkpt><trkpt lat="43.6643402" lon="10.6578224"><ele>14.333333333333334</ele><time>2026-04-19T14:05:10.946Z</time></trkpt><trkpt lat="43.6641911" lon="10.657753"><ele>14.666666666666668</ele><time>2026-04-19T14:05:11.946Z</time></trkpt><trkpt lat="43.664039" lon="10.6576857"><ele>15.0</ele><time>2026-04-19T14:05:12.946Z</time></trkpt><trkpt lat="43.6638817" lon="10.6576252"><ele>15.0</ele><time>2026-04-19T14:05:13.946Z</time></trkpt><trkpt lat="43.6637199" lon="10.6575795"><ele>15.0</ele><time>2026-04-19T14:05:14.946Z</time></trkpt><trkpt lat="43.6635552" lon="10.6575493"><ele>15.0</ele><time>2026-04-19T14:05:15.946Z</time></trkpt><trkpt lat="43.6633812" lon="10.6575323"><ele>14.666666666666668</ele><time>2026-04-19T14:05:16.947Z</time></trkpt><trkpt lat="43.6631921" lon="10.657526"><ele>14.333333333333334</ele><time>2026-04-19T14:05:17.946Z</time></trkpt><trkpt lat="43.6629819" lon="10.6575268"><ele>14.0</ele><time>2026-04-19T14:05:18.947Z</time></trkpt><trkpt lat="43.6627722" lon="10.6575359"><ele>13.666666666666668</ele><time>2026-04-19T14:05:19.946Z</time></trkpt><trkpt lat="43.6625618" lon="10.6575433"><ele>13.333333333333332</ele><time>2026-04-19T14:05:20.946Z</time></trkpt><trkpt lat="43.6623508" lon="10.6575536"><ele>13.0</ele><time>2026-04-19T14:05:21.946Z</time></trkpt><trkpt lat="43.6621309" lon="10.6575651"><ele>13.0</ele><time>2026-04-19T14:05:22.946Z</time></trkpt><trkpt lat="43.6619135" lon="10.6575758"><ele>13.0</ele><time>2026-04-19T14:05:23.946Z</time></trkpt><trkpt lat="43.6616935" lon="10.6575893"><ele>13.0</ele><time>2026-04-19T14:05:24.947Z</time></trkpt><trkpt lat="43.6614608" lon="10.6576085"><ele>13.0</ele><time>2026-04-19T14:05:25.946Z</time></trkpt><trkpt lat="43.6612194" lon="10.6576304"><ele>13.0</ele><time>2026-04-19T14:05:26.946Z</time></trkpt><trkpt lat="43.660975" lon="10.6576489"><ele>13.0</ele><time>2026-04-19T14:05:27.946Z</time></trkpt><trkpt lat="43.6607335" lon="10.6576606"><ele>13.0</ele><time>2026-04-19T14:05:28.946Z</time></trkpt><trkpt lat="43.6604947" lon="10.6576656"><ele>13.0</ele><time>2026-04-19T14:05:29.946Z</time></trkpt><trkpt lat="43.6602577" lon="10.6576672"><ele>13.0</ele><time>2026-04-19T14:05:30.947Z</time></trkpt><trkpt lat="43.6600295" lon="10.6576702"><ele>13.0</ele><time>2026-04-19T14:05:31.946Z</time></trkpt><trkpt lat="43.6597975" lon="10.6576779"><ele>13.0</ele><time>2026-04-19T14:05:32.946Z</time></trkpt><trkpt lat="43.6595715" lon="10.6576898"><ele>13.666666666666666</ele><time>2026-04-19T14:05:33.946Z</time></trkpt><trkpt lat="43.659347" lon="10.6577017"><ele>14.333333333333332</ele><time>2026-04-19T14:05:34.946Z</time></trkpt><trkpt lat="43.6591253" lon="10.6577128"><ele>15.0</ele><time>2026-04-19T14:05:35.946Z</time></trkpt><trkpt lat="43.6589095" lon="10.6577224"><ele>15.0</ele><time>2026-04-19T14:05:36.946Z</time></trkpt><trkpt lat="43.6586943" lon="10.6577331"><ele>15.0</ele><time>2026-04-19T14:05:37.946Z</time></trkpt><trkpt lat="43.6584779" lon="10.6577436"><ele>15.0</ele><time>2026-04-19T14:05:38.946Z</time></trkpt><trkpt lat="43.6582647" lon="10.6577564"><ele>15.0</ele><time>2026-04-19T14:05:39.946Z</time></trkpt><trkpt lat="43.6580608" lon="10.6577646"><ele>15.0</ele><time>2026-04-19T14:05:40.946Z</time></trkpt><trkpt lat="43.6578697" lon="10.6577738"><ele>15.0</ele><time>2026-04-19T14:05:41.946Z</time></trkpt><trkpt lat="43.6576786" lon="10.6577797"><ele>15.333333333333332</ele><time>2026-04-19T14:05:42.947Z</time></trkpt><trkpt lat="43.657495" lon="10.657791"><ele>15.666666666666666</ele><time>2026-04-19T14:05:43.946Z</time></trkpt><trkpt lat="43.6573156" lon="10.6578032"><ele>16.0</ele><time>2026-04-19T14:05:44.946Z</time></trkpt><trkpt lat="43.6571435" lon="10.6578027"><ele>16.0</ele><time>2026-04-19T14:05:45.946Z</time></trkpt><trkpt lat="43.656975" lon="10.6577957"><ele>16.0</ele><time>2026-04-19T14:05:46.946Z</time></trkpt><trkpt lat="43.6568118" lon="10.6577714"><ele>16.0</ele><time>2026-04-19T14:05:47.946Z</time></trkpt><trkpt lat="43.6566488" lon="10.6577317"><ele>16.0</ele><time>2026-04-19T14:05:48.946Z</time></trkpt><trkpt lat="43.6564899" lon="10.6576786"><ele>16.0</ele><time>2026-04-19T14:05:49.946Z</time></trkpt><trkpt lat="43.6563397" lon="10.6576135"><ele>16.0</ele><time>2026-04-19T14:05:50.946Z</time></trkpt><trkpt lat="43.6561914" lon="10.6575326"><ele>15.666666666666666</ele><time>2026-04-19T14:05:51.946Z</time></trkpt><trkpt lat="43.6560483" lon="10.6574383"><ele>15.333333333333332</ele><time>2026-04-19T14:05:52.946Z</time></trkpt><trkpt lat="43.6559158" lon="10.657335"><ele>15.0</ele><time>2026-04-19T14:05:53.946Z</time></trkpt><trkpt lat="43.6557834" lon="10.65722"><ele>15.0</ele><time>2026-04-19T14:05:54.946Z</time></trkpt><trkpt lat="43.6556647" lon="10.6570958"><ele>15.0</ele><time>2026-04-19T14:05:55.946Z</time></trkpt><trkpt lat="43.6555482" lon="10.6569698"><ele>15.0</ele><time>2026-04-19T14:05:56.947Z</time></trkpt><trkpt lat="43.65544" lon="10.6568412"><ele>15.0</ele><time>2026-04-19T14:05:57.946Z</time></trkpt><trkpt lat="43.655343" lon="10.6567095"><ele>15.0</ele><time>2026-04-19T14:05:58.946Z</time></trkpt><trkpt lat="43.6552528" lon="10.6565789"><ele>15.0</ele><time>2026-04-19T14:05:59.946Z</time></trkpt><trkpt lat="43.6551731" lon="10.6564602"><ele>15.0</ele><time>2026-04-19T14:06:00.946Z</time></trkpt><trkpt lat="43.6551093" lon="10.6563642"><ele>15.0</ele><time>2026-04-19T14:06:01.947Z</time></trkpt><trkpt lat="43.6550539" lon="10.656266"><ele>15.0</ele><time>2026-04-19T14:06:02.946Z</time></trkpt><trkpt lat="43.6550167" lon="10.6561748"><ele>15.0</ele><time>2026-04-19T14:06:03.947Z</time></trkpt><trkpt lat="43.6549897" lon="10.6560737"><ele>15.0</ele><time>2026-04-19T14:06:04.946Z</time></trkpt><trkpt lat="43.6549752" lon="10.6559735"><ele>15.0</ele><time>2026-04-19T14:06:05.946Z</time></trkpt><trkpt lat="43.6549612" lon="10.6558627"><ele>15.0</ele><time>2026-04-19T14:06:06.946Z</time></trkpt><trkpt lat="43.6549437" lon="10.6557477"><ele>15.0</ele><time>2026-04-19T14:06:07.946Z</time></trkpt><trkpt lat="43.6549152" lon="10.655628"><ele>15.0</ele><time>2026-04-19T14:06:08.946Z</time></trkpt><trkpt lat="43.6548742" lon="10.6555141"><ele>15.0</ele><time>2026-04-19T14:06:09.946Z</time></trkpt><trkpt lat="43.6548245" lon="10.6554162"><ele>15.0</ele><time>2026-04-19T14:06:10.946Z</time></trkpt><trkpt lat="43.6547641" lon="10.6553223"><ele>15.0</ele><time>2026-04-19T14:06:11.946Z</time></trkpt><trkpt lat="43.6546985" lon="10.6552311"><ele>15.0</ele><time>2026-04-19T14:06:12.946Z</time></trkpt><trkpt lat="43.6546292" lon="10.6551476"><ele>15.0</ele><time>2026-04-19T14:06:13.947Z</time></trkpt><trkpt lat="43.6545588" lon="10.6550699"><ele>15.0</ele><time>2026-04-19T14:06:14.946Z</time></trkpt><trkpt lat="43.6544801" lon="10.6550087"><ele>15.0</ele><time>2026-04-19T14:06:15.946Z</time></trkpt><trkpt lat="43.6543937" lon="10.6549696"><ele>15.0</ele><time>2026-04-19T14:06:16.946Z</time></trkpt><trkpt lat="43.6543012" lon="10.6549546"><ele>15.0</ele><time>2026-04-19T14:06:17.946Z</time></trkpt><trkpt lat="43.6542145" lon="10.6549706"><ele>15.0</ele><time>2026-04-19T14:06:18.946Z</time></trkpt><trkpt lat="43.654134" lon="10.6550121"><ele>15.0</ele><time>2026-04-19T14:06:19.946Z</time></trkpt><trkpt lat="43.654069" lon="10.6550802"><ele>15.0</ele><time>2026-04-19T14:06:20.946Z</time></trkpt><trkpt lat="43.6540149" lon="10.6551682"><ele>15.0</ele><time>2026-04-19T14:06:21.946Z</time></trkpt><trkpt lat="43.6539733" lon="10.6552718"><ele>15.0</ele><time>2026-04-19T14:06:22.947Z</time></trkpt><trkpt lat="43.6539515" lon="10.6553918"><ele>15.0</ele><time>2026-04-19T14:06:23.946Z</time></trkpt><trkpt lat="43.6539484" lon="10.6555207"><ele>15.0</ele><time>2026-04-19T14:06:24.946Z</time></trkpt><trkpt lat="43.6539551" lon="10.6556572"><ele>15.0</ele><time>2026-04-19T14:06:25.946Z</time></trkpt><trkpt lat="43.6539748" lon="10.6557934"><ele>15.0</ele><time>2026-04-19T14:06:26.946Z</time></trkpt><trkpt lat="43.6539934" lon="10.6559335"><ele>15.0</ele><time>2026-04-19T14:06:27.946Z</time></trkpt><trkpt lat="43.653987" lon="10.6560674"><ele>15.0</ele><time>2026-04-19T14:06:28.947Z</time></trkpt><trkpt lat="43.6539596" lon="10.6562027"><ele>15.0</ele><time>2026-04-19T14:06:29.946Z</time></trkpt><trkpt lat="43.653915" lon="10.656329"><ele>15.0</ele><time>2026-04-19T14:06:30.946Z</time></trkpt><trkpt lat="43.653861" lon="10.6564327"><ele>15.0</ele><time>2026-04-19T14:06:31.946Z</time></trkpt><trkpt lat="43.65379" lon="10.656528"><ele>15.0</ele><time>2026-04-19T14:06:32.946Z</time></trkpt><trkpt lat="43.6537123" lon="10.6566219"><ele>15.0</ele><time>2026-04-19T14:06:33.946Z</time></trkpt><trkpt lat="43.6536332" lon="10.6567262"><ele>15.0</ele><time>2026-04-19T14:06:34.946Z</time></trkpt><trkpt lat="43.6535502" lon="10.6568185"><ele>16.5</ele><time>2026-04-19T14:06:35.946Z</time></trkpt><trkpt lat="43.6534592" lon="10.6569114"><ele>18.0</ele><time>2026-04-19T14:06:36.946Z</time></trkpt><trkpt lat="43.6533742" lon="10.6570057"><ele>19.5</ele><time>2026-04-19T14:06:37.947Z</time></trkpt><trkpt lat="43.6532812" lon="10.6571085"><ele>21.0</ele><time>2026-04-19T14:06:38.946Z</time></trkpt><trkpt lat="43.6531786" lon="10.6572088"><ele>21.25</ele><time>2026-04-19T14:06:39.946Z</time></trkpt><trkpt lat="43.6530698" lon="10.6573228"><ele>21.5</ele><time>2026-04-19T14:06:40.946Z</time></trkpt><trkpt lat="43.6529643" lon="10.6574337"><ele>21.75</ele><time>2026-04-19T14:06:41.946Z</time></trkpt><trkpt lat="43.6528641" lon="10.6575466"><ele>22.0</ele><time>2026-04-19T14:06:42.946Z</time></trkpt><trkpt lat="43.6527612" lon="10.65766"><ele>22.25</ele><time>2026-04-19T14:06:43.946Z</time></trkpt><trkpt lat="43.6526611" lon="10.6577689"><ele>22.5</ele><time>2026-04-19T14:06:44.946Z</time></trkpt><trkpt lat="43.6525609" lon="10.6578736"><ele>22.75</ele><time>2026-04-19T14:06:45.946Z</time></trkpt><trkpt lat="43.6524596" lon="10.6579778"><ele>23.0</ele><time>2026-04-19T14:06:46.946Z</time></trkpt><trkpt lat="43.6523657" lon="10.6580763"><ele>23.0</ele><time>2026-04-19T14:06:47.946Z</time></trkpt><trkpt lat="43.6522772" lon="10.6581749"><ele>23.0</ele><time>2026-04-19T14:06:48.946Z</time></trkpt><trkpt lat="43.6521919" lon="10.6582803"><ele>23.0</ele><time>2026-04-19T14:06:49.946Z</time></trkpt><trkpt lat="43.6521063" lon="10.6584001"><ele>23.0</ele><time>2026-04-19T14:06:50.946Z</time></trkpt><trkpt lat="43.6520334" lon="10.6585321"><ele>22.0</ele><time>2026-04-19T14:06:51.946Z</time></trkpt><trkpt lat="43.6519704" lon="10.6586703"><ele>21.0</ele><time>2026-04-19T14:06:52.946Z</time></trkpt><trkpt lat="43.6519197" lon="10.6588094"><ele>20.0</ele><time>2026-04-19T14:06:53.946Z</time></trkpt><trkpt lat="43.6518752" lon="10.6589574"><ele>19.0</ele><time>2026-04-19T14:06:54.946Z</time></trkpt><trkpt lat="43.6518333" lon="10.6591101"><ele>18.75</ele><time>2026-04-19T14:06:55.946Z</time></trkpt><trkpt lat="43.651805" lon="10.6592689"><ele>18.5</ele><time>2026-04-19T14:06:56.946Z</time></trkpt><trkpt lat="43.6517879" lon="10.6594268"><ele>18.25</ele><time>2026-04-19T14:06:57.946Z</time></trkpt><trkpt lat="43.6517871" lon="10.6595852"><ele>18.0</ele><time>2026-04-19T14:06:58.946Z</time></trkpt><trkpt lat="43.6517993" lon="10.65974"><ele>18.0</ele><time>2026-04-19T14:06:59.946Z</time></trkpt><trkpt lat="43.6518326" lon="10.6598904"><ele>18.0</ele><time>2026-04-19T14:07:00.946Z</time></trkpt><trkpt lat="43.6518858" lon="10.6600257"><ele>18.0</ele><time>2026-04-19T14:07:01.947Z</time></trkpt><trkpt lat="43.6519565" lon="10.6601471"><ele>18.0</ele><time>2026-04-19T14:07:02.946Z</time></trkpt><trkpt lat="43.6520422" lon="10.6602454"><ele>18.0</ele><time>2026-04-19T14:07:03.946Z</time></trkpt><trkpt lat="43.6521397" lon="10.660328"><ele>17.5</ele><time>2026-04-19T14:07:04.946Z</time></trkpt><trkpt lat="43.6522495" lon="10.6603758"><ele>17.0</ele><time>2026-04-19T14:07:05.946Z</time></trkpt><trkpt lat="43.6523784" lon="10.6604"><ele>16.5</ele><time>2026-04-19T14:07:06.946Z</time></trkpt><trkpt lat="43.6525115" lon="10.6604038"><ele>16.0</ele><time>2026-04-19T14:07:07.946Z</time></trkpt><trkpt lat="43.6526407" lon="10.6604069"><ele>16.0</ele><time>2026-04-19T14:07:08.946Z</time></trkpt><trkpt lat="43.6527695" lon="10.6604051"><ele>16.0</ele><time>2026-04-19T14:07:09.946Z</time></trkpt><trkpt lat="43.652896" lon="10.6604002"><ele>16.0</ele><time>2026-04-19T14:07:10.946Z</time></trkpt><trkpt lat="43.6530093" lon="10.6603858"><ele>16.0</ele><time>2026-04-19T14:07:11.946Z</time></trkpt><trkpt lat="43.6531348" lon="10.6603814"><ele>15.75</ele><time>2026-04-19T14:07:12.946Z</time></trkpt><trkpt lat="43.6532515" lon="10.6604039"><ele>15.5</ele><time>2026-04-19T14:07:13.946Z</time></trkpt><trkpt lat="43.6533651" lon="10.6604321"><ele>15.25</ele><time>2026-04-19T14:07:14.946Z</time></trkpt><trkpt lat="43.6534822" lon="10.6604846"><ele>15.0</ele><time>2026-04-19T14:07:15.946Z</time></trkpt><trkpt lat="43.6535882" lon="10.6605673"><ele>15.5</ele><time>2026-04-19T14:07:16.947Z</time></trkpt><trkpt lat="43.6536908" lon="10.6606866"><ele>16.0</ele><time>2026-04-19T14:07:17.946Z</time></trkpt><trkpt lat="43.6537868" lon="10.660844"><ele>16.5</ele><time>2026-04-19T14:07:18.946Z</time></trkpt><trkpt lat="43.6538897" lon="10.6610221"><ele>17.0</ele><time>2026-04-19T14:07:19.947Z</time></trkpt><trkpt lat="43.6539889" lon="10.661209"><ele>17.666666666666668</ele><time>2026-04-19T14:07:20.946Z</time></trkpt><trkpt lat="43.6540828" lon="10.6614001"><ele>18.333333333333332</ele><time>2026-04-19T14:07:21.946Z</time></trkpt><trkpt lat="43.6541858" lon="10.6616085"><ele>19.0</ele><time>2026-04-19T14:07:22.947Z</time></trkpt><trkpt lat="43.6543039" lon="10.6618696"><ele>19.0</ele><time>2026-04-19T14:07:23.946Z</time></trkpt><trkpt lat="43.6544062" lon="10.6621156"><ele>19.0</ele><time>2026-04-19T14:07:24.946Z</time></trkpt><trkpt lat="43.6545034" lon="10.6623614"><ele>19.0</ele><time>2026-04-19T14:07:25.946Z</time></trkpt><trkpt lat="43.6545903" lon="10.6626186"><ele>17.333333333333332</ele><time>2026-04-19T14:07:26.946Z</time></trkpt><trkpt lat="43.654674" lon="10.6628832"><ele>15.666666666666668</ele><time>2026-04-19T14:07:27.946Z</time></trkpt><trkpt lat="43.6547534" lon="10.6631571"><ele>14.0</ele><time>2026-04-19T14:07:28.946Z</time></trkpt><trkpt lat="43.6548306" lon="10.6634378"><ele>13.666666666666668</ele><time>2026-04-19T14:07:29.946Z</time></trkpt><trkpt lat="43.6548955" lon="10.6637168"><ele>13.333333333333332</ele><time>2026-04-19T14:07:30.946Z</time></trkpt><trkpt lat="43.6549599" lon="10.6639826"><ele>13.0</ele><time>2026-04-19T14:07:31.946Z</time></trkpt><trkpt lat="43.6550118" lon="10.664254"><ele>13.0</ele><time>2026-04-19T14:07:32.946Z</time></trkpt><trkpt lat="43.6550668" lon="10.664521"><ele>13.0</ele><time>2026-04-19T14:07:33.946Z</time></trkpt><trkpt lat="43.6551066" lon="10.6647888"><ele>13.0</ele><time>2026-04-19T14:07:34.947Z</time></trkpt><trkpt lat="43.6551478" lon="10.6650588"><ele>13.666666666666666</ele><time>2026-04-19T14:07:35.947Z</time></trkpt><trkpt lat="43.6551853" lon="10.665331"><ele>14.333333333333332</ele><time>2026-04-19T14:07:36.946Z</time></trkpt><trkpt lat="43.6552155" lon="10.6655944"><ele>15.0</ele><time>2026-04-19T14:07:37.946Z</time></trkpt><trkpt lat="43.6552403" lon="10.6658629"><ele>15.0</ele><time>2026-04-19T14:07:38.946Z</time></trkpt><trkpt lat="43.6552591" lon="10.6661252"><ele>15.0</ele><time>2026-04-19T14:07:39.946Z</time></trkpt><trkpt lat="43.6552794" lon="10.6663893"><ele>15.0</ele><time>2026-04-19T14:07:40.946Z</time></trkpt><trkpt lat="43.655289" lon="10.66666"><ele>15.0</ele><time>2026-04-19T14:07:41.946Z</time></trkpt><trkpt lat="43.6552923" lon="10.6669268"><ele>15.0</ele><time>2026-04-19T14:07:42.946Z</time></trkpt><trkpt lat="43.6552901" lon="10.6671975"><ele>15.0</ele><time>2026-04-19T14:07:43.946Z</time></trkpt><trkpt lat="43.6552795" lon="10.6674659"><ele>16.0</ele><time>2026-04-19T14:07:44.946Z</time></trkpt><trkpt lat="43.6552719" lon="10.6677309"><ele>17.0</ele><time>2026-04-19T14:07:45.947Z</time></trkpt><trkpt lat="43.6552607" lon="10.6679957"><ele>18.0</ele><time>2026-04-19T14:07:46.947Z</time></trkpt><trkpt lat="43.6552432" lon="10.6682579"><ele>18.0</ele><time>2026-04-19T14:07:47.946Z</time></trkpt><trkpt lat="43.655221" lon="10.6685204"><ele>18.0</ele><time>2026-04-19T14:07:48.947Z</time></trkpt><trkpt lat="43.6551959" lon="10.6687826"><ele>18.0</ele><time>2026-04-19T14:07:49.946Z</time></trkpt><trkpt lat="43.6551655" lon="10.6690498"><ele>18.0</ele><time>2026-04-19T14:07:50.946Z</time></trkpt><trkpt lat="43.6551286" lon="10.6693144"><ele>18.0</ele><time>2026-04-19T14:07:51.946Z</time></trkpt><trkpt lat="43.6550885" lon="10.6695874"><ele>18.0</ele><time>2026-04-19T14:07:52.946Z</time></trkpt><trkpt lat="43.6550468" lon="10.6698639"><ele>18.0</ele><time>2026-04-19T14:07:53.946Z</time></trkpt><trkpt lat="43.6549999" lon="10.6701366"><ele>18.0</ele><time>2026-04-19T14:07:54.946Z</time></trkpt><trkpt lat="43.6549479" lon="10.6704104"><ele>18.0</ele><time>2026-04-19T14:07:55.946Z</time></trkpt><trkpt lat="43.6548952" lon="10.6706902"><ele>18.333333333333332</ele><time>2026-04-19T14:07:56.947Z</time></trkpt><trkpt lat="43.654838" lon="10.670974"><ele>18.666666666666664</ele><time>2026-04-19T14:07:57.946Z</time></trkpt><trkpt lat="43.6547775" lon="10.6712627"><ele>19.0</ele><time>2026-04-19T14:07:58.947Z</time></trkpt><trkpt lat="43.6547081" lon="10.6715496"><ele>19.0</ele><time>2026-04-19T14:07:59.946Z</time></trkpt><trkpt lat="43.6546336" lon="10.6718308"><ele>19.0</ele><time>2026-04-19T14:08:00.946Z</time></trkpt><trkpt lat="43.6545514" lon="10.6721125"><ele>19.0</ele><time>2026-04-19T14:08:01.946Z</time></trkpt><trkpt lat="43.6544698" lon="10.6723947"><ele>18.333333333333332</ele><time>2026-04-19T14:08:02.946Z</time></trkpt><trkpt lat="43.65439" lon="10.6726836"><ele>17.666666666666668</ele><time>2026-04-19T14:08:03.946Z</time></trkpt><trkpt lat="43.6543171" lon="10.6729665"><ele>17.0</ele><time>2026-04-19T14:08:04.947Z</time></trkpt><trkpt lat="43.6542462" lon="10.6732475"><ele>17.0</ele><time>2026-04-19T14:08:05.946Z</time></trkpt><trkpt lat="43.6541804" lon="10.6735291"><ele>17.0</ele><time>2026-04-19T14:08:06.946Z</time></trkpt><trkpt lat="43.6541178" lon="10.6738146"><ele>17.0</ele><time>2026-04-19T14:08:07.946Z</time></trkpt><trkpt lat="43.65406" lon="10.6740982"><ele>17.666666666666668</ele><time>2026-04-19T14:08:08.946Z</time></trkpt><trkpt lat="43.6540042" lon="10.6743857"><ele>18.333333333333332</ele><time>2026-04-19T14:08:09.946Z</time></trkpt><trkpt lat="43.6539508" lon="10.6746728"><ele>19.0</ele><time>2026-04-19T14:08:10.946Z</time></trkpt><trkpt lat="43.6539048" lon="10.674959"><ele>19.333333333333332</ele><time>2026-04-19T14:08:11.946Z</time></trkpt><trkpt lat="43.6538618" lon="10.6752498"><ele>19.666666666666668</ele><time>2026-04-19T14:08:12.946Z</time></trkpt><trkpt lat="43.6538267" lon="10.6755399"><ele>20.0</ele><time>2026-04-19T14:08:13.946Z</time></trkpt><trkpt lat="43.6537967" lon="10.6758274"><ele>20.0</ele><time>2026-04-19T14:08:14.946Z</time></trkpt><trkpt lat="43.653771" lon="10.676122"><ele>20.0</ele><time>2026-04-19T14:08:15.946Z</time></trkpt><trkpt lat="43.6537504" lon="10.6764157"><ele>20.0</ele><time>2026-04-19T14:08:16.946Z</time></trkpt><trkpt lat="43.6537386" lon="10.676709"><ele>20.0</ele><time>2026-04-19T14:08:17.946Z</time></trkpt><trkpt lat="43.6537308" lon="10.6770033"><ele>20.0</ele><time>2026-04-19T14:08:18.946Z</time></trkpt><trkpt lat="43.6537307" lon="10.6772978"><ele>20.0</ele><time>2026-04-19T14:08:19.946Z</time></trkpt><trkpt lat="43.6537416" lon="10.6775938"><ele>20.666666666666668</ele><time>2026-04-19T14:08:20.947Z</time></trkpt><trkpt lat="43.6537567" lon="10.6778859"><ele>21.333333333333332</ele><time>2026-04-19T14:08:21.946Z</time></trkpt><trkpt lat="43.653783" lon="10.6781739"><ele>22.0</ele><time>2026-04-19T14:08:22.947Z</time></trkpt><trkpt lat="43.6538161" lon="10.6784573"><ele>22.0</ele><time>2026-04-19T14:08:23.946Z</time></trkpt><trkpt lat="43.6538524" lon="10.6787442"><ele>22.0</ele><time>2026-04-19T14:08:24.947Z</time></trkpt><trkpt lat="43.653899" lon="10.6790281"><ele>22.0</ele><time>2026-04-19T14:08:25.946Z</time></trkpt><trkpt lat="43.6539494" lon="10.6793131"><ele>22.666666666666664</ele><time>2026-04-19T14:08:26.946Z</time></trkpt><trkpt lat="43.6540029" lon="10.6795908"><ele>23.333333333333332</ele><time>2026-04-19T14:08:27.946Z</time></trkpt><trkpt lat="43.654066" lon="10.6798726"><ele>24.0</ele><time>2026-04-19T14:08:28.946Z</time></trkpt><trkpt lat="43.654132" lon="10.6801547"><ele>24.666666666666664</ele><time>2026-04-19T14:08:29.946Z</time></trkpt><trkpt lat="43.6542096" lon="10.680428"><ele>25.333333333333332</ele><time>2026-04-19T14:08:30.946Z</time></trkpt><trkpt lat="43.6542945" lon="10.6806975"><ele>26.0</ele><time>2026-04-19T14:08:31.946Z</time></trkpt><trkpt lat="43.654385" lon="10.6809638"><ele>31.333333333333332</ele><time>2026-04-19T14:08:32.946Z</time></trkpt><trkpt lat="43.6544823" lon="10.6812279"><ele>36.666666666666664</ele><time>2026-04-19T14:08:33.947Z</time></trkpt><trkpt lat="43.6545908" lon="10.6814912"><ele>42.0</ele><time>2026-04-19T14:08:34.947Z</time></trkpt><trkpt lat="43.6547001" lon="10.6817427"><ele>41.666666666666664</ele><time>2026-04-19T14:08:35.946Z</time></trkpt><trkpt lat="43.6548215" lon="10.6819947"><ele>41.33333333333333</ele><time>2026-04-19T14:08:36.947Z</time></trkpt><trkpt lat="43.6549481" lon="10.6822408"><ele>41.0</ele><time>2026-04-19T14:08:37.946Z</time></trkpt><trkpt lat="43.6550834" lon="10.682482"><ele>41.0</ele><time>2026-04-19T14:08:38.946Z</time></trkpt><trkpt lat="43.6552265" lon="10.6827156"><ele>41.0</ele><time>2026-04-19T14:08:39.946Z</time></trkpt><trkpt lat="43.6553696" lon="10.6829487"><ele>41.0</ele><time>2026-04-19T14:08:40.946Z</time></trkpt><trkpt lat="43.65552" lon="10.6831727"><ele>40.666666666666664</ele><time>2026-04-19T14:08:41.946Z</time></trkpt><trkpt lat="43.6556669" lon="10.6833955"><ele>40.333333333333336</ele><time>2026-04-19T14:08:42.946Z</time></trkpt><trkpt lat="43.6558119" lon="10.6836064"><ele>40.0</ele><time>2026-04-19T14:08:43.946Z</time></trkpt><trkpt lat="43.6559627" lon="10.68383"><ele>39.333333333333336</ele><time>2026-04-19T14:08:44.946Z</time></trkpt><trkpt lat="43.6561098" lon="10.6840514"><ele>38.666666666666664</ele><time>2026-04-19T14:08:45.947Z</time></trkpt><trkpt lat="43.6562547" lon="10.6842725"><ele>38.0</ele><time>2026-04-19T14:08:46.946Z</time></trkpt><trkpt lat="43.6564003" lon="10.6844956"><ele>38.0</ele><time>2026-04-19T14:08:47.946Z</time></trkpt><trkpt lat="43.6565444" lon="10.6847158"><ele>38.0</ele><time>2026-04-19T14:08:48.946Z</time></trkpt><trkpt lat="43.6566869" lon="10.6849391"><ele>38.0</ele><time>2026-04-19T14:08:49.946Z</time></trkpt><trkpt lat="43.656828" lon="10.6851692"><ele>34.33333333333333</ele><time>2026-04-19T14:08:50.946Z</time></trkpt><trkpt lat="43.6569614" lon="10.6854056"><ele>30.666666666666664</ele><time>2026-04-19T14:08:51.946Z</time></trkpt><trkpt lat="43.6570936" lon="10.6856436"><ele>27.0</ele><time>2026-04-19T14:08:52.946Z</time></trkpt><trkpt lat="43.6572155" lon="10.6858863"><ele>28.0</ele><time>2026-04-19T14:08:53.946Z</time></trkpt><trkpt lat="43.6573281" lon="10.6861465"><ele>29.0</ele><time>2026-04-19T14:08:54.946Z</time></trkpt><trkpt lat="43.657422" lon="10.68641"><ele>30.0</ele><time>2026-04-19T14:08:55.946Z</time></trkpt><trkpt lat="43.6575109" lon="10.6866756"><ele>27.333333333333332</ele><time>2026-04-19T14:08:56.946Z</time></trkpt><trkpt lat="43.6575896" lon="10.6869565"><ele>24.666666666666664</ele><time>2026-04-19T14:08:57.947Z</time></trkpt><trkpt lat="43.6576565" lon="10.6872316"><ele>22.0</ele><time>2026-04-19T14:08:58.946Z</time></trkpt><trkpt lat="43.6577246" lon="10.6875159"><ele>20.333333333333332</ele><time>2026-04-19T14:08:59.946Z</time></trkpt><trkpt lat="43.6577909" lon="10.6877966"><ele>18.666666666666668</ele><time>2026-04-19T14:09:00.946Z</time></trkpt><trkpt lat="43.6578531" lon="10.6880814"><ele>17.0</ele><time>2026-04-19T14:09:01.946Z</time></trkpt><trkpt lat="43.6579195" lon="10.6883577"><ele>17.666666666666668</ele><time>2026-04-19T14:09:02.946Z</time></trkpt><trkpt lat="43.6579861" lon="10.6886438"><ele>18.333333333333332</ele><time>2026-04-19T14:09:03.946Z</time></trkpt><trkpt lat="43.658053" lon="10.6889243"><ele>19.0</ele><time>2026-04-19T14:09:04.946Z</time></trkpt><trkpt lat="43.6581176" lon="10.6892044"><ele>18.666666666666664</ele><time>2026-04-19T14:09:05.946Z</time></trkpt><trkpt lat="43.6581841" lon="10.6894826"><ele>18.333333333333332</ele><time>2026-04-19T14:09:06.947Z</time></trkpt><trkpt lat="43.6582491" lon="10.6897634"><ele>18.0</ele><time>2026-04-19T14:09:07.946Z</time></trkpt><trkpt lat="43.6583156" lon="10.6900429"><ele>19.0</ele><time>2026-04-19T14:09:08.946Z</time></trkpt><trkpt lat="43.6583778" lon="10.6903246"><ele>20.0</ele><time>2026-04-19T14:09:09.946Z</time></trkpt><trkpt lat="43.6584359" lon="10.6906044"><ele>21.0</ele><time>2026-04-19T14:09:10.946Z</time></trkpt><trkpt lat="43.6585005" lon="10.6908837"><ele>22.333333333333336</ele><time>2026-04-19T14:09:11.946Z</time></trkpt><trkpt lat="43.6585659" lon="10.6911608"><ele>23.666666666666668</ele><time>2026-04-19T14:09:12.946Z</time></trkpt><trkpt lat="43.6586335" lon="10.6914352"><ele>25.0</ele><time>2026-04-19T14:09:13.946Z</time></trkpt><trkpt lat="43.6586992" lon="10.6917116"><ele>28.0</ele><time>2026-04-19T14:09:14.946Z</time></trkpt><trkpt lat="43.6587613" lon="10.6919905"><ele>31.0</ele><time>2026-04-19T14:09:15.947Z</time></trkpt><trkpt lat="43.6588277" lon="10.6922695"><ele>34.0</ele><time>2026-04-19T14:09:16.946Z</time></trkpt><trkpt lat="43.6588921" lon="10.692546"><ele>34.66666666666667</ele><time>2026-04-19T14:09:17.946Z</time></trkpt><trkpt lat="43.6589603" lon="10.6928312"><ele>35.333333333333336</ele><time>2026-04-19T14:09:18.946Z</time></trkpt><trkpt lat="43.65902" lon="10.6931071"><ele>36.0</ele><time>2026-04-19T14:09:19.946Z</time></trkpt><trkpt lat="43.6590772" lon="10.6933674"><ele>37.333333333333336</ele><time>2026-04-19T14:09:20.947Z</time></trkpt><trkpt lat="43.6591389" lon="10.6936185"><ele>38.66666666666667</ele><time>2026-04-19T14:09:21.946Z</time></trkpt><trkpt lat="43.6591978" lon="10.6938616"><ele>40.0</ele><time>2026-04-19T14:09:22.946Z</time></trkpt><trkpt lat="43.659247" lon="10.6941102"><ele>40.0</ele><time>2026-04-19T14:09:23.946Z</time></trkpt><trkpt lat="43.6592992" lon="10.6943602"><ele>40.0</ele><time>2026-04-19T14:09:24.946Z</time></trkpt><trkpt lat="43.6593614" lon="10.6946103"><ele>40.0</ele><time>2026-04-19T14:09:25.946Z</time></trkpt><trkpt lat="43.6594178" lon="10.6948657"><ele>41.0</ele><time>2026-04-19T14:09:26.946Z</time></trkpt><trkpt lat="43.6594759" lon="10.6951157"><ele>42.0</ele><time>2026-04-19T14:09:27.947Z</time></trkpt><trkpt lat="43.6595314" lon="10.6953641"><ele>43.0</ele><time>2026-04-19T14:09:28.947Z</time></trkpt><trkpt lat="43.6595896" lon="10.6956145"><ele>43.0</ele><time>2026-04-19T14:09:29.946Z</time></trkpt><trkpt lat="43.6596484" lon="10.6958675"><ele>43.0</ele><time>2026-04-19T14:09:30.946Z</time></trkpt><trkpt lat="43.6597064" lon="10.6961135"><ele>43.0</ele><time>2026-04-19T14:09:31.946Z</time></trkpt><trkpt lat="43.6597633" lon="10.6963589"><ele>44.333333333333336</ele><time>2026-04-19T14:09:32.946Z</time></trkpt><trkpt lat="43.6598158" lon="10.6966019"><ele>45.666666666666664</ele><time>2026-04-19T14:09:33.946Z</time></trkpt><trkpt lat="43.6598736" lon="10.6968377"><ele>47.0</ele><time>2026-04-19T14:09:34.946Z</time></trkpt><trkpt lat="43.6599306" lon="10.6970711"><ele>48.666666666666664</ele><time>2026-04-19T14:09:35.946Z</time></trkpt><trkpt lat="43.6599883" lon="10.6973036"><ele>50.33333333333333</ele><time>2026-04-19T14:09:36.946Z</time></trkpt><trkpt lat="43.6600407" lon="10.6975344"><ele>52.0</ele><time>2026-04-19T14:09:37.946Z</time></trkpt><trkpt lat="43.6600946" lon="10.697765"><ele>52.5</ele><time>2026-04-19T14:09:38.946Z</time></trkpt><trkpt lat="43.6601486" lon="10.6979981"><ele>53.0</ele><time>2026-04-19T14:09:39.946Z</time></trkpt><trkpt lat="43.6603331" lon="10.6987839"><ele>49.66666666666667</ele><time>2026-04-19T14:09:42.946Z</time></trkpt><trkpt lat="43.6603933" lon="10.6990129"><ele>46.333333333333336</ele><time>2026-04-19T14:09:43.946Z</time></trkpt><trkpt lat="43.6604617" lon="10.6992872"><ele>43.0</ele><time>2026-04-19T14:09:44.947Z</time></trkpt><trkpt lat="43.6605276" lon="10.6995363"><ele>43.0</ele><time>2026-04-19T14:09:45.946Z</time></trkpt><trkpt lat="43.660589" lon="10.6997934"><ele>43.0</ele><time>2026-04-19T14:09:46.946Z</time></trkpt><trkpt lat="43.660654" lon="10.7000556"><ele>43.0</ele><time>2026-04-19T14:09:47.946Z</time></trkpt><trkpt lat="43.6607277" lon="10.7003049"><ele>43.0</ele><time>2026-04-19T14:09:48.947Z</time></trkpt><trkpt lat="43.6608137" lon="10.7005575"><ele>43.0</ele><time>2026-04-19T14:09:49.946Z</time></trkpt><trkpt lat="43.6609" lon="10.7008067"><ele>43.0</ele><time>2026-04-19T14:09:50.946Z</time></trkpt><trkpt lat="43.660989" lon="10.7010546"><ele>43.0</ele><time>2026-04-19T14:09:51.946Z</time></trkpt><trkpt lat="43.661083" lon="10.7012934"><ele>43.0</ele><time>2026-04-19T14:09:52.946Z</time></trkpt><trkpt lat="43.6611886" lon="10.7015387"><ele>43.0</ele><time>2026-04-19T14:09:53.946Z</time></trkpt><trkpt lat="43.6612938" lon="10.7017768"><ele>41.333333333333336</ele><time>2026-04-19T14:09:54.946Z</time></trkpt><trkpt lat="43.6613997" lon="10.7020065"><ele>39.666666666666664</ele><time>2026-04-19T14:09:55.946Z</time></trkpt><trkpt lat="43.6615333" lon="10.7022708"><ele>38.0</ele><time>2026-04-19T14:09:56.946Z</time></trkpt><trkpt lat="43.6616252" lon="10.7025108"><ele>38.0</ele><time>2026-04-19T14:09:57.947Z</time></trkpt><trkpt lat="43.6617371" lon="10.7027381"><ele>38.0</ele><time>2026-04-19T14:09:58.946Z</time></trkpt><trkpt lat="43.6618522" lon="10.7029676"><ele>38.0</ele><time>2026-04-19T14:09:59.946Z</time></trkpt><trkpt lat="43.6619543" lon="10.7031891"><ele>35.666666666666664</ele><time>2026-04-19T14:10:00.946Z</time></trkpt><trkpt lat="43.6620573" lon="10.7034244"><ele>33.333333333333336</ele><time>2026-04-19T14:10:01.946Z</time></trkpt><trkpt lat="43.6621755" lon="10.7036584"><ele>31.0</ele><time>2026-04-19T14:10:02.947Z</time></trkpt><trkpt lat="43.6622942" lon="10.703907"><ele>30.0</ele><time>2026-04-19T14:10:03.946Z</time></trkpt><trkpt lat="43.6624205" lon="10.7041641"><ele>29.0</ele><time>2026-04-19T14:10:04.947Z</time></trkpt><trkpt lat="43.6625428" lon="10.7044425"><ele>29.5</ele><time>2026-04-19T14:10:05.946Z</time></trkpt><trkpt lat="43.6626629" lon="10.7047237"><ele>30.0</ele><time>2026-04-19T14:10:06.947Z</time></trkpt><trkpt lat="43.6627832" lon="10.7050143"><ele>28.0</ele><time>2026-04-19T14:10:07.946Z</time></trkpt><trkpt lat="43.6629033" lon="10.7053164"><ele>26.0</ele><time>2026-04-19T14:10:08.946Z</time></trkpt><trkpt lat="43.6630222" lon="10.7056166"><ele>26.0</ele><time>2026-04-19T14:10:09.946Z</time></trkpt><trkpt lat="43.6631422" lon="10.7059225"><ele>26.0</ele><time>2026-04-19T14:10:10.946Z</time></trkpt><trkpt lat="43.6632649" lon="10.7062242"><ele>25.5</ele><time>2026-04-19T14:10:11.947Z</time></trkpt><trkpt lat="43.6633849" lon="10.7065214"><ele>25.0</ele><time>2026-04-19T14:10:12.946Z</time></trkpt><trkpt lat="43.6634948" lon="10.7068107"><ele>25.0</ele><time>2026-04-19T14:10:13.946Z</time></trkpt><trkpt lat="43.6636107" lon="10.7070975"><ele>25.0</ele><time>2026-04-19T14:10:14.946Z</time></trkpt><trkpt lat="43.6637267" lon="10.7073833"><ele>25.0</ele><time>2026-04-19T14:10:15.946Z</time></trkpt><trkpt lat="43.6638356" lon="10.7076602"><ele>25.0</ele><time>2026-04-19T14:10:16.946Z</time></trkpt><trkpt lat="43.6639631" lon="10.7079322"><ele>25.0</ele><time>2026-04-19T14:10:17.946Z</time></trkpt><trkpt lat="43.6641017" lon="10.7081906"><ele>25.0</ele><time>2026-04-19T14:10:18.946Z</time></trkpt><trkpt lat="43.6642442" lon="10.7084478"><ele>24.5</ele><time>2026-04-19T14:10:19.946Z</time></trkpt><trkpt lat="43.6643967" lon="10.7087033"><ele>24.0</ele><time>2026-04-19T14:10:20.946Z</time></trkpt><trkpt lat="43.6645626" lon="10.7089483"><ele>24.0</ele><time>2026-04-19T14:10:21.946Z</time></trkpt><trkpt lat="43.6647333" lon="10.7091835"><ele>24.0</ele><time>2026-04-19T14:10:22.946Z</time></trkpt><trkpt lat="43.6649127" lon="10.7094158"><ele>24.5</ele><time>2026-04-19T14:10:23.946Z</time></trkpt><trkpt lat="43.6651008" lon="10.7096301"><ele>25.0</ele><time>2026-04-19T14:10:24.946Z</time></trkpt><trkpt lat="43.6652967" lon="10.7098274"><ele>23.0</ele><time>2026-04-19T14:10:25.946Z</time></trkpt><trkpt lat="43.6654964" lon="10.710014"><ele>21.0</ele><time>2026-04-19T14:10:26.947Z</time></trkpt><trkpt lat="43.6657028" lon="10.7101963"><ele>21.0</ele><time>2026-04-19T14:10:27.946Z</time></trkpt><trkpt lat="43.6659106" lon="10.7103709"><ele>21.0</ele><time>2026-04-19T14:10:28.946Z</time></trkpt><trkpt lat="43.666122" lon="10.7105418"><ele>21.0</ele><time>2026-04-19T14:10:29.947Z</time></trkpt><trkpt lat="43.6663363" lon="10.7107156"><ele>21.0</ele><time>2026-04-19T14:10:30.947Z</time></trkpt><trkpt lat="43.6665485" lon="10.7108902"><ele>21.0</ele><time>2026-04-19T14:10:31.946Z</time></trkpt><trkpt lat="43.6667574" lon="10.7110655"><ele>21.0</ele><time>2026-04-19T14:10:32.946Z</time></trkpt><trkpt lat="43.6669649" lon="10.7112471"><ele>20.0</ele><time>2026-04-19T14:10:33.946Z</time></trkpt><trkpt lat="43.6671688" lon="10.7114315"><ele>19.0</ele><time>2026-04-19T14:10:34.946Z</time></trkpt><trkpt lat="43.6673722" lon="10.7116227"><ele>19.0</ele><time>2026-04-19T14:10:35.946Z</time></trkpt><trkpt lat="43.6675721" lon="10.7118172"><ele>19.0</ele><time>2026-04-19T14:10:36.946Z</time></trkpt><trkpt lat="43.6677649" lon="10.712026"><ele>20.0</ele><time>2026-04-19T14:10:37.946Z</time></trkpt><trkpt lat="43.6679515" lon="10.712245"><ele>21.0</ele><time>2026-04-19T14:10:38.946Z</time></trkpt><trkpt lat="43.6681338" lon="10.7124742"><ele>21.0</ele><time>2026-04-19T14:10:39.946Z</time></trkpt><trkpt lat="43.6683048" lon="10.7127116"><ele>21.0</ele><time>2026-04-19T14:10:40.946Z</time></trkpt><trkpt lat="43.6684705" lon="10.712956"><ele>20.0</ele><time>2026-04-19T14:10:41.946Z</time></trkpt><trkpt lat="43.66863" lon="10.7132134"><ele>19.0</ele><time>2026-04-19T14:10:42.946Z</time></trkpt><trkpt lat="43.6687802" lon="10.7134791"><ele>19.0</ele><time>2026-04-19T14:10:43.946Z</time></trkpt><trkpt lat="43.6689204" lon="10.7137542"><ele>19.0</ele><time>2026-04-19T14:10:44.946Z</time></trkpt><trkpt lat="43.6690568" lon="10.7140337"><ele>19.0</ele><time>2026-04-19T14:10:45.946Z</time></trkpt><trkpt lat="43.6691895" lon="10.7143168"><ele>19.0</ele><time>2026-04-19T14:10:46.946Z</time></trkpt><trkpt lat="43.6693098" lon="10.7146108"><ele>19.0</ele><time>2026-04-19T14:10:47.946Z</time></trkpt><trkpt lat="43.6694145" lon="10.7149065"><ele>19.0</ele><time>2026-04-19T14:10:48.946Z</time></trkpt><trkpt lat="43.6695162" lon="10.7152025"><ele>19.333333333333332</ele><time>2026-04-19T14:10:49.946Z</time></trkpt><trkpt lat="43.6695971" lon="10.7154893"><ele>19.666666666666668</ele><time>2026-04-19T14:10:50.946Z</time></trkpt><trkpt lat="43.6696748" lon="10.7157657"><ele>20.0</ele><time>2026-04-19T14:10:51.946Z</time></trkpt><trkpt lat="43.6697497" lon="10.7160368"><ele>20.0</ele><time>2026-04-19T14:10:52.946Z</time></trkpt><trkpt lat="43.6698212" lon="10.716308"><ele>20.0</ele><time>2026-04-19T14:10:53.946Z</time></trkpt><trkpt lat="43.6698938" lon="10.716572"><ele>20.0</ele><time>2026-04-19T14:10:54.946Z</time></trkpt><trkpt lat="43.669959" lon="10.7168351"><ele>20.0</ele><time>2026-04-19T14:10:55.946Z</time></trkpt><trkpt lat="43.6700211" lon="10.7171111"><ele>20.0</ele><time>2026-04-19T14:10:56.946Z</time></trkpt><trkpt lat="43.670093" lon="10.7173817"><ele>20.0</ele><time>2026-04-19T14:10:57.947Z</time></trkpt><trkpt lat="43.6701623" lon="10.7176537"><ele>20.0</ele><time>2026-04-19T14:10:58.946Z</time></trkpt><trkpt lat="43.6702305" lon="10.7179221"><ele>20.0</ele><time>2026-04-19T14:10:59.946Z</time></trkpt><trkpt lat="43.6702936" lon="10.7181991"><ele>20.0</ele><time>2026-04-19T14:11:00.946Z</time></trkpt><trkpt lat="43.6703606" lon="10.7184773"><ele>20.0</ele><time>2026-04-19T14:11:01.946Z</time></trkpt><trkpt lat="43.6704292" lon="10.7187673"><ele>20.0</ele><time>2026-04-19T14:11:02.946Z</time></trkpt><trkpt lat="43.670508" lon="10.7190612"><ele>20.0</ele><time>2026-04-19T14:11:03.947Z</time></trkpt><trkpt lat="43.6705816" lon="10.7193547"><ele>20.666666666666668</ele><time>2026-04-19T14:11:04.946Z</time></trkpt><trkpt lat="43.6706528" lon="10.7196437"><ele>21.333333333333332</ele><time>2026-04-19T14:11:05.946Z</time></trkpt><trkpt lat="43.6707214" lon="10.7199413"><ele>22.0</ele><time>2026-04-19T14:11:06.946Z</time></trkpt><trkpt lat="43.6707913" lon="10.720237"><ele>22.5</ele><time>2026-04-19T14:11:07.946Z</time></trkpt><trkpt lat="43.6708633" lon="10.7205316"><ele>23.0</ele><time>2026-04-19T14:11:08.946Z</time></trkpt><trkpt lat="43.6709392" lon="10.7208294"><ele>22.5</ele><time>2026-04-19T14:11:09.946Z</time></trkpt><trkpt lat="43.671009" lon="10.7211278"><ele>22.0</ele><time>2026-04-19T14:11:10.946Z</time></trkpt><trkpt lat="43.671082" lon="10.7214268"><ele>21.5</ele><time>2026-04-19T14:11:11.947Z</time></trkpt><trkpt lat="43.671151" lon="10.7217258"><ele>21.0</ele><time>2026-04-19T14:11:12.946Z</time></trkpt><trkpt lat="43.6712308" lon="10.7220287"><ele>21.0</ele><time>2026-04-19T14:11:13.946Z</time></trkpt><trkpt lat="43.6713073" lon="10.7223317"><ele>21.0</ele><time>2026-04-19T14:11:14.947Z</time></trkpt><trkpt lat="43.6713789" lon="10.7226292"><ele>21.0</ele><time>2026-04-19T14:11:15.946Z</time></trkpt><trkpt lat="43.6714501" lon="10.7229281"><ele>21.0</ele><time>2026-04-19T14:11:16.947Z</time></trkpt><trkpt lat="43.6715222" lon="10.7232313"><ele>21.0</ele><time>2026-04-19T14:11:17.946Z</time></trkpt><trkpt lat="43.6715933" lon="10.7235371"><ele>21.0</ele><time>2026-04-19T14:11:18.946Z</time></trkpt><trkpt lat="43.6716517" lon="10.7238452"><ele>21.5</ele><time>2026-04-19T14:11:19.946Z</time></trkpt><trkpt lat="43.671703" lon="10.7241523"><ele>22.0</ele><time>2026-04-19T14:11:20.947Z</time></trkpt><trkpt lat="43.6717444" lon="10.724464"><ele>22.5</ele><time>2026-04-19T14:11:21.946Z</time></trkpt><trkpt lat="43.6717773" lon="10.7247728"><ele>23.0</ele><time>2026-04-19T14:11:22.946Z</time></trkpt><trkpt lat="43.6718045" lon="10.725091"><ele>22.0</ele><time>2026-04-19T14:11:23.946Z</time></trkpt><trkpt lat="43.6718252" lon="10.7254146"><ele>21.0</ele><time>2026-04-19T14:11:24.946Z</time></trkpt><trkpt lat="43.6718327" lon="10.7257357"><ele>21.0</ele><time>2026-04-19T14:11:25.946Z</time></trkpt><trkpt lat="43.6718364" lon="10.7260554"><ele>21.0</ele><time>2026-04-19T14:11:26.946Z</time></trkpt><trkpt lat="43.6718295" lon="10.7263779"><ele>21.0</ele><time>2026-04-19T14:11:27.947Z</time></trkpt><trkpt lat="43.6718122" lon="10.7267009"><ele>21.0</ele><time>2026-04-19T14:11:28.946Z</time></trkpt><trkpt lat="43.6717882" lon="10.7270216"><ele>23.5</ele><time>2026-04-19T14:11:29.947Z</time></trkpt><trkpt lat="43.6717637" lon="10.7273451"><ele>26.0</ele><time>2026-04-19T14:11:30.946Z</time></trkpt><trkpt lat="43.6717354" lon="10.7276714"><ele>26.5</ele><time>2026-04-19T14:11:31.946Z</time></trkpt><trkpt lat="43.6717062" lon="10.7279973"><ele>27.0</ele><time>2026-04-19T14:11:32.946Z</time></trkpt><trkpt lat="43.6716741" lon="10.7283291"><ele>26.0</ele><time>2026-04-19T14:11:33.946Z</time></trkpt><trkpt lat="43.6716479" lon="10.7286595"><ele>25.0</ele><time>2026-04-19T14:11:34.946Z</time></trkpt><trkpt lat="43.6716175" lon="10.7289907"><ele>25.0</ele><time>2026-04-19T14:11:35.947Z</time></trkpt><trkpt lat="43.6715892" lon="10.7293249"><ele>25.0</ele><time>2026-04-19T14:11:36.947Z</time></trkpt><trkpt lat="43.6715588" lon="10.7296612"><ele>25.0</ele><time>2026-04-19T14:11:37.946Z</time></trkpt><trkpt lat="43.6715279" lon="10.7300067"><ele>25.0</ele><time>2026-04-19T14:11:38.946Z</time></trkpt><trkpt lat="43.6714914" lon="10.7303501"><ele>24.5</ele><time>2026-04-19T14:11:39.946Z</time></trkpt><trkpt lat="43.6714528" lon="10.7306898"><ele>24.0</ele><time>2026-04-19T14:11:40.946Z</time></trkpt><trkpt lat="43.6714192" lon="10.7310276"><ele>23.0</ele><time>2026-04-19T14:11:41.946Z</time></trkpt><trkpt lat="43.6713876" lon="10.7313649"><ele>22.0</ele><time>2026-04-19T14:11:42.946Z</time></trkpt><trkpt lat="43.6713549" lon="10.7317035"><ele>23.0</ele><time>2026-04-19T14:11:43.946Z</time></trkpt><trkpt lat="43.6713208" lon="10.7320376"><ele>24.0</ele><time>2026-04-19T14:11:44.947Z</time></trkpt><trkpt lat="43.6712883" lon="10.7323706"><ele>24.0</ele><time>2026-04-19T14:11:45.947Z</time></trkpt><trkpt lat="43.671263" lon="10.7327036"><ele>24.0</ele><time>2026-04-19T14:11:46.946Z</time></trkpt><trkpt lat="43.6712321" lon="10.7330389"><ele>24.5</ele><time>2026-04-19T14:11:47.946Z</time></trkpt><trkpt lat="43.6712035" lon="10.7333739"><ele>25.0</ele><time>2026-04-19T14:11:48.946Z</time></trkpt><trkpt lat="43.671174" lon="10.7337129"><ele>25.0</ele><time>2026-04-19T14:11:49.947Z</time></trkpt><trkpt lat="43.6711407" lon="10.7340431"><ele>25.0</ele><time>2026-04-19T14:11:50.947Z</time></trkpt><trkpt lat="43.6711082" lon="10.7343744"><ele>25.5</ele><time>2026-04-19T14:11:51.946Z</time></trkpt><trkpt lat="43.6710786" lon="10.7347111"><ele>26.0</ele><time>2026-04-19T14:11:52.947Z</time></trkpt><trkpt lat="43.67105" lon="10.7350446"><ele>25.5</ele><time>2026-04-19T14:11:53.946Z</time></trkpt><trkpt lat="43.6710265" lon="10.7353812"><ele>25.0</ele><time>2026-04-19T14:11:54.946Z</time></trkpt><trkpt lat="43.6710091" lon="10.7357188"><ele>25.0</ele><time>2026-04-19T14:11:55.946Z</time></trkpt><trkpt lat="43.6709927" lon="10.7360572"><ele>25.0</ele><time>2026-04-19T14:11:56.946Z</time></trkpt><trkpt lat="43.6709884" lon="10.7363887"><ele>25.0</ele><time>2026-04-19T14:11:57.946Z</time></trkpt><trkpt lat="43.6709909" lon="10.7367215"><ele>25.0</ele><time>2026-04-19T14:11:58.946Z</time></trkpt><trkpt lat="43.6709978" lon="10.7370587"><ele>25.5</ele><time>2026-04-19T14:11:59.946Z</time></trkpt><trkpt lat="43.6710187" lon="10.7373936"><ele>26.0</ele><time>2026-04-19T14:12:00.946Z</time></trkpt><trkpt lat="43.6710504" lon="10.7377247"><ele>26.5</ele><time>2026-04-19T14:12:01.946Z</time></trkpt><trkpt lat="43.6710922" lon="10.738056"><ele>27.0</ele><time>2026-04-19T14:12:02.946Z</time></trkpt><trkpt lat="43.6711509" lon="10.7383792"><ele>28.5</ele><time>2026-04-19T14:12:03.947Z</time></trkpt><trkpt lat="43.6712138" lon="10.7387046"><ele>30.0</ele><time>2026-04-19T14:12:04.946Z</time></trkpt><trkpt lat="43.6712862" lon="10.7390292"><ele>30.0</ele><time>2026-04-19T14:12:05.946Z</time></trkpt><trkpt lat="43.6713659" lon="10.7393404"><ele>30.0</ele><time>2026-04-19T14:12:06.946Z</time></trkpt><trkpt lat="43.6714565" lon="10.739648"><ele>30.0</ele><time>2026-04-19T14:12:07.946Z</time></trkpt><trkpt lat="43.6715522" lon="10.7399511"><ele>30.0</ele><time>2026-04-19T14:12:08.946Z</time></trkpt><trkpt lat="43.6716541" lon="10.7402446"><ele>30.5</ele><time>2026-04-19T14:12:09.946Z</time></trkpt><trkpt lat="43.6717724" lon="10.7405284"><ele>31.0</ele><time>2026-04-19T14:12:10.946Z</time></trkpt><trkpt lat="43.6719029" lon="10.7408091"><ele>31.0</ele><time>2026-04-19T14:12:11.946Z</time></trkpt><trkpt lat="43.6720388" lon="10.7410777"><ele>31.0</ele><time>2026-04-19T14:12:12.946Z</time></trkpt><trkpt lat="43.6721794" lon="10.7413393"><ele>31.0</ele><time>2026-04-19T14:12:13.947Z</time></trkpt><trkpt lat="43.6723315" lon="10.7415928"><ele>31.0</ele><time>2026-04-19T14:12:14.946Z</time></trkpt><trkpt lat="43.6724923" lon="10.7418368"><ele>31.0</ele><time>2026-04-19T14:12:15.946Z</time></trkpt><trkpt lat="43.6726623" lon="10.7420722"><ele>31.0</ele><time>2026-04-19T14:12:16.946Z</time></trkpt><trkpt lat="43.672831" lon="10.7422988"><ele>32.0</ele><time>2026-04-19T14:12:17.947Z</time></trkpt><trkpt lat="43.6730088" lon="10.7425285"><ele>33.0</ele><time>2026-04-19T14:12:18.946Z</time></trkpt><trkpt lat="43.6731885" lon="10.7427455"><ele>33.0</ele><time>2026-04-19T14:12:19.946Z</time></trkpt><trkpt lat="43.673373" lon="10.7429583"><ele>33.0</ele><time>2026-04-19T14:12:20.947Z</time></trkpt><trkpt lat="43.6735456" lon="10.7431636"><ele>36.0</ele><time>2026-04-19T14:12:21.946Z</time></trkpt><trkpt lat="43.6737149" lon="10.7433613"><ele>39.0</ele><time>2026-04-19T14:12:22.947Z</time></trkpt><trkpt lat="43.6738847" lon="10.7435555"><ele>42.0</ele><time>2026-04-19T14:12:23.946Z</time></trkpt><trkpt lat="43.6740497" lon="10.7437434"><ele>42.333333333333336</ele><time>2026-04-19T14:12:24.946Z</time></trkpt><trkpt lat="43.6742137" lon="10.7439304"><ele>42.66666666666667</ele><time>2026-04-19T14:12:25.946Z</time></trkpt><trkpt lat="43.6743822" lon="10.7441173"><ele>43.0</ele><time>2026-04-19T14:12:26.946Z</time></trkpt><trkpt lat="43.6745536" lon="10.7443112"><ele>44.5</ele><time>2026-04-19T14:12:27.946Z</time></trkpt><trkpt lat="43.6747269" lon="10.7445119"><ele>46.0</ele><time>2026-04-19T14:12:28.946Z</time></trkpt><trkpt lat="43.6749052" lon="10.7447198"><ele>46.0</ele><time>2026-04-19T14:12:29.947Z</time></trkpt><trkpt lat="43.6750797" lon="10.7449229"><ele>46.0</ele><time>2026-04-19T14:12:30.946Z</time></trkpt><trkpt lat="43.6752653" lon="10.7451282"><ele>47.0</ele><time>2026-04-19T14:12:31.946Z</time></trkpt><trkpt lat="43.6754483" lon="10.7453363"><ele>48.0</ele><time>2026-04-19T14:12:32.946Z</time></trkpt><trkpt lat="43.6756315" lon="10.7455533"><ele>48.0</ele><time>2026-04-19T14:12:33.946Z</time></trkpt><trkpt lat="43.67582" lon="10.7457677"><ele>48.0</ele><time>2026-04-19T14:12:34.946Z</time></trkpt><trkpt lat="43.6760084" lon="10.7459819"><ele>43.5</ele><time>2026-04-19T14:12:35.947Z</time></trkpt><trkpt lat="43.6762022" lon="10.7461977"><ele>39.0</ele><time>2026-04-19T14:12:36.946Z</time></trkpt><trkpt lat="43.6763933" lon="10.7464113"><ele>39.0</ele><time>2026-04-19T14:12:37.947Z</time></trkpt><trkpt lat="43.6765888" lon="10.7466246"><ele>39.0</ele><time>2026-04-19T14:12:38.946Z</time></trkpt><trkpt lat="43.6767769" lon="10.7468404"><ele>42.0</ele><time>2026-04-19T14:12:39.946Z</time></trkpt><trkpt lat="43.6769619" lon="10.7470616"><ele>45.0</ele><time>2026-04-19T14:12:40.947Z</time></trkpt><trkpt lat="43.6771428" lon="10.7472853"><ele>45.0</ele><time>2026-04-19T14:12:41.946Z</time></trkpt><trkpt lat="43.6773171" lon="10.7475106"><ele>45.0</ele><time>2026-04-19T14:12:42.946Z</time></trkpt><trkpt lat="43.6774847" lon="10.7477439"><ele>48.0</ele><time>2026-04-19T14:12:43.946Z</time></trkpt><trkpt lat="43.6776473" lon="10.7479725"><ele>51.0</ele><time>2026-04-19T14:12:44.946Z</time></trkpt><trkpt lat="43.6778111" lon="10.748214"><ele>51.0</ele><time>2026-04-19T14:12:45.946Z</time></trkpt><trkpt lat="43.677966" lon="10.7484619"><ele>51.0</ele><time>2026-04-19T14:12:46.946Z</time></trkpt><trkpt lat="43.6781119" lon="10.7487115"><ele>47.5</ele><time>2026-04-19T14:12:47.946Z</time></trkpt><trkpt lat="43.6782532" lon="10.7489707"><ele>44.0</ele><time>2026-04-19T14:12:48.946Z</time></trkpt><trkpt lat="43.6783942" lon="10.7492347"><ele>39.5</ele><time>2026-04-19T14:12:49.946Z</time></trkpt><trkpt lat="43.6785284" lon="10.7495019"><ele>35.0</ele><time>2026-04-19T14:12:50.947Z</time></trkpt><trkpt lat="43.678665" lon="10.7497736"><ele>34.0</ele><time>2026-04-19T14:12:51.946Z</time></trkpt><trkpt lat="43.6788004" lon="10.7500413"><ele>33.0</ele><time>2026-04-19T14:12:52.946Z</time></trkpt><trkpt lat="43.6789371" lon="10.7503099"><ele>35.0</ele><time>2026-04-19T14:12:53.946Z</time></trkpt><trkpt lat="43.6790764" lon="10.7505806"><ele>37.0</ele><time>2026-04-19T14:12:54.946Z</time></trkpt><trkpt lat="43.6792166" lon="10.7508538"><ele>38.0</ele><time>2026-04-19T14:12:55.947Z</time></trkpt><trkpt lat="43.6793575" lon="10.7511267"><ele>39.0</ele><time>2026-04-19T14:12:56.946Z</time></trkpt><trkpt lat="43.6794952" lon="10.7513989"><ele>38.5</ele><time>2026-04-19T14:12:57.946Z</time></trkpt><trkpt lat="43.6796357" lon="10.7516758"><ele>38.0</ele><time>2026-04-19T14:12:58.946Z</time></trkpt><trkpt lat="43.6797795" lon="10.7519493"><ele>38.0</ele><time>2026-04-19T14:12:59.946Z</time></trkpt><trkpt lat="43.6799203" lon="10.7522151"><ele>38.0</ele><time>2026-04-19T14:13:00.946Z</time></trkpt><trkpt lat="43.6800594" lon="10.7524902"><ele>35.5</ele><time>2026-04-19T14:13:01.947Z</time></trkpt><trkpt lat="43.6802004" lon="10.7527665"><ele>33.0</ele><time>2026-04-19T14:13:02.946Z</time></trkpt><trkpt lat="43.6803376" lon="10.753037"><ele>33.0</ele><time>2026-04-19T14:13:03.946Z</time></trkpt><trkpt lat="43.6804775" lon="10.7533104"><ele>33.0</ele><time>2026-04-19T14:13:04.946Z</time></trkpt><trkpt lat="43.6806193" lon="10.7535878"><ele>33.0</ele><time>2026-04-19T14:13:05.946Z</time></trkpt><trkpt lat="43.6807577" lon="10.7538585"><ele>33.0</ele><time>2026-04-19T14:13:06.947Z</time></trkpt><trkpt lat="43.6808987" lon="10.7541302"><ele>32.5</ele><time>2026-04-19T14:13:07.947Z</time></trkpt><trkpt lat="43.6810378" lon="10.7543983"><ele>32.0</ele><time>2026-04-19T14:13:08.946Z</time></trkpt><trkpt lat="43.6811773" lon="10.7546699"><ele>32.0</ele><time>2026-04-19T14:13:09.946Z</time></trkpt><trkpt lat="43.6813133" lon="10.7549401"><ele>32.0</ele><time>2026-04-19T14:13:10.946Z</time></trkpt><trkpt lat="43.6814501" lon="10.755212"><ele>31.5</ele><time>2026-04-19T14:13:11.946Z</time></trkpt><trkpt lat="43.6815851" lon="10.7554826"><ele>31.0</ele><time>2026-04-19T14:13:12.946Z</time></trkpt><trkpt lat="43.6817259" lon="10.755751"><ele>31.0</ele><time>2026-04-19T14:13:13.946Z</time></trkpt><trkpt lat="43.6818633" lon="10.7560254"><ele>31.0</ele><time>2026-04-19T14:13:14.946Z</time></trkpt><trkpt lat="43.6819996" lon="10.7562946"><ele>30.0</ele><time>2026-04-19T14:13:15.946Z</time></trkpt><trkpt lat="43.6821346" lon="10.7565716"><ele>29.0</ele><time>2026-04-19T14:13:16.947Z</time></trkpt><trkpt lat="43.6822606" lon="10.7568484"><ele>30.0</ele><time>2026-04-19T14:13:17.946Z</time></trkpt><trkpt lat="43.6823799" lon="10.7571336"><ele>31.0</ele><time>2026-04-19T14:13:18.946Z</time></trkpt><trkpt lat="43.6824994" lon="10.7574251"><ele>30.5</ele><time>2026-04-19T14:13:19.946Z</time></trkpt><trkpt lat="43.6826085" lon="10.7577178"><ele>30.0</ele><time>2026-04-19T14:13:20.946Z</time></trkpt><trkpt lat="43.6827137" lon="10.7580197"><ele>31.5</ele><time>2026-04-19T14:13:21.946Z</time></trkpt><trkpt lat="43.6828095" lon="10.7583244"><ele>33.0</ele><time>2026-04-19T14:13:22.946Z</time></trkpt><trkpt lat="43.6828959" lon="10.7586352"><ele>33.0</ele><time>2026-04-19T14:13:23.946Z</time></trkpt><trkpt lat="43.6829838" lon="10.7589479"><ele>33.0</ele><time>2026-04-19T14:13:24.946Z</time></trkpt><trkpt lat="43.6830595" lon="10.7592618"><ele>34.0</ele><time>2026-04-19T14:13:25.946Z</time></trkpt><trkpt lat="43.6831298" lon="10.7595777"><ele>35.0</ele><time>2026-04-19T14:13:26.946Z</time></trkpt><trkpt lat="43.6831965" lon="10.7598996"><ele>35.5</ele><time>2026-04-19T14:13:27.946Z</time></trkpt><trkpt lat="43.6832612" lon="10.7602223"><ele>36.0</ele><time>2026-04-19T14:13:28.946Z</time></trkpt><trkpt lat="43.6833254" lon="10.7605356"><ele>36.0</ele><time>2026-04-19T14:13:29.946Z</time></trkpt><trkpt lat="43.6833931" lon="10.7608516"><ele>36.0</ele><time>2026-04-19T14:13:30.946Z</time></trkpt><trkpt lat="43.6834601" lon="10.76117"><ele>34.0</ele><time>2026-04-19T14:13:31.946Z</time></trkpt><trkpt lat="43.6835227" lon="10.7614853"><ele>32.0</ele><time>2026-04-19T14:13:32.946Z</time></trkpt><trkpt lat="43.6835877" lon="10.7618096"><ele>31.5</ele><time>2026-04-19T14:13:33.947Z</time></trkpt><trkpt lat="43.6836447" lon="10.7621286"><ele>31.0</ele><time>2026-04-19T14:13:34.946Z</time></trkpt><trkpt lat="43.6836984" lon="10.7624542"><ele>31.5</ele><time>2026-04-19T14:13:35.946Z</time></trkpt><trkpt lat="43.6837478" lon="10.7627777"><ele>32.0</ele><time>2026-04-19T14:13:36.946Z</time></trkpt><trkpt lat="43.6837899" lon="10.7631072"><ele>32.0</ele><time>2026-04-19T14:13:37.946Z</time></trkpt><trkpt lat="43.6838251" lon="10.7634383"><ele>32.0</ele><time>2026-04-19T14:13:38.946Z</time></trkpt><trkpt lat="43.6838519" lon="10.7637672"><ele>32.0</ele><time>2026-04-19T14:13:39.946Z</time></trkpt><trkpt lat="43.6838753" lon="10.7640982"><ele>32.0</ele><time>2026-04-19T14:13:40.946Z</time></trkpt><trkpt lat="43.6838986" lon="10.7644285"><ele>32.5</ele><time>2026-04-19T14:13:41.946Z</time></trkpt><trkpt lat="43.6839205" lon="10.7647565"><ele>33.0</ele><time>2026-04-19T14:13:42.946Z</time></trkpt><trkpt lat="43.683938" lon="10.7650872"><ele>33.0</ele><time>2026-04-19T14:13:43.946Z</time></trkpt><trkpt lat="43.6839564" lon="10.7654127"><ele>33.0</ele><time>2026-04-19T14:13:44.947Z</time></trkpt><trkpt lat="43.6839688" lon="10.7657372"><ele>33.5</ele><time>2026-04-19T14:13:45.947Z</time></trkpt><trkpt lat="43.6839845" lon="10.766066"><ele>34.0</ele><time>2026-04-19T14:13:46.946Z</time></trkpt><trkpt lat="43.6839977" lon="10.7663918"><ele>34.0</ele><time>2026-04-19T14:13:47.946Z</time></trkpt><trkpt lat="43.6840148" lon="10.7667214"><ele>34.0</ele><time>2026-04-19T14:13:48.946Z</time></trkpt><trkpt lat="43.6840349" lon="10.7670426"><ele>35.0</ele><time>2026-04-19T14:13:49.946Z</time></trkpt><trkpt lat="43.6840587" lon="10.7673713"><ele>36.0</ele><time>2026-04-19T14:13:50.946Z</time></trkpt><trkpt lat="43.684086" lon="10.7677042"><ele>36.0</ele><time>2026-04-19T14:13:51.946Z</time></trkpt><trkpt lat="43.6841228" lon="10.7680359"><ele>36.0</ele><time>2026-04-19T14:13:52.946Z</time></trkpt><trkpt lat="43.6841663" lon="10.7683603"><ele>35.5</ele><time>2026-04-19T14:13:53.946Z</time></trkpt><trkpt lat="43.6842194" lon="10.7686868"><ele>35.0</ele><time>2026-04-19T14:13:54.947Z</time></trkpt><trkpt lat="43.6842848" lon="10.7690074"><ele>35.0</ele><time>2026-04-19T14:13:55.946Z</time></trkpt><trkpt lat="43.6843536" lon="10.7693278"><ele>35.0</ele><time>2026-04-19T14:13:56.946Z</time></trkpt><trkpt lat="43.6844274" lon="10.7696402"><ele>37.0</ele><time>2026-04-19T14:13:57.947Z</time></trkpt><trkpt lat="43.6845099" lon="10.769948"><ele>39.0</ele><time>2026-04-19T14:13:58.946Z</time></trkpt><trkpt lat="43.6846002" lon="10.7702611"><ele>39.0</ele><time>2026-04-19T14:13:59.947Z</time></trkpt><trkpt lat="43.684696" lon="10.7705582"><ele>39.0</ele><time>2026-04-19T14:14:00.946Z</time></trkpt><trkpt lat="43.6847928" lon="10.7708356"><ele>39.333333333333336</ele><time>2026-04-19T14:14:01.947Z</time></trkpt><trkpt lat="43.6848913" lon="10.7711144"><ele>39.66666666666667</ele><time>2026-04-19T14:14:02.946Z</time></trkpt><trkpt lat="43.6849955" lon="10.7713863"><ele>40.0</ele><time>2026-04-19T14:14:03.946Z</time></trkpt><trkpt lat="43.6850992" lon="10.7716633"><ele>41.0</ele><time>2026-04-19T14:14:04.946Z</time></trkpt><trkpt lat="43.6852073" lon="10.7719398"><ele>42.0</ele><time>2026-04-19T14:14:05.946Z</time></trkpt><trkpt lat="43.6853062" lon="10.7722106"><ele>43.0</ele><time>2026-04-19T14:14:06.947Z</time></trkpt><trkpt lat="43.6854108" lon="10.7724845"><ele>45.0</ele><time>2026-04-19T14:14:07.946Z</time></trkpt><trkpt lat="43.685526" lon="10.7727799"><ele>47.0</ele><time>2026-04-19T14:14:08.946Z</time></trkpt><trkpt lat="43.6856487" lon="10.7730973"><ele>47.0</ele><time>2026-04-19T14:14:09.946Z</time></trkpt><trkpt lat="43.6857666" lon="10.7734239"><ele>47.0</ele><time>2026-04-19T14:14:10.946Z</time></trkpt><trkpt lat="43.6858778" lon="10.7737523"><ele>48.5</ele><time>2026-04-19T14:14:11.946Z</time></trkpt><trkpt lat="43.6859781" lon="10.7740769"><ele>50.0</ele><time>2026-04-19T14:14:12.947Z</time></trkpt><trkpt lat="43.6860698" lon="10.7743989"><ele>52.0</ele><time>2026-04-19T14:14:13.946Z</time></trkpt><trkpt lat="43.6861612" lon="10.7747121"><ele>54.0</ele><time>2026-04-19T14:14:14.946Z</time></trkpt><trkpt lat="43.6862512" lon="10.7750224"><ele>54.5</ele><time>2026-04-19T14:14:15.946Z</time></trkpt><trkpt lat="43.6863413" lon="10.7753308"><ele>55.0</ele><time>2026-04-19T14:14:16.946Z</time></trkpt><trkpt lat="43.6864295" lon="10.7756322"><ele>55.0</ele><time>2026-04-19T14:14:17.946Z</time></trkpt><trkpt lat="43.686526" lon="10.7759241"><ele>55.0</ele><time>2026-04-19T14:14:18.946Z</time></trkpt><trkpt lat="43.6866461" lon="10.7762459"><ele>50.0</ele><time>2026-04-19T14:14:19.946Z</time></trkpt><trkpt lat="43.6867671" lon="10.7765527"><ele>45.0</ele><time>2026-04-19T14:14:20.946Z</time></trkpt><trkpt lat="43.6869074" lon="10.7768478"><ele>42.0</ele><time>2026-04-19T14:14:21.946Z</time></trkpt><trkpt lat="43.6870452" lon="10.7771402"><ele>39.0</ele><time>2026-04-19T14:14:22.947Z</time></trkpt><trkpt lat="43.687194" lon="10.7773993"><ele>39.0</ele><time>2026-04-19T14:14:23.946Z</time></trkpt><trkpt lat="43.6873456" lon="10.7776659"><ele>39.0</ele><time>2026-04-19T14:14:24.946Z</time></trkpt><trkpt lat="43.6874985" lon="10.7779339"><ele>39.5</ele><time>2026-04-19T14:14:25.947Z</time></trkpt><trkpt lat="43.6876632" lon="10.7781929"><ele>40.0</ele><time>2026-04-19T14:14:26.946Z</time></trkpt><trkpt lat="43.6878187" lon="10.7784531"><ele>35.5</ele><time>2026-04-19T14:14:27.946Z</time></trkpt><trkpt lat="43.687972" lon="10.7787172"><ele>31.0</ele><time>2026-04-19T14:14:28.947Z</time></trkpt><trkpt lat="43.6881217" lon="10.7789849"><ele>31.0</ele><time>2026-04-19T14:14:29.946Z</time></trkpt><trkpt lat="43.6882723" lon="10.7792484"><ele>31.0</ele><time>2026-04-19T14:14:30.947Z</time></trkpt><trkpt lat="43.6884253" lon="10.7795107"><ele>30.5</ele><time>2026-04-19T14:14:31.946Z</time></trkpt><trkpt lat="43.6885779" lon="10.7797741"><ele>30.0</ele><time>2026-04-19T14:14:32.946Z</time></trkpt><trkpt lat="43.6887283" lon="10.7800367"><ele>27.5</ele><time>2026-04-19T14:14:33.946Z</time></trkpt><trkpt lat="43.6888786" lon="10.7802839"><ele>25.0</ele><time>2026-04-19T14:14:34.946Z</time></trkpt><trkpt lat="43.6890246" lon="10.7805369"><ele>25.0</ele><time>2026-04-19T14:14:35.946Z</time></trkpt><trkpt lat="43.6891648" lon="10.7807821"><ele>25.0</ele><time>2026-04-19T14:14:36.947Z</time></trkpt><trkpt lat="43.6893081" lon="10.7810243"><ele>24.0</ele><time>2026-04-19T14:14:37.946Z</time></trkpt><trkpt lat="43.6894502" lon="10.7812652"><ele>23.0</ele><time>2026-04-19T14:14:38.946Z</time></trkpt><trkpt lat="43.6895945" lon="10.7815024"><ele>22.0</ele><time>2026-04-19T14:14:39.946Z</time></trkpt><trkpt lat="43.6897349" lon="10.7817338"><ele>22.0</ele><time>2026-04-19T14:14:40.947Z</time></trkpt><trkpt lat="43.6898662" lon="10.7819634"><ele>22.0</ele><time>2026-04-19T14:14:41.946Z</time></trkpt><trkpt lat="43.6899987" lon="10.782191"><ele>22.0</ele><time>2026-04-19T14:14:42.946Z</time></trkpt><trkpt lat="43.6901236" lon="10.7824107"><ele>22.0</ele><time>2026-04-19T14:14:43.946Z</time></trkpt><trkpt lat="43.6902516" lon="10.7826243"><ele>22.0</ele><time>2026-04-19T14:14:44.946Z</time></trkpt><trkpt lat="43.6903816" lon="10.7828375"><ele>22.0</ele><time>2026-04-19T14:14:45.946Z</time></trkpt><trkpt lat="43.6905063" lon="10.7830522"><ele>22.333333333333332</ele><time>2026-04-19T14:14:46.947Z</time></trkpt><trkpt lat="43.6906285" lon="10.7832669"><ele>22.666666666666668</ele><time>2026-04-19T14:14:47.946Z</time></trkpt><trkpt lat="43.6907553" lon="10.7834784"><ele>23.0</ele><time>2026-04-19T14:14:48.946Z</time></trkpt><trkpt lat="43.6908777" lon="10.7836892"><ele>23.0</ele><time>2026-04-19T14:14:49.946Z</time></trkpt><trkpt lat="43.691001" lon="10.7838973"><ele>23.0</ele><time>2026-04-19T14:14:50.946Z</time></trkpt><trkpt lat="43.6911216" lon="10.7841027"><ele>23.0</ele><time>2026-04-19T14:14:51.946Z</time></trkpt><trkpt lat="43.6912459" lon="10.7843109"><ele>22.666666666666668</ele><time>2026-04-19T14:14:52.946Z</time></trkpt><trkpt lat="43.6913668" lon="10.7845195"><ele>22.333333333333332</ele><time>2026-04-19T14:14:53.946Z</time></trkpt><trkpt lat="43.6914894" lon="10.7847265"><ele>22.0</ele><time>2026-04-19T14:14:54.946Z</time></trkpt><trkpt lat="43.6916139" lon="10.7849366"><ele>22.0</ele><time>2026-04-19T14:14:55.946Z</time></trkpt><trkpt lat="43.6917353" lon="10.7851454"><ele>22.0</ele><time>2026-04-19T14:14:56.946Z</time></trkpt><trkpt lat="43.691862" lon="10.7853601"><ele>22.0</ele><time>2026-04-19T14:14:57.946Z</time></trkpt><trkpt lat="43.6919927" lon="10.7855804"><ele>22.333333333333332</ele><time>2026-04-19T14:14:58.946Z</time></trkpt><trkpt lat="43.692125" lon="10.7858044"><ele>22.666666666666668</ele><time>2026-04-19T14:14:59.946Z</time></trkpt><trkpt lat="43.6922529" lon="10.7860286"><ele>23.0</ele><time>2026-04-19T14:15:00.946Z</time></trkpt><trkpt lat="43.6923849" lon="10.7862598"><ele>23.0</ele><time>2026-04-19T14:15:01.946Z</time></trkpt><trkpt lat="43.6925216" lon="10.7864895"><ele>23.0</ele><time>2026-04-19T14:15:02.946Z</time></trkpt><trkpt lat="43.6926572" lon="10.7867201"><ele>23.0</ele><time>2026-04-19T14:15:03.946Z</time></trkpt><trkpt lat="43.692791" lon="10.7869508"><ele>23.0</ele><time>2026-04-19T14:15:04.946Z</time></trkpt><trkpt lat="43.6929256" lon="10.7871846"><ele>23.0</ele><time>2026-04-19T14:15:05.946Z</time></trkpt><trkpt lat="43.6930575" lon="10.7874143"><ele>23.0</ele><time>2026-04-19T14:15:06.946Z</time></trkpt><trkpt lat="43.6931885" lon="10.7876426"><ele>23.0</ele><time>2026-04-19T14:15:07.946Z</time></trkpt><trkpt lat="43.6933242" lon="10.787877"><ele>23.0</ele><time>2026-04-19T14:15:08.946Z</time></trkpt><trkpt lat="43.6934628" lon="10.7881119"><ele>23.0</ele><time>2026-04-19T14:15:09.946Z</time></trkpt><trkpt lat="43.6936015" lon="10.7883502"><ele>23.0</ele><time>2026-04-19T14:15:10.946Z</time></trkpt><trkpt lat="43.693742" lon="10.7885912"><ele>23.0</ele><time>2026-04-19T14:15:11.946Z</time></trkpt><trkpt lat="43.6938812" lon="10.7888336"><ele>23.0</ele><time>2026-04-19T14:15:12.946Z</time></trkpt><trkpt lat="43.6940163" lon="10.7890736"><ele>23.0</ele><time>2026-04-19T14:15:13.947Z</time></trkpt><trkpt lat="43.6941532" lon="10.7893024"><ele>23.0</ele><time>2026-04-19T14:15:14.946Z</time></trkpt><trkpt lat="43.6942978" lon="10.7895433"><ele>23.0</ele><time>2026-04-19T14:15:15.946Z</time></trkpt><trkpt lat="43.6944364" lon="10.7897824"><ele>22.333333333333336</ele><time>2026-04-19T14:15:16.946Z</time></trkpt><trkpt lat="43.6945734" lon="10.7900145"><ele>21.666666666666668</ele><time>2026-04-19T14:15:17.947Z</time></trkpt><trkpt lat="43.6947075" lon="10.7902438"><ele>21.0</ele><time>2026-04-19T14:15:18.946Z</time></trkpt><trkpt lat="43.6948386" lon="10.7904794"><ele>20.666666666666668</ele><time>2026-04-19T14:15:19.946Z</time></trkpt><trkpt lat="43.6949685" lon="10.790718"><ele>20.333333333333336</ele><time>2026-04-19T14:15:20.946Z</time></trkpt><trkpt lat="43.6950931" lon="10.7909573"><ele>20.0</ele><time>2026-04-19T14:15:21.946Z</time></trkpt><trkpt lat="43.695216" lon="10.7911944"><ele>20.0</ele><time>2026-04-19T14:15:22.946Z</time></trkpt><trkpt lat="43.6953356" lon="10.7914372"><ele>20.0</ele><time>2026-04-19T14:15:23.946Z</time></trkpt><trkpt lat="43.6954538" lon="10.7916844"><ele>20.0</ele><time>2026-04-19T14:15:24.946Z</time></trkpt><trkpt lat="43.6955652" lon="10.7919374"><ele>20.666666666666668</ele><time>2026-04-19T14:15:25.946Z</time></trkpt><trkpt lat="43.6956718" lon="10.7921921"><ele>21.333333333333332</ele><time>2026-04-19T14:15:26.946Z</time></trkpt><trkpt lat="43.6957767" lon="10.7924536"><ele>22.0</ele><time>2026-04-19T14:15:27.946Z</time></trkpt><trkpt lat="43.6958792" lon="10.7927153"><ele>22.333333333333332</ele><time>2026-04-19T14:15:28.946Z</time></trkpt><trkpt lat="43.695976" lon="10.7929816"><ele>22.666666666666668</ele><time>2026-04-19T14:15:29.946Z</time></trkpt><trkpt lat="43.6960679" lon="10.7932505"><ele>23.0</ele><time>2026-04-19T14:15:30.946Z</time></trkpt><trkpt lat="43.6961547" lon="10.7935241"><ele>22.333333333333336</ele><time>2026-04-19T14:15:31.947Z</time></trkpt><trkpt lat="43.6962308" lon="10.7938067"><ele>21.666666666666668</ele><time>2026-04-19T14:15:32.946Z</time></trkpt><trkpt lat="43.6963025" lon="10.7940879"><ele>21.0</ele><time>2026-04-19T14:15:33.946Z</time></trkpt><trkpt lat="43.696369" lon="10.794378"><ele>21.0</ele><time>2026-04-19T14:15:34.946Z</time></trkpt><trkpt lat="43.6964361" lon="10.7946664"><ele>21.0</ele><time>2026-04-19T14:15:35.946Z</time></trkpt><trkpt lat="43.6965002" lon="10.7949612"><ele>21.0</ele><time>2026-04-19T14:15:36.946Z</time></trkpt><trkpt lat="43.6965557" lon="10.7952587"><ele>21.333333333333332</ele><time>2026-04-19T14:15:37.946Z</time></trkpt><trkpt lat="43.6966064" lon="10.7955601"><ele>21.666666666666664</ele><time>2026-04-19T14:15:38.946Z</time></trkpt><trkpt lat="43.6966543" lon="10.7958576"><ele>22.0</ele><time>2026-04-19T14:15:39.946Z</time></trkpt><trkpt lat="43.6966969" lon="10.7961572"><ele>22.0</ele><time>2026-04-19T14:15:40.946Z</time></trkpt><trkpt lat="43.696743" lon="10.7964584"><ele>22.0</ele><time>2026-04-19T14:15:41.946Z</time></trkpt><trkpt lat="43.6967824" lon="10.7967606"><ele>22.0</ele><time>2026-04-19T14:15:42.946Z</time></trkpt><trkpt lat="43.6968213" lon="10.7970579"><ele>21.666666666666664</ele><time>2026-04-19T14:15:43.946Z</time></trkpt><trkpt lat="43.6968593" lon="10.7973539"><ele>21.333333333333332</ele><time>2026-04-19T14:15:44.947Z</time></trkpt><trkpt lat="43.696895" lon="10.7976514"><ele>21.0</ele><time>2026-04-19T14:15:45.946Z</time></trkpt><trkpt lat="43.6969313" lon="10.7979517"><ele>21.0</ele><time>2026-04-19T14:15:46.946Z</time></trkpt><trkpt lat="43.6969699" lon="10.7982522"><ele>21.0</ele><time>2026-04-19T14:15:47.946Z</time></trkpt><trkpt lat="43.6970057" lon="10.7985547"><ele>21.0</ele><time>2026-04-19T14:15:48.946Z</time></trkpt><trkpt lat="43.6970436" lon="10.7988578"><ele>21.0</ele><time>2026-04-19T14:15:49.946Z</time></trkpt><trkpt lat="43.6970812" lon="10.7991592"><ele>21.0</ele><time>2026-04-19T14:15:50.947Z</time></trkpt><trkpt lat="43.6971175" lon="10.799461"><ele>21.0</ele><time>2026-04-19T14:15:51.946Z</time></trkpt><trkpt lat="43.6971544" lon="10.7997646"><ele>21.0</ele><time>2026-04-19T14:15:52.946Z</time></trkpt><trkpt lat="43.6971867" lon="10.8000658"><ele>21.0</ele><time>2026-04-19T14:15:53.947Z</time></trkpt><trkpt lat="43.6972204" lon="10.8003642"><ele>21.0</ele><time>2026-04-19T14:15:54.946Z</time></trkpt><trkpt lat="43.6972552" lon="10.800664"><ele>21.666666666666668</ele><time>2026-04-19T14:15:55.947Z</time></trkpt><trkpt lat="43.6972896" lon="10.8009701"><ele>22.333333333333336</ele><time>2026-04-19T14:15:56.947Z</time></trkpt><trkpt lat="43.6973271" lon="10.8012687"><ele>23.0</ele><time>2026-04-19T14:15:57.946Z</time></trkpt><trkpt lat="43.6973634" lon="10.8015693"><ele>22.666666666666668</ele><time>2026-04-19T14:15:58.946Z</time></trkpt><trkpt lat="43.6973968" lon="10.8018665"><ele>22.333333333333332</ele><time>2026-04-19T14:15:59.946Z</time></trkpt><trkpt lat="43.6974332" lon="10.8021672"><ele>22.0</ele><time>2026-04-19T14:16:00.946Z</time></trkpt><trkpt lat="43.6974704" lon="10.8024634"><ele>21.666666666666664</ele><time>2026-04-19T14:16:01.946Z</time></trkpt><trkpt lat="43.6975052" lon="10.8027674"><ele>21.333333333333332</ele><time>2026-04-19T14:16:02.946Z</time></trkpt><trkpt lat="43.6975442" lon="10.8030725"><ele>21.0</ele><time>2026-04-19T14:16:03.946Z</time></trkpt><trkpt lat="43.6975838" lon="10.8033773"><ele>21.0</ele><time>2026-04-19T14:16:04.946Z</time></trkpt><trkpt lat="43.6976185" lon="10.8036788"><ele>21.0</ele><time>2026-04-19T14:16:05.947Z</time></trkpt><trkpt lat="43.6976534" lon="10.8039824"><ele>21.0</ele><time>2026-04-19T14:16:06.946Z</time></trkpt><trkpt lat="43.697687" lon="10.8042864"><ele>21.0</ele><time>2026-04-19T14:16:07.946Z</time></trkpt><trkpt lat="43.6977237" lon="10.8045918"><ele>21.0</ele><time>2026-04-19T14:16:08.946Z</time></trkpt><trkpt lat="43.6977589" lon="10.8048945"><ele>21.0</ele><time>2026-04-19T14:16:09.946Z</time></trkpt><trkpt lat="43.6977984" lon="10.8051956"><ele>21.0</ele><time>2026-04-19T14:16:10.946Z</time></trkpt><trkpt lat="43.6978366" lon="10.8055057"><ele>21.0</ele><time>2026-04-19T14:16:11.946Z</time></trkpt><trkpt lat="43.6978733" lon="10.805811"><ele>21.0</ele><time>2026-04-19T14:16:12.946Z</time></trkpt><trkpt lat="43.6979111" lon="10.8061202"><ele>21.0</ele><time>2026-04-19T14:16:13.946Z</time></trkpt><trkpt lat="43.6979477" lon="10.8064273"><ele>21.0</ele><time>2026-04-19T14:16:14.946Z</time></trkpt><trkpt lat="43.6979825" lon="10.8067329"><ele>21.0</ele><time>2026-04-19T14:16:15.946Z</time></trkpt><trkpt lat="43.6980185" lon="10.8070379"><ele>21.0</ele><time>2026-04-19T14:16:16.946Z</time></trkpt><trkpt lat="43.6980543" lon="10.8073412"><ele>21.0</ele><time>2026-04-19T14:16:17.946Z</time></trkpt><trkpt lat="43.6980911" lon="10.807649"><ele>21.0</ele><time>2026-04-19T14:16:18.946Z</time></trkpt><trkpt lat="43.6981298" lon="10.8079526"><ele>21.0</ele><time>2026-04-19T14:16:19.946Z</time></trkpt><trkpt lat="43.6981682" lon="10.8082566"><ele>21.333333333333332</ele><time>2026-04-19T14:16:20.946Z</time></trkpt><trkpt lat="43.6982045" lon="10.8085602"><ele>21.666666666666664</ele><time>2026-04-19T14:16:21.946Z</time></trkpt><trkpt lat="43.6982403" lon="10.8088682"><ele>22.0</ele><time>2026-04-19T14:16:22.947Z</time></trkpt><trkpt lat="43.6982802" lon="10.8091726"><ele>22.333333333333332</ele><time>2026-04-19T14:16:23.946Z</time></trkpt><trkpt lat="43.6983131" lon="10.8094766"><ele>22.666666666666668</ele><time>2026-04-19T14:16:24.947Z</time></trkpt><trkpt lat="43.6983503" lon="10.8097791"><ele>23.0</ele><time>2026-04-19T14:16:25.946Z</time></trkpt><trkpt lat="43.6983906" lon="10.8100849"><ele>23.333333333333336</ele><time>2026-04-19T14:16:26.946Z</time></trkpt><trkpt lat="43.6984228" lon="10.8103821"><ele>23.666666666666668</ele><time>2026-04-19T14:16:27.946Z</time></trkpt><trkpt lat="43.6984518" lon="10.8106781"><ele>24.0</ele><time>2026-04-19T14:16:28.946Z</time></trkpt><trkpt lat="43.6984859" lon="10.8109755"><ele>23.333333333333332</ele><time>2026-04-19T14:16:29.946Z</time></trkpt><trkpt lat="43.6985218" lon="10.8112766"><ele>22.666666666666664</ele><time>2026-04-19T14:16:30.946Z</time></trkpt><trkpt lat="43.6985611" lon="10.8115792"><ele>22.0</ele><time>2026-04-19T14:16:31.946Z</time></trkpt><trkpt lat="43.6985954" lon="10.8118834"><ele>22.0</ele><time>2026-04-19T14:16:32.946Z</time></trkpt><trkpt lat="43.6986299" lon="10.812192"><ele>22.0</ele><time>2026-04-19T14:16:33.946Z</time></trkpt><trkpt lat="43.6986607" lon="10.8125019"><ele>21.666666666666664</ele><time>2026-04-19T14:16:34.946Z</time></trkpt><trkpt lat="43.6986909" lon="10.8128028"><ele>21.333333333333332</ele><time>2026-04-19T14:16:35.946Z</time></trkpt><trkpt lat="43.698712" lon="10.8131127"><ele>21.0</ele><time>2026-04-19T14:16:36.946Z</time></trkpt><trkpt lat="43.6987318" lon="10.8134212"><ele>20.5</ele><time>2026-04-19T14:16:37.946Z</time></trkpt><trkpt lat="43.6987507" lon="10.8137328"><ele>20.0</ele><time>2026-04-19T14:16:38.946Z</time></trkpt><trkpt lat="43.6987643" lon="10.8140475"><ele>20.0</ele><time>2026-04-19T14:16:39.946Z</time></trkpt><trkpt lat="43.6987659" lon="10.8143637"><ele>20.0</ele><time>2026-04-19T14:16:40.947Z</time></trkpt><trkpt lat="43.6987686" lon="10.8146806"><ele>20.0</ele><time>2026-04-19T14:16:41.946Z</time></trkpt><trkpt lat="43.6987737" lon="10.814995"><ele>20.0</ele><time>2026-04-19T14:16:42.946Z</time></trkpt><trkpt lat="43.6987675" lon="10.8153083"><ele>20.5</ele><time>2026-04-19T14:16:43.946Z</time></trkpt><trkpt lat="43.6987593" lon="10.8156242"><ele>21.0</ele><time>2026-04-19T14:16:44.946Z</time></trkpt><trkpt lat="43.6987487" lon="10.8159327"><ele>21.333333333333332</ele><time>2026-04-19T14:16:45.946Z</time></trkpt><trkpt lat="43.6987335" lon="10.8162387"><ele>21.666666666666664</ele><time>2026-04-19T14:16:46.946Z</time></trkpt><trkpt lat="43.6987139" lon="10.8165473"><ele>22.0</ele><time>2026-04-19T14:16:47.946Z</time></trkpt><trkpt lat="43.6986888" lon="10.8168528"><ele>22.0</ele><time>2026-04-19T14:16:48.946Z</time></trkpt><trkpt lat="43.6986633" lon="10.817158"><ele>22.0</ele><time>2026-04-19T14:16:49.946Z</time></trkpt><trkpt lat="43.6986322" lon="10.8174582"><ele>22.0</ele><time>2026-04-19T14:16:50.946Z</time></trkpt><trkpt lat="43.6986023" lon="10.8177453"><ele>21.666666666666664</ele><time>2026-04-19T14:16:51.946Z</time></trkpt><trkpt lat="43.6985652" lon="10.8180354"><ele>21.333333333333332</ele><time>2026-04-19T14:16:52.946Z</time></trkpt><trkpt lat="43.698529" lon="10.818322"><ele>21.0</ele><time>2026-04-19T14:16:53.946Z</time></trkpt><trkpt lat="43.6984871" lon="10.8186095"><ele>20.666666666666668</ele><time>2026-04-19T14:16:54.946Z</time></trkpt><trkpt lat="43.6984349" lon="10.8188971"><ele>20.333333333333336</ele><time>2026-04-19T14:16:55.946Z</time></trkpt><trkpt lat="43.6983823" lon="10.819182"><ele>20.0</ele><time>2026-04-19T14:16:56.947Z</time></trkpt><trkpt lat="43.6983286" lon="10.8194646"><ele>20.0</ele><time>2026-04-19T14:16:57.946Z</time></trkpt><trkpt lat="43.698272" lon="10.8197494"><ele>20.0</ele><time>2026-04-19T14:16:58.946Z</time></trkpt><trkpt lat="43.6982146" lon="10.8200378"><ele>20.0</ele><time>2026-04-19T14:16:59.947Z</time></trkpt><trkpt lat="43.6981502" lon="10.8203224"><ele>20.0</ele><time>2026-04-19T14:17:00.946Z</time></trkpt><trkpt lat="43.6980938" lon="10.8206084"><ele>20.0</ele><time>2026-04-19T14:17:01.946Z</time></trkpt><trkpt lat="43.6980376" lon="10.820887"><ele>20.0</ele><time>2026-04-19T14:17:02.946Z</time></trkpt><trkpt lat="43.6979827" lon="10.8211689"><ele>20.0</ele><time>2026-04-19T14:17:03.946Z</time></trkpt><trkpt lat="43.6979319" lon="10.8214471"><ele>20.0</ele><time>2026-04-19T14:17:04.946Z</time></trkpt><trkpt lat="43.6978782" lon="10.8217325"><ele>20.0</ele><time>2026-04-19T14:17:05.946Z</time></trkpt><trkpt lat="43.6978237" lon="10.8220178"><ele>20.0</ele><time>2026-04-19T14:17:06.947Z</time></trkpt><trkpt lat="43.6977712" lon="10.8223022"><ele>20.0</ele><time>2026-04-19T14:17:07.946Z</time></trkpt><trkpt lat="43.6977196" lon="10.8225885"><ele>20.0</ele><time>2026-04-19T14:17:08.946Z</time></trkpt><trkpt lat="43.6976669" lon="10.8228759"><ele>19.666666666666668</ele><time>2026-04-19T14:17:09.947Z</time></trkpt><trkpt lat="43.6976093" lon="10.8231616"><ele>19.333333333333332</ele><time>2026-04-19T14:17:10.946Z</time></trkpt><trkpt lat="43.6975481" lon="10.8234504"><ele>19.0</ele><time>2026-04-19T14:17:11.946Z</time></trkpt><trkpt lat="43.6974888" lon="10.8237396"><ele>19.0</ele><time>2026-04-19T14:17:12.946Z</time></trkpt><trkpt lat="43.6974354" lon="10.8240267"><ele>19.0</ele><time>2026-04-19T14:17:13.946Z</time></trkpt><trkpt lat="43.6973789" lon="10.8243144"><ele>19.0</ele><time>2026-04-19T14:17:14.946Z</time></trkpt><trkpt lat="43.6973301" lon="10.8246069"><ele>18.666666666666664</ele><time>2026-04-19T14:17:15.946Z</time></trkpt><trkpt lat="43.6972746" lon="10.8248947"><ele>18.333333333333332</ele><time>2026-04-19T14:17:16.946Z</time></trkpt><trkpt lat="43.6972161" lon="10.8251826"><ele>18.0</ele><time>2026-04-19T14:17:17.946Z</time></trkpt><trkpt lat="43.6971612" lon="10.8254653"><ele>18.666666666666668</ele><time>2026-04-19T14:17:18.946Z</time></trkpt><trkpt lat="43.6971024" lon="10.8257521"><ele>19.333333333333336</ele><time>2026-04-19T14:17:19.946Z</time></trkpt><trkpt lat="43.6970494" lon="10.8260361"><ele>20.0</ele><time>2026-04-19T14:17:20.947Z</time></trkpt><trkpt lat="43.6969939" lon="10.8263259"><ele>20.333333333333336</ele><time>2026-04-19T14:17:21.946Z</time></trkpt><trkpt lat="43.696935" lon="10.8266116"><ele>20.666666666666668</ele><time>2026-04-19T14:17:22.947Z</time></trkpt><trkpt lat="43.6968757" lon="10.8268996"><ele>21.0</ele><time>2026-04-19T14:17:23.946Z</time></trkpt><trkpt lat="43.6968246" lon="10.8271875"><ele>21.333333333333332</ele><time>2026-04-19T14:17:24.946Z</time></trkpt><trkpt lat="43.6967766" lon="10.8274774"><ele>21.666666666666664</ele><time>2026-04-19T14:17:25.947Z</time></trkpt><trkpt lat="43.6967315" lon="10.8277703"><ele>22.0</ele><time>2026-04-19T14:17:26.946Z</time></trkpt><trkpt lat="43.6966915" lon="10.8280609"><ele>22.333333333333332</ele><time>2026-04-19T14:17:27.946Z</time></trkpt><trkpt lat="43.6966566" lon="10.8283586"><ele>22.666666666666668</ele><time>2026-04-19T14:17:28.946Z</time></trkpt><trkpt lat="43.6966283" lon="10.8286521"><ele>23.0</ele><time>2026-04-19T14:17:29.946Z</time></trkpt><trkpt lat="43.6966109" lon="10.8289469"><ele>23.0</ele><time>2026-04-19T14:17:30.946Z</time></trkpt><trkpt lat="43.6966058" lon="10.8292415"><ele>23.0</ele><time>2026-04-19T14:17:31.946Z</time></trkpt><trkpt lat="43.6966049" lon="10.8295331"><ele>23.0</ele><time>2026-04-19T14:17:32.946Z</time></trkpt><trkpt lat="43.6966172" lon="10.8298291"><ele>22.666666666666668</ele><time>2026-04-19T14:17:33.946Z</time></trkpt><trkpt lat="43.6966332" lon="10.8301138"><ele>22.333333333333332</ele><time>2026-04-19T14:17:34.946Z</time></trkpt><trkpt lat="43.6966505" lon="10.8303818"><ele>22.0</ele><time>2026-04-19T14:17:35.946Z</time></trkpt><trkpt lat="43.6966685" lon="10.8306393"><ele>21.666666666666664</ele><time>2026-04-19T14:17:36.947Z</time></trkpt><trkpt lat="43.6966895" lon="10.8308854"><ele>21.333333333333332</ele><time>2026-04-19T14:17:37.947Z</time></trkpt><trkpt lat="43.6967198" lon="10.831136"><ele>21.0</ele><time>2026-04-19T14:17:38.946Z</time></trkpt><trkpt lat="43.6967514" lon="10.8313796"><ele>21.0</ele><time>2026-04-19T14:17:39.946Z</time></trkpt><trkpt lat="43.6967939" lon="10.8316225"><ele>21.0</ele><time>2026-04-19T14:17:40.946Z</time></trkpt><trkpt lat="43.6968452" lon="10.8318669"><ele>21.0</ele><time>2026-04-19T14:17:41.946Z</time></trkpt><trkpt lat="43.6969065" lon="10.8321129"><ele>21.666666666666668</ele><time>2026-04-19T14:17:42.946Z</time></trkpt><trkpt lat="43.6969651" lon="10.8323598"><ele>22.333333333333336</ele><time>2026-04-19T14:17:43.946Z</time></trkpt><trkpt lat="43.6970305" lon="10.8326122"><ele>23.0</ele><time>2026-04-19T14:17:44.946Z</time></trkpt><trkpt lat="43.6971061" lon="10.8328619"><ele>23.0</ele><time>2026-04-19T14:17:45.946Z</time></trkpt><trkpt lat="43.6971888" lon="10.8331232"><ele>23.0</ele><time>2026-04-19T14:17:46.946Z</time></trkpt><trkpt lat="43.6972827" lon="10.8333805"><ele>23.0</ele><time>2026-04-19T14:17:47.946Z</time></trkpt><trkpt lat="43.6973782" lon="10.83363"><ele>23.0</ele><time>2026-04-19T14:17:48.946Z</time></trkpt><trkpt lat="43.6974767" lon="10.8338681"><ele>23.0</ele><time>2026-04-19T14:17:49.947Z</time></trkpt><trkpt lat="43.6975782" lon="10.8340951"><ele>23.0</ele><time>2026-04-19T14:17:50.946Z</time></trkpt><trkpt lat="43.6976812" lon="10.8343189"><ele>23.666666666666668</ele><time>2026-04-19T14:17:51.946Z</time></trkpt><trkpt lat="43.6977802" lon="10.8345304"><ele>24.333333333333336</ele><time>2026-04-19T14:17:52.946Z</time></trkpt><trkpt lat="43.6978777" lon="10.8347458"><ele>25.0</ele><time>2026-04-19T14:17:53.946Z</time></trkpt><trkpt lat="43.6979736" lon="10.8349452"><ele>24.0</ele><time>2026-04-19T14:17:54.946Z</time></trkpt><trkpt lat="43.6980685" lon="10.8351406"><ele>23.0</ele><time>2026-04-19T14:17:55.947Z</time></trkpt><trkpt lat="43.6981642" lon="10.8353307"><ele>22.0</ele><time>2026-04-19T14:17:56.946Z</time></trkpt><trkpt lat="43.6982603" lon="10.8355284"><ele>22.0</ele><time>2026-04-19T14:17:57.946Z</time></trkpt><trkpt lat="43.6983567" lon="10.8357255"><ele>22.0</ele><time>2026-04-19T14:17:58.946Z</time></trkpt><trkpt lat="43.6984494" lon="10.8359228"><ele>22.0</ele><time>2026-04-19T14:17:59.946Z</time></trkpt><trkpt lat="43.6985457" lon="10.8361225"><ele>22.0</ele><time>2026-04-19T14:18:00.946Z</time></trkpt><trkpt lat="43.6986511" lon="10.8363289"><ele>22.0</ele><time>2026-04-19T14:18:01.946Z</time></trkpt><trkpt lat="43.6987572" lon="10.8365406"><ele>22.0</ele><time>2026-04-19T14:18:02.946Z</time></trkpt><trkpt lat="43.6988656" lon="10.8367568"><ele>21.333333333333332</ele><time>2026-04-19T14:18:03.946Z</time></trkpt><trkpt lat="43.6989746" lon="10.8369771"><ele>20.666666666666668</ele><time>2026-04-19T14:18:04.946Z</time></trkpt><trkpt lat="43.699091" lon="10.8372069"><ele>20.0</ele><time>2026-04-19T14:18:05.946Z</time></trkpt><trkpt lat="43.699206" lon="10.8374324"><ele>20.333333333333336</ele><time>2026-04-19T14:18:06.946Z</time></trkpt><trkpt lat="43.6993289" lon="10.8376559"><ele>20.666666666666668</ele><time>2026-04-19T14:18:07.946Z</time></trkpt><trkpt lat="43.6994417" lon="10.8378872"><ele>21.0</ele><time>2026-04-19T14:18:08.947Z</time></trkpt><trkpt lat="43.6995556" lon="10.8381231"><ele>21.333333333333332</ele><time>2026-04-19T14:18:09.946Z</time></trkpt><trkpt lat="43.6996729" lon="10.8383585"><ele>21.666666666666664</ele><time>2026-04-19T14:18:10.946Z</time></trkpt><trkpt lat="43.6997905" lon="10.8385952"><ele>22.0</ele><time>2026-04-19T14:18:11.946Z</time></trkpt><trkpt lat="43.6999082" lon="10.8388296"><ele>22.0</ele><time>2026-04-19T14:18:12.946Z</time></trkpt><trkpt lat="43.7000241" lon="10.8390621"><ele>22.0</ele><time>2026-04-19T14:18:13.946Z</time></trkpt><trkpt lat="43.7001336" lon="10.8392877"><ele>22.0</ele><time>2026-04-19T14:18:14.946Z</time></trkpt><trkpt lat="43.7002454" lon="10.8395104"><ele>21.666666666666664</ele><time>2026-04-19T14:18:15.946Z</time></trkpt><trkpt lat="43.7003512" lon="10.839723"><ele>21.333333333333332</ele><time>2026-04-19T14:18:16.946Z</time></trkpt><trkpt lat="43.7004539" lon="10.8399388"><ele>21.0</ele><time>2026-04-19T14:18:17.946Z</time></trkpt><trkpt lat="43.7005565" lon="10.8401468"><ele>21.0</ele><time>2026-04-19T14:18:18.946Z</time></trkpt><trkpt lat="43.7006606" lon="10.8403525"><ele>21.0</ele><time>2026-04-19T14:18:19.947Z</time></trkpt><trkpt lat="43.7007612" lon="10.8405657"><ele>21.0</ele><time>2026-04-19T14:18:20.946Z</time></trkpt><trkpt lat="43.7008618" lon="10.8407773"><ele>21.333333333333332</ele><time>2026-04-19T14:18:21.946Z</time></trkpt><trkpt lat="43.7009654" lon="10.8409956"><ele>21.666666666666664</ele><time>2026-04-19T14:18:22.946Z</time></trkpt><trkpt lat="43.7010746" lon="10.8412177"><ele>22.0</ele><time>2026-04-19T14:18:23.946Z</time></trkpt><trkpt lat="43.7011842" lon="10.841452"><ele>22.0</ele><time>2026-04-19T14:18:24.946Z</time></trkpt><trkpt lat="43.7012943" lon="10.8416901"><ele>22.0</ele><time>2026-04-19T14:18:25.946Z</time></trkpt><trkpt lat="43.7014007" lon="10.8419289"><ele>22.0</ele><time>2026-04-19T14:18:26.946Z</time></trkpt><trkpt lat="43.7015015" lon="10.8421795"><ele>22.0</ele><time>2026-04-19T14:18:27.946Z</time></trkpt><trkpt lat="43.701598" lon="10.8424316"><ele>22.0</ele><time>2026-04-19T14:18:28.946Z</time></trkpt><trkpt lat="43.7016828" lon="10.8426869"><ele>22.0</ele><time>2026-04-19T14:18:29.947Z</time></trkpt><trkpt lat="43.7017629" lon="10.842941"><ele>21.666666666666664</ele><time>2026-04-19T14:18:30.946Z</time></trkpt><trkpt lat="43.7018388" lon="10.8431975"><ele>21.333333333333332</ele><time>2026-04-19T14:18:31.946Z</time></trkpt><trkpt lat="43.7019078" lon="10.8434455"><ele>21.0</ele><time>2026-04-19T14:18:32.946Z</time></trkpt><trkpt lat="43.7019706" lon="10.843697"><ele>20.666666666666668</ele><time>2026-04-19T14:18:33.947Z</time></trkpt><trkpt lat="43.702025" lon="10.8439504"><ele>20.333333333333336</ele><time>2026-04-19T14:18:34.947Z</time></trkpt><trkpt lat="43.7020753" lon="10.8442012"><ele>20.0</ele><time>2026-04-19T14:18:35.946Z</time></trkpt><trkpt lat="43.7021215" lon="10.844453"><ele>20.666666666666668</ele><time>2026-04-19T14:18:36.946Z</time></trkpt><trkpt lat="43.702164" lon="10.8447061"><ele>21.333333333333332</ele><time>2026-04-19T14:18:37.946Z</time></trkpt><trkpt lat="43.7022048" lon="10.8449645"><ele>22.0</ele><time>2026-04-19T14:18:38.946Z</time></trkpt><trkpt lat="43.7022414" lon="10.8452213"><ele>22.0</ele><time>2026-04-19T14:18:39.946Z</time></trkpt><trkpt lat="43.7022778" lon="10.8454795"><ele>22.0</ele><time>2026-04-19T14:18:40.947Z</time></trkpt><trkpt lat="43.7023127" lon="10.8457405"><ele>22.0</ele><time>2026-04-19T14:18:41.947Z</time></trkpt><trkpt lat="43.7023444" lon="10.8459983"><ele>22.0</ele><time>2026-04-19T14:18:42.946Z</time></trkpt><trkpt lat="43.702375" lon="10.8462525"><ele>22.0</ele><time>2026-04-19T14:18:43.946Z</time></trkpt><trkpt lat="43.7024011" lon="10.8464976"><ele>22.0</ele><time>2026-04-19T14:18:44.947Z</time></trkpt><trkpt lat="43.7024289" lon="10.8467366"><ele>22.333333333333332</ele><time>2026-04-19T14:18:45.946Z</time></trkpt><trkpt lat="43.7024601" lon="10.8469669"><ele>22.666666666666668</ele><time>2026-04-19T14:18:46.947Z</time></trkpt><trkpt lat="43.7024904" lon="10.8472017"><ele>23.0</ele><time>2026-04-19T14:18:47.946Z</time></trkpt><trkpt lat="43.7025195" lon="10.8474392"><ele>22.0</ele><time>2026-04-19T14:18:48.946Z</time></trkpt><trkpt lat="43.7025544" lon="10.8476818"><ele>21.0</ele><time>2026-04-19T14:18:49.946Z</time></trkpt><trkpt lat="43.7025921" lon="10.8479237"><ele>20.0</ele><time>2026-04-19T14:18:50.946Z</time></trkpt><trkpt lat="43.7026218" lon="10.8481669"><ele>20.0</ele><time>2026-04-19T14:18:51.946Z</time></trkpt><trkpt lat="43.7026507" lon="10.8484052"><ele>20.0</ele><time>2026-04-19T14:18:52.946Z</time></trkpt><trkpt lat="43.7026828" lon="10.8486505"><ele>20.0</ele><time>2026-04-19T14:18:53.946Z</time></trkpt><trkpt lat="43.7027117" lon="10.8488924"><ele>19.666666666666668</ele><time>2026-04-19T14:18:54.947Z</time></trkpt><trkpt lat="43.7027421" lon="10.8491373"><ele>19.333333333333332</ele><time>2026-04-19T14:18:55.946Z</time></trkpt><trkpt lat="43.7027748" lon="10.8493772"><ele>19.0</ele><time>2026-04-19T14:18:56.946Z</time></trkpt><trkpt lat="43.7028005" lon="10.8496179"><ele>19.666666666666664</ele><time>2026-04-19T14:18:57.946Z</time></trkpt><trkpt lat="43.7028276" lon="10.8498606"><ele>20.333333333333332</ele><time>2026-04-19T14:18:58.946Z</time></trkpt><trkpt lat="43.7028622" lon="10.8500986"><ele>21.0</ele><time>2026-04-19T14:18:59.946Z</time></trkpt><trkpt lat="43.7028997" lon="10.8503515"><ele>21.0</ele><time>2026-04-19T14:19:00.946Z</time></trkpt><trkpt lat="43.7029304" lon="10.8506036"><ele>21.0</ele><time>2026-04-19T14:19:01.946Z</time></trkpt><trkpt lat="43.70296" lon="10.8508565"><ele>21.0</ele><time>2026-04-19T14:19:02.946Z</time></trkpt><trkpt lat="43.7029953" lon="10.8511093"><ele>21.333333333333332</ele><time>2026-04-19T14:19:03.946Z</time></trkpt><trkpt lat="43.7030271" lon="10.851373"><ele>21.666666666666664</ele><time>2026-04-19T14:19:04.946Z</time></trkpt><trkpt lat="43.7030592" lon="10.8516371"><ele>22.0</ele><time>2026-04-19T14:19:05.946Z</time></trkpt><trkpt lat="43.7030941" lon="10.851893"><ele>22.0</ele><time>2026-04-19T14:19:06.946Z</time></trkpt><trkpt lat="43.7031301" lon="10.8521487"><ele>22.0</ele><time>2026-04-19T14:19:07.946Z</time></trkpt><trkpt lat="43.7031648" lon="10.8523985"><ele>22.0</ele><time>2026-04-19T14:19:08.946Z</time></trkpt><trkpt lat="43.703197" lon="10.8526457"><ele>22.0</ele><time>2026-04-19T14:19:09.946Z</time></trkpt><trkpt lat="43.7032248" lon="10.8528942"><ele>22.0</ele><time>2026-04-19T14:19:10.946Z</time></trkpt><trkpt lat="43.7032548" lon="10.8531465"><ele>22.0</ele><time>2026-04-19T14:19:11.946Z</time></trkpt><trkpt lat="43.7032884" lon="10.8534001"><ele>21.333333333333332</ele><time>2026-04-19T14:19:12.946Z</time></trkpt><trkpt lat="43.703321" lon="10.8536598"><ele>20.666666666666668</ele><time>2026-04-19T14:19:13.946Z</time></trkpt><trkpt lat="43.7033596" lon="10.8539266"><ele>20.0</ele><time>2026-04-19T14:19:14.946Z</time></trkpt><trkpt lat="43.703395" lon="10.854195"><ele>20.666666666666668</ele><time>2026-04-19T14:19:15.946Z</time></trkpt><trkpt lat="43.7034263" lon="10.8544596"><ele>21.333333333333332</ele><time>2026-04-19T14:19:16.946Z</time></trkpt><trkpt lat="43.7034631" lon="10.8547193"><ele>22.0</ele><time>2026-04-19T14:19:17.946Z</time></trkpt><trkpt lat="43.7034986" lon="10.8549897"><ele>22.0</ele><time>2026-04-19T14:19:18.946Z</time></trkpt><trkpt lat="43.7035315" lon="10.8552571"><ele>22.0</ele><time>2026-04-19T14:19:19.946Z</time></trkpt><trkpt lat="43.7035569" lon="10.8555289"><ele>22.0</ele><time>2026-04-19T14:19:20.946Z</time></trkpt><trkpt lat="43.7035913" lon="10.8558055"><ele>21.666666666666664</ele><time>2026-04-19T14:19:21.946Z</time></trkpt><trkpt lat="43.7036248" lon="10.8560784"><ele>21.333333333333332</ele><time>2026-04-19T14:19:22.946Z</time></trkpt><trkpt lat="43.7036568" lon="10.8563445"><ele>21.0</ele><time>2026-04-19T14:19:23.946Z</time></trkpt><trkpt lat="43.7036921" lon="10.8566086"><ele>21.333333333333332</ele><time>2026-04-19T14:19:24.946Z</time></trkpt><trkpt lat="43.7037289" lon="10.8568759"><ele>21.666666666666664</ele><time>2026-04-19T14:19:25.946Z</time></trkpt><trkpt lat="43.7037617" lon="10.8571379"><ele>22.0</ele><time>2026-04-19T14:19:26.946Z</time></trkpt><trkpt lat="43.7038016" lon="10.8574065"><ele>22.0</ele><time>2026-04-19T14:19:27.946Z</time></trkpt><trkpt lat="43.7038312" lon="10.857674"><ele>22.0</ele><time>2026-04-19T14:19:28.946Z</time></trkpt><trkpt lat="43.7038664" lon="10.8579466"><ele>22.0</ele><time>2026-04-19T14:19:29.946Z</time></trkpt><trkpt lat="43.7038993" lon="10.8582103"><ele>22.0</ele><time>2026-04-19T14:19:30.946Z</time></trkpt><trkpt lat="43.7039298" lon="10.858468"><ele>22.0</ele><time>2026-04-19T14:19:31.946Z</time></trkpt><trkpt lat="43.7039644" lon="10.858728"><ele>22.0</ele><time>2026-04-19T14:19:32.946Z</time></trkpt><trkpt lat="43.7040001" lon="10.8589851"><ele>22.0</ele><time>2026-04-19T14:19:33.946Z</time></trkpt><trkpt lat="43.7040361" lon="10.8592398"><ele>22.0</ele><time>2026-04-19T14:19:34.946Z</time></trkpt><trkpt lat="43.7040659" lon="10.859484"><ele>22.0</ele><time>2026-04-19T14:19:35.946Z</time></trkpt><trkpt lat="43.7040973" lon="10.8597347"><ele>22.0</ele><time>2026-04-19T14:19:36.946Z</time></trkpt><trkpt lat="43.7041258" lon="10.8599843"><ele>22.0</ele><time>2026-04-19T14:19:37.946Z</time></trkpt><trkpt lat="43.7041499" lon="10.8602344"><ele>22.0</ele><time>2026-04-19T14:19:38.946Z</time></trkpt><trkpt lat="43.7041728" lon="10.8604912"><ele>22.0</ele><time>2026-04-19T14:19:39.946Z</time></trkpt><trkpt lat="43.7041944" lon="10.860744"><ele>22.0</ele><time>2026-04-19T14:19:40.946Z</time></trkpt><trkpt lat="43.7042148" lon="10.8609951"><ele>22.0</ele><time>2026-04-19T14:19:41.946Z</time></trkpt><trkpt lat="43.704229" lon="10.861246"><ele>22.0</ele><time>2026-04-19T14:19:42.946Z</time></trkpt><trkpt lat="43.7042442" lon="10.8614987"><ele>22.0</ele><time>2026-04-19T14:19:43.946Z</time></trkpt><trkpt lat="43.7042533" lon="10.8617483"><ele>22.0</ele><time>2026-04-19T14:19:44.946Z</time></trkpt><trkpt lat="43.7042538" lon="10.8620007"><ele>22.333333333333332</ele><time>2026-04-19T14:19:45.946Z</time></trkpt><trkpt lat="43.7042524" lon="10.8622515"><ele>22.666666666666668</ele><time>2026-04-19T14:19:46.946Z</time></trkpt><trkpt lat="43.7042453" lon="10.8625047"><ele>23.0</ele><time>2026-04-19T14:19:47.946Z</time></trkpt><trkpt lat="43.7042303" lon="10.8627669"><ele>22.666666666666668</ele><time>2026-04-19T14:19:48.946Z</time></trkpt><trkpt lat="43.7042057" lon="10.8630196"><ele>22.333333333333332</ele><time>2026-04-19T14:19:49.946Z</time></trkpt><trkpt lat="43.7041892" lon="10.8632776"><ele>22.0</ele><time>2026-04-19T14:19:50.947Z</time></trkpt><trkpt lat="43.704166" lon="10.8635262"><ele>22.0</ele><time>2026-04-19T14:19:51.946Z</time></trkpt><trkpt lat="43.7041404" lon="10.8637773"><ele>22.0</ele><time>2026-04-19T14:19:52.946Z</time></trkpt><trkpt lat="43.7041095" lon="10.8640255"><ele>22.0</ele><time>2026-04-19T14:19:53.946Z</time></trkpt><trkpt lat="43.7040762" lon="10.8642834"><ele>22.0</ele><time>2026-04-19T14:19:54.946Z</time></trkpt><trkpt lat="43.7040423" lon="10.8645419"><ele>22.0</ele><time>2026-04-19T14:19:55.946Z</time></trkpt><trkpt lat="43.7040014" lon="10.8648061"><ele>22.0</ele><time>2026-04-19T14:19:56.946Z</time></trkpt><trkpt lat="43.7039586" lon="10.8650622"><ele>22.666666666666664</ele><time>2026-04-19T14:19:57.946Z</time></trkpt><trkpt lat="43.703917" lon="10.8653168"><ele>23.333333333333332</ele><time>2026-04-19T14:19:58.946Z</time></trkpt><trkpt lat="43.7038774" lon="10.8655629"><ele>24.0</ele><time>2026-04-19T14:19:59.946Z</time></trkpt><trkpt lat="43.7038366" lon="10.8658151"><ele>24.0</ele><time>2026-04-19T14:20:00.946Z</time></trkpt><trkpt lat="43.7037989" lon="10.8660594"><ele>24.0</ele><time>2026-04-19T14:20:01.946Z</time></trkpt><trkpt lat="43.7037592" lon="10.866306"><ele>24.0</ele><time>2026-04-19T14:20:02.946Z</time></trkpt><trkpt lat="43.7037198" lon="10.8665543"><ele>24.333333333333336</ele><time>2026-04-19T14:20:03.946Z</time></trkpt><trkpt lat="43.7036775" lon="10.8668085"><ele>24.666666666666668</ele><time>2026-04-19T14:20:04.946Z</time></trkpt><trkpt lat="43.7036385" lon="10.8670691"><ele>25.0</ele><time>2026-04-19T14:20:05.946Z</time></trkpt><trkpt lat="43.7035981" lon="10.8673243"><ele>24.666666666666668</ele><time>2026-04-19T14:20:06.946Z</time></trkpt><trkpt lat="43.7035584" lon="10.867586"><ele>24.333333333333336</ele><time>2026-04-19T14:20:07.946Z</time></trkpt><trkpt lat="43.7035228" lon="10.8678459"><ele>24.0</ele><time>2026-04-19T14:20:08.946Z</time></trkpt><trkpt lat="43.703487" lon="10.8681207"><ele>24.0</ele><time>2026-04-19T14:20:09.946Z</time></trkpt><trkpt lat="43.7034524" lon="10.8684191"><ele>24.0</ele><time>2026-04-19T14:20:10.946Z</time></trkpt><trkpt lat="43.70342" lon="10.8687374"><ele>24.0</ele><time>2026-04-19T14:20:11.946Z</time></trkpt><trkpt lat="43.7033986" lon="10.8690658"><ele>24.0</ele><time>2026-04-19T14:20:12.946Z</time></trkpt><trkpt lat="43.7033875" lon="10.8693856"><ele>24.333333333333336</ele><time>2026-04-19T14:20:13.946Z</time></trkpt><trkpt lat="43.703386" lon="10.8696841"><ele>24.666666666666668</ele><time>2026-04-19T14:20:14.947Z</time></trkpt><trkpt lat="43.7033934" lon="10.8699656"><ele>25.0</ele><time>2026-04-19T14:20:15.946Z</time></trkpt><trkpt lat="43.7034058" lon="10.8702467"><ele>25.333333333333336</ele><time>2026-04-19T14:20:16.946Z</time></trkpt><trkpt lat="43.7034248" lon="10.8705282"><ele>25.666666666666664</ele><time>2026-04-19T14:20:17.946Z</time></trkpt><trkpt lat="43.7034498" lon="10.8708095"><ele>26.0</ele><time>2026-04-19T14:20:18.946Z</time></trkpt><trkpt lat="43.7034809" lon="10.8710879"><ele>25.666666666666664</ele><time>2026-04-19T14:20:19.947Z</time></trkpt><trkpt lat="43.7035153" lon="10.8713702"><ele>25.333333333333336</ele><time>2026-04-19T14:20:20.946Z</time></trkpt><trkpt lat="43.7035522" lon="10.8716543"><ele>25.0</ele><time>2026-04-19T14:20:21.946Z</time></trkpt><trkpt lat="43.7035897" lon="10.8719326"><ele>25.0</ele><time>2026-04-19T14:20:22.946Z</time></trkpt><trkpt lat="43.7036288" lon="10.8722148"><ele>25.0</ele><time>2026-04-19T14:20:23.946Z</time></trkpt><trkpt lat="43.7036631" lon="10.8724956"><ele>25.0</ele><time>2026-04-19T14:20:24.946Z</time></trkpt><trkpt lat="43.7037111" lon="10.8727914"><ele>25.0</ele><time>2026-04-19T14:20:25.946Z</time></trkpt><trkpt lat="43.7037624" lon="10.8730992"><ele>25.0</ele><time>2026-04-19T14:20:26.946Z</time></trkpt><trkpt lat="43.7038078" lon="10.8734005"><ele>24.333333333333336</ele><time>2026-04-19T14:20:27.946Z</time></trkpt><trkpt lat="43.7038508" lon="10.8736929"><ele>23.666666666666668</ele><time>2026-04-19T14:20:28.946Z</time></trkpt><trkpt lat="43.7038904" lon="10.8739789"><ele>23.0</ele><time>2026-04-19T14:20:29.946Z</time></trkpt><trkpt lat="43.7039278" lon="10.8742757"><ele>22.5</ele><time>2026-04-19T14:20:30.946Z</time></trkpt><trkpt lat="43.7039711" lon="10.8745926"><ele>22.0</ele><time>2026-04-19T14:20:31.946Z</time></trkpt><trkpt lat="43.7040143" lon="10.8749272"><ele>23.0</ele><time>2026-04-19T14:20:32.946Z</time></trkpt><trkpt lat="43.704051" lon="10.8752587"><ele>24.0</ele><time>2026-04-19T14:20:33.946Z</time></trkpt><trkpt lat="43.7040851" lon="10.8755783"><ele>24.0</ele><time>2026-04-19T14:20:34.947Z</time></trkpt><trkpt lat="43.7041229" lon="10.8759002"><ele>24.0</ele><time>2026-04-19T14:20:35.946Z</time></trkpt><trkpt lat="43.704161" lon="10.87622"><ele>24.0</ele><time>2026-04-19T14:20:36.946Z</time></trkpt><trkpt lat="43.7042002" lon="10.876541"><ele>24.0</ele><time>2026-04-19T14:20:37.946Z</time></trkpt><trkpt lat="43.7042418" lon="10.8768521"><ele>24.0</ele><time>2026-04-19T14:20:38.946Z</time></trkpt><trkpt lat="43.7042824" lon="10.8771575"><ele>24.0</ele><time>2026-04-19T14:20:39.946Z</time></trkpt><trkpt lat="43.704324" lon="10.8774594"><ele>24.0</ele><time>2026-04-19T14:20:40.946Z</time></trkpt><trkpt lat="43.7043639" lon="10.8777614"><ele>24.5</ele><time>2026-04-19T14:20:41.947Z</time></trkpt><trkpt lat="43.7044047" lon="10.8780666"><ele>25.0</ele><time>2026-04-19T14:20:42.946Z</time></trkpt><trkpt lat="43.7044461" lon="10.8783736"><ele>24.5</ele><time>2026-04-19T14:20:43.947Z</time></trkpt><trkpt lat="43.7044826" lon="10.8786799"><ele>24.0</ele><time>2026-04-19T14:20:44.946Z</time></trkpt><trkpt lat="43.7045289" lon="10.8789944"><ele>24.0</ele><time>2026-04-19T14:20:45.946Z</time></trkpt><trkpt lat="43.7045714" lon="10.8793208"><ele>24.0</ele><time>2026-04-19T14:20:46.947Z</time></trkpt><trkpt lat="43.7046094" lon="10.8796444"><ele>24.0</ele><time>2026-04-19T14:20:47.946Z</time></trkpt><trkpt lat="43.7046537" lon="10.8799713"><ele>24.0</ele><time>2026-04-19T14:20:48.946Z</time></trkpt><trkpt lat="43.7046976" lon="10.8802916"><ele>24.5</ele><time>2026-04-19T14:20:49.946Z</time></trkpt><trkpt lat="43.7047421" lon="10.8806189"><ele>25.0</ele><time>2026-04-19T14:20:50.946Z</time></trkpt><trkpt lat="43.7047889" lon="10.880953"><ele>24.0</ele><time>2026-04-19T14:20:51.946Z</time></trkpt><trkpt lat="43.7048289" lon="10.8812886"><ele>23.0</ele><time>2026-04-19T14:20:52.946Z</time></trkpt><trkpt lat="43.7048738" lon="10.8816093"><ele>23.5</ele><time>2026-04-19T14:20:53.946Z</time></trkpt><trkpt lat="43.7049144" lon="10.8819357"><ele>24.0</ele><time>2026-04-19T14:20:54.947Z</time></trkpt><trkpt lat="43.7049537" lon="10.8822579"><ele>24.0</ele><time>2026-04-19T14:20:55.946Z</time></trkpt><trkpt lat="43.7049959" lon="10.8825824"><ele>24.0</ele><time>2026-04-19T14:20:56.946Z</time></trkpt><trkpt lat="43.7050366" lon="10.8829012"><ele>24.5</ele><time>2026-04-19T14:20:57.946Z</time></trkpt><trkpt lat="43.705075" lon="10.8832174"><ele>25.0</ele><time>2026-04-19T14:20:58.946Z</time></trkpt><trkpt lat="43.7051184" lon="10.8835316"><ele>25.0</ele><time>2026-04-19T14:20:59.947Z</time></trkpt><trkpt lat="43.7051586" lon="10.8838323"><ele>25.0</ele><time>2026-04-19T14:21:00.946Z</time></trkpt><trkpt lat="43.7051977" lon="10.8841217"><ele>25.0</ele><time>2026-04-19T14:21:01.946Z</time></trkpt><trkpt lat="43.7052385" lon="10.884417"><ele>25.0</ele><time>2026-04-19T14:21:02.946Z</time></trkpt><trkpt lat="43.705274" lon="10.884712"><ele>25.0</ele><time>2026-04-19T14:21:03.946Z</time></trkpt><trkpt lat="43.7053159" lon="10.8850179"><ele>25.0</ele><time>2026-04-19T14:21:04.946Z</time></trkpt><trkpt lat="43.7053606" lon="10.8853417"><ele>25.5</ele><time>2026-04-19T14:21:05.946Z</time></trkpt><trkpt lat="43.705407" lon="10.885672"><ele>26.0</ele><time>2026-04-19T14:21:06.946Z</time></trkpt><trkpt lat="43.705453" lon="10.8859982"><ele>27.0</ele><time>2026-04-19T14:21:07.946Z</time></trkpt><trkpt lat="43.7055105" lon="10.8863151"><ele>28.0</ele><time>2026-04-19T14:21:08.947Z</time></trkpt><trkpt lat="43.7055659" lon="10.8866274"><ele>28.0</ele><time>2026-04-19T14:21:09.946Z</time></trkpt><trkpt lat="43.7056207" lon="10.8869364"><ele>28.0</ele><time>2026-04-19T14:21:10.946Z</time></trkpt><trkpt lat="43.7056812" lon="10.8872465"><ele>28.0</ele><time>2026-04-19T14:21:11.946Z</time></trkpt><trkpt lat="43.705746" lon="10.8875625"><ele>28.0</ele><time>2026-04-19T14:21:12.946Z</time></trkpt><trkpt lat="43.7058071" lon="10.8878682"><ele>27.666666666666668</ele><time>2026-04-19T14:21:13.946Z</time></trkpt><trkpt lat="43.7058727" lon="10.8881596"><ele>27.333333333333336</ele><time>2026-04-19T14:21:14.946Z</time></trkpt><trkpt lat="43.7059339" lon="10.8884432"><ele>27.0</ele><time>2026-04-19T14:21:15.946Z</time></trkpt><trkpt lat="43.7059961" lon="10.8887242"><ele>26.666666666666664</ele><time>2026-04-19T14:21:16.946Z</time></trkpt><trkpt lat="43.7060572" lon="10.8889995"><ele>26.333333333333332</ele><time>2026-04-19T14:21:17.946Z</time></trkpt><trkpt lat="43.7061162" lon="10.8892743"><ele>26.0</ele><time>2026-04-19T14:21:18.946Z</time></trkpt><trkpt lat="43.7061772" lon="10.8895548"><ele>24.666666666666664</ele><time>2026-04-19T14:21:19.946Z</time></trkpt><trkpt lat="43.7062416" lon="10.889846"><ele>23.333333333333332</ele><time>2026-04-19T14:21:20.946Z</time></trkpt><trkpt lat="43.7063018" lon="10.8901341"><ele>22.0</ele><time>2026-04-19T14:21:21.946Z</time></trkpt><trkpt lat="43.7063709" lon="10.89043"><ele>22.0</ele><time>2026-04-19T14:21:22.947Z</time></trkpt><trkpt lat="43.7064309" lon="10.8907214"><ele>22.0</ele><time>2026-04-19T14:21:23.946Z</time></trkpt><trkpt lat="43.7064921" lon="10.8910042"><ele>22.0</ele><time>2026-04-19T14:21:24.946Z</time></trkpt><trkpt lat="43.7065554" lon="10.8912797"><ele>23.0</ele><time>2026-04-19T14:21:25.946Z</time></trkpt><trkpt lat="43.7066168" lon="10.8915604"><ele>24.0</ele><time>2026-04-19T14:21:26.947Z</time></trkpt><trkpt lat="43.7066812" lon="10.8918344"><ele>25.0</ele><time>2026-04-19T14:21:27.946Z</time></trkpt><trkpt lat="43.7067416" lon="10.892114"><ele>25.333333333333336</ele><time>2026-04-19T14:21:28.946Z</time></trkpt><trkpt lat="43.7067977" lon="10.8923786"><ele>25.666666666666664</ele><time>2026-04-19T14:21:29.946Z</time></trkpt><trkpt lat="43.7068503" lon="10.8926359"><ele>26.0</ele><time>2026-04-19T14:21:30.946Z</time></trkpt><trkpt lat="43.7069028" lon="10.8928859"><ele>26.0</ele><time>2026-04-19T14:21:31.946Z</time></trkpt><trkpt lat="43.7069496" lon="10.8931392"><ele>26.0</ele><time>2026-04-19T14:21:32.947Z</time></trkpt><trkpt lat="43.7069893" lon="10.8933962"><ele>26.0</ele><time>2026-04-19T14:21:33.946Z</time></trkpt><trkpt lat="43.7070202" lon="10.8936539"><ele>26.0</ele><time>2026-04-19T14:21:34.947Z</time></trkpt><trkpt lat="43.7070381" lon="10.8939079"><ele>26.0</ele><time>2026-04-19T14:21:35.946Z</time></trkpt><trkpt lat="43.7070453" lon="10.8941446"><ele>26.0</ele><time>2026-04-19T14:21:36.946Z</time></trkpt><trkpt lat="43.7070489" lon="10.8943787"><ele>26.0</ele><time>2026-04-19T14:21:37.946Z</time></trkpt><trkpt lat="43.7070415" lon="10.8945986"><ele>26.0</ele><time>2026-04-19T14:21:38.946Z</time></trkpt><trkpt lat="43.7070142" lon="10.8947962"><ele>26.0</ele><time>2026-04-19T14:21:39.946Z</time></trkpt><trkpt lat="43.7069743" lon="10.894982"><ele>26.0</ele><time>2026-04-19T14:21:40.946Z</time></trkpt><trkpt lat="43.7069227" lon="10.8951551"><ele>25.75</ele><time>2026-04-19T14:21:41.946Z</time></trkpt><trkpt lat="43.7068595" lon="10.8953027"><ele>25.5</ele><time>2026-04-19T14:21:42.946Z</time></trkpt><trkpt lat="43.7067828" lon="10.8954318"><ele>25.25</ele><time>2026-04-19T14:21:43.946Z</time></trkpt><trkpt lat="43.7067021" lon="10.8955488"><ele>25.0</ele><time>2026-04-19T14:21:44.946Z</time></trkpt><trkpt lat="43.7066213" lon="10.8956317"><ele>25.000000000000004</ele><time>2026-04-19T14:21:45.946Z</time></trkpt><trkpt lat="43.706541" lon="10.8956951"><ele>25.0</ele><time>2026-04-19T14:21:46.946Z</time></trkpt><trkpt lat="43.7064586" lon="10.895741"><ele>25.0</ele><time>2026-04-19T14:21:47.946Z</time></trkpt><trkpt lat="43.7063881" lon="10.8957714"><ele>25.0</ele><time>2026-04-19T14:21:48.946Z</time></trkpt><trkpt lat="43.7063194" lon="10.895784"><ele>25.000000000000004</ele><time>2026-04-19T14:21:49.946Z</time></trkpt><trkpt lat="43.7062462" lon="10.8957769"><ele>25.0</ele><time>2026-04-19T14:21:50.946Z</time></trkpt><trkpt lat="43.7061695" lon="10.8957492"><ele>25.0</ele><time>2026-04-19T14:21:51.946Z</time></trkpt><trkpt lat="43.7060899" lon="10.895698"><ele>25.0</ele><time>2026-04-19T14:21:52.946Z</time></trkpt><trkpt lat="43.7060197" lon="10.8956305"><ele>25.0</ele><time>2026-04-19T14:21:53.946Z</time></trkpt><trkpt lat="43.705954" lon="10.8955327"><ele>25.0</ele><time>2026-04-19T14:21:54.946Z</time></trkpt><trkpt lat="43.7059039" lon="10.8954052"><ele>25.0</ele><time>2026-04-19T14:21:55.947Z</time></trkpt><trkpt lat="43.7058519" lon="10.8952221"><ele>24.75</ele><time>2026-04-19T14:21:56.946Z</time></trkpt><trkpt lat="43.705811" lon="10.8950351"><ele>24.5</ele><time>2026-04-19T14:21:57.946Z</time></trkpt><trkpt lat="43.7057647" lon="10.8948473"><ele>24.25</ele><time>2026-04-19T14:21:58.946Z</time></trkpt><trkpt lat="43.7057192" lon="10.8946488"><ele>24.0</ele><time>2026-04-19T14:21:59.946Z</time></trkpt><trkpt lat="43.7056678" lon="10.8944522"><ele>24.0</ele><time>2026-04-19T14:22:00.946Z</time></trkpt><trkpt lat="43.7056214" lon="10.8942351"><ele>24.0</ele><time>2026-04-19T14:22:01.946Z</time></trkpt><trkpt lat="43.7055763" lon="10.8940288"><ele>24.0</ele><time>2026-04-19T14:22:02.946Z</time></trkpt><trkpt lat="43.7055327" lon="10.8938333"><ele>24.0</ele><time>2026-04-19T14:22:03.946Z</time></trkpt><trkpt lat="43.7054912" lon="10.8936556"><ele>24.0</ele><time>2026-04-19T14:22:04.946Z</time></trkpt><trkpt lat="43.7054572" lon="10.8935007"><ele>24.0</ele><time>2026-04-19T14:22:05.946Z</time></trkpt><trkpt lat="43.7054265" lon="10.8933666"><ele>24.0</ele><time>2026-04-19T14:22:06.946Z</time></trkpt><trkpt lat="43.7054158" lon="10.8932517"><ele>24.0</ele><time>2026-04-19T14:22:07.946Z</time></trkpt><trkpt lat="43.705419" lon="10.8931434"><ele>24.4</ele><time>2026-04-19T14:22:08.946Z</time></trkpt><trkpt lat="43.7054426" lon="10.8930356"><ele>24.799999999999997</ele><time>2026-04-19T14:22:09.946Z</time></trkpt><trkpt lat="43.7054761" lon="10.8929214"><ele>25.200000000000003</ele><time>2026-04-19T14:22:10.946Z</time></trkpt><trkpt lat="43.7055265" lon="10.8928176"><ele>25.6</ele><time>2026-04-19T14:22:11.946Z</time></trkpt><trkpt lat="43.7055947" lon="10.892727"><ele>26.0</ele><time>2026-04-19T14:22:12.946Z</time></trkpt><trkpt lat="43.7056872" lon="10.8926398"><ele>26.0</ele><time>2026-04-19T14:22:13.946Z</time></trkpt><trkpt lat="43.705789" lon="10.8925582"><ele>26.0</ele><time>2026-04-19T14:22:14.946Z</time></trkpt><trkpt lat="43.7059165" lon="10.8924806"><ele>26.0</ele><time>2026-04-19T14:22:15.946Z</time></trkpt><trkpt lat="43.7060476" lon="10.8924125"><ele>26.0</ele><time>2026-04-19T14:22:16.947Z</time></trkpt><trkpt lat="43.706185" lon="10.8923391"><ele>26.0</ele><time>2026-04-19T14:22:17.946Z</time></trkpt><trkpt lat="43.7063323" lon="10.8922635"><ele>26.0</ele><time>2026-04-19T14:22:18.947Z</time></trkpt><trkpt lat="43.70648" lon="10.8921868"><ele>26.0</ele><time>2026-04-19T14:22:19.946Z</time></trkpt><trkpt lat="43.7066247" lon="10.8921152"><ele>26.0</ele><time>2026-04-19T14:22:20.946Z</time></trkpt><trkpt lat="43.7067789" lon="10.89204"><ele>26.0</ele><time>2026-04-19T14:22:21.946Z</time></trkpt><trkpt lat="43.7069262" lon="10.8919681"><ele>26.0</ele><time>2026-04-19T14:22:22.946Z</time></trkpt><trkpt lat="43.7070775" lon="10.8918948"><ele>25.75</ele><time>2026-04-19T14:22:23.946Z</time></trkpt><trkpt lat="43.7072248" lon="10.8918219"><ele>25.5</ele><time>2026-04-19T14:22:24.946Z</time></trkpt><trkpt lat="43.7073636" lon="10.8917595"><ele>25.25</ele><time>2026-04-19T14:22:25.946Z</time></trkpt><trkpt lat="43.7074893" lon="10.8916988"><ele>25.0</ele><time>2026-04-19T14:22:26.946Z</time></trkpt><trkpt lat="43.7076126" lon="10.8916393"><ele>25.0</ele><time>2026-04-19T14:22:27.946Z</time></trkpt><trkpt lat="43.7077287" lon="10.8915895"><ele>25.0</ele><time>2026-04-19T14:22:28.946Z</time></trkpt><trkpt lat="43.7078298" lon="10.8915181"><ele>25.0</ele><time>2026-04-19T14:22:29.946Z</time></trkpt><trkpt lat="43.70792" lon="10.8914312"><ele>25.0</ele><time>2026-04-19T14:22:30.946Z</time></trkpt><trkpt lat="43.7079772" lon="10.8913345"><ele>25.0</ele><time>2026-04-19T14:22:31.946Z</time></trkpt><trkpt lat="43.7080178" lon="10.89123"><ele>25.0</ele><time>2026-04-19T14:22:32.946Z</time></trkpt><trkpt lat="43.7080405" lon="10.8911111"><ele>25.0</ele><time>2026-04-19T14:22:33.946Z</time></trkpt><trkpt lat="43.7080448" lon="10.8909729"><ele>25.0</ele><time>2026-04-19T14:22:34.946Z</time></trkpt><trkpt lat="43.7080501" lon="10.8908347"><ele>25.0</ele><time>2026-04-19T14:22:35.946Z</time></trkpt><trkpt lat="43.7080677" lon="10.890699"><ele>25.0</ele><time>2026-04-19T14:22:36.946Z</time></trkpt><trkpt lat="43.7081049" lon="10.8905736"><ele>25.0</ele><time>2026-04-19T14:22:37.946Z</time></trkpt><trkpt lat="43.7081614" lon="10.890455"><ele>25.0</ele><time>2026-04-19T14:22:38.946Z</time></trkpt><trkpt lat="43.7082347" lon="10.8903576"><ele>25.0</ele><time>2026-04-19T14:22:39.946Z</time></trkpt><trkpt lat="43.7083255" lon="10.8902859"><ele>25.0</ele><time>2026-04-19T14:22:40.946Z</time></trkpt><trkpt lat="43.7084355" lon="10.8902255"><ele>25.0</ele><time>2026-04-19T14:22:41.946Z</time></trkpt><trkpt lat="43.7085358" lon="10.8901695"><ele>25.0</ele><time>2026-04-19T14:22:42.946Z</time></trkpt><trkpt lat="43.708641" lon="10.8901212"><ele>25.0</ele><time>2026-04-19T14:22:43.946Z</time></trkpt><trkpt lat="43.7087614" lon="10.8901035"><ele>25.0</ele><time>2026-04-19T14:22:44.946Z</time></trkpt><trkpt lat="43.7088954" lon="10.8900945"><ele>25.0</ele><time>2026-04-19T14:22:45.946Z</time></trkpt><trkpt lat="43.7090119" lon="10.8900917"><ele>25.0</ele><time>2026-04-19T14:22:46.946Z</time></trkpt><trkpt lat="43.709121" lon="10.8901266"><ele>25.0</ele><time>2026-04-19T14:22:47.946Z</time></trkpt><trkpt lat="43.709214" lon="10.8901926"><ele>25.0</ele><time>2026-04-19T14:22:48.947Z</time></trkpt><trkpt lat="43.7092898" lon="10.8902799"><ele>25.0</ele><time>2026-04-19T14:22:49.946Z</time></trkpt><trkpt lat="43.7093563" lon="10.8903763"><ele>25.0</ele><time>2026-04-19T14:22:50.946Z</time></trkpt><trkpt lat="43.709424" lon="10.8904575"><ele>24.6</ele><time>2026-04-19T14:22:51.946Z</time></trkpt><trkpt lat="43.7095033" lon="10.8905123"><ele>24.2</ele><time>2026-04-19T14:22:52.946Z</time></trkpt><trkpt lat="43.7095938" lon="10.8905376"><ele>23.799999999999997</ele><time>2026-04-19T14:22:53.946Z</time></trkpt><trkpt lat="43.7096915" lon="10.8905409"><ele>23.4</ele><time>2026-04-19T14:22:54.946Z</time></trkpt><trkpt lat="43.7097943" lon="10.8905146"><ele>23.0</ele><time>2026-04-19T14:22:55.946Z</time></trkpt><trkpt lat="43.7099111" lon="10.8904646"><ele>23.0</ele><time>2026-04-19T14:22:56.947Z</time></trkpt><trkpt lat="43.7100287" lon="10.8904084"><ele>23.0</ele><time>2026-04-19T14:22:57.946Z</time></trkpt><trkpt lat="43.7101588" lon="10.8903441"><ele>23.0</ele><time>2026-04-19T14:22:58.946Z</time></trkpt><trkpt lat="43.7103077" lon="10.8902683"><ele>23.0</ele><time>2026-04-19T14:22:59.946Z</time></trkpt><trkpt lat="43.710449" lon="10.8901958"><ele>23.0</ele><time>2026-04-19T14:23:00.946Z</time></trkpt><trkpt lat="43.7105962" lon="10.8901253"><ele>23.0</ele><time>2026-04-19T14:23:01.946Z</time></trkpt><trkpt lat="43.7107507" lon="10.8900525"><ele>23.0</ele><time>2026-04-19T14:23:02.946Z</time></trkpt><trkpt lat="43.7109146" lon="10.8899704"><ele>23.333333333333336</ele><time>2026-04-19T14:23:03.946Z</time></trkpt><trkpt lat="43.7110931" lon="10.8898772"><ele>23.666666666666668</ele><time>2026-04-19T14:23:04.946Z</time></trkpt><trkpt lat="43.7112768" lon="10.8897829"><ele>24.0</ele><time>2026-04-19T14:23:05.946Z</time></trkpt><trkpt lat="43.7114487" lon="10.8896977"><ele>24.0</ele><time>2026-04-19T14:23:06.946Z</time></trkpt><trkpt lat="43.7116213" lon="10.8896047"><ele>24.0</ele><time>2026-04-19T14:23:07.946Z</time></trkpt><trkpt lat="43.7117871" lon="10.8895232"><ele>24.0</ele><time>2026-04-19T14:23:08.946Z</time></trkpt><trkpt lat="43.7119446" lon="10.8894413"><ele>23.666666666666668</ele><time>2026-04-19T14:23:09.946Z</time></trkpt><trkpt lat="43.7121037" lon="10.8893567"><ele>23.333333333333336</ele><time>2026-04-19T14:23:10.946Z</time></trkpt><trkpt lat="43.7122652" lon="10.8892694"><ele>23.0</ele><time>2026-04-19T14:23:11.946Z</time></trkpt><trkpt lat="43.7124186" lon="10.8891904"><ele>23.333333333333336</ele><time>2026-04-19T14:23:12.946Z</time></trkpt><trkpt lat="43.7125781" lon="10.8891127"><ele>23.666666666666668</ele><time>2026-04-19T14:23:13.946Z</time></trkpt><trkpt lat="43.712733" lon="10.8890301"><ele>24.0</ele><time>2026-04-19T14:23:14.946Z</time></trkpt><trkpt lat="43.7128874" lon="10.8889538"><ele>24.0</ele><time>2026-04-19T14:23:15.946Z</time></trkpt><trkpt lat="43.7130302" lon="10.8888804"><ele>24.0</ele><time>2026-04-19T14:23:16.946Z</time></trkpt><trkpt lat="43.7131756" lon="10.8888036"><ele>24.0</ele><time>2026-04-19T14:23:17.946Z</time></trkpt><trkpt lat="43.7133163" lon="10.8887338"><ele>24.0</ele><time>2026-04-19T14:23:18.946Z</time></trkpt><trkpt lat="43.7134574" lon="10.8886596"><ele>24.0</ele><time>2026-04-19T14:23:19.946Z</time></trkpt><trkpt lat="43.7135925" lon="10.8885975"><ele>24.0</ele><time>2026-04-19T14:23:20.946Z</time></trkpt><trkpt lat="43.7137277" lon="10.8885266"><ele>24.0</ele><time>2026-04-19T14:23:21.946Z</time></trkpt><trkpt lat="43.7138594" lon="10.8884597"><ele>23.5</ele><time>2026-04-19T14:23:22.946Z</time></trkpt><trkpt lat="43.7139871" lon="10.888388"><ele>23.0</ele><time>2026-04-19T14:23:23.947Z</time></trkpt><trkpt lat="43.7141108" lon="10.8883222"><ele>22.5</ele><time>2026-04-19T14:23:24.946Z</time></trkpt><trkpt lat="43.7142384" lon="10.8882513"><ele>22.0</ele><time>2026-04-19T14:23:25.946Z</time></trkpt><trkpt lat="43.7143651" lon="10.8881846"><ele>22.5</ele><time>2026-04-19T14:23:26.947Z</time></trkpt><trkpt lat="43.714496" lon="10.8881211"><ele>23.0</ele><time>2026-04-19T14:23:27.946Z</time></trkpt><trkpt lat="43.7146265" lon="10.8880589"><ele>23.5</ele><time>2026-04-19T14:23:28.946Z</time></trkpt><trkpt lat="43.7147573" lon="10.8879907"><ele>24.0</ele><time>2026-04-19T14:23:29.946Z</time></trkpt><trkpt lat="43.7148865" lon="10.8879219"><ele>24.0</ele><time>2026-04-19T14:23:30.946Z</time></trkpt><trkpt lat="43.7150146" lon="10.8878512"><ele>24.0</ele><time>2026-04-19T14:23:31.946Z</time></trkpt><trkpt lat="43.7151405" lon="10.8877841"><ele>24.0</ele><time>2026-04-19T14:23:32.946Z</time></trkpt><trkpt lat="43.7152665" lon="10.8877182"><ele>24.0</ele><time>2026-04-19T14:23:33.946Z</time></trkpt><trkpt lat="43.7153961" lon="10.8876554"><ele>23.75</ele><time>2026-04-19T14:23:34.946Z</time></trkpt><trkpt lat="43.7155222" lon="10.8875858"><ele>23.5</ele><time>2026-04-19T14:23:35.946Z</time></trkpt><trkpt lat="43.7156432" lon="10.887519"><ele>23.25</ele><time>2026-04-19T14:23:36.946Z</time></trkpt><trkpt lat="43.7157711" lon="10.8874523"><ele>23.0</ele><time>2026-04-19T14:23:37.947Z</time></trkpt><trkpt lat="43.7158974" lon="10.8873919"><ele>23.0</ele><time>2026-04-19T14:23:38.946Z</time></trkpt><trkpt lat="43.7160244" lon="10.8873221"><ele>23.0</ele><time>2026-04-19T14:23:39.946Z</time></trkpt><trkpt lat="43.716162" lon="10.8872517"><ele>23.0</ele><time>2026-04-19T14:23:40.946Z</time></trkpt><trkpt lat="43.7163114" lon="10.8871775"><ele>23.0</ele><time>2026-04-19T14:23:41.946Z</time></trkpt><trkpt lat="43.7164562" lon="10.8870981"><ele>22.75</ele><time>2026-04-19T14:23:42.946Z</time></trkpt><trkpt lat="43.7165992" lon="10.8870283"><ele>22.5</ele><time>2026-04-19T14:23:43.946Z</time></trkpt><trkpt lat="43.7167341" lon="10.8869618"><ele>22.25</ele><time>2026-04-19T14:23:44.946Z</time></trkpt><trkpt lat="43.7168757" lon="10.8868848"><ele>22.0</ele><time>2026-04-19T14:23:45.946Z</time></trkpt><trkpt lat="43.7170113" lon="10.8868125"><ele>22.75</ele><time>2026-04-19T14:23:46.946Z</time></trkpt><trkpt lat="43.7171477" lon="10.8867433"><ele>23.5</ele><time>2026-04-19T14:23:47.946Z</time></trkpt><trkpt lat="43.7172824" lon="10.886678"><ele>24.25</ele><time>2026-04-19T14:23:48.946Z</time></trkpt><trkpt lat="43.7174195" lon="10.8866082"><ele>25.0</ele><time>2026-04-19T14:23:49.946Z</time></trkpt><trkpt lat="43.7175537" lon="10.8865349"><ele>25.0</ele><time>2026-04-19T14:23:50.946Z</time></trkpt><trkpt lat="43.7176965" lon="10.8864584"><ele>25.0</ele><time>2026-04-19T14:23:51.946Z</time></trkpt><trkpt lat="43.717826" lon="10.8863852"><ele>25.0</ele><time>2026-04-19T14:23:52.947Z</time></trkpt><trkpt lat="43.7179595" lon="10.886318"><ele>25.0</ele><time>2026-04-19T14:23:53.946Z</time></trkpt><trkpt lat="43.7180738" lon="10.886242"><ele>24.75</ele><time>2026-04-19T14:23:54.946Z</time></trkpt><trkpt lat="43.718198" lon="10.8861841"><ele>24.5</ele><time>2026-04-19T14:23:55.946Z</time></trkpt><trkpt lat="43.7183058" lon="10.8861221"><ele>24.25</ele><time>2026-04-19T14:23:56.946Z</time></trkpt><trkpt lat="43.7184125" lon="10.8860714"><ele>24.0</ele><time>2026-04-19T14:23:57.946Z</time></trkpt><trkpt lat="43.7184978" lon="10.8860359"><ele>23.799999999999997</ele><time>2026-04-19T14:23:58.946Z</time></trkpt><trkpt lat="43.7185709" lon="10.8860411"><ele>23.599999999999998</ele><time>2026-04-19T14:24:00.946Z</time></trkpt><trkpt lat="43.71861" lon="10.8861682"><ele>23.4</ele><time>2026-04-19T14:24:02.946Z</time></trkpt><trkpt lat="43.7186479" lon="10.8863301"><ele>23.2</ele><time>2026-04-19T14:24:04.946Z</time></trkpt><trkpt lat="43.7186457" lon="10.8864723"><ele>23.0</ele><time>2026-04-19T14:24:06.946Z</time></trkpt><trkpt lat="43.7187248" lon="10.8865091"><ele>23.0</ele><time>2026-04-19T14:24:09.946Z</time></trkpt><trkpt lat="43.718701" lon="10.8864206"><ele>23.0</ele><time>2026-04-19T14:24:11.947Z</time></trkpt><trkpt lat="43.7186492" lon="10.8863186"><ele>23.0</ele><time>2026-04-19T14:24:13.946Z</time></trkpt><trkpt lat="43.7186317" lon="10.8862335"><ele>23.0</ele><time>2026-04-19T14:24:14.946Z</time></trkpt><trkpt lat="43.7185899" lon="10.8860905"><ele>23.0</ele><time>2026-04-19T14:24:16.947Z</time></trkpt><trkpt lat="43.7185268" lon="10.8860209"><ele>23.0</ele><time>2026-04-19T14:24:19.946Z</time></trkpt><trkpt lat="43.7184004" lon="10.8860505"><ele>23.2</ele><time>2026-04-19T14:24:21.946Z</time></trkpt><trkpt lat="43.7183246" lon="10.8860863"><ele>23.4</ele><time>2026-04-19T14:24:22.947Z</time></trkpt><trkpt lat="43.7182261" lon="10.8861306"><ele>23.599999999999998</ele><time>2026-04-19T14:24:23.946Z</time></trkpt><trkpt lat="43.7181147" lon="10.8861944"><ele>23.799999999999997</ele><time>2026-04-19T14:24:24.946Z</time></trkpt><trkpt lat="43.7180044" lon="10.886256"><ele>24.0</ele><time>2026-04-19T14:24:25.947Z</time></trkpt><trkpt lat="43.7178712" lon="10.8863274"><ele>24.0</ele><time>2026-04-19T14:24:26.946Z</time></trkpt><trkpt lat="43.7177401" lon="10.8864012"><ele>24.0</ele><time>2026-04-19T14:24:27.946Z</time></trkpt><trkpt lat="43.7176059" lon="10.8864615"><ele>24.0</ele><time>2026-04-19T14:24:28.946Z</time></trkpt><trkpt lat="43.7174707" lon="10.8865373"><ele>24.0</ele><time>2026-04-19T14:24:29.946Z</time></trkpt><trkpt lat="43.7173388" lon="10.8866097"><ele>24.25</ele><time>2026-04-19T14:24:30.946Z</time></trkpt><trkpt lat="43.7172162" lon="10.886671"><ele>24.5</ele><time>2026-04-19T14:24:31.946Z</time></trkpt><trkpt lat="43.717083" lon="10.8867441"><ele>24.75</ele><time>2026-04-19T14:24:32.946Z</time></trkpt><trkpt lat="43.7169605" lon="10.8868041"><ele>25.0</ele><time>2026-04-19T14:24:33.946Z</time></trkpt><trkpt lat="43.7168373" lon="10.8868796"><ele>24.25</ele><time>2026-04-19T14:24:34.946Z</time></trkpt><trkpt lat="43.7166994" lon="10.8869518"><ele>23.5</ele><time>2026-04-19T14:24:35.947Z</time></trkpt><trkpt lat="43.7165664" lon="10.8870175"><ele>22.75</ele><time>2026-04-19T14:24:36.946Z</time></trkpt><trkpt lat="43.716435" lon="10.887088"><ele>22.0</ele><time>2026-04-19T14:24:37.947Z</time></trkpt><trkpt lat="43.7162959" lon="10.8871515"><ele>22.0</ele><time>2026-04-19T14:24:38.947Z</time></trkpt><trkpt lat="43.716154" lon="10.8872228"><ele>22.0</ele><time>2026-04-19T14:24:39.946Z</time></trkpt><trkpt lat="43.716017" lon="10.8872879"><ele>22.0</ele><time>2026-04-19T14:24:40.946Z</time></trkpt><trkpt lat="43.7158775" lon="10.8873602"><ele>22.0</ele><time>2026-04-19T14:24:41.946Z</time></trkpt><trkpt lat="43.7157397" lon="10.8874293"><ele>22.25</ele><time>2026-04-19T14:24:42.946Z</time></trkpt><trkpt lat="43.7156028" lon="10.8874998"><ele>22.5</ele><time>2026-04-19T14:24:43.946Z</time></trkpt><trkpt lat="43.7154646" lon="10.8875714"><ele>22.75</ele><time>2026-04-19T14:24:44.946Z</time></trkpt><trkpt lat="43.71532" lon="10.8876375"><ele>23.0</ele><time>2026-04-19T14:24:45.946Z</time></trkpt><trkpt lat="43.7151745" lon="10.8877154"><ele>23.333333333333336</ele><time>2026-04-19T14:24:46.946Z</time></trkpt><trkpt lat="43.7150332" lon="10.8877932"><ele>23.666666666666668</ele><time>2026-04-19T14:24:47.946Z</time></trkpt><trkpt lat="43.7148927" lon="10.8878654"><ele>24.0</ele><time>2026-04-19T14:24:48.946Z</time></trkpt><trkpt lat="43.7147542" lon="10.8879367"><ele>24.0</ele><time>2026-04-19T14:24:49.946Z</time></trkpt><trkpt lat="43.7146166" lon="10.8880167"><ele>24.0</ele><time>2026-04-19T14:24:50.946Z</time></trkpt><trkpt lat="43.7144892" lon="10.8880892"><ele>24.0</ele><time>2026-04-19T14:24:51.947Z</time></trkpt><trkpt lat="43.7143591" lon="10.8881527"><ele>24.0</ele><time>2026-04-19T14:24:52.946Z</time></trkpt><trkpt lat="43.71423" lon="10.8882177"><ele>23.75</ele><time>2026-04-19T14:24:53.946Z</time></trkpt><trkpt lat="43.7141002" lon="10.8882928"><ele>23.5</ele><time>2026-04-19T14:24:54.946Z</time></trkpt><trkpt lat="43.713973" lon="10.8883574"><ele>23.25</ele><time>2026-04-19T14:24:55.946Z</time></trkpt><trkpt lat="43.7138488" lon="10.8884228"><ele>23.0</ele><time>2026-04-19T14:24:56.946Z</time></trkpt><trkpt lat="43.7137301" lon="10.8884839"><ele>23.0</ele><time>2026-04-19T14:24:57.946Z</time></trkpt><trkpt lat="43.7136224" lon="10.8885419"><ele>23.0</ele><time>2026-04-19T14:24:58.947Z</time></trkpt><trkpt lat="43.7135238" lon="10.8885775"><ele>23.0</ele><time>2026-04-19T14:24:59.946Z</time></trkpt><trkpt lat="43.713425" lon="10.8885803"><ele>23.0</ele><time>2026-04-19T14:25:00.946Z</time></trkpt><trkpt lat="43.7133418" lon="10.8885485"><ele>23.0</ele><time>2026-04-19T14:25:01.946Z</time></trkpt><trkpt lat="43.7132627" lon="10.8884847"><ele>23.0</ele><time>2026-04-19T14:25:02.946Z</time></trkpt><trkpt lat="43.7131962" lon="10.8883763"><ele>23.0</ele><time>2026-04-19T14:25:03.946Z</time></trkpt><trkpt lat="43.71314" lon="10.8882379"><ele>23.0</ele><time>2026-04-19T14:25:04.946Z</time></trkpt><trkpt lat="43.7130877" lon="10.8880351"><ele>23.0</ele><time>2026-04-19T14:25:05.946Z</time></trkpt><trkpt lat="43.7130374" lon="10.8878156"><ele>23.0</ele><time>2026-04-19T14:25:06.946Z</time></trkpt><trkpt lat="43.7129873" lon="10.8875981"><ele>23.0</ele><time>2026-04-19T14:25:07.946Z</time></trkpt><trkpt lat="43.712932" lon="10.8873804"><ele>23.0</ele><time>2026-04-19T14:25:08.946Z</time></trkpt><trkpt lat="43.7128771" lon="10.8871472"><ele>23.0</ele><time>2026-04-19T14:25:09.946Z</time></trkpt><trkpt lat="43.7128107" lon="10.8868749"><ele>23.0</ele><time>2026-04-19T14:25:10.946Z</time></trkpt><trkpt lat="43.712752" lon="10.8866016"><ele>23.0</ele><time>2026-04-19T14:25:11.946Z</time></trkpt><trkpt lat="43.71268" lon="10.8863267"><ele>23.0</ele><time>2026-04-19T14:25:12.947Z</time></trkpt><trkpt lat="43.7126124" lon="10.8860488"><ele>23.0</ele><time>2026-04-19T14:25:13.946Z</time></trkpt><trkpt lat="43.712554" lon="10.8857779"><ele>23.0</ele><time>2026-04-19T14:25:14.946Z</time></trkpt><trkpt lat="43.7124893" lon="10.8855197"><ele>23.0</ele><time>2026-04-19T14:25:15.946Z</time></trkpt><trkpt lat="43.7124239" lon="10.8852672"><ele>23.0</ele><time>2026-04-19T14:25:16.946Z</time></trkpt><trkpt lat="43.7123655" lon="10.8850201"><ele>23.0</ele><time>2026-04-19T14:25:17.946Z</time></trkpt><trkpt lat="43.7123016" lon="10.884773"><ele>23.0</ele><time>2026-04-19T14:25:18.946Z</time></trkpt><trkpt lat="43.7122495" lon="10.8845217"><ele>23.0</ele><time>2026-04-19T14:25:19.946Z</time></trkpt><trkpt lat="43.7121907" lon="10.8842748"><ele>23.0</ele><time>2026-04-19T14:25:20.946Z</time></trkpt><trkpt lat="43.7121309" lon="10.8840241"><ele>22.666666666666668</ele><time>2026-04-19T14:25:21.946Z</time></trkpt><trkpt lat="43.7120718" lon="10.8837778"><ele>22.333333333333332</ele><time>2026-04-19T14:25:22.946Z</time></trkpt><trkpt lat="43.7120146" lon="10.8835332"><ele>22.0</ele><time>2026-04-19T14:25:23.946Z</time></trkpt><trkpt lat="43.7119597" lon="10.8832872"><ele>22.333333333333332</ele><time>2026-04-19T14:25:24.946Z</time></trkpt><trkpt lat="43.7119028" lon="10.8830432"><ele>22.666666666666668</ele><time>2026-04-19T14:25:25.946Z</time></trkpt><trkpt lat="43.7118435" lon="10.8828013"><ele>23.0</ele><time>2026-04-19T14:25:26.946Z</time></trkpt><trkpt lat="43.7117845" lon="10.8825626"><ele>23.0</ele><time>2026-04-19T14:25:27.946Z</time></trkpt><trkpt lat="43.7117251" lon="10.882324"><ele>23.0</ele><time>2026-04-19T14:25:28.946Z</time></trkpt><trkpt lat="43.7116668" lon="10.8820823"><ele>23.0</ele><time>2026-04-19T14:25:29.946Z</time></trkpt><trkpt lat="43.7116064" lon="10.8818428"><ele>23.0</ele><time>2026-04-19T14:25:30.946Z</time></trkpt><trkpt lat="43.7115475" lon="10.8816111"><ele>23.0</ele><time>2026-04-19T14:25:31.946Z</time></trkpt><trkpt lat="43.7114931" lon="10.8814012"><ele>23.0</ele><time>2026-04-19T14:25:32.946Z</time></trkpt><trkpt lat="43.7114487" lon="10.8812032"><ele>23.0</ele><time>2026-04-19T14:25:33.946Z</time></trkpt><trkpt lat="43.7114077" lon="10.8810159"><ele>23.0</ele><time>2026-04-19T14:25:34.946Z</time></trkpt><trkpt lat="43.711381" lon="10.8808303"><ele>23.0</ele><time>2026-04-19T14:25:35.946Z</time></trkpt><trkpt lat="43.7113622" lon="10.8806384"><ele>23.0</ele><time>2026-04-19T14:25:36.946Z</time></trkpt><trkpt lat="43.7113658" lon="10.8804461"><ele>23.0</ele><time>2026-04-19T14:25:37.946Z</time></trkpt><trkpt lat="43.7113827" lon="10.8802487"><ele>23.0</ele><time>2026-04-19T14:25:38.946Z</time></trkpt><trkpt lat="43.7114162" lon="10.8800641"><ele>23.0</ele><time>2026-04-19T14:25:39.946Z</time></trkpt><trkpt lat="43.7114544" lon="10.8799065"><ele>23.0</ele><time>2026-04-19T14:25:40.946Z</time></trkpt><trkpt lat="43.7114852" lon="10.8797957"><ele>23.0</ele><time>2026-04-19T14:25:41.946Z</time></trkpt><trkpt lat="43.7115247" lon="10.8797007"><ele>23.0</ele><time>2026-04-19T14:25:43.946Z</time></trkpt><trkpt lat="43.7115481" lon="10.8795937"><ele>23.0</ele><time>2026-04-19T14:25:49.946Z</time></trkpt><trkpt lat="43.7115724" lon="10.879493"><ele>23.0</ele><time>2026-04-19T14:25:50.946Z</time></trkpt><trkpt lat="43.7116054" lon="10.879387"><ele>23.0</ele><time>2026-04-19T14:25:51.946Z</time></trkpt><trkpt lat="43.7116359" lon="10.8792734"><ele>23.0</ele><time>2026-04-19T14:25:52.947Z</time></trkpt><trkpt lat="43.7116695" lon="10.8791482"><ele>22.833333333333336</ele><time>2026-04-19T14:25:53.946Z</time></trkpt><trkpt lat="43.7117017" lon="10.8790284"><ele>22.666666666666668</ele><time>2026-04-19T14:25:54.946Z</time></trkpt><trkpt lat="43.7117331" lon="10.8789212"><ele>22.5</ele><time>2026-04-19T14:25:55.946Z</time></trkpt><trkpt lat="43.7117624" lon="10.8788121"><ele>22.333333333333332</ele><time>2026-04-19T14:25:56.946Z</time></trkpt><trkpt lat="43.7117914" lon="10.8787112"><ele>22.166666666666664</ele><time>2026-04-19T14:25:57.946Z</time></trkpt><trkpt lat="43.7118186" lon="10.8786111"><ele>22.0</ele><time>2026-04-19T14:25:58.946Z</time></trkpt><trkpt lat="43.7118474" lon="10.8785095"><ele>22.200000000000003</ele><time>2026-04-19T14:25:59.946Z</time></trkpt><trkpt lat="43.7118749" lon="10.8783911"><ele>22.4</ele><time>2026-04-19T14:26:00.946Z</time></trkpt><trkpt lat="43.7119047" lon="10.8782593"><ele>22.6</ele><time>2026-04-19T14:26:01.946Z</time></trkpt><trkpt lat="43.711926" lon="10.8781253"><ele>22.799999999999997</ele><time>2026-04-19T14:26:02.946Z</time></trkpt><trkpt lat="43.7119429" lon="10.8779999"><ele>23.0</ele><time>2026-04-19T14:26:03.946Z</time></trkpt><trkpt lat="43.7119506" lon="10.8778728"><ele>23.2</ele><time>2026-04-19T14:26:04.946Z</time></trkpt><trkpt lat="43.7119558" lon="10.8777416"><ele>23.4</ele><time>2026-04-19T14:26:05.946Z</time></trkpt><trkpt lat="43.7119538" lon="10.8776151"><ele>23.599999999999998</ele><time>2026-04-19T14:26:06.946Z</time></trkpt><trkpt lat="43.7119417" lon="10.8774809"><ele>23.799999999999997</ele><time>2026-04-19T14:26:07.946Z</time></trkpt><trkpt lat="43.7119177" lon="10.8773469"><ele>24.0</ele><time>2026-04-19T14:26:08.946Z</time></trkpt><trkpt lat="43.7118822" lon="10.8772062"><ele>24.25</ele><time>2026-04-19T14:26:09.946Z</time></trkpt><trkpt lat="43.7118392" lon="10.8770745"><ele>24.5</ele><time>2026-04-19T14:26:10.946Z</time></trkpt><trkpt lat="43.7117852" lon="10.8769388"><ele>24.75</ele><time>2026-04-19T14:26:11.946Z</time></trkpt><trkpt lat="43.7117265" lon="10.8767997"><ele>25.0</ele><time>2026-04-19T14:26:12.946Z</time></trkpt><trkpt lat="43.7116698" lon="10.8766584"><ele>25.25</ele><time>2026-04-19T14:26:13.946Z</time></trkpt><trkpt lat="43.7116152" lon="10.8765032"><ele>25.5</ele><time>2026-04-19T14:26:14.946Z</time></trkpt><trkpt lat="43.7115665" lon="10.8763454"><ele>25.75</ele><time>2026-04-19T14:26:15.946Z</time></trkpt><trkpt lat="43.7115258" lon="10.8761854"><ele>26.0</ele><time>2026-04-19T14:26:16.946Z</time></trkpt><trkpt lat="43.7114879" lon="10.8760309"><ele>26.0</ele><time>2026-04-19T14:26:17.946Z</time></trkpt><trkpt lat="43.7114599" lon="10.8758799"><ele>26.0</ele><time>2026-04-19T14:26:18.946Z</time></trkpt><trkpt lat="43.7114244" lon="10.8757334"><ele>26.0</ele><time>2026-04-19T14:26:19.946Z</time></trkpt><trkpt lat="43.7113878" lon="10.8755863"><ele>26.0</ele><time>2026-04-19T14:26:20.947Z</time></trkpt><trkpt lat="43.7113483" lon="10.8754399"><ele>26.0</ele><time>2026-04-19T14:26:21.946Z</time></trkpt><trkpt lat="43.7113068" lon="10.8752905"><ele>26.0</ele><time>2026-04-19T14:26:22.947Z</time></trkpt><trkpt lat="43.7112708" lon="10.8751405"><ele>26.0</ele><time>2026-04-19T14:26:23.946Z</time></trkpt><trkpt lat="43.7112254" lon="10.8750023"><ele>26.0</ele><time>2026-04-19T14:26:24.946Z</time></trkpt><trkpt lat="43.7111773" lon="10.8748678"><ele>26.0</ele><time>2026-04-19T14:26:25.946Z</time></trkpt><trkpt lat="43.7111142" lon="10.8747508"><ele>25.5</ele><time>2026-04-19T14:26:26.946Z</time></trkpt><trkpt lat="43.7110306" lon="10.8746518"><ele>25.0</ele><time>2026-04-19T14:26:27.946Z</time></trkpt><trkpt lat="43.7109294" lon="10.874564"><ele>24.5</ele><time>2026-04-19T14:26:28.946Z</time></trkpt><trkpt lat="43.7107941" lon="10.8744736"><ele>24.0</ele><time>2026-04-19T14:26:29.947Z</time></trkpt><trkpt lat="43.7106389" lon="10.8743844"><ele>24.0</ele><time>2026-04-19T14:26:30.947Z</time></trkpt><trkpt lat="43.7104862" lon="10.8742905"><ele>24.0</ele><time>2026-04-19T14:26:31.946Z</time></trkpt><trkpt lat="43.7103325" lon="10.8741961"><ele>24.0</ele><time>2026-04-19T14:26:32.946Z</time></trkpt><trkpt lat="43.7101781" lon="10.8741064"><ele>23.333333333333332</ele><time>2026-04-19T14:26:33.946Z</time></trkpt><trkpt lat="43.7100212" lon="10.8740179"><ele>22.666666666666664</ele><time>2026-04-19T14:26:34.946Z</time></trkpt><trkpt lat="43.7098488" lon="10.8739197"><ele>22.0</ele><time>2026-04-19T14:26:35.946Z</time></trkpt><trkpt lat="43.7096674" lon="10.8738102"><ele>22.0</ele><time>2026-04-19T14:26:36.947Z</time></trkpt><trkpt lat="43.7094881" lon="10.8737057"><ele>22.0</ele><time>2026-04-19T14:26:37.946Z</time></trkpt><trkpt lat="43.7093084" lon="10.8736007"><ele>22.0</ele><time>2026-04-19T14:26:38.946Z</time></trkpt><trkpt lat="43.7091395" lon="10.8734976"><ele>22.666666666666664</ele><time>2026-04-19T14:26:39.946Z</time></trkpt><trkpt lat="43.7089704" lon="10.8733967"><ele>23.333333333333332</ele><time>2026-04-19T14:26:40.946Z</time></trkpt><trkpt lat="43.7088072" lon="10.8733071"><ele>24.0</ele><time>2026-04-19T14:26:41.946Z</time></trkpt><trkpt lat="43.7086506" lon="10.8732147"><ele>23.666666666666668</ele><time>2026-04-19T14:26:42.946Z</time></trkpt><trkpt lat="43.7085021" lon="10.8731221"><ele>23.333333333333336</ele><time>2026-04-19T14:26:43.947Z</time></trkpt><trkpt lat="43.7083541" lon="10.8730322"><ele>23.0</ele><time>2026-04-19T14:26:44.946Z</time></trkpt><trkpt lat="43.7082078" lon="10.8729448"><ele>23.0</ele><time>2026-04-19T14:26:45.946Z</time></trkpt><trkpt lat="43.7080607" lon="10.8728594"><ele>23.0</ele><time>2026-04-19T14:26:46.946Z</time></trkpt><trkpt lat="43.7079217" lon="10.8727786"><ele>23.0</ele><time>2026-04-19T14:26:47.946Z</time></trkpt><trkpt lat="43.7077921" lon="10.8727008"><ele>23.25</ele><time>2026-04-19T14:26:48.946Z</time></trkpt><trkpt lat="43.7076716" lon="10.8726305"><ele>23.5</ele><time>2026-04-19T14:26:49.946Z</time></trkpt><trkpt lat="43.7075581" lon="10.8725623"><ele>23.75</ele><time>2026-04-19T14:26:50.946Z</time></trkpt><trkpt lat="43.7074501" lon="10.8724942"><ele>24.0</ele><time>2026-04-19T14:26:51.946Z</time></trkpt><trkpt lat="43.7073493" lon="10.8724238"><ele>24.2</ele><time>2026-04-19T14:26:52.946Z</time></trkpt><trkpt lat="43.70726" lon="10.8723486"><ele>24.4</ele><time>2026-04-19T14:26:53.946Z</time></trkpt><trkpt lat="43.7071836" lon="10.8722703"><ele>24.6</ele><time>2026-04-19T14:26:54.946Z</time></trkpt><trkpt lat="43.7071155" lon="10.8721859"><ele>24.8</ele><time>2026-04-19T14:26:55.946Z</time></trkpt><trkpt lat="43.7070513" lon="10.8720831"><ele>25.0</ele><time>2026-04-19T14:26:56.946Z</time></trkpt><trkpt lat="43.7069917" lon="10.8719669"><ele>25.0</ele><time>2026-04-19T14:26:57.946Z</time></trkpt><trkpt lat="43.7069387" lon="10.8718361"><ele>25.0</ele><time>2026-04-19T14:26:58.946Z</time></trkpt><trkpt lat="43.7068888" lon="10.8717016"><ele>25.0</ele><time>2026-04-19T14:26:59.946Z</time></trkpt><trkpt lat="43.7068283" lon="10.8715815"><ele>25.0</ele><time>2026-04-19T14:27:00.946Z</time></trkpt><trkpt lat="43.7067551" lon="10.8714635"><ele>25.0</ele><time>2026-04-19T14:27:01.946Z</time></trkpt><trkpt lat="43.706675" lon="10.8713594"><ele>24.75</ele><time>2026-04-19T14:27:02.946Z</time></trkpt><trkpt lat="43.706581" lon="10.8712654"><ele>24.5</ele><time>2026-04-19T14:27:03.946Z</time></trkpt><trkpt lat="43.7064779" lon="10.8711917"><ele>24.25</ele><time>2026-04-19T14:27:04.947Z</time></trkpt><trkpt lat="43.7063701" lon="10.8711231"><ele>24.0</ele><time>2026-04-19T14:27:05.946Z</time></trkpt><trkpt lat="43.7062628" lon="10.8710636"><ele>24.0</ele><time>2026-04-19T14:27:06.946Z</time></trkpt><trkpt lat="43.7061599" lon="10.8710075"><ele>24.0</ele><time>2026-04-19T14:27:07.946Z</time></trkpt><trkpt lat="43.7060599" lon="10.8709556"><ele>24.0</ele><time>2026-04-19T14:27:08.946Z</time></trkpt><trkpt lat="43.7059575" lon="10.8709151"><ele>24.0</ele><time>2026-04-19T14:27:09.946Z</time></trkpt><trkpt lat="43.7058576" lon="10.8709008"><ele>24.0</ele><time>2026-04-19T14:27:10.946Z</time></trkpt><trkpt lat="43.7057564" lon="10.8709533"><ele>24.0</ele><time>2026-04-19T14:27:11.946Z</time></trkpt><trkpt lat="43.7056436" lon="10.871008"><ele>24.0</ele><time>2026-04-19T14:27:12.946Z</time></trkpt><trkpt lat="43.7055419" lon="10.8710688"><ele>24.0</ele><time>2026-04-19T14:27:13.946Z</time></trkpt><trkpt lat="43.705442" lon="10.8711159"><ele>24.0</ele><time>2026-04-19T14:27:14.946Z</time></trkpt><trkpt lat="43.7053392" lon="10.8711191"><ele>24.0</ele><time>2026-04-19T14:27:15.946Z</time></trkpt><trkpt lat="43.7052301" lon="10.8711055"><ele>24.0</ele><time>2026-04-19T14:27:16.946Z</time></trkpt><trkpt lat="43.7051226" lon="10.8710638"><ele>24.0</ele><time>2026-04-19T14:27:17.946Z</time></trkpt><trkpt lat="43.7049952" lon="10.8709978"><ele>24.0</ele><time>2026-04-19T14:27:18.946Z</time></trkpt><trkpt lat="43.7048506" lon="10.8709132"><ele>24.0</ele><time>2026-04-19T14:27:19.946Z</time></trkpt><trkpt lat="43.7047101" lon="10.8708411"><ele>24.0</ele><time>2026-04-19T14:27:20.946Z</time></trkpt><trkpt lat="43.7045702" lon="10.8707611"><ele>24.0</ele><time>2026-04-19T14:27:21.946Z</time></trkpt><trkpt lat="43.7044256" lon="10.8706807"><ele>24.0</ele><time>2026-04-19T14:27:22.946Z</time></trkpt><trkpt lat="43.7042846" lon="10.8706025"><ele>24.25</ele><time>2026-04-19T14:27:23.946Z</time></trkpt><trkpt lat="43.7041504" lon="10.8705207"><ele>24.5</ele><time>2026-04-19T14:27:24.946Z</time></trkpt><trkpt lat="43.7040193" lon="10.8704377"><ele>24.75</ele><time>2026-04-19T14:27:25.946Z</time></trkpt><trkpt lat="43.7038975" lon="10.8703605"><ele>25.0</ele><time>2026-04-19T14:27:26.946Z</time></trkpt><trkpt lat="43.7037776" lon="10.8702894"><ele>25.0</ele><time>2026-04-19T14:27:27.946Z</time></trkpt><trkpt lat="43.7036564" lon="10.8702153"><ele>25.0</ele><time>2026-04-19T14:27:28.946Z</time></trkpt><trkpt lat="43.7035373" lon="10.8701422"><ele>25.0</ele><time>2026-04-19T14:27:29.946Z</time></trkpt><trkpt lat="43.7034194" lon="10.8700642"><ele>25.0</ele><time>2026-04-19T14:27:30.946Z</time></trkpt><trkpt lat="43.7032918" lon="10.8699882"><ele>25.0</ele><time>2026-04-19T14:27:31.946Z</time></trkpt><trkpt lat="43.7031621" lon="10.8699147"><ele>25.0</ele><time>2026-04-19T14:27:32.946Z</time></trkpt><trkpt lat="43.7030296" lon="10.8698462"><ele>25.0</ele><time>2026-04-19T14:27:33.946Z</time></trkpt><trkpt lat="43.7028974" lon="10.8697765"><ele>25.0</ele><time>2026-04-19T14:27:34.946Z</time></trkpt><trkpt lat="43.7027641" lon="10.869695"><ele>25.0</ele><time>2026-04-19T14:27:35.947Z</time></trkpt><trkpt lat="43.7026322" lon="10.8696238"><ele>25.0</ele><time>2026-04-19T14:27:36.946Z</time></trkpt><trkpt lat="43.7025023" lon="10.8695459"><ele>25.0</ele><time>2026-04-19T14:27:37.946Z</time></trkpt><trkpt lat="43.7023689" lon="10.8694691"><ele>25.0</ele><time>2026-04-19T14:27:38.946Z</time></trkpt><trkpt lat="43.7022315" lon="10.8693898"><ele>25.0</ele><time>2026-04-19T14:27:39.946Z</time></trkpt><trkpt lat="43.7021018" lon="10.8693126"><ele>25.0</ele><time>2026-04-19T14:27:40.946Z</time></trkpt><trkpt lat="43.7019743" lon="10.8692336"><ele>25.0</ele><time>2026-04-19T14:27:41.946Z</time></trkpt><trkpt lat="43.7018435" lon="10.8691491"><ele>25.0</ele><time>2026-04-19T14:27:42.946Z</time></trkpt><trkpt lat="43.7017099" lon="10.8690692"><ele>25.25</ele><time>2026-04-19T14:27:43.947Z</time></trkpt><trkpt lat="43.7015784" lon="10.8689982"><ele>25.5</ele><time>2026-04-19T14:27:44.946Z</time></trkpt><trkpt lat="43.7014489" lon="10.8689174"><ele>25.75</ele><time>2026-04-19T14:27:45.946Z</time></trkpt><trkpt lat="43.7013151" lon="10.8688379"><ele>26.0</ele><time>2026-04-19T14:27:46.947Z</time></trkpt><trkpt lat="43.7011805" lon="10.8687554"><ele>25.666666666666664</ele><time>2026-04-19T14:27:47.946Z</time></trkpt><trkpt lat="43.7010428" lon="10.868669"><ele>25.333333333333336</ele><time>2026-04-19T14:27:48.946Z</time></trkpt><trkpt lat="43.7009037" lon="10.8685867"><ele>25.0</ele><time>2026-04-19T14:27:49.946Z</time></trkpt><trkpt lat="43.700765" lon="10.8685037"><ele>24.666666666666668</ele><time>2026-04-19T14:27:50.947Z</time></trkpt><trkpt lat="43.7006271" lon="10.8684253"><ele>24.333333333333336</ele><time>2026-04-19T14:27:51.946Z</time></trkpt><trkpt lat="43.7004914" lon="10.8683418"><ele>24.0</ele><time>2026-04-19T14:27:52.946Z</time></trkpt><trkpt lat="43.7003433" lon="10.8682517"><ele>24.0</ele><time>2026-04-19T14:27:53.946Z</time></trkpt><trkpt lat="43.7001913" lon="10.8681564"><ele>24.0</ele><time>2026-04-19T14:27:54.946Z</time></trkpt><trkpt lat="43.7000271" lon="10.8680614"><ele>24.0</ele><time>2026-04-19T14:27:55.946Z</time></trkpt><trkpt lat="43.6998709" lon="10.8679672"><ele>24.0</ele><time>2026-04-19T14:27:56.946Z</time></trkpt><trkpt lat="43.6997179" lon="10.8678788"><ele>24.0</ele><time>2026-04-19T14:27:57.946Z</time></trkpt><trkpt lat="43.6995625" lon="10.8677844"><ele>24.0</ele><time>2026-04-19T14:27:58.946Z</time></trkpt><trkpt lat="43.6994104" lon="10.8676949"><ele>24.0</ele><time>2026-04-19T14:27:59.946Z</time></trkpt><trkpt lat="43.6992635" lon="10.8676022"><ele>24.0</ele><time>2026-04-19T14:28:00.946Z</time></trkpt><trkpt lat="43.6991165" lon="10.8675152"><ele>24.0</ele><time>2026-04-19T14:28:01.946Z</time></trkpt><trkpt lat="43.698968" lon="10.8674265"><ele>24.0</ele><time>2026-04-19T14:28:02.946Z</time></trkpt><trkpt lat="43.6988232" lon="10.8673424"><ele>24.0</ele><time>2026-04-19T14:28:03.947Z</time></trkpt><trkpt lat="43.6986755" lon="10.8672545"><ele>24.0</ele><time>2026-04-19T14:28:04.946Z</time></trkpt><trkpt lat="43.6985188" lon="10.8671631"><ele>24.333333333333336</ele><time>2026-04-19T14:28:05.947Z</time></trkpt><trkpt lat="43.6983696" lon="10.8670735"><ele>24.666666666666668</ele><time>2026-04-19T14:28:06.946Z</time></trkpt><trkpt lat="43.6982212" lon="10.8669866"><ele>25.0</ele><time>2026-04-19T14:28:07.946Z</time></trkpt><trkpt lat="43.6980775" lon="10.8669047"><ele>25.0</ele><time>2026-04-19T14:28:08.946Z</time></trkpt><trkpt lat="43.6979323" lon="10.8668187"><ele>25.0</ele><time>2026-04-19T14:28:09.946Z</time></trkpt><trkpt lat="43.6977919" lon="10.8667324"><ele>25.0</ele><time>2026-04-19T14:28:10.946Z</time></trkpt><trkpt lat="43.6976452" lon="10.8666419"><ele>25.0</ele><time>2026-04-19T14:28:11.946Z</time></trkpt><trkpt lat="43.6975059" lon="10.8665592"><ele>25.0</ele><time>2026-04-19T14:28:12.947Z</time></trkpt><trkpt lat="43.6973699" lon="10.8664873"><ele>25.0</ele><time>2026-04-19T14:28:13.946Z</time></trkpt><trkpt lat="43.6972395" lon="10.8664159"><ele>25.0</ele><time>2026-04-19T14:28:14.947Z</time></trkpt><trkpt lat="43.6971075" lon="10.8663374"><ele>25.0</ele><time>2026-04-19T14:28:15.946Z</time></trkpt><trkpt lat="43.6969794" lon="10.866264"><ele>25.0</ele><time>2026-04-19T14:28:16.946Z</time></trkpt><trkpt lat="43.6968488" lon="10.8661966"><ele>25.0</ele><time>2026-04-19T14:28:17.946Z</time></trkpt><trkpt lat="43.6967154" lon="10.8661179"><ele>25.0</ele><time>2026-04-19T14:28:18.946Z</time></trkpt><trkpt lat="43.6965773" lon="10.8660459"><ele>25.0</ele><time>2026-04-19T14:28:19.946Z</time></trkpt><trkpt lat="43.6964441" lon="10.8659671"><ele>25.0</ele><time>2026-04-19T14:28:20.946Z</time></trkpt><trkpt lat="43.6963113" lon="10.8658848"><ele>25.0</ele><time>2026-04-19T14:28:21.946Z</time></trkpt><trkpt lat="43.6961658" lon="10.8658024"><ele>25.0</ele><time>2026-04-19T14:28:22.946Z</time></trkpt><trkpt lat="43.6960265" lon="10.8657213"><ele>25.0</ele><time>2026-04-19T14:28:23.946Z</time></trkpt><trkpt lat="43.6958915" lon="10.8656407"><ele>25.0</ele><time>2026-04-19T14:28:24.946Z</time></trkpt><trkpt lat="43.6957574" lon="10.8655572"><ele>25.0</ele><time>2026-04-19T14:28:25.946Z</time></trkpt><trkpt lat="43.695621" lon="10.8654813"><ele>25.0</ele><time>2026-04-19T14:28:26.946Z</time></trkpt><trkpt lat="43.6954956" lon="10.8654038"><ele>25.0</ele><time>2026-04-19T14:28:27.946Z</time></trkpt><trkpt lat="43.6953681" lon="10.8653263"><ele>25.0</ele><time>2026-04-19T14:28:28.946Z</time></trkpt><trkpt lat="43.6952466" lon="10.8652448"><ele>25.0</ele><time>2026-04-19T14:28:29.946Z</time></trkpt><trkpt lat="43.6951184" lon="10.8651547"><ele>25.0</ele><time>2026-04-19T14:28:30.947Z</time></trkpt><trkpt lat="43.6949882" lon="10.865073"><ele>25.5</ele><time>2026-04-19T14:28:31.946Z</time></trkpt><trkpt lat="43.6948531" lon="10.8649929"><ele>26.0</ele><time>2026-04-19T14:28:32.946Z</time></trkpt><trkpt lat="43.6947193" lon="10.8649114"><ele>26.5</ele><time>2026-04-19T14:28:33.946Z</time></trkpt><trkpt lat="43.6945879" lon="10.8648327"><ele>27.0</ele><time>2026-04-19T14:28:34.946Z</time></trkpt><trkpt lat="43.6944455" lon="10.8647556"><ele>27.25</ele><time>2026-04-19T14:28:35.946Z</time></trkpt><trkpt lat="43.6943243" lon="10.8646844"><ele>27.5</ele><time>2026-04-19T14:28:36.946Z</time></trkpt><trkpt lat="43.6942037" lon="10.8646039"><ele>27.75</ele><time>2026-04-19T14:28:37.946Z</time></trkpt><trkpt lat="43.6940923" lon="10.864534"><ele>28.0</ele><time>2026-04-19T14:28:38.946Z</time></trkpt><trkpt lat="43.6939885" lon="10.864464"><ele>28.0</ele><time>2026-04-19T14:28:39.947Z</time></trkpt><trkpt lat="43.6938821" lon="10.8644"><ele>27.999999999999996</ele><time>2026-04-19T14:28:40.946Z</time></trkpt><trkpt lat="43.6937822" lon="10.8643402"><ele>27.999999999999996</ele><time>2026-04-19T14:28:41.946Z</time></trkpt><trkpt lat="43.693684" lon="10.8642812"><ele>28.0</ele><time>2026-04-19T14:28:42.947Z</time></trkpt><trkpt lat="43.6935915" lon="10.8642246"><ele>28.0</ele><time>2026-04-19T14:28:43.946Z</time></trkpt><trkpt lat="43.6935041" lon="10.864171"><ele>28.333333333333336</ele><time>2026-04-19T14:28:44.947Z</time></trkpt><trkpt lat="43.6934292" lon="10.8641201"><ele>28.666666666666668</ele><time>2026-04-19T14:28:45.946Z</time></trkpt><trkpt lat="43.693358" lon="10.864076"><ele>29.0</ele><time>2026-04-19T14:28:46.946Z</time></trkpt><trkpt lat="43.6932984" lon="10.8640329"><ele>29.333333333333336</ele><time>2026-04-19T14:28:47.946Z</time></trkpt><trkpt lat="43.6932106" lon="10.8639802"><ele>29.666666666666668</ele><time>2026-04-19T14:28:49.947Z</time></trkpt><trkpt lat="43.6931455" lon="10.8639296"><ele>30.0</ele><time>2026-04-19T14:28:52.946Z</time></trkpt><trkpt lat="43.693069" lon="10.8638814"><ele>30.0</ele><time>2026-04-19T14:28:56.947Z</time></trkpt><trkpt lat="43.6930039" lon="10.8638466"><ele>30.0</ele><time>2026-04-19T14:28:58.947Z</time></trkpt><trkpt lat="43.6929257" lon="10.8637996"><ele>30.0</ele><time>2026-04-19T14:29:00.946Z</time></trkpt><trkpt lat="43.6928216" lon="10.8637374"><ele>30.0</ele><time>2026-04-19T14:29:02.946Z</time></trkpt><trkpt lat="43.6927136" lon="10.8636677"><ele>30.0</ele><time>2026-04-19T14:29:04.946Z</time></trkpt><trkpt lat="43.6926201" lon="10.8635912"><ele>30.0</ele><time>2026-04-19T14:29:06.947Z</time></trkpt><trkpt lat="43.6925174" lon="10.8635029"><ele>30.0</ele><time>2026-04-19T14:29:08.947Z</time></trkpt><trkpt lat="43.6924575" lon="10.8634486"><ele>30.0</ele><time>2026-04-19T14:29:09.946Z</time></trkpt><trkpt lat="43.6923942" lon="10.8634191"><ele>30.0</ele><time>2026-04-19T14:29:10.946Z</time></trkpt><trkpt lat="43.6922953" lon="10.8633488"><ele>30.0</ele><time>2026-04-19T14:29:12.946Z</time></trkpt><trkpt lat="43.6922108" lon="10.8633058"><ele>30.0</ele><time>2026-04-19T14:29:14.946Z</time></trkpt><trkpt lat="43.6921528" lon="10.8632702"><ele>30.0</ele><time>2026-04-19T14:29:16.946Z</time></trkpt><trkpt lat="43.6921464" lon="10.8631455"><ele>30.0</ele><time>2026-04-19T14:29:18.946Z</time></trkpt><trkpt lat="43.6921684" lon="10.8630002"><ele>30.0</ele><time>2026-04-19T14:29:19.946Z</time></trkpt><trkpt lat="43.6921743" lon="10.8628388"><ele>30.0</ele><time>2026-04-19T14:29:20.946Z</time></trkpt><trkpt lat="43.6921831" lon="10.8626509"><ele>30.0</ele><time>2026-04-19T14:29:21.946Z</time></trkpt><trkpt lat="43.692195" lon="10.8624726"><ele>30.0</ele><time>2026-04-19T14:29:22.946Z</time></trkpt><trkpt lat="43.6922073" lon="10.862307"><ele>30.0</ele><time>2026-04-19T14:29:23.946Z</time></trkpt><trkpt lat="43.6922159" lon="10.8621297"><ele>30.0</ele><time>2026-04-19T14:29:24.946Z</time></trkpt><trkpt lat="43.6922286" lon="10.8619612"><ele>30.0</ele><time>2026-04-19T14:29:25.946Z</time></trkpt><trkpt lat="43.6922387" lon="10.861792"><ele>30.0</ele><time>2026-04-19T14:29:26.947Z</time></trkpt><trkpt lat="43.6922468" lon="10.8616264"><ele>30.0</ele><time>2026-04-19T14:29:27.947Z</time></trkpt><trkpt lat="43.6922598" lon="10.8614631"><ele>30.0</ele><time>2026-04-19T14:29:28.946Z</time></trkpt><trkpt lat="43.6922726" lon="10.8613123"><ele>29.75</ele><time>2026-04-19T14:29:29.946Z</time></trkpt><trkpt lat="43.6922828" lon="10.8611517"><ele>29.5</ele><time>2026-04-19T14:29:30.946Z</time></trkpt><trkpt lat="43.692293" lon="10.8609812"><ele>29.25</ele><time>2026-04-19T14:29:31.947Z</time></trkpt><trkpt lat="43.6923032" lon="10.8608103"><ele>29.0</ele><time>2026-04-19T14:29:32.946Z</time></trkpt><trkpt lat="43.6923158" lon="10.8606357"><ele>28.75</ele><time>2026-04-19T14:29:33.946Z</time></trkpt><trkpt lat="43.6923304" lon="10.8604647"><ele>28.5</ele><time>2026-04-19T14:29:34.946Z</time></trkpt><trkpt lat="43.6923438" lon="10.8602938"><ele>28.25</ele><time>2026-04-19T14:29:35.946Z</time></trkpt><trkpt lat="43.6923505" lon="10.8601329"><ele>28.0</ele><time>2026-04-19T14:29:36.946Z</time></trkpt><trkpt lat="43.6923593" lon="10.8599704"><ele>28.0</ele><time>2026-04-19T14:29:37.946Z</time></trkpt><trkpt lat="43.6923684" lon="10.8598013"><ele>28.0</ele><time>2026-04-19T14:29:38.946Z</time></trkpt><trkpt lat="43.6923782" lon="10.8596389"><ele>28.0</ele><time>2026-04-19T14:29:39.947Z</time></trkpt><trkpt lat="43.6923925" lon="10.8594697"><ele>28.0</ele><time>2026-04-19T14:29:40.946Z</time></trkpt><trkpt lat="43.6924061" lon="10.8593044"><ele>28.5</ele><time>2026-04-19T14:29:41.946Z</time></trkpt><trkpt lat="43.6924164" lon="10.8591469"><ele>29.0</ele><time>2026-04-19T14:29:42.947Z</time></trkpt><trkpt lat="43.692424" lon="10.8589854"><ele>29.5</ele><time>2026-04-19T14:29:43.946Z</time></trkpt><trkpt lat="43.6924311" lon="10.8588251"><ele>30.0</ele><time>2026-04-19T14:29:44.946Z</time></trkpt><trkpt lat="43.6924352" lon="10.8586671"><ele>30.0</ele><time>2026-04-19T14:29:45.946Z</time></trkpt><trkpt lat="43.6924431" lon="10.8585126"><ele>30.0</ele><time>2026-04-19T14:29:46.946Z</time></trkpt><trkpt lat="43.692453" lon="10.8583618"><ele>30.0</ele><time>2026-04-19T14:29:47.946Z</time></trkpt><trkpt lat="43.6924613" lon="10.8582159"><ele>30.0</ele><time>2026-04-19T14:29:48.947Z</time></trkpt><trkpt lat="43.6924697" lon="10.8580651"><ele>30.0</ele><time>2026-04-19T14:29:49.947Z</time></trkpt><trkpt lat="43.6924841" lon="10.8579108"><ele>29.6</ele><time>2026-04-19T14:29:50.946Z</time></trkpt><trkpt lat="43.6924961" lon="10.8577572"><ele>29.2</ele><time>2026-04-19T14:29:51.946Z</time></trkpt><trkpt lat="43.692509" lon="10.8576132"><ele>28.799999999999997</ele><time>2026-04-19T14:29:52.946Z</time></trkpt><trkpt lat="43.6925169" lon="10.8574653"><ele>28.4</ele><time>2026-04-19T14:29:53.946Z</time></trkpt><trkpt lat="43.6925173" lon="10.8573112"><ele>28.0</ele><time>2026-04-19T14:29:54.946Z</time></trkpt><trkpt lat="43.6925259" lon="10.8571664"><ele>27.799999999999997</ele><time>2026-04-19T14:29:55.946Z</time></trkpt><trkpt lat="43.6925317" lon="10.8570212"><ele>27.599999999999998</ele><time>2026-04-19T14:29:56.946Z</time></trkpt><trkpt lat="43.6925413" lon="10.8568714"><ele>27.400000000000002</ele><time>2026-04-19T14:29:57.946Z</time></trkpt><trkpt lat="43.6925524" lon="10.8567312"><ele>27.200000000000003</ele><time>2026-04-19T14:29:58.946Z</time></trkpt><trkpt lat="43.6925729" lon="10.856596"><ele>27.0</ele><time>2026-04-19T14:29:59.946Z</time></trkpt><trkpt lat="43.6926034" lon="10.8564814"><ele>26.8</ele><time>2026-04-19T14:30:00.946Z</time></trkpt><trkpt lat="43.6926467" lon="10.8563731"><ele>26.6</ele><time>2026-04-19T14:30:01.946Z</time></trkpt><trkpt lat="43.6927076" lon="10.8562756"><ele>26.400000000000002</ele><time>2026-04-19T14:30:02.946Z</time></trkpt><trkpt lat="43.6927864" lon="10.8561918"><ele>26.200000000000003</ele><time>2026-04-19T14:30:03.946Z</time></trkpt><trkpt lat="43.6928756" lon="10.856121"><ele>26.0</ele><time>2026-04-19T14:30:04.947Z</time></trkpt><trkpt lat="43.6929708" lon="10.856071"><ele>25.8</ele><time>2026-04-19T14:30:05.947Z</time></trkpt><trkpt lat="43.6930725" lon="10.8560322"><ele>25.6</ele><time>2026-04-19T14:30:06.946Z</time></trkpt><trkpt lat="43.6931782" lon="10.855999"><ele>25.4</ele><time>2026-04-19T14:30:07.946Z</time></trkpt><trkpt lat="43.6932788" lon="10.8559781"><ele>25.2</ele><time>2026-04-19T14:30:08.946Z</time></trkpt><trkpt lat="43.6933762" lon="10.8559636"><ele>25.0</ele><time>2026-04-19T14:30:09.947Z</time></trkpt><trkpt lat="43.6934774" lon="10.8559499"><ele>25.0</ele><time>2026-04-19T14:30:10.946Z</time></trkpt><trkpt lat="43.6935757" lon="10.8559321"><ele>25.0</ele><time>2026-04-19T14:30:11.946Z</time></trkpt><trkpt lat="43.6936727" lon="10.8559179"><ele>25.0</ele><time>2026-04-19T14:30:12.946Z</time></trkpt><trkpt lat="43.6937704" lon="10.8559127"><ele>25.0</ele><time>2026-04-19T14:30:13.946Z</time></trkpt><trkpt lat="43.6938722" lon="10.8559052"><ele>25.0</ele><time>2026-04-19T14:30:14.946Z</time></trkpt><trkpt lat="43.6939696" lon="10.8559066"><ele>24.8</ele><time>2026-04-19T14:30:15.946Z</time></trkpt><trkpt lat="43.6940629" lon="10.8558968"><ele>24.6</ele><time>2026-04-19T14:30:16.946Z</time></trkpt><trkpt lat="43.6941621" lon="10.8558545"><ele>24.4</ele><time>2026-04-19T14:30:17.946Z</time></trkpt><trkpt lat="43.6942512" lon="10.8557896"><ele>24.2</ele><time>2026-04-19T14:30:18.946Z</time></trkpt><trkpt lat="43.6943251" lon="10.8557084"><ele>24.0</ele><time>2026-04-19T14:30:19.946Z</time></trkpt><trkpt lat="43.6943865" lon="10.8556085"><ele>23.6</ele><time>2026-04-19T14:30:20.946Z</time></trkpt><trkpt lat="43.6944325" lon="10.8554988"><ele>23.2</ele><time>2026-04-19T14:30:21.946Z</time></trkpt><trkpt lat="43.6944666" lon="10.8553768"><ele>22.8</ele><time>2026-04-19T14:30:22.947Z</time></trkpt><trkpt lat="43.6944885" lon="10.85524"><ele>22.400000000000002</ele><time>2026-04-19T14:30:23.946Z</time></trkpt><trkpt lat="43.6944954" lon="10.855084"><ele>22.0</ele><time>2026-04-19T14:30:24.946Z</time></trkpt><trkpt lat="43.6945033" lon="10.8548967"><ele>22.0</ele><time>2026-04-19T14:30:25.946Z</time></trkpt><trkpt lat="43.6945235" lon="10.8546873"><ele>22.0</ele><time>2026-04-19T14:30:26.947Z</time></trkpt><trkpt lat="43.6945425" lon="10.8544693"><ele>22.0</ele><time>2026-04-19T14:30:27.946Z</time></trkpt><trkpt lat="43.6945632" lon="10.8542603"><ele>22.333333333333332</ele><time>2026-04-19T14:30:28.947Z</time></trkpt><trkpt lat="43.6945848" lon="10.8540551"><ele>22.666666666666668</ele><time>2026-04-19T14:30:29.946Z</time></trkpt><trkpt lat="43.6946031" lon="10.8538453"><ele>23.0</ele><time>2026-04-19T14:30:30.946Z</time></trkpt><trkpt lat="43.6946324" lon="10.8536359"><ele>23.0</ele><time>2026-04-19T14:30:31.946Z</time></trkpt><trkpt lat="43.6946599" lon="10.8534347"><ele>23.0</ele><time>2026-04-19T14:30:32.946Z</time></trkpt><trkpt lat="43.6946838" lon="10.8532298"><ele>23.0</ele><time>2026-04-19T14:30:33.946Z</time></trkpt><trkpt lat="43.6947073" lon="10.8530185"><ele>23.0</ele><time>2026-04-19T14:30:34.946Z</time></trkpt><trkpt lat="43.6947281" lon="10.8528116"><ele>23.0</ele><time>2026-04-19T14:30:35.946Z</time></trkpt><trkpt lat="43.6947516" lon="10.8526026"><ele>23.0</ele><time>2026-04-19T14:30:36.946Z</time></trkpt><trkpt lat="43.6947722" lon="10.8524003"><ele>23.0</ele><time>2026-04-19T14:30:37.947Z</time></trkpt><trkpt lat="43.6947952" lon="10.8521929"><ele>23.0</ele><time>2026-04-19T14:30:38.946Z</time></trkpt><trkpt lat="43.6948131" lon="10.851991"><ele>23.0</ele><time>2026-04-19T14:30:39.946Z</time></trkpt><trkpt lat="43.6948306" lon="10.8518016"><ele>23.0</ele><time>2026-04-19T14:30:40.946Z</time></trkpt><trkpt lat="43.6948452" lon="10.8516146"><ele>23.0</ele><time>2026-04-19T14:30:41.946Z</time></trkpt><trkpt lat="43.6948572" lon="10.8514285"><ele>23.0</ele><time>2026-04-19T14:30:42.946Z</time></trkpt><trkpt lat="43.694876" lon="10.8512422"><ele>23.0</ele><time>2026-04-19T14:30:43.946Z</time></trkpt><trkpt lat="43.6948963" lon="10.8510539"><ele>23.0</ele><time>2026-04-19T14:30:44.946Z</time></trkpt><trkpt lat="43.6949193" lon="10.8508673"><ele>23.0</ele><time>2026-04-19T14:30:45.946Z</time></trkpt><trkpt lat="43.6949591" lon="10.8506748"><ele>23.0</ele><time>2026-04-19T14:30:46.946Z</time></trkpt><trkpt lat="43.6950015" lon="10.8504909"><ele>23.0</ele><time>2026-04-19T14:30:47.946Z</time></trkpt><trkpt lat="43.6950459" lon="10.8502994"><ele>23.0</ele><time>2026-04-19T14:30:48.946Z</time></trkpt><trkpt lat="43.695093" lon="10.8501089"><ele>23.0</ele><time>2026-04-19T14:30:49.946Z</time></trkpt><trkpt lat="43.6951416" lon="10.8499208"><ele>23.0</ele><time>2026-04-19T14:30:50.946Z</time></trkpt><trkpt lat="43.6951899" lon="10.8497293"><ele>23.0</ele><time>2026-04-19T14:30:51.946Z</time></trkpt><trkpt lat="43.6952442" lon="10.8495363"><ele>23.0</ele><time>2026-04-19T14:30:52.946Z</time></trkpt><trkpt lat="43.6952987" lon="10.8493388"><ele>23.0</ele><time>2026-04-19T14:30:53.946Z</time></trkpt><trkpt lat="43.6953454" lon="10.8491432"><ele>23.0</ele><time>2026-04-19T14:30:54.946Z</time></trkpt><trkpt lat="43.6953936" lon="10.848949"><ele>23.0</ele><time>2026-04-19T14:30:55.946Z</time></trkpt><trkpt lat="43.6954461" lon="10.8487533"><ele>23.0</ele><time>2026-04-19T14:30:56.946Z</time></trkpt><trkpt lat="43.6954961" lon="10.8485568"><ele>22.666666666666668</ele><time>2026-04-19T14:30:57.946Z</time></trkpt><trkpt lat="43.6955442" lon="10.8483566"><ele>22.333333333333332</ele><time>2026-04-19T14:30:58.947Z</time></trkpt><trkpt lat="43.6955954" lon="10.8481582"><ele>22.0</ele><time>2026-04-19T14:30:59.946Z</time></trkpt><trkpt lat="43.6956428" lon="10.8479583"><ele>22.0</ele><time>2026-04-19T14:31:00.946Z</time></trkpt><trkpt lat="43.6956914" lon="10.8477602"><ele>22.0</ele><time>2026-04-19T14:31:01.946Z</time></trkpt><trkpt lat="43.6957453" lon="10.8475695"><ele>22.0</ele><time>2026-04-19T14:31:02.946Z</time></trkpt><trkpt lat="43.6957929" lon="10.8473764"><ele>22.0</ele><time>2026-04-19T14:31:03.947Z</time></trkpt><trkpt lat="43.6958415" lon="10.8471755"><ele>22.0</ele><time>2026-04-19T14:31:04.946Z</time></trkpt><trkpt lat="43.6958918" lon="10.8469798"><ele>22.0</ele><time>2026-04-19T14:31:05.946Z</time></trkpt><trkpt lat="43.6959402" lon="10.846784"><ele>22.0</ele><time>2026-04-19T14:31:06.946Z</time></trkpt><trkpt lat="43.695988" lon="10.8465943"><ele>22.0</ele><time>2026-04-19T14:31:07.946Z</time></trkpt><trkpt lat="43.6960357" lon="10.8463991"><ele>22.0</ele><time>2026-04-19T14:31:08.946Z</time></trkpt><trkpt lat="43.6960841" lon="10.8462019"><ele>22.0</ele><time>2026-04-19T14:31:09.946Z</time></trkpt><trkpt lat="43.6961253" lon="10.8460095"><ele>22.0</ele><time>2026-04-19T14:31:10.947Z</time></trkpt><trkpt lat="43.6961559" lon="10.8458078"><ele>22.0</ele><time>2026-04-19T14:31:11.946Z</time></trkpt><trkpt lat="43.6961753" lon="10.8456055"><ele>22.0</ele><time>2026-04-19T14:31:12.946Z</time></trkpt><trkpt lat="43.696173" lon="10.8453946"><ele>22.0</ele><time>2026-04-19T14:31:13.947Z</time></trkpt><trkpt lat="43.6961601" lon="10.8451891"><ele>22.0</ele><time>2026-04-19T14:31:14.946Z</time></trkpt><trkpt lat="43.6961345" lon="10.8449802"><ele>22.0</ele><time>2026-04-19T14:31:15.946Z</time></trkpt><trkpt lat="43.6961031" lon="10.8447667"><ele>22.0</ele><time>2026-04-19T14:31:16.946Z</time></trkpt><trkpt lat="43.6960713" lon="10.8445512"><ele>22.0</ele><time>2026-04-19T14:31:17.946Z</time></trkpt><trkpt lat="43.6960323" lon="10.8443416"><ele>22.0</ele><time>2026-04-19T14:31:18.946Z</time></trkpt><trkpt lat="43.6959953" lon="10.844138"><ele>22.0</ele><time>2026-04-19T14:31:19.947Z</time></trkpt><trkpt lat="43.695959" lon="10.8439342"><ele>22.0</ele><time>2026-04-19T14:31:20.946Z</time></trkpt><trkpt lat="43.6959232" lon="10.8437315"><ele>22.0</ele><time>2026-04-19T14:31:21.946Z</time></trkpt><trkpt lat="43.6958911" lon="10.8435371"><ele>22.0</ele><time>2026-04-19T14:31:22.946Z</time></trkpt><trkpt lat="43.6958611" lon="10.8433314"><ele>22.0</ele><time>2026-04-19T14:31:23.947Z</time></trkpt><trkpt lat="43.6958326" lon="10.8431292"><ele>22.0</ele><time>2026-04-19T14:31:24.946Z</time></trkpt><trkpt lat="43.6958045" lon="10.8429278"><ele>22.5</ele><time>2026-04-19T14:31:25.947Z</time></trkpt><trkpt lat="43.6957758" lon="10.842722"><ele>23.0</ele><time>2026-04-19T14:31:26.946Z</time></trkpt><trkpt lat="43.6957518" lon="10.8425273"><ele>23.5</ele><time>2026-04-19T14:31:27.946Z</time></trkpt><trkpt lat="43.6957341" lon="10.8423484"><ele>24.0</ele><time>2026-04-19T14:31:28.946Z</time></trkpt><trkpt lat="43.6957141" lon="10.8421745"><ele>24.0</ele><time>2026-04-19T14:31:29.946Z</time></trkpt><trkpt lat="43.6956882" lon="10.8420073"><ele>24.0</ele><time>2026-04-19T14:31:30.946Z</time></trkpt><trkpt lat="43.6956632" lon="10.8418365"><ele>24.0</ele><time>2026-04-19T14:31:31.946Z</time></trkpt><trkpt lat="43.6956357" lon="10.8416553"><ele>24.0</ele><time>2026-04-19T14:31:32.946Z</time></trkpt><trkpt lat="43.6956081" lon="10.8414673"><ele>24.0</ele><time>2026-04-19T14:31:33.947Z</time></trkpt><trkpt lat="43.6955814" lon="10.8412742"><ele>24.0</ele><time>2026-04-19T14:31:34.946Z</time></trkpt><trkpt lat="43.6955543" lon="10.8410728"><ele>24.0</ele><time>2026-04-19T14:31:35.947Z</time></trkpt><trkpt lat="43.6955263" lon="10.8408705"><ele>24.0</ele><time>2026-04-19T14:31:36.946Z</time></trkpt><trkpt lat="43.6955019" lon="10.8406803"><ele>24.0</ele><time>2026-04-19T14:31:37.946Z</time></trkpt><trkpt lat="43.6954793" lon="10.8404895"><ele>24.0</ele><time>2026-04-19T14:31:38.946Z</time></trkpt><trkpt lat="43.695459" lon="10.8403026"><ele>24.0</ele><time>2026-04-19T14:31:39.946Z</time></trkpt><trkpt lat="43.6954429" lon="10.8401262"><ele>24.0</ele><time>2026-04-19T14:31:40.946Z</time></trkpt><trkpt lat="43.6954317" lon="10.8399622"><ele>24.0</ele><time>2026-04-19T14:31:41.946Z</time></trkpt><trkpt lat="43.6954212" lon="10.839811"><ele>24.0</ele><time>2026-04-19T14:31:42.946Z</time></trkpt><trkpt lat="43.6954154" lon="10.8396668"><ele>24.0</ele><time>2026-04-19T14:31:43.946Z</time></trkpt><trkpt lat="43.6954058" lon="10.8395316"><ele>24.0</ele><time>2026-04-19T14:31:44.946Z</time></trkpt><trkpt lat="43.6954026" lon="10.8394057"><ele>24.0</ele><time>2026-04-19T14:31:45.946Z</time></trkpt><trkpt lat="43.6954066" lon="10.8392884"><ele>24.0</ele><time>2026-04-19T14:31:46.946Z</time></trkpt><trkpt lat="43.6954163" lon="10.8391625"><ele>24.0</ele><time>2026-04-19T14:31:47.947Z</time></trkpt><trkpt lat="43.6954358" lon="10.8390411"><ele>24.0</ele><time>2026-04-19T14:31:48.947Z</time></trkpt><trkpt lat="43.6954622" lon="10.8389206"><ele>24.0</ele><time>2026-04-19T14:31:49.946Z</time></trkpt><trkpt lat="43.6955029" lon="10.8388102"><ele>24.0</ele><time>2026-04-19T14:31:50.946Z</time></trkpt><trkpt lat="43.6955627" lon="10.838705"><ele>24.0</ele><time>2026-04-19T14:31:51.946Z</time></trkpt><trkpt lat="43.6956383" lon="10.8385979"><ele>24.0</ele><time>2026-04-19T14:31:52.946Z</time></trkpt><trkpt lat="43.6957314" lon="10.8384849"><ele>24.0</ele><time>2026-04-19T14:31:53.946Z</time></trkpt><trkpt lat="43.6958228" lon="10.8383664"><ele>24.0</ele><time>2026-04-19T14:31:54.946Z</time></trkpt><trkpt lat="43.6959139" lon="10.8382522"><ele>23.75</ele><time>2026-04-19T14:31:55.946Z</time></trkpt><trkpt lat="43.6960119" lon="10.8381289"><ele>23.5</ele><time>2026-04-19T14:31:56.946Z</time></trkpt><trkpt lat="43.6961133" lon="10.8379947"><ele>23.25</ele><time>2026-04-19T14:31:57.946Z</time></trkpt><trkpt lat="43.6962139" lon="10.8378636"><ele>23.0</ele><time>2026-04-19T14:31:58.947Z</time></trkpt><trkpt lat="43.696314" lon="10.8377355"><ele>23.25</ele><time>2026-04-19T14:31:59.946Z</time></trkpt><trkpt lat="43.6964287" lon="10.837601"><ele>23.5</ele><time>2026-04-19T14:32:00.946Z</time></trkpt><trkpt lat="43.6965318" lon="10.8374735"><ele>23.75</ele><time>2026-04-19T14:32:01.946Z</time></trkpt><trkpt lat="43.6966455" lon="10.837326"><ele>24.0</ele><time>2026-04-19T14:32:02.946Z</time></trkpt><trkpt lat="43.6967373" lon="10.8371951"><ele>24.0</ele><time>2026-04-19T14:32:03.946Z</time></trkpt><trkpt lat="43.6968397" lon="10.8370612"><ele>24.0</ele><time>2026-04-19T14:32:04.946Z</time></trkpt><trkpt lat="43.6969454" lon="10.8369276"><ele>24.0</ele><time>2026-04-19T14:32:05.946Z</time></trkpt><trkpt lat="43.6970517" lon="10.8367892"><ele>24.0</ele><time>2026-04-19T14:32:06.947Z</time></trkpt><trkpt lat="43.6971577" lon="10.8366594"><ele>23.75</ele><time>2026-04-19T14:32:07.946Z</time></trkpt><trkpt lat="43.6972563" lon="10.8365237"><ele>23.5</ele><time>2026-04-19T14:32:08.946Z</time></trkpt><trkpt lat="43.6973625" lon="10.8363923"><ele>23.25</ele><time>2026-04-19T14:32:09.946Z</time></trkpt><trkpt lat="43.6974673" lon="10.8362598"><ele>23.0</ele><time>2026-04-19T14:32:10.947Z</time></trkpt><trkpt lat="43.697572" lon="10.836123"><ele>23.0</ele><time>2026-04-19T14:32:11.946Z</time></trkpt><trkpt lat="43.6976776" lon="10.8359875"><ele>23.0</ele><time>2026-04-19T14:32:12.946Z</time></trkpt><trkpt lat="43.6977863" lon="10.8358464"><ele>23.0</ele><time>2026-04-19T14:32:13.946Z</time></trkpt><trkpt lat="43.6978936" lon="10.8357084"><ele>23.0</ele><time>2026-04-19T14:32:14.946Z</time></trkpt><trkpt lat="43.6980018" lon="10.8355715"><ele>22.75</ele><time>2026-04-19T14:32:15.946Z</time></trkpt><trkpt lat="43.6981081" lon="10.8354343"><ele>22.5</ele><time>2026-04-19T14:32:16.946Z</time></trkpt><trkpt lat="43.6982215" lon="10.8352949"><ele>22.25</ele><time>2026-04-19T14:32:17.946Z</time></trkpt><trkpt lat="43.6983268" lon="10.8351614"><ele>22.0</ele><time>2026-04-19T14:32:18.947Z</time></trkpt><trkpt lat="43.6984404" lon="10.8350277"><ele>22.333333333333332</ele><time>2026-04-19T14:32:19.946Z</time></trkpt><trkpt lat="43.6985483" lon="10.8348861"><ele>22.666666666666668</ele><time>2026-04-19T14:32:20.946Z</time></trkpt><trkpt lat="43.6986598" lon="10.8347493"><ele>23.0</ele><time>2026-04-19T14:32:21.947Z</time></trkpt><trkpt lat="43.6987742" lon="10.8346114"><ele>23.0</ele><time>2026-04-19T14:32:22.946Z</time></trkpt><trkpt lat="43.6988866" lon="10.8344662"><ele>23.0</ele><time>2026-04-19T14:32:23.946Z</time></trkpt><trkpt lat="43.6989946" lon="10.8343222"><ele>23.0</ele><time>2026-04-19T14:32:24.946Z</time></trkpt><trkpt lat="43.6991003" lon="10.8341895"><ele>23.0</ele><time>2026-04-19T14:32:25.946Z</time></trkpt><trkpt lat="43.6991951" lon="10.8340573"><ele>22.75</ele><time>2026-04-19T14:32:26.946Z</time></trkpt><trkpt lat="43.699288" lon="10.8339285"><ele>22.5</ele><time>2026-04-19T14:32:27.946Z</time></trkpt><trkpt lat="43.69938" lon="10.8338091"><ele>22.25</ele><time>2026-04-19T14:32:28.946Z</time></trkpt><trkpt lat="43.69947" lon="10.8337004"><ele>22.0</ele><time>2026-04-19T14:32:29.946Z</time></trkpt><trkpt lat="43.6995507" lon="10.8335908"><ele>22.0</ele><time>2026-04-19T14:32:30.946Z</time></trkpt><trkpt lat="43.6996344" lon="10.833487"><ele>22.0</ele><time>2026-04-19T14:32:31.946Z</time></trkpt><trkpt lat="43.6997294" lon="10.833377"><ele>22.0</ele><time>2026-04-19T14:32:32.946Z</time></trkpt><trkpt lat="43.6998182" lon="10.8332598"><ele>22.0</ele><time>2026-04-19T14:32:33.946Z</time></trkpt><trkpt lat="43.699899" lon="10.8331526"><ele>22.0</ele><time>2026-04-19T14:32:34.946Z</time></trkpt><trkpt lat="43.6999766" lon="10.8330476"><ele>22.0</ele><time>2026-04-19T14:32:35.946Z</time></trkpt><trkpt lat="43.7000475" lon="10.8329539"><ele>22.0</ele><time>2026-04-19T14:32:36.946Z</time></trkpt><trkpt lat="43.7001244" lon="10.8328524"><ele>22.0</ele><time>2026-04-19T14:32:37.946Z</time></trkpt><trkpt lat="43.7001929" lon="10.8327608"><ele>22.0</ele><time>2026-04-19T14:32:38.946Z</time></trkpt><trkpt lat="43.7002612" lon="10.8326757"><ele>22.166666666666664</ele><time>2026-04-19T14:32:39.946Z</time></trkpt><trkpt lat="43.7003335" lon="10.8325955"><ele>22.333333333333332</ele><time>2026-04-19T14:32:40.947Z</time></trkpt><trkpt lat="43.7003972" lon="10.8325098"><ele>22.5</ele><time>2026-04-19T14:32:41.946Z</time></trkpt><trkpt lat="43.7004574" lon="10.8324222"><ele>22.666666666666668</ele><time>2026-04-19T14:32:42.946Z</time></trkpt><trkpt lat="43.7005035" lon="10.8323441"><ele>22.833333333333336</ele><time>2026-04-19T14:32:43.946Z</time></trkpt><trkpt lat="43.7005584" lon="10.8322621"><ele>23.0</ele><time>2026-04-19T14:32:44.946Z</time></trkpt><trkpt lat="43.7006224" lon="10.8321694"><ele>23.0</ele><time>2026-04-19T14:32:45.946Z</time></trkpt><trkpt lat="43.7006921" lon="10.8320681"><ele>23.0</ele><time>2026-04-19T14:32:46.947Z</time></trkpt><trkpt lat="43.7007608" lon="10.8319526"><ele>23.0</ele><time>2026-04-19T14:32:47.946Z</time></trkpt><trkpt lat="43.7008311" lon="10.8318456"><ele>23.0</ele><time>2026-04-19T14:32:48.946Z</time></trkpt><trkpt lat="43.7009002" lon="10.8317389"><ele>23.0</ele><time>2026-04-19T14:32:49.946Z</time></trkpt><trkpt lat="43.7009691" lon="10.8316355"><ele>23.0</ele><time>2026-04-19T14:32:50.946Z</time></trkpt><trkpt lat="43.701031" lon="10.8315348"><ele>23.0</ele><time>2026-04-19T14:32:51.946Z</time></trkpt><trkpt lat="43.7010956" lon="10.8314405"><ele>23.0</ele><time>2026-04-19T14:32:52.946Z</time></trkpt><trkpt lat="43.7011717" lon="10.8313553"><ele>23.0</ele><time>2026-04-19T14:32:53.946Z</time></trkpt><trkpt lat="43.7012553" lon="10.8312787"><ele>23.0</ele><time>2026-04-19T14:32:54.946Z</time></trkpt><trkpt lat="43.7013527" lon="10.8312081"><ele>23.0</ele><time>2026-04-19T14:32:55.946Z</time></trkpt><trkpt lat="43.7014488" lon="10.8311366"><ele>23.0</ele><time>2026-04-19T14:32:56.946Z</time></trkpt><trkpt lat="43.701546" lon="10.8310511"><ele>23.0</ele><time>2026-04-19T14:32:57.946Z</time></trkpt><trkpt lat="43.7016407" lon="10.8309618"><ele>23.0</ele><time>2026-04-19T14:32:58.946Z</time></trkpt><trkpt lat="43.7017312" lon="10.8308431"><ele>22.75</ele><time>2026-04-19T14:32:59.946Z</time></trkpt><trkpt lat="43.701818" lon="10.8307321"><ele>22.5</ele><time>2026-04-19T14:33:00.946Z</time></trkpt><trkpt lat="43.7019032" lon="10.8306188"><ele>22.25</ele><time>2026-04-19T14:33:01.946Z</time></trkpt><trkpt lat="43.7019887" lon="10.8305045"><ele>22.0</ele><time>2026-04-19T14:33:02.946Z</time></trkpt><trkpt lat="43.7020726" lon="10.8303954"><ele>21.75</ele><time>2026-04-19T14:33:03.946Z</time></trkpt><trkpt lat="43.702168" lon="10.8302897"><ele>21.5</ele><time>2026-04-19T14:33:04.946Z</time></trkpt><trkpt lat="43.7022493" lon="10.8301836"><ele>21.25</ele><time>2026-04-19T14:33:05.946Z</time></trkpt><trkpt lat="43.7023388" lon="10.8300822"><ele>21.0</ele><time>2026-04-19T14:33:06.946Z</time></trkpt><trkpt lat="43.7024154" lon="10.8299808"><ele>20.8</ele><time>2026-04-19T14:33:07.946Z</time></trkpt><trkpt lat="43.7024902" lon="10.8298802"><ele>20.6</ele><time>2026-04-19T14:33:08.946Z</time></trkpt><trkpt lat="43.7025762" lon="10.8297744"><ele>20.4</ele><time>2026-04-19T14:33:09.946Z</time></trkpt><trkpt lat="43.7026602" lon="10.8296719"><ele>20.2</ele><time>2026-04-19T14:33:10.946Z</time></trkpt><trkpt lat="43.7027432" lon="10.8295665"><ele>20.0</ele><time>2026-04-19T14:33:11.946Z</time></trkpt><trkpt lat="43.7028276" lon="10.8294677"><ele>20.0</ele><time>2026-04-19T14:33:12.946Z</time></trkpt><trkpt lat="43.7029201" lon="10.8293751"><ele>20.0</ele><time>2026-04-19T14:33:13.947Z</time></trkpt><trkpt lat="43.7030065" lon="10.8292845"><ele>20.0</ele><time>2026-04-19T14:33:14.946Z</time></trkpt><trkpt lat="43.7030913" lon="10.8291899"><ele>20.0</ele><time>2026-04-19T14:33:15.946Z</time></trkpt><trkpt lat="43.703176" lon="10.8291023"><ele>20.0</ele><time>2026-04-19T14:33:16.946Z</time></trkpt><trkpt lat="43.7032668" lon="10.8290167"><ele>20.6</ele><time>2026-04-19T14:33:17.946Z</time></trkpt><trkpt lat="43.7033504" lon="10.8289309"><ele>21.2</ele><time>2026-04-19T14:33:18.946Z</time></trkpt><trkpt lat="43.7034357" lon="10.8288418"><ele>21.799999999999997</ele><time>2026-04-19T14:33:19.947Z</time></trkpt><trkpt lat="43.7035243" lon="10.828749"><ele>22.4</ele><time>2026-04-19T14:33:20.946Z</time></trkpt><trkpt lat="43.7036157" lon="10.8286563"><ele>23.0</ele><time>2026-04-19T14:33:21.946Z</time></trkpt><trkpt lat="43.703709" lon="10.8285733"><ele>23.0</ele><time>2026-04-19T14:33:22.946Z</time></trkpt><trkpt lat="43.703791" lon="10.8284849"><ele>23.0</ele><time>2026-04-19T14:33:23.947Z</time></trkpt><trkpt lat="43.7038654" lon="10.8283976"><ele>23.0</ele><time>2026-04-19T14:33:24.946Z</time></trkpt><trkpt lat="43.7039348" lon="10.8283157"><ele>23.0</ele><time>2026-04-19T14:33:25.946Z</time></trkpt><trkpt lat="43.703994" lon="10.8282377"><ele>23.0</ele><time>2026-04-19T14:33:26.946Z</time></trkpt><trkpt lat="43.704041" lon="10.8281483"><ele>23.0</ele><time>2026-04-19T14:33:27.946Z</time></trkpt><trkpt lat="43.7040719" lon="10.8280591"><ele>23.0</ele><time>2026-04-19T14:33:28.946Z</time></trkpt><trkpt lat="43.7041043" lon="10.8279258"><ele>23.0</ele><time>2026-04-19T14:33:30.946Z</time></trkpt><trkpt lat="43.7041275" lon="10.8278344"><ele>23.0</ele><time>2026-04-19T14:33:32.946Z</time></trkpt><trkpt lat="43.7041954" lon="10.8277126"><ele>23.0</ele><time>2026-04-19T14:33:34.946Z</time></trkpt><trkpt lat="43.7042255" lon="10.8275676"><ele>23.0</ele><time>2026-04-19T14:33:36.946Z</time></trkpt><trkpt lat="43.7041776" lon="10.8274383"><ele>23.0</ele><time>2026-04-19T14:33:38.946Z</time></trkpt><trkpt lat="43.7040741" lon="10.8274108"><ele>23.0</ele><time>2026-04-19T14:33:40.946Z</time></trkpt><trkpt lat="43.7039953" lon="10.827505"><ele>23.0</ele><time>2026-04-19T14:33:42.946Z</time></trkpt><trkpt lat="43.7040137" lon="10.8276542"><ele>23.0</ele><time>2026-04-19T14:33:44.946Z</time></trkpt><trkpt lat="43.704117" lon="10.8277174"><ele>23.0</ele><time>2026-04-19T14:33:46.946Z</time></trkpt><trkpt lat="43.704183" lon="10.8276939"><ele>23.0</ele><time>2026-04-19T14:33:47.947Z</time></trkpt><trkpt lat="43.7042427" lon="10.8276419"><ele>23.0</ele><time>2026-04-19T14:33:48.946Z</time></trkpt><trkpt lat="43.7043118" lon="10.8275744"><ele>23.0</ele><time>2026-04-19T14:33:49.946Z</time></trkpt><trkpt lat="43.7044123" lon="10.8275098"><ele>23.0</ele><time>2026-04-19T14:33:50.946Z</time></trkpt><trkpt lat="43.7045339" lon="10.8274547"><ele>22.25</ele><time>2026-04-19T14:33:51.946Z</time></trkpt><trkpt lat="43.7046625" lon="10.8274043"><ele>21.5</ele><time>2026-04-19T14:33:52.946Z</time></trkpt><trkpt lat="43.7047929" lon="10.8273437"><ele>20.75</ele><time>2026-04-19T14:33:53.946Z</time></trkpt><trkpt lat="43.7049368" lon="10.8272649"><ele>20.0</ele><time>2026-04-19T14:33:54.946Z</time></trkpt><trkpt lat="43.7050841" lon="10.8271792"><ele>20.0</ele><time>2026-04-19T14:33:55.946Z</time></trkpt><trkpt lat="43.7052202" lon="10.827086"><ele>20.0</ele><time>2026-04-19T14:33:56.946Z</time></trkpt><trkpt lat="43.7053572" lon="10.8269733"><ele>20.0</ele><time>2026-04-19T14:33:57.946Z</time></trkpt><trkpt lat="43.7054831" lon="10.826858"><ele>20.25</ele><time>2026-04-19T14:33:58.946Z</time></trkpt><trkpt lat="43.705609" lon="10.8267373"><ele>20.5</ele><time>2026-04-19T14:33:59.946Z</time></trkpt><trkpt lat="43.7057206" lon="10.8266036"><ele>20.75</ele><time>2026-04-19T14:34:00.946Z</time></trkpt><trkpt lat="43.7058263" lon="10.8264634"><ele>21.0</ele><time>2026-04-19T14:34:01.946Z</time></trkpt><trkpt lat="43.7059296" lon="10.8263259"><ele>21.0</ele><time>2026-04-19T14:34:02.946Z</time></trkpt><trkpt lat="43.7060212" lon="10.8261867"><ele>21.0</ele><time>2026-04-19T14:34:03.946Z</time></trkpt><trkpt lat="43.7061127" lon="10.8260404"><ele>21.0</ele><time>2026-04-19T14:34:04.946Z</time></trkpt><trkpt lat="43.7061988" lon="10.8258891"><ele>21.0</ele><time>2026-04-19T14:34:05.946Z</time></trkpt><trkpt lat="43.7062847" lon="10.8257371"><ele>20.75</ele><time>2026-04-19T14:34:06.946Z</time></trkpt><trkpt lat="43.7063726" lon="10.8255878"><ele>20.5</ele><time>2026-04-19T14:34:07.946Z</time></trkpt><trkpt lat="43.7064548" lon="10.8254343"><ele>20.25</ele><time>2026-04-19T14:34:08.946Z</time></trkpt><trkpt lat="43.7065431" lon="10.8252866"><ele>20.0</ele><time>2026-04-19T14:34:09.946Z</time></trkpt><trkpt lat="43.7066211" lon="10.8251439"><ele>20.0</ele><time>2026-04-19T14:34:10.946Z</time></trkpt><trkpt lat="43.7066993" lon="10.8249948"><ele>20.0</ele><time>2026-04-19T14:34:11.946Z</time></trkpt><trkpt lat="43.7067816" lon="10.8248445"><ele>20.0</ele><time>2026-04-19T14:34:12.946Z</time></trkpt><trkpt lat="43.7068618" lon="10.8246996"><ele>20.0</ele><time>2026-04-19T14:34:13.946Z</time></trkpt><trkpt lat="43.7069386" lon="10.8245554"><ele>20.0</ele><time>2026-04-19T14:34:14.946Z</time></trkpt><trkpt lat="43.7070167" lon="10.8244113"><ele>20.0</ele><time>2026-04-19T14:34:15.946Z</time></trkpt><trkpt lat="43.7070989" lon="10.8242743"><ele>20.0</ele><time>2026-04-19T14:34:16.946Z</time></trkpt><trkpt lat="43.7071806" lon="10.8241286"><ele>20.0</ele><time>2026-04-19T14:34:17.946Z</time></trkpt><trkpt lat="43.707263" lon="10.8239821"><ele>20.0</ele><time>2026-04-19T14:34:18.946Z</time></trkpt><trkpt lat="43.7073388" lon="10.8238395"><ele>20.0</ele><time>2026-04-19T14:34:19.946Z</time></trkpt><trkpt lat="43.7074147" lon="10.8237008"><ele>20.0</ele><time>2026-04-19T14:34:20.946Z</time></trkpt><trkpt lat="43.7074891" lon="10.8235618"><ele>20.0</ele><time>2026-04-19T14:34:21.946Z</time></trkpt><trkpt lat="43.7075691" lon="10.8234219"><ele>20.5</ele><time>2026-04-19T14:34:22.946Z</time></trkpt><trkpt lat="43.7076451" lon="10.8232805"><ele>21.0</ele><time>2026-04-19T14:34:23.947Z</time></trkpt><trkpt lat="43.707723" lon="10.8231327"><ele>21.5</ele><time>2026-04-19T14:34:24.946Z</time></trkpt><trkpt lat="43.7078032" lon="10.8229865"><ele>22.0</ele><time>2026-04-19T14:34:25.946Z</time></trkpt><trkpt lat="43.7078801" lon="10.822843"><ele>22.0</ele><time>2026-04-19T14:34:26.946Z</time></trkpt><trkpt lat="43.707958" lon="10.822704"><ele>22.0</ele><time>2026-04-19T14:34:27.946Z</time></trkpt><trkpt lat="43.7080262" lon="10.8225679"><ele>22.0</ele><time>2026-04-19T14:34:28.947Z</time></trkpt><trkpt lat="43.7080991" lon="10.822432"><ele>22.0</ele><time>2026-04-19T14:34:29.946Z</time></trkpt><trkpt lat="43.7081726" lon="10.8222953"><ele>22.0</ele><time>2026-04-19T14:34:30.946Z</time></trkpt><trkpt lat="43.7082412" lon="10.8221557"><ele>22.0</ele><time>2026-04-19T14:34:31.946Z</time></trkpt><trkpt lat="43.7083146" lon="10.8220118"><ele>22.0</ele><time>2026-04-19T14:34:32.946Z</time></trkpt><trkpt lat="43.7083899" lon="10.8218689"><ele>22.0</ele><time>2026-04-19T14:34:33.946Z</time></trkpt><trkpt lat="43.7084694" lon="10.8217263"><ele>22.0</ele><time>2026-04-19T14:34:34.946Z</time></trkpt><trkpt lat="43.7085418" lon="10.821574"><ele>22.0</ele><time>2026-04-19T14:34:35.946Z</time></trkpt><trkpt lat="43.7086201" lon="10.8214202"><ele>22.0</ele><time>2026-04-19T14:34:36.946Z</time></trkpt><trkpt lat="43.7086978" lon="10.8212693"><ele>22.0</ele><time>2026-04-19T14:34:37.946Z</time></trkpt><trkpt lat="43.7087853" lon="10.8211078"><ele>21.5</ele><time>2026-04-19T14:34:38.946Z</time></trkpt><trkpt lat="43.7088752" lon="10.820949"><ele>21.0</ele><time>2026-04-19T14:34:39.946Z</time></trkpt><trkpt lat="43.7089689" lon="10.8207938"><ele>20.5</ele><time>2026-04-19T14:34:40.946Z</time></trkpt><trkpt lat="43.7090682" lon="10.8206496"><ele>20.0</ele><time>2026-04-19T14:34:41.946Z</time></trkpt><trkpt lat="43.7091697" lon="10.8205162"><ele>20.0</ele><time>2026-04-19T14:34:42.946Z</time></trkpt><trkpt lat="43.7092668" lon="10.820388"><ele>20.0</ele><time>2026-04-19T14:34:43.946Z</time></trkpt><trkpt lat="43.7093548" lon="10.82027"><ele>20.0</ele><time>2026-04-19T14:34:44.946Z</time></trkpt><trkpt lat="43.709439" lon="10.8201609"><ele>20.0</ele><time>2026-04-19T14:34:45.946Z</time></trkpt><trkpt lat="43.7095238" lon="10.8200506"><ele>20.2</ele><time>2026-04-19T14:34:46.947Z</time></trkpt><trkpt lat="43.7096148" lon="10.8199423"><ele>20.4</ele><time>2026-04-19T14:34:47.947Z</time></trkpt><trkpt lat="43.7096974" lon="10.819843"><ele>20.6</ele><time>2026-04-19T14:34:48.946Z</time></trkpt><trkpt lat="43.7097768" lon="10.8197521"><ele>20.8</ele><time>2026-04-19T14:34:49.946Z</time></trkpt><trkpt lat="43.709855" lon="10.8196687"><ele>21.0</ele><time>2026-04-19T14:34:50.946Z</time></trkpt><trkpt lat="43.7099218" lon="10.8195952"><ele>21.0</ele><time>2026-04-19T14:34:51.946Z</time></trkpt><trkpt lat="43.709989" lon="10.8195202"><ele>21.0</ele><time>2026-04-19T14:34:52.946Z</time></trkpt><trkpt lat="43.7100534" lon="10.8194572"><ele>21.0</ele><time>2026-04-19T14:34:53.946Z</time></trkpt><trkpt lat="43.7101123" lon="10.8194006"><ele>21.0</ele><time>2026-04-19T14:34:54.946Z</time></trkpt><trkpt lat="43.7101832" lon="10.8193614"><ele>21.0</ele><time>2026-04-19T14:34:55.946Z</time></trkpt><trkpt lat="43.7102633" lon="10.8193344"><ele>21.0</ele><time>2026-04-19T14:34:56.946Z</time></trkpt><trkpt lat="43.7103456" lon="10.819309"><ele>21.333333333333332</ele><time>2026-04-19T14:34:57.946Z</time></trkpt><trkpt lat="43.710425" lon="10.8192725"><ele>21.666666666666668</ele><time>2026-04-19T14:34:58.947Z</time></trkpt><trkpt lat="43.7105005" lon="10.8192089"><ele>22.0</ele><time>2026-04-19T14:34:59.946Z</time></trkpt><trkpt lat="43.7105779" lon="10.8191563"><ele>22.333333333333336</ele><time>2026-04-19T14:35:00.946Z</time></trkpt><trkpt lat="43.7106628" lon="10.8191029"><ele>22.666666666666668</ele><time>2026-04-19T14:35:01.946Z</time></trkpt><trkpt lat="43.7107551" lon="10.8190634"><ele>23.0</ele><time>2026-04-19T14:35:02.946Z</time></trkpt><trkpt lat="43.7108588" lon="10.8190161"><ele>23.0</ele><time>2026-04-19T14:35:03.947Z</time></trkpt><trkpt lat="43.7109715" lon="10.8189764"><ele>23.0</ele><time>2026-04-19T14:35:04.946Z</time></trkpt><trkpt lat="43.7110878" lon="10.8189371"><ele>23.0</ele><time>2026-04-19T14:35:05.947Z</time></trkpt><trkpt lat="43.7112166" lon="10.8189054"><ele>23.0</ele><time>2026-04-19T14:35:06.946Z</time></trkpt><trkpt lat="43.7113657" lon="10.8188721"><ele>23.5</ele><time>2026-04-19T14:35:07.947Z</time></trkpt><trkpt lat="43.7115132" lon="10.8188449"><ele>24.0</ele><time>2026-04-19T14:35:08.946Z</time></trkpt><trkpt lat="43.711656" lon="10.8188257"><ele>24.5</ele><time>2026-04-19T14:35:09.946Z</time></trkpt><trkpt lat="43.7118078" lon="10.8188094"><ele>25.0</ele><time>2026-04-19T14:35:10.947Z</time></trkpt><trkpt lat="43.7119573" lon="10.8188008"><ele>24.0</ele><time>2026-04-19T14:35:11.946Z</time></trkpt><trkpt lat="43.7121078" lon="10.8187924"><ele>23.0</ele><time>2026-04-19T14:35:12.946Z</time></trkpt><trkpt lat="43.7122547" lon="10.8187917"><ele>22.0</ele><time>2026-04-19T14:35:13.946Z</time></trkpt><trkpt lat="43.7124023" lon="10.8187997"><ele>21.0</ele><time>2026-04-19T14:35:14.946Z</time></trkpt><trkpt lat="43.7125468" lon="10.8188235"><ele>21.0</ele><time>2026-04-19T14:35:15.946Z</time></trkpt><trkpt lat="43.7126944" lon="10.8188515"><ele>21.0</ele><time>2026-04-19T14:35:16.947Z</time></trkpt><trkpt lat="43.7128457" lon="10.8188829"><ele>21.0</ele><time>2026-04-19T14:35:17.946Z</time></trkpt><trkpt lat="43.7129968" lon="10.8189289"><ele>21.333333333333332</ele><time>2026-04-19T14:35:18.946Z</time></trkpt><trkpt lat="43.713144" lon="10.8189736"><ele>21.666666666666664</ele><time>2026-04-19T14:35:19.946Z</time></trkpt><trkpt lat="43.7132925" lon="10.8190194"><ele>22.0</ele><time>2026-04-19T14:35:20.946Z</time></trkpt><trkpt lat="43.713439" lon="10.8190726"><ele>21.666666666666664</ele><time>2026-04-19T14:35:21.946Z</time></trkpt><trkpt lat="43.7135886" lon="10.819141"><ele>21.333333333333332</ele><time>2026-04-19T14:35:22.946Z</time></trkpt><trkpt lat="43.7137469" lon="10.8192041"><ele>21.0</ele><time>2026-04-19T14:35:23.946Z</time></trkpt><trkpt lat="43.7139066" lon="10.8192779"><ele>20.0</ele><time>2026-04-19T14:35:24.946Z</time></trkpt><trkpt lat="43.7140624" lon="10.8193512"><ele>19.0</ele><time>2026-04-19T14:35:25.946Z</time></trkpt><trkpt lat="43.7142155" lon="10.819428"><ele>18.0</ele><time>2026-04-19T14:35:26.946Z</time></trkpt><trkpt lat="43.7143713" lon="10.8195096"><ele>17.0</ele><time>2026-04-19T14:35:27.946Z</time></trkpt><trkpt lat="43.7145264" lon="10.8195913"><ele>16.0</ele><time>2026-04-19T14:35:28.947Z</time></trkpt><trkpt lat="43.714679" lon="10.8196716"><ele>15.0</ele><time>2026-04-19T14:35:29.946Z</time></trkpt><trkpt lat="43.7148316" lon="10.8197517"><ele>15.0</ele><time>2026-04-19T14:35:30.946Z</time></trkpt><trkpt lat="43.7149854" lon="10.8198353"><ele>15.0</ele><time>2026-04-19T14:35:31.947Z</time></trkpt><trkpt lat="43.7151416" lon="10.8199214"><ele>15.0</ele><time>2026-04-19T14:35:32.946Z</time></trkpt><trkpt lat="43.7152995" lon="10.8200028"><ele>16.0</ele><time>2026-04-19T14:35:33.946Z</time></trkpt><trkpt lat="43.7154567" lon="10.8200873"><ele>17.0</ele><time>2026-04-19T14:35:34.946Z</time></trkpt><trkpt lat="43.7156101" lon="10.8201647"><ele>18.0</ele><time>2026-04-19T14:35:35.947Z</time></trkpt><trkpt lat="43.7157645" lon="10.8202454"><ele>18.333333333333332</ele><time>2026-04-19T14:35:36.946Z</time></trkpt><trkpt lat="43.7159157" lon="10.820323"><ele>18.666666666666664</ele><time>2026-04-19T14:35:37.946Z</time></trkpt><trkpt lat="43.7160677" lon="10.8204082"><ele>19.0</ele><time>2026-04-19T14:35:38.946Z</time></trkpt><trkpt lat="43.716223" lon="10.8204893"><ele>19.333333333333332</ele><time>2026-04-19T14:35:39.946Z</time></trkpt><trkpt lat="43.7163822" lon="10.8205685"><ele>19.666666666666668</ele><time>2026-04-19T14:35:40.946Z</time></trkpt><trkpt lat="43.7165472" lon="10.8206549"><ele>20.0</ele><time>2026-04-19T14:35:41.946Z</time></trkpt><trkpt lat="43.7167092" lon="10.82074"><ele>20.0</ele><time>2026-04-19T14:35:42.946Z</time></trkpt><trkpt lat="43.7168722" lon="10.8208203"><ele>20.0</ele><time>2026-04-19T14:35:43.946Z</time></trkpt><trkpt lat="43.7170372" lon="10.8209079"><ele>20.0</ele><time>2026-04-19T14:35:44.946Z</time></trkpt><trkpt lat="43.7172047" lon="10.8209898"><ele>20.666666666666668</ele><time>2026-04-19T14:35:45.946Z</time></trkpt><trkpt lat="43.7173734" lon="10.8210761"><ele>21.333333333333332</ele><time>2026-04-19T14:35:46.946Z</time></trkpt><trkpt lat="43.717543" lon="10.8211582"><ele>22.0</ele><time>2026-04-19T14:35:47.946Z</time></trkpt><trkpt lat="43.7177123" lon="10.8212471"><ele>21.666666666666664</ele><time>2026-04-19T14:35:48.946Z</time></trkpt><trkpt lat="43.7178766" lon="10.8213325"><ele>21.333333333333332</ele><time>2026-04-19T14:35:49.947Z</time></trkpt><trkpt lat="43.7180393" lon="10.8214221"><ele>21.0</ele><time>2026-04-19T14:35:50.946Z</time></trkpt><trkpt lat="43.7182064" lon="10.8215139"><ele>21.0</ele><time>2026-04-19T14:35:51.947Z</time></trkpt><trkpt lat="43.718374" lon="10.8215996"><ele>21.0</ele><time>2026-04-19T14:35:52.946Z</time></trkpt><trkpt lat="43.7185431" lon="10.8216821"><ele>21.0</ele><time>2026-04-19T14:35:53.947Z</time></trkpt><trkpt lat="43.718713" lon="10.821766"><ele>20.666666666666668</ele><time>2026-04-19T14:35:54.946Z</time></trkpt><trkpt lat="43.7188822" lon="10.8218498"><ele>20.333333333333336</ele><time>2026-04-19T14:35:55.946Z</time></trkpt><trkpt lat="43.7190537" lon="10.8219345"><ele>20.0</ele><time>2026-04-19T14:35:56.946Z</time></trkpt><trkpt lat="43.7192238" lon="10.8220237"><ele>20.0</ele><time>2026-04-19T14:35:57.946Z</time></trkpt><trkpt lat="43.7193953" lon="10.8221144"><ele>20.0</ele><time>2026-04-19T14:35:58.946Z</time></trkpt><trkpt lat="43.7195687" lon="10.8222018"><ele>20.0</ele><time>2026-04-19T14:35:59.946Z</time></trkpt><trkpt lat="43.71974" lon="10.8222864"><ele>20.0</ele><time>2026-04-19T14:36:00.946Z</time></trkpt><trkpt lat="43.7199123" lon="10.8223733"><ele>20.0</ele><time>2026-04-19T14:36:01.946Z</time></trkpt><trkpt lat="43.720083" lon="10.8224613"><ele>20.0</ele><time>2026-04-19T14:36:02.946Z</time></trkpt><trkpt lat="43.7202498" lon="10.8225509"><ele>20.333333333333336</ele><time>2026-04-19T14:36:03.946Z</time></trkpt><trkpt lat="43.7204235" lon="10.8226418"><ele>20.666666666666668</ele><time>2026-04-19T14:36:04.946Z</time></trkpt><trkpt lat="43.7205923" lon="10.8227333"><ele>21.0</ele><time>2026-04-19T14:36:05.946Z</time></trkpt><trkpt lat="43.7207601" lon="10.822824"><ele>21.333333333333332</ele><time>2026-04-19T14:36:06.946Z</time></trkpt><trkpt lat="43.7209327" lon="10.8229138"><ele>21.666666666666664</ele><time>2026-04-19T14:36:07.946Z</time></trkpt><trkpt lat="43.7211023" lon="10.822998"><ele>22.0</ele><time>2026-04-19T14:36:08.946Z</time></trkpt><trkpt lat="43.7212727" lon="10.8230719"><ele>22.0</ele><time>2026-04-19T14:36:09.946Z</time></trkpt><trkpt lat="43.7214393" lon="10.823142"><ele>22.0</ele><time>2026-04-19T14:36:10.946Z</time></trkpt><trkpt lat="43.7216094" lon="10.8231977"><ele>22.0</ele><time>2026-04-19T14:36:11.946Z</time></trkpt><trkpt lat="43.7217739" lon="10.8232386"><ele>22.0</ele><time>2026-04-19T14:36:12.946Z</time></trkpt><trkpt lat="43.7219363" lon="10.8232623"><ele>22.0</ele><time>2026-04-19T14:36:13.946Z</time></trkpt><trkpt lat="43.722098" lon="10.8232765"><ele>22.0</ele><time>2026-04-19T14:36:14.946Z</time></trkpt><trkpt lat="43.722259" lon="10.8232742"><ele>22.0</ele><time>2026-04-19T14:36:15.946Z</time></trkpt><trkpt lat="43.7224162" lon="10.8232607"><ele>22.0</ele><time>2026-04-19T14:36:16.946Z</time></trkpt><trkpt lat="43.7225757" lon="10.8232384"><ele>22.0</ele><time>2026-04-19T14:36:17.947Z</time></trkpt><trkpt lat="43.7227302" lon="10.8232014"><ele>21.75</ele><time>2026-04-19T14:36:18.947Z</time></trkpt><trkpt lat="43.7228744" lon="10.8231574"><ele>21.5</ele><time>2026-04-19T14:36:19.946Z</time></trkpt><trkpt lat="43.7230095" lon="10.8231019"><ele>21.25</ele><time>2026-04-19T14:36:20.946Z</time></trkpt><trkpt lat="43.7231327" lon="10.8230435"><ele>21.0</ele><time>2026-04-19T14:36:21.946Z</time></trkpt><trkpt lat="43.7232503" lon="10.8229784"><ele>21.0</ele><time>2026-04-19T14:36:22.946Z</time></trkpt><trkpt lat="43.7233675" lon="10.8229026"><ele>21.0</ele><time>2026-04-19T14:36:23.946Z</time></trkpt><trkpt lat="43.7234842" lon="10.8228265"><ele>21.0</ele><time>2026-04-19T14:36:24.946Z</time></trkpt><trkpt lat="43.7235929" lon="10.8227494"><ele>21.0</ele><time>2026-04-19T14:36:25.946Z</time></trkpt><trkpt lat="43.7237016" lon="10.8226665"><ele>21.200000000000003</ele><time>2026-04-19T14:36:26.946Z</time></trkpt><trkpt lat="43.7237968" lon="10.8225816"><ele>21.400000000000002</ele><time>2026-04-19T14:36:27.946Z</time></trkpt><trkpt lat="43.7238765" lon="10.8225063"><ele>21.6</ele><time>2026-04-19T14:36:28.946Z</time></trkpt><trkpt lat="43.723946" lon="10.822449"><ele>21.8</ele><time>2026-04-19T14:36:29.946Z</time></trkpt><trkpt lat="43.7240145" lon="10.8224088"><ele>22.0</ele><time>2026-04-19T14:36:30.946Z</time></trkpt><trkpt lat="43.7241334" lon="10.8223873"><ele>22.0</ele><time>2026-04-19T14:36:32.946Z</time></trkpt><trkpt lat="43.7242603" lon="10.8224103"><ele>22.0</ele><time>2026-04-19T14:36:34.946Z</time></trkpt><trkpt lat="43.7243242" lon="10.8224309"><ele>22.0</ele><time>2026-04-19T14:36:35.946Z</time></trkpt><trkpt lat="43.7243966" lon="10.8224443"><ele>22.0</ele><time>2026-04-19T14:36:36.946Z</time></trkpt><trkpt lat="43.7244766" lon="10.8224522"><ele>22.0</ele><time>2026-04-19T14:36:37.946Z</time></trkpt><trkpt lat="43.7245599" lon="10.8224417"><ele>22.0</ele><time>2026-04-19T14:36:38.946Z</time></trkpt><trkpt lat="43.7246417" lon="10.8224167"><ele>21.666666666666664</ele><time>2026-04-19T14:36:39.946Z</time></trkpt><trkpt lat="43.7247156" lon="10.8223744"><ele>21.333333333333332</ele><time>2026-04-19T14:36:40.946Z</time></trkpt><trkpt lat="43.7247846" lon="10.8223117"><ele>21.0</ele><time>2026-04-19T14:36:41.946Z</time></trkpt><trkpt lat="43.7248367" lon="10.8222299"><ele>20.666666666666668</ele><time>2026-04-19T14:36:42.946Z</time></trkpt><trkpt lat="43.7248698" lon="10.8221348"><ele>20.333333333333336</ele><time>2026-04-19T14:36:43.946Z</time></trkpt><trkpt lat="43.7248788" lon="10.8220417"><ele>20.0</ele><time>2026-04-19T14:36:44.947Z</time></trkpt><trkpt lat="43.7248568" lon="10.8219493"><ele>20.0</ele><time>2026-04-19T14:36:45.946Z</time></trkpt><trkpt lat="43.7248141" lon="10.8218633"><ele>20.0</ele><time>2026-04-19T14:36:46.946Z</time></trkpt><trkpt lat="43.72477" lon="10.8217757"><ele>20.0</ele><time>2026-04-19T14:36:47.946Z</time></trkpt><trkpt lat="43.7247344" lon="10.8216713"><ele>20.0</ele><time>2026-04-19T14:36:48.946Z</time></trkpt><trkpt lat="43.7247028" lon="10.8215561"><ele>20.0</ele><time>2026-04-19T14:36:49.946Z</time></trkpt><trkpt lat="43.7246843" lon="10.8214377"><ele>20.0</ele><time>2026-04-19T14:36:50.946Z</time></trkpt><trkpt lat="43.7246852" lon="10.821316"><ele>20.2</ele><time>2026-04-19T14:36:51.946Z</time></trkpt><trkpt lat="43.7246958" lon="10.8211768"><ele>20.4</ele><time>2026-04-19T14:36:52.946Z</time></trkpt><trkpt lat="43.7247139" lon="10.821024"><ele>20.6</ele><time>2026-04-19T14:36:53.946Z</time></trkpt><trkpt lat="43.7247354" lon="10.8208789"><ele>20.8</ele><time>2026-04-19T14:36:54.946Z</time></trkpt><trkpt lat="43.7247596" lon="10.8207219"><ele>21.0</ele><time>2026-04-19T14:36:55.947Z</time></trkpt><trkpt lat="43.7247838" lon="10.8205529"><ele>21.0</ele><time>2026-04-19T14:36:56.947Z</time></trkpt><trkpt lat="43.7248112" lon="10.8203781"><ele>21.0</ele><time>2026-04-19T14:36:57.946Z</time></trkpt><trkpt lat="43.7248415" lon="10.820204"><ele>21.0</ele><time>2026-04-19T14:36:58.946Z</time></trkpt><trkpt lat="43.7248743" lon="10.8200204"><ele>21.0</ele><time>2026-04-19T14:36:59.946Z</time></trkpt><trkpt lat="43.724912" lon="10.8198177"><ele>21.0</ele><time>2026-04-19T14:37:00.946Z</time></trkpt><trkpt lat="43.7249491" lon="10.8196044"><ele>21.0</ele><time>2026-04-19T14:37:01.946Z</time></trkpt><trkpt lat="43.7249846" lon="10.8194098"><ele>21.0</ele><time>2026-04-19T14:37:02.946Z</time></trkpt><trkpt lat="43.7250172" lon="10.8192237"><ele>21.0</ele><time>2026-04-19T14:37:03.946Z</time></trkpt><trkpt lat="43.7250523" lon="10.8190335"><ele>21.25</ele><time>2026-04-19T14:37:04.946Z</time></trkpt><trkpt lat="43.7250872" lon="10.8188276"><ele>21.5</ele><time>2026-04-19T14:37:05.946Z</time></trkpt><trkpt lat="43.7251189" lon="10.8186381"><ele>21.75</ele><time>2026-04-19T14:37:06.946Z</time></trkpt><trkpt lat="43.7251517" lon="10.8184572"><ele>22.0</ele><time>2026-04-19T14:37:07.946Z</time></trkpt><trkpt lat="43.7251823" lon="10.8182735"><ele>22.25</ele><time>2026-04-19T14:37:08.946Z</time></trkpt><trkpt lat="43.7252197" lon="10.8180832"><ele>22.5</ele><time>2026-04-19T14:37:09.946Z</time></trkpt><trkpt lat="43.7252574" lon="10.8178919"><ele>22.75</ele><time>2026-04-19T14:37:10.946Z</time></trkpt><trkpt lat="43.7252903" lon="10.8177011"><ele>23.0</ele><time>2026-04-19T14:37:11.946Z</time></trkpt><trkpt lat="43.725323" lon="10.8175021"><ele>23.333333333333336</ele><time>2026-04-19T14:37:12.946Z</time></trkpt><trkpt lat="43.725362" lon="10.8172999"><ele>23.666666666666668</ele><time>2026-04-19T14:37:13.947Z</time></trkpt><trkpt lat="43.7253963" lon="10.817091"><ele>24.0</ele><time>2026-04-19T14:37:14.946Z</time></trkpt><trkpt lat="43.7254261" lon="10.8168915"><ele>23.5</ele><time>2026-04-19T14:37:15.946Z</time></trkpt><trkpt lat="43.7254613" lon="10.8166885"><ele>23.0</ele><time>2026-04-19T14:37:16.946Z</time></trkpt><trkpt lat="43.725495" lon="10.816497"><ele>22.5</ele><time>2026-04-19T14:37:17.946Z</time></trkpt><trkpt lat="43.7255294" lon="10.8163047"><ele>22.0</ele><time>2026-04-19T14:37:18.946Z</time></trkpt><trkpt lat="43.7255661" lon="10.8161091"><ele>22.0</ele><time>2026-04-19T14:37:19.946Z</time></trkpt><trkpt lat="43.7256027" lon="10.8159177"><ele>22.0</ele><time>2026-04-19T14:37:20.946Z</time></trkpt><trkpt lat="43.725638" lon="10.8157243"><ele>22.0</ele><time>2026-04-19T14:37:21.947Z</time></trkpt><trkpt lat="43.725673" lon="10.815531"><ele>22.0</ele><time>2026-04-19T14:37:22.946Z</time></trkpt><trkpt lat="43.7257063" lon="10.8153305"><ele>22.25</ele><time>2026-04-19T14:37:23.946Z</time></trkpt><trkpt lat="43.7257387" lon="10.8151419"><ele>22.5</ele><time>2026-04-19T14:37:24.946Z</time></trkpt><trkpt lat="43.7257715" lon="10.8149562"><ele>22.75</ele><time>2026-04-19T14:37:25.946Z</time></trkpt><trkpt lat="43.7257989" lon="10.8147718"><ele>23.0</ele><time>2026-04-19T14:37:26.946Z</time></trkpt><trkpt lat="43.7258293" lon="10.8145989"><ele>23.0</ele><time>2026-04-19T14:37:27.946Z</time></trkpt><trkpt lat="43.7258637" lon="10.8144206"><ele>23.0</ele><time>2026-04-19T14:37:28.946Z</time></trkpt><trkpt lat="43.7258923" lon="10.814245"><ele>23.0</ele><time>2026-04-19T14:37:29.946Z</time></trkpt><trkpt lat="43.7259206" lon="10.8140688"><ele>23.0</ele><time>2026-04-19T14:37:30.946Z</time></trkpt><trkpt lat="43.7259529" lon="10.8139018"><ele>23.0</ele><time>2026-04-19T14:37:31.946Z</time></trkpt><trkpt lat="43.7259846" lon="10.8137424"><ele>23.0</ele><time>2026-04-19T14:37:32.946Z</time></trkpt><trkpt lat="43.7260121" lon="10.8135802"><ele>23.0</ele><time>2026-04-19T14:37:33.946Z</time></trkpt><trkpt lat="43.7260379" lon="10.8134235"><ele>23.0</ele><time>2026-04-19T14:37:34.946Z</time></trkpt><trkpt lat="43.72606" lon="10.8132669"><ele>22.75</ele><time>2026-04-19T14:37:35.946Z</time></trkpt><trkpt lat="43.7260859" lon="10.8131072"><ele>22.5</ele><time>2026-04-19T14:37:36.947Z</time></trkpt><trkpt lat="43.7261145" lon="10.8129415"><ele>22.25</ele><time>2026-04-19T14:37:37.946Z</time></trkpt><trkpt lat="43.7261466" lon="10.8127735"><ele>22.0</ele><time>2026-04-19T14:37:38.946Z</time></trkpt><trkpt lat="43.7261757" lon="10.8126"><ele>22.0</ele><time>2026-04-19T14:37:39.946Z</time></trkpt><trkpt lat="43.7262114" lon="10.8124321"><ele>22.0</ele><time>2026-04-19T14:37:40.946Z</time></trkpt><trkpt lat="43.7262401" lon="10.8122664"><ele>22.0</ele><time>2026-04-19T14:37:41.946Z</time></trkpt><trkpt lat="43.7262733" lon="10.8120973"><ele>22.0</ele><time>2026-04-19T14:37:42.946Z</time></trkpt><trkpt lat="43.7263147" lon="10.8119256"><ele>22.75</ele><time>2026-04-19T14:37:43.947Z</time></trkpt><trkpt lat="43.7263493" lon="10.811756"><ele>23.5</ele><time>2026-04-19T14:37:44.947Z</time></trkpt><trkpt lat="43.7263763" lon="10.8115929"><ele>24.25</ele><time>2026-04-19T14:37:45.946Z</time></trkpt><trkpt lat="43.7264052" lon="10.8114307"><ele>25.0</ele><time>2026-04-19T14:37:46.946Z</time></trkpt><trkpt lat="43.7264319" lon="10.8112739"><ele>25.0</ele><time>2026-04-19T14:37:47.946Z</time></trkpt><trkpt lat="43.7264611" lon="10.8111297"><ele>25.0</ele><time>2026-04-19T14:37:48.946Z</time></trkpt><trkpt lat="43.7264873" lon="10.8109808"><ele>25.0</ele><time>2026-04-19T14:37:49.946Z</time></trkpt><trkpt lat="43.7265112" lon="10.8108445"><ele>25.0</ele><time>2026-04-19T14:37:50.946Z</time></trkpt><trkpt lat="43.7265339" lon="10.8107149"><ele>25.0</ele><time>2026-04-19T14:37:51.946Z</time></trkpt><trkpt lat="43.726571" lon="10.8105895"><ele>25.0</ele><time>2026-04-19T14:37:52.946Z</time></trkpt><trkpt lat="43.7266121" lon="10.8104679"><ele>25.0</ele><time>2026-04-19T14:37:53.946Z</time></trkpt><trkpt lat="43.7266424" lon="10.8103587"><ele>25.0</ele><time>2026-04-19T14:37:54.946Z</time></trkpt><trkpt lat="43.7266624" lon="10.8102322"><ele>25.0</ele><time>2026-04-19T14:37:55.946Z</time></trkpt><trkpt lat="43.7266778" lon="10.810098"><ele>25.0</ele><time>2026-04-19T14:37:56.946Z</time></trkpt><trkpt lat="43.7266977" lon="10.8099859"><ele>25.000000000000004</ele><time>2026-04-19T14:37:57.947Z</time></trkpt><trkpt lat="43.7267196" lon="10.8098759"><ele>25.0</ele><time>2026-04-19T14:37:58.946Z</time></trkpt><trkpt lat="43.7267274" lon="10.8097651"><ele>25.0</ele><time>2026-04-19T14:37:59.947Z</time></trkpt><trkpt lat="43.726755" lon="10.809677"><ele>25.0</ele><time>2026-04-19T14:38:00.946Z</time></trkpt><trkpt lat="43.7267664" lon="10.8095574"><ele>25.000000000000004</ele><time>2026-04-19T14:38:02.946Z</time></trkpt><trkpt lat="43.7267592" lon="10.8094333"><ele>25.0</ele><time>2026-04-19T14:38:04.946Z</time></trkpt><trkpt lat="43.7267829" lon="10.8092711"><ele>25.0</ele><time>2026-04-19T14:38:23.946Z</time></trkpt><trkpt lat="43.7268126" lon="10.8091229"><ele>25.0</ele><time>2026-04-19T14:38:25.946Z</time></trkpt><trkpt lat="43.7268505" lon="10.8089589"><ele>25.0</ele><time>2026-04-19T14:38:27.946Z</time></trkpt><trkpt lat="43.7269005" lon="10.8088216"><ele>25.0</ele><time>2026-04-19T14:38:29.946Z</time></trkpt><trkpt lat="43.7269094" lon="10.8087241"><ele>25.0</ele><time>2026-04-19T14:38:30.946Z</time></trkpt><trkpt lat="43.7268774" lon="10.8085635"><ele>25.000000000000004</ele><time>2026-04-19T14:38:32.946Z</time></trkpt><trkpt lat="43.7268174" lon="10.8084944"><ele>25.0</ele><time>2026-04-19T14:38:33.946Z</time></trkpt><trkpt lat="43.7267476" lon="10.8083578"><ele>25.0</ele><time>2026-04-19T14:38:35.946Z</time></trkpt><trkpt lat="43.7267092" lon="10.8082739"><ele>25.0</ele><time>2026-04-19T14:38:36.946Z</time></trkpt><trkpt lat="43.7266619" lon="10.8081946"><ele>25.000000000000004</ele><time>2026-04-19T14:38:37.946Z</time></trkpt><trkpt lat="43.7266132" lon="10.8081103"><ele>25.0</ele><time>2026-04-19T14:38:38.946Z</time></trkpt><trkpt lat="43.7265705" lon="10.808032"><ele>24.833333333333336</ele><time>2026-04-19T14:38:39.946Z</time></trkpt><trkpt lat="43.7265199" lon="10.8079487"><ele>24.666666666666668</ele><time>2026-04-19T14:38:40.946Z</time></trkpt><trkpt lat="43.7264774" lon="10.8078588"><ele>24.5</ele><time>2026-04-19T14:38:41.946Z</time></trkpt><trkpt lat="43.7264138" lon="10.8077905"><ele>24.333333333333336</ele><time>2026-04-19T14:38:42.946Z</time></trkpt><trkpt lat="43.7263644" lon="10.807713"><ele>24.166666666666668</ele><time>2026-04-19T14:38:43.946Z</time></trkpt><trkpt lat="43.726293" lon="10.8075747"><ele>24.0</ele><time>2026-04-19T14:38:45.946Z</time></trkpt><trkpt lat="43.7262334" lon="10.8074507"><ele>23.666666666666668</ele><time>2026-04-19T14:38:47.946Z</time></trkpt><trkpt lat="43.7262292" lon="10.807354"><ele>23.333333333333332</ele><time>2026-04-19T14:38:49.946Z</time></trkpt><trkpt lat="43.726294" lon="10.8072523"><ele>23.0</ele><time>2026-04-19T14:38:51.946Z</time></trkpt><trkpt lat="43.7263535" lon="10.8072238"><ele>22.666666666666664</ele><time>2026-04-19T14:38:52.946Z</time></trkpt><trkpt lat="43.726406" lon="10.8071638"><ele>22.333333333333332</ele><time>2026-04-19T14:38:53.946Z</time></trkpt><trkpt lat="43.7264741" lon="10.807087"><ele>22.0</ele><time>2026-04-19T14:38:55.946Z</time></trkpt><trkpt lat="43.7265409" lon="10.8070287"><ele>22.0</ele><time>2026-04-19T14:38:59.946Z</time></trkpt><trkpt lat="43.7266169" lon="10.8069596"><ele>22.0</ele><time>2026-04-19T14:39:01.946Z</time></trkpt><trkpt lat="43.7267009" lon="10.806885"><ele>22.0</ele><time>2026-04-19T14:39:03.946Z</time></trkpt><trkpt lat="43.7267857" lon="10.8068396"><ele>22.0</ele><time>2026-04-19T14:39:05.946Z</time></trkpt><trkpt lat="43.7268585" lon="10.8068957"><ele>22.0</ele><time>2026-04-19T14:39:07.946Z</time></trkpt><trkpt lat="43.7269411" lon="10.8069306"><ele>22.0</ele><time>2026-04-19T14:39:09.946Z</time></trkpt><trkpt lat="43.7270204" lon="10.8069411"><ele>22.0</ele><time>2026-04-19T14:39:11.946Z</time></trkpt><trkpt lat="43.7271133" lon="10.8069933"><ele>22.0</ele><time>2026-04-19T14:39:13.946Z</time></trkpt><trkpt lat="43.72719" lon="10.8070323"><ele>22.0</ele><time>2026-04-19T14:39:15.947Z</time></trkpt><trkpt lat="43.7272697" lon="10.806999"><ele>22.0</ele><time>2026-04-19T14:39:17.946Z</time></trkpt><trkpt lat="43.7273358" lon="10.806899"><ele>22.0</ele><time>2026-04-19T14:39:19.946Z</time></trkpt><trkpt lat="43.7273878" lon="10.8067443"><ele>22.0</ele><time>2026-04-19T14:39:21.946Z</time></trkpt><trkpt lat="43.7273887" lon="10.8065807"><ele>22.0</ele><time>2026-04-19T14:39:23.946Z</time></trkpt><trkpt lat="43.7273846" lon="10.8064896"><ele>22.0</ele><time>2026-04-19T14:39:24.947Z</time></trkpt><trkpt lat="43.727257" lon="10.8064492"><ele>22.0</ele><time>2026-04-19T14:39:25.927Z</time></trkpt><trkpt lat="43.7273132" lon="10.8063065"><ele>22.0</ele><time>2026-04-19T14:39:26.867Z</time></trkpt><trkpt lat="43.7272757" lon="10.8061932"><ele>22.0</ele><time>2026-04-19T14:39:27.929Z</time></trkpt><trkpt lat="43.7272373" lon="10.8061165"><ele>22.0</ele><time>2026-04-19T14:39:28.928Z</time></trkpt><trkpt lat="43.7272023" lon="10.806037"><ele>22.0</ele><time>2026-04-19T14:39:29.929Z</time></trkpt><trkpt lat="43.727138" lon="10.8059128"><ele>22.0</ele><time>2026-04-19T14:39:31.929Z</time></trkpt><trkpt lat="43.7270897" lon="10.8058282"><ele>22.0</ele><time>2026-04-19T14:39:33.928Z</time></trkpt><trkpt lat="43.7270258" lon="10.8058421"><ele>22.0</ele><time>2026-04-19T14:39:35.928Z</time></trkpt><trkpt lat="43.7269383" lon="10.8059153"><ele>22.0</ele><time>2026-04-19T14:39:37.928Z</time></trkpt><trkpt lat="43.7268747" lon="10.8059722"><ele>22.0</ele><time>2026-04-19T14:39:38.928Z</time></trkpt><trkpt lat="43.7268183" lon="10.8060254"><ele>22.0</ele><time>2026-04-19T14:39:39.928Z</time></trkpt><trkpt lat="43.7267617" lon="10.8060763"><ele>22.0</ele><time>2026-04-19T14:39:40.928Z</time></trkpt><trkpt lat="43.7267032" lon="10.8061371"><ele>22.0</ele><time>2026-04-19T14:39:41.928Z</time></trkpt><trkpt lat="43.7266415" lon="10.8061952"><ele>22.0</ele><time>2026-04-19T14:39:42.928Z</time></trkpt><trkpt lat="43.7265984" lon="10.806278"><ele>22.0</ele><time>2026-04-19T14:39:43.928Z</time></trkpt><trkpt lat="43.7265649" lon="10.8063598"><ele>22.0</ele><time>2026-04-19T14:39:44.928Z</time></trkpt><trkpt lat="43.7265373" lon="10.8064532"><ele>22.0</ele><time>2026-04-19T14:39:45.928Z</time></trkpt><trkpt lat="43.7265192" lon="10.8065404"><ele>22.0</ele><time>2026-04-19T14:39:46.929Z</time></trkpt><trkpt lat="43.7265125" lon="10.8066326"><ele>22.0</ele><time>2026-04-19T14:39:47.929Z</time></trkpt><trkpt lat="43.7265323" lon="10.806802"><ele>22.0</ele><time>2026-04-19T14:39:49.928Z</time></trkpt><trkpt lat="43.7265637" lon="10.8068912"><ele>22.0</ele><time>2026-04-19T14:39:50.929Z</time></trkpt><trkpt lat="43.7266009" lon="10.8069747"><ele>22.0</ele><time>2026-04-19T14:39:51.928Z</time></trkpt><trkpt lat="43.7266388" lon="10.807047"><ele>22.0</ele><time>2026-04-19T14:39:52.928Z</time></trkpt><trkpt lat="43.7266891" lon="10.807117"><ele>22.0</ele><time>2026-04-19T14:39:53.928Z</time></trkpt><trkpt lat="43.7267421" lon="10.8071723"><ele>22.0</ele><time>2026-04-19T14:39:54.928Z</time></trkpt><trkpt lat="43.7268068" lon="10.8072018"><ele>22.0</ele><time>2026-04-19T14:39:55.928Z</time></trkpt><trkpt lat="43.7268745" lon="10.8072175"><ele>22.0</ele><time>2026-04-19T14:39:56.928Z</time></trkpt><trkpt lat="43.7269376" lon="10.807213"><ele>22.0</ele><time>2026-04-19T14:39:57.928Z</time></trkpt><trkpt lat="43.7270152" lon="10.8072037"><ele>22.400000000000002</ele><time>2026-04-19T14:39:58.928Z</time></trkpt><trkpt lat="43.7270967" lon="10.8071959"><ele>22.8</ele><time>2026-04-19T14:39:59.928Z</time></trkpt><trkpt lat="43.7271941" lon="10.8071787"><ele>23.2</ele><time>2026-04-19T14:40:00.929Z</time></trkpt><trkpt lat="43.7272944" lon="10.8071499"><ele>23.6</ele><time>2026-04-19T14:40:01.928Z</time></trkpt><trkpt lat="43.7273781" lon="10.8071148"><ele>24.0</ele><time>2026-04-19T14:40:02.928Z</time></trkpt><trkpt lat="43.727463" lon="10.8070757"><ele>24.0</ele><time>2026-04-19T14:40:03.928Z</time></trkpt><trkpt lat="43.7275429" lon="10.8070205"><ele>24.0</ele><time>2026-04-19T14:40:04.928Z</time></trkpt><trkpt lat="43.7276237" lon="10.8069503"><ele>24.0</ele><time>2026-04-19T14:40:05.928Z</time></trkpt><trkpt lat="43.7277147" lon="10.8068849"><ele>24.0</ele><time>2026-04-19T14:40:06.928Z</time></trkpt><trkpt lat="43.7278065" lon="10.8068295"><ele>24.0</ele><time>2026-04-19T14:40:07.928Z</time></trkpt><trkpt lat="43.7279119" lon="10.8067733"><ele>24.75</ele><time>2026-04-19T14:40:08.928Z</time></trkpt><trkpt lat="43.7280097" lon="10.8067154"><ele>25.5</ele><time>2026-04-19T14:40:09.928Z</time></trkpt><trkpt lat="43.728109" lon="10.8066529"><ele>26.25</ele><time>2026-04-19T14:40:10.928Z</time></trkpt><trkpt lat="43.7282197" lon="10.8065858"><ele>27.0</ele><time>2026-04-19T14:40:11.928Z</time></trkpt><trkpt lat="43.7283315" lon="10.8065162"><ele>27.0</ele><time>2026-04-19T14:40:12.928Z</time></trkpt><trkpt lat="43.7284373" lon="10.8064499"><ele>27.0</ele><time>2026-04-19T14:40:13.928Z</time></trkpt><trkpt lat="43.7285413" lon="10.8063785"><ele>27.0</ele><time>2026-04-19T14:40:14.929Z</time></trkpt><trkpt lat="43.7286417" lon="10.8062954"><ele>27.0</ele><time>2026-04-19T14:40:15.929Z</time></trkpt><trkpt lat="43.7287374" lon="10.806204"><ele>27.5</ele><time>2026-04-19T14:40:16.928Z</time></trkpt><trkpt lat="43.7288367" lon="10.8061"><ele>28.0</ele><time>2026-04-19T14:40:17.928Z</time></trkpt><trkpt lat="43.7289267" lon="10.8059901"><ele>28.5</ele><time>2026-04-19T14:40:18.928Z</time></trkpt><trkpt lat="43.7290115" lon="10.8058856"><ele>29.0</ele><time>2026-04-19T14:40:19.928Z</time></trkpt><trkpt lat="43.7290937" lon="10.8057782"><ele>28.75</ele><time>2026-04-19T14:40:20.928Z</time></trkpt><trkpt lat="43.7291772" lon="10.8056588"><ele>28.5</ele><time>2026-04-19T14:40:21.928Z</time></trkpt><trkpt lat="43.7292712" lon="10.8055551"><ele>28.25</ele><time>2026-04-19T14:40:22.928Z</time></trkpt><trkpt lat="43.7293557" lon="10.8054434"><ele>28.0</ele><time>2026-04-19T14:40:23.928Z</time></trkpt><trkpt lat="43.7294383" lon="10.8053374"><ele>28.0</ele><time>2026-04-19T14:40:24.928Z</time></trkpt><trkpt lat="43.7295166" lon="10.8052273"><ele>28.0</ele><time>2026-04-19T14:40:25.928Z</time></trkpt><trkpt lat="43.7295988" lon="10.8051185"><ele>28.0</ele><time>2026-04-19T14:40:26.928Z</time></trkpt><trkpt lat="43.7296953" lon="10.8050068"><ele>28.0</ele><time>2026-04-19T14:40:27.928Z</time></trkpt><trkpt lat="43.729779" lon="10.8048956"><ele>26.75</ele><time>2026-04-19T14:40:28.928Z</time></trkpt><trkpt lat="43.7298623" lon="10.8047833"><ele>25.5</ele><time>2026-04-19T14:40:29.928Z</time></trkpt><trkpt lat="43.7299492" lon="10.8046758"><ele>24.25</ele><time>2026-04-19T14:40:30.928Z</time></trkpt><trkpt lat="43.7300346" lon="10.804569"><ele>23.0</ele><time>2026-04-19T14:40:31.928Z</time></trkpt><trkpt lat="43.7301192" lon="10.8044557"><ele>23.0</ele><time>2026-04-19T14:40:32.928Z</time></trkpt><trkpt lat="43.7302073" lon="10.8043446"><ele>23.0</ele><time>2026-04-19T14:40:33.928Z</time></trkpt><trkpt lat="43.7302892" lon="10.8042373"><ele>23.0</ele><time>2026-04-19T14:40:34.928Z</time></trkpt><trkpt lat="43.7303736" lon="10.8041306"><ele>23.0</ele><time>2026-04-19T14:40:35.928Z</time></trkpt><trkpt lat="43.7304546" lon="10.8040275"><ele>23.4</ele><time>2026-04-19T14:40:36.928Z</time></trkpt><trkpt lat="43.7305392" lon="10.8039245"><ele>23.799999999999997</ele><time>2026-04-19T14:40:37.928Z</time></trkpt><trkpt lat="43.7306231" lon="10.8038192"><ele>24.2</ele><time>2026-04-19T14:40:38.928Z</time></trkpt><trkpt lat="43.7307003" lon="10.8037143"><ele>24.6</ele><time>2026-04-19T14:40:39.928Z</time></trkpt><trkpt lat="43.7307809" lon="10.8036072"><ele>25.0</ele><time>2026-04-19T14:40:40.928Z</time></trkpt><trkpt lat="43.7308655" lon="10.8034963"><ele>24.8</ele><time>2026-04-19T14:40:41.928Z</time></trkpt><trkpt lat="43.7309447" lon="10.8033873"><ele>24.6</ele><time>2026-04-19T14:40:42.929Z</time></trkpt><trkpt lat="43.7310281" lon="10.8032878"><ele>24.4</ele><time>2026-04-19T14:40:43.928Z</time></trkpt><trkpt lat="43.7311093" lon="10.8031808"><ele>24.2</ele><time>2026-04-19T14:40:44.928Z</time></trkpt><trkpt lat="43.731193" lon="10.8030818"><ele>24.0</ele><time>2026-04-19T14:40:45.928Z</time></trkpt><trkpt lat="43.7312785" lon="10.8029788"><ele>24.0</ele><time>2026-04-19T14:40:46.928Z</time></trkpt><trkpt lat="43.7313616" lon="10.8028787"><ele>24.0</ele><time>2026-04-19T14:40:47.928Z</time></trkpt><trkpt lat="43.7314446" lon="10.8027797"><ele>24.0</ele><time>2026-04-19T14:40:48.928Z</time></trkpt><trkpt lat="43.7315256" lon="10.802684"><ele>24.0</ele><time>2026-04-19T14:40:49.928Z</time></trkpt><trkpt lat="43.7316101" lon="10.8025906"><ele>24.0</ele><time>2026-04-19T14:40:50.928Z</time></trkpt><trkpt lat="43.731697" lon="10.8025026"><ele>24.0</ele><time>2026-04-19T14:40:51.928Z</time></trkpt><trkpt lat="43.7317928" lon="10.8024217"><ele>24.0</ele><time>2026-04-19T14:40:52.928Z</time></trkpt><trkpt lat="43.7318713" lon="10.802347"><ele>24.0</ele><time>2026-04-19T14:40:53.928Z</time></trkpt><trkpt lat="43.7319598" lon="10.8022839"><ele>24.0</ele><time>2026-04-19T14:40:54.928Z</time></trkpt><trkpt lat="43.7320489" lon="10.8022401"><ele>24.0</ele><time>2026-04-19T14:40:55.928Z</time></trkpt><trkpt lat="43.7321365" lon="10.8022065"><ele>24.0</ele><time>2026-04-19T14:40:56.928Z</time></trkpt><trkpt lat="43.7322293" lon="10.8021743"><ele>24.0</ele><time>2026-04-19T14:40:57.928Z</time></trkpt><trkpt lat="43.732317" lon="10.8021425"><ele>24.0</ele><time>2026-04-19T14:40:58.928Z</time></trkpt><trkpt lat="43.7323973" lon="10.8021148"><ele>24.0</ele><time>2026-04-19T14:40:59.929Z</time></trkpt><trkpt lat="43.732467" lon="10.8020945"><ele>24.0</ele><time>2026-04-19T14:41:00.928Z</time></trkpt><trkpt lat="43.7325395" lon="10.8020801"><ele>24.0</ele><time>2026-04-19T14:41:01.928Z</time></trkpt><trkpt lat="43.7326098" lon="10.8020864"><ele>24.0</ele><time>2026-04-19T14:41:02.928Z</time></trkpt><trkpt lat="43.7327011" lon="10.80213"><ele>24.0</ele><time>2026-04-19T14:41:05.928Z</time></trkpt><trkpt lat="43.7327963" lon="10.8021319"><ele>24.0</ele><time>2026-04-19T14:41:07.929Z</time></trkpt><trkpt lat="43.7328487" lon="10.8020404"><ele>24.0</ele><time>2026-04-19T14:41:09.928Z</time></trkpt><trkpt lat="43.7328684" lon="10.8019053"><ele>24.0</ele><time>2026-04-19T14:41:11.929Z</time></trkpt><trkpt lat="43.7328966" lon="10.801815"><ele>24.0</ele><time>2026-04-19T14:41:12.928Z</time></trkpt><trkpt lat="43.7329296" lon="10.8017346"><ele>23.5</ele><time>2026-04-19T14:41:13.928Z</time></trkpt><trkpt lat="43.732966" lon="10.8016502"><ele>23.0</ele><time>2026-04-19T14:41:14.928Z</time></trkpt><trkpt lat="43.7330018" lon="10.801563"><ele>22.5</ele><time>2026-04-19T14:41:15.928Z</time></trkpt><trkpt lat="43.7330396" lon="10.8014693"><ele>22.0</ele><time>2026-04-19T14:41:16.929Z</time></trkpt><trkpt lat="43.7330776" lon="10.8013702"><ele>21.5</ele><time>2026-04-19T14:41:17.928Z</time></trkpt><trkpt lat="43.7331173" lon="10.801268"><ele>21.0</ele><time>2026-04-19T14:41:18.929Z</time></trkpt><trkpt lat="43.7331643" lon="10.8011492"><ele>21.0</ele><time>2026-04-19T14:41:19.928Z</time></trkpt><trkpt lat="43.7332153" lon="10.8010139"><ele>21.0</ele><time>2026-04-19T14:41:20.928Z</time></trkpt><trkpt lat="43.7332644" lon="10.8008869"><ele>21.0</ele><time>2026-04-19T14:41:21.928Z</time></trkpt><trkpt lat="43.7333118" lon="10.8007572"><ele>21.0</ele><time>2026-04-19T14:41:22.928Z</time></trkpt><trkpt lat="43.7333589" lon="10.8006208"><ele>21.0</ele><time>2026-04-19T14:41:23.928Z</time></trkpt><trkpt lat="43.7334095" lon="10.8004831"><ele>20.5</ele><time>2026-04-19T14:41:24.928Z</time></trkpt><trkpt lat="43.7334635" lon="10.8003428"><ele>20.0</ele><time>2026-04-19T14:41:25.928Z</time></trkpt><trkpt lat="43.7335157" lon="10.8002088"><ele>19.5</ele><time>2026-04-19T14:41:26.928Z</time></trkpt><trkpt lat="43.7335683" lon="10.8000683"><ele>19.0</ele><time>2026-04-19T14:41:27.928Z</time></trkpt><trkpt lat="43.7336229" lon="10.7999212"><ele>19.0</ele><time>2026-04-19T14:41:28.928Z</time></trkpt><trkpt lat="43.7336781" lon="10.7997741"><ele>19.0</ele><time>2026-04-19T14:41:29.928Z</time></trkpt><trkpt lat="43.7337304" lon="10.7996209"><ele>19.0</ele><time>2026-04-19T14:41:30.928Z</time></trkpt><trkpt lat="43.7337857" lon="10.7994643"><ele>19.0</ele><time>2026-04-19T14:41:31.928Z</time></trkpt><trkpt lat="43.7338401" lon="10.7993026"><ele>18.75</ele><time>2026-04-19T14:41:32.928Z</time></trkpt><trkpt lat="43.7338973" lon="10.7991496"><ele>18.5</ele><time>2026-04-19T14:41:33.928Z</time></trkpt><trkpt lat="43.7339517" lon="10.7989985"><ele>18.25</ele><time>2026-04-19T14:41:34.928Z</time></trkpt><trkpt lat="43.7340038" lon="10.798846"><ele>18.0</ele><time>2026-04-19T14:41:35.928Z</time></trkpt><trkpt lat="43.7340557" lon="10.7986977"><ele>18.0</ele><time>2026-04-19T14:41:36.928Z</time></trkpt><trkpt lat="43.7341183" lon="10.7985505"><ele>18.0</ele><time>2026-04-19T14:41:37.928Z</time></trkpt><trkpt lat="43.7341743" lon="10.7984059"><ele>18.0</ele><time>2026-04-19T14:41:38.928Z</time></trkpt><trkpt lat="43.7342246" lon="10.7982598"><ele>18.0</ele><time>2026-04-19T14:41:39.928Z</time></trkpt><trkpt lat="43.7342645" lon="10.7981434"><ele>17.8</ele><time>2026-04-19T14:41:40.928Z</time></trkpt><trkpt lat="43.7342975" lon="10.7980503"><ele>17.6</ele><time>2026-04-19T14:41:41.928Z</time></trkpt><trkpt lat="43.7343533" lon="10.7979044"><ele>17.4</ele><time>2026-04-19T14:41:43.928Z</time></trkpt><trkpt lat="43.7344046" lon="10.7977514"><ele>17.2</ele><time>2026-04-19T14:41:45.928Z</time></trkpt><trkpt lat="43.7344318" lon="10.7976564"><ele>17.0</ele><time>2026-04-19T14:41:46.928Z</time></trkpt><trkpt lat="43.7344632" lon="10.797565"><ele>16.833333333333336</ele><time>2026-04-19T14:41:47.928Z</time></trkpt><trkpt lat="43.7344964" lon="10.7974748"><ele>16.666666666666668</ele><time>2026-04-19T14:41:48.928Z</time></trkpt><trkpt lat="43.7345301" lon="10.7973848"><ele>16.5</ele><time>2026-04-19T14:41:49.928Z</time></trkpt><trkpt lat="43.7345636" lon="10.7972853"><ele>16.333333333333332</ele><time>2026-04-19T14:41:50.928Z</time></trkpt><trkpt lat="43.7345988" lon="10.7971848"><ele>16.166666666666664</ele><time>2026-04-19T14:41:51.928Z</time></trkpt><trkpt lat="43.734636" lon="10.7970778"><ele>16.0</ele><time>2026-04-19T14:41:52.928Z</time></trkpt><trkpt lat="43.7346701" lon="10.7969741"><ele>16.0</ele><time>2026-04-19T14:41:53.928Z</time></trkpt><trkpt lat="43.7347025" lon="10.7968756"><ele>15.999999999999998</ele><time>2026-04-19T14:41:54.928Z</time></trkpt><trkpt lat="43.7347355" lon="10.7967792"><ele>16.0</ele><time>2026-04-19T14:41:55.928Z</time></trkpt><trkpt lat="43.7347672" lon="10.7966849"><ele>16.0</ele><time>2026-04-19T14:41:56.928Z</time></trkpt><trkpt lat="43.7347956" lon="10.7965983"><ele>15.999999999999998</ele><time>2026-04-19T14:41:57.928Z</time></trkpt><trkpt lat="43.7348208" lon="10.7965135"><ele>16.0</ele><time>2026-04-19T14:41:58.928Z</time></trkpt><trkpt lat="43.7348666" lon="10.7964346"><ele>16.0</ele><time>2026-04-19T14:42:00.928Z</time></trkpt><trkpt lat="43.7349445" lon="10.7963552"><ele>16.166666666666664</ele><time>2026-04-19T14:42:04.928Z</time></trkpt><trkpt lat="43.7349975" lon="10.7962448"><ele>16.333333333333332</ele><time>2026-04-19T14:42:06.928Z</time></trkpt><trkpt lat="43.7349776" lon="10.7961131"><ele>16.5</ele><time>2026-04-19T14:42:08.929Z</time></trkpt><trkpt lat="43.7349333" lon="10.796046"><ele>16.666666666666668</ele><time>2026-04-19T14:42:09.928Z</time></trkpt><trkpt lat="43.7348723" lon="10.7959677"><ele>16.833333333333336</ele><time>2026-04-19T14:42:10.928Z</time></trkpt><trkpt lat="43.734811" lon="10.7958712"><ele>17.0</ele><time>2026-04-19T14:42:11.928Z</time></trkpt><trkpt lat="43.7347375" lon="10.7957297"><ele>17.0</ele><time>2026-04-19T14:42:12.928Z</time></trkpt><trkpt lat="43.7346658" lon="10.7955896"><ele>17.0</ele><time>2026-04-19T14:42:13.928Z</time></trkpt><trkpt lat="43.7345906" lon="10.7954397"><ele>17.0</ele><time>2026-04-19T14:42:14.928Z</time></trkpt><trkpt lat="43.7344982" lon="10.7952762"><ele>17.0</ele><time>2026-04-19T14:42:15.928Z</time></trkpt><trkpt lat="43.7344045" lon="10.7951231"><ele>17.0</ele><time>2026-04-19T14:42:16.928Z</time></trkpt><trkpt lat="43.7342995" lon="10.7949802"><ele>17.0</ele><time>2026-04-19T14:42:17.928Z</time></trkpt><trkpt lat="43.7341872" lon="10.7948513"><ele>17.0</ele><time>2026-04-19T14:42:18.928Z</time></trkpt><trkpt lat="43.7340722" lon="10.7947382"><ele>17.0</ele><time>2026-04-19T14:42:19.928Z</time></trkpt><trkpt lat="43.7339562" lon="10.7946262"><ele>17.0</ele><time>2026-04-19T14:42:20.928Z</time></trkpt><trkpt lat="43.7338517" lon="10.7945287"><ele>17.0</ele><time>2026-04-19T14:42:21.928Z</time></trkpt><trkpt lat="43.7337471" lon="10.7944434"><ele>17.0</ele><time>2026-04-19T14:42:22.928Z</time></trkpt><trkpt lat="43.7336593" lon="10.7943658"><ele>17.0</ele><time>2026-04-19T14:42:23.928Z</time></trkpt><trkpt lat="43.7335966" lon="10.7942953"><ele>17.0</ele><time>2026-04-19T14:42:24.928Z</time></trkpt><trkpt lat="43.7335264" lon="10.7941917"><ele>17.0</ele><time>2026-04-19T14:42:26.928Z</time></trkpt><trkpt lat="43.7334669" lon="10.794237"><ele>17.0</ele><time>2026-04-19T14:42:29.928Z</time></trkpt><trkpt lat="43.7335381" lon="10.794326"><ele>17.0</ele><time>2026-04-19T14:42:31.928Z</time></trkpt><trkpt lat="43.7336192" lon="10.7943856"><ele>17.0</ele><time>2026-04-19T14:42:32.928Z</time></trkpt><trkpt lat="43.7337059" lon="10.7944582"><ele>17.0</ele><time>2026-04-19T14:42:33.928Z</time></trkpt><trkpt lat="43.7338111" lon="10.7945459"><ele>17.0</ele><time>2026-04-19T14:42:34.928Z</time></trkpt><trkpt lat="43.7339206" lon="10.7946371"><ele>17.0</ele><time>2026-04-19T14:42:35.928Z</time></trkpt><trkpt lat="43.7340345" lon="10.794742"><ele>17.0</ele><time>2026-04-19T14:42:36.928Z</time></trkpt><trkpt lat="43.7341362" lon="10.794842"><ele>17.0</ele><time>2026-04-19T14:42:37.928Z</time></trkpt><trkpt lat="43.7342328" lon="10.7949457"><ele>17.0</ele><time>2026-04-19T14:42:38.928Z</time></trkpt><trkpt lat="43.7343226" lon="10.7950566"><ele>17.0</ele><time>2026-04-19T14:42:39.928Z</time></trkpt><trkpt lat="43.7344145" lon="10.7951876"><ele>17.0</ele><time>2026-04-19T14:42:40.929Z</time></trkpt><trkpt lat="43.7344911" lon="10.7953251"><ele>17.0</ele><time>2026-04-19T14:42:41.928Z</time></trkpt><trkpt lat="43.734561" lon="10.795458"><ele>17.0</ele><time>2026-04-19T14:42:42.928Z</time></trkpt><trkpt lat="43.7346247" lon="10.7955829"><ele>17.0</ele><time>2026-04-19T14:42:43.928Z</time></trkpt><trkpt lat="43.7346822" lon="10.7956914"><ele>17.0</ele><time>2026-04-19T14:42:44.929Z</time></trkpt><trkpt lat="43.7347328" lon="10.795791"><ele>17.0</ele><time>2026-04-19T14:42:45.928Z</time></trkpt><trkpt lat="43.7347768" lon="10.7958896"><ele>17.0</ele><time>2026-04-19T14:42:46.928Z</time></trkpt><trkpt lat="43.7348085" lon="10.7959981"><ele>17.4</ele><time>2026-04-19T14:42:47.928Z</time></trkpt><trkpt lat="43.7348303" lon="10.7961045"><ele>17.799999999999997</ele><time>2026-04-19T14:42:48.929Z</time></trkpt><trkpt lat="43.7348672" lon="10.7962067"><ele>18.2</ele><time>2026-04-19T14:42:49.929Z</time></trkpt><trkpt lat="43.7349225" lon="10.7963003"><ele>18.599999999999998</ele><time>2026-04-19T14:42:50.928Z</time></trkpt><trkpt lat="43.734991" lon="10.7963992"><ele>19.0</ele><time>2026-04-19T14:42:51.928Z</time></trkpt><trkpt lat="43.7350595" lon="10.7965176"><ele>19.0</ele><time>2026-04-19T14:42:52.928Z</time></trkpt><trkpt lat="43.7351332" lon="10.7966407"><ele>19.0</ele><time>2026-04-19T14:42:53.928Z</time></trkpt><trkpt lat="43.7352161" lon="10.7967744"><ele>19.0</ele><time>2026-04-19T14:42:54.928Z</time></trkpt><trkpt lat="43.7352875" lon="10.7968982"><ele>19.0</ele><time>2026-04-19T14:42:55.929Z</time></trkpt><trkpt lat="43.7353585" lon="10.797021"><ele>18.25</ele><time>2026-04-19T14:42:56.928Z</time></trkpt><trkpt lat="43.7354316" lon="10.7971403"><ele>17.5</ele><time>2026-04-19T14:42:57.928Z</time></trkpt><trkpt lat="43.7355021" lon="10.7972532"><ele>16.75</ele><time>2026-04-19T14:42:58.928Z</time></trkpt><trkpt lat="43.735575" lon="10.7973661"><ele>16.0</ele><time>2026-04-19T14:42:59.928Z</time></trkpt><trkpt lat="43.7356618" lon="10.7975003"><ele>16.0</ele><time>2026-04-19T14:43:00.928Z</time></trkpt><trkpt lat="43.7357574" lon="10.7976569"><ele>16.0</ele><time>2026-04-19T14:43:01.928Z</time></trkpt><trkpt lat="43.7358595" lon="10.7978165"><ele>16.0</ele><time>2026-04-19T14:43:02.928Z</time></trkpt><trkpt lat="43.7359738" lon="10.7979951"><ele>15.666666666666666</ele><time>2026-04-19T14:43:03.928Z</time></trkpt><trkpt lat="43.7360801" lon="10.7981677"><ele>15.333333333333332</ele><time>2026-04-19T14:43:04.929Z</time></trkpt><trkpt lat="43.736181" lon="10.7983284"><ele>15.0</ele><time>2026-04-19T14:43:05.928Z</time></trkpt><trkpt lat="43.7362831" lon="10.7984827"><ele>15.0</ele><time>2026-04-19T14:43:06.928Z</time></trkpt><trkpt lat="43.7363785" lon="10.7986305"><ele>15.0</ele><time>2026-04-19T14:43:07.928Z</time></trkpt><trkpt lat="43.7364647" lon="10.7987691"><ele>15.0</ele><time>2026-04-19T14:43:08.928Z</time></trkpt><trkpt lat="43.7365476" lon="10.7989034"><ele>15.0</ele><time>2026-04-19T14:43:09.928Z</time></trkpt><trkpt lat="43.7366271" lon="10.7990404"><ele>15.0</ele><time>2026-04-19T14:43:10.928Z</time></trkpt><trkpt lat="43.7366939" lon="10.7991671"><ele>15.0</ele><time>2026-04-19T14:43:11.928Z</time></trkpt><trkpt lat="43.7367491" lon="10.7992793"><ele>15.0</ele><time>2026-04-19T14:43:12.929Z</time></trkpt><trkpt lat="43.7368054" lon="10.7993679"><ele>15.0</ele><time>2026-04-19T14:43:13.928Z</time></trkpt><trkpt lat="43.7368625" lon="10.7994315"><ele>15.0</ele><time>2026-04-19T14:43:14.928Z</time></trkpt><trkpt lat="43.7369723" lon="10.7994705"><ele>15.4</ele><time>2026-04-19T14:43:16.928Z</time></trkpt><trkpt lat="43.7370736" lon="10.7994129"><ele>15.8</ele><time>2026-04-19T14:43:18.928Z</time></trkpt><trkpt lat="43.7371287" lon="10.7993414"><ele>16.2</ele><time>2026-04-19T14:43:19.928Z</time></trkpt><trkpt lat="43.7371722" lon="10.7992381"><ele>16.6</ele><time>2026-04-19T14:43:20.928Z</time></trkpt><trkpt lat="43.7372093" lon="10.7990992"><ele>17.0</ele><time>2026-04-19T14:43:21.928Z</time></trkpt><trkpt lat="43.737243" lon="10.7989369"><ele>17.0</ele><time>2026-04-19T14:43:22.928Z</time></trkpt><trkpt lat="43.7372808" lon="10.7987606"><ele>17.0</ele><time>2026-04-19T14:43:23.928Z</time></trkpt><trkpt lat="43.7373407" lon="10.798551"><ele>17.0</ele><time>2026-04-19T14:43:24.928Z</time></trkpt><trkpt lat="43.7374041" lon="10.7983453"><ele>16.666666666666668</ele><time>2026-04-19T14:43:25.928Z</time></trkpt><trkpt lat="43.7374819" lon="10.7981354"><ele>16.333333333333332</ele><time>2026-04-19T14:43:26.928Z</time></trkpt><trkpt lat="43.7375765" lon="10.7979204"><ele>16.0</ele><time>2026-04-19T14:43:27.928Z</time></trkpt><trkpt lat="43.7376808" lon="10.7977034"><ele>15.0</ele><time>2026-04-19T14:43:28.928Z</time></trkpt><trkpt lat="43.7377889" lon="10.7975044"><ele>14.0</ele><time>2026-04-19T14:43:29.928Z</time></trkpt><trkpt lat="43.7379072" lon="10.7973083"><ele>13.0</ele><time>2026-04-19T14:43:30.928Z</time></trkpt><trkpt lat="43.7380303" lon="10.7971052"><ele>13.0</ele><time>2026-04-19T14:43:31.929Z</time></trkpt><trkpt lat="43.7381502" lon="10.7969023"><ele>13.0</ele><time>2026-04-19T14:43:32.928Z</time></trkpt><trkpt lat="43.738267" lon="10.7966997"><ele>13.0</ele><time>2026-04-19T14:43:33.929Z</time></trkpt><trkpt lat="43.7383914" lon="10.7964982"><ele>13.666666666666666</ele><time>2026-04-19T14:43:34.928Z</time></trkpt><trkpt lat="43.7385242" lon="10.7962834"><ele>14.333333333333332</ele><time>2026-04-19T14:43:35.928Z</time></trkpt><trkpt lat="43.7386574" lon="10.7960633"><ele>15.0</ele><time>2026-04-19T14:43:36.928Z</time></trkpt><trkpt lat="43.7387846" lon="10.7958522"><ele>15.0</ele><time>2026-04-19T14:43:37.928Z</time></trkpt><trkpt lat="43.7389175" lon="10.7956347"><ele>15.0</ele><time>2026-04-19T14:43:38.928Z</time></trkpt><trkpt lat="43.739048" lon="10.7954125"><ele>15.0</ele><time>2026-04-19T14:43:39.928Z</time></trkpt><trkpt lat="43.7391815" lon="10.7951933"><ele>15.0</ele><time>2026-04-19T14:43:40.928Z</time></trkpt><trkpt lat="43.7393138" lon="10.794976"><ele>15.0</ele><time>2026-04-19T14:43:41.929Z</time></trkpt><trkpt lat="43.7394451" lon="10.7947658"><ele>15.0</ele><time>2026-04-19T14:43:42.928Z</time></trkpt><trkpt lat="43.7395779" lon="10.7945587"><ele>15.0</ele><time>2026-04-19T14:43:43.928Z</time></trkpt><trkpt lat="43.7397068" lon="10.7943412"><ele>15.0</ele><time>2026-04-19T14:43:44.929Z</time></trkpt><trkpt lat="43.7398339" lon="10.7941277"><ele>15.0</ele><time>2026-04-19T14:43:45.928Z</time></trkpt><trkpt lat="43.7399623" lon="10.7939151"><ele>14.333333333333332</ele><time>2026-04-19T14:43:46.929Z</time></trkpt><trkpt lat="43.7400864" lon="10.7937005"><ele>13.666666666666666</ele><time>2026-04-19T14:43:47.928Z</time></trkpt><trkpt lat="43.7402134" lon="10.7934866"><ele>13.0</ele><time>2026-04-19T14:43:48.928Z</time></trkpt><trkpt lat="43.7403369" lon="10.7932745"><ele>13.0</ele><time>2026-04-19T14:43:49.928Z</time></trkpt><trkpt lat="43.7404614" lon="10.7930683"><ele>13.0</ele><time>2026-04-19T14:43:50.928Z</time></trkpt><trkpt lat="43.7405881" lon="10.7928602"><ele>13.0</ele><time>2026-04-19T14:43:51.928Z</time></trkpt><trkpt lat="43.7407126" lon="10.7926512"><ele>13.0</ele><time>2026-04-19T14:43:52.929Z</time></trkpt><trkpt lat="43.7408367" lon="10.7924456"><ele>13.0</ele><time>2026-04-19T14:43:53.928Z</time></trkpt><trkpt lat="43.7409604" lon="10.7922388"><ele>13.0</ele><time>2026-04-19T14:43:54.929Z</time></trkpt><trkpt lat="43.74109" lon="10.7920392"><ele>12.666666666666666</ele><time>2026-04-19T14:43:55.928Z</time></trkpt><trkpt lat="43.7412116" lon="10.791831"><ele>12.333333333333332</ele><time>2026-04-19T14:43:56.928Z</time></trkpt><trkpt lat="43.7413366" lon="10.7916278"><ele>12.0</ele><time>2026-04-19T14:43:57.928Z</time></trkpt><trkpt lat="43.7414615" lon="10.7914239"><ele>12.0</ele><time>2026-04-19T14:43:58.928Z</time></trkpt><trkpt lat="43.7415899" lon="10.7912236"><ele>12.0</ele><time>2026-04-19T14:43:59.929Z</time></trkpt><trkpt lat="43.7417127" lon="10.7910196"><ele>12.0</ele><time>2026-04-19T14:44:00.928Z</time></trkpt><trkpt lat="43.7418308" lon="10.7908206"><ele>12.333333333333332</ele><time>2026-04-19T14:44:01.929Z</time></trkpt><trkpt lat="43.7419431" lon="10.7906241"><ele>12.666666666666666</ele><time>2026-04-19T14:44:02.928Z</time></trkpt><trkpt lat="43.7420492" lon="10.7904295"><ele>13.0</ele><time>2026-04-19T14:44:03.928Z</time></trkpt><trkpt lat="43.7421504" lon="10.790229"><ele>13.333333333333332</ele><time>2026-04-19T14:44:04.928Z</time></trkpt><trkpt lat="43.7422456" lon="10.7900163"><ele>13.666666666666668</ele><time>2026-04-19T14:44:05.928Z</time></trkpt><trkpt lat="43.7423331" lon="10.789796"><ele>14.0</ele><time>2026-04-19T14:44:06.928Z</time></trkpt><trkpt lat="43.7424109" lon="10.7895769"><ele>14.0</ele><time>2026-04-19T14:44:07.928Z</time></trkpt><trkpt lat="43.7424795" lon="10.7893566"><ele>14.0</ele><time>2026-04-19T14:44:08.928Z</time></trkpt><trkpt lat="43.7425416" lon="10.7891353"><ele>14.0</ele><time>2026-04-19T14:44:09.928Z</time></trkpt><trkpt lat="43.7425983" lon="10.7889093"><ele>14.0</ele><time>2026-04-19T14:44:10.928Z</time></trkpt><trkpt lat="43.7426502" lon="10.7886873"><ele>14.0</ele><time>2026-04-19T14:44:11.928Z</time></trkpt><trkpt lat="43.7426951" lon="10.7884632"><ele>14.0</ele><time>2026-04-19T14:44:12.928Z</time></trkpt><trkpt lat="43.7427332" lon="10.7882343"><ele>13.666666666666668</ele><time>2026-04-19T14:44:13.928Z</time></trkpt><trkpt lat="43.7427618" lon="10.7880106"><ele>13.333333333333332</ele><time>2026-04-19T14:44:14.928Z</time></trkpt><trkpt lat="43.7427839" lon="10.787782"><ele>13.0</ele><time>2026-04-19T14:44:15.928Z</time></trkpt><trkpt lat="43.7427962" lon="10.7875547"><ele>12.666666666666666</ele><time>2026-04-19T14:44:16.928Z</time></trkpt><trkpt lat="43.7428014" lon="10.7873323"><ele>12.333333333333332</ele><time>2026-04-19T14:44:17.928Z</time></trkpt><trkpt lat="43.742802" lon="10.787116"><ele>12.0</ele><time>2026-04-19T14:44:18.928Z</time></trkpt><trkpt lat="43.7428012" lon="10.7869026"><ele>12.0</ele><time>2026-04-19T14:44:19.928Z</time></trkpt><trkpt lat="43.742791" lon="10.7866987"><ele>12.0</ele><time>2026-04-19T14:44:20.928Z</time></trkpt><trkpt lat="43.7427791" lon="10.7865023"><ele>12.0</ele><time>2026-04-19T14:44:21.928Z</time></trkpt><trkpt lat="43.7427592" lon="10.7863101"><ele>12.0</ele><time>2026-04-19T14:44:22.928Z</time></trkpt><trkpt lat="43.7427327" lon="10.786124"><ele>12.0</ele><time>2026-04-19T14:44:23.929Z</time></trkpt><trkpt lat="43.7427065" lon="10.785936"><ele>12.0</ele><time>2026-04-19T14:44:24.928Z</time></trkpt><trkpt lat="43.7426763" lon="10.7857503"><ele>12.0</ele><time>2026-04-19T14:44:25.928Z</time></trkpt><trkpt lat="43.7426387" lon="10.7855614"><ele>12.0</ele><time>2026-04-19T14:44:26.928Z</time></trkpt><trkpt lat="43.7425979" lon="10.785382"><ele>12.0</ele><time>2026-04-19T14:44:27.928Z</time></trkpt><trkpt lat="43.7425527" lon="10.7852066"><ele>12.0</ele><time>2026-04-19T14:44:28.928Z</time></trkpt><trkpt lat="43.7425053" lon="10.785039"><ele>12.0</ele><time>2026-04-19T14:44:29.928Z</time></trkpt><trkpt lat="43.7424533" lon="10.7848834"><ele>12.0</ele><time>2026-04-19T14:44:30.928Z</time></trkpt><trkpt lat="43.7424072" lon="10.7847337"><ele>12.2</ele><time>2026-04-19T14:44:31.928Z</time></trkpt><trkpt lat="43.7423573" lon="10.7845945"><ele>12.399999999999999</ele><time>2026-04-19T14:44:32.928Z</time></trkpt><trkpt lat="43.742302" lon="10.7844579"><ele>12.600000000000001</ele><time>2026-04-19T14:44:33.928Z</time></trkpt><trkpt lat="43.7422504" lon="10.7843328"><ele>12.8</ele><time>2026-04-19T14:44:34.929Z</time></trkpt><trkpt lat="43.7421958" lon="10.7842074"><ele>13.0</ele><time>2026-04-19T14:44:35.928Z</time></trkpt><trkpt lat="43.7421534" lon="10.7840863"><ele>13.166666666666666</ele><time>2026-04-19T14:44:36.928Z</time></trkpt><trkpt lat="43.7421332" lon="10.7839609"><ele>13.333333333333332</ele><time>2026-04-19T14:44:37.928Z</time></trkpt><trkpt lat="43.7421211" lon="10.783835"><ele>13.5</ele><time>2026-04-19T14:44:38.928Z</time></trkpt><trkpt lat="43.7421009" lon="10.7837174"><ele>13.666666666666668</ele><time>2026-04-19T14:44:39.928Z</time></trkpt><trkpt lat="43.7420669" lon="10.7836134"><ele>13.833333333333334</ele><time>2026-04-19T14:44:40.928Z</time></trkpt><trkpt lat="43.7420131" lon="10.7835246"><ele>14.0</ele><time>2026-04-19T14:44:41.928Z</time></trkpt><trkpt lat="43.7419388" lon="10.7834503"><ele>14.6</ele><time>2026-04-19T14:44:42.928Z</time></trkpt><trkpt lat="43.741845" lon="10.7833861"><ele>15.2</ele><time>2026-04-19T14:44:43.928Z</time></trkpt><trkpt lat="43.7417531" lon="10.7833243"><ele>15.799999999999999</ele><time>2026-04-19T14:44:44.928Z</time></trkpt><trkpt lat="43.7416701" lon="10.7832437"><ele>16.4</ele><time>2026-04-19T14:44:45.928Z</time></trkpt><trkpt lat="43.7415893" lon="10.7831442"><ele>17.0</ele><time>2026-04-19T14:44:46.928Z</time></trkpt><trkpt lat="43.7415095" lon="10.7830378"><ele>17.0</ele><time>2026-04-19T14:44:47.928Z</time></trkpt><trkpt lat="43.7414318" lon="10.7829358"><ele>17.0</ele><time>2026-04-19T14:44:48.928Z</time></trkpt><trkpt lat="43.7413521" lon="10.7828279"><ele>17.0</ele><time>2026-04-19T14:44:49.928Z</time></trkpt><trkpt lat="43.7412739" lon="10.7827197"><ele>17.0</ele><time>2026-04-19T14:44:50.928Z</time></trkpt><trkpt lat="43.741193" lon="10.7826051"><ele>17.0</ele><time>2026-04-19T14:44:51.928Z</time></trkpt><trkpt lat="43.7411097" lon="10.7824985"><ele>17.2</ele><time>2026-04-19T14:44:52.928Z</time></trkpt><trkpt lat="43.7410286" lon="10.7823838"><ele>17.4</ele><time>2026-04-19T14:44:53.928Z</time></trkpt><trkpt lat="43.7409525" lon="10.7822786"><ele>17.6</ele><time>2026-04-19T14:44:54.929Z</time></trkpt><trkpt lat="43.740878" lon="10.7821776"><ele>17.8</ele><time>2026-04-19T14:44:55.928Z</time></trkpt><trkpt lat="43.7408016" lon="10.7820723"><ele>18.0</ele><time>2026-04-19T14:44:56.928Z</time></trkpt><trkpt lat="43.7407303" lon="10.7819798"><ele>18.0</ele><time>2026-04-19T14:44:57.928Z</time></trkpt><trkpt lat="43.7406606" lon="10.7818872"><ele>18.0</ele><time>2026-04-19T14:44:58.928Z</time></trkpt><trkpt lat="43.7405899" lon="10.7817973"><ele>18.0</ele><time>2026-04-19T14:44:59.928Z</time></trkpt><trkpt lat="43.740525" lon="10.7817055"><ele>18.0</ele><time>2026-04-19T14:45:00.928Z</time></trkpt><trkpt lat="43.7404644" lon="10.7816043"><ele>18.0</ele><time>2026-04-19T14:45:01.929Z</time></trkpt><trkpt lat="43.7404157" lon="10.7814812"><ele>18.0</ele><time>2026-04-19T14:45:02.928Z</time></trkpt><trkpt lat="43.7403791" lon="10.7813484"><ele>18.0</ele><time>2026-04-19T14:45:03.928Z</time></trkpt><trkpt lat="43.7403509" lon="10.7812153"><ele>18.0</ele><time>2026-04-19T14:45:04.928Z</time></trkpt><trkpt lat="43.7403239" lon="10.7811032"><ele>18.0</ele><time>2026-04-19T14:45:05.928Z</time></trkpt><trkpt lat="43.740276" lon="10.7810038"><ele>18.0</ele><time>2026-04-19T14:45:06.928Z</time></trkpt><trkpt lat="43.7402099" lon="10.780934"><ele>17.4</ele><time>2026-04-19T14:45:07.928Z</time></trkpt><trkpt lat="43.7401292" lon="10.7808813"><ele>16.8</ele><time>2026-04-19T14:45:08.928Z</time></trkpt><trkpt lat="43.7400317" lon="10.7808548"><ele>16.2</ele><time>2026-04-19T14:45:09.928Z</time></trkpt><trkpt lat="43.739934" lon="10.7808118"><ele>15.6</ele><time>2026-04-19T14:45:10.928Z</time></trkpt><trkpt lat="43.7398372" lon="10.7807286"><ele>15.0</ele><time>2026-04-19T14:45:11.928Z</time></trkpt><trkpt lat="43.7397371" lon="10.7806237"><ele>15.0</ele><time>2026-04-19T14:45:12.928Z</time></trkpt><trkpt lat="43.739642" lon="10.780502"><ele>15.0</ele><time>2026-04-19T14:45:13.928Z</time></trkpt><trkpt lat="43.7395465" lon="10.7803715"><ele>15.0</ele><time>2026-04-19T14:45:14.928Z</time></trkpt><trkpt lat="43.7394351" lon="10.7802247"><ele>15.0</ele><time>2026-04-19T14:45:15.928Z</time></trkpt><trkpt lat="43.7393293" lon="10.7800858"><ele>14.75</ele><time>2026-04-19T14:45:16.928Z</time></trkpt><trkpt lat="43.7392249" lon="10.7799514"><ele>14.5</ele><time>2026-04-19T14:45:17.928Z</time></trkpt><trkpt lat="43.7391314" lon="10.7798187"><ele>14.25</ele><time>2026-04-19T14:45:18.928Z</time></trkpt><trkpt lat="43.7390416" lon="10.779693"><ele>14.0</ele><time>2026-04-19T14:45:19.929Z</time></trkpt><trkpt lat="43.7389517" lon="10.7795529"><ele>14.0</ele><time>2026-04-19T14:45:20.928Z</time></trkpt><trkpt lat="43.7388589" lon="10.7794208"><ele>14.0</ele><time>2026-04-19T14:45:21.929Z</time></trkpt><trkpt lat="43.7387653" lon="10.7792894"><ele>14.0</ele><time>2026-04-19T14:45:22.928Z</time></trkpt><trkpt lat="43.7386694" lon="10.7791621"><ele>14.0</ele><time>2026-04-19T14:45:23.929Z</time></trkpt><trkpt lat="43.7385742" lon="10.7790316"><ele>14.25</ele><time>2026-04-19T14:45:24.928Z</time></trkpt><trkpt lat="43.7384806" lon="10.7789037"><ele>14.5</ele><time>2026-04-19T14:45:25.928Z</time></trkpt><trkpt lat="43.7383798" lon="10.7787691"><ele>14.75</ele><time>2026-04-19T14:45:26.929Z</time></trkpt><trkpt lat="43.7382742" lon="10.7786297"><ele>15.0</ele><time>2026-04-19T14:45:27.928Z</time></trkpt><trkpt lat="43.7381706" lon="10.7784859"><ele>15.0</ele><time>2026-04-19T14:45:28.928Z</time></trkpt><trkpt lat="43.7380664" lon="10.778348"><ele>15.0</ele><time>2026-04-19T14:45:29.929Z</time></trkpt><trkpt lat="43.7379616" lon="10.7782107"><ele>15.0</ele><time>2026-04-19T14:45:30.928Z</time></trkpt><trkpt lat="43.7378587" lon="10.7780719"><ele>15.0</ele><time>2026-04-19T14:45:31.928Z</time></trkpt><trkpt lat="43.7377591" lon="10.777933"><ele>15.0</ele><time>2026-04-19T14:45:32.928Z</time></trkpt><trkpt lat="43.7376637" lon="10.7778006"><ele>15.0</ele><time>2026-04-19T14:45:33.928Z</time></trkpt><trkpt lat="43.7375659" lon="10.7776652"><ele>15.0</ele><time>2026-04-19T14:45:34.928Z</time></trkpt><trkpt lat="43.7374665" lon="10.7775258"><ele>15.0</ele><time>2026-04-19T14:45:35.928Z</time></trkpt><trkpt lat="43.7373676" lon="10.7773868"><ele>15.0</ele><time>2026-04-19T14:45:36.928Z</time></trkpt><trkpt lat="43.7372673" lon="10.7772441"><ele>15.0</ele><time>2026-04-19T14:45:37.929Z</time></trkpt><trkpt lat="43.7371699" lon="10.7771021"><ele>15.0</ele><time>2026-04-19T14:45:38.928Z</time></trkpt><trkpt lat="43.737071" lon="10.7769551"><ele>15.0</ele><time>2026-04-19T14:45:39.928Z</time></trkpt><trkpt lat="43.7369761" lon="10.7768094"><ele>15.25</ele><time>2026-04-19T14:45:40.928Z</time></trkpt><trkpt lat="43.7368873" lon="10.7766599"><ele>15.5</ele><time>2026-04-19T14:45:41.928Z</time></trkpt><trkpt lat="43.7367993" lon="10.7765207"><ele>15.75</ele><time>2026-04-19T14:45:42.928Z</time></trkpt><trkpt lat="43.7367132" lon="10.7763797"><ele>16.0</ele><time>2026-04-19T14:45:43.928Z</time></trkpt><trkpt lat="43.7366341" lon="10.7762414"><ele>15.75</ele><time>2026-04-19T14:45:44.928Z</time></trkpt><trkpt lat="43.7365539" lon="10.7761036"><ele>15.5</ele><time>2026-04-19T14:45:45.928Z</time></trkpt><trkpt lat="43.7364783" lon="10.7759653"><ele>15.25</ele><time>2026-04-19T14:45:46.928Z</time></trkpt><trkpt lat="43.7364058" lon="10.7758291"><ele>15.0</ele><time>2026-04-19T14:45:47.928Z</time></trkpt><trkpt lat="43.7363359" lon="10.7756886"><ele>15.0</ele><time>2026-04-19T14:45:48.929Z</time></trkpt><trkpt lat="43.7362643" lon="10.775542"><ele>15.0</ele><time>2026-04-19T14:45:49.928Z</time></trkpt><trkpt lat="43.7361968" lon="10.7754028"><ele>15.0</ele><time>2026-04-19T14:45:50.928Z</time></trkpt><trkpt lat="43.7361348" lon="10.7752707"><ele>15.0</ele><time>2026-04-19T14:45:51.929Z</time></trkpt><trkpt lat="43.7360793" lon="10.7751361"><ele>14.8</ele><time>2026-04-19T14:45:52.928Z</time></trkpt><trkpt lat="43.7360344" lon="10.7750022"><ele>14.6</ele><time>2026-04-19T14:45:53.928Z</time></trkpt><trkpt lat="43.7359998" lon="10.7748702"><ele>14.399999999999999</ele><time>2026-04-19T14:45:54.928Z</time></trkpt><trkpt lat="43.7359732" lon="10.7747295"><ele>14.2</ele><time>2026-04-19T14:45:55.929Z</time></trkpt><trkpt lat="43.7359577" lon="10.7745838"><ele>14.0</ele><time>2026-04-19T14:45:56.928Z</time></trkpt><trkpt lat="43.735959" lon="10.7744425"><ele>14.0</ele><time>2026-04-19T14:45:57.928Z</time></trkpt><trkpt lat="43.7359723" lon="10.7743016"><ele>14.0</ele><time>2026-04-19T14:45:58.929Z</time></trkpt><trkpt lat="43.7360077" lon="10.7741619"><ele>14.0</ele><time>2026-04-19T14:45:59.928Z</time></trkpt><trkpt lat="43.7360584" lon="10.7739969"><ele>14.0</ele><time>2026-04-19T14:46:00.928Z</time></trkpt><trkpt lat="43.7361299" lon="10.7738098"><ele>14.0</ele><time>2026-04-19T14:46:01.928Z</time></trkpt><trkpt lat="43.736201" lon="10.7736296"><ele>14.0</ele><time>2026-04-19T14:46:02.928Z</time></trkpt><trkpt lat="43.7362774" lon="10.7734456"><ele>14.0</ele><time>2026-04-19T14:46:03.928Z</time></trkpt><trkpt lat="43.7363634" lon="10.7732607"><ele>14.333333333333334</ele><time>2026-04-19T14:46:04.929Z</time></trkpt><trkpt lat="43.7364478" lon="10.7730724"><ele>14.666666666666668</ele><time>2026-04-19T14:46:05.928Z</time></trkpt><trkpt lat="43.736534" lon="10.7728824"><ele>15.0</ele><time>2026-04-19T14:46:06.928Z</time></trkpt><trkpt lat="43.7366172" lon="10.7726905"><ele>14.333333333333332</ele><time>2026-04-19T14:46:07.928Z</time></trkpt><trkpt lat="43.7367019" lon="10.772496"><ele>13.666666666666666</ele><time>2026-04-19T14:46:08.928Z</time></trkpt><trkpt lat="43.7367855" lon="10.7723029"><ele>13.0</ele><time>2026-04-19T14:46:09.928Z</time></trkpt><trkpt lat="43.7368715" lon="10.7721202"><ele>13.333333333333332</ele><time>2026-04-19T14:46:10.928Z</time></trkpt><trkpt lat="43.7369524" lon="10.7719375"><ele>13.666666666666668</ele><time>2026-04-19T14:46:11.928Z</time></trkpt><trkpt lat="43.7370298" lon="10.771762"><ele>14.0</ele><time>2026-04-19T14:46:12.928Z</time></trkpt><trkpt lat="43.7371045" lon="10.7715881"><ele>14.0</ele><time>2026-04-19T14:46:13.928Z</time></trkpt><trkpt lat="43.7371821" lon="10.7714154"><ele>14.0</ele><time>2026-04-19T14:46:14.928Z</time></trkpt><trkpt lat="43.737261" lon="10.7712436"><ele>14.0</ele><time>2026-04-19T14:46:15.928Z</time></trkpt><trkpt lat="43.7373423" lon="10.7710773"><ele>14.0</ele><time>2026-04-19T14:46:16.928Z</time></trkpt><trkpt lat="43.7374288" lon="10.7709173"><ele>14.25</ele><time>2026-04-19T14:46:17.928Z</time></trkpt><trkpt lat="43.737524" lon="10.7707642"><ele>14.5</ele><time>2026-04-19T14:46:18.928Z</time></trkpt><trkpt lat="43.7376286" lon="10.7706097"><ele>14.75</ele><time>2026-04-19T14:46:19.928Z</time></trkpt><trkpt lat="43.7377361" lon="10.7704648"><ele>15.0</ele><time>2026-04-19T14:46:20.928Z</time></trkpt><trkpt lat="43.7378457" lon="10.7703127"><ele>15.666666666666668</ele><time>2026-04-19T14:46:21.928Z</time></trkpt><trkpt lat="43.737959" lon="10.7701574"><ele>16.333333333333336</ele><time>2026-04-19T14:46:22.928Z</time></trkpt><trkpt lat="43.7380737" lon="10.7700052"><ele>17.0</ele><time>2026-04-19T14:46:23.928Z</time></trkpt><trkpt lat="43.7381825" lon="10.7698581"><ele>17.0</ele><time>2026-04-19T14:46:24.928Z</time></trkpt><trkpt lat="43.7382972" lon="10.7697095"><ele>17.0</ele><time>2026-04-19T14:46:25.928Z</time></trkpt><trkpt lat="43.7384116" lon="10.7695594"><ele>17.0</ele><time>2026-04-19T14:46:26.928Z</time></trkpt><trkpt lat="43.7385259" lon="10.7694049"><ele>16.333333333333336</ele><time>2026-04-19T14:46:27.928Z</time></trkpt><trkpt lat="43.7386447" lon="10.7692526"><ele>15.666666666666668</ele><time>2026-04-19T14:46:28.928Z</time></trkpt><trkpt lat="43.7387586" lon="10.7691051"><ele>15.0</ele><time>2026-04-19T14:46:29.928Z</time></trkpt><trkpt lat="43.7388773" lon="10.7689474"><ele>15.0</ele><time>2026-04-19T14:46:30.928Z</time></trkpt><trkpt lat="43.738994" lon="10.7687992"><ele>15.0</ele><time>2026-04-19T14:46:31.928Z</time></trkpt><trkpt lat="43.7391097" lon="10.768649"><ele>15.0</ele><time>2026-04-19T14:46:32.928Z</time></trkpt><trkpt lat="43.7392184" lon="10.7685042"><ele>15.0</ele><time>2026-04-19T14:46:33.929Z</time></trkpt><trkpt lat="43.7393325" lon="10.7683593"><ele>15.0</ele><time>2026-04-19T14:46:34.928Z</time></trkpt><trkpt lat="43.7394462" lon="10.7682135"><ele>15.0</ele><time>2026-04-19T14:46:35.928Z</time></trkpt><trkpt lat="43.7395563" lon="10.7680688"><ele>14.666666666666668</ele><time>2026-04-19T14:46:36.928Z</time></trkpt><trkpt lat="43.739666" lon="10.7679236"><ele>14.333333333333334</ele><time>2026-04-19T14:46:37.929Z</time></trkpt><trkpt lat="43.7397755" lon="10.7677776"><ele>14.0</ele><time>2026-04-19T14:46:38.928Z</time></trkpt><trkpt lat="43.7398878" lon="10.7676336"><ele>14.0</ele><time>2026-04-19T14:46:39.928Z</time></trkpt><trkpt lat="43.7400001" lon="10.7674882"><ele>14.0</ele><time>2026-04-19T14:46:40.928Z</time></trkpt><trkpt lat="43.7401096" lon="10.7673448"><ele>14.0</ele><time>2026-04-19T14:46:41.928Z</time></trkpt><trkpt lat="43.7402136" lon="10.7672143"><ele>14.0</ele><time>2026-04-19T14:46:42.928Z</time></trkpt><trkpt lat="43.7403124" lon="10.7670834"><ele>14.5</ele><time>2026-04-19T14:46:43.928Z</time></trkpt><trkpt lat="43.740406" lon="10.7669605"><ele>15.0</ele><time>2026-04-19T14:46:44.928Z</time></trkpt><trkpt lat="43.7404956" lon="10.766844"><ele>15.5</ele><time>2026-04-19T14:46:45.928Z</time></trkpt><trkpt lat="43.7405796" lon="10.7667337"><ele>16.0</ele><time>2026-04-19T14:46:46.928Z</time></trkpt><trkpt lat="43.740664" lon="10.7666526"><ele>16.2</ele><time>2026-04-19T14:46:47.928Z</time></trkpt><trkpt lat="43.7407553" lon="10.7666004"><ele>16.400000000000002</ele><time>2026-04-19T14:46:48.928Z</time></trkpt><trkpt lat="43.74084" lon="10.7665486"><ele>16.6</ele><time>2026-04-19T14:46:49.929Z</time></trkpt><trkpt lat="43.7409144" lon="10.7664731"><ele>16.8</ele><time>2026-04-19T14:46:50.928Z</time></trkpt><trkpt lat="43.7409645" lon="10.7663773"><ele>17.0</ele><time>2026-04-19T14:46:51.928Z</time></trkpt><trkpt lat="43.741005" lon="10.7662663"><ele>17.4</ele><time>2026-04-19T14:46:52.928Z</time></trkpt><trkpt lat="43.7410594" lon="10.7661553"><ele>17.799999999999997</ele><time>2026-04-19T14:46:53.928Z</time></trkpt><trkpt lat="43.7411224" lon="10.7660544"><ele>18.2</ele><time>2026-04-19T14:46:54.929Z</time></trkpt><trkpt lat="43.7412053" lon="10.7659512"><ele>18.599999999999998</ele><time>2026-04-19T14:46:55.929Z</time></trkpt><trkpt lat="43.7412934" lon="10.7658545"><ele>19.0</ele><time>2026-04-19T14:46:56.928Z</time></trkpt><trkpt lat="43.7413885" lon="10.7657625"><ele>19.0</ele><time>2026-04-19T14:46:57.928Z</time></trkpt><trkpt lat="43.741501" lon="10.7656691"><ele>19.0</ele><time>2026-04-19T14:46:58.928Z</time></trkpt><trkpt lat="43.7416217" lon="10.7655849"><ele>19.0</ele><time>2026-04-19T14:46:59.929Z</time></trkpt><trkpt lat="43.7417542" lon="10.7655128"><ele>19.0</ele><time>2026-04-19T14:47:00.928Z</time></trkpt><trkpt lat="43.7418823" lon="10.7654455"><ele>20.666666666666664</ele><time>2026-04-19T14:47:01.928Z</time></trkpt><trkpt lat="43.7420271" lon="10.7653826"><ele>22.333333333333332</ele><time>2026-04-19T14:47:02.928Z</time></trkpt><trkpt lat="43.7421759" lon="10.7653291"><ele>24.0</ele><time>2026-04-19T14:47:03.928Z</time></trkpt><trkpt lat="43.7423363" lon="10.7652877"><ele>24.0</ele><time>2026-04-19T14:47:04.928Z</time></trkpt><trkpt lat="43.7424995" lon="10.7652575"><ele>24.0</ele><time>2026-04-19T14:47:05.928Z</time></trkpt><trkpt lat="43.7426716" lon="10.7652429"><ele>24.0</ele><time>2026-04-19T14:47:06.928Z</time></trkpt><trkpt lat="43.7428542" lon="10.7652416"><ele>24.0</ele><time>2026-04-19T14:47:07.928Z</time></trkpt><trkpt lat="43.7430316" lon="10.7652464"><ele>24.0</ele><time>2026-04-19T14:47:08.928Z</time></trkpt><trkpt lat="43.7432039" lon="10.7652571"><ele>24.0</ele><time>2026-04-19T14:47:09.928Z</time></trkpt><trkpt lat="43.7433809" lon="10.7652651"><ele>25.333333333333336</ele><time>2026-04-19T14:47:10.928Z</time></trkpt><trkpt lat="43.7435518" lon="10.7652789"><ele>26.666666666666668</ele><time>2026-04-19T14:47:11.928Z</time></trkpt><trkpt lat="43.7437185" lon="10.7652915"><ele>28.0</ele><time>2026-04-19T14:47:12.928Z</time></trkpt><trkpt lat="43.7438879" lon="10.7652978"><ele>28.0</ele><time>2026-04-19T14:47:13.928Z</time></trkpt><trkpt lat="43.7440611" lon="10.7653177"><ele>28.0</ele><time>2026-04-19T14:47:14.929Z</time></trkpt><trkpt lat="43.7442346" lon="10.7653331"><ele>28.0</ele><time>2026-04-19T14:47:15.928Z</time></trkpt><trkpt lat="43.7444121" lon="10.7653435"><ele>26.333333333333336</ele><time>2026-04-19T14:47:16.928Z</time></trkpt><trkpt lat="43.7445849" lon="10.7653561"><ele>24.666666666666668</ele><time>2026-04-19T14:47:17.928Z</time></trkpt><trkpt lat="43.7447643" lon="10.7653697"><ele>23.0</ele><time>2026-04-19T14:47:18.928Z</time></trkpt><trkpt lat="43.7449405" lon="10.765384"><ele>23.0</ele><time>2026-04-19T14:47:19.928Z</time></trkpt><trkpt lat="43.7451204" lon="10.765397"><ele>23.0</ele><time>2026-04-19T14:47:20.929Z</time></trkpt><trkpt lat="43.7452995" lon="10.7653996"><ele>23.0</ele><time>2026-04-19T14:47:21.929Z</time></trkpt><trkpt lat="43.7454793" lon="10.7653923"><ele>24.0</ele><time>2026-04-19T14:47:22.928Z</time></trkpt><trkpt lat="43.7456564" lon="10.76537"><ele>25.0</ele><time>2026-04-19T14:47:23.928Z</time></trkpt><trkpt lat="43.7458281" lon="10.7653383"><ele>26.0</ele><time>2026-04-19T14:47:24.928Z</time></trkpt><trkpt lat="43.7459965" lon="10.7652834"><ele>25.0</ele><time>2026-04-19T14:47:25.928Z</time></trkpt><trkpt lat="43.7461631" lon="10.765218"><ele>24.0</ele><time>2026-04-19T14:47:26.928Z</time></trkpt><trkpt lat="43.7463249" lon="10.7651361"><ele>23.0</ele><time>2026-04-19T14:47:27.928Z</time></trkpt><trkpt lat="43.7464731" lon="10.7650418"><ele>23.0</ele><time>2026-04-19T14:47:28.928Z</time></trkpt><trkpt lat="43.746616" lon="10.7649378"><ele>23.0</ele><time>2026-04-19T14:47:29.929Z</time></trkpt><trkpt lat="43.7467569" lon="10.7648265"><ele>23.0</ele><time>2026-04-19T14:47:30.928Z</time></trkpt><trkpt lat="43.7468948" lon="10.7647192"><ele>26.333333333333336</ele><time>2026-04-19T14:47:31.928Z</time></trkpt><trkpt lat="43.7470312" lon="10.7646198"><ele>29.666666666666668</ele><time>2026-04-19T14:47:32.928Z</time></trkpt><trkpt lat="43.7471635" lon="10.7645128"><ele>33.0</ele><time>2026-04-19T14:47:33.928Z</time></trkpt><trkpt lat="43.7472908" lon="10.7644099"><ele>33.0</ele><time>2026-04-19T14:47:34.928Z</time></trkpt><trkpt lat="43.7474224" lon="10.7643114"><ele>33.0</ele><time>2026-04-19T14:47:35.928Z</time></trkpt><trkpt lat="43.7475499" lon="10.7642108"><ele>33.0</ele><time>2026-04-19T14:47:36.928Z</time></trkpt><trkpt lat="43.7476726" lon="10.7641066"><ele>33.0</ele><time>2026-04-19T14:47:37.928Z</time></trkpt><trkpt lat="43.7477895" lon="10.7640057"><ele>33.0</ele><time>2026-04-19T14:47:38.928Z</time></trkpt><trkpt lat="43.7479079" lon="10.7639038"><ele>33.0</ele><time>2026-04-19T14:47:39.928Z</time></trkpt><trkpt lat="43.7480227" lon="10.7638073"><ele>33.0</ele><time>2026-04-19T14:47:40.928Z</time></trkpt><trkpt lat="43.7481383" lon="10.7637094"><ele>33.0</ele><time>2026-04-19T14:47:41.928Z</time></trkpt><trkpt lat="43.7482572" lon="10.7636138"><ele>31.5</ele><time>2026-04-19T14:47:42.928Z</time></trkpt><trkpt lat="43.7483776" lon="10.7635264"><ele>30.0</ele><time>2026-04-19T14:47:43.928Z</time></trkpt><trkpt lat="43.748502" lon="10.763449"><ele>28.5</ele><time>2026-04-19T14:47:44.928Z</time></trkpt><trkpt lat="43.7486396" lon="10.7633839"><ele>27.0</ele><time>2026-04-19T14:47:45.928Z</time></trkpt><trkpt lat="43.7487861" lon="10.7633297"><ele>27.0</ele><time>2026-04-19T14:47:46.929Z</time></trkpt><trkpt lat="43.7489306" lon="10.763291"><ele>27.0</ele><time>2026-04-19T14:47:47.928Z</time></trkpt><trkpt lat="43.7490806" lon="10.7632691"><ele>27.0</ele><time>2026-04-19T14:47:48.928Z</time></trkpt><trkpt lat="43.7492343" lon="10.7632719"><ele>25.333333333333332</ele><time>2026-04-19T14:47:49.928Z</time></trkpt><trkpt lat="43.7493872" lon="10.7632959"><ele>23.666666666666664</ele><time>2026-04-19T14:47:50.928Z</time></trkpt><trkpt lat="43.7495401" lon="10.763337"><ele>22.0</ele><time>2026-04-19T14:47:51.928Z</time></trkpt><trkpt lat="43.7496996" lon="10.7634006"><ele>22.0</ele><time>2026-04-19T14:47:52.928Z</time></trkpt><trkpt lat="43.7498523" lon="10.7634815"><ele>22.0</ele><time>2026-04-19T14:47:53.928Z</time></trkpt><trkpt lat="43.7500206" lon="10.7635802"><ele>22.0</ele><time>2026-04-19T14:47:54.928Z</time></trkpt><trkpt lat="43.7502148" lon="10.7636927"><ele>25.0</ele><time>2026-04-19T14:47:55.928Z</time></trkpt><trkpt lat="43.7504272" lon="10.7638232"><ele>28.0</ele><time>2026-04-19T14:47:56.928Z</time></trkpt><trkpt lat="43.750644" lon="10.7639652"><ele>28.0</ele><time>2026-04-19T14:47:57.928Z</time></trkpt><trkpt lat="43.750857" lon="10.7641138"><ele>28.0</ele><time>2026-04-19T14:47:58.928Z</time></trkpt><trkpt lat="43.7510511" lon="10.7642623"><ele>29.666666666666668</ele><time>2026-04-19T14:47:59.929Z</time></trkpt><trkpt lat="43.7512292" lon="10.7644088"><ele>31.333333333333336</ele><time>2026-04-19T14:48:00.928Z</time></trkpt><trkpt lat="43.7514023" lon="10.7645418"><ele>33.0</ele><time>2026-04-19T14:48:01.928Z</time></trkpt><trkpt lat="43.7515733" lon="10.7646731"><ele>33.0</ele><time>2026-04-19T14:48:02.929Z</time></trkpt><trkpt lat="43.7517357" lon="10.7647868"><ele>33.0</ele><time>2026-04-19T14:48:03.928Z</time></trkpt><trkpt lat="43.7519009" lon="10.7648971"><ele>33.0</ele><time>2026-04-19T14:48:04.928Z</time></trkpt><trkpt lat="43.7520708" lon="10.7649856"><ele>31.333333333333336</ele><time>2026-04-19T14:48:05.928Z</time></trkpt><trkpt lat="43.7522383" lon="10.7650645"><ele>29.666666666666668</ele><time>2026-04-19T14:48:06.928Z</time></trkpt><trkpt lat="43.7524007" lon="10.7651297"><ele>28.0</ele><time>2026-04-19T14:48:07.928Z</time></trkpt><trkpt lat="43.7525647" lon="10.765152"><ele>29.333333333333336</ele><time>2026-04-19T14:48:08.928Z</time></trkpt><trkpt lat="43.7527405" lon="10.7651358"><ele>30.666666666666664</ele><time>2026-04-19T14:48:09.929Z</time></trkpt><trkpt lat="43.7529115" lon="10.7651057"><ele>32.0</ele><time>2026-04-19T14:48:10.928Z</time></trkpt><trkpt lat="43.7530735" lon="10.7650471"><ele>32.0</ele><time>2026-04-19T14:48:11.928Z</time></trkpt><trkpt lat="43.7532355" lon="10.7649562"><ele>32.0</ele><time>2026-04-19T14:48:12.928Z</time></trkpt><trkpt lat="43.7533985" lon="10.7648366"><ele>32.0</ele><time>2026-04-19T14:48:13.928Z</time></trkpt><trkpt lat="43.7535562" lon="10.7646932"><ele>33.666666666666664</ele><time>2026-04-19T14:48:14.928Z</time></trkpt><trkpt lat="43.7537067" lon="10.7645379"><ele>35.333333333333336</ele><time>2026-04-19T14:48:15.928Z</time></trkpt><trkpt lat="43.7538538" lon="10.7643998"><ele>37.0</ele><time>2026-04-19T14:48:16.928Z</time></trkpt><trkpt lat="43.7540137" lon="10.7642803"><ele>37.0</ele><time>2026-04-19T14:48:17.929Z</time></trkpt><trkpt lat="43.754177" lon="10.7641835"><ele>37.0</ele><time>2026-04-19T14:48:18.929Z</time></trkpt><trkpt lat="43.7543572" lon="10.7641109"><ele>37.0</ele><time>2026-04-19T14:48:19.928Z</time></trkpt><trkpt lat="43.7545347" lon="10.7640531"><ele>41.0</ele><time>2026-04-19T14:48:20.928Z</time></trkpt><trkpt lat="43.7547085" lon="10.764014"><ele>45.0</ele><time>2026-04-19T14:48:21.928Z</time></trkpt><trkpt lat="43.7548834" lon="10.7639821"><ele>49.0</ele><time>2026-04-19T14:48:22.928Z</time></trkpt><trkpt lat="43.7550562" lon="10.7639525"><ele>48.666666666666664</ele><time>2026-04-19T14:48:23.928Z</time></trkpt><trkpt lat="43.7552379" lon="10.7639204"><ele>48.33333333333333</ele><time>2026-04-19T14:48:24.929Z</time></trkpt><trkpt lat="43.7554177" lon="10.7638945"><ele>48.0</ele><time>2026-04-19T14:48:25.928Z</time></trkpt><trkpt lat="43.7555931" lon="10.7638636"><ele>48.0</ele><time>2026-04-19T14:48:26.928Z</time></trkpt><trkpt lat="43.7557633" lon="10.7638363"><ele>48.0</ele><time>2026-04-19T14:48:27.928Z</time></trkpt><trkpt lat="43.7559359" lon="10.7638045"><ele>48.0</ele><time>2026-04-19T14:48:28.929Z</time></trkpt><trkpt lat="43.7561116" lon="10.7637697"><ele>49.0</ele><time>2026-04-19T14:48:29.928Z</time></trkpt><trkpt lat="43.7562733" lon="10.7637358"><ele>50.0</ele><time>2026-04-19T14:48:30.929Z</time></trkpt><trkpt lat="43.7564293" lon="10.7637042"><ele>51.0</ele><time>2026-04-19T14:48:31.928Z</time></trkpt><trkpt lat="43.7565756" lon="10.763668"><ele>51.0</ele><time>2026-04-19T14:48:32.928Z</time></trkpt><trkpt lat="43.7567157" lon="10.7636312"><ele>51.0</ele><time>2026-04-19T14:48:33.929Z</time></trkpt><trkpt lat="43.7568495" lon="10.7635813"><ele>51.0</ele><time>2026-04-19T14:48:34.928Z</time></trkpt><trkpt lat="43.756981" lon="10.7635129"><ele>51.0</ele><time>2026-04-19T14:48:35.929Z</time></trkpt><trkpt lat="43.7571092" lon="10.7634218"><ele>53.33333333333333</ele><time>2026-04-19T14:48:36.928Z</time></trkpt><trkpt lat="43.7572287" lon="10.7633036"><ele>55.666666666666664</ele><time>2026-04-19T14:48:37.928Z</time></trkpt><trkpt lat="43.7573443" lon="10.7631428"><ele>58.0</ele><time>2026-04-19T14:48:38.929Z</time></trkpt><trkpt lat="43.7574463" lon="10.7629659"><ele>58.0</ele><time>2026-04-19T14:48:39.928Z</time></trkpt><trkpt lat="43.7575415" lon="10.7627981"><ele>58.0</ele><time>2026-04-19T14:48:40.928Z</time></trkpt><trkpt lat="43.7576306" lon="10.7626438"><ele>58.0</ele><time>2026-04-19T14:48:41.929Z</time></trkpt><trkpt lat="43.7577142" lon="10.7624923"><ele>58.0</ele><time>2026-04-19T14:48:42.928Z</time></trkpt><trkpt lat="43.7577774" lon="10.7623298"><ele>54.33333333333333</ele><time>2026-04-19T14:48:43.928Z</time></trkpt><trkpt lat="43.7578193" lon="10.7621453"><ele>50.666666666666664</ele><time>2026-04-19T14:48:44.929Z</time></trkpt><trkpt lat="43.7578431" lon="10.7619387"><ele>47.0</ele><time>2026-04-19T14:48:45.928Z</time></trkpt><trkpt lat="43.7578568" lon="10.7616892"><ele>46.0</ele><time>2026-04-19T14:48:46.928Z</time></trkpt><trkpt lat="43.7578605" lon="10.7614448"><ele>45.0</ele><time>2026-04-19T14:48:47.928Z</time></trkpt><trkpt lat="43.7578607" lon="10.7612058"><ele>44.0</ele><time>2026-04-19T14:48:48.929Z</time></trkpt><trkpt lat="43.7578609" lon="10.760976"><ele>46.0</ele><time>2026-04-19T14:48:49.928Z</time></trkpt><trkpt lat="43.7578614" lon="10.7607514"><ele>48.0</ele><time>2026-04-19T14:48:50.928Z</time></trkpt><trkpt lat="43.7578635" lon="10.7605195"><ele>50.0</ele><time>2026-04-19T14:48:51.928Z</time></trkpt><trkpt lat="43.757868" lon="10.7602972"><ele>53.333333333333336</ele><time>2026-04-19T14:48:52.929Z</time></trkpt><trkpt lat="43.75787" lon="10.7600837"><ele>56.66666666666667</ele><time>2026-04-19T14:48:53.928Z</time></trkpt><trkpt lat="43.7578725" lon="10.7598666"><ele>60.0</ele><time>2026-04-19T14:48:54.928Z</time></trkpt><trkpt lat="43.7578687" lon="10.7596573"><ele>60.0</ele><time>2026-04-19T14:48:55.928Z</time></trkpt><trkpt lat="43.7578581" lon="10.7594618"><ele>60.0</ele><time>2026-04-19T14:48:56.928Z</time></trkpt><trkpt lat="43.7578376" lon="10.759261"><ele>60.0</ele><time>2026-04-19T14:48:57.928Z</time></trkpt><trkpt lat="43.7578071" lon="10.75907"><ele>60.0</ele><time>2026-04-19T14:48:58.928Z</time></trkpt><trkpt lat="43.7577673" lon="10.7588888"><ele>59.75</ele><time>2026-04-19T14:48:59.928Z</time></trkpt><trkpt lat="43.7577176" lon="10.7587099"><ele>59.5</ele><time>2026-04-19T14:49:00.929Z</time></trkpt><trkpt lat="43.7576617" lon="10.7585348"><ele>59.25</ele><time>2026-04-19T14:49:01.928Z</time></trkpt><trkpt lat="43.7576007" lon="10.7583694"><ele>59.0</ele><time>2026-04-19T14:49:02.928Z</time></trkpt><trkpt lat="43.7575331" lon="10.758192"><ele>59.0</ele><time>2026-04-19T14:49:03.928Z</time></trkpt><trkpt lat="43.7574691" lon="10.7580234"><ele>59.0</ele><time>2026-04-19T14:49:04.929Z</time></trkpt><trkpt lat="43.7574066" lon="10.7578424"><ele>59.0</ele><time>2026-04-19T14:49:05.928Z</time></trkpt><trkpt lat="43.7573459" lon="10.7576769"><ele>59.0</ele><time>2026-04-19T14:49:06.928Z</time></trkpt><trkpt lat="43.7572872" lon="10.7575053"><ele>60.25</ele><time>2026-04-19T14:49:07.929Z</time></trkpt><trkpt lat="43.7572274" lon="10.7573384"><ele>61.5</ele><time>2026-04-19T14:49:08.928Z</time></trkpt><trkpt lat="43.7571689" lon="10.757189"><ele>62.75</ele><time>2026-04-19T14:49:09.929Z</time></trkpt><trkpt lat="43.7571122" lon="10.7570449"><ele>64.0</ele><time>2026-04-19T14:49:10.928Z</time></trkpt><trkpt lat="43.7570575" lon="10.7569043"><ele>65.75</ele><time>2026-04-19T14:49:11.928Z</time></trkpt><trkpt lat="43.7570078" lon="10.7567602"><ele>67.5</ele><time>2026-04-19T14:49:12.928Z</time></trkpt><trkpt lat="43.7569586" lon="10.7566172"><ele>69.25</ele><time>2026-04-19T14:49:13.929Z</time></trkpt><trkpt lat="43.7569211" lon="10.7564661"><ele>71.0</ele><time>2026-04-19T14:49:14.928Z</time></trkpt><trkpt lat="43.7568945" lon="10.7563108"><ele>71.0</ele><time>2026-04-19T14:49:15.929Z</time></trkpt><trkpt lat="43.7568847" lon="10.7561468"><ele>71.0</ele><time>2026-04-19T14:49:16.928Z</time></trkpt><trkpt lat="43.7568846" lon="10.7559694"><ele>71.0</ele><time>2026-04-19T14:49:17.929Z</time></trkpt><trkpt lat="43.7568941" lon="10.7557903"><ele>71.0</ele><time>2026-04-19T14:49:18.928Z</time></trkpt><trkpt lat="43.7569179" lon="10.7556174"><ele>73.25</ele><time>2026-04-19T14:49:19.928Z</time></trkpt><trkpt lat="43.7569592" lon="10.7554448"><ele>75.5</ele><time>2026-04-19T14:49:20.928Z</time></trkpt><trkpt lat="43.7570091" lon="10.7552695"><ele>77.75</ele><time>2026-04-19T14:49:21.928Z</time></trkpt><trkpt lat="43.7570588" lon="10.7550979"><ele>80.0</ele><time>2026-04-19T14:49:22.928Z</time></trkpt><trkpt lat="43.7571066" lon="10.7549257"><ele>81.0</ele><time>2026-04-19T14:49:23.928Z</time></trkpt><trkpt lat="43.7571506" lon="10.7547616"><ele>82.0</ele><time>2026-04-19T14:49:24.928Z</time></trkpt><trkpt lat="43.7572036" lon="10.7546144"><ele>83.0</ele><time>2026-04-19T14:49:25.928Z</time></trkpt><trkpt lat="43.7572642" lon="10.754491"><ele>84.0</ele><time>2026-04-19T14:49:26.928Z</time></trkpt><trkpt lat="43.7573316" lon="10.7543929"><ele>84.0</ele><time>2026-04-19T14:49:27.928Z</time></trkpt><trkpt lat="43.7573966" lon="10.7543098"><ele>84.0</ele><time>2026-04-19T14:49:28.928Z</time></trkpt><trkpt lat="43.7574491" lon="10.7542413"><ele>84.0</ele><time>2026-04-19T14:49:29.928Z</time></trkpt><trkpt lat="43.7575071" lon="10.7541741"><ele>84.0</ele><time>2026-04-19T14:49:31.928Z</time></trkpt><trkpt lat="43.7575885" lon="10.7541522"><ele>84.0</ele><time>2026-04-19T14:49:34.928Z</time></trkpt><trkpt lat="43.7576893" lon="10.7541394"><ele>84.0</ele><time>2026-04-19T14:49:36.928Z</time></trkpt><trkpt lat="43.7577807" lon="10.7540571"><ele>84.0</ele><time>2026-04-19T14:49:38.928Z</time></trkpt><trkpt lat="43.7578182" lon="10.7538983"><ele>84.0</ele><time>2026-04-19T14:49:40.928Z</time></trkpt><trkpt lat="43.7578256" lon="10.7537929"><ele>84.0</ele><time>2026-04-19T14:49:41.928Z</time></trkpt><trkpt lat="43.7578563" lon="10.7537003"><ele>84.0</ele><time>2026-04-19T14:49:42.928Z</time></trkpt><trkpt lat="43.7579084" lon="10.7535962"><ele>84.0</ele><time>2026-04-19T14:49:43.928Z</time></trkpt><trkpt lat="43.7579746" lon="10.7534898"><ele>84.0</ele><time>2026-04-19T14:49:44.928Z</time></trkpt><trkpt lat="43.7580429" lon="10.7533878"><ele>84.0</ele><time>2026-04-19T14:49:45.928Z</time></trkpt><trkpt lat="43.7581154" lon="10.7532905"><ele>84.0</ele><time>2026-04-19T14:49:46.928Z</time></trkpt><trkpt lat="43.7581897" lon="10.7531829"><ele>84.0</ele><time>2026-04-19T14:49:47.928Z</time></trkpt><trkpt lat="43.7582705" lon="10.7530673"><ele>84.0</ele><time>2026-04-19T14:49:48.928Z</time></trkpt><trkpt lat="43.7583515" lon="10.7529535"><ele>84.0</ele><time>2026-04-19T14:49:49.928Z</time></trkpt><trkpt lat="43.7584356" lon="10.7528453"><ele>84.0</ele><time>2026-04-19T14:49:50.928Z</time></trkpt><trkpt lat="43.758521" lon="10.7527374"><ele>84.0</ele><time>2026-04-19T14:49:51.928Z</time></trkpt><trkpt lat="43.7586091" lon="10.7526221"><ele>84.0</ele><time>2026-04-19T14:49:52.928Z</time></trkpt><trkpt lat="43.7587016" lon="10.7525011"><ele>83.5</ele><time>2026-04-19T14:49:53.928Z</time></trkpt><trkpt lat="43.7587919" lon="10.7523786"><ele>83.0</ele><time>2026-04-19T14:49:54.928Z</time></trkpt><trkpt lat="43.7588848" lon="10.7522614"><ele>82.5</ele><time>2026-04-19T14:49:55.928Z</time></trkpt><trkpt lat="43.7589752" lon="10.7521331"><ele>82.0</ele><time>2026-04-19T14:49:56.928Z</time></trkpt><trkpt lat="43.7590616" lon="10.7519927"><ele>80.75</ele><time>2026-04-19T14:49:57.928Z</time></trkpt><trkpt lat="43.7591438" lon="10.7518223"><ele>79.5</ele><time>2026-04-19T14:49:58.928Z</time></trkpt><trkpt lat="43.7592246" lon="10.7516528"><ele>78.25</ele><time>2026-04-19T14:49:59.928Z</time></trkpt><trkpt lat="43.7592892" lon="10.7514732"><ele>77.0</ele><time>2026-04-19T14:50:00.928Z</time></trkpt><trkpt lat="43.7593485" lon="10.7512752"><ele>77.0</ele><time>2026-04-19T14:50:01.928Z</time></trkpt><trkpt lat="43.75941" lon="10.751058"><ele>77.0</ele><time>2026-04-19T14:50:02.928Z</time></trkpt><trkpt lat="43.759467" lon="10.7508459"><ele>77.0</ele><time>2026-04-19T14:50:03.928Z</time></trkpt><trkpt lat="43.7595314" lon="10.7506384"><ele>76.33333333333334</ele><time>2026-04-19T14:50:04.928Z</time></trkpt><trkpt lat="43.7595997" lon="10.7504326"><ele>75.66666666666667</ele><time>2026-04-19T14:50:05.928Z</time></trkpt><trkpt lat="43.7596707" lon="10.750226"><ele>75.0</ele><time>2026-04-19T14:50:06.928Z</time></trkpt><trkpt lat="43.7597542" lon="10.7500184"><ele>74.0</ele><time>2026-04-19T14:50:07.928Z</time></trkpt><trkpt lat="43.7598412" lon="10.7498158"><ele>73.0</ele><time>2026-04-19T14:50:08.928Z</time></trkpt><trkpt lat="43.7599356" lon="10.7496193"><ele>72.0</ele><time>2026-04-19T14:50:09.928Z</time></trkpt><trkpt lat="43.7600388" lon="10.7494342"><ele>72.0</ele><time>2026-04-19T14:50:10.928Z</time></trkpt><trkpt lat="43.7601405" lon="10.749251"><ele>72.0</ele><time>2026-04-19T14:50:11.928Z</time></trkpt><trkpt lat="43.7602308" lon="10.7490679"><ele>72.0</ele><time>2026-04-19T14:50:12.928Z</time></trkpt><trkpt lat="43.7603059" lon="10.7488779"><ele>72.0</ele><time>2026-04-19T14:50:13.929Z</time></trkpt><trkpt lat="43.7603683" lon="10.7486811"><ele>72.0</ele><time>2026-04-19T14:50:14.928Z</time></trkpt><trkpt lat="43.7604206" lon="10.7484754"><ele>72.0</ele><time>2026-04-19T14:50:15.928Z</time></trkpt><trkpt lat="43.7604737" lon="10.7482762"><ele>72.25</ele><time>2026-04-19T14:50:16.928Z</time></trkpt><trkpt lat="43.7605283" lon="10.7480883"><ele>72.5</ele><time>2026-04-19T14:50:17.929Z</time></trkpt><trkpt lat="43.760596" lon="10.7479046"><ele>72.75</ele><time>2026-04-19T14:50:18.928Z</time></trkpt><trkpt lat="43.7606673" lon="10.7477296"><ele>73.0</ele><time>2026-04-19T14:50:19.928Z</time></trkpt><trkpt lat="43.7607465" lon="10.7475624"><ele>73.0</ele><time>2026-04-19T14:50:20.928Z</time></trkpt><trkpt lat="43.7608315" lon="10.7474075"><ele>73.0</ele><time>2026-04-19T14:50:21.928Z</time></trkpt><trkpt lat="43.7609193" lon="10.7472531"><ele>73.0</ele><time>2026-04-19T14:50:22.928Z</time></trkpt><trkpt lat="43.7610153" lon="10.7471163"><ele>73.0</ele><time>2026-04-19T14:50:23.928Z</time></trkpt><trkpt lat="43.761121" lon="10.7469825"><ele>72.25</ele><time>2026-04-19T14:50:24.928Z</time></trkpt><trkpt lat="43.7612306" lon="10.7468652"><ele>71.5</ele><time>2026-04-19T14:50:25.928Z</time></trkpt><trkpt lat="43.7613409" lon="10.746754"><ele>70.75</ele><time>2026-04-19T14:50:26.928Z</time></trkpt><trkpt lat="43.7614529" lon="10.7466501"><ele>70.0</ele><time>2026-04-19T14:50:27.928Z</time></trkpt><trkpt lat="43.7615615" lon="10.7465491"><ele>70.0</ele><time>2026-04-19T14:50:28.928Z</time></trkpt><trkpt lat="43.7616674" lon="10.7464443"><ele>70.0</ele><time>2026-04-19T14:50:29.928Z</time></trkpt><trkpt lat="43.7617702" lon="10.746345"><ele>70.0</ele><time>2026-04-19T14:50:30.929Z</time></trkpt><trkpt lat="43.7618773" lon="10.7462497"><ele>70.0</ele><time>2026-04-19T14:50:31.929Z</time></trkpt><trkpt lat="43.7619869" lon="10.7461714"><ele>69.0</ele><time>2026-04-19T14:50:32.928Z</time></trkpt><trkpt lat="43.7620922" lon="10.7461204"><ele>68.0</ele><time>2026-04-19T14:50:33.928Z</time></trkpt><trkpt lat="43.7622008" lon="10.746101"><ele>67.0</ele><time>2026-04-19T14:50:34.928Z</time></trkpt><trkpt lat="43.762307" lon="10.746117"><ele>66.0</ele><time>2026-04-19T14:50:35.928Z</time></trkpt><trkpt lat="43.7624061" lon="10.7461731"><ele>65.0</ele><time>2026-04-19T14:50:36.928Z</time></trkpt><trkpt lat="43.7624893" lon="10.7462567"><ele>65.0</ele><time>2026-04-19T14:50:37.928Z</time></trkpt><trkpt lat="43.7625628" lon="10.7463506"><ele>65.0</ele><time>2026-04-19T14:50:38.929Z</time></trkpt><trkpt lat="43.7626432" lon="10.7464086"><ele>65.0</ele><time>2026-04-19T14:50:39.928Z</time></trkpt><trkpt lat="43.7627307" lon="10.7464279"><ele>65.0</ele><time>2026-04-19T14:50:40.928Z</time></trkpt><trkpt lat="43.762819" lon="10.7464219"><ele>65.0</ele><time>2026-04-19T14:50:41.928Z</time></trkpt><trkpt lat="43.7629066" lon="10.7463762"><ele>63.75</ele><time>2026-04-19T14:50:42.928Z</time></trkpt><trkpt lat="43.762991" lon="10.7462813"><ele>62.5</ele><time>2026-04-19T14:50:43.929Z</time></trkpt><trkpt lat="43.7630852" lon="10.7461549"><ele>61.25</ele><time>2026-04-19T14:50:44.928Z</time></trkpt><trkpt lat="43.7631807" lon="10.7460137"><ele>60.0</ele><time>2026-04-19T14:50:45.928Z</time></trkpt><trkpt lat="43.7632722" lon="10.745873"><ele>60.0</ele><time>2026-04-19T14:50:46.928Z</time></trkpt><trkpt lat="43.7633586" lon="10.7457308"><ele>60.0</ele><time>2026-04-19T14:50:47.928Z</time></trkpt><trkpt lat="43.7634449" lon="10.7455829"><ele>60.0</ele><time>2026-04-19T14:50:48.928Z</time></trkpt><trkpt lat="43.7635292" lon="10.7454245"><ele>60.0</ele><time>2026-04-19T14:50:49.928Z</time></trkpt><trkpt lat="43.7635992" lon="10.7452586"><ele>57.75</ele><time>2026-04-19T14:50:50.928Z</time></trkpt><trkpt lat="43.7636583" lon="10.7450911"><ele>55.5</ele><time>2026-04-19T14:50:51.928Z</time></trkpt><trkpt lat="43.7637271" lon="10.744906"><ele>53.25</ele><time>2026-04-19T14:50:52.928Z</time></trkpt><trkpt lat="43.7637929" lon="10.744722"><ele>51.0</ele><time>2026-04-19T14:50:53.929Z</time></trkpt><trkpt lat="43.7638559" lon="10.7445424"><ele>51.5</ele><time>2026-04-19T14:50:54.928Z</time></trkpt><trkpt lat="43.7639188" lon="10.7443759"><ele>52.0</ele><time>2026-04-19T14:50:55.928Z</time></trkpt><trkpt lat="43.7639958" lon="10.7442152"><ele>52.5</ele><time>2026-04-19T14:50:56.928Z</time></trkpt><trkpt lat="43.7640885" lon="10.7440551"><ele>53.0</ele><time>2026-04-19T14:50:57.928Z</time></trkpt><trkpt lat="43.7641891" lon="10.7439158"><ele>53.0</ele><time>2026-04-19T14:50:58.928Z</time></trkpt><trkpt lat="43.7642911" lon="10.7437902"><ele>53.0</ele><time>2026-04-19T14:50:59.928Z</time></trkpt><trkpt lat="43.7643875" lon="10.743663"><ele>53.0</ele><time>2026-04-19T14:51:00.928Z</time></trkpt><trkpt lat="43.764479" lon="10.7435376"><ele>53.0</ele><time>2026-04-19T14:51:01.929Z</time></trkpt><trkpt lat="43.7645726" lon="10.7434071"><ele>51.75</ele><time>2026-04-19T14:51:02.928Z</time></trkpt><trkpt lat="43.7646597" lon="10.7432674"><ele>50.5</ele><time>2026-04-19T14:51:03.928Z</time></trkpt><trkpt lat="43.7647357" lon="10.7431341"><ele>49.25</ele><time>2026-04-19T14:51:04.928Z</time></trkpt><trkpt lat="43.7647924" lon="10.7429882"><ele>48.0</ele><time>2026-04-19T14:51:05.928Z</time></trkpt><trkpt lat="43.7648337" lon="10.7428307"><ele>47.75</ele><time>2026-04-19T14:51:06.928Z</time></trkpt><trkpt lat="43.7648522" lon="10.7426493"><ele>47.5</ele><time>2026-04-19T14:51:07.928Z</time></trkpt><trkpt lat="43.7648541" lon="10.7424621"><ele>47.25</ele><time>2026-04-19T14:51:08.928Z</time></trkpt><trkpt lat="43.7648469" lon="10.7422656"><ele>47.0</ele><time>2026-04-19T14:51:09.928Z</time></trkpt><trkpt lat="43.7648442" lon="10.742058"><ele>47.0</ele><time>2026-04-19T14:51:10.928Z</time></trkpt><trkpt lat="43.7648424" lon="10.7418347"><ele>47.0</ele><time>2026-04-19T14:51:11.928Z</time></trkpt><trkpt lat="43.7648399" lon="10.7416154"><ele>47.0</ele><time>2026-04-19T14:51:12.928Z</time></trkpt><trkpt lat="43.7648376" lon="10.7414056"><ele>47.0</ele><time>2026-04-19T14:51:13.928Z</time></trkpt><trkpt lat="43.7648356" lon="10.7411996"><ele>47.0</ele><time>2026-04-19T14:51:14.928Z</time></trkpt><trkpt lat="43.7648312" lon="10.7409918"><ele>47.0</ele><time>2026-04-19T14:51:15.929Z</time></trkpt><trkpt lat="43.764825" lon="10.7407715"><ele>47.0</ele><time>2026-04-19T14:51:16.928Z</time></trkpt><trkpt lat="43.7648193" lon="10.740554"><ele>47.0</ele><time>2026-04-19T14:51:17.928Z</time></trkpt><trkpt lat="43.7648178" lon="10.7403464"><ele>47.0</ele><time>2026-04-19T14:51:18.928Z</time></trkpt><trkpt lat="43.7648209" lon="10.7401342"><ele>47.33333333333333</ele><time>2026-04-19T14:51:19.928Z</time></trkpt><trkpt lat="43.7648329" lon="10.7399227"><ele>47.666666666666664</ele><time>2026-04-19T14:51:20.928Z</time></trkpt><trkpt lat="43.7648543" lon="10.7397086"><ele>48.0</ele><time>2026-04-19T14:51:21.928Z</time></trkpt><trkpt lat="43.7648853" lon="10.7394887"><ele>48.0</ele><time>2026-04-19T14:51:22.928Z</time></trkpt><trkpt lat="43.76492" lon="10.7392579"><ele>48.0</ele><time>2026-04-19T14:51:23.928Z</time></trkpt><trkpt lat="43.7649546" lon="10.7390338"><ele>48.0</ele><time>2026-04-19T14:51:24.928Z</time></trkpt><trkpt lat="43.7649908" lon="10.7388254"><ele>48.0</ele><time>2026-04-19T14:51:25.928Z</time></trkpt><trkpt lat="43.7650216" lon="10.7386242"><ele>48.0</ele><time>2026-04-19T14:51:26.928Z</time></trkpt><trkpt lat="43.7650533" lon="10.7384132"><ele>48.0</ele><time>2026-04-19T14:51:27.928Z</time></trkpt><trkpt lat="43.7650866" lon="10.7381995"><ele>47.0</ele><time>2026-04-19T14:51:28.928Z</time></trkpt><trkpt lat="43.7651134" lon="10.7379851"><ele>46.0</ele><time>2026-04-19T14:51:29.928Z</time></trkpt><trkpt lat="43.7651445" lon="10.7377861"><ele>45.0</ele><time>2026-04-19T14:51:30.928Z</time></trkpt><trkpt lat="43.7651764" lon="10.7375829"><ele>47.5</ele><time>2026-04-19T14:51:31.928Z</time></trkpt><trkpt lat="43.76521" lon="10.7373822"><ele>50.0</ele><time>2026-04-19T14:51:32.928Z</time></trkpt><trkpt lat="43.7652453" lon="10.7371809"><ele>52.5</ele><time>2026-04-19T14:51:33.928Z</time></trkpt><trkpt lat="43.7652772" lon="10.7369774"><ele>55.0</ele><time>2026-04-19T14:51:34.928Z</time></trkpt><trkpt lat="43.7653125" lon="10.7367708"><ele>55.0</ele><time>2026-04-19T14:51:35.928Z</time></trkpt><trkpt lat="43.765346" lon="10.7365634"><ele>55.0</ele><time>2026-04-19T14:51:36.928Z</time></trkpt><trkpt lat="43.765378" lon="10.7363553"><ele>55.0</ele><time>2026-04-19T14:51:37.928Z</time></trkpt><trkpt lat="43.7654134" lon="10.7361405"><ele>54.33333333333333</ele><time>2026-04-19T14:51:38.928Z</time></trkpt><trkpt lat="43.7654512" lon="10.7359248"><ele>53.66666666666667</ele><time>2026-04-19T14:51:39.929Z</time></trkpt><trkpt lat="43.7654847" lon="10.735714"><ele>53.0</ele><time>2026-04-19T14:51:40.928Z</time></trkpt><trkpt lat="43.7655148" lon="10.7355137"><ele>53.0</ele><time>2026-04-19T14:51:41.929Z</time></trkpt><trkpt lat="43.7655344" lon="10.7353177"><ele>53.0</ele><time>2026-04-19T14:51:42.928Z</time></trkpt><trkpt lat="43.7655453" lon="10.7351282"><ele>53.0</ele><time>2026-04-19T14:51:43.928Z</time></trkpt><trkpt lat="43.7655379" lon="10.7349501"><ele>53.0</ele><time>2026-04-19T14:51:44.928Z</time></trkpt><trkpt lat="43.7655234" lon="10.7347657"><ele>53.25</ele><time>2026-04-19T14:51:45.928Z</time></trkpt><trkpt lat="43.765503" lon="10.7345777"><ele>53.5</ele><time>2026-04-19T14:51:46.928Z</time></trkpt><trkpt lat="43.7654839" lon="10.7343875"><ele>53.75</ele><time>2026-04-19T14:51:47.928Z</time></trkpt><trkpt lat="43.7654793" lon="10.7341972"><ele>54.0</ele><time>2026-04-19T14:51:48.928Z</time></trkpt><trkpt lat="43.7654894" lon="10.7339955"><ele>54.0</ele><time>2026-04-19T14:51:49.928Z</time></trkpt><trkpt lat="43.7655181" lon="10.7337934"><ele>54.0</ele><time>2026-04-19T14:51:50.928Z</time></trkpt><trkpt lat="43.7655695" lon="10.7335923"><ele>54.0</ele><time>2026-04-19T14:51:51.928Z</time></trkpt><trkpt lat="43.7656369" lon="10.7334013"><ele>53.75</ele><time>2026-04-19T14:51:52.928Z</time></trkpt><trkpt lat="43.7657194" lon="10.7332252"><ele>53.5</ele><time>2026-04-19T14:51:53.928Z</time></trkpt><trkpt lat="43.765803" lon="10.7330644"><ele>53.25</ele><time>2026-04-19T14:51:54.928Z</time></trkpt><trkpt lat="43.7658881" lon="10.7329158"><ele>53.0</ele><time>2026-04-19T14:51:55.928Z</time></trkpt><trkpt lat="43.7659789" lon="10.7327621"><ele>53.0</ele><time>2026-04-19T14:51:56.928Z</time></trkpt><trkpt lat="43.7660667" lon="10.7325954"><ele>53.0</ele><time>2026-04-19T14:51:57.928Z</time></trkpt><trkpt lat="43.7661517" lon="10.73243"><ele>53.0</ele><time>2026-04-19T14:51:58.928Z</time></trkpt><trkpt lat="43.766244" lon="10.7322584"><ele>53.0</ele><time>2026-04-19T14:51:59.928Z</time></trkpt><trkpt lat="43.7663357" lon="10.7320837"><ele>53.0</ele><time>2026-04-19T14:52:00.928Z</time></trkpt><trkpt lat="43.7664298" lon="10.7319124"><ele>53.0</ele><time>2026-04-19T14:52:01.928Z</time></trkpt><trkpt lat="43.7665193" lon="10.7317421"><ele>52.333333333333336</ele><time>2026-04-19T14:52:02.928Z</time></trkpt><trkpt lat="43.7666054" lon="10.7315685"><ele>51.66666666666667</ele><time>2026-04-19T14:52:03.928Z</time></trkpt><trkpt lat="43.7666975" lon="10.7313985"><ele>51.0</ele><time>2026-04-19T14:52:04.928Z</time></trkpt><trkpt lat="43.7667867" lon="10.7312264"><ele>50.33333333333333</ele><time>2026-04-19T14:52:05.929Z</time></trkpt><trkpt lat="43.7668753" lon="10.7310552"><ele>49.666666666666664</ele><time>2026-04-19T14:52:06.928Z</time></trkpt><trkpt lat="43.7669585" lon="10.7308787"><ele>49.0</ele><time>2026-04-19T14:52:07.928Z</time></trkpt><trkpt lat="43.767041" lon="10.7306899"><ele>49.0</ele><time>2026-04-19T14:52:08.928Z</time></trkpt><trkpt lat="43.7671148" lon="10.7304777"><ele>49.0</ele><time>2026-04-19T14:52:09.928Z</time></trkpt><trkpt lat="43.7671839" lon="10.7302558"><ele>49.0</ele><time>2026-04-19T14:52:10.928Z</time></trkpt><trkpt lat="43.767241" lon="10.7300284"><ele>48.666666666666664</ele><time>2026-04-19T14:52:11.928Z</time></trkpt><trkpt lat="43.7672987" lon="10.7297955"><ele>48.33333333333333</ele><time>2026-04-19T14:52:12.928Z</time></trkpt><trkpt lat="43.767357" lon="10.7295702"><ele>48.0</ele><time>2026-04-19T14:52:13.928Z</time></trkpt><trkpt lat="43.7674158" lon="10.7293483"><ele>48.0</ele><time>2026-04-19T14:52:14.928Z</time></trkpt><trkpt lat="43.7674833" lon="10.7291292"><ele>48.0</ele><time>2026-04-19T14:52:15.928Z</time></trkpt><trkpt lat="43.7675476" lon="10.7289269"><ele>48.0</ele><time>2026-04-19T14:52:16.928Z</time></trkpt><trkpt lat="43.7676162" lon="10.7287308"><ele>47.666666666666664</ele><time>2026-04-19T14:52:17.929Z</time></trkpt><trkpt lat="43.7676913" lon="10.7285466"><ele>47.33333333333333</ele><time>2026-04-19T14:52:18.928Z</time></trkpt><trkpt lat="43.7677663" lon="10.7283609"><ele>47.0</ele><time>2026-04-19T14:52:19.929Z</time></trkpt><trkpt lat="43.7678278" lon="10.7281726"><ele>45.33333333333333</ele><time>2026-04-19T14:52:20.929Z</time></trkpt><trkpt lat="43.7678831" lon="10.7279653"><ele>43.666666666666664</ele><time>2026-04-19T14:52:21.929Z</time></trkpt><trkpt lat="43.7679319" lon="10.7277444"><ele>42.0</ele><time>2026-04-19T14:52:22.928Z</time></trkpt><trkpt lat="43.7679851" lon="10.7275329"><ele>40.666666666666664</ele><time>2026-04-19T14:52:23.929Z</time></trkpt><trkpt lat="43.7680408" lon="10.7273277"><ele>39.33333333333333</ele><time>2026-04-19T14:52:24.928Z</time></trkpt><trkpt lat="43.7680992" lon="10.7271239"><ele>38.0</ele><time>2026-04-19T14:52:25.928Z</time></trkpt><trkpt lat="43.7681604" lon="10.726932"><ele>37.0</ele><time>2026-04-19T14:52:26.928Z</time></trkpt><trkpt lat="43.7682264" lon="10.7267444"><ele>36.0</ele><time>2026-04-19T14:52:27.928Z</time></trkpt><trkpt lat="43.7683027" lon="10.7265553"><ele>35.0</ele><time>2026-04-19T14:52:28.928Z</time></trkpt><trkpt lat="43.7683817" lon="10.7263794"><ele>35.0</ele><time>2026-04-19T14:52:29.929Z</time></trkpt><trkpt lat="43.7684693" lon="10.7262043"><ele>35.0</ele><time>2026-04-19T14:52:30.928Z</time></trkpt><trkpt lat="43.768562" lon="10.7260412"><ele>35.0</ele><time>2026-04-19T14:52:31.928Z</time></trkpt><trkpt lat="43.768662" lon="10.725899"><ele>35.0</ele><time>2026-04-19T14:52:32.928Z</time></trkpt><trkpt lat="43.768762" lon="10.7257747"><ele>35.75</ele><time>2026-04-19T14:52:33.928Z</time></trkpt><trkpt lat="43.7688693" lon="10.7256868"><ele>36.5</ele><time>2026-04-19T14:52:34.928Z</time></trkpt><trkpt lat="43.7689766" lon="10.7256286"><ele>37.25</ele><time>2026-04-19T14:52:35.928Z</time></trkpt><trkpt lat="43.7690975" lon="10.7255862"><ele>38.0</ele><time>2026-04-19T14:52:36.928Z</time></trkpt><trkpt lat="43.7692282" lon="10.7255612"><ele>39.25</ele><time>2026-04-19T14:52:37.928Z</time></trkpt><trkpt lat="43.7693696" lon="10.7255503"><ele>40.5</ele><time>2026-04-19T14:52:38.928Z</time></trkpt><trkpt lat="43.7695153" lon="10.7255399"><ele>41.75</ele><time>2026-04-19T14:52:39.928Z</time></trkpt><trkpt lat="43.7696684" lon="10.7255263"><ele>43.0</ele><time>2026-04-19T14:52:40.928Z</time></trkpt><trkpt lat="43.7698251" lon="10.7255099"><ele>43.0</ele><time>2026-04-19T14:52:41.928Z</time></trkpt><trkpt lat="43.7699882" lon="10.7255036"><ele>43.0</ele><time>2026-04-19T14:52:42.928Z</time></trkpt><trkpt lat="43.770146" lon="10.7254943"><ele>43.0</ele><time>2026-04-19T14:52:43.928Z</time></trkpt><trkpt lat="43.7703058" lon="10.7254849"><ele>42.333333333333336</ele><time>2026-04-19T14:52:44.928Z</time></trkpt><trkpt lat="43.770461" lon="10.7254777"><ele>41.666666666666664</ele><time>2026-04-19T14:52:45.928Z</time></trkpt><trkpt lat="43.7706194" lon="10.7254684"><ele>41.0</ele><time>2026-04-19T14:52:46.928Z</time></trkpt><trkpt lat="43.7707784" lon="10.725462"><ele>41.0</ele><time>2026-04-19T14:52:47.928Z</time></trkpt><trkpt lat="43.7709415" lon="10.7254515"><ele>41.0</ele><time>2026-04-19T14:52:48.928Z</time></trkpt><trkpt lat="43.7711022" lon="10.7254427"><ele>41.0</ele><time>2026-04-19T14:52:49.928Z</time></trkpt><trkpt lat="43.7712604" lon="10.7254241"><ele>41.666666666666664</ele><time>2026-04-19T14:52:50.928Z</time></trkpt><trkpt lat="43.7714242" lon="10.7254223"><ele>42.333333333333336</ele><time>2026-04-19T14:52:51.928Z</time></trkpt><trkpt lat="43.7715842" lon="10.7254171"><ele>43.0</ele><time>2026-04-19T14:52:52.928Z</time></trkpt><trkpt lat="43.771741" lon="10.7254079"><ele>43.0</ele><time>2026-04-19T14:52:53.928Z</time></trkpt><trkpt lat="43.7718962" lon="10.7253959"><ele>43.0</ele><time>2026-04-19T14:52:54.928Z</time></trkpt><trkpt lat="43.7720515" lon="10.7253867"><ele>43.0</ele><time>2026-04-19T14:52:55.928Z</time></trkpt><trkpt lat="43.7722104" lon="10.7253735"><ele>43.0</ele><time>2026-04-19T14:52:56.928Z</time></trkpt><trkpt lat="43.7723654" lon="10.7253635"><ele>43.0</ele><time>2026-04-19T14:52:57.928Z</time></trkpt><trkpt lat="43.7725203" lon="10.7253545"><ele>43.0</ele><time>2026-04-19T14:52:58.928Z</time></trkpt><trkpt lat="43.7726807" lon="10.7253492"><ele>42.66666666666667</ele><time>2026-04-19T14:52:59.928Z</time></trkpt><trkpt lat="43.7728562" lon="10.725339"><ele>42.333333333333336</ele><time>2026-04-19T14:53:00.928Z</time></trkpt><trkpt lat="43.7730414" lon="10.7253284"><ele>42.0</ele><time>2026-04-19T14:53:01.928Z</time></trkpt><trkpt lat="43.7732292" lon="10.7253236"><ele>42.0</ele><time>2026-04-19T14:53:02.928Z</time></trkpt><trkpt lat="43.7734085" lon="10.7253175"><ele>42.0</ele><time>2026-04-19T14:53:03.928Z</time></trkpt><trkpt lat="43.7735866" lon="10.7253055"><ele>42.0</ele><time>2026-04-19T14:53:04.928Z</time></trkpt><trkpt lat="43.7737642" lon="10.725293"><ele>42.0</ele><time>2026-04-19T14:53:05.928Z</time></trkpt><trkpt lat="43.7739409" lon="10.725283"><ele>42.0</ele><time>2026-04-19T14:53:06.928Z</time></trkpt><trkpt lat="43.7741078" lon="10.7252733"><ele>42.0</ele><time>2026-04-19T14:53:07.928Z</time></trkpt><trkpt lat="43.7742712" lon="10.7252481"><ele>42.0</ele><time>2026-04-19T14:53:08.928Z</time></trkpt><trkpt lat="43.7744372" lon="10.7252079"><ele>42.0</ele><time>2026-04-19T14:53:09.928Z</time></trkpt><trkpt lat="43.7746024" lon="10.7251519"><ele>42.0</ele><time>2026-04-19T14:53:10.928Z</time></trkpt><trkpt lat="43.7747644" lon="10.7250824"><ele>42.0</ele><time>2026-04-19T14:53:11.928Z</time></trkpt><trkpt lat="43.7749172" lon="10.7250104"><ele>42.0</ele><time>2026-04-19T14:53:12.928Z</time></trkpt><trkpt lat="43.7750675" lon="10.7249262"><ele>42.0</ele><time>2026-04-19T14:53:13.928Z</time></trkpt><trkpt lat="43.7752142" lon="10.7248343"><ele>42.0</ele><time>2026-04-19T14:53:14.928Z</time></trkpt><trkpt lat="43.7753554" lon="10.7247282"><ele>42.0</ele><time>2026-04-19T14:53:15.928Z</time></trkpt><trkpt lat="43.775493" lon="10.7246072"><ele>42.0</ele><time>2026-04-19T14:53:16.928Z</time></trkpt><trkpt lat="43.7756293" lon="10.7244689"><ele>42.333333333333336</ele><time>2026-04-19T14:53:17.928Z</time></trkpt><trkpt lat="43.7757651" lon="10.7243158"><ele>42.66666666666667</ele><time>2026-04-19T14:53:18.928Z</time></trkpt><trkpt lat="43.7758985" lon="10.7241471"><ele>43.0</ele><time>2026-04-19T14:53:19.928Z</time></trkpt><trkpt lat="43.7760278" lon="10.7239564"><ele>43.0</ele><time>2026-04-19T14:53:20.928Z</time></trkpt><trkpt lat="43.7761536" lon="10.7237578"><ele>43.0</ele><time>2026-04-19T14:53:21.929Z</time></trkpt><trkpt lat="43.7762755" lon="10.7235617"><ele>43.0</ele><time>2026-04-19T14:53:22.928Z</time></trkpt><trkpt lat="43.7763993" lon="10.7233629"><ele>41.0</ele><time>2026-04-19T14:53:23.928Z</time></trkpt><trkpt lat="43.7765233" lon="10.7231591"><ele>39.0</ele><time>2026-04-19T14:53:24.928Z</time></trkpt><trkpt lat="43.7766462" lon="10.7229572"><ele>37.0</ele><time>2026-04-19T14:53:25.928Z</time></trkpt><trkpt lat="43.7767724" lon="10.7227551"><ele>34.66666666666667</ele><time>2026-04-19T14:53:26.928Z</time></trkpt><trkpt lat="43.7769027" lon="10.7225544"><ele>32.333333333333336</ele><time>2026-04-19T14:53:27.929Z</time></trkpt><trkpt lat="43.7770303" lon="10.7223549"><ele>30.0</ele><time>2026-04-19T14:53:28.928Z</time></trkpt><trkpt lat="43.7771579" lon="10.7221501"><ele>30.0</ele><time>2026-04-19T14:53:29.928Z</time></trkpt><trkpt lat="43.7772882" lon="10.7219385"><ele>30.0</ele><time>2026-04-19T14:53:30.928Z</time></trkpt><trkpt lat="43.7774161" lon="10.7217298"><ele>30.0</ele><time>2026-04-19T14:53:31.928Z</time></trkpt><trkpt lat="43.7775479" lon="10.7215253"><ele>30.0</ele><time>2026-04-19T14:53:32.928Z</time></trkpt><trkpt lat="43.7776765" lon="10.721311"><ele>30.0</ele><time>2026-04-19T14:53:33.928Z</time></trkpt><trkpt lat="43.7778005" lon="10.7210902"><ele>30.0</ele><time>2026-04-19T14:53:34.928Z</time></trkpt><trkpt lat="43.7779199" lon="10.7208657"><ele>30.0</ele><time>2026-04-19T14:53:35.928Z</time></trkpt><trkpt lat="43.7780289" lon="10.7206431"><ele>30.0</ele><time>2026-04-19T14:53:36.928Z</time></trkpt><trkpt lat="43.7781333" lon="10.7204284"><ele>30.0</ele><time>2026-04-19T14:53:37.928Z</time></trkpt><trkpt lat="43.7782384" lon="10.7202134"><ele>29.333333333333336</ele><time>2026-04-19T14:53:38.928Z</time></trkpt><trkpt lat="43.7783456" lon="10.7200022"><ele>28.666666666666668</ele><time>2026-04-19T14:53:39.929Z</time></trkpt><trkpt lat="43.7784458" lon="10.7198025"><ele>28.0</ele><time>2026-04-19T14:53:40.928Z</time></trkpt><trkpt lat="43.7785426" lon="10.7196091"><ele>27.333333333333336</ele><time>2026-04-19T14:53:41.928Z</time></trkpt><trkpt lat="43.7786345" lon="10.7194245"><ele>26.666666666666664</ele><time>2026-04-19T14:53:42.928Z</time></trkpt><trkpt lat="43.7787216" lon="10.7192461"><ele>26.0</ele><time>2026-04-19T14:53:43.928Z</time></trkpt><trkpt lat="43.7788098" lon="10.7190735"><ele>26.0</ele><time>2026-04-19T14:53:44.928Z</time></trkpt><trkpt lat="43.7788988" lon="10.7189039"><ele>26.0</ele><time>2026-04-19T14:53:45.928Z</time></trkpt><trkpt lat="43.7789885" lon="10.7187249"><ele>26.0</ele><time>2026-04-19T14:53:46.928Z</time></trkpt><trkpt lat="43.7790685" lon="10.7185536"><ele>26.0</ele><time>2026-04-19T14:53:47.928Z</time></trkpt><trkpt lat="43.7791508" lon="10.7183839"><ele>26.0</ele><time>2026-04-19T14:53:48.928Z</time></trkpt><trkpt lat="43.7792328" lon="10.7182208"><ele>26.0</ele><time>2026-04-19T14:53:49.928Z</time></trkpt><trkpt lat="43.7793124" lon="10.7180568"><ele>26.0</ele><time>2026-04-19T14:53:50.928Z</time></trkpt><trkpt lat="43.7793967" lon="10.7178947"><ele>24.666666666666664</ele><time>2026-04-19T14:53:51.928Z</time></trkpt><trkpt lat="43.7794898" lon="10.7177355"><ele>23.333333333333332</ele><time>2026-04-19T14:53:52.928Z</time></trkpt><trkpt lat="43.7795897" lon="10.7175802"><ele>22.0</ele><time>2026-04-19T14:53:53.928Z</time></trkpt><trkpt lat="43.7796973" lon="10.7174286"><ele>21.0</ele><time>2026-04-19T14:53:54.928Z</time></trkpt><trkpt lat="43.7798168" lon="10.7172892"><ele>20.0</ele><time>2026-04-19T14:53:55.928Z</time></trkpt><trkpt lat="43.779932" lon="10.7171659"><ele>19.0</ele><time>2026-04-19T14:53:56.928Z</time></trkpt><trkpt lat="43.7800564" lon="10.7170541"><ele>19.0</ele><time>2026-04-19T14:53:57.928Z</time></trkpt><trkpt lat="43.7801807" lon="10.7169634"><ele>19.0</ele><time>2026-04-19T14:53:58.928Z</time></trkpt><trkpt lat="43.7803102" lon="10.7168802"><ele>19.0</ele><time>2026-04-19T14:53:59.928Z</time></trkpt><trkpt lat="43.7804509" lon="10.7168109"><ele>19.0</ele><time>2026-04-19T14:54:00.928Z</time></trkpt><trkpt lat="43.7805928" lon="10.716752"><ele>18.5</ele><time>2026-04-19T14:54:01.928Z</time></trkpt><trkpt lat="43.7807336" lon="10.716697"><ele>18.0</ele><time>2026-04-19T14:54:02.929Z</time></trkpt><trkpt lat="43.7808629" lon="10.7166497"><ele>17.5</ele><time>2026-04-19T14:54:03.928Z</time></trkpt><trkpt lat="43.7809922" lon="10.716605"><ele>17.0</ele><time>2026-04-19T14:54:04.928Z</time></trkpt><trkpt lat="43.7811175" lon="10.7165651"><ele>16.5</ele><time>2026-04-19T14:54:05.928Z</time></trkpt><trkpt lat="43.7812483" lon="10.716518"><ele>16.0</ele><time>2026-04-19T14:54:06.928Z</time></trkpt><trkpt lat="43.7813774" lon="10.7164782"><ele>15.5</ele><time>2026-04-19T14:54:07.928Z</time></trkpt><trkpt lat="43.7815083" lon="10.7164296"><ele>15.0</ele><time>2026-04-19T14:54:08.928Z</time></trkpt><trkpt lat="43.7816389" lon="10.7163865"><ele>15.0</ele><time>2026-04-19T14:54:09.928Z</time></trkpt><trkpt lat="43.7817711" lon="10.716344"><ele>15.0</ele><time>2026-04-19T14:54:10.928Z</time></trkpt><trkpt lat="43.7819087" lon="10.7162971"><ele>15.0</ele><time>2026-04-19T14:54:11.929Z</time></trkpt><trkpt lat="43.7820442" lon="10.7162537"><ele>15.0</ele><time>2026-04-19T14:54:12.928Z</time></trkpt><trkpt lat="43.7821765" lon="10.7162085"><ele>15.0</ele><time>2026-04-19T14:54:13.929Z</time></trkpt><trkpt lat="43.782309" lon="10.7161631"><ele>15.0</ele><time>2026-04-19T14:54:14.928Z</time></trkpt><trkpt lat="43.7824409" lon="10.7161203"><ele>15.0</ele><time>2026-04-19T14:54:15.928Z</time></trkpt><trkpt lat="43.7825738" lon="10.7160712"><ele>15.0</ele><time>2026-04-19T14:54:16.928Z</time></trkpt><trkpt lat="43.7827025" lon="10.7160275"><ele>16.25</ele><time>2026-04-19T14:54:17.928Z</time></trkpt><trkpt lat="43.7828286" lon="10.7159762"><ele>17.5</ele><time>2026-04-19T14:54:18.928Z</time></trkpt><trkpt lat="43.782951" lon="10.7159176"><ele>18.75</ele><time>2026-04-19T14:54:19.928Z</time></trkpt><trkpt lat="43.7830754" lon="10.7158436"><ele>20.0</ele><time>2026-04-19T14:54:20.928Z</time></trkpt><trkpt lat="43.7832032" lon="10.7157552"><ele>20.0</ele><time>2026-04-19T14:54:21.928Z</time></trkpt><trkpt lat="43.7833257" lon="10.7156549"><ele>20.0</ele><time>2026-04-19T14:54:22.928Z</time></trkpt><trkpt lat="43.7834412" lon="10.7155403"><ele>20.0</ele><time>2026-04-19T14:54:23.928Z</time></trkpt><trkpt lat="43.7835485" lon="10.7154171"><ele>20.0</ele><time>2026-04-19T14:54:24.928Z</time></trkpt><trkpt lat="43.7836423" lon="10.7152905"><ele>20.75</ele><time>2026-04-19T14:54:25.928Z</time></trkpt><trkpt lat="43.7837278" lon="10.7151532"><ele>21.5</ele><time>2026-04-19T14:54:26.928Z</time></trkpt><trkpt lat="43.7838041" lon="10.7149972"><ele>22.25</ele><time>2026-04-19T14:54:27.928Z</time></trkpt><trkpt lat="43.7838786" lon="10.7148216"><ele>23.0</ele><time>2026-04-19T14:54:28.928Z</time></trkpt><trkpt lat="43.7839503" lon="10.7146199"><ele>23.0</ele><time>2026-04-19T14:54:29.928Z</time></trkpt><trkpt lat="43.7840211" lon="10.7144202"><ele>23.0</ele><time>2026-04-19T14:54:30.928Z</time></trkpt><trkpt lat="43.7840836" lon="10.7142176"><ele>23.0</ele><time>2026-04-19T14:54:31.928Z</time></trkpt><trkpt lat="43.7841449" lon="10.7140115"><ele>25.0</ele><time>2026-04-19T14:54:32.928Z</time></trkpt><trkpt lat="43.78421" lon="10.713811"><ele>27.0</ele><time>2026-04-19T14:54:33.928Z</time></trkpt><trkpt lat="43.7842733" lon="10.7136183"><ele>29.0</ele><time>2026-04-19T14:54:34.928Z</time></trkpt><trkpt lat="43.7843438" lon="10.7134285"><ele>31.0</ele><time>2026-04-19T14:54:35.928Z</time></trkpt><trkpt lat="43.7844327" lon="10.7132439"><ele>33.0</ele><time>2026-04-19T14:54:36.928Z</time></trkpt><trkpt lat="43.7845299" lon="10.7130725"><ele>35.0</ele><time>2026-04-19T14:54:37.929Z</time></trkpt><trkpt lat="43.7846463" lon="10.712917"><ele>35.0</ele><time>2026-04-19T14:54:38.928Z</time></trkpt><trkpt lat="43.7847656" lon="10.7127783"><ele>35.0</ele><time>2026-04-19T14:54:39.928Z</time></trkpt><trkpt lat="43.784891" lon="10.7126493"><ele>35.0</ele><time>2026-04-19T14:54:40.928Z</time></trkpt><trkpt lat="43.7850249" lon="10.7125256"><ele>35.0</ele><time>2026-04-19T14:54:41.928Z</time></trkpt><trkpt lat="43.7851581" lon="10.7124056"><ele>35.0</ele><time>2026-04-19T14:54:42.928Z</time></trkpt><trkpt lat="43.7852913" lon="10.7122848"><ele>35.0</ele><time>2026-04-19T14:54:43.928Z</time></trkpt><trkpt lat="43.7854236" lon="10.7121637"><ele>35.0</ele><time>2026-04-19T14:54:44.929Z</time></trkpt><trkpt lat="43.7855561" lon="10.7120449"><ele>35.0</ele><time>2026-04-19T14:54:45.928Z</time></trkpt><trkpt lat="43.7856869" lon="10.7119189"><ele>35.0</ele><time>2026-04-19T14:54:46.928Z</time></trkpt><trkpt lat="43.7858149" lon="10.7117984"><ele>35.0</ele><time>2026-04-19T14:54:47.928Z</time></trkpt><trkpt lat="43.7859425" lon="10.7116799"><ele>35.0</ele><time>2026-04-19T14:54:48.928Z</time></trkpt><trkpt lat="43.7860701" lon="10.7115587"><ele>35.0</ele><time>2026-04-19T14:54:49.928Z</time></trkpt><trkpt lat="43.7861987" lon="10.7114417"><ele>35.0</ele><time>2026-04-19T14:54:50.929Z</time></trkpt><trkpt lat="43.7863274" lon="10.7113223"><ele>35.0</ele><time>2026-04-19T14:54:51.928Z</time></trkpt><trkpt lat="43.7864527" lon="10.7112028"><ele>35.0</ele><time>2026-04-19T14:54:52.928Z</time></trkpt><trkpt lat="43.7865786" lon="10.7110803"><ele>34.33333333333333</ele><time>2026-04-19T14:54:53.928Z</time></trkpt><trkpt lat="43.7867009" lon="10.7109547"><ele>33.666666666666664</ele><time>2026-04-19T14:54:54.928Z</time></trkpt><trkpt lat="43.7868207" lon="10.7108289"><ele>33.0</ele><time>2026-04-19T14:54:55.928Z</time></trkpt><trkpt lat="43.78694" lon="10.7107004"><ele>34.333333333333336</ele><time>2026-04-19T14:54:56.928Z</time></trkpt><trkpt lat="43.7870666" lon="10.710568"><ele>35.66666666666667</ele><time>2026-04-19T14:54:57.928Z</time></trkpt><trkpt lat="43.7871901" lon="10.7104368"><ele>37.0</ele><time>2026-04-19T14:54:58.928Z</time></trkpt><trkpt lat="43.7873161" lon="10.7103026"><ele>36.66666666666667</ele><time>2026-04-19T14:54:59.928Z</time></trkpt><trkpt lat="43.7874403" lon="10.7101726"><ele>36.333333333333336</ele><time>2026-04-19T14:55:00.928Z</time></trkpt><trkpt lat="43.7875642" lon="10.710046"><ele>36.0</ele><time>2026-04-19T14:55:01.928Z</time></trkpt><trkpt lat="43.7876907" lon="10.7099147"><ele>36.0</ele><time>2026-04-19T14:55:02.928Z</time></trkpt><trkpt lat="43.7878115" lon="10.7097787"><ele>36.0</ele><time>2026-04-19T14:55:03.928Z</time></trkpt><trkpt lat="43.7879373" lon="10.7096408"><ele>36.0</ele><time>2026-04-19T14:55:04.928Z</time></trkpt><trkpt lat="43.7880613" lon="10.7095006"><ele>35.333333333333336</ele><time>2026-04-19T14:55:05.929Z</time></trkpt><trkpt lat="43.7881847" lon="10.7093613"><ele>34.66666666666667</ele><time>2026-04-19T14:55:06.928Z</time></trkpt><trkpt lat="43.788309" lon="10.7092167"><ele>34.0</ele><time>2026-04-19T14:55:07.928Z</time></trkpt><trkpt lat="43.7884317" lon="10.7090714"><ele>34.0</ele><time>2026-04-19T14:55:08.928Z</time></trkpt><trkpt lat="43.7885551" lon="10.7089245"><ele>34.0</ele><time>2026-04-19T14:55:09.928Z</time></trkpt><trkpt lat="43.7886711" lon="10.7087811"><ele>34.0</ele><time>2026-04-19T14:55:10.928Z</time></trkpt><trkpt lat="43.7887886" lon="10.7086319"><ele>33.66666666666667</ele><time>2026-04-19T14:55:11.929Z</time></trkpt><trkpt lat="43.7889054" lon="10.708485"><ele>33.333333333333336</ele><time>2026-04-19T14:55:12.928Z</time></trkpt><trkpt lat="43.7890259" lon="10.7083368"><ele>33.0</ele><time>2026-04-19T14:55:13.928Z</time></trkpt><trkpt lat="43.7891441" lon="10.7081896"><ele>33.0</ele><time>2026-04-19T14:55:14.928Z</time></trkpt><trkpt lat="43.7892616" lon="10.7080409"><ele>33.0</ele><time>2026-04-19T14:55:15.928Z</time></trkpt><trkpt lat="43.7893819" lon="10.7078963"><ele>33.0</ele><time>2026-04-19T14:55:16.928Z</time></trkpt><trkpt lat="43.7895044" lon="10.707756"><ele>33.0</ele><time>2026-04-19T14:55:17.928Z</time></trkpt><trkpt lat="43.7896248" lon="10.7076112"><ele>33.0</ele><time>2026-04-19T14:55:18.928Z</time></trkpt><trkpt lat="43.7897522" lon="10.7074671"><ele>33.0</ele><time>2026-04-19T14:55:19.928Z</time></trkpt><trkpt lat="43.7898833" lon="10.7073242"><ele>33.0</ele><time>2026-04-19T14:55:20.928Z</time></trkpt><trkpt lat="43.7900086" lon="10.707188"><ele>33.0</ele><time>2026-04-19T14:55:21.928Z</time></trkpt><trkpt lat="43.7901372" lon="10.7070549"><ele>33.0</ele><time>2026-04-19T14:55:22.928Z</time></trkpt><trkpt lat="43.7902603" lon="10.7069177"><ele>33.0</ele><time>2026-04-19T14:55:23.928Z</time></trkpt><trkpt lat="43.7903911" lon="10.7067807"><ele>33.0</ele><time>2026-04-19T14:55:24.928Z</time></trkpt><trkpt lat="43.7905137" lon="10.7066331"><ele>33.0</ele><time>2026-04-19T14:55:25.928Z</time></trkpt><trkpt lat="43.7906244" lon="10.7064812"><ele>33.0</ele><time>2026-04-19T14:55:26.928Z</time></trkpt><trkpt lat="43.7907331" lon="10.7063288"><ele>33.0</ele><time>2026-04-19T14:55:27.928Z</time></trkpt><trkpt lat="43.7908355" lon="10.7061874"><ele>33.0</ele><time>2026-04-19T14:55:28.928Z</time></trkpt><trkpt lat="43.7909314" lon="10.7060489"><ele>33.0</ele><time>2026-04-19T14:55:29.928Z</time></trkpt><trkpt lat="43.7910182" lon="10.7059153"><ele>32.75</ele><time>2026-04-19T14:55:30.928Z</time></trkpt><trkpt lat="43.7911058" lon="10.7057798"><ele>32.5</ele><time>2026-04-19T14:55:31.928Z</time></trkpt><trkpt lat="43.7911976" lon="10.7056442"><ele>32.25</ele><time>2026-04-19T14:55:32.928Z</time></trkpt><trkpt lat="43.7912956" lon="10.7054982"><ele>32.0</ele><time>2026-04-19T14:55:33.928Z</time></trkpt><trkpt lat="43.7913984" lon="10.705346"><ele>32.666666666666664</ele><time>2026-04-19T14:55:34.928Z</time></trkpt><trkpt lat="43.7915056" lon="10.7051907"><ele>33.333333333333336</ele><time>2026-04-19T14:55:35.928Z</time></trkpt><trkpt lat="43.7916163" lon="10.7050363"><ele>34.0</ele><time>2026-04-19T14:55:36.928Z</time></trkpt><trkpt lat="43.7917339" lon="10.7048802"><ele>33.333333333333336</ele><time>2026-04-19T14:55:37.928Z</time></trkpt><trkpt lat="43.7918542" lon="10.7047315"><ele>32.666666666666664</ele><time>2026-04-19T14:55:38.928Z</time></trkpt><trkpt lat="43.7919759" lon="10.7045857"><ele>32.0</ele><time>2026-04-19T14:55:39.928Z</time></trkpt><trkpt lat="43.7921032" lon="10.7044446"><ele>32.33333333333333</ele><time>2026-04-19T14:55:40.928Z</time></trkpt><trkpt lat="43.7922326" lon="10.7043095"><ele>32.666666666666664</ele><time>2026-04-19T14:55:41.929Z</time></trkpt><trkpt lat="43.7923589" lon="10.7041756"><ele>33.0</ele><time>2026-04-19T14:55:42.928Z</time></trkpt><trkpt lat="43.7924891" lon="10.7040413"><ele>33.0</ele><time>2026-04-19T14:55:43.928Z</time></trkpt><trkpt lat="43.7926195" lon="10.7039167"><ele>33.0</ele><time>2026-04-19T14:55:44.929Z</time></trkpt><trkpt lat="43.7927483" lon="10.7037864"><ele>33.0</ele><time>2026-04-19T14:55:45.929Z</time></trkpt><trkpt lat="43.7928713" lon="10.7036542"><ele>32.333333333333336</ele><time>2026-04-19T14:55:46.929Z</time></trkpt><trkpt lat="43.7929946" lon="10.7035168"><ele>31.666666666666668</ele><time>2026-04-19T14:55:47.928Z</time></trkpt><trkpt lat="43.7931212" lon="10.7033774"><ele>31.0</ele><time>2026-04-19T14:55:48.928Z</time></trkpt><trkpt lat="43.7932445" lon="10.7032326"><ele>31.0</ele><time>2026-04-19T14:55:49.928Z</time></trkpt><trkpt lat="43.7933692" lon="10.7030975"><ele>31.0</ele><time>2026-04-19T14:55:50.928Z</time></trkpt><trkpt lat="43.7934936" lon="10.7029589"><ele>31.0</ele><time>2026-04-19T14:55:51.929Z</time></trkpt><trkpt lat="43.7936169" lon="10.7028166"><ele>31.0</ele><time>2026-04-19T14:55:52.928Z</time></trkpt><trkpt lat="43.7937454" lon="10.7026723"><ele>31.0</ele><time>2026-04-19T14:55:53.928Z</time></trkpt><trkpt lat="43.7938697" lon="10.7025298"><ele>31.0</ele><time>2026-04-19T14:55:54.928Z</time></trkpt><trkpt lat="43.7939905" lon="10.702393"><ele>31.0</ele><time>2026-04-19T14:55:55.929Z</time></trkpt><trkpt lat="43.7941071" lon="10.7022565"><ele>31.0</ele><time>2026-04-19T14:55:56.928Z</time></trkpt><trkpt lat="43.7942332" lon="10.7021133"><ele>31.0</ele><time>2026-04-19T14:55:57.928Z</time></trkpt><trkpt lat="43.7943508" lon="10.7019668"><ele>30.666666666666668</ele><time>2026-04-19T14:55:58.928Z</time></trkpt><trkpt lat="43.7944812" lon="10.7018111"><ele>30.333333333333336</ele><time>2026-04-19T14:55:59.929Z</time></trkpt><trkpt lat="43.7946075" lon="10.7016671"><ele>30.0</ele><time>2026-04-19T14:56:00.928Z</time></trkpt><trkpt lat="43.7947353" lon="10.7015232"><ele>30.0</ele><time>2026-04-19T14:56:01.929Z</time></trkpt><trkpt lat="43.7948577" lon="10.7013782"><ele>30.0</ele><time>2026-04-19T14:56:02.928Z</time></trkpt><trkpt lat="43.79498" lon="10.7012346"><ele>30.0</ele><time>2026-04-19T14:56:03.928Z</time></trkpt><trkpt lat="43.7951091" lon="10.7010935"><ele>30.333333333333336</ele><time>2026-04-19T14:56:04.928Z</time></trkpt><trkpt lat="43.7952344" lon="10.7009468"><ele>30.666666666666668</ele><time>2026-04-19T14:56:05.928Z</time></trkpt><trkpt lat="43.7953608" lon="10.7008028"><ele>31.0</ele><time>2026-04-19T14:56:06.928Z</time></trkpt><trkpt lat="43.7954874" lon="10.700655"><ele>31.0</ele><time>2026-04-19T14:56:07.928Z</time></trkpt><trkpt lat="43.7956153" lon="10.7005103"><ele>31.0</ele><time>2026-04-19T14:56:08.928Z</time></trkpt><trkpt lat="43.7957425" lon="10.7003645"><ele>31.0</ele><time>2026-04-19T14:56:09.928Z</time></trkpt><trkpt lat="43.7958718" lon="10.7002186"><ele>30.666666666666668</ele><time>2026-04-19T14:56:10.928Z</time></trkpt><trkpt lat="43.7959991" lon="10.7000727"><ele>30.333333333333336</ele><time>2026-04-19T14:56:11.928Z</time></trkpt><trkpt lat="43.7961275" lon="10.6999199"><ele>30.0</ele><time>2026-04-19T14:56:12.928Z</time></trkpt><trkpt lat="43.7962518" lon="10.6997667"><ele>30.0</ele><time>2026-04-19T14:56:13.928Z</time></trkpt><trkpt lat="43.7963785" lon="10.6996015"><ele>30.0</ele><time>2026-04-19T14:56:14.928Z</time></trkpt><trkpt lat="43.7965036" lon="10.6994361"><ele>30.0</ele><time>2026-04-19T14:56:15.928Z</time></trkpt><trkpt lat="43.7966228" lon="10.6992727"><ele>29.666666666666664</ele><time>2026-04-19T14:56:16.928Z</time></trkpt><trkpt lat="43.7967411" lon="10.6991015"><ele>29.333333333333332</ele><time>2026-04-19T14:56:17.928Z</time></trkpt><trkpt lat="43.7968557" lon="10.6989276"><ele>29.0</ele><time>2026-04-19T14:56:18.928Z</time></trkpt><trkpt lat="43.7969658" lon="10.6987522"><ele>29.0</ele><time>2026-04-19T14:56:19.929Z</time></trkpt><trkpt lat="43.7970811" lon="10.6985747"><ele>29.0</ele><time>2026-04-19T14:56:20.928Z</time></trkpt><trkpt lat="43.7971905" lon="10.6983942"><ele>29.0</ele><time>2026-04-19T14:56:21.928Z</time></trkpt><trkpt lat="43.7972982" lon="10.6982084"><ele>29.0</ele><time>2026-04-19T14:56:22.929Z</time></trkpt><trkpt lat="43.7974001" lon="10.698021"><ele>29.0</ele><time>2026-04-19T14:56:23.928Z</time></trkpt><trkpt lat="43.7975059" lon="10.6978317"><ele>29.0</ele><time>2026-04-19T14:56:24.929Z</time></trkpt><trkpt lat="43.7976085" lon="10.6976434"><ele>28.666666666666664</ele><time>2026-04-19T14:56:25.928Z</time></trkpt><trkpt lat="43.7977087" lon="10.6974527"><ele>28.333333333333336</ele><time>2026-04-19T14:56:26.928Z</time></trkpt><trkpt lat="43.7978118" lon="10.6972649"><ele>28.0</ele><time>2026-04-19T14:56:27.928Z</time></trkpt><trkpt lat="43.7979092" lon="10.6970723"><ele>28.666666666666668</ele><time>2026-04-19T14:56:28.928Z</time></trkpt><trkpt lat="43.7980103" lon="10.6968797"><ele>29.333333333333336</ele><time>2026-04-19T14:56:29.928Z</time></trkpt><trkpt lat="43.7981108" lon="10.6966858"><ele>30.0</ele><time>2026-04-19T14:56:30.928Z</time></trkpt><trkpt lat="43.7982157" lon="10.696491"><ele>30.0</ele><time>2026-04-19T14:56:31.928Z</time></trkpt><trkpt lat="43.7983138" lon="10.6962978"><ele>30.0</ele><time>2026-04-19T14:56:32.928Z</time></trkpt><trkpt lat="43.7984147" lon="10.6961081"><ele>30.0</ele><time>2026-04-19T14:56:33.928Z</time></trkpt><trkpt lat="43.798516" lon="10.6959174"><ele>29.333333333333336</ele><time>2026-04-19T14:56:34.929Z</time></trkpt><trkpt lat="43.798616" lon="10.6957292"><ele>28.666666666666668</ele><time>2026-04-19T14:56:35.928Z</time></trkpt><trkpt lat="43.7987171" lon="10.6955504"><ele>28.0</ele><time>2026-04-19T14:56:36.928Z</time></trkpt><trkpt lat="43.7988152" lon="10.6953767"><ele>27.666666666666668</ele><time>2026-04-19T14:56:37.928Z</time></trkpt><trkpt lat="43.7989121" lon="10.6951967"><ele>27.333333333333336</ele><time>2026-04-19T14:56:38.928Z</time></trkpt><trkpt lat="43.7990118" lon="10.6950183"><ele>27.0</ele><time>2026-04-19T14:56:39.928Z</time></trkpt><trkpt lat="43.7991119" lon="10.6948355"><ele>27.0</ele><time>2026-04-19T14:56:40.928Z</time></trkpt><trkpt lat="43.7992143" lon="10.6946485"><ele>27.0</ele><time>2026-04-19T14:56:41.928Z</time></trkpt><trkpt lat="43.7993161" lon="10.6944733"><ele>27.0</ele><time>2026-04-19T14:56:42.928Z</time></trkpt><trkpt lat="43.7994254" lon="10.6942946"><ele>26.333333333333336</ele><time>2026-04-19T14:56:43.928Z</time></trkpt><trkpt lat="43.7995394" lon="10.6941196"><ele>25.666666666666668</ele><time>2026-04-19T14:56:44.928Z</time></trkpt><trkpt lat="43.799657" lon="10.6939486"><ele>25.0</ele><time>2026-04-19T14:56:45.929Z</time></trkpt><trkpt lat="43.7997779" lon="10.6937842"><ele>25.0</ele><time>2026-04-19T14:56:46.928Z</time></trkpt><trkpt lat="43.7999036" lon="10.6936145"><ele>25.0</ele><time>2026-04-19T14:56:47.928Z</time></trkpt><trkpt lat="43.8000282" lon="10.6934493"><ele>25.0</ele><time>2026-04-19T14:56:48.929Z</time></trkpt><trkpt lat="43.8001547" lon="10.6932909"><ele>25.666666666666668</ele><time>2026-04-19T14:56:49.928Z</time></trkpt><trkpt lat="43.8002863" lon="10.6931423"><ele>26.333333333333336</ele><time>2026-04-19T14:56:50.929Z</time></trkpt><trkpt lat="43.8004219" lon="10.6929962"><ele>27.0</ele><time>2026-04-19T14:56:51.928Z</time></trkpt><trkpt lat="43.8005624" lon="10.692851"><ele>27.0</ele><time>2026-04-19T14:56:52.928Z</time></trkpt><trkpt lat="43.8007063" lon="10.6927104"><ele>27.0</ele><time>2026-04-19T14:56:53.928Z</time></trkpt><trkpt lat="43.80085" lon="10.6925717"><ele>27.0</ele><time>2026-04-19T14:56:54.928Z</time></trkpt><trkpt lat="43.8009951" lon="10.6924343"><ele>27.666666666666664</ele><time>2026-04-19T14:56:55.928Z</time></trkpt><trkpt lat="43.8011406" lon="10.6922968"><ele>28.333333333333332</ele><time>2026-04-19T14:56:56.928Z</time></trkpt><trkpt lat="43.8012836" lon="10.6921652"><ele>29.0</ele><time>2026-04-19T14:56:57.928Z</time></trkpt><trkpt lat="43.8014285" lon="10.6920275"><ele>27.666666666666664</ele><time>2026-04-19T14:56:58.928Z</time></trkpt><trkpt lat="43.8015745" lon="10.6918995"><ele>26.333333333333336</ele><time>2026-04-19T14:56:59.928Z</time></trkpt><trkpt lat="43.8017173" lon="10.6917684"><ele>25.0</ele><time>2026-04-19T14:57:00.928Z</time></trkpt><trkpt lat="43.8018659" lon="10.6916337"><ele>25.0</ele><time>2026-04-19T14:57:01.929Z</time></trkpt><trkpt lat="43.8020108" lon="10.6915034"><ele>25.0</ele><time>2026-04-19T14:57:02.928Z</time></trkpt><trkpt lat="43.8021554" lon="10.6913665"><ele>25.0</ele><time>2026-04-19T14:57:03.928Z</time></trkpt><trkpt lat="43.8023036" lon="10.6912256"><ele>25.0</ele><time>2026-04-19T14:57:04.928Z</time></trkpt><trkpt lat="43.8024503" lon="10.6910918"><ele>25.0</ele><time>2026-04-19T14:57:05.928Z</time></trkpt><trkpt lat="43.8025866" lon="10.6909618"><ele>25.0</ele><time>2026-04-19T14:57:06.928Z</time></trkpt><trkpt lat="43.8027221" lon="10.6908382"><ele>25.0</ele><time>2026-04-19T14:57:07.928Z</time></trkpt><trkpt lat="43.8028519" lon="10.6907149"><ele>25.0</ele><time>2026-04-19T14:57:08.928Z</time></trkpt><trkpt lat="43.8029849" lon="10.6905913"><ele>25.0</ele><time>2026-04-19T14:57:09.928Z</time></trkpt><trkpt lat="43.803118" lon="10.690461"><ele>25.0</ele><time>2026-04-19T14:57:10.928Z</time></trkpt><trkpt lat="43.8032508" lon="10.69033"><ele>25.0</ele><time>2026-04-19T14:57:11.928Z</time></trkpt><trkpt lat="43.8033895" lon="10.6902006"><ele>25.0</ele><time>2026-04-19T14:57:12.928Z</time></trkpt><trkpt lat="43.8035302" lon="10.6900705"><ele>24.666666666666668</ele><time>2026-04-19T14:57:13.928Z</time></trkpt><trkpt lat="43.8036609" lon="10.6899443"><ele>24.333333333333336</ele><time>2026-04-19T14:57:14.928Z</time></trkpt><trkpt lat="43.8037936" lon="10.689816"><ele>24.0</ele><time>2026-04-19T14:57:15.928Z</time></trkpt><trkpt lat="43.8039221" lon="10.6896923"><ele>24.0</ele><time>2026-04-19T14:57:16.928Z</time></trkpt><trkpt lat="43.8040461" lon="10.6895764"><ele>24.0</ele><time>2026-04-19T14:57:17.928Z</time></trkpt><trkpt lat="43.8041756" lon="10.6894553"><ele>24.0</ele><time>2026-04-19T14:57:18.928Z</time></trkpt><trkpt lat="43.8043033" lon="10.6893357"><ele>23.5</ele><time>2026-04-19T14:57:19.928Z</time></trkpt><trkpt lat="43.8044282" lon="10.6892199"><ele>23.0</ele><time>2026-04-19T14:57:20.929Z</time></trkpt><trkpt lat="43.8045447" lon="10.6891102"><ele>22.5</ele><time>2026-04-19T14:57:21.928Z</time></trkpt><trkpt lat="43.8046533" lon="10.6890063"><ele>22.0</ele><time>2026-04-19T14:57:22.929Z</time></trkpt><trkpt lat="43.8047596" lon="10.6889067"><ele>22.0</ele><time>2026-04-19T14:57:23.928Z</time></trkpt><trkpt lat="43.8048588" lon="10.6888194"><ele>22.0</ele><time>2026-04-19T14:57:24.928Z</time></trkpt><trkpt lat="43.8049543" lon="10.6887302"><ele>22.0</ele><time>2026-04-19T14:57:25.928Z</time></trkpt><trkpt lat="43.8050365" lon="10.6886584"><ele>22.0</ele><time>2026-04-19T14:57:26.928Z</time></trkpt><trkpt lat="43.8051235" lon="10.6886043"><ele>22.0</ele><time>2026-04-19T14:57:27.929Z</time></trkpt><trkpt lat="43.8052162" lon="10.6885821"><ele>22.0</ele><time>2026-04-19T14:57:28.928Z</time></trkpt><trkpt lat="43.8053099" lon="10.6885717"><ele>22.0</ele><time>2026-04-19T14:57:29.928Z</time></trkpt><trkpt lat="43.8054015" lon="10.6885503"><ele>22.0</ele><time>2026-04-19T14:57:30.928Z</time></trkpt><trkpt lat="43.8054787" lon="10.6884975"><ele>22.0</ele><time>2026-04-19T14:57:31.928Z</time></trkpt><trkpt lat="43.8055414" lon="10.6884196"><ele>22.0</ele><time>2026-04-19T14:57:32.928Z</time></trkpt><trkpt lat="43.8056012" lon="10.6883089"><ele>22.0</ele><time>2026-04-19T14:57:33.928Z</time></trkpt><trkpt lat="43.8056499" lon="10.6881677"><ele>22.0</ele><time>2026-04-19T14:57:34.928Z</time></trkpt><trkpt lat="43.8057061" lon="10.6880246"><ele>22.0</ele><time>2026-04-19T14:57:35.928Z</time></trkpt><trkpt lat="43.8057766" lon="10.68788"><ele>22.0</ele><time>2026-04-19T14:57:36.928Z</time></trkpt><trkpt lat="43.8058532" lon="10.6877357"><ele>22.0</ele><time>2026-04-19T14:57:37.928Z</time></trkpt><trkpt lat="43.8059401" lon="10.6875817"><ele>22.0</ele><time>2026-04-19T14:57:38.928Z</time></trkpt><trkpt lat="43.8060334" lon="10.6874234"><ele>22.0</ele><time>2026-04-19T14:57:39.928Z</time></trkpt><trkpt lat="43.8061197" lon="10.6872739"><ele>22.0</ele><time>2026-04-19T14:57:40.928Z</time></trkpt><trkpt lat="43.8062057" lon="10.6871275"><ele>22.0</ele><time>2026-04-19T14:57:41.928Z</time></trkpt><trkpt lat="43.8062971" lon="10.686977"><ele>22.0</ele><time>2026-04-19T14:57:42.928Z</time></trkpt><trkpt lat="43.8063917" lon="10.6868231"><ele>22.0</ele><time>2026-04-19T14:57:43.928Z</time></trkpt><trkpt lat="43.806481" lon="10.6866641"><ele>22.0</ele><time>2026-04-19T14:57:44.928Z</time></trkpt><trkpt lat="43.8065766" lon="10.6865048"><ele>22.0</ele><time>2026-04-19T14:57:45.928Z</time></trkpt><trkpt lat="43.8066689" lon="10.6863447"><ele>22.0</ele><time>2026-04-19T14:57:46.928Z</time></trkpt><trkpt lat="43.8067612" lon="10.6861823"><ele>22.0</ele><time>2026-04-19T14:57:47.928Z</time></trkpt><trkpt lat="43.8068578" lon="10.6860174"><ele>22.333333333333332</ele><time>2026-04-19T14:57:48.928Z</time></trkpt><trkpt lat="43.8069522" lon="10.6858571"><ele>22.666666666666668</ele><time>2026-04-19T14:57:49.928Z</time></trkpt><trkpt lat="43.8070503" lon="10.6856909"><ele>23.0</ele><time>2026-04-19T14:57:50.928Z</time></trkpt><trkpt lat="43.8071487" lon="10.6855269"><ele>23.0</ele><time>2026-04-19T14:57:51.928Z</time></trkpt><trkpt lat="43.8072457" lon="10.6853679"><ele>23.0</ele><time>2026-04-19T14:57:52.928Z</time></trkpt><trkpt lat="43.8073462" lon="10.685204"><ele>23.0</ele><time>2026-04-19T14:57:53.928Z</time></trkpt><trkpt lat="43.807446" lon="10.6850446"><ele>22.666666666666668</ele><time>2026-04-19T14:57:54.928Z</time></trkpt><trkpt lat="43.8075494" lon="10.6848816"><ele>22.333333333333332</ele><time>2026-04-19T14:57:55.929Z</time></trkpt><trkpt lat="43.8076481" lon="10.6847213"><ele>22.0</ele><time>2026-04-19T14:57:56.928Z</time></trkpt><trkpt lat="43.8077485" lon="10.6845563"><ele>22.333333333333332</ele><time>2026-04-19T14:57:57.928Z</time></trkpt><trkpt lat="43.8078479" lon="10.68439"><ele>22.666666666666668</ele><time>2026-04-19T14:57:58.928Z</time></trkpt><trkpt lat="43.8079457" lon="10.684223"><ele>23.0</ele><time>2026-04-19T14:57:59.928Z</time></trkpt><trkpt lat="43.808044" lon="10.6840548"><ele>23.0</ele><time>2026-04-19T14:58:00.928Z</time></trkpt><trkpt lat="43.8081449" lon="10.6838871"><ele>23.0</ele><time>2026-04-19T14:58:01.928Z</time></trkpt><trkpt lat="43.8082396" lon="10.683717"><ele>23.0</ele><time>2026-04-19T14:58:02.928Z</time></trkpt><trkpt lat="43.8083415" lon="10.6835447"><ele>22.666666666666668</ele><time>2026-04-19T14:58:03.928Z</time></trkpt><trkpt lat="43.8084438" lon="10.6833772"><ele>22.333333333333332</ele><time>2026-04-19T14:58:04.928Z</time></trkpt><trkpt lat="43.8085396" lon="10.6832067"><ele>22.0</ele><time>2026-04-19T14:58:05.928Z</time></trkpt><trkpt lat="43.8086361" lon="10.6830349"><ele>22.0</ele><time>2026-04-19T14:58:06.928Z</time></trkpt><trkpt lat="43.8087344" lon="10.6828689"><ele>22.0</ele><time>2026-04-19T14:58:07.928Z</time></trkpt><trkpt lat="43.8088328" lon="10.6827026"><ele>22.0</ele><time>2026-04-19T14:58:08.928Z</time></trkpt><trkpt lat="43.8089253" lon="10.6825347"><ele>21.666666666666664</ele><time>2026-04-19T14:58:09.928Z</time></trkpt><trkpt lat="43.8090222" lon="10.6823663"><ele>21.333333333333332</ele><time>2026-04-19T14:58:10.929Z</time></trkpt><trkpt lat="43.8091121" lon="10.6821975"><ele>21.0</ele><time>2026-04-19T14:58:11.928Z</time></trkpt><trkpt lat="43.809205" lon="10.6820315"><ele>20.5</ele><time>2026-04-19T14:58:12.928Z</time></trkpt><trkpt lat="43.8092906" lon="10.6818735"><ele>20.0</ele><time>2026-04-19T14:58:13.928Z</time></trkpt><trkpt lat="43.8093733" lon="10.6817184"><ele>19.5</ele><time>2026-04-19T14:58:14.928Z</time></trkpt><trkpt lat="43.8094524" lon="10.6815651"><ele>19.0</ele><time>2026-04-19T14:58:15.929Z</time></trkpt><trkpt lat="43.809529" lon="10.6814144"><ele>18.75</ele><time>2026-04-19T14:58:16.928Z</time></trkpt><trkpt lat="43.8096015" lon="10.6812684"><ele>18.5</ele><time>2026-04-19T14:58:17.928Z</time></trkpt><trkpt lat="43.8096718" lon="10.6811279"><ele>18.25</ele><time>2026-04-19T14:58:18.928Z</time></trkpt><trkpt lat="43.8097429" lon="10.6809906"><ele>18.0</ele><time>2026-04-19T14:58:19.928Z</time></trkpt><trkpt lat="43.8098149" lon="10.6808516"><ele>18.5</ele><time>2026-04-19T14:58:20.928Z</time></trkpt><trkpt lat="43.8098866" lon="10.6807066"><ele>19.0</ele><time>2026-04-19T14:58:21.928Z</time></trkpt><trkpt lat="43.809963" lon="10.6805539"><ele>19.5</ele><time>2026-04-19T14:58:22.928Z</time></trkpt><trkpt lat="43.8100378" lon="10.6804042"><ele>20.0</ele><time>2026-04-19T14:58:23.928Z</time></trkpt><trkpt lat="43.8101118" lon="10.6802521"><ele>20.0</ele><time>2026-04-19T14:58:24.928Z</time></trkpt><trkpt lat="43.8101933" lon="10.6801024"><ele>20.0</ele><time>2026-04-19T14:58:25.928Z</time></trkpt><trkpt lat="43.8102773" lon="10.6799404"><ele>20.0</ele><time>2026-04-19T14:58:26.928Z</time></trkpt><trkpt lat="43.8103592" lon="10.6797813"><ele>20.0</ele><time>2026-04-19T14:58:27.928Z</time></trkpt><trkpt lat="43.8104418" lon="10.6796311"><ele>20.0</ele><time>2026-04-19T14:58:28.928Z</time></trkpt><trkpt lat="43.8105164" lon="10.6794805"><ele>20.0</ele><time>2026-04-19T14:58:29.928Z</time></trkpt><trkpt lat="43.810595" lon="10.6793262"><ele>20.0</ele><time>2026-04-19T14:58:30.928Z</time></trkpt><trkpt lat="43.8106788" lon="10.6791664"><ele>20.0</ele><time>2026-04-19T14:58:31.928Z</time></trkpt><trkpt lat="43.810759" lon="10.6790165"><ele>20.0</ele><time>2026-04-19T14:58:32.928Z</time></trkpt><trkpt lat="43.8108372" lon="10.6788654"><ele>20.0</ele><time>2026-04-19T14:58:33.928Z</time></trkpt><trkpt lat="43.8109202" lon="10.6787102"><ele>20.0</ele><time>2026-04-19T14:58:34.928Z</time></trkpt><trkpt lat="43.8109991" lon="10.6785631"><ele>20.0</ele><time>2026-04-19T14:58:35.928Z</time></trkpt><trkpt lat="43.8110726" lon="10.6784348"><ele>20.0</ele><time>2026-04-19T14:58:36.929Z</time></trkpt><trkpt lat="43.8111466" lon="10.6783059"><ele>20.0</ele><time>2026-04-19T14:58:37.928Z</time></trkpt><trkpt lat="43.8112215" lon="10.6781822"><ele>20.0</ele><time>2026-04-19T14:58:38.929Z</time></trkpt><trkpt lat="43.8112981" lon="10.67806"><ele>20.0</ele><time>2026-04-19T14:58:39.928Z</time></trkpt><trkpt lat="43.8113703" lon="10.6779374"><ele>20.0</ele><time>2026-04-19T14:58:40.928Z</time></trkpt><trkpt lat="43.8114482" lon="10.677811"><ele>20.0</ele><time>2026-04-19T14:58:41.928Z</time></trkpt><trkpt lat="43.8115245" lon="10.6776908"><ele>20.0</ele><time>2026-04-19T14:58:42.929Z</time></trkpt><trkpt lat="43.8116005" lon="10.6775721"><ele>20.0</ele><time>2026-04-19T14:58:43.928Z</time></trkpt><trkpt lat="43.8117072" lon="10.6775128"><ele>20.2</ele><time>2026-04-19T14:58:44.929Z</time></trkpt><trkpt lat="43.8117985" lon="10.6774448"><ele>20.4</ele><time>2026-04-19T14:58:45.928Z</time></trkpt><trkpt lat="43.8118893" lon="10.677388"><ele>20.6</ele><time>2026-04-19T14:58:46.928Z</time></trkpt><trkpt lat="43.8119792" lon="10.6773398"><ele>20.8</ele><time>2026-04-19T14:58:47.928Z</time></trkpt><trkpt lat="43.8120713" lon="10.6772898"><ele>21.0</ele><time>2026-04-19T14:58:48.928Z</time></trkpt><trkpt lat="43.812151" lon="10.6772448"><ele>21.0</ele><time>2026-04-19T14:58:49.928Z</time></trkpt><trkpt lat="43.8122244" lon="10.6771987"><ele>21.0</ele><time>2026-04-19T14:58:50.928Z</time></trkpt><trkpt lat="43.8122895" lon="10.6771701"><ele>21.0</ele><time>2026-04-19T14:58:51.928Z</time></trkpt><trkpt lat="43.8123534" lon="10.6771709"><ele>21.0</ele><time>2026-04-19T14:58:52.928Z</time></trkpt><trkpt lat="43.8124225" lon="10.6771949"><ele>21.0</ele><time>2026-04-19T14:58:53.928Z</time></trkpt><trkpt lat="43.8124845" lon="10.6772287"><ele>21.0</ele><time>2026-04-19T14:58:54.928Z</time></trkpt><trkpt lat="43.8125945" lon="10.6772296"><ele>21.0</ele><time>2026-04-19T14:58:56.928Z</time></trkpt><trkpt lat="43.8126672" lon="10.677138"><ele>21.0</ele><time>2026-04-19T14:58:58.928Z</time></trkpt><trkpt lat="43.8126524" lon="10.6770203"><ele>21.0</ele><time>2026-04-19T14:59:00.928Z</time></trkpt><trkpt lat="43.8125784" lon="10.6769308"><ele>21.0</ele><time>2026-04-19T14:59:02.928Z</time></trkpt><trkpt lat="43.8124976" lon="10.6768635"><ele>21.0</ele><time>2026-04-19T14:59:04.928Z</time></trkpt><trkpt lat="43.8124248" lon="10.6767859"><ele>21.0</ele><time>2026-04-19T14:59:06.928Z</time></trkpt><trkpt lat="43.8123962" lon="10.6766657"><ele>21.0</ele><time>2026-04-19T14:59:08.928Z</time></trkpt><trkpt lat="43.812464" lon="10.6765354"><ele>21.0</ele><time>2026-04-19T14:59:10.929Z</time></trkpt><trkpt lat="43.8125091" lon="10.6764745"><ele>21.0</ele><time>2026-04-19T14:59:11.928Z</time></trkpt><trkpt lat="43.812551" lon="10.6764086"><ele>21.0</ele><time>2026-04-19T14:59:12.928Z</time></trkpt><trkpt lat="43.8126315" lon="10.6763018"><ele>21.0</ele><time>2026-04-19T14:59:14.928Z</time></trkpt><trkpt lat="43.8127124" lon="10.6761794"><ele>21.0</ele><time>2026-04-19T14:59:16.928Z</time></trkpt><trkpt lat="43.8127959" lon="10.6760631"><ele>21.0</ele><time>2026-04-19T14:59:18.928Z</time></trkpt><trkpt lat="43.8128718" lon="10.675957"><ele>21.0</ele><time>2026-04-19T14:59:20.928Z</time></trkpt><trkpt lat="43.8129401" lon="10.6758458"><ele>21.0</ele><time>2026-04-19T14:59:22.928Z</time></trkpt><trkpt lat="43.8130118" lon="10.6757288"><ele>21.0</ele><time>2026-04-19T14:59:24.928Z</time></trkpt><trkpt lat="43.8130912" lon="10.6756205"><ele>21.0</ele><time>2026-04-19T14:59:26.928Z</time></trkpt><trkpt lat="43.8131718" lon="10.6755025"><ele>21.0</ele><time>2026-04-19T14:59:28.928Z</time></trkpt><trkpt lat="43.8132591" lon="10.6753777"><ele>21.0</ele><time>2026-04-19T14:59:30.928Z</time></trkpt><trkpt lat="43.8133467" lon="10.675263"><ele>21.0</ele><time>2026-04-19T14:59:32.928Z</time></trkpt><trkpt lat="43.8133882" lon="10.675196"><ele>21.0</ele><time>2026-04-19T14:59:33.928Z</time></trkpt><trkpt lat="43.8134722" lon="10.6750672"><ele>20.833333333333332</ele><time>2026-04-19T14:59:35.928Z</time></trkpt><trkpt lat="43.8135582" lon="10.6749237"><ele>20.666666666666668</ele><time>2026-04-19T14:59:37.928Z</time></trkpt><trkpt lat="43.8136038" lon="10.6748532"><ele>20.5</ele><time>2026-04-19T14:59:38.928Z</time></trkpt><trkpt lat="43.8136582" lon="10.6747876"><ele>20.333333333333336</ele><time>2026-04-19T14:59:39.928Z</time></trkpt><trkpt lat="43.8137137" lon="10.6747087"><ele>20.166666666666668</ele><time>2026-04-19T14:59:40.928Z</time></trkpt><trkpt lat="43.8137654" lon="10.6746342"><ele>20.0</ele><time>2026-04-19T14:59:41.928Z</time></trkpt><trkpt lat="43.8138159" lon="10.6745516"><ele>20.0</ele><time>2026-04-19T14:59:42.928Z</time></trkpt><trkpt lat="43.8138642" lon="10.6744769"><ele>20.0</ele><time>2026-04-19T14:59:43.928Z</time></trkpt><trkpt lat="43.8139141" lon="10.6743996"><ele>20.0</ele><time>2026-04-19T14:59:44.928Z</time></trkpt><trkpt lat="43.814007" lon="10.6742666"><ele>20.0</ele><time>2026-04-19T14:59:46.928Z</time></trkpt><trkpt lat="43.8140471" lon="10.6741924"><ele>20.0</ele><time>2026-04-19T14:59:47.928Z</time></trkpt><trkpt lat="43.8140948" lon="10.6741235"><ele>20.0</ele><time>2026-04-19T14:59:48.928Z</time></trkpt><trkpt lat="43.8141369" lon="10.6740575"><ele>19.666666666666668</ele><time>2026-04-19T14:59:49.929Z</time></trkpt><trkpt lat="43.8141826" lon="10.6739802"><ele>19.333333333333336</ele><time>2026-04-19T14:59:50.928Z</time></trkpt><trkpt lat="43.8142295" lon="10.6738965"><ele>19.0</ele><time>2026-04-19T14:59:51.929Z</time></trkpt><trkpt lat="43.8142752" lon="10.6738064"><ele>18.666666666666668</ele><time>2026-04-19T14:59:52.928Z</time></trkpt><trkpt lat="43.8143247" lon="10.6737082"><ele>18.333333333333332</ele><time>2026-04-19T14:59:53.929Z</time></trkpt><trkpt lat="43.8143692" lon="10.6736136"><ele>18.0</ele><time>2026-04-19T14:59:54.928Z</time></trkpt><trkpt lat="43.814418" lon="10.6735173"><ele>17.571428571428573</ele><time>2026-04-19T14:59:55.928Z</time></trkpt><trkpt lat="43.8144641" lon="10.6734238"><ele>17.142857142857142</ele><time>2026-04-19T14:59:56.929Z</time></trkpt><trkpt lat="43.8145074" lon="10.6733387"><ele>16.714285714285715</ele><time>2026-04-19T14:59:57.929Z</time></trkpt><trkpt lat="43.814546" lon="10.6732585"><ele>16.285714285714285</ele><time>2026-04-19T14:59:58.928Z</time></trkpt><trkpt lat="43.8145856" lon="10.6731768"><ele>15.857142857142858</ele><time>2026-04-19T14:59:59.928Z</time></trkpt><trkpt lat="43.8146248" lon="10.6730945"><ele>15.428571428571429</ele><time>2026-04-19T15:00:00.928Z</time></trkpt><trkpt lat="43.8146676" lon="10.6730169"><ele>15.0</ele><time>2026-04-19T15:00:01.928Z</time></trkpt><trkpt lat="43.8147098" lon="10.6729436"><ele>15.0</ele><time>2026-04-19T15:00:02.928Z</time></trkpt><trkpt lat="43.8147481" lon="10.6728641"><ele>15.0</ele><time>2026-04-19T15:00:03.928Z</time></trkpt><trkpt lat="43.8147847" lon="10.6727843"><ele>15.0</ele><time>2026-04-19T15:00:04.928Z</time></trkpt><trkpt lat="43.8148226" lon="10.672708"><ele>15.0</ele><time>2026-04-19T15:00:05.928Z</time></trkpt><trkpt lat="43.8148847" lon="10.6725929"><ele>15.0</ele><time>2026-04-19T15:00:07.928Z</time></trkpt><trkpt lat="43.8149304" lon="10.6725064"><ele>15.0</ele><time>2026-04-19T15:00:10.928Z</time></trkpt><trkpt lat="43.8149903" lon="10.6723915"><ele>14.666666666666666</ele><time>2026-04-19T15:00:13.928Z</time></trkpt><trkpt lat="43.8150579" lon="10.672282"><ele>14.333333333333332</ele><time>2026-04-19T15:00:15.928Z</time></trkpt><trkpt lat="43.8151249" lon="10.672163"><ele>14.0</ele><time>2026-04-19T15:00:17.929Z</time></trkpt><trkpt lat="43.8151614" lon="10.672089"><ele>13.666666666666666</ele><time>2026-04-19T15:00:18.928Z</time></trkpt><trkpt lat="43.815204" lon="10.6720058"><ele>13.333333333333332</ele><time>2026-04-19T15:00:19.929Z</time></trkpt><trkpt lat="43.815246" lon="10.6719259"><ele>13.0</ele><time>2026-04-19T15:00:20.928Z</time></trkpt><trkpt lat="43.8152822" lon="10.6718518"><ele>12.999999999999998</ele><time>2026-04-19T15:00:21.928Z</time></trkpt><trkpt lat="43.8153508" lon="10.6717402"><ele>13.0</ele><time>2026-04-19T15:00:23.928Z</time></trkpt><trkpt lat="43.8154172" lon="10.6717092"><ele>13.0</ele><time>2026-04-19T15:00:25.929Z</time></trkpt><trkpt lat="43.8154765" lon="10.6717987"><ele>13.0</ele><time>2026-04-19T15:00:27.928Z</time></trkpt><trkpt lat="43.8155248" lon="10.6719447"><ele>12.999999999999998</ele><time>2026-04-19T15:00:29.928Z</time></trkpt><trkpt lat="43.8155505" lon="10.6720307"><ele>13.0</ele><time>2026-04-19T15:00:30.928Z</time></trkpt><trkpt lat="43.8155903" lon="10.6721836"><ele>12.833333333333332</ele><time>2026-04-19T15:00:32.928Z</time></trkpt><trkpt lat="43.8156188" lon="10.6723297"><ele>12.666666666666666</ele><time>2026-04-19T15:00:34.928Z</time></trkpt><trkpt lat="43.8156372" lon="10.6724403"><ele>12.5</ele><time>2026-04-19T15:00:36.928Z</time></trkpt><trkpt lat="43.8156613" lon="10.6725427"><ele>12.333333333333332</ele><time>2026-04-19T15:00:42.928Z</time></trkpt><trkpt lat="43.815718" lon="10.6726319"><ele>12.166666666666666</ele><time>2026-04-19T15:00:44.928Z</time></trkpt><trkpt lat="43.8158038" lon="10.6726145"><ele>12.0</ele><time>2026-04-19T15:00:46.928Z</time></trkpt><trkpt lat="43.8158606" lon="10.6725638"><ele>12.0</ele><time>2026-04-19T15:00:47.928Z</time></trkpt><trkpt lat="43.8159106" lon="10.6724976"><ele>12.0</ele><time>2026-04-19T15:00:48.928Z</time></trkpt><trkpt lat="43.8159552" lon="10.6724262"><ele>12.0</ele><time>2026-04-19T15:00:49.928Z</time></trkpt><trkpt lat="43.8160147" lon="10.6723352"><ele>12.0</ele><time>2026-04-19T15:00:50.928Z</time></trkpt><trkpt lat="43.8160688" lon="10.6722496"><ele>12.0</ele><time>2026-04-19T15:00:51.928Z</time></trkpt><trkpt lat="43.8161206" lon="10.6721456"><ele>12.0</ele><time>2026-04-19T15:00:52.929Z</time></trkpt><trkpt lat="43.8161706" lon="10.6720449"><ele>12.6</ele><time>2026-04-19T15:00:53.928Z</time></trkpt><trkpt lat="43.816231" lon="10.6719395"><ele>13.2</ele><time>2026-04-19T15:00:54.928Z</time></trkpt><trkpt lat="43.8162926" lon="10.6718333"><ele>13.8</ele><time>2026-04-19T15:00:55.928Z</time></trkpt><trkpt lat="43.8163548" lon="10.67172"><ele>14.4</ele><time>2026-04-19T15:00:56.928Z</time></trkpt><trkpt lat="43.8164077" lon="10.6716255"><ele>15.0</ele><time>2026-04-19T15:00:57.929Z</time></trkpt><trkpt lat="43.8164587" lon="10.6715269"><ele>15.0</ele><time>2026-04-19T15:00:58.928Z</time></trkpt><trkpt lat="43.8165069" lon="10.6714238"><ele>15.0</ele><time>2026-04-19T15:00:59.928Z</time></trkpt><trkpt lat="43.8165577" lon="10.6713249"><ele>15.0</ele><time>2026-04-19T15:01:00.928Z</time></trkpt><trkpt lat="43.8166021" lon="10.6712304"><ele>15.0</ele><time>2026-04-19T15:01:01.928Z</time></trkpt><trkpt lat="43.8166485" lon="10.6711347"><ele>15.0</ele><time>2026-04-19T15:01:02.928Z</time></trkpt><trkpt lat="43.8166869" lon="10.6710316"><ele>15.0</ele><time>2026-04-19T15:01:03.928Z</time></trkpt><trkpt lat="43.8167307" lon="10.6709241"><ele>15.2</ele><time>2026-04-19T15:01:04.928Z</time></trkpt><trkpt lat="43.8167865" lon="10.6708159"><ele>15.4</ele><time>2026-04-19T15:01:05.928Z</time></trkpt><trkpt lat="43.8168374" lon="10.6707051"><ele>15.600000000000001</ele><time>2026-04-19T15:01:06.928Z</time></trkpt><trkpt lat="43.8168964" lon="10.6705877"><ele>15.8</ele><time>2026-04-19T15:01:07.928Z</time></trkpt><trkpt lat="43.816959" lon="10.6704682"><ele>16.0</ele><time>2026-04-19T15:01:08.928Z</time></trkpt><trkpt lat="43.8170235" lon="10.6703435"><ele>17.0</ele><time>2026-04-19T15:01:09.928Z</time></trkpt><trkpt lat="43.8170846" lon="10.6702241"><ele>18.0</ele><time>2026-04-19T15:01:10.929Z</time></trkpt><trkpt lat="43.8171468" lon="10.6701016"><ele>19.0</ele><time>2026-04-19T15:01:11.928Z</time></trkpt><trkpt lat="43.8172115" lon="10.6699819"><ele>20.0</ele><time>2026-04-19T15:01:12.928Z</time></trkpt><trkpt lat="43.8172746" lon="10.669861"><ele>21.0</ele><time>2026-04-19T15:01:13.928Z</time></trkpt><trkpt lat="43.8173391" lon="10.669742"><ele>21.0</ele><time>2026-04-19T15:01:14.928Z</time></trkpt><trkpt lat="43.8174066" lon="10.6696197"><ele>21.0</ele><time>2026-04-19T15:01:15.928Z</time></trkpt><trkpt lat="43.8174732" lon="10.6694935"><ele>21.0</ele><time>2026-04-19T15:01:16.928Z</time></trkpt><trkpt lat="43.8175379" lon="10.6693701"><ele>21.0</ele><time>2026-04-19T15:01:17.928Z</time></trkpt><trkpt lat="43.8176047" lon="10.6692434"><ele>21.0</ele><time>2026-04-19T15:01:18.928Z</time></trkpt><trkpt lat="43.8176738" lon="10.6691138"><ele>21.25</ele><time>2026-04-19T15:01:19.928Z</time></trkpt><trkpt lat="43.8177436" lon="10.6689891"><ele>21.5</ele><time>2026-04-19T15:01:20.928Z</time></trkpt><trkpt lat="43.8178129" lon="10.6688694"><ele>21.75</ele><time>2026-04-19T15:01:21.928Z</time></trkpt><trkpt lat="43.8178839" lon="10.6687501"><ele>22.0</ele><time>2026-04-19T15:01:22.928Z</time></trkpt><trkpt lat="43.8179597" lon="10.668633"><ele>22.0</ele><time>2026-04-19T15:01:23.928Z</time></trkpt><trkpt lat="43.818044" lon="10.6685152"><ele>22.0</ele><time>2026-04-19T15:01:24.928Z</time></trkpt><trkpt lat="43.8181252" lon="10.6684009"><ele>22.0</ele><time>2026-04-19T15:01:25.928Z</time></trkpt><trkpt lat="43.8182065" lon="10.6682888"><ele>22.0</ele><time>2026-04-19T15:01:26.928Z</time></trkpt><trkpt lat="43.8182859" lon="10.6681863"><ele>22.0</ele><time>2026-04-19T15:01:27.928Z</time></trkpt><trkpt lat="43.8183696" lon="10.6680779"><ele>22.0</ele><time>2026-04-19T15:01:28.928Z</time></trkpt><trkpt lat="43.8184556" lon="10.6679704"><ele>22.0</ele><time>2026-04-19T15:01:29.928Z</time></trkpt><trkpt lat="43.8185424" lon="10.6678619"><ele>22.0</ele><time>2026-04-19T15:01:30.928Z</time></trkpt><trkpt lat="43.8186311" lon="10.6677486"><ele>22.25</ele><time>2026-04-19T15:01:31.928Z</time></trkpt><trkpt lat="43.8187194" lon="10.6676349"><ele>22.5</ele><time>2026-04-19T15:01:32.928Z</time></trkpt><trkpt lat="43.8188122" lon="10.6675161"><ele>22.75</ele><time>2026-04-19T15:01:33.928Z</time></trkpt><trkpt lat="43.8189075" lon="10.6673986"><ele>23.0</ele><time>2026-04-19T15:01:34.928Z</time></trkpt><trkpt lat="43.8189985" lon="10.6672889"><ele>23.0</ele><time>2026-04-19T15:01:35.928Z</time></trkpt><trkpt lat="43.8190826" lon="10.6671767"><ele>23.0</ele><time>2026-04-19T15:01:36.928Z</time></trkpt><trkpt lat="43.8191672" lon="10.667074"><ele>23.0</ele><time>2026-04-19T15:01:37.929Z</time></trkpt><trkpt lat="43.819244" lon="10.666966"><ele>23.0</ele><time>2026-04-19T15:01:38.928Z</time></trkpt><trkpt lat="43.8193234" lon="10.6668608"><ele>23.0</ele><time>2026-04-19T15:01:39.929Z</time></trkpt><trkpt lat="43.8193966" lon="10.6667582"><ele>23.2</ele><time>2026-04-19T15:01:40.928Z</time></trkpt><trkpt lat="43.8194695" lon="10.6666541"><ele>23.4</ele><time>2026-04-19T15:01:41.928Z</time></trkpt><trkpt lat="43.8195385" lon="10.6665647"><ele>23.599999999999998</ele><time>2026-04-19T15:01:42.928Z</time></trkpt><trkpt lat="43.8196027" lon="10.666477"><ele>23.799999999999997</ele><time>2026-04-19T15:01:43.928Z</time></trkpt><trkpt lat="43.8196634" lon="10.6663847"><ele>24.0</ele><time>2026-04-19T15:01:44.928Z</time></trkpt><trkpt lat="43.8197234" lon="10.6662917"><ele>24.0</ele><time>2026-04-19T15:01:45.929Z</time></trkpt><trkpt lat="43.8197787" lon="10.6661944"><ele>24.0</ele><time>2026-04-19T15:01:46.928Z</time></trkpt><trkpt lat="43.8198422" lon="10.6660827"><ele>24.0</ele><time>2026-04-19T15:01:47.928Z</time></trkpt><trkpt lat="43.8199164" lon="10.6659594"><ele>24.0</ele><time>2026-04-19T15:01:48.928Z</time></trkpt><trkpt lat="43.8199936" lon="10.66583"><ele>24.0</ele><time>2026-04-19T15:01:49.928Z</time></trkpt><trkpt lat="43.8200814" lon="10.6656699"><ele>23.666666666666668</ele><time>2026-04-19T15:01:50.928Z</time></trkpt><trkpt lat="43.8201776" lon="10.6654989"><ele>23.333333333333336</ele><time>2026-04-19T15:01:51.928Z</time></trkpt><trkpt lat="43.8202775" lon="10.6653365"><ele>23.0</ele><time>2026-04-19T15:01:52.928Z</time></trkpt><trkpt lat="43.8203882" lon="10.6651609"><ele>23.0</ele><time>2026-04-19T15:01:53.928Z</time></trkpt><trkpt lat="43.8205139" lon="10.6649901"><ele>23.0</ele><time>2026-04-19T15:01:54.928Z</time></trkpt><trkpt lat="43.8206428" lon="10.6648216"><ele>23.0</ele><time>2026-04-19T15:01:55.928Z</time></trkpt><trkpt lat="43.8207807" lon="10.6646427"><ele>23.0</ele><time>2026-04-19T15:01:56.929Z</time></trkpt><trkpt lat="43.8209086" lon="10.6644588"><ele>23.0</ele><time>2026-04-19T15:01:57.928Z</time></trkpt><trkpt lat="43.821026" lon="10.6642707"><ele>23.0</ele><time>2026-04-19T15:01:58.928Z</time></trkpt><trkpt lat="43.8211365" lon="10.6640698"><ele>22.666666666666668</ele><time>2026-04-19T15:01:59.928Z</time></trkpt><trkpt lat="43.8212355" lon="10.6638633"><ele>22.333333333333332</ele><time>2026-04-19T15:02:00.928Z</time></trkpt><trkpt lat="43.8213265" lon="10.6636521"><ele>22.0</ele><time>2026-04-19T15:02:01.928Z</time></trkpt><trkpt lat="43.8214156" lon="10.6634384"><ele>22.0</ele><time>2026-04-19T15:02:02.928Z</time></trkpt><trkpt lat="43.8215014" lon="10.663222"><ele>22.0</ele><time>2026-04-19T15:02:03.928Z</time></trkpt><trkpt lat="43.821593" lon="10.6629994"><ele>22.0</ele><time>2026-04-19T15:02:04.928Z</time></trkpt><trkpt lat="43.8216819" lon="10.6627791"><ele>22.666666666666664</ele><time>2026-04-19T15:02:05.929Z</time></trkpt><trkpt lat="43.8217713" lon="10.6625608"><ele>23.333333333333332</ele><time>2026-04-19T15:02:06.928Z</time></trkpt><trkpt lat="43.8218589" lon="10.6623423"><ele>24.0</ele><time>2026-04-19T15:02:07.928Z</time></trkpt><trkpt lat="43.8219468" lon="10.6621202"><ele>26.333333333333336</ele><time>2026-04-19T15:02:08.928Z</time></trkpt><trkpt lat="43.8220363" lon="10.6618998"><ele>28.666666666666668</ele><time>2026-04-19T15:02:09.929Z</time></trkpt><trkpt lat="43.8221238" lon="10.6616813"><ele>31.0</ele><time>2026-04-19T15:02:10.928Z</time></trkpt><trkpt lat="43.822214" lon="10.6614582"><ele>31.0</ele><time>2026-04-19T15:02:11.928Z</time></trkpt><trkpt lat="43.8223042" lon="10.6612391"><ele>31.0</ele><time>2026-04-19T15:02:12.928Z</time></trkpt><trkpt lat="43.8223941" lon="10.6610187"><ele>31.0</ele><time>2026-04-19T15:02:13.928Z</time></trkpt><trkpt lat="43.8224842" lon="10.660798"><ele>29.666666666666668</ele><time>2026-04-19T15:02:14.929Z</time></trkpt><trkpt lat="43.8225707" lon="10.660575"><ele>28.333333333333336</ele><time>2026-04-19T15:02:15.928Z</time></trkpt><trkpt lat="43.8226576" lon="10.660349"><ele>27.0</ele><time>2026-04-19T15:02:16.928Z</time></trkpt><trkpt lat="43.8227456" lon="10.6601347"><ele>27.0</ele><time>2026-04-19T15:02:17.928Z</time></trkpt><trkpt lat="43.8228315" lon="10.6599197"><ele>27.0</ele><time>2026-04-19T15:02:18.928Z</time></trkpt><trkpt lat="43.8229164" lon="10.6597084"><ele>27.0</ele><time>2026-04-19T15:02:19.928Z</time></trkpt><trkpt lat="43.8229929" lon="10.6595047"><ele>26.666666666666664</ele><time>2026-04-19T15:02:20.928Z</time></trkpt><trkpt lat="43.8230719" lon="10.6593083"><ele>26.333333333333332</ele><time>2026-04-19T15:02:21.928Z</time></trkpt><trkpt lat="43.8231524" lon="10.6591116"><ele>26.0</ele><time>2026-04-19T15:02:22.928Z</time></trkpt><trkpt lat="43.8232321" lon="10.6589126"><ele>26.0</ele><time>2026-04-19T15:02:23.929Z</time></trkpt><trkpt lat="43.8233058" lon="10.6587127"><ele>26.0</ele><time>2026-04-19T15:02:24.928Z</time></trkpt><trkpt lat="43.8233872" lon="10.6585057"><ele>26.0</ele><time>2026-04-19T15:02:25.928Z</time></trkpt><trkpt lat="43.8234655" lon="10.6582949"><ele>27.0</ele><time>2026-04-19T15:02:26.928Z</time></trkpt><trkpt lat="43.8235451" lon="10.6580883"><ele>28.0</ele><time>2026-04-19T15:02:27.928Z</time></trkpt><trkpt lat="43.8236298" lon="10.657875"><ele>29.0</ele><time>2026-04-19T15:02:28.929Z</time></trkpt><trkpt lat="43.8237163" lon="10.6576614"><ele>29.0</ele><time>2026-04-19T15:02:29.928Z</time></trkpt><trkpt lat="43.8238037" lon="10.6574511"><ele>29.0</ele><time>2026-04-19T15:02:30.928Z</time></trkpt><trkpt lat="43.8238967" lon="10.6572401"><ele>29.0</ele><time>2026-04-19T15:02:31.928Z</time></trkpt><trkpt lat="43.8239921" lon="10.657032"><ele>28.666666666666664</ele><time>2026-04-19T15:02:32.928Z</time></trkpt><trkpt lat="43.8240925" lon="10.6568377"><ele>28.333333333333336</ele><time>2026-04-19T15:02:33.928Z</time></trkpt><trkpt lat="43.8241977" lon="10.6566575"><ele>28.0</ele><time>2026-04-19T15:02:34.928Z</time></trkpt><trkpt lat="43.8243062" lon="10.6564751"><ele>28.0</ele><time>2026-04-19T15:02:35.928Z</time></trkpt><trkpt lat="43.8244158" lon="10.6562932"><ele>28.0</ele><time>2026-04-19T15:02:36.928Z</time></trkpt><trkpt lat="43.8245315" lon="10.6561134"><ele>28.0</ele><time>2026-04-19T15:02:37.928Z</time></trkpt><trkpt lat="43.8246469" lon="10.6559289"><ele>28.0</ele><time>2026-04-19T15:02:38.929Z</time></trkpt><trkpt lat="43.8247643" lon="10.6557416"><ele>28.0</ele><time>2026-04-19T15:02:39.928Z</time></trkpt><trkpt lat="43.8248807" lon="10.6555528"><ele>28.0</ele><time>2026-04-19T15:02:40.928Z</time></trkpt><trkpt lat="43.8249973" lon="10.6553611"><ele>28.333333333333336</ele><time>2026-04-19T15:02:41.928Z</time></trkpt><trkpt lat="43.8251154" lon="10.6551685"><ele>28.666666666666664</ele><time>2026-04-19T15:02:42.929Z</time></trkpt><trkpt lat="43.8252388" lon="10.6549806"><ele>29.0</ele><time>2026-04-19T15:02:43.928Z</time></trkpt><trkpt lat="43.8253574" lon="10.6547928"><ele>29.333333333333332</ele><time>2026-04-19T15:02:44.928Z</time></trkpt><trkpt lat="43.8254743" lon="10.6545993"><ele>29.666666666666664</ele><time>2026-04-19T15:02:45.928Z</time></trkpt><trkpt lat="43.825582" lon="10.6544018"><ele>30.0</ele><time>2026-04-19T15:02:46.928Z</time></trkpt><trkpt lat="43.8256893" lon="10.6542009"><ele>29.666666666666664</ele><time>2026-04-19T15:02:47.929Z</time></trkpt><trkpt lat="43.8257952" lon="10.653996"><ele>29.333333333333332</ele><time>2026-04-19T15:02:48.928Z</time></trkpt><trkpt lat="43.8259001" lon="10.6537895"><ele>29.0</ele><time>2026-04-19T15:02:49.929Z</time></trkpt><trkpt lat="43.8260043" lon="10.6535835"><ele>29.0</ele><time>2026-04-19T15:02:50.928Z</time></trkpt><trkpt lat="43.8261109" lon="10.6533724"><ele>29.0</ele><time>2026-04-19T15:02:51.929Z</time></trkpt><trkpt lat="43.8262185" lon="10.6531681"><ele>29.0</ele><time>2026-04-19T15:02:52.928Z</time></trkpt><trkpt lat="43.8263184" lon="10.6529626"><ele>29.0</ele><time>2026-04-19T15:02:53.928Z</time></trkpt><trkpt lat="43.8264193" lon="10.6527576"><ele>29.0</ele><time>2026-04-19T15:02:54.928Z</time></trkpt><trkpt lat="43.8265161" lon="10.6525654"><ele>29.0</ele><time>2026-04-19T15:02:55.928Z</time></trkpt><trkpt lat="43.8266095" lon="10.6523785"><ele>29.0</ele><time>2026-04-19T15:02:56.928Z</time></trkpt><trkpt lat="43.8266955" lon="10.6521901"><ele>29.0</ele><time>2026-04-19T15:02:57.928Z</time></trkpt><trkpt lat="43.8267825" lon="10.6520139"><ele>29.0</ele><time>2026-04-19T15:02:58.929Z</time></trkpt><trkpt lat="43.8268674" lon="10.6518455"><ele>29.75</ele><time>2026-04-19T15:02:59.928Z</time></trkpt><trkpt lat="43.826953" lon="10.6516765"><ele>30.5</ele><time>2026-04-19T15:03:00.928Z</time></trkpt><trkpt lat="43.8270348" lon="10.6515122"><ele>31.25</ele><time>2026-04-19T15:03:01.928Z</time></trkpt><trkpt lat="43.8271107" lon="10.6513567"><ele>32.0</ele><time>2026-04-19T15:03:02.928Z</time></trkpt><trkpt lat="43.8271733" lon="10.6512055"><ele>31.8</ele><time>2026-04-19T15:03:03.928Z</time></trkpt><trkpt lat="43.8272235" lon="10.6510611"><ele>31.6</ele><time>2026-04-19T15:03:04.928Z</time></trkpt><trkpt lat="43.8272763" lon="10.650923"><ele>31.400000000000002</ele><time>2026-04-19T15:03:05.929Z</time></trkpt><trkpt lat="43.8273366" lon="10.6508007"><ele>31.200000000000003</ele><time>2026-04-19T15:03:06.928Z</time></trkpt><trkpt lat="43.8273943" lon="10.6507065"><ele>31.0</ele><time>2026-04-19T15:03:07.929Z</time></trkpt><trkpt lat="43.8274453" lon="10.6506156"><ele>31.000000000000004</ele><time>2026-04-19T15:03:08.928Z</time></trkpt><trkpt lat="43.827484" lon="10.6505193"><ele>31.0</ele><time>2026-04-19T15:03:09.928Z</time></trkpt><trkpt lat="43.8275222" lon="10.6504125"><ele>31.0</ele><time>2026-04-19T15:03:10.928Z</time></trkpt><trkpt lat="43.8275705" lon="10.6503078"><ele>31.0</ele><time>2026-04-19T15:03:11.929Z</time></trkpt><trkpt lat="43.8276303" lon="10.6502099"><ele>31.000000000000004</ele><time>2026-04-19T15:03:12.928Z</time></trkpt><trkpt lat="43.827692" lon="10.6501032"><ele>31.0</ele><time>2026-04-19T15:03:13.928Z</time></trkpt><trkpt lat="43.8277517" lon="10.6499757"><ele>30.75</ele><time>2026-04-19T15:03:14.928Z</time></trkpt><trkpt lat="43.8278055" lon="10.6498382"><ele>30.5</ele><time>2026-04-19T15:03:15.928Z</time></trkpt><trkpt lat="43.8278514" lon="10.6496906"><ele>30.25</ele><time>2026-04-19T15:03:16.928Z</time></trkpt><trkpt lat="43.8278928" lon="10.6495294"><ele>30.0</ele><time>2026-04-19T15:03:17.928Z</time></trkpt><trkpt lat="43.8279312" lon="10.6493571"><ele>30.0</ele><time>2026-04-19T15:03:18.928Z</time></trkpt><trkpt lat="43.8279644" lon="10.6491871"><ele>30.0</ele><time>2026-04-19T15:03:19.928Z</time></trkpt><trkpt lat="43.8279947" lon="10.6490197"><ele>30.0</ele><time>2026-04-19T15:03:20.929Z</time></trkpt><trkpt lat="43.8280184" lon="10.6488542"><ele>30.0</ele><time>2026-04-19T15:03:21.928Z</time></trkpt><trkpt lat="43.8280458" lon="10.6486866"><ele>29.75</ele><time>2026-04-19T15:03:22.929Z</time></trkpt><trkpt lat="43.8280712" lon="10.6485141"><ele>29.5</ele><time>2026-04-19T15:03:23.928Z</time></trkpt><trkpt lat="43.8280985" lon="10.6483322"><ele>29.25</ele><time>2026-04-19T15:03:24.928Z</time></trkpt><trkpt lat="43.8281242" lon="10.6481579"><ele>29.0</ele><time>2026-04-19T15:03:25.928Z</time></trkpt><trkpt lat="43.828147" lon="10.647986"><ele>29.0</ele><time>2026-04-19T15:03:26.928Z</time></trkpt><trkpt lat="43.8281695" lon="10.6478094"><ele>29.0</ele><time>2026-04-19T15:03:27.928Z</time></trkpt><trkpt lat="43.828194" lon="10.6476306"><ele>29.0</ele><time>2026-04-19T15:03:28.928Z</time></trkpt><trkpt lat="43.8282211" lon="10.6474487"><ele>29.0</ele><time>2026-04-19T15:03:29.929Z</time></trkpt><trkpt lat="43.8282473" lon="10.6472682"><ele>29.0</ele><time>2026-04-19T15:03:30.928Z</time></trkpt><trkpt lat="43.8282715" lon="10.6470915"><ele>29.0</ele><time>2026-04-19T15:03:31.928Z</time></trkpt><trkpt lat="43.8282969" lon="10.6469118"><ele>29.0</ele><time>2026-04-19T15:03:32.928Z</time></trkpt><trkpt lat="43.8283206" lon="10.6467418"><ele>29.0</ele><time>2026-04-19T15:03:33.928Z</time></trkpt><trkpt lat="43.8283413" lon="10.6465782"><ele>28.75</ele><time>2026-04-19T15:03:34.928Z</time></trkpt><trkpt lat="43.8283638" lon="10.6464075"><ele>28.5</ele><time>2026-04-19T15:03:35.928Z</time></trkpt><trkpt lat="43.8283844" lon="10.6462303"><ele>28.25</ele><time>2026-04-19T15:03:36.928Z</time></trkpt><trkpt lat="43.8284084" lon="10.6460484"><ele>28.0</ele><time>2026-04-19T15:03:37.928Z</time></trkpt><trkpt lat="43.8284334" lon="10.6458641"><ele>28.0</ele><time>2026-04-19T15:03:38.928Z</time></trkpt><trkpt lat="43.8284609" lon="10.6456755"><ele>28.0</ele><time>2026-04-19T15:03:39.928Z</time></trkpt><trkpt lat="43.8284888" lon="10.6454749"><ele>28.0</ele><time>2026-04-19T15:03:40.928Z</time></trkpt><trkpt lat="43.8285151" lon="10.6452837"><ele>28.0</ele><time>2026-04-19T15:03:41.929Z</time></trkpt><trkpt lat="43.8285396" lon="10.6450964"><ele>27.0</ele><time>2026-04-19T15:03:42.928Z</time></trkpt><trkpt lat="43.8285658" lon="10.6449066"><ele>26.0</ele><time>2026-04-19T15:03:43.928Z</time></trkpt><trkpt lat="43.8285984" lon="10.6447225"><ele>25.0</ele><time>2026-04-19T15:03:44.928Z</time></trkpt><trkpt lat="43.8286308" lon="10.6445385"><ele>24.0</ele><time>2026-04-19T15:03:45.928Z</time></trkpt><trkpt lat="43.8286616" lon="10.6443592"><ele>23.5</ele><time>2026-04-19T15:03:46.928Z</time></trkpt><trkpt lat="43.8286899" lon="10.6441816"><ele>23.0</ele><time>2026-04-19T15:03:47.928Z</time></trkpt><trkpt lat="43.8287199" lon="10.6440085"><ele>22.5</ele><time>2026-04-19T15:03:48.928Z</time></trkpt><trkpt lat="43.8287509" lon="10.6438266"><ele>22.0</ele><time>2026-04-19T15:03:49.928Z</time></trkpt><trkpt lat="43.8287793" lon="10.6436439"><ele>22.0</ele><time>2026-04-19T15:03:50.928Z</time></trkpt><trkpt lat="43.8288078" lon="10.6434568"><ele>22.0</ele><time>2026-04-19T15:03:51.928Z</time></trkpt><trkpt lat="43.8288393" lon="10.6432674"><ele>22.0</ele><time>2026-04-19T15:03:52.928Z</time></trkpt><trkpt lat="43.8288704" lon="10.6430765"><ele>22.0</ele><time>2026-04-19T15:03:53.928Z</time></trkpt><trkpt lat="43.8288994" lon="10.6428845"><ele>21.25</ele><time>2026-04-19T15:03:54.928Z</time></trkpt><trkpt lat="43.8289253" lon="10.6426918"><ele>20.5</ele><time>2026-04-19T15:03:55.928Z</time></trkpt><trkpt lat="43.8289562" lon="10.6425053"><ele>19.75</ele><time>2026-04-19T15:03:56.928Z</time></trkpt><trkpt lat="43.8289805" lon="10.6423123"><ele>19.0</ele><time>2026-04-19T15:03:57.929Z</time></trkpt><trkpt lat="43.8290071" lon="10.6421301"><ele>19.0</ele><time>2026-04-19T15:03:58.928Z</time></trkpt><trkpt lat="43.8290332" lon="10.6419551"><ele>19.0</ele><time>2026-04-19T15:03:59.928Z</time></trkpt><trkpt lat="43.8290589" lon="10.6417835"><ele>19.0</ele><time>2026-04-19T15:04:00.928Z</time></trkpt><trkpt lat="43.8290839" lon="10.641616"><ele>19.0</ele><time>2026-04-19T15:04:01.928Z</time></trkpt><trkpt lat="43.8291092" lon="10.641451"><ele>19.0</ele><time>2026-04-19T15:04:02.929Z</time></trkpt><trkpt lat="43.8291307" lon="10.6412801"><ele>19.0</ele><time>2026-04-19T15:04:03.928Z</time></trkpt><trkpt lat="43.8291551" lon="10.6411014"><ele>19.0</ele><time>2026-04-19T15:04:04.928Z</time></trkpt><trkpt lat="43.8291831" lon="10.6409212"><ele>19.0</ele><time>2026-04-19T15:04:05.928Z</time></trkpt><trkpt lat="43.8292134" lon="10.6407396"><ele>18.75</ele><time>2026-04-19T15:04:06.928Z</time></trkpt><trkpt lat="43.8292402" lon="10.6405568"><ele>18.5</ele><time>2026-04-19T15:04:07.928Z</time></trkpt><trkpt lat="43.8292696" lon="10.6403735"><ele>18.25</ele><time>2026-04-19T15:04:08.928Z</time></trkpt><trkpt lat="43.8292969" lon="10.6401892"><ele>18.0</ele><time>2026-04-19T15:04:09.928Z</time></trkpt><trkpt lat="43.8293239" lon="10.6400022"><ele>18.0</ele><time>2026-04-19T15:04:10.928Z</time></trkpt><trkpt lat="43.8293551" lon="10.6398113"><ele>18.0</ele><time>2026-04-19T15:04:11.929Z</time></trkpt><trkpt lat="43.8293851" lon="10.6396253"><ele>18.0</ele><time>2026-04-19T15:04:12.928Z</time></trkpt><trkpt lat="43.8294132" lon="10.6394384"><ele>18.0</ele><time>2026-04-19T15:04:13.928Z</time></trkpt><trkpt lat="43.829442" lon="10.6392532"><ele>18.0</ele><time>2026-04-19T15:04:14.928Z</time></trkpt><trkpt lat="43.8294713" lon="10.6390772"><ele>18.0</ele><time>2026-04-19T15:04:15.928Z</time></trkpt><trkpt lat="43.8294984" lon="10.6388913"><ele>18.0</ele><time>2026-04-19T15:04:16.928Z</time></trkpt><trkpt lat="43.8295271" lon="10.6387058"><ele>18.0</ele><time>2026-04-19T15:04:17.928Z</time></trkpt><trkpt lat="43.8295515" lon="10.6385221"><ele>17.25</ele><time>2026-04-19T15:04:18.928Z</time></trkpt><trkpt lat="43.8295791" lon="10.6383396"><ele>16.5</ele><time>2026-04-19T15:04:19.928Z</time></trkpt><trkpt lat="43.8296078" lon="10.6381565"><ele>15.75</ele><time>2026-04-19T15:04:20.928Z</time></trkpt><trkpt lat="43.8296353" lon="10.6379647"><ele>15.0</ele><time>2026-04-19T15:04:21.928Z</time></trkpt><trkpt lat="43.8296636" lon="10.6377744"><ele>14.75</ele><time>2026-04-19T15:04:22.928Z</time></trkpt><trkpt lat="43.8296923" lon="10.6375834"><ele>14.5</ele><time>2026-04-19T15:04:23.928Z</time></trkpt><trkpt lat="43.8297232" lon="10.6373918"><ele>14.25</ele><time>2026-04-19T15:04:24.928Z</time></trkpt><trkpt lat="43.8297566" lon="10.6372005"><ele>14.0</ele><time>2026-04-19T15:04:25.928Z</time></trkpt><trkpt lat="43.8297847" lon="10.637007"><ele>13.75</ele><time>2026-04-19T15:04:26.928Z</time></trkpt><trkpt lat="43.8298153" lon="10.6368134"><ele>13.5</ele><time>2026-04-19T15:04:27.928Z</time></trkpt><trkpt lat="43.8298406" lon="10.636618"><ele>13.25</ele><time>2026-04-19T15:04:28.928Z</time></trkpt><trkpt lat="43.8298668" lon="10.6364166"><ele>13.0</ele><time>2026-04-19T15:04:29.928Z</time></trkpt><trkpt lat="43.8298965" lon="10.6362142"><ele>12.333333333333332</ele><time>2026-04-19T15:04:30.928Z</time></trkpt><trkpt lat="43.8299278" lon="10.6360118"><ele>11.666666666666666</ele><time>2026-04-19T15:04:31.929Z</time></trkpt><trkpt lat="43.8299572" lon="10.6358043"><ele>11.0</ele><time>2026-04-19T15:04:32.928Z</time></trkpt><trkpt lat="43.8299882" lon="10.6355977"><ele>11.0</ele><time>2026-04-19T15:04:33.928Z</time></trkpt><trkpt lat="43.8300225" lon="10.6353917"><ele>11.0</ele><time>2026-04-19T15:04:34.928Z</time></trkpt><trkpt lat="43.8300535" lon="10.635189"><ele>11.0</ele><time>2026-04-19T15:04:35.929Z</time></trkpt><trkpt lat="43.8300845" lon="10.6349925"><ele>11.0</ele><time>2026-04-19T15:04:36.928Z</time></trkpt><trkpt lat="43.8301143" lon="10.6347945"><ele>11.25</ele><time>2026-04-19T15:04:37.928Z</time></trkpt><trkpt lat="43.8301484" lon="10.6345909"><ele>11.5</ele><time>2026-04-19T15:04:38.929Z</time></trkpt><trkpt lat="43.8301784" lon="10.6343929"><ele>11.75</ele><time>2026-04-19T15:04:39.928Z</time></trkpt><trkpt lat="43.8302107" lon="10.6341937"><ele>12.0</ele><time>2026-04-19T15:04:40.929Z</time></trkpt><trkpt lat="43.8302397" lon="10.6339976"><ele>12.5</ele><time>2026-04-19T15:04:41.929Z</time></trkpt><trkpt lat="43.8302705" lon="10.6338012"><ele>13.0</ele><time>2026-04-19T15:04:42.928Z</time></trkpt><trkpt lat="43.8303006" lon="10.6336027"><ele>13.5</ele><time>2026-04-19T15:04:43.928Z</time></trkpt><trkpt lat="43.8303293" lon="10.6334057"><ele>14.0</ele><time>2026-04-19T15:04:44.928Z</time></trkpt><trkpt lat="43.8303569" lon="10.6332058"><ele>14.0</ele><time>2026-04-19T15:04:45.928Z</time></trkpt><trkpt lat="43.8303848" lon="10.6330137"><ele>14.0</ele><time>2026-04-19T15:04:46.928Z</time></trkpt><trkpt lat="43.8304103" lon="10.6328327"><ele>14.0</ele><time>2026-04-19T15:04:47.928Z</time></trkpt><trkpt lat="43.8304384" lon="10.6326622"><ele>14.0</ele><time>2026-04-19T15:04:48.928Z</time></trkpt><trkpt lat="43.8304669" lon="10.6324896"><ele>14.0</ele><time>2026-04-19T15:04:49.928Z</time></trkpt><trkpt lat="43.8304937" lon="10.6323135"><ele>14.0</ele><time>2026-04-19T15:04:50.928Z</time></trkpt><trkpt lat="43.8305224" lon="10.6321281"><ele>14.0</ele><time>2026-04-19T15:04:51.928Z</time></trkpt><trkpt lat="43.8305477" lon="10.6319446"><ele>14.0</ele><time>2026-04-19T15:04:52.928Z</time></trkpt><trkpt lat="43.8305752" lon="10.6317642"><ele>13.5</ele><time>2026-04-19T15:04:53.928Z</time></trkpt><trkpt lat="43.8306026" lon="10.6315839"><ele>13.0</ele><time>2026-04-19T15:04:54.928Z</time></trkpt><trkpt lat="43.8306314" lon="10.6314004"><ele>12.5</ele><time>2026-04-19T15:04:55.928Z</time></trkpt><trkpt lat="43.8306571" lon="10.6312122"><ele>12.0</ele><time>2026-04-19T15:04:56.928Z</time></trkpt><trkpt lat="43.8306881" lon="10.6310273"><ele>12.0</ele><time>2026-04-19T15:04:57.928Z</time></trkpt><trkpt lat="43.830715" lon="10.6308449"><ele>12.0</ele><time>2026-04-19T15:04:58.928Z</time></trkpt><trkpt lat="43.8307432" lon="10.63066"><ele>12.0</ele><time>2026-04-19T15:04:59.928Z</time></trkpt><trkpt lat="43.8307754" lon="10.6304742"><ele>12.0</ele><time>2026-04-19T15:05:00.928Z</time></trkpt><trkpt lat="43.8308108" lon="10.6302933"><ele>11.75</ele><time>2026-04-19T15:05:01.928Z</time></trkpt><trkpt lat="43.8308468" lon="10.6301103"><ele>11.5</ele><time>2026-04-19T15:05:02.928Z</time></trkpt><trkpt lat="43.8308859" lon="10.6299287"><ele>11.25</ele><time>2026-04-19T15:05:03.928Z</time></trkpt><trkpt lat="43.8309268" lon="10.6297454"><ele>11.0</ele><time>2026-04-19T15:05:04.929Z</time></trkpt><trkpt lat="43.8309686" lon="10.6295617"><ele>11.75</ele><time>2026-04-19T15:05:05.928Z</time></trkpt><trkpt lat="43.8310105" lon="10.6293755"><ele>12.5</ele><time>2026-04-19T15:05:06.929Z</time></trkpt><trkpt lat="43.831055" lon="10.6291836"><ele>13.25</ele><time>2026-04-19T15:05:07.928Z</time></trkpt><trkpt lat="43.8311007" lon="10.6289959"><ele>14.0</ele><time>2026-04-19T15:05:08.928Z</time></trkpt><trkpt lat="43.8311482" lon="10.6288055"><ele>13.5</ele><time>2026-04-19T15:05:09.928Z</time></trkpt><trkpt lat="43.8311959" lon="10.6286175"><ele>13.0</ele><time>2026-04-19T15:05:10.928Z</time></trkpt><trkpt lat="43.8312445" lon="10.6284289"><ele>12.5</ele><time>2026-04-19T15:05:11.929Z</time></trkpt><trkpt lat="43.831291" lon="10.6282431"><ele>12.0</ele><time>2026-04-19T15:05:12.928Z</time></trkpt><trkpt lat="43.8313369" lon="10.6280537"><ele>12.0</ele><time>2026-04-19T15:05:13.928Z</time></trkpt><trkpt lat="43.8313836" lon="10.6278656"><ele>12.0</ele><time>2026-04-19T15:05:14.928Z</time></trkpt><trkpt lat="43.8314287" lon="10.6276812"><ele>12.0</ele><time>2026-04-19T15:05:15.928Z</time></trkpt><trkpt lat="43.8314748" lon="10.6274953"><ele>12.0</ele><time>2026-04-19T15:05:16.928Z</time></trkpt><trkpt lat="43.8315196" lon="10.6273093"><ele>12.333333333333332</ele><time>2026-04-19T15:05:17.928Z</time></trkpt><trkpt lat="43.8315673" lon="10.6271124"><ele>12.666666666666666</ele><time>2026-04-19T15:05:18.928Z</time></trkpt><trkpt lat="43.8316205" lon="10.6269067"><ele>13.0</ele><time>2026-04-19T15:05:19.928Z</time></trkpt><trkpt lat="43.8316758" lon="10.6267002"><ele>12.333333333333332</ele><time>2026-04-19T15:05:20.928Z</time></trkpt><trkpt lat="43.8317221" lon="10.6264984"><ele>11.666666666666666</ele><time>2026-04-19T15:05:21.928Z</time></trkpt><trkpt lat="43.8317722" lon="10.6262914"><ele>11.0</ele><time>2026-04-19T15:05:22.928Z</time></trkpt><trkpt lat="43.8318277" lon="10.6260901"><ele>11.0</ele><time>2026-04-19T15:05:23.928Z</time></trkpt><trkpt lat="43.831881" lon="10.6258848"><ele>11.0</ele><time>2026-04-19T15:05:24.929Z</time></trkpt><trkpt lat="43.8319326" lon="10.6256876"><ele>11.0</ele><time>2026-04-19T15:05:25.928Z</time></trkpt><trkpt lat="43.8319823" lon="10.6254937"><ele>11.333333333333332</ele><time>2026-04-19T15:05:26.928Z</time></trkpt><trkpt lat="43.8320297" lon="10.6252945"><ele>11.666666666666666</ele><time>2026-04-19T15:05:27.929Z</time></trkpt><trkpt lat="43.8320812" lon="10.6250908"><ele>12.0</ele><time>2026-04-19T15:05:28.928Z</time></trkpt><trkpt lat="43.8321319" lon="10.6248848"><ele>12.0</ele><time>2026-04-19T15:05:29.928Z</time></trkpt><trkpt lat="43.8321783" lon="10.6246824"><ele>12.0</ele><time>2026-04-19T15:05:30.928Z</time></trkpt><trkpt lat="43.8322297" lon="10.6244848"><ele>12.0</ele><time>2026-04-19T15:05:31.928Z</time></trkpt><trkpt lat="43.8322763" lon="10.624292"><ele>12.0</ele><time>2026-04-19T15:05:32.928Z</time></trkpt><trkpt lat="43.8323256" lon="10.6241091"><ele>12.0</ele><time>2026-04-19T15:05:33.928Z</time></trkpt><trkpt lat="43.8323728" lon="10.6239255"><ele>12.0</ele><time>2026-04-19T15:05:34.928Z</time></trkpt><trkpt lat="43.8324172" lon="10.6237474"><ele>12.0</ele><time>2026-04-19T15:05:35.928Z</time></trkpt><trkpt lat="43.8324663" lon="10.6235588"><ele>12.0</ele><time>2026-04-19T15:05:36.928Z</time></trkpt><trkpt lat="43.8325194" lon="10.6233557"><ele>12.0</ele><time>2026-04-19T15:05:37.928Z</time></trkpt><trkpt lat="43.8325733" lon="10.6231345"><ele>12.0</ele><time>2026-04-19T15:05:38.929Z</time></trkpt><trkpt lat="43.8326253" lon="10.6229138"><ele>11.666666666666666</ele><time>2026-04-19T15:05:39.928Z</time></trkpt><trkpt lat="43.8326785" lon="10.6227026"><ele>11.333333333333332</ele><time>2026-04-19T15:05:40.928Z</time></trkpt><trkpt lat="43.8327242" lon="10.6224953"><ele>11.0</ele><time>2026-04-19T15:05:41.929Z</time></trkpt><trkpt lat="43.8327698" lon="10.6223048"><ele>11.0</ele><time>2026-04-19T15:05:42.928Z</time></trkpt><trkpt lat="43.8328096" lon="10.6221236"><ele>11.0</ele><time>2026-04-19T15:05:43.929Z</time></trkpt><trkpt lat="43.8328525" lon="10.6219404"><ele>11.0</ele><time>2026-04-19T15:05:44.928Z</time></trkpt><trkpt lat="43.8328958" lon="10.6217591"><ele>11.0</ele><time>2026-04-19T15:05:45.929Z</time></trkpt><trkpt lat="43.8329397" lon="10.6215814"><ele>11.0</ele><time>2026-04-19T15:05:46.928Z</time></trkpt><trkpt lat="43.8329823" lon="10.6214086"><ele>11.0</ele><time>2026-04-19T15:05:47.928Z</time></trkpt><trkpt lat="43.8330213" lon="10.621245"><ele>11.0</ele><time>2026-04-19T15:05:48.929Z</time></trkpt><trkpt lat="43.8330597" lon="10.6210855"><ele>11.0</ele><time>2026-04-19T15:05:49.928Z</time></trkpt><trkpt lat="43.8330968" lon="10.6209255"><ele>11.166666666666666</ele><time>2026-04-19T15:05:50.928Z</time></trkpt><trkpt lat="43.8331307" lon="10.6207829"><ele>11.333333333333332</ele><time>2026-04-19T15:05:51.928Z</time></trkpt><trkpt lat="43.8331622" lon="10.6206615"><ele>11.5</ele><time>2026-04-19T15:05:52.928Z</time></trkpt><trkpt lat="43.8331945" lon="10.6205579"><ele>11.666666666666666</ele><time>2026-04-19T15:05:53.928Z</time></trkpt><trkpt lat="43.8332307" lon="10.6204671"><ele>11.833333333333334</ele><time>2026-04-19T15:05:54.928Z</time></trkpt><trkpt lat="43.8332677" lon="10.6203839"><ele>12.0</ele><time>2026-04-19T15:05:55.929Z</time></trkpt><trkpt lat="43.8333111" lon="10.6203065"><ele>11.666666666666666</ele><time>2026-04-19T15:05:56.928Z</time></trkpt><trkpt lat="43.833348" lon="10.6202264"><ele>11.333333333333334</ele><time>2026-04-19T15:05:57.928Z</time></trkpt><trkpt lat="43.8333743" lon="10.6201369"><ele>11.0</ele><time>2026-04-19T15:05:58.928Z</time></trkpt><trkpt lat="43.8333871" lon="10.6200314"><ele>10.666666666666668</ele><time>2026-04-19T15:05:59.929Z</time></trkpt><trkpt lat="43.8333933" lon="10.6199054"><ele>10.333333333333334</ele><time>2026-04-19T15:06:00.928Z</time></trkpt><trkpt lat="43.8334094" lon="10.6197631"><ele>10.0</ele><time>2026-04-19T15:06:01.928Z</time></trkpt><trkpt lat="43.8334376" lon="10.6196164"><ele>10.5</ele><time>2026-04-19T15:06:02.928Z</time></trkpt><trkpt lat="43.8334777" lon="10.6194606"><ele>11.0</ele><time>2026-04-19T15:06:03.928Z</time></trkpt><trkpt lat="43.8335165" lon="10.619302"><ele>11.5</ele><time>2026-04-19T15:06:04.928Z</time></trkpt><trkpt lat="43.8335515" lon="10.6191449"><ele>12.0</ele><time>2026-04-19T15:06:05.928Z</time></trkpt><trkpt lat="43.8335962" lon="10.6189574"><ele>12.0</ele><time>2026-04-19T15:06:06.928Z</time></trkpt><trkpt lat="43.8336424" lon="10.6187706"><ele>12.0</ele><time>2026-04-19T15:06:07.928Z</time></trkpt><trkpt lat="43.8336859" lon="10.6185802"><ele>12.0</ele><time>2026-04-19T15:06:08.928Z</time></trkpt><trkpt lat="43.8337299" lon="10.618405"><ele>12.0</ele><time>2026-04-19T15:06:09.928Z</time></trkpt><trkpt lat="43.8337769" lon="10.6182353"><ele>12.0</ele><time>2026-04-19T15:06:10.928Z</time></trkpt><trkpt lat="43.8338193" lon="10.6180653"><ele>12.0</ele><time>2026-04-19T15:06:11.928Z</time></trkpt><trkpt lat="43.8338623" lon="10.6178941"><ele>12.0</ele><time>2026-04-19T15:06:12.928Z</time></trkpt><trkpt lat="43.8339038" lon="10.6177271"><ele>12.0</ele><time>2026-04-19T15:06:13.928Z</time></trkpt><trkpt lat="43.8339527" lon="10.6175658"><ele>11.75</ele><time>2026-04-19T15:06:14.929Z</time></trkpt><trkpt lat="43.8339966" lon="10.617408"><ele>11.5</ele><time>2026-04-19T15:06:15.928Z</time></trkpt><trkpt lat="43.8340377" lon="10.6172515"><ele>11.25</ele><time>2026-04-19T15:06:16.928Z</time></trkpt><trkpt lat="43.8340691" lon="10.6171031"><ele>11.0</ele><time>2026-04-19T15:06:17.928Z</time></trkpt><trkpt lat="43.8341053" lon="10.6169766"><ele>10.666666666666666</ele><time>2026-04-19T15:06:18.929Z</time></trkpt><trkpt lat="43.8341442" lon="10.6168618"><ele>10.333333333333332</ele><time>2026-04-19T15:06:19.929Z</time></trkpt><trkpt lat="43.834176" lon="10.6167486"><ele>10.0</ele><time>2026-04-19T15:06:20.928Z</time></trkpt><trkpt lat="43.834205" lon="10.6166422"><ele>9.666666666666666</ele><time>2026-04-19T15:06:21.928Z</time></trkpt><trkpt lat="43.8342355" lon="10.6165413"><ele>9.333333333333334</ele><time>2026-04-19T15:06:22.928Z</time></trkpt><trkpt lat="43.8342733" lon="10.6164432"><ele>9.0</ele><time>2026-04-19T15:06:23.928Z</time></trkpt><trkpt lat="43.8343184" lon="10.616351"><ele>9.0</ele><time>2026-04-19T15:06:24.928Z</time></trkpt><trkpt lat="43.8343712" lon="10.6162683"><ele>9.0</ele><time>2026-04-19T15:06:25.928Z</time></trkpt><trkpt lat="43.834417" lon="10.6161935"><ele>9.0</ele><time>2026-04-19T15:06:26.928Z</time></trkpt><trkpt lat="43.8344657" lon="10.6161114"><ele>9.0</ele><time>2026-04-19T15:06:27.928Z</time></trkpt><trkpt lat="43.8345064" lon="10.6160243"><ele>9.0</ele><time>2026-04-19T15:06:28.928Z</time></trkpt><trkpt lat="43.8345336" lon="10.6159225"><ele>9.0</ele><time>2026-04-19T15:06:29.928Z</time></trkpt><trkpt lat="43.8345485" lon="10.6157987"><ele>9.25</ele><time>2026-04-19T15:06:30.928Z</time></trkpt><trkpt lat="43.8345506" lon="10.6156506"><ele>9.5</ele><time>2026-04-19T15:06:31.928Z</time></trkpt><trkpt lat="43.8345479" lon="10.6154992"><ele>9.75</ele><time>2026-04-19T15:06:32.929Z</time></trkpt><trkpt lat="43.834551" lon="10.6153399"><ele>10.0</ele><time>2026-04-19T15:06:33.928Z</time></trkpt><trkpt lat="43.8345752" lon="10.6151674"><ele>10.25</ele><time>2026-04-19T15:06:34.928Z</time></trkpt><trkpt lat="43.8346132" lon="10.6149897"><ele>10.5</ele><time>2026-04-19T15:06:35.928Z</time></trkpt><trkpt lat="43.8346552" lon="10.61482"><ele>10.75</ele><time>2026-04-19T15:06:36.928Z</time></trkpt><trkpt lat="43.8347006" lon="10.6146435"><ele>11.0</ele><time>2026-04-19T15:06:37.928Z</time></trkpt><trkpt lat="43.8347401" lon="10.6144737"><ele>11.0</ele><time>2026-04-19T15:06:38.928Z</time></trkpt><trkpt lat="43.834784" lon="10.614294"><ele>11.0</ele><time>2026-04-19T15:06:39.928Z</time></trkpt><trkpt lat="43.8348293" lon="10.6141245"><ele>11.0</ele><time>2026-04-19T15:06:40.928Z</time></trkpt><trkpt lat="43.8348683" lon="10.6139642"><ele>11.0</ele><time>2026-04-19T15:06:41.928Z</time></trkpt><trkpt lat="43.8349118" lon="10.6138124"><ele>11.0</ele><time>2026-04-19T15:06:42.928Z</time></trkpt><trkpt lat="43.8349558" lon="10.6136571"><ele>11.0</ele><time>2026-04-19T15:06:43.928Z</time></trkpt><trkpt lat="43.8349966" lon="10.6134995"><ele>11.0</ele><time>2026-04-19T15:06:44.928Z</time></trkpt><trkpt lat="43.8350364" lon="10.6133402"><ele>11.0</ele><time>2026-04-19T15:06:45.928Z</time></trkpt><trkpt lat="43.8350766" lon="10.6131794"><ele>11.0</ele><time>2026-04-19T15:06:46.928Z</time></trkpt><trkpt lat="43.8351161" lon="10.6130177"><ele>11.0</ele><time>2026-04-19T15:06:47.928Z</time></trkpt><trkpt lat="43.8351601" lon="10.6128565"><ele>11.0</ele><time>2026-04-19T15:06:48.928Z</time></trkpt><trkpt lat="43.8352052" lon="10.6126926"><ele>11.0</ele><time>2026-04-19T15:06:49.928Z</time></trkpt><trkpt lat="43.8352576" lon="10.6125108"><ele>11.0</ele><time>2026-04-19T15:06:50.929Z</time></trkpt><trkpt lat="43.8353274" lon="10.612301"><ele>11.0</ele><time>2026-04-19T15:06:51.928Z</time></trkpt><trkpt lat="43.835394" lon="10.6121044"><ele>11.0</ele><time>2026-04-19T15:06:52.928Z</time></trkpt><trkpt lat="43.8354693" lon="10.6119094"><ele>10.666666666666666</ele><time>2026-04-19T15:06:53.928Z</time></trkpt><trkpt lat="43.8355529" lon="10.6117177"><ele>10.333333333333334</ele><time>2026-04-19T15:06:54.929Z</time></trkpt><trkpt lat="43.8356369" lon="10.611539"><ele>10.0</ele><time>2026-04-19T15:06:55.928Z</time></trkpt><trkpt lat="43.835725" lon="10.6113736"><ele>10.0</ele><time>2026-04-19T15:06:56.929Z</time></trkpt><trkpt lat="43.8358176" lon="10.6112165"><ele>10.0</ele><time>2026-04-19T15:06:57.928Z</time></trkpt><trkpt lat="43.8359094" lon="10.6110675"><ele>10.0</ele><time>2026-04-19T15:06:58.928Z</time></trkpt><trkpt lat="43.8360067" lon="10.6109106"><ele>10.0</ele><time>2026-04-19T15:06:59.928Z</time></trkpt><trkpt lat="43.83612" lon="10.610737"><ele>10.666666666666668</ele><time>2026-04-19T15:07:00.928Z</time></trkpt><trkpt lat="43.8362609" lon="10.6105342"><ele>11.333333333333334</ele><time>2026-04-19T15:07:01.928Z</time></trkpt><trkpt lat="43.8364267" lon="10.6103097"><ele>12.0</ele><time>2026-04-19T15:07:02.928Z</time></trkpt><trkpt lat="43.8365943" lon="10.6100833"><ele>12.0</ele><time>2026-04-19T15:07:03.929Z</time></trkpt><trkpt lat="43.836757" lon="10.6098711"><ele>12.0</ele><time>2026-04-19T15:07:04.929Z</time></trkpt><trkpt lat="43.8369157" lon="10.6096738"><ele>12.0</ele><time>2026-04-19T15:07:05.928Z</time></trkpt><trkpt lat="43.8370729" lon="10.6094831"><ele>12.0</ele><time>2026-04-19T15:07:06.929Z</time></trkpt><trkpt lat="43.8372154" lon="10.6092947"><ele>12.0</ele><time>2026-04-19T15:07:07.929Z</time></trkpt><trkpt lat="43.8373506" lon="10.6091141"><ele>12.0</ele><time>2026-04-19T15:07:08.928Z</time></trkpt><trkpt lat="43.8374869" lon="10.608933"><ele>12.0</ele><time>2026-04-19T15:07:09.928Z</time></trkpt><trkpt lat="43.837618" lon="10.6087566"><ele>12.0</ele><time>2026-04-19T15:07:10.928Z</time></trkpt><trkpt lat="43.8377517" lon="10.6085861"><ele>12.0</ele><time>2026-04-19T15:07:11.928Z</time></trkpt><trkpt lat="43.8378807" lon="10.6084089"><ele>12.0</ele><time>2026-04-19T15:07:12.929Z</time></trkpt><trkpt lat="43.8380113" lon="10.6082356"><ele>12.0</ele><time>2026-04-19T15:07:13.928Z</time></trkpt><trkpt lat="43.8381423" lon="10.6080686"><ele>12.0</ele><time>2026-04-19T15:07:14.928Z</time></trkpt><trkpt lat="43.8382709" lon="10.6078928"><ele>12.0</ele><time>2026-04-19T15:07:15.928Z</time></trkpt><trkpt lat="43.838397" lon="10.6077261"><ele>12.0</ele><time>2026-04-19T15:07:16.928Z</time></trkpt><trkpt lat="43.8385247" lon="10.6075572"><ele>12.0</ele><time>2026-04-19T15:07:17.928Z</time></trkpt><trkpt lat="43.8386491" lon="10.6073799"><ele>11.666666666666666</ele><time>2026-04-19T15:07:18.928Z</time></trkpt><trkpt lat="43.8387767" lon="10.6072068"><ele>11.333333333333332</ele><time>2026-04-19T15:07:19.928Z</time></trkpt><trkpt lat="43.8389007" lon="10.6070414"><ele>11.0</ele><time>2026-04-19T15:07:20.929Z</time></trkpt><trkpt lat="43.8390289" lon="10.6068695"><ele>11.0</ele><time>2026-04-19T15:07:21.929Z</time></trkpt><trkpt lat="43.8391572" lon="10.6066952"><ele>11.0</ele><time>2026-04-19T15:07:22.928Z</time></trkpt><trkpt lat="43.8392783" lon="10.6065287"><ele>11.0</ele><time>2026-04-19T15:07:23.928Z</time></trkpt><trkpt lat="43.8393994" lon="10.6063633"><ele>11.333333333333332</ele><time>2026-04-19T15:07:24.929Z</time></trkpt><trkpt lat="43.8395171" lon="10.6062015"><ele>11.666666666666666</ele><time>2026-04-19T15:07:25.928Z</time></trkpt><trkpt lat="43.839638" lon="10.6060297"><ele>12.0</ele><time>2026-04-19T15:07:26.929Z</time></trkpt><trkpt lat="43.8397663" lon="10.6058636"><ele>12.0</ele><time>2026-04-19T15:07:27.928Z</time></trkpt><trkpt lat="43.8398894" lon="10.605695"><ele>12.0</ele><time>2026-04-19T15:07:28.928Z</time></trkpt><trkpt lat="43.8400065" lon="10.6055414"><ele>12.0</ele><time>2026-04-19T15:07:29.928Z</time></trkpt><trkpt lat="43.8401178" lon="10.6053956"><ele>12.25</ele><time>2026-04-19T15:07:30.928Z</time></trkpt><trkpt lat="43.8402196" lon="10.6052601"><ele>12.5</ele><time>2026-04-19T15:07:31.928Z</time></trkpt><trkpt lat="43.8403151" lon="10.6051403"><ele>12.75</ele><time>2026-04-19T15:07:32.928Z</time></trkpt><trkpt lat="43.8404097" lon="10.6050206"><ele>13.0</ele><time>2026-04-19T15:07:33.929Z</time></trkpt><trkpt lat="43.8405032" lon="10.6049057"><ele>13.0</ele><time>2026-04-19T15:07:34.928Z</time></trkpt><trkpt lat="43.8405991" lon="10.6047823"><ele>13.0</ele><time>2026-04-19T15:07:35.928Z</time></trkpt><trkpt lat="43.8406957" lon="10.6046721"><ele>13.0</ele><time>2026-04-19T15:07:36.928Z</time></trkpt><trkpt lat="43.8407845" lon="10.6045709"><ele>13.0</ele><time>2026-04-19T15:07:37.928Z</time></trkpt><trkpt lat="43.8408726" lon="10.6044859"><ele>12.999999999999998</ele><time>2026-04-19T15:07:38.928Z</time></trkpt><trkpt lat="43.840943" lon="10.6044232"><ele>13.0</ele><time>2026-04-19T15:07:39.928Z</time></trkpt><trkpt lat="43.8409989" lon="10.604372"><ele>13.0</ele><time>2026-04-19T15:07:40.929Z</time></trkpt><trkpt lat="43.8410612" lon="10.6043277"><ele>13.0</ele><time>2026-04-19T15:07:42.928Z</time></trkpt><trkpt lat="43.8411214" lon="10.60429"><ele>12.999999999999998</ele><time>2026-04-19T15:07:52.928Z</time></trkpt><trkpt lat="43.8412302" lon="10.6042543"><ele>13.0</ele><time>2026-04-19T15:07:54.928Z</time></trkpt><trkpt lat="43.8412946" lon="10.6042196"><ele>13.0</ele><time>2026-04-19T15:07:55.928Z</time></trkpt><trkpt lat="43.8413597" lon="10.6041547"><ele>13.0</ele><time>2026-04-19T15:07:56.928Z</time></trkpt><trkpt lat="43.841416" lon="10.6040734"><ele>13.0</ele><time>2026-04-19T15:07:57.928Z</time></trkpt><trkpt lat="43.8414896" lon="10.6039469"><ele>13.0</ele><time>2026-04-19T15:07:58.928Z</time></trkpt><trkpt lat="43.8415706" lon="10.603793"><ele>13.0</ele><time>2026-04-19T15:07:59.928Z</time></trkpt><trkpt lat="43.8416635" lon="10.6036026"><ele>13.333333333333332</ele><time>2026-04-19T15:08:00.928Z</time></trkpt><trkpt lat="43.8417596" lon="10.6034033"><ele>13.666666666666668</ele><time>2026-04-19T15:08:01.929Z</time></trkpt><trkpt lat="43.8418633" lon="10.6031868"><ele>14.0</ele><time>2026-04-19T15:08:02.928Z</time></trkpt><trkpt lat="43.8419632" lon="10.6029934"><ele>13.333333333333334</ele><time>2026-04-19T15:08:03.928Z</time></trkpt><trkpt lat="43.8420692" lon="10.602808"><ele>12.666666666666668</ele><time>2026-04-19T15:08:04.928Z</time></trkpt><trkpt lat="43.8421711" lon="10.602645"><ele>12.0</ele><time>2026-04-19T15:08:05.928Z</time></trkpt><trkpt lat="43.8422751" lon="10.6024945"><ele>12.0</ele><time>2026-04-19T15:08:06.928Z</time></trkpt><trkpt lat="43.8423828" lon="10.6023521"><ele>12.0</ele><time>2026-04-19T15:08:07.928Z</time></trkpt><trkpt lat="43.8424798" lon="10.6022178"><ele>12.0</ele><time>2026-04-19T15:08:08.928Z</time></trkpt><trkpt lat="43.8425776" lon="10.6020941"><ele>12.0</ele><time>2026-04-19T15:08:09.928Z</time></trkpt><trkpt lat="43.8426682" lon="10.6019683"><ele>12.0</ele><time>2026-04-19T15:08:10.928Z</time></trkpt><trkpt lat="43.8427628" lon="10.6018424"><ele>12.0</ele><time>2026-04-19T15:08:11.928Z</time></trkpt><trkpt lat="43.8428434" lon="10.6017232"><ele>12.0</ele><time>2026-04-19T15:08:12.928Z</time></trkpt><trkpt lat="43.8429293" lon="10.6016042"><ele>12.0</ele><time>2026-04-19T15:08:13.928Z</time></trkpt><trkpt lat="43.8430101" lon="10.6014886"><ele>12.0</ele><time>2026-04-19T15:08:14.928Z</time></trkpt><trkpt lat="43.8430923" lon="10.6013856"><ele>12.0</ele><time>2026-04-19T15:08:15.929Z</time></trkpt><trkpt lat="43.8431722" lon="10.6012799"><ele>12.0</ele><time>2026-04-19T15:08:16.928Z</time></trkpt><trkpt lat="43.8432528" lon="10.6011661"><ele>12.0</ele><time>2026-04-19T15:08:17.928Z</time></trkpt><trkpt lat="43.8433385" lon="10.6010481"><ele>12.333333333333332</ele><time>2026-04-19T15:08:18.929Z</time></trkpt><trkpt lat="43.8434354" lon="10.6009095"><ele>12.666666666666666</ele><time>2026-04-19T15:08:19.928Z</time></trkpt><trkpt lat="43.8435487" lon="10.6007348"><ele>13.0</ele><time>2026-04-19T15:08:20.928Z</time></trkpt><trkpt lat="43.8436868" lon="10.6005372"><ele>12.666666666666666</ele><time>2026-04-19T15:08:21.928Z</time></trkpt><trkpt lat="43.8438422" lon="10.6003197"><ele>12.333333333333332</ele><time>2026-04-19T15:08:22.928Z</time></trkpt><trkpt lat="43.843998" lon="10.6001083"><ele>12.0</ele><time>2026-04-19T15:08:23.928Z</time></trkpt><trkpt lat="43.8441646" lon="10.5999003"><ele>12.0</ele><time>2026-04-19T15:08:24.928Z</time></trkpt><trkpt lat="43.8443472" lon="10.599671"><ele>12.0</ele><time>2026-04-19T15:08:25.928Z</time></trkpt><trkpt lat="43.8445301" lon="10.5994329"><ele>12.0</ele><time>2026-04-19T15:08:26.929Z</time></trkpt><trkpt lat="43.8447206" lon="10.5991807"><ele>12.0</ele><time>2026-04-19T15:08:27.928Z</time></trkpt><trkpt lat="43.8449038" lon="10.598935"><ele>12.0</ele><time>2026-04-19T15:08:28.928Z</time></trkpt><trkpt lat="43.8450972" lon="10.5986814"><ele>12.0</ele><time>2026-04-19T15:08:29.928Z</time></trkpt><trkpt lat="43.8452835" lon="10.5984325"><ele>11.5</ele><time>2026-04-19T15:08:30.928Z</time></trkpt><trkpt lat="43.8454659" lon="10.5981836"><ele>11.0</ele><time>2026-04-19T15:08:31.928Z</time></trkpt><trkpt lat="43.845647" lon="10.5979314"><ele>11.5</ele><time>2026-04-19T15:08:32.928Z</time></trkpt><trkpt lat="43.8458237" lon="10.5976893"><ele>12.0</ele><time>2026-04-19T15:08:33.928Z</time></trkpt><trkpt lat="43.8460018" lon="10.5974477"><ele>12.0</ele><time>2026-04-19T15:08:34.928Z</time></trkpt><trkpt lat="43.8461777" lon="10.597206"><ele>12.0</ele><time>2026-04-19T15:08:35.928Z</time></trkpt><trkpt lat="43.8463508" lon="10.5969713"><ele>12.0</ele><time>2026-04-19T15:08:36.928Z</time></trkpt><trkpt lat="43.8465237" lon="10.5967382"><ele>12.0</ele><time>2026-04-19T15:08:37.928Z</time></trkpt><trkpt lat="43.8466945" lon="10.5965119"><ele>12.5</ele><time>2026-04-19T15:08:38.928Z</time></trkpt><trkpt lat="43.8468674" lon="10.5962798"><ele>13.0</ele><time>2026-04-19T15:08:39.928Z</time></trkpt><trkpt lat="43.847039" lon="10.5960474"><ele>13.0</ele><time>2026-04-19T15:08:40.928Z</time></trkpt><trkpt lat="43.8472009" lon="10.5958266"><ele>13.0</ele><time>2026-04-19T15:08:41.928Z</time></trkpt><trkpt lat="43.8473565" lon="10.5956135"><ele>13.0</ele><time>2026-04-19T15:08:42.928Z</time></trkpt><trkpt lat="43.8475113" lon="10.5953995"><ele>13.333333333333332</ele><time>2026-04-19T15:08:43.928Z</time></trkpt><trkpt lat="43.8476632" lon="10.595189"><ele>13.666666666666668</ele><time>2026-04-19T15:08:44.928Z</time></trkpt><trkpt lat="43.8478177" lon="10.5949831"><ele>14.0</ele><time>2026-04-19T15:08:45.928Z</time></trkpt><trkpt lat="43.8479743" lon="10.5947772"><ele>14.0</ele><time>2026-04-19T15:08:46.928Z</time></trkpt><trkpt lat="43.8481281" lon="10.5945729"><ele>14.0</ele><time>2026-04-19T15:08:47.928Z</time></trkpt><trkpt lat="43.848278" lon="10.5943731"><ele>14.0</ele><time>2026-04-19T15:08:48.928Z</time></trkpt><trkpt lat="43.8484244" lon="10.5941754"><ele>14.666666666666668</ele><time>2026-04-19T15:08:49.928Z</time></trkpt><trkpt lat="43.848572" lon="10.5939802"><ele>15.333333333333332</ele><time>2026-04-19T15:08:50.928Z</time></trkpt><trkpt lat="43.8487201" lon="10.5937797"><ele>16.0</ele><time>2026-04-19T15:08:51.928Z</time></trkpt><trkpt lat="43.8488709" lon="10.5935836"><ele>16.0</ele><time>2026-04-19T15:08:52.928Z</time></trkpt><trkpt lat="43.8490222" lon="10.5933792"><ele>16.0</ele><time>2026-04-19T15:08:53.928Z</time></trkpt><trkpt lat="43.8491739" lon="10.5931768"><ele>16.0</ele><time>2026-04-19T15:08:54.928Z</time></trkpt><trkpt lat="43.8493201" lon="10.5929783"><ele>15.666666666666666</ele><time>2026-04-19T15:08:55.928Z</time></trkpt><trkpt lat="43.8494622" lon="10.5927874"><ele>15.333333333333332</ele><time>2026-04-19T15:08:56.928Z</time></trkpt><trkpt lat="43.849599" lon="10.5926026"><ele>15.0</ele><time>2026-04-19T15:08:57.928Z</time></trkpt><trkpt lat="43.8497302" lon="10.5924174"><ele>15.0</ele><time>2026-04-19T15:08:58.928Z</time></trkpt><trkpt lat="43.8498639" lon="10.5922336"><ele>15.0</ele><time>2026-04-19T15:08:59.928Z</time></trkpt><trkpt lat="43.849999" lon="10.5920501"><ele>15.0</ele><time>2026-04-19T15:09:00.928Z</time></trkpt><trkpt lat="43.8501315" lon="10.591865"><ele>14.666666666666668</ele><time>2026-04-19T15:09:01.928Z</time></trkpt><trkpt lat="43.8502706" lon="10.5916832"><ele>14.333333333333334</ele><time>2026-04-19T15:09:02.928Z</time></trkpt><trkpt lat="43.8504054" lon="10.5914968"><ele>14.0</ele><time>2026-04-19T15:09:03.928Z</time></trkpt><trkpt lat="43.8505397" lon="10.5913126"><ele>14.333333333333334</ele><time>2026-04-19T15:09:04.928Z</time></trkpt><trkpt lat="43.8506691" lon="10.5911305"><ele>14.666666666666668</ele><time>2026-04-19T15:09:05.928Z</time></trkpt><trkpt lat="43.8507951" lon="10.5909622"><ele>15.0</ele><time>2026-04-19T15:09:06.929Z</time></trkpt><trkpt lat="43.8509154" lon="10.5907977"><ele>15.0</ele><time>2026-04-19T15:09:07.928Z</time></trkpt><trkpt lat="43.8510314" lon="10.5906372"><ele>15.0</ele><time>2026-04-19T15:09:08.928Z</time></trkpt><trkpt lat="43.8511472" lon="10.5904775"><ele>15.0</ele><time>2026-04-19T15:09:09.928Z</time></trkpt><trkpt lat="43.8512599" lon="10.5903264"><ele>15.0</ele><time>2026-04-19T15:09:10.928Z</time></trkpt><trkpt lat="43.8513754" lon="10.5901717"><ele>15.0</ele><time>2026-04-19T15:09:11.928Z</time></trkpt><trkpt lat="43.8514889" lon="10.5900194"><ele>15.0</ele><time>2026-04-19T15:09:12.928Z</time></trkpt><trkpt lat="43.8516042" lon="10.5898694"><ele>15.0</ele><time>2026-04-19T15:09:13.928Z</time></trkpt><trkpt lat="43.8517169" lon="10.589722"><ele>15.0</ele><time>2026-04-19T15:09:14.928Z</time></trkpt><trkpt lat="43.851828" lon="10.5895727"><ele>15.0</ele><time>2026-04-19T15:09:15.928Z</time></trkpt><trkpt lat="43.8519355" lon="10.5894236"><ele>15.0</ele><time>2026-04-19T15:09:16.929Z</time></trkpt><trkpt lat="43.8520452" lon="10.5892741"><ele>15.0</ele><time>2026-04-19T15:09:17.928Z</time></trkpt><trkpt lat="43.8521604" lon="10.5891199"><ele>15.0</ele><time>2026-04-19T15:09:18.928Z</time></trkpt><trkpt lat="43.8522755" lon="10.5889666"><ele>15.0</ele><time>2026-04-19T15:09:19.928Z</time></trkpt><trkpt lat="43.8523887" lon="10.5888118"><ele>15.0</ele><time>2026-04-19T15:09:20.928Z</time></trkpt><trkpt lat="43.8525055" lon="10.5886554"><ele>15.0</ele><time>2026-04-19T15:09:21.928Z</time></trkpt><trkpt lat="43.8526177" lon="10.5885003"><ele>14.0</ele><time>2026-04-19T15:09:22.928Z</time></trkpt><trkpt lat="43.8527313" lon="10.5883474"><ele>13.0</ele><time>2026-04-19T15:09:23.928Z</time></trkpt><trkpt lat="43.8528447" lon="10.5882053"><ele>12.0</ele><time>2026-04-19T15:09:24.928Z</time></trkpt><trkpt lat="43.8529497" lon="10.5880723"><ele>12.0</ele><time>2026-04-19T15:09:25.928Z</time></trkpt><trkpt lat="43.8530534" lon="10.5879386"><ele>12.0</ele><time>2026-04-19T15:09:26.928Z</time></trkpt><trkpt lat="43.8531553" lon="10.5877991"><ele>12.0</ele><time>2026-04-19T15:09:27.929Z</time></trkpt><trkpt lat="43.8532561" lon="10.5876565"><ele>12.0</ele><time>2026-04-19T15:09:28.928Z</time></trkpt><trkpt lat="43.8533515" lon="10.5875208"><ele>11.75</ele><time>2026-04-19T15:09:29.929Z</time></trkpt><trkpt lat="43.853444" lon="10.5873845"><ele>11.5</ele><time>2026-04-19T15:09:30.928Z</time></trkpt><trkpt lat="43.8535384" lon="10.5872537"><ele>11.25</ele><time>2026-04-19T15:09:31.928Z</time></trkpt><trkpt lat="43.8536277" lon="10.5871241"><ele>11.0</ele><time>2026-04-19T15:09:32.928Z</time></trkpt><trkpt lat="43.8537193" lon="10.5869995"><ele>11.5</ele><time>2026-04-19T15:09:33.928Z</time></trkpt><trkpt lat="43.8538118" lon="10.5868769"><ele>12.0</ele><time>2026-04-19T15:09:34.928Z</time></trkpt><trkpt lat="43.853904" lon="10.5867491"><ele>12.5</ele><time>2026-04-19T15:09:35.928Z</time></trkpt><trkpt lat="43.8539921" lon="10.5866229"><ele>13.0</ele><time>2026-04-19T15:09:36.928Z</time></trkpt><trkpt lat="43.8540824" lon="10.5864895"><ele>13.0</ele><time>2026-04-19T15:09:37.928Z</time></trkpt><trkpt lat="43.8541779" lon="10.5863546"><ele>13.0</ele><time>2026-04-19T15:09:38.928Z</time></trkpt><trkpt lat="43.8542647" lon="10.5862223"><ele>13.0</ele><time>2026-04-19T15:09:39.928Z</time></trkpt><trkpt lat="43.8543505" lon="10.5860842"><ele>13.0</ele><time>2026-04-19T15:09:40.928Z</time></trkpt><trkpt lat="43.8544399" lon="10.5859415"><ele>13.0</ele><time>2026-04-19T15:09:41.928Z</time></trkpt><trkpt lat="43.8545211" lon="10.5857904"><ele>13.0</ele><time>2026-04-19T15:09:42.928Z</time></trkpt><trkpt lat="43.8545998" lon="10.5856265"><ele>13.0</ele><time>2026-04-19T15:09:43.928Z</time></trkpt><trkpt lat="43.8546698" lon="10.5854507"><ele>13.0</ele><time>2026-04-19T15:09:44.928Z</time></trkpt><trkpt lat="43.8547328" lon="10.5852711"><ele>13.0</ele><time>2026-04-19T15:09:45.928Z</time></trkpt><trkpt lat="43.8547938" lon="10.5850873"><ele>13.0</ele><time>2026-04-19T15:09:46.928Z</time></trkpt><trkpt lat="43.8548516" lon="10.5849092"><ele>13.0</ele><time>2026-04-19T15:09:47.928Z</time></trkpt><trkpt lat="43.8549082" lon="10.5847445"><ele>13.0</ele><time>2026-04-19T15:09:48.929Z</time></trkpt><trkpt lat="43.8549616" lon="10.5845756"><ele>13.25</ele><time>2026-04-19T15:09:49.929Z</time></trkpt><trkpt lat="43.855012" lon="10.5844201"><ele>13.5</ele><time>2026-04-19T15:09:50.928Z</time></trkpt><trkpt lat="43.855063" lon="10.5842734"><ele>13.75</ele><time>2026-04-19T15:09:51.929Z</time></trkpt><trkpt lat="43.8551151" lon="10.5841319"><ele>14.0</ele><time>2026-04-19T15:09:52.928Z</time></trkpt><trkpt lat="43.8551711" lon="10.5839895"><ele>14.75</ele><time>2026-04-19T15:09:53.928Z</time></trkpt><trkpt lat="43.8552353" lon="10.5838541"><ele>15.5</ele><time>2026-04-19T15:09:54.928Z</time></trkpt><trkpt lat="43.8553021" lon="10.5837124"><ele>16.25</ele><time>2026-04-19T15:09:55.929Z</time></trkpt><trkpt lat="43.8553647" lon="10.5835786"><ele>17.0</ele><time>2026-04-19T15:09:56.928Z</time></trkpt><trkpt lat="43.855427" lon="10.5834605"><ele>17.2</ele><time>2026-04-19T15:09:57.928Z</time></trkpt><trkpt lat="43.8554928" lon="10.583346"><ele>17.4</ele><time>2026-04-19T15:09:58.929Z</time></trkpt><trkpt lat="43.8555691" lon="10.5832443"><ele>17.6</ele><time>2026-04-19T15:09:59.928Z</time></trkpt><trkpt lat="43.8556429" lon="10.5831435"><ele>17.8</ele><time>2026-04-19T15:10:00.928Z</time></trkpt><trkpt lat="43.8557235" lon="10.5830524"><ele>18.0</ele><time>2026-04-19T15:10:01.928Z</time></trkpt><trkpt lat="43.8558098" lon="10.5829746"><ele>18.0</ele><time>2026-04-19T15:10:02.929Z</time></trkpt><trkpt lat="43.8558967" lon="10.5829022"><ele>18.0</ele><time>2026-04-19T15:10:03.928Z</time></trkpt><trkpt lat="43.855979" lon="10.582838"><ele>18.0</ele><time>2026-04-19T15:10:04.928Z</time></trkpt><trkpt lat="43.8560685" lon="10.5827733"><ele>18.0</ele><time>2026-04-19T15:10:05.928Z</time></trkpt><trkpt lat="43.8561579" lon="10.5827125"><ele>18.0</ele><time>2026-04-19T15:10:06.928Z</time></trkpt><trkpt lat="43.8562426" lon="10.5826639"><ele>17.666666666666668</ele><time>2026-04-19T15:10:07.928Z</time></trkpt><trkpt lat="43.8563283" lon="10.5826185"><ele>17.333333333333332</ele><time>2026-04-19T15:10:08.928Z</time></trkpt><trkpt lat="43.8564099" lon="10.582582"><ele>17.0</ele><time>2026-04-19T15:10:09.928Z</time></trkpt><trkpt lat="43.8564927" lon="10.5825519"><ele>16.666666666666664</ele><time>2026-04-19T15:10:10.929Z</time></trkpt><trkpt lat="43.8565731" lon="10.5825334"><ele>16.333333333333332</ele><time>2026-04-19T15:10:11.928Z</time></trkpt><trkpt lat="43.8566509" lon="10.5825194"><ele>16.0</ele><time>2026-04-19T15:10:12.928Z</time></trkpt><trkpt lat="43.8567221" lon="10.5825148"><ele>15.999999999999998</ele><time>2026-04-19T15:10:13.928Z</time></trkpt><trkpt lat="43.8567949" lon="10.5825187"><ele>16.0</ele><time>2026-04-19T15:10:14.928Z</time></trkpt><trkpt lat="43.8568671" lon="10.5825179"><ele>16.0</ele><time>2026-04-19T15:10:15.929Z</time></trkpt><trkpt lat="43.8569464" lon="10.5825207"><ele>16.0</ele><time>2026-04-19T15:10:16.928Z</time></trkpt><trkpt lat="43.8570245" lon="10.5825221"><ele>15.999999999999998</ele><time>2026-04-19T15:10:17.928Z</time></trkpt><trkpt lat="43.8570974" lon="10.5825164"><ele>16.0</ele><time>2026-04-19T15:10:18.928Z</time></trkpt><trkpt lat="43.8572031" lon="10.5825218"><ele>16.0</ele><time>2026-04-19T15:10:20.928Z</time></trkpt><trkpt lat="43.8572899" lon="10.5825544"><ele>16.0</ele><time>2026-04-19T15:10:23.929Z</time></trkpt><trkpt lat="43.8573618" lon="10.5825847"><ele>16.0</ele><time>2026-04-19T15:10:26.928Z</time></trkpt><trkpt lat="43.8574254" lon="10.5826331"><ele>16.0</ele><time>2026-04-19T15:10:28.928Z</time></trkpt><trkpt lat="43.8575433" lon="10.5826692"><ele>16.0</ele><time>2026-04-19T15:10:30.928Z</time></trkpt><trkpt lat="43.8576475" lon="10.5826046"><ele>16.400000000000002</ele><time>2026-04-19T15:10:32.928Z</time></trkpt><trkpt lat="43.857683" lon="10.5824334"><ele>16.8</ele><time>2026-04-19T15:10:34.928Z</time></trkpt><trkpt lat="43.8576688" lon="10.582315"><ele>17.200000000000003</ele><time>2026-04-19T15:10:35.928Z</time></trkpt><trkpt lat="43.8576583" lon="10.5821891"><ele>17.6</ele><time>2026-04-19T15:10:36.928Z</time></trkpt><trkpt lat="43.8576575" lon="10.5820592"><ele>18.0</ele><time>2026-04-19T15:10:37.928Z</time></trkpt><trkpt lat="43.8576541" lon="10.5819253"><ele>18.0</ele><time>2026-04-19T15:10:38.928Z</time></trkpt><trkpt lat="43.8576469" lon="10.5817996"><ele>18.0</ele><time>2026-04-19T15:10:39.928Z</time></trkpt><trkpt lat="43.8576328" lon="10.5816608"><ele>18.0</ele><time>2026-04-19T15:10:40.928Z</time></trkpt><trkpt lat="43.857618" lon="10.5815152"><ele>18.0</ele><time>2026-04-19T15:10:41.929Z</time></trkpt><trkpt lat="43.8575995" lon="10.5813711"><ele>18.0</ele><time>2026-04-19T15:10:42.928Z</time></trkpt><trkpt lat="43.857578" lon="10.5812125"><ele>17.75</ele><time>2026-04-19T15:10:43.928Z</time></trkpt><trkpt lat="43.8575562" lon="10.581054"><ele>17.5</ele><time>2026-04-19T15:10:44.928Z</time></trkpt><trkpt lat="43.8575341" lon="10.5808925"><ele>17.25</ele><time>2026-04-19T15:10:45.929Z</time></trkpt><trkpt lat="43.8575129" lon="10.5807385"><ele>17.0</ele><time>2026-04-19T15:10:46.928Z</time></trkpt><trkpt lat="43.8574967" lon="10.5805909"><ele>17.0</ele><time>2026-04-19T15:10:47.928Z</time></trkpt><trkpt lat="43.8574831" lon="10.5804573"><ele>17.0</ele><time>2026-04-19T15:10:48.928Z</time></trkpt><trkpt lat="43.857471" lon="10.580351"><ele>17.0</ele><time>2026-04-19T15:10:49.928Z</time></trkpt><trkpt lat="43.8575051" lon="10.5802288"><ele>17.0</ele><time>2026-04-19T15:10:51.928Z</time></trkpt><trkpt lat="43.8575691" lon="10.5801881"><ele>17.0</ele><time>2026-04-19T15:10:55.928Z</time></trkpt><trkpt lat="43.8574938" lon="10.5801591"><ele>17.0</ele><time>2026-04-19T15:10:58.928Z</time></trkpt><trkpt lat="43.8574374" lon="10.5802717"><ele>17.0</ele><time>2026-04-19T15:11:11.928Z</time></trkpt><trkpt lat="43.8574403" lon="10.5803687"><ele>17.0</ele><time>2026-04-19T15:11:12.928Z</time></trkpt><trkpt lat="43.8574546" lon="10.580465"><ele>17.0</ele><time>2026-04-19T15:11:13.929Z</time></trkpt><trkpt lat="43.8574687" lon="10.58057"><ele>17.0</ele><time>2026-04-19T15:11:14.928Z</time></trkpt><trkpt lat="43.8574821" lon="10.5806853"><ele>17.0</ele><time>2026-04-19T15:11:15.929Z</time></trkpt><trkpt lat="43.8574956" lon="10.5808043"><ele>17.0</ele><time>2026-04-19T15:11:16.929Z</time></trkpt><trkpt lat="43.8575062" lon="10.5809312"><ele>17.0</ele><time>2026-04-19T15:11:17.928Z</time></trkpt><trkpt lat="43.8575212" lon="10.5810557"><ele>17.0</ele><time>2026-04-19T15:11:18.928Z</time></trkpt><trkpt lat="43.8575394" lon="10.5811797"><ele>17.0</ele><time>2026-04-19T15:11:19.928Z</time></trkpt><trkpt lat="43.8575586" lon="10.5812997"><ele>17.0</ele><time>2026-04-19T15:11:20.928Z</time></trkpt><trkpt lat="43.8575737" lon="10.5814139"><ele>17.0</ele><time>2026-04-19T15:11:21.928Z</time></trkpt><trkpt lat="43.8575872" lon="10.5815222"><ele>17.0</ele><time>2026-04-19T15:11:22.928Z</time></trkpt><trkpt lat="43.8575957" lon="10.5816283"><ele>17.0</ele><time>2026-04-19T15:11:23.928Z</time></trkpt><trkpt lat="43.8576091" lon="10.5817242"><ele>17.0</ele><time>2026-04-19T15:11:24.928Z</time></trkpt><trkpt lat="43.8576189" lon="10.581897"><ele>17.0</ele><time>2026-04-19T15:11:26.928Z</time></trkpt><trkpt lat="43.8575997" lon="10.5820465"><ele>17.0</ele><time>2026-04-19T15:11:28.928Z</time></trkpt><trkpt lat="43.8575729" lon="10.5821403"><ele>17.0</ele><time>2026-04-19T15:11:30.928Z</time></trkpt><trkpt lat="43.8575136" lon="10.5822601"><ele>16.8</ele><time>2026-04-19T15:11:32.928Z</time></trkpt><trkpt lat="43.8574583" lon="10.5823876"><ele>16.6</ele><time>2026-04-19T15:11:34.928Z</time></trkpt><trkpt lat="43.8574694" lon="10.582546"><ele>16.400000000000002</ele><time>2026-04-19T15:11:36.929Z</time></trkpt><trkpt lat="43.8575561" lon="10.5826875"><ele>16.2</ele><time>2026-04-19T15:11:38.929Z</time></trkpt><trkpt lat="43.857614" lon="10.5827526"><ele>16.0</ele><time>2026-04-19T15:11:39.928Z</time></trkpt><trkpt lat="43.8576606" lon="10.5828363"><ele>16.5</ele><time>2026-04-19T15:11:40.928Z</time></trkpt><trkpt lat="43.8577013" lon="10.5829264"><ele>17.0</ele><time>2026-04-19T15:11:41.929Z</time></trkpt><trkpt lat="43.8577327" lon="10.5830266"><ele>17.5</ele><time>2026-04-19T15:11:42.928Z</time></trkpt><trkpt lat="43.8577594" lon="10.5831278"><ele>18.0</ele><time>2026-04-19T15:11:43.929Z</time></trkpt><trkpt lat="43.8577826" lon="10.5832368"><ele>18.5</ele><time>2026-04-19T15:11:44.928Z</time></trkpt><trkpt lat="43.8578047" lon="10.5833445"><ele>19.0</ele><time>2026-04-19T15:11:45.929Z</time></trkpt><trkpt lat="43.8578267" lon="10.5834611"><ele>19.0</ele><time>2026-04-19T15:11:46.928Z</time></trkpt><trkpt lat="43.8578465" lon="10.5835945"><ele>19.0</ele><time>2026-04-19T15:11:47.928Z</time></trkpt><trkpt lat="43.8578693" lon="10.583738"><ele>19.0</ele><time>2026-04-19T15:11:48.929Z</time></trkpt><trkpt lat="43.857888" lon="10.5838792"><ele>19.0</ele><time>2026-04-19T15:11:49.928Z</time></trkpt><trkpt lat="43.8579056" lon="10.5840112"><ele>19.0</ele><time>2026-04-19T15:11:50.928Z</time></trkpt><trkpt lat="43.8579264" lon="10.584138"><ele>19.166666666666664</ele><time>2026-04-19T15:11:51.929Z</time></trkpt><trkpt lat="43.8579496" lon="10.5842586"><ele>19.333333333333332</ele><time>2026-04-19T15:11:52.928Z</time></trkpt><trkpt lat="43.8579687" lon="10.5843787"><ele>19.5</ele><time>2026-04-19T15:11:53.928Z</time></trkpt><trkpt lat="43.8579833" lon="10.5844964"><ele>19.666666666666668</ele><time>2026-04-19T15:11:54.928Z</time></trkpt><trkpt lat="43.8580061" lon="10.5845962"><ele>19.833333333333336</ele><time>2026-04-19T15:11:55.928Z</time></trkpt><trkpt lat="43.8580417" lon="10.5846757"><ele>20.0</ele><time>2026-04-19T15:11:56.928Z</time></trkpt><trkpt lat="43.8581508" lon="10.5847408"><ele>20.0</ele><time>2026-04-19T15:11:58.928Z</time></trkpt><trkpt lat="43.8582224" lon="10.5847257"><ele>20.0</ele><time>2026-04-19T15:11:59.928Z</time></trkpt><trkpt lat="43.8583114" lon="10.5846794"><ele>20.0</ele><time>2026-04-19T15:12:00.928Z</time></trkpt><trkpt lat="43.858411" lon="10.5846124"><ele>20.0</ele><time>2026-04-19T15:12:01.928Z</time></trkpt><trkpt lat="43.8585069" lon="10.5845473"><ele>20.0</ele><time>2026-04-19T15:12:02.928Z</time></trkpt><trkpt lat="43.858602" lon="10.5844775"><ele>19.0</ele><time>2026-04-19T15:12:03.929Z</time></trkpt><trkpt lat="43.8587015" lon="10.5843961"><ele>18.0</ele><time>2026-04-19T15:12:04.929Z</time></trkpt><trkpt lat="43.8587985" lon="10.5843165"><ele>17.0</ele><time>2026-04-19T15:12:05.928Z</time></trkpt><trkpt lat="43.8589066" lon="10.5842362"><ele>16.0</ele><time>2026-04-19T15:12:06.928Z</time></trkpt><trkpt lat="43.8590195" lon="10.5841562"><ele>16.0</ele><time>2026-04-19T15:12:07.928Z</time></trkpt><trkpt lat="43.8591393" lon="10.5840684"><ele>16.0</ele><time>2026-04-19T15:12:08.928Z</time></trkpt><trkpt lat="43.8592532" lon="10.5839786"><ele>16.0</ele><time>2026-04-19T15:12:09.928Z</time></trkpt><trkpt lat="43.8593693" lon="10.5838849"><ele>16.0</ele><time>2026-04-19T15:12:10.928Z</time></trkpt><trkpt lat="43.859495" lon="10.583788"><ele>16.5</ele><time>2026-04-19T15:12:11.928Z</time></trkpt><trkpt lat="43.8596185" lon="10.5836922"><ele>17.0</ele><time>2026-04-19T15:12:12.928Z</time></trkpt><trkpt lat="43.8597431" lon="10.5835985"><ele>17.5</ele><time>2026-04-19T15:12:13.928Z</time></trkpt><trkpt lat="43.8598754" lon="10.5834968"><ele>18.0</ele><time>2026-04-19T15:12:14.928Z</time></trkpt><trkpt lat="43.8600075" lon="10.5833947"><ele>18.0</ele><time>2026-04-19T15:12:15.928Z</time></trkpt><trkpt lat="43.8601451" lon="10.5832907"><ele>18.0</ele><time>2026-04-19T15:12:16.928Z</time></trkpt><trkpt lat="43.8602922" lon="10.5831715"><ele>18.0</ele><time>2026-04-19T15:12:17.928Z</time></trkpt><trkpt lat="43.8604439" lon="10.5830537"><ele>18.0</ele><time>2026-04-19T15:12:18.928Z</time></trkpt><trkpt lat="43.8605996" lon="10.5829265"><ele>18.0</ele><time>2026-04-19T15:12:19.928Z</time></trkpt><trkpt lat="43.8607506" lon="10.5828083"><ele>18.0</ele><time>2026-04-19T15:12:20.928Z</time></trkpt><trkpt lat="43.8609044" lon="10.5826899"><ele>18.0</ele><time>2026-04-19T15:12:21.929Z</time></trkpt><trkpt lat="43.8610519" lon="10.5825804"><ele>18.0</ele><time>2026-04-19T15:12:22.929Z</time></trkpt><trkpt lat="43.8612037" lon="10.5824637"><ele>18.0</ele><time>2026-04-19T15:12:23.928Z</time></trkpt><trkpt lat="43.8613519" lon="10.5823498"><ele>18.0</ele><time>2026-04-19T15:12:24.928Z</time></trkpt><trkpt lat="43.8614994" lon="10.5822363"><ele>18.0</ele><time>2026-04-19T15:12:25.928Z</time></trkpt><trkpt lat="43.861648" lon="10.5821252"><ele>18.0</ele><time>2026-04-19T15:12:26.928Z</time></trkpt><trkpt lat="43.8617875" lon="10.5820162"><ele>18.0</ele><time>2026-04-19T15:12:27.928Z</time></trkpt><trkpt lat="43.861932" lon="10.5819079"><ele>18.0</ele><time>2026-04-19T15:12:28.928Z</time></trkpt><trkpt lat="43.8620728" lon="10.5817994"><ele>18.0</ele><time>2026-04-19T15:12:29.928Z</time></trkpt><trkpt lat="43.8622104" lon="10.5816917"><ele>18.0</ele><time>2026-04-19T15:12:30.928Z</time></trkpt><trkpt lat="43.8623506" lon="10.5815852"><ele>18.0</ele><time>2026-04-19T15:12:31.928Z</time></trkpt><trkpt lat="43.8624849" lon="10.5814785"><ele>18.0</ele><time>2026-04-19T15:12:32.929Z</time></trkpt><trkpt lat="43.8626211" lon="10.5813723"><ele>18.0</ele><time>2026-04-19T15:12:33.928Z</time></trkpt><trkpt lat="43.862762" lon="10.5812563"><ele>18.0</ele><time>2026-04-19T15:12:34.929Z</time></trkpt><trkpt lat="43.8629018" lon="10.5811445"><ele>18.0</ele><time>2026-04-19T15:12:35.928Z</time></trkpt><trkpt lat="43.8630406" lon="10.5810351"><ele>18.333333333333332</ele><time>2026-04-19T15:12:36.928Z</time></trkpt><trkpt lat="43.863175" lon="10.5809327"><ele>18.666666666666664</ele><time>2026-04-19T15:12:37.928Z</time></trkpt><trkpt lat="43.8633094" lon="10.5808248"><ele>19.0</ele><time>2026-04-19T15:12:38.928Z</time></trkpt><trkpt lat="43.8634451" lon="10.5807181"><ele>19.666666666666664</ele><time>2026-04-19T15:12:39.928Z</time></trkpt><trkpt lat="43.8635794" lon="10.5806176"><ele>20.333333333333332</ele><time>2026-04-19T15:12:40.928Z</time></trkpt><trkpt lat="43.8637164" lon="10.580516"><ele>21.0</ele><time>2026-04-19T15:12:41.928Z</time></trkpt><trkpt lat="43.8638511" lon="10.5804114"><ele>20.25</ele><time>2026-04-19T15:12:42.929Z</time></trkpt><trkpt lat="43.8639854" lon="10.5803081"><ele>19.5</ele><time>2026-04-19T15:12:43.928Z</time></trkpt><trkpt lat="43.8641169" lon="10.580206"><ele>18.75</ele><time>2026-04-19T15:12:44.928Z</time></trkpt><trkpt lat="43.8642386" lon="10.5801123"><ele>18.0</ele><time>2026-04-19T15:12:45.928Z</time></trkpt><trkpt lat="43.8643537" lon="10.5800208"><ele>18.0</ele><time>2026-04-19T15:12:46.928Z</time></trkpt><trkpt lat="43.8644718" lon="10.5799271"><ele>18.0</ele><time>2026-04-19T15:12:47.928Z</time></trkpt><trkpt lat="43.8645871" lon="10.5798415"><ele>18.0</ele><time>2026-04-19T15:12:48.928Z</time></trkpt><trkpt lat="43.8646994" lon="10.5797602"><ele>18.0</ele><time>2026-04-19T15:12:49.928Z</time></trkpt><trkpt lat="43.8648149" lon="10.5796743"><ele>18.0</ele><time>2026-04-19T15:12:50.928Z</time></trkpt><trkpt lat="43.8649297" lon="10.5795798"><ele>18.0</ele><time>2026-04-19T15:12:51.928Z</time></trkpt><trkpt lat="43.8650431" lon="10.5794928"><ele>18.0</ele><time>2026-04-19T15:12:52.928Z</time></trkpt><trkpt lat="43.8651537" lon="10.5794071"><ele>18.0</ele><time>2026-04-19T15:12:53.928Z</time></trkpt><trkpt lat="43.8652666" lon="10.5793201"><ele>18.25</ele><time>2026-04-19T15:12:54.929Z</time></trkpt><trkpt lat="43.8653746" lon="10.5792376"><ele>18.5</ele><time>2026-04-19T15:12:55.928Z</time></trkpt><trkpt lat="43.8654887" lon="10.5791475"><ele>18.75</ele><time>2026-04-19T15:12:56.928Z</time></trkpt><trkpt lat="43.8655987" lon="10.5790609"><ele>19.0</ele><time>2026-04-19T15:12:57.928Z</time></trkpt><trkpt lat="43.8657095" lon="10.5789755"><ele>19.0</ele><time>2026-04-19T15:12:58.928Z</time></trkpt><trkpt lat="43.8658264" lon="10.5788849"><ele>19.0</ele><time>2026-04-19T15:12:59.928Z</time></trkpt><trkpt lat="43.8659446" lon="10.5787931"><ele>19.0</ele><time>2026-04-19T15:13:00.928Z</time></trkpt><trkpt lat="43.8660614" lon="10.5787059"><ele>19.0</ele><time>2026-04-19T15:13:01.928Z</time></trkpt><trkpt lat="43.8661751" lon="10.578618"><ele>19.5</ele><time>2026-04-19T15:13:02.928Z</time></trkpt><trkpt lat="43.8662878" lon="10.5785325"><ele>20.0</ele><time>2026-04-19T15:13:03.928Z</time></trkpt><trkpt lat="43.8664054" lon="10.5784391"><ele>20.5</ele><time>2026-04-19T15:13:04.928Z</time></trkpt><trkpt lat="43.8665225" lon="10.5783506"><ele>21.0</ele><time>2026-04-19T15:13:05.928Z</time></trkpt><trkpt lat="43.8666411" lon="10.5782574"><ele>21.0</ele><time>2026-04-19T15:13:06.928Z</time></trkpt><trkpt lat="43.8667576" lon="10.5781611"><ele>21.0</ele><time>2026-04-19T15:13:07.928Z</time></trkpt><trkpt lat="43.8668732" lon="10.5780688"><ele>21.0</ele><time>2026-04-19T15:13:08.928Z</time></trkpt><trkpt lat="43.8669881" lon="10.5779792"><ele>21.0</ele><time>2026-04-19T15:13:09.929Z</time></trkpt><trkpt lat="43.8671066" lon="10.5778897"><ele>21.0</ele><time>2026-04-19T15:13:10.928Z</time></trkpt><trkpt lat="43.8672261" lon="10.5778017"><ele>21.0</ele><time>2026-04-19T15:13:11.928Z</time></trkpt><trkpt lat="43.8673456" lon="10.577711"><ele>21.0</ele><time>2026-04-19T15:13:12.929Z</time></trkpt><trkpt lat="43.867463" lon="10.5776206"><ele>21.0</ele><time>2026-04-19T15:13:13.929Z</time></trkpt><trkpt lat="43.8675841" lon="10.5775275"><ele>21.5</ele><time>2026-04-19T15:13:14.928Z</time></trkpt><trkpt lat="43.867702" lon="10.5774324"><ele>22.0</ele><time>2026-04-19T15:13:15.929Z</time></trkpt><trkpt lat="43.8678207" lon="10.5773423"><ele>22.5</ele><time>2026-04-19T15:13:16.928Z</time></trkpt><trkpt lat="43.8679406" lon="10.5772493"><ele>23.0</ele><time>2026-04-19T15:13:17.928Z</time></trkpt><trkpt lat="43.8680523" lon="10.577161"><ele>23.0</ele><time>2026-04-19T15:13:18.928Z</time></trkpt><trkpt lat="43.8681606" lon="10.5770685"><ele>23.0</ele><time>2026-04-19T15:13:19.928Z</time></trkpt><trkpt lat="43.8682669" lon="10.5769788"><ele>23.0</ele><time>2026-04-19T15:13:20.929Z</time></trkpt><trkpt lat="43.8683757" lon="10.5768975"><ele>23.0</ele><time>2026-04-19T15:13:21.928Z</time></trkpt><trkpt lat="43.8684852" lon="10.5768112"><ele>22.5</ele><time>2026-04-19T15:13:22.928Z</time></trkpt><trkpt lat="43.8685939" lon="10.5767272"><ele>22.0</ele><time>2026-04-19T15:13:23.929Z</time></trkpt><trkpt lat="43.8687053" lon="10.5766424"><ele>21.5</ele><time>2026-04-19T15:13:24.928Z</time></trkpt><trkpt lat="43.8688213" lon="10.5765582"><ele>21.0</ele><time>2026-04-19T15:13:25.928Z</time></trkpt><trkpt lat="43.8689302" lon="10.5764765"><ele>21.0</ele><time>2026-04-19T15:13:26.928Z</time></trkpt><trkpt lat="43.8690373" lon="10.5763943"><ele>21.0</ele><time>2026-04-19T15:13:27.928Z</time></trkpt><trkpt lat="43.8691428" lon="10.5763105"><ele>21.0</ele><time>2026-04-19T15:13:28.928Z</time></trkpt><trkpt lat="43.8692507" lon="10.5762279"><ele>21.0</ele><time>2026-04-19T15:13:29.928Z</time></trkpt><trkpt lat="43.86937" lon="10.5761374"><ele>21.25</ele><time>2026-04-19T15:13:30.928Z</time></trkpt><trkpt lat="43.8694808" lon="10.5760535"><ele>21.5</ele><time>2026-04-19T15:13:31.929Z</time></trkpt><trkpt lat="43.8695851" lon="10.5759794"><ele>21.75</ele><time>2026-04-19T15:13:32.928Z</time></trkpt><trkpt lat="43.8696831" lon="10.5759097"><ele>22.0</ele><time>2026-04-19T15:13:33.928Z</time></trkpt><trkpt lat="43.8697829" lon="10.5758299"><ele>22.0</ele><time>2026-04-19T15:13:34.928Z</time></trkpt><trkpt lat="43.8698771" lon="10.5757529"><ele>22.0</ele><time>2026-04-19T15:13:35.928Z</time></trkpt><trkpt lat="43.8699653" lon="10.5756856"><ele>22.0</ele><time>2026-04-19T15:13:36.929Z</time></trkpt><trkpt lat="43.8700457" lon="10.575627"><ele>22.0</ele><time>2026-04-19T15:13:37.928Z</time></trkpt><trkpt lat="43.8701211" lon="10.5755378"><ele>22.0</ele><time>2026-04-19T15:13:39.929Z</time></trkpt><trkpt lat="43.8700655" lon="10.5754856"><ele>22.0</ele><time>2026-04-19T15:13:42.928Z</time></trkpt><trkpt lat="43.8700054" lon="10.5755504"><ele>22.0</ele><time>2026-04-19T15:13:44.928Z</time></trkpt><trkpt lat="43.8699456" lon="10.5756115"><ele>22.0</ele><time>2026-04-19T15:13:45.928Z</time></trkpt><trkpt lat="43.8698617" lon="10.5756774"><ele>22.0</ele><time>2026-04-19T15:13:46.929Z</time></trkpt><trkpt lat="43.8697438" lon="10.5757709"><ele>22.0</ele><time>2026-04-19T15:13:47.928Z</time></trkpt><trkpt lat="43.8696168" lon="10.5758804"><ele>22.0</ele><time>2026-04-19T15:13:48.928Z</time></trkpt><trkpt lat="43.8694515" lon="10.5760108"><ele>22.0</ele><time>2026-04-19T15:13:49.928Z</time></trkpt><trkpt lat="43.8692887" lon="10.5761405"><ele>22.0</ele><time>2026-04-19T15:13:50.928Z</time></trkpt><trkpt lat="43.8690993" lon="10.5762878"><ele>21.666666666666664</ele><time>2026-04-19T15:13:51.928Z</time></trkpt><trkpt lat="43.8689106" lon="10.5764351"><ele>21.333333333333332</ele><time>2026-04-19T15:13:52.928Z</time></trkpt><trkpt lat="43.8687163" lon="10.5765869"><ele>21.0</ele><time>2026-04-19T15:13:53.928Z</time></trkpt><trkpt lat="43.8685363" lon="10.5767258"><ele>21.0</ele><time>2026-04-19T15:13:54.928Z</time></trkpt><trkpt lat="43.8683636" lon="10.5768585"><ele>21.0</ele><time>2026-04-19T15:13:55.928Z</time></trkpt><trkpt lat="43.8681964" lon="10.5769892"><ele>21.0</ele><time>2026-04-19T15:13:56.928Z</time></trkpt><trkpt lat="43.8680304" lon="10.5771215"><ele>21.0</ele><time>2026-04-19T15:13:57.928Z</time></trkpt><trkpt lat="43.8678683" lon="10.5772468"><ele>21.0</ele><time>2026-04-19T15:13:58.928Z</time></trkpt><trkpt lat="43.8677028" lon="10.5773743"><ele>21.0</ele><time>2026-04-19T15:13:59.928Z</time></trkpt><trkpt lat="43.8675394" lon="10.5774972"><ele>21.0</ele><time>2026-04-19T15:14:00.929Z</time></trkpt><trkpt lat="43.8673827" lon="10.5776163"><ele>21.0</ele><time>2026-04-19T15:14:01.929Z</time></trkpt><trkpt lat="43.8672287" lon="10.5777373"><ele>21.0</ele><time>2026-04-19T15:14:02.928Z</time></trkpt><trkpt lat="43.8670785" lon="10.5778525"><ele>21.0</ele><time>2026-04-19T15:14:03.928Z</time></trkpt><trkpt lat="43.8669306" lon="10.5779667"><ele>21.0</ele><time>2026-04-19T15:14:04.929Z</time></trkpt><trkpt lat="43.8667825" lon="10.5780867"><ele>21.0</ele><time>2026-04-19T15:14:05.928Z</time></trkpt><trkpt lat="43.8666445" lon="10.5781993"><ele>21.0</ele><time>2026-04-19T15:14:06.928Z</time></trkpt><trkpt lat="43.8665092" lon="10.5783047"><ele>21.0</ele><time>2026-04-19T15:14:07.928Z</time></trkpt><trkpt lat="43.866388" lon="10.5784012"><ele>21.0</ele><time>2026-04-19T15:14:08.928Z</time></trkpt><trkpt lat="43.8662834" lon="10.5784786"><ele>21.0</ele><time>2026-04-19T15:14:09.928Z</time></trkpt><trkpt lat="43.8661803" lon="10.5785586"><ele>21.0</ele><time>2026-04-19T15:14:10.928Z</time></trkpt><trkpt lat="43.8660696" lon="10.5786434"><ele>21.0</ele><time>2026-04-19T15:14:11.928Z</time></trkpt><trkpt lat="43.8659498" lon="10.5787397"><ele>21.0</ele><time>2026-04-19T15:14:12.928Z</time></trkpt><trkpt lat="43.8658156" lon="10.5788425"><ele>21.0</ele><time>2026-04-19T15:14:13.928Z</time></trkpt><trkpt lat="43.8656771" lon="10.5789512"><ele>20.333333333333332</ele><time>2026-04-19T15:14:14.928Z</time></trkpt><trkpt lat="43.8655402" lon="10.5790614"><ele>19.666666666666664</ele><time>2026-04-19T15:14:15.928Z</time></trkpt><trkpt lat="43.8654014" lon="10.5791682"><ele>19.0</ele><time>2026-04-19T15:14:16.928Z</time></trkpt><trkpt lat="43.8652694" lon="10.57927"><ele>19.0</ele><time>2026-04-19T15:14:17.928Z</time></trkpt><trkpt lat="43.8651477" lon="10.5793619"><ele>19.0</ele><time>2026-04-19T15:14:18.928Z</time></trkpt><trkpt lat="43.8650374" lon="10.5794432"><ele>19.0</ele><time>2026-04-19T15:14:19.928Z</time></trkpt><trkpt lat="43.8649559" lon="10.5795069"><ele>19.0</ele><time>2026-04-19T15:14:20.929Z</time></trkpt><trkpt lat="43.8648824" lon="10.5795881"><ele>18.833333333333332</ele><time>2026-04-19T15:14:22.928Z</time></trkpt><trkpt lat="43.8649021" lon="10.5796739"><ele>18.666666666666664</ele><time>2026-04-19T15:14:24.928Z</time></trkpt><trkpt lat="43.8650067" lon="10.5796956"><ele>18.5</ele><time>2026-04-19T15:14:26.929Z</time></trkpt><trkpt lat="43.8650742" lon="10.5796797"><ele>18.333333333333332</ele><time>2026-04-19T15:14:27.928Z</time></trkpt><trkpt lat="43.8651484" lon="10.5796449"><ele>18.166666666666668</ele><time>2026-04-19T15:14:28.928Z</time></trkpt><trkpt lat="43.8652162" lon="10.5795905"><ele>18.0</ele><time>2026-04-19T15:14:29.928Z</time></trkpt><trkpt lat="43.8652894" lon="10.5795263"><ele>18.166666666666668</ele><time>2026-04-19T15:14:30.928Z</time></trkpt><trkpt lat="43.8653657" lon="10.5794633"><ele>18.333333333333332</ele><time>2026-04-19T15:14:31.928Z</time></trkpt><trkpt lat="43.8654405" lon="10.5794001"><ele>18.5</ele><time>2026-04-19T15:14:32.928Z</time></trkpt><trkpt lat="43.8655147" lon="10.5793435"><ele>18.666666666666664</ele><time>2026-04-19T15:14:33.928Z</time></trkpt><trkpt lat="43.8655897" lon="10.5792826"><ele>18.833333333333332</ele><time>2026-04-19T15:14:34.928Z</time></trkpt><trkpt lat="43.8656604" lon="10.5792257"><ele>19.0</ele><time>2026-04-19T15:14:35.928Z</time></trkpt><trkpt lat="43.8657299" lon="10.579169"><ele>19.0</ele><time>2026-04-19T15:14:36.928Z</time></trkpt><trkpt lat="43.8657969" lon="10.579112"><ele>19.0</ele><time>2026-04-19T15:14:37.928Z</time></trkpt><trkpt lat="43.8658666" lon="10.5790489"><ele>19.0</ele><time>2026-04-19T15:14:38.928Z</time></trkpt><trkpt lat="43.8659319" lon="10.5789885"><ele>19.0</ele><time>2026-04-19T15:14:39.928Z</time></trkpt><trkpt lat="43.8660024" lon="10.5789335"><ele>19.0</ele><time>2026-04-19T15:14:40.929Z</time></trkpt><trkpt lat="43.8660735" lon="10.5788769"><ele>19.0</ele><time>2026-04-19T15:14:41.928Z</time></trkpt><trkpt lat="43.8661398" lon="10.578825"><ele>19.142857142857142</ele><time>2026-04-19T15:14:42.928Z</time></trkpt><trkpt lat="43.8661958" lon="10.5787811"><ele>19.28571428571429</ele><time>2026-04-19T15:14:43.928Z</time></trkpt><trkpt lat="43.8662585" lon="10.5787225"><ele>19.42857142857143</ele><time>2026-04-19T15:14:45.928Z</time></trkpt><trkpt lat="43.8662964" lon="10.5786308"><ele>19.57142857142857</ele><time>2026-04-19T15:14:59.928Z</time></trkpt><trkpt lat="43.8663329" lon="10.5785444"><ele>19.714285714285715</ele><time>2026-04-19T15:15:01.929Z</time></trkpt><trkpt lat="43.8663935" lon="10.5784766"><ele>19.857142857142858</ele><time>2026-04-19T15:15:02.928Z</time></trkpt><trkpt lat="43.8664582" lon="10.5784187"><ele>20.0</ele><time>2026-04-19T15:15:03.928Z</time></trkpt><trkpt lat="43.8665508" lon="10.5783376"><ele>20.25</ele><time>2026-04-19T15:15:04.929Z</time></trkpt><trkpt lat="43.8666485" lon="10.5782604"><ele>20.5</ele><time>2026-04-19T15:15:05.929Z</time></trkpt><trkpt lat="43.8667571" lon="10.5781778"><ele>20.75</ele><time>2026-04-19T15:15:06.928Z</time></trkpt><trkpt lat="43.866872" lon="10.5780875"><ele>21.0</ele><time>2026-04-19T15:15:07.929Z</time></trkpt><trkpt lat="43.8670084" lon="10.5779748"><ele>21.0</ele><time>2026-04-19T15:15:08.928Z</time></trkpt><trkpt lat="43.8671499" lon="10.5778626"><ele>21.0</ele><time>2026-04-19T15:15:09.928Z</time></trkpt><trkpt lat="43.8673063" lon="10.5777406"><ele>21.0</ele><time>2026-04-19T15:15:10.928Z</time></trkpt><trkpt lat="43.8674552" lon="10.5776234"><ele>21.0</ele><time>2026-04-19T15:15:11.928Z</time></trkpt><trkpt lat="43.8676018" lon="10.5775076"><ele>21.0</ele><time>2026-04-19T15:15:12.928Z</time></trkpt><trkpt lat="43.8677511" lon="10.5773912"><ele>21.0</ele><time>2026-04-19T15:15:13.928Z</time></trkpt><trkpt lat="43.8678954" lon="10.5772816"><ele>21.0</ele><time>2026-04-19T15:15:14.928Z</time></trkpt><trkpt lat="43.8680413" lon="10.5771672"><ele>21.0</ele><time>2026-04-19T15:15:15.928Z</time></trkpt><trkpt lat="43.8681835" lon="10.5770518"><ele>21.0</ele><time>2026-04-19T15:15:16.928Z</time></trkpt><trkpt lat="43.8683279" lon="10.5769381"><ele>21.0</ele><time>2026-04-19T15:15:17.928Z</time></trkpt><trkpt lat="43.8684757" lon="10.5768188"><ele>21.0</ele><time>2026-04-19T15:15:18.928Z</time></trkpt><trkpt lat="43.8686209" lon="10.5767046"><ele>21.0</ele><time>2026-04-19T15:15:19.929Z</time></trkpt><trkpt lat="43.8687649" lon="10.5765917"><ele>21.0</ele><time>2026-04-19T15:15:20.928Z</time></trkpt><trkpt lat="43.8689193" lon="10.5764748"><ele>21.0</ele><time>2026-04-19T15:15:21.929Z</time></trkpt><trkpt lat="43.8690689" lon="10.5763612"><ele>21.0</ele><time>2026-04-19T15:15:22.928Z</time></trkpt><trkpt lat="43.8692227" lon="10.5762431"><ele>21.333333333333332</ele><time>2026-04-19T15:15:23.929Z</time></trkpt><trkpt lat="43.8693757" lon="10.5761263"><ele>21.666666666666664</ele><time>2026-04-19T15:15:24.928Z</time></trkpt><trkpt lat="43.8695269" lon="10.5760073"><ele>22.0</ele><time>2026-04-19T15:15:25.928Z</time></trkpt><trkpt lat="43.8696802" lon="10.5758955"><ele>22.0</ele><time>2026-04-19T15:15:26.928Z</time></trkpt><trkpt lat="43.869833" lon="10.5757751"><ele>22.0</ele><time>2026-04-19T15:15:27.928Z</time></trkpt><trkpt lat="43.8699844" lon="10.5756595"><ele>22.0</ele><time>2026-04-19T15:15:28.928Z</time></trkpt><trkpt lat="43.8701324" lon="10.5755413"><ele>22.0</ele><time>2026-04-19T15:15:29.928Z</time></trkpt><trkpt lat="43.8702798" lon="10.5754272"><ele>22.0</ele><time>2026-04-19T15:15:30.928Z</time></trkpt><trkpt lat="43.8704193" lon="10.5753147"><ele>22.0</ele><time>2026-04-19T15:15:31.928Z</time></trkpt><trkpt lat="43.8705556" lon="10.5752064"><ele>22.0</ele><time>2026-04-19T15:15:32.928Z</time></trkpt><trkpt lat="43.8706889" lon="10.5751"><ele>22.0</ele><time>2026-04-19T15:15:33.928Z</time></trkpt><trkpt lat="43.8708215" lon="10.5749944"><ele>22.0</ele><time>2026-04-19T15:15:34.928Z</time></trkpt><trkpt lat="43.8709534" lon="10.5748925"><ele>22.333333333333332</ele><time>2026-04-19T15:15:35.928Z</time></trkpt><trkpt lat="43.8710904" lon="10.5747873"><ele>22.666666666666668</ele><time>2026-04-19T15:15:36.928Z</time></trkpt><trkpt lat="43.8712301" lon="10.5746823"><ele>23.0</ele><time>2026-04-19T15:15:37.928Z</time></trkpt><trkpt lat="43.8713832" lon="10.5745685"><ele>22.666666666666668</ele><time>2026-04-19T15:15:38.928Z</time></trkpt><trkpt lat="43.8715451" lon="10.5744427"><ele>22.333333333333332</ele><time>2026-04-19T15:15:39.928Z</time></trkpt><trkpt lat="43.8717063" lon="10.5743154"><ele>22.0</ele><time>2026-04-19T15:15:40.928Z</time></trkpt><trkpt lat="43.8718659" lon="10.5741894"><ele>21.666666666666664</ele><time>2026-04-19T15:15:41.928Z</time></trkpt><trkpt lat="43.872028" lon="10.5740595"><ele>21.333333333333332</ele><time>2026-04-19T15:15:42.928Z</time></trkpt><trkpt lat="43.8721955" lon="10.5739307"><ele>21.0</ele><time>2026-04-19T15:15:43.928Z</time></trkpt><trkpt lat="43.8723623" lon="10.5738073"><ele>21.333333333333332</ele><time>2026-04-19T15:15:44.928Z</time></trkpt><trkpt lat="43.8725237" lon="10.5736847"><ele>21.666666666666664</ele><time>2026-04-19T15:15:45.928Z</time></trkpt><trkpt lat="43.8726775" lon="10.5735658"><ele>22.0</ele><time>2026-04-19T15:15:46.928Z</time></trkpt><trkpt lat="43.8728245" lon="10.5734476"><ele>22.333333333333332</ele><time>2026-04-19T15:15:47.928Z</time></trkpt><trkpt lat="43.8729732" lon="10.5733375"><ele>22.666666666666668</ele><time>2026-04-19T15:15:48.928Z</time></trkpt><trkpt lat="43.8731201" lon="10.5732222"><ele>23.0</ele><time>2026-04-19T15:15:49.928Z</time></trkpt><trkpt lat="43.8732659" lon="10.5731068"><ele>23.0</ele><time>2026-04-19T15:15:50.928Z</time></trkpt><trkpt lat="43.8734101" lon="10.5729917"><ele>23.0</ele><time>2026-04-19T15:15:51.929Z</time></trkpt><trkpt lat="43.8735621" lon="10.5728767"><ele>23.0</ele><time>2026-04-19T15:15:52.928Z</time></trkpt><trkpt lat="43.8737023" lon="10.5727652"><ele>24.0</ele><time>2026-04-19T15:15:53.928Z</time></trkpt><trkpt lat="43.8738371" lon="10.5726564"><ele>25.0</ele><time>2026-04-19T15:15:54.928Z</time></trkpt><trkpt lat="43.8739725" lon="10.5725471"><ele>26.0</ele><time>2026-04-19T15:15:55.929Z</time></trkpt><trkpt lat="43.8741097" lon="10.5724489"><ele>26.0</ele><time>2026-04-19T15:15:56.928Z</time></trkpt><trkpt lat="43.8742408" lon="10.5723519"><ele>26.0</ele><time>2026-04-19T15:15:57.928Z</time></trkpt><trkpt lat="43.8743795" lon="10.5722461"><ele>26.0</ele><time>2026-04-19T15:15:58.928Z</time></trkpt><trkpt lat="43.8745203" lon="10.5721357"><ele>26.0</ele><time>2026-04-19T15:15:59.928Z</time></trkpt><trkpt lat="43.8746618" lon="10.5720225"><ele>26.0</ele><time>2026-04-19T15:16:00.928Z</time></trkpt><trkpt lat="43.8748039" lon="10.5719141"><ele>26.0</ele><time>2026-04-19T15:16:01.928Z</time></trkpt><trkpt lat="43.8749468" lon="10.5718049"><ele>26.0</ele><time>2026-04-19T15:16:02.928Z</time></trkpt><trkpt lat="43.8750879" lon="10.5717005"><ele>26.0</ele><time>2026-04-19T15:16:03.929Z</time></trkpt><trkpt lat="43.8752227" lon="10.5715972"><ele>26.0</ele><time>2026-04-19T15:16:04.928Z</time></trkpt><trkpt lat="43.8753543" lon="10.5714956"><ele>25.75</ele><time>2026-04-19T15:16:05.928Z</time></trkpt><trkpt lat="43.8754835" lon="10.5713928"><ele>25.5</ele><time>2026-04-19T15:16:06.928Z</time></trkpt><trkpt lat="43.8756131" lon="10.5712956"><ele>25.25</ele><time>2026-04-19T15:16:07.928Z</time></trkpt><trkpt lat="43.8757368" lon="10.5712003"><ele>25.0</ele><time>2026-04-19T15:16:08.928Z</time></trkpt><trkpt lat="43.8758557" lon="10.5711056"><ele>24.75</ele><time>2026-04-19T15:16:09.929Z</time></trkpt><trkpt lat="43.8759777" lon="10.5710132"><ele>24.5</ele><time>2026-04-19T15:16:10.928Z</time></trkpt><trkpt lat="43.8760996" lon="10.5709208"><ele>24.25</ele><time>2026-04-19T15:16:11.929Z</time></trkpt><trkpt lat="43.876228" lon="10.5708257"><ele>24.0</ele><time>2026-04-19T15:16:12.928Z</time></trkpt><trkpt lat="43.8763537" lon="10.5707258"><ele>24.0</ele><time>2026-04-19T15:16:13.928Z</time></trkpt><trkpt lat="43.8764829" lon="10.570626"><ele>24.0</ele><time>2026-04-19T15:16:14.928Z</time></trkpt><trkpt lat="43.8766124" lon="10.5705259"><ele>24.0</ele><time>2026-04-19T15:16:15.928Z</time></trkpt><trkpt lat="43.8767439" lon="10.570421"><ele>24.0</ele><time>2026-04-19T15:16:16.928Z</time></trkpt><trkpt lat="43.8768728" lon="10.5703159"><ele>24.5</ele><time>2026-04-19T15:16:17.928Z</time></trkpt><trkpt lat="43.8770043" lon="10.5702165"><ele>25.0</ele><time>2026-04-19T15:16:18.928Z</time></trkpt><trkpt lat="43.8771356" lon="10.5701176"><ele>25.5</ele><time>2026-04-19T15:16:19.928Z</time></trkpt><trkpt lat="43.8772596" lon="10.5700223"><ele>26.0</ele><time>2026-04-19T15:16:20.928Z</time></trkpt><trkpt lat="43.877372" lon="10.5699359"><ele>25.999999999999996</ele><time>2026-04-19T15:16:21.928Z</time></trkpt><trkpt lat="43.877475" lon="10.5698561"><ele>26.0</ele><time>2026-04-19T15:16:22.928Z</time></trkpt><trkpt lat="43.8775648" lon="10.5697899"><ele>26.0</ele><time>2026-04-19T15:16:23.928Z</time></trkpt><trkpt lat="43.8776415" lon="10.5697317"><ele>26.0</ele><time>2026-04-19T15:16:24.928Z</time></trkpt><trkpt lat="43.8777065" lon="10.5696773"><ele>25.999999999999996</ele><time>2026-04-19T15:16:25.928Z</time></trkpt><trkpt lat="43.8777624" lon="10.5696358"><ele>26.0</ele><time>2026-04-19T15:16:26.928Z</time></trkpt><trkpt lat="43.8778487" lon="10.5695663"><ele>25.999999999999996</ele><time>2026-04-19T15:16:28.928Z</time></trkpt><trkpt lat="43.8779113" lon="10.5695142"><ele>26.0</ele><time>2026-04-19T15:16:30.928Z</time></trkpt><trkpt lat="43.8779714" lon="10.5694685"><ele>26.0</ele><time>2026-04-19T15:16:33.928Z</time></trkpt><trkpt lat="43.8780343" lon="10.5694045"><ele>26.0</ele><time>2026-04-19T15:17:03.928Z</time></trkpt><trkpt lat="43.8781192" lon="10.5693392"><ele>25.999999999999996</ele><time>2026-04-19T15:17:05.928Z</time></trkpt><trkpt lat="43.8782274" lon="10.5692559"><ele>26.0</ele><time>2026-04-19T15:17:07.928Z</time></trkpt><trkpt lat="43.8782846" lon="10.5692079"><ele>25.999999999999996</ele><time>2026-04-19T15:17:08.928Z</time></trkpt><trkpt lat="43.8783478" lon="10.5691586"><ele>26.0</ele><time>2026-04-19T15:17:09.928Z</time></trkpt><trkpt lat="43.8784122" lon="10.5691082"><ele>26.0</ele><time>2026-04-19T15:17:10.928Z</time></trkpt><trkpt lat="43.8784853" lon="10.5690548"><ele>26.0</ele><time>2026-04-19T15:17:11.928Z</time></trkpt><trkpt lat="43.8785579" lon="10.5689969"><ele>25.999999999999996</ele><time>2026-04-19T15:17:12.928Z</time></trkpt><trkpt lat="43.8786304" lon="10.568938"><ele>26.0</ele><time>2026-04-19T15:17:13.928Z</time></trkpt><trkpt lat="43.8787199" lon="10.5688736"><ele>26.0</ele><time>2026-04-19T15:17:14.928Z</time></trkpt><trkpt lat="43.8788081" lon="10.5688145"><ele>26.0</ele><time>2026-04-19T15:17:15.929Z</time></trkpt><trkpt lat="43.8788986" lon="10.5687505"><ele>26.0</ele><time>2026-04-19T15:17:16.928Z</time></trkpt><trkpt lat="43.8789959" lon="10.5686781"><ele>26.0</ele><time>2026-04-19T15:17:17.928Z</time></trkpt><trkpt lat="43.8790979" lon="10.5685893"><ele>26.0</ele><time>2026-04-19T15:17:18.929Z</time></trkpt><trkpt lat="43.8792129" lon="10.5685026"><ele>26.0</ele><time>2026-04-19T15:17:19.929Z</time></trkpt><trkpt lat="43.8793329" lon="10.5684119"><ele>26.0</ele><time>2026-04-19T15:17:20.928Z</time></trkpt><trkpt lat="43.8794487" lon="10.5683241"><ele>26.0</ele><time>2026-04-19T15:17:21.928Z</time></trkpt><trkpt lat="43.8795687" lon="10.5682357"><ele>26.0</ele><time>2026-04-19T15:17:22.928Z</time></trkpt><trkpt lat="43.8796921" lon="10.5681405"><ele>26.0</ele><time>2026-04-19T15:17:23.928Z</time></trkpt><trkpt lat="43.8798158" lon="10.5680443"><ele>26.0</ele><time>2026-04-19T15:17:24.928Z</time></trkpt><trkpt lat="43.879942" lon="10.5679471"><ele>26.0</ele><time>2026-04-19T15:17:25.928Z</time></trkpt><trkpt lat="43.8800678" lon="10.5678517"><ele>26.0</ele><time>2026-04-19T15:17:26.928Z</time></trkpt><trkpt lat="43.8801978" lon="10.5677522"><ele>26.0</ele><time>2026-04-19T15:17:27.928Z</time></trkpt><trkpt lat="43.880326" lon="10.5676524"><ele>26.0</ele><time>2026-04-19T15:17:28.928Z</time></trkpt><trkpt lat="43.880453" lon="10.5675543"><ele>26.0</ele><time>2026-04-19T15:17:29.928Z</time></trkpt><trkpt lat="43.8805776" lon="10.5674577"><ele>26.0</ele><time>2026-04-19T15:17:30.929Z</time></trkpt><trkpt lat="43.8807008" lon="10.5673622"><ele>26.0</ele><time>2026-04-19T15:17:31.928Z</time></trkpt><trkpt lat="43.8808265" lon="10.5672651"><ele>26.0</ele><time>2026-04-19T15:17:32.928Z</time></trkpt><trkpt lat="43.8809543" lon="10.5671677"><ele>26.0</ele><time>2026-04-19T15:17:33.928Z</time></trkpt><trkpt lat="43.8810832" lon="10.5670683"><ele>26.0</ele><time>2026-04-19T15:17:34.928Z</time></trkpt><trkpt lat="43.8812083" lon="10.5669696"><ele>26.75</ele><time>2026-04-19T15:17:35.929Z</time></trkpt><trkpt lat="43.881331" lon="10.5668725"><ele>27.5</ele><time>2026-04-19T15:17:36.928Z</time></trkpt><trkpt lat="43.8814498" lon="10.5667784"><ele>28.25</ele><time>2026-04-19T15:17:37.929Z</time></trkpt><trkpt lat="43.8815677" lon="10.5666883"><ele>29.0</ele><time>2026-04-19T15:17:38.928Z</time></trkpt><trkpt lat="43.8816849" lon="10.5665984"><ele>29.0</ele><time>2026-04-19T15:17:39.928Z</time></trkpt><trkpt lat="43.8817987" lon="10.5665085"><ele>29.0</ele><time>2026-04-19T15:17:40.929Z</time></trkpt><trkpt lat="43.8819122" lon="10.5664167"><ele>29.0</ele><time>2026-04-19T15:17:41.928Z</time></trkpt><trkpt lat="43.8820295" lon="10.5663236"><ele>29.0</ele><time>2026-04-19T15:17:42.928Z</time></trkpt><trkpt lat="43.8821458" lon="10.5662314"><ele>29.25</ele><time>2026-04-19T15:17:43.928Z</time></trkpt><trkpt lat="43.8822626" lon="10.5661402"><ele>29.5</ele><time>2026-04-19T15:17:44.928Z</time></trkpt><trkpt lat="43.882378" lon="10.5660496"><ele>29.75</ele><time>2026-04-19T15:17:45.929Z</time></trkpt><trkpt lat="43.8824935" lon="10.5659608"><ele>30.0</ele><time>2026-04-19T15:17:46.928Z</time></trkpt><trkpt lat="43.8826118" lon="10.5658704"><ele>30.0</ele><time>2026-04-19T15:17:47.928Z</time></trkpt><trkpt lat="43.8827303" lon="10.5657777"><ele>30.0</ele><time>2026-04-19T15:17:48.928Z</time></trkpt><trkpt lat="43.8828476" lon="10.565688"><ele>30.0</ele><time>2026-04-19T15:17:49.928Z</time></trkpt><trkpt lat="43.8829656" lon="10.565596"><ele>30.0</ele><time>2026-04-19T15:17:50.928Z</time></trkpt><trkpt lat="43.8830826" lon="10.5655001"><ele>30.0</ele><time>2026-04-19T15:17:51.928Z</time></trkpt><trkpt lat="43.8832034" lon="10.5654052"><ele>30.0</ele><time>2026-04-19T15:17:52.928Z</time></trkpt><trkpt lat="43.8833251" lon="10.5653106"><ele>30.0</ele><time>2026-04-19T15:17:53.928Z</time></trkpt><trkpt lat="43.8834451" lon="10.5652179"><ele>30.0</ele><time>2026-04-19T15:17:54.928Z</time></trkpt><trkpt lat="43.8835652" lon="10.5651267"><ele>30.0</ele><time>2026-04-19T15:17:55.928Z</time></trkpt><trkpt lat="43.8836836" lon="10.5650363"><ele>30.0</ele><time>2026-04-19T15:17:56.928Z</time></trkpt><trkpt lat="43.8838007" lon="10.5649446"><ele>30.0</ele><time>2026-04-19T15:17:57.928Z</time></trkpt><trkpt lat="43.8839161" lon="10.5648531"><ele>30.0</ele><time>2026-04-19T15:17:58.929Z</time></trkpt><trkpt lat="43.8840314" lon="10.5647616"><ele>30.0</ele><time>2026-04-19T15:17:59.928Z</time></trkpt><trkpt lat="43.8841483" lon="10.5646682"><ele>30.0</ele><time>2026-04-19T15:18:00.928Z</time></trkpt><trkpt lat="43.8842673" lon="10.5645737"><ele>30.0</ele><time>2026-04-19T15:18:01.928Z</time></trkpt><trkpt lat="43.8843888" lon="10.5644805"><ele>30.0</ele><time>2026-04-19T15:18:02.928Z</time></trkpt><trkpt lat="43.8845103" lon="10.5643884"><ele>29.75</ele><time>2026-04-19T15:18:03.928Z</time></trkpt><trkpt lat="43.8846269" lon="10.5642977"><ele>29.5</ele><time>2026-04-19T15:18:04.928Z</time></trkpt><trkpt lat="43.8847432" lon="10.5642093"><ele>29.25</ele><time>2026-04-19T15:18:05.928Z</time></trkpt><trkpt lat="43.8848583" lon="10.564122"><ele>29.0</ele><time>2026-04-19T15:18:06.928Z</time></trkpt><trkpt lat="43.8849723" lon="10.5640332"><ele>29.0</ele><time>2026-04-19T15:18:07.928Z</time></trkpt><trkpt lat="43.885084" lon="10.5639479"><ele>29.0</ele><time>2026-04-19T15:18:08.928Z</time></trkpt><trkpt lat="43.885196" lon="10.5638621"><ele>29.0</ele><time>2026-04-19T15:18:09.928Z</time></trkpt><trkpt lat="43.8853062" lon="10.5637784"><ele>29.0</ele><time>2026-04-19T15:18:10.928Z</time></trkpt><trkpt lat="43.8854161" lon="10.5636949"><ele>29.25</ele><time>2026-04-19T15:18:11.928Z</time></trkpt><trkpt lat="43.8855248" lon="10.5636125"><ele>29.5</ele><time>2026-04-19T15:18:12.928Z</time></trkpt><trkpt lat="43.8856309" lon="10.5635287"><ele>29.75</ele><time>2026-04-19T15:18:13.928Z</time></trkpt><trkpt lat="43.8857382" lon="10.5634456"><ele>30.0</ele><time>2026-04-19T15:18:14.928Z</time></trkpt><trkpt lat="43.8858474" lon="10.5633621"><ele>30.25</ele><time>2026-04-19T15:18:15.928Z</time></trkpt><trkpt lat="43.8859602" lon="10.5632765"><ele>30.5</ele><time>2026-04-19T15:18:16.928Z</time></trkpt><trkpt lat="43.8860747" lon="10.5631895"><ele>30.75</ele><time>2026-04-19T15:18:17.928Z</time></trkpt><trkpt lat="43.8861895" lon="10.5631006"><ele>31.0</ele><time>2026-04-19T15:18:18.928Z</time></trkpt><trkpt lat="43.8863047" lon="10.5630091"><ele>31.0</ele><time>2026-04-19T15:18:19.928Z</time></trkpt><trkpt lat="43.8864205" lon="10.5629215"><ele>31.0</ele><time>2026-04-19T15:18:20.928Z</time></trkpt><trkpt lat="43.8865374" lon="10.5628337"><ele>31.0</ele><time>2026-04-19T15:18:21.928Z</time></trkpt><trkpt lat="43.8866498" lon="10.5627481"><ele>31.0</ele><time>2026-04-19T15:18:22.928Z</time></trkpt><trkpt lat="43.8867579" lon="10.5626616"><ele>31.25</ele><time>2026-04-19T15:18:23.928Z</time></trkpt><trkpt lat="43.8868664" lon="10.5625759"><ele>31.5</ele><time>2026-04-19T15:18:24.928Z</time></trkpt><trkpt lat="43.8869756" lon="10.5624904"><ele>31.75</ele><time>2026-04-19T15:18:25.928Z</time></trkpt><trkpt lat="43.8870873" lon="10.5624048"><ele>32.0</ele><time>2026-04-19T15:18:26.928Z</time></trkpt><trkpt lat="43.887199" lon="10.5623183"><ele>32.0</ele><time>2026-04-19T15:18:27.929Z</time></trkpt><trkpt lat="43.8873126" lon="10.5622305"><ele>32.0</ele><time>2026-04-19T15:18:28.928Z</time></trkpt><trkpt lat="43.8874248" lon="10.5621423"><ele>32.0</ele><time>2026-04-19T15:18:29.928Z</time></trkpt><trkpt lat="43.8875358" lon="10.5620546"><ele>32.0</ele><time>2026-04-19T15:18:30.928Z</time></trkpt><trkpt lat="43.8876468" lon="10.5619691"><ele>32.25</ele><time>2026-04-19T15:18:31.928Z</time></trkpt><trkpt lat="43.8877603" lon="10.5618822"><ele>32.5</ele><time>2026-04-19T15:18:32.928Z</time></trkpt><trkpt lat="43.8878748" lon="10.5617918"><ele>32.75</ele><time>2026-04-19T15:18:33.928Z</time></trkpt><trkpt lat="43.8879919" lon="10.5616983"><ele>33.0</ele><time>2026-04-19T15:18:34.928Z</time></trkpt><trkpt lat="43.8881092" lon="10.5616073"><ele>33.0</ele><time>2026-04-19T15:18:35.928Z</time></trkpt><trkpt lat="43.888229" lon="10.5615164"><ele>33.0</ele><time>2026-04-19T15:18:36.928Z</time></trkpt><trkpt lat="43.8883474" lon="10.5614257"><ele>33.0</ele><time>2026-04-19T15:18:37.928Z</time></trkpt><trkpt lat="43.8884658" lon="10.5613337"><ele>33.0</ele><time>2026-04-19T15:18:38.928Z</time></trkpt><trkpt lat="43.8885832" lon="10.5612425"><ele>33.25</ele><time>2026-04-19T15:18:39.928Z</time></trkpt><trkpt lat="43.8887012" lon="10.5611504"><ele>33.5</ele><time>2026-04-19T15:18:40.928Z</time></trkpt><trkpt lat="43.8888208" lon="10.5610588"><ele>33.75</ele><time>2026-04-19T15:18:41.928Z</time></trkpt><trkpt lat="43.8889397" lon="10.5609695"><ele>34.0</ele><time>2026-04-19T15:18:42.928Z</time></trkpt><trkpt lat="43.8890575" lon="10.5608787"><ele>34.0</ele><time>2026-04-19T15:18:43.928Z</time></trkpt><trkpt lat="43.889175" lon="10.5607879"><ele>34.0</ele><time>2026-04-19T15:18:44.928Z</time></trkpt><trkpt lat="43.889293" lon="10.5606964"><ele>34.0</ele><time>2026-04-19T15:18:45.928Z</time></trkpt><trkpt lat="43.8894136" lon="10.5606009"><ele>34.0</ele><time>2026-04-19T15:18:46.928Z</time></trkpt><trkpt lat="43.8895353" lon="10.5605059"><ele>34.25</ele><time>2026-04-19T15:18:47.928Z</time></trkpt><trkpt lat="43.8896538" lon="10.5604118"><ele>34.5</ele><time>2026-04-19T15:18:48.928Z</time></trkpt><trkpt lat="43.8897714" lon="10.5603167"><ele>34.75</ele><time>2026-04-19T15:18:49.928Z</time></trkpt><trkpt lat="43.8898899" lon="10.5602253"><ele>35.0</ele><time>2026-04-19T15:18:50.928Z</time></trkpt><trkpt lat="43.8900054" lon="10.5601355"><ele>35.25</ele><time>2026-04-19T15:18:51.928Z</time></trkpt><trkpt lat="43.8901203" lon="10.560046"><ele>35.5</ele><time>2026-04-19T15:18:52.928Z</time></trkpt><trkpt lat="43.8902328" lon="10.5599596"><ele>35.75</ele><time>2026-04-19T15:18:53.928Z</time></trkpt><trkpt lat="43.8903433" lon="10.5598752"><ele>36.0</ele><time>2026-04-19T15:18:54.928Z</time></trkpt><trkpt lat="43.8904533" lon="10.5597899"><ele>36.0</ele><time>2026-04-19T15:18:55.928Z</time></trkpt><trkpt lat="43.8905615" lon="10.5597066"><ele>36.0</ele><time>2026-04-19T15:18:56.928Z</time></trkpt><trkpt lat="43.8906701" lon="10.5596242"><ele>36.0</ele><time>2026-04-19T15:18:57.928Z</time></trkpt><trkpt lat="43.8907801" lon="10.5595396"><ele>36.0</ele><time>2026-04-19T15:18:58.928Z</time></trkpt><trkpt lat="43.89089" lon="10.5594558"><ele>36.25</ele><time>2026-04-19T15:18:59.928Z</time></trkpt><trkpt lat="43.8909999" lon="10.5593688"><ele>36.5</ele><time>2026-04-19T15:19:00.928Z</time></trkpt><trkpt lat="43.8911134" lon="10.5592833"><ele>36.75</ele><time>2026-04-19T15:19:01.928Z</time></trkpt><trkpt lat="43.8912278" lon="10.5591983"><ele>37.0</ele><time>2026-04-19T15:19:02.928Z</time></trkpt><trkpt lat="43.8913448" lon="10.5591103"><ele>37.0</ele><time>2026-04-19T15:19:03.928Z</time></trkpt><trkpt lat="43.8914558" lon="10.5590266"><ele>37.0</ele><time>2026-04-19T15:19:04.928Z</time></trkpt><trkpt lat="43.8915641" lon="10.5589433"><ele>37.0</ele><time>2026-04-19T15:19:05.928Z</time></trkpt><trkpt lat="43.8916696" lon="10.5588632"><ele>37.0</ele><time>2026-04-19T15:19:06.928Z</time></trkpt><trkpt lat="43.8917711" lon="10.5587785"><ele>37.25</ele><time>2026-04-19T15:19:07.928Z</time></trkpt><trkpt lat="43.8918676" lon="10.5586848"><ele>37.5</ele><time>2026-04-19T15:19:08.928Z</time></trkpt><trkpt lat="43.8919564" lon="10.5585825"><ele>37.75</ele><time>2026-04-19T15:19:09.928Z</time></trkpt><trkpt lat="43.8920399" lon="10.5584713"><ele>38.0</ele><time>2026-04-19T15:19:10.928Z</time></trkpt><trkpt lat="43.8921174" lon="10.5583492"><ele>38.0</ele><time>2026-04-19T15:19:11.929Z</time></trkpt><trkpt lat="43.892185" lon="10.5582177"><ele>38.0</ele><time>2026-04-19T15:19:12.928Z</time></trkpt><trkpt lat="43.8922414" lon="10.5580755"><ele>38.0</ele><time>2026-04-19T15:19:13.928Z</time></trkpt><trkpt lat="43.8922852" lon="10.5579259"><ele>38.0</ele><time>2026-04-19T15:19:14.929Z</time></trkpt><trkpt lat="43.8923193" lon="10.5577738"><ele>38.599999999999994</ele><time>2026-04-19T15:19:15.928Z</time></trkpt><trkpt lat="43.8923475" lon="10.5576241"><ele>39.199999999999996</ele><time>2026-04-19T15:19:16.928Z</time></trkpt><trkpt lat="43.8923718" lon="10.5574785"><ele>39.8</ele><time>2026-04-19T15:19:17.928Z</time></trkpt><trkpt lat="43.8923928" lon="10.5573396"><ele>40.4</ele><time>2026-04-19T15:19:18.928Z</time></trkpt><trkpt lat="43.8924111" lon="10.5572047"><ele>41.0</ele><time>2026-04-19T15:19:19.928Z</time></trkpt><trkpt lat="43.8924286" lon="10.5570699"><ele>40.599999999999994</ele><time>2026-04-19T15:19:20.928Z</time></trkpt><trkpt lat="43.8924466" lon="10.5569313"><ele>40.199999999999996</ele><time>2026-04-19T15:19:21.928Z</time></trkpt><trkpt lat="43.8924656" lon="10.5567953"><ele>39.8</ele><time>2026-04-19T15:19:22.929Z</time></trkpt><trkpt lat="43.892483" lon="10.5566644"><ele>39.4</ele><time>2026-04-19T15:19:23.928Z</time></trkpt><trkpt lat="43.8924985" lon="10.5565369"><ele>39.0</ele><time>2026-04-19T15:19:24.928Z</time></trkpt><trkpt lat="43.8925126" lon="10.5564175"><ele>39.0</ele><time>2026-04-19T15:19:25.928Z</time></trkpt><trkpt lat="43.8925252" lon="10.5563084"><ele>39.0</ele><time>2026-04-19T15:19:26.929Z</time></trkpt><trkpt lat="43.8925371" lon="10.5562081"><ele>39.0</ele><time>2026-04-19T15:19:27.928Z</time></trkpt><trkpt lat="43.8925486" lon="10.5561136"><ele>39.0</ele><time>2026-04-19T15:19:28.928Z</time></trkpt><trkpt lat="43.8925598" lon="10.5560216"><ele>39.0</ele><time>2026-04-19T15:19:29.928Z</time></trkpt><trkpt lat="43.8925697" lon="10.5559333"><ele>39.0</ele><time>2026-04-19T15:19:30.928Z</time></trkpt><trkpt lat="43.8925866" lon="10.5557643"><ele>39.2</ele><time>2026-04-19T15:19:32.929Z</time></trkpt><trkpt lat="43.8926026" lon="10.5556079"><ele>39.4</ele><time>2026-04-19T15:19:34.928Z</time></trkpt><trkpt lat="43.8926172" lon="10.5554646"><ele>39.6</ele><time>2026-04-19T15:19:36.928Z</time></trkpt><trkpt lat="43.8926297" lon="10.5553477"><ele>39.8</ele><time>2026-04-19T15:19:38.928Z</time></trkpt><trkpt lat="43.8926447" lon="10.5552323"><ele>40.0</ele><time>2026-04-19T15:19:41.928Z</time></trkpt><trkpt lat="43.892653" lon="10.5551339"><ele>40.0</ele><time>2026-04-19T15:20:10.928Z</time></trkpt><trkpt lat="43.8926659" lon="10.554999"><ele>40.0</ele><time>2026-04-19T15:20:12.928Z</time></trkpt><trkpt lat="43.8926885" lon="10.554843"><ele>40.0</ele><time>2026-04-19T15:20:14.929Z</time></trkpt><trkpt lat="43.8927016" lon="10.5547548"><ele>40.0</ele><time>2026-04-19T15:20:15.928Z</time></trkpt><trkpt lat="43.8927161" lon="10.554661"><ele>40.0</ele><time>2026-04-19T15:20:16.928Z</time></trkpt><trkpt lat="43.892731" lon="10.5545623"><ele>40.0</ele><time>2026-04-19T15:20:17.928Z</time></trkpt><trkpt lat="43.892747" lon="10.5544499"><ele>39.8</ele><time>2026-04-19T15:20:18.928Z</time></trkpt><trkpt lat="43.8927637" lon="10.5543259"><ele>39.6</ele><time>2026-04-19T15:20:19.929Z</time></trkpt><trkpt lat="43.8927807" lon="10.5541991"><ele>39.4</ele><time>2026-04-19T15:20:20.928Z</time></trkpt><trkpt lat="43.8927967" lon="10.5540748"><ele>39.2</ele><time>2026-04-19T15:20:21.928Z</time></trkpt><trkpt lat="43.8928129" lon="10.5539449"><ele>39.0</ele><time>2026-04-19T15:20:22.928Z</time></trkpt><trkpt lat="43.89283" lon="10.5538042"><ele>39.0</ele><time>2026-04-19T15:20:23.928Z</time></trkpt><trkpt lat="43.892849" lon="10.5536616"><ele>39.0</ele><time>2026-04-19T15:20:24.928Z</time></trkpt><trkpt lat="43.892866" lon="10.553517"><ele>39.0</ele><time>2026-04-19T15:20:25.928Z</time></trkpt><trkpt lat="43.8928837" lon="10.553372"><ele>39.0</ele><time>2026-04-19T15:20:26.928Z</time></trkpt><trkpt lat="43.8928993" lon="10.5532266"><ele>39.0</ele><time>2026-04-19T15:20:27.928Z</time></trkpt><trkpt lat="43.892914" lon="10.5530825"><ele>39.0</ele><time>2026-04-19T15:20:28.928Z</time></trkpt><trkpt lat="43.892929" lon="10.5529379"><ele>39.0</ele><time>2026-04-19T15:20:29.928Z</time></trkpt><trkpt lat="43.892946" lon="10.55279"><ele>39.0</ele><time>2026-04-19T15:20:30.928Z</time></trkpt><trkpt lat="43.8929649" lon="10.5526362"><ele>39.0</ele><time>2026-04-19T15:20:31.928Z</time></trkpt><trkpt lat="43.8929845" lon="10.5524734"><ele>39.0</ele><time>2026-04-19T15:20:32.928Z</time></trkpt><trkpt lat="43.893003" lon="10.5523025"><ele>39.0</ele><time>2026-04-19T15:20:33.928Z</time></trkpt><trkpt lat="43.8930214" lon="10.552126"><ele>39.0</ele><time>2026-04-19T15:20:34.928Z</time></trkpt><trkpt lat="43.8930412" lon="10.5519485"><ele>39.0</ele><time>2026-04-19T15:20:35.928Z</time></trkpt><trkpt lat="43.893062" lon="10.5517749"><ele>39.0</ele><time>2026-04-19T15:20:36.929Z</time></trkpt><trkpt lat="43.8930823" lon="10.5516077"><ele>39.0</ele><time>2026-04-19T15:20:37.929Z</time></trkpt><trkpt lat="43.893101" lon="10.5514395"><ele>39.0</ele><time>2026-04-19T15:20:38.928Z</time></trkpt><trkpt lat="43.89312" lon="10.5512657"><ele>39.0</ele><time>2026-04-19T15:20:39.929Z</time></trkpt><trkpt lat="43.8931387" lon="10.5510871"><ele>39.0</ele><time>2026-04-19T15:20:40.928Z</time></trkpt><trkpt lat="43.8931582" lon="10.5509087"><ele>39.0</ele><time>2026-04-19T15:20:41.929Z</time></trkpt><trkpt lat="43.8931785" lon="10.5507306"><ele>39.0</ele><time>2026-04-19T15:20:42.929Z</time></trkpt><trkpt lat="43.8931974" lon="10.5505507"><ele>39.0</ele><time>2026-04-19T15:20:43.928Z</time></trkpt><trkpt lat="43.89322" lon="10.5503711"><ele>39.0</ele><time>2026-04-19T15:20:44.928Z</time></trkpt><trkpt lat="43.8932391" lon="10.5501938"><ele>38.75</ele><time>2026-04-19T15:20:45.928Z</time></trkpt><trkpt lat="43.8932592" lon="10.5500145"><ele>38.5</ele><time>2026-04-19T15:20:46.929Z</time></trkpt><trkpt lat="43.8932795" lon="10.5498342"><ele>38.25</ele><time>2026-04-19T15:20:47.928Z</time></trkpt><trkpt lat="43.8932993" lon="10.5496484"><ele>38.0</ele><time>2026-04-19T15:20:48.928Z</time></trkpt><trkpt lat="43.8933201" lon="10.5494637"><ele>37.5</ele><time>2026-04-19T15:20:49.929Z</time></trkpt><trkpt lat="43.8933398" lon="10.5492791"><ele>37.0</ele><time>2026-04-19T15:20:50.928Z</time></trkpt><trkpt lat="43.89336" lon="10.5490941"><ele>36.5</ele><time>2026-04-19T15:20:51.928Z</time></trkpt><trkpt lat="43.8933812" lon="10.5489092"><ele>36.0</ele><time>2026-04-19T15:20:52.928Z</time></trkpt><trkpt lat="43.8934029" lon="10.5487233"><ele>36.25</ele><time>2026-04-19T15:20:53.928Z</time></trkpt><trkpt lat="43.8934261" lon="10.5485371"><ele>36.5</ele><time>2026-04-19T15:20:54.928Z</time></trkpt><trkpt lat="43.8934505" lon="10.5483499"><ele>36.75</ele><time>2026-04-19T15:20:55.928Z</time></trkpt><trkpt lat="43.8934781" lon="10.5481588"><ele>37.0</ele><time>2026-04-19T15:20:56.928Z</time></trkpt><trkpt lat="43.8935087" lon="10.5479685"><ele>36.5</ele><time>2026-04-19T15:20:57.929Z</time></trkpt><trkpt lat="43.8935428" lon="10.5477814"><ele>36.0</ele><time>2026-04-19T15:20:58.928Z</time></trkpt><trkpt lat="43.8935763" lon="10.5475969"><ele>35.5</ele><time>2026-04-19T15:20:59.929Z</time></trkpt><trkpt lat="43.8936092" lon="10.5474147"><ele>35.0</ele><time>2026-04-19T15:21:00.928Z</time></trkpt><trkpt lat="43.8936439" lon="10.5472324"><ele>35.0</ele><time>2026-04-19T15:21:01.928Z</time></trkpt><trkpt lat="43.8936811" lon="10.5470505"><ele>35.0</ele><time>2026-04-19T15:21:02.929Z</time></trkpt><trkpt lat="43.8937197" lon="10.5468715"><ele>35.0</ele><time>2026-04-19T15:21:03.928Z</time></trkpt><trkpt lat="43.8937595" lon="10.5466949"><ele>35.0</ele><time>2026-04-19T15:21:04.929Z</time></trkpt><trkpt lat="43.8938002" lon="10.5465166"><ele>35.25</ele><time>2026-04-19T15:21:05.928Z</time></trkpt><trkpt lat="43.8938395" lon="10.54634"><ele>35.5</ele><time>2026-04-19T15:21:06.929Z</time></trkpt><trkpt lat="43.8938798" lon="10.5461611"><ele>35.75</ele><time>2026-04-19T15:21:07.928Z</time></trkpt><trkpt lat="43.8939202" lon="10.5459772"><ele>36.0</ele><time>2026-04-19T15:21:08.928Z</time></trkpt><trkpt lat="43.893961" lon="10.5457845"><ele>36.0</ele><time>2026-04-19T15:21:09.928Z</time></trkpt><trkpt lat="43.8940015" lon="10.5455865"><ele>36.0</ele><time>2026-04-19T15:21:10.928Z</time></trkpt><trkpt lat="43.8940438" lon="10.5453876"><ele>36.0</ele><time>2026-04-19T15:21:11.928Z</time></trkpt><trkpt lat="43.8940865" lon="10.5451905"><ele>36.0</ele><time>2026-04-19T15:21:12.928Z</time></trkpt><trkpt lat="43.894129" lon="10.5449967"><ele>36.0</ele><time>2026-04-19T15:21:13.928Z</time></trkpt><trkpt lat="43.8941707" lon="10.5448069"><ele>36.0</ele><time>2026-04-19T15:21:14.929Z</time></trkpt><trkpt lat="43.8942123" lon="10.5446179"><ele>36.0</ele><time>2026-04-19T15:21:15.928Z</time></trkpt><trkpt lat="43.8942538" lon="10.5444312"><ele>36.0</ele><time>2026-04-19T15:21:16.928Z</time></trkpt><trkpt lat="43.8942954" lon="10.5442451"><ele>36.25</ele><time>2026-04-19T15:21:17.928Z</time></trkpt><trkpt lat="43.8943385" lon="10.5440576"><ele>36.5</ele><time>2026-04-19T15:21:18.928Z</time></trkpt><trkpt lat="43.8943788" lon="10.5438674"><ele>36.75</ele><time>2026-04-19T15:21:19.928Z</time></trkpt><trkpt lat="43.8944189" lon="10.5436783"><ele>37.0</ele><time>2026-04-19T15:21:20.928Z</time></trkpt><trkpt lat="43.8944593" lon="10.5434898"><ele>37.25</ele><time>2026-04-19T15:21:21.928Z</time></trkpt><trkpt lat="43.8944998" lon="10.5433024"><ele>37.5</ele><time>2026-04-19T15:21:22.928Z</time></trkpt><trkpt lat="43.8945386" lon="10.543119"><ele>37.75</ele><time>2026-04-19T15:21:23.928Z</time></trkpt><trkpt lat="43.8945771" lon="10.5429421"><ele>38.0</ele><time>2026-04-19T15:21:24.928Z</time></trkpt><trkpt lat="43.8946141" lon="10.542771"><ele>38.0</ele><time>2026-04-19T15:21:25.928Z</time></trkpt><trkpt lat="43.8946496" lon="10.5426085"><ele>38.0</ele><time>2026-04-19T15:21:26.928Z</time></trkpt><trkpt lat="43.8946859" lon="10.5424494"><ele>38.0</ele><time>2026-04-19T15:21:27.928Z</time></trkpt><trkpt lat="43.8947228" lon="10.5422872"><ele>38.0</ele><time>2026-04-19T15:21:28.928Z</time></trkpt><trkpt lat="43.8947599" lon="10.5421186"><ele>38.0</ele><time>2026-04-19T15:21:29.928Z</time></trkpt><trkpt lat="43.8947961" lon="10.5419459"><ele>38.0</ele><time>2026-04-19T15:21:30.928Z</time></trkpt><trkpt lat="43.8948323" lon="10.5417691"><ele>38.0</ele><time>2026-04-19T15:21:31.928Z</time></trkpt><trkpt lat="43.8948661" lon="10.5415944"><ele>38.0</ele><time>2026-04-19T15:21:32.928Z</time></trkpt><trkpt lat="43.8949056" lon="10.5414314"><ele>38.0</ele><time>2026-04-19T15:21:33.928Z</time></trkpt><trkpt lat="43.8949388" lon="10.5412682"><ele>38.0</ele><time>2026-04-19T15:21:34.928Z</time></trkpt><trkpt lat="43.894972" lon="10.5411066"><ele>38.0</ele><time>2026-04-19T15:21:35.928Z</time></trkpt><trkpt lat="43.8950064" lon="10.5409445"><ele>38.0</ele><time>2026-04-19T15:21:36.928Z</time></trkpt><trkpt lat="43.8950417" lon="10.5407832"><ele>37.75</ele><time>2026-04-19T15:21:37.928Z</time></trkpt><trkpt lat="43.8950772" lon="10.5406231"><ele>37.5</ele><time>2026-04-19T15:21:38.928Z</time></trkpt><trkpt lat="43.8951135" lon="10.5404624"><ele>37.25</ele><time>2026-04-19T15:21:39.929Z</time></trkpt><trkpt lat="43.8951501" lon="10.5402995"><ele>37.0</ele><time>2026-04-19T15:21:40.929Z</time></trkpt><trkpt lat="43.8951856" lon="10.5401378"><ele>36.75</ele><time>2026-04-19T15:21:41.928Z</time></trkpt><trkpt lat="43.8952191" lon="10.5399794"><ele>36.5</ele><time>2026-04-19T15:21:42.928Z</time></trkpt><trkpt lat="43.8952509" lon="10.5398268"><ele>36.25</ele><time>2026-04-19T15:21:43.928Z</time></trkpt><trkpt lat="43.8952823" lon="10.5396786"><ele>36.0</ele><time>2026-04-19T15:21:44.928Z</time></trkpt><trkpt lat="43.8953148" lon="10.5395271"><ele>36.0</ele><time>2026-04-19T15:21:45.928Z</time></trkpt><trkpt lat="43.8953484" lon="10.5393742"><ele>36.0</ele><time>2026-04-19T15:21:46.928Z</time></trkpt><trkpt lat="43.8953816" lon="10.5392207"><ele>36.0</ele><time>2026-04-19T15:21:47.928Z</time></trkpt><trkpt lat="43.8954125" lon="10.539068"><ele>36.0</ele><time>2026-04-19T15:21:48.928Z</time></trkpt><trkpt lat="43.8954411" lon="10.5389224"><ele>36.0</ele><time>2026-04-19T15:21:49.929Z</time></trkpt><trkpt lat="43.8954692" lon="10.5387771"><ele>36.0</ele><time>2026-04-19T15:21:50.928Z</time></trkpt><trkpt lat="43.8954992" lon="10.538631"><ele>36.0</ele><time>2026-04-19T15:21:51.928Z</time></trkpt><trkpt lat="43.8955297" lon="10.5384839"><ele>36.0</ele><time>2026-04-19T15:21:52.928Z</time></trkpt><trkpt lat="43.8955613" lon="10.5383346"><ele>36.0</ele><time>2026-04-19T15:21:53.929Z</time></trkpt><trkpt lat="43.8955923" lon="10.5381865"><ele>35.666666666666664</ele><time>2026-04-19T15:21:54.928Z</time></trkpt><trkpt lat="43.8956244" lon="10.5380476"><ele>35.333333333333336</ele><time>2026-04-19T15:21:55.928Z</time></trkpt><trkpt lat="43.8956567" lon="10.5379199"><ele>35.0</ele><time>2026-04-19T15:21:56.928Z</time></trkpt><trkpt lat="43.8956915" lon="10.5378075"><ele>34.66666666666667</ele><time>2026-04-19T15:21:57.928Z</time></trkpt><trkpt lat="43.8957322" lon="10.5377128"><ele>34.333333333333336</ele><time>2026-04-19T15:21:58.928Z</time></trkpt><trkpt lat="43.8957772" lon="10.5376361"><ele>34.0</ele><time>2026-04-19T15:21:59.928Z</time></trkpt><trkpt lat="43.8958246" lon="10.5375754"><ele>34.0</ele><time>2026-04-19T15:22:00.928Z</time></trkpt><trkpt lat="43.8959221" lon="10.5374906"><ele>34.0</ele><time>2026-04-19T15:22:02.929Z</time></trkpt><trkpt lat="43.8960345" lon="10.5374327"><ele>34.0</ele><time>2026-04-19T15:22:04.928Z</time></trkpt><trkpt lat="43.8960971" lon="10.5374124"><ele>34.0</ele><time>2026-04-19T15:22:05.928Z</time></trkpt><trkpt lat="43.8961657" lon="10.5373922"><ele>34.0</ele><time>2026-04-19T15:22:06.928Z</time></trkpt><trkpt lat="43.8962351" lon="10.5373615"><ele>34.0</ele><time>2026-04-19T15:22:07.928Z</time></trkpt><trkpt lat="43.8963" lon="10.5373162"><ele>33.99999999999999</ele><time>2026-04-19T15:22:08.928Z</time></trkpt><trkpt lat="43.8963578" lon="10.5372583"><ele>34.0</ele><time>2026-04-19T15:22:09.928Z</time></trkpt><trkpt lat="43.8964061" lon="10.5371828"><ele>34.0</ele><time>2026-04-19T15:22:10.928Z</time></trkpt><trkpt lat="43.896441" lon="10.5370924"><ele>34.0</ele><time>2026-04-19T15:22:11.928Z</time></trkpt><trkpt lat="43.8964578" lon="10.5369924"><ele>34.0</ele><time>2026-04-19T15:22:12.928Z</time></trkpt><trkpt lat="43.896455" lon="10.5368911"><ele>33.99999999999999</ele><time>2026-04-19T15:22:13.928Z</time></trkpt><trkpt lat="43.8964321" lon="10.536796"><ele>34.0</ele><time>2026-04-19T15:22:14.928Z</time></trkpt><trkpt lat="43.8963918" lon="10.5367139"><ele>33.833333333333336</ele><time>2026-04-19T15:22:15.928Z</time></trkpt><trkpt lat="43.8963358" lon="10.5366489"><ele>33.66666666666667</ele><time>2026-04-19T15:22:16.929Z</time></trkpt><trkpt lat="43.8962674" lon="10.5366084"><ele>33.5</ele><time>2026-04-19T15:22:17.928Z</time></trkpt><trkpt lat="43.8961897" lon="10.5365939"><ele>33.333333333333336</ele><time>2026-04-19T15:22:18.929Z</time></trkpt><trkpt lat="43.8961118" lon="10.5366097"><ele>33.166666666666664</ele><time>2026-04-19T15:22:19.928Z</time></trkpt><trkpt lat="43.8960354" lon="10.5366569"><ele>33.0</ele><time>2026-04-19T15:22:20.928Z</time></trkpt><trkpt lat="43.8959565" lon="10.5367383"><ele>33.0</ele><time>2026-04-19T15:22:21.928Z</time></trkpt><trkpt lat="43.8958788" lon="10.5368392"><ele>33.0</ele><time>2026-04-19T15:22:22.929Z</time></trkpt><trkpt lat="43.8958038" lon="10.5369437"><ele>33.0</ele><time>2026-04-19T15:22:23.928Z</time></trkpt><trkpt lat="43.8957243" lon="10.5370481"><ele>33.0</ele><time>2026-04-19T15:22:24.928Z</time></trkpt><trkpt lat="43.8956414" lon="10.5371467"><ele>33.0</ele><time>2026-04-19T15:22:25.929Z</time></trkpt><trkpt lat="43.8955581" lon="10.5372314"><ele>33.0</ele><time>2026-04-19T15:22:26.929Z</time></trkpt><trkpt lat="43.89547" lon="10.537294"><ele>33.0</ele><time>2026-04-19T15:22:27.928Z</time></trkpt><trkpt lat="43.8953712" lon="10.537331"><ele>33.0</ele><time>2026-04-19T15:22:28.928Z</time></trkpt><trkpt lat="43.8952585" lon="10.5373417"><ele>33.0</ele><time>2026-04-19T15:22:29.929Z</time></trkpt><trkpt lat="43.8951353" lon="10.5373426"><ele>33.0</ele><time>2026-04-19T15:22:30.928Z</time></trkpt><trkpt lat="43.8950104" lon="10.5373401"><ele>33.5</ele><time>2026-04-19T15:22:31.928Z</time></trkpt><trkpt lat="43.8948789" lon="10.5373378"><ele>34.0</ele><time>2026-04-19T15:22:32.929Z</time></trkpt><trkpt lat="43.8947399" lon="10.5373375"><ele>34.5</ele><time>2026-04-19T15:22:33.928Z</time></trkpt><trkpt lat="43.8946058" lon="10.5373377"><ele>35.0</ele><time>2026-04-19T15:22:34.928Z</time></trkpt><trkpt lat="43.8944674" lon="10.5373342"><ele>35.0</ele><time>2026-04-19T15:22:35.928Z</time></trkpt><trkpt lat="43.8943261" lon="10.5373328"><ele>35.0</ele><time>2026-04-19T15:22:36.929Z</time></trkpt><trkpt lat="43.8941785" lon="10.537332"><ele>35.0</ele><time>2026-04-19T15:22:37.928Z</time></trkpt><trkpt lat="43.8940275" lon="10.5373295"><ele>35.0</ele><time>2026-04-19T15:22:38.928Z</time></trkpt><trkpt lat="43.8938741" lon="10.5373266"><ele>34.75</ele><time>2026-04-19T15:22:39.928Z</time></trkpt><trkpt lat="43.8937237" lon="10.5373229"><ele>34.5</ele><time>2026-04-19T15:22:40.928Z</time></trkpt><trkpt lat="43.8935742" lon="10.5373182"><ele>34.25</ele><time>2026-04-19T15:22:41.928Z</time></trkpt><trkpt lat="43.8934263" lon="10.5373124"><ele>34.0</ele><time>2026-04-19T15:22:42.929Z</time></trkpt><trkpt lat="43.8932781" lon="10.5373045"><ele>33.75</ele><time>2026-04-19T15:22:43.928Z</time></trkpt><trkpt lat="43.8931319" lon="10.5372919"><ele>33.5</ele><time>2026-04-19T15:22:44.928Z</time></trkpt><trkpt lat="43.8929848" lon="10.5372691"><ele>33.25</ele><time>2026-04-19T15:22:45.929Z</time></trkpt><trkpt lat="43.8928343" lon="10.5372302"><ele>33.0</ele><time>2026-04-19T15:22:46.928Z</time></trkpt><trkpt lat="43.8926794" lon="10.5371765"><ele>33.0</ele><time>2026-04-19T15:22:47.928Z</time></trkpt><trkpt lat="43.8925232" lon="10.5371096"><ele>33.0</ele><time>2026-04-19T15:22:48.928Z</time></trkpt><trkpt lat="43.8923725" lon="10.5370343"><ele>33.0</ele><time>2026-04-19T15:22:49.928Z</time></trkpt><trkpt lat="43.8922264" lon="10.5369555"><ele>33.0</ele><time>2026-04-19T15:22:50.928Z</time></trkpt><trkpt lat="43.8920828" lon="10.5368768"><ele>33.0</ele><time>2026-04-19T15:22:51.928Z</time></trkpt><trkpt lat="43.8919377" lon="10.5367993"><ele>33.0</ele><time>2026-04-19T15:22:52.929Z</time></trkpt><trkpt lat="43.8917904" lon="10.536725"><ele>32.666666666666664</ele><time>2026-04-19T15:22:53.928Z</time></trkpt><trkpt lat="43.8916408" lon="10.5366512"><ele>32.33333333333333</ele><time>2026-04-19T15:22:54.928Z</time></trkpt><trkpt lat="43.8914876" lon="10.5365778"><ele>32.0</ele><time>2026-04-19T15:22:55.928Z</time></trkpt><trkpt lat="43.8913355" lon="10.5365067"><ele>32.0</ele><time>2026-04-19T15:22:56.928Z</time></trkpt><trkpt lat="43.891182" lon="10.5364354"><ele>32.0</ele><time>2026-04-19T15:22:57.929Z</time></trkpt><trkpt lat="43.8910269" lon="10.536361"><ele>32.0</ele><time>2026-04-19T15:22:58.928Z</time></trkpt><trkpt lat="43.8908736" lon="10.5362868"><ele>31.333333333333332</ele><time>2026-04-19T15:22:59.928Z</time></trkpt><trkpt lat="43.8907255" lon="10.5362136"><ele>30.666666666666664</ele><time>2026-04-19T15:23:00.928Z</time></trkpt><trkpt lat="43.8905813" lon="10.5361393"><ele>30.0</ele><time>2026-04-19T15:23:01.928Z</time></trkpt><trkpt lat="43.8904371" lon="10.5360642"><ele>30.0</ele><time>2026-04-19T15:23:02.928Z</time></trkpt><trkpt lat="43.8902923" lon="10.5359895"><ele>30.0</ele><time>2026-04-19T15:23:03.928Z</time></trkpt><trkpt lat="43.8901472" lon="10.5359143"><ele>30.0</ele><time>2026-04-19T15:23:04.928Z</time></trkpt><trkpt lat="43.8900014" lon="10.5358386"><ele>30.0</ele><time>2026-04-19T15:23:05.928Z</time></trkpt><trkpt lat="43.8898551" lon="10.5357617"><ele>30.0</ele><time>2026-04-19T15:23:06.928Z</time></trkpt><trkpt lat="43.8897096" lon="10.535685"><ele>30.0</ele><time>2026-04-19T15:23:07.928Z</time></trkpt><trkpt lat="43.8895652" lon="10.5356087"><ele>30.0</ele><time>2026-04-19T15:23:08.928Z</time></trkpt><trkpt lat="43.8894204" lon="10.5355325"><ele>30.0</ele><time>2026-04-19T15:23:09.928Z</time></trkpt><trkpt lat="43.8892754" lon="10.5354559"><ele>30.0</ele><time>2026-04-19T15:23:10.929Z</time></trkpt><trkpt lat="43.8891316" lon="10.5353794"><ele>30.0</ele><time>2026-04-19T15:23:11.928Z</time></trkpt><trkpt lat="43.8889862" lon="10.5353035"><ele>30.0</ele><time>2026-04-19T15:23:12.928Z</time></trkpt><trkpt lat="43.8888404" lon="10.535228"><ele>30.0</ele><time>2026-04-19T15:23:13.928Z</time></trkpt><trkpt lat="43.8886949" lon="10.5351515"><ele>30.0</ele><time>2026-04-19T15:23:14.928Z</time></trkpt><trkpt lat="43.8885501" lon="10.5350733"><ele>30.0</ele><time>2026-04-19T15:23:15.928Z</time></trkpt><trkpt lat="43.8883992" lon="10.5349917"><ele>30.0</ele><time>2026-04-19T15:23:16.928Z</time></trkpt><trkpt lat="43.8882442" lon="10.5349085"><ele>30.333333333333336</ele><time>2026-04-19T15:23:17.928Z</time></trkpt><trkpt lat="43.8880777" lon="10.5348185"><ele>30.666666666666668</ele><time>2026-04-19T15:23:18.929Z</time></trkpt><trkpt lat="43.8878983" lon="10.5347249"><ele>31.0</ele><time>2026-04-19T15:23:19.929Z</time></trkpt><trkpt lat="43.8877081" lon="10.5346268"><ele>30.666666666666668</ele><time>2026-04-19T15:23:20.928Z</time></trkpt><trkpt lat="43.8875218" lon="10.5345307"><ele>30.333333333333336</ele><time>2026-04-19T15:23:21.928Z</time></trkpt><trkpt lat="43.8873349" lon="10.5344338"><ele>30.0</ele><time>2026-04-19T15:23:22.928Z</time></trkpt><trkpt lat="43.8871477" lon="10.5343334"><ele>30.0</ele><time>2026-04-19T15:23:23.928Z</time></trkpt><trkpt lat="43.8869605" lon="10.5342353"><ele>30.0</ele><time>2026-04-19T15:23:24.928Z</time></trkpt><trkpt lat="43.8867782" lon="10.5341386"><ele>30.0</ele><time>2026-04-19T15:23:25.929Z</time></trkpt><trkpt lat="43.8865991" lon="10.534045"><ele>30.666666666666664</ele><time>2026-04-19T15:23:26.928Z</time></trkpt><trkpt lat="43.8864252" lon="10.5339568"><ele>31.333333333333332</ele><time>2026-04-19T15:23:27.928Z</time></trkpt><trkpt lat="43.8862541" lon="10.5338662"><ele>32.0</ele><time>2026-04-19T15:23:28.928Z</time></trkpt><trkpt lat="43.8860864" lon="10.5337769"><ele>31.333333333333332</ele><time>2026-04-19T15:23:29.929Z</time></trkpt><trkpt lat="43.8859188" lon="10.5336883"><ele>30.666666666666664</ele><time>2026-04-19T15:23:30.928Z</time></trkpt><trkpt lat="43.885751" lon="10.5336009"><ele>30.0</ele><time>2026-04-19T15:23:31.928Z</time></trkpt><trkpt lat="43.8855826" lon="10.5335155"><ele>30.0</ele><time>2026-04-19T15:23:32.929Z</time></trkpt><trkpt lat="43.8854147" lon="10.5334297"><ele>30.0</ele><time>2026-04-19T15:23:33.928Z</time></trkpt><trkpt lat="43.8852472" lon="10.5333445"><ele>30.0</ele><time>2026-04-19T15:23:34.928Z</time></trkpt><trkpt lat="43.8850826" lon="10.5332576"><ele>30.333333333333336</ele><time>2026-04-19T15:23:35.928Z</time></trkpt><trkpt lat="43.884919" lon="10.5331698"><ele>30.666666666666668</ele><time>2026-04-19T15:23:36.928Z</time></trkpt><trkpt lat="43.8847555" lon="10.5330838"><ele>31.0</ele><time>2026-04-19T15:23:37.928Z</time></trkpt><trkpt lat="43.8845933" lon="10.5329982"><ele>31.0</ele><time>2026-04-19T15:23:38.928Z</time></trkpt><trkpt lat="43.8844303" lon="10.5329143"><ele>31.0</ele><time>2026-04-19T15:23:39.928Z</time></trkpt><trkpt lat="43.8842666" lon="10.5328297"><ele>31.0</ele><time>2026-04-19T15:23:40.928Z</time></trkpt><trkpt lat="43.8841042" lon="10.5327466"><ele>30.0</ele><time>2026-04-19T15:23:41.928Z</time></trkpt><trkpt lat="43.8839414" lon="10.5326627"><ele>29.0</ele><time>2026-04-19T15:23:42.928Z</time></trkpt><trkpt lat="43.8837773" lon="10.5325769"><ele>28.0</ele><time>2026-04-19T15:23:43.928Z</time></trkpt><trkpt lat="43.8836119" lon="10.5324904"><ele>28.0</ele><time>2026-04-19T15:23:44.929Z</time></trkpt><trkpt lat="43.8834468" lon="10.5324027"><ele>28.0</ele><time>2026-04-19T15:23:45.928Z</time></trkpt><trkpt lat="43.8832817" lon="10.5323147"><ele>28.0</ele><time>2026-04-19T15:23:46.929Z</time></trkpt><trkpt lat="43.883117" lon="10.532228"><ele>28.0</ele><time>2026-04-19T15:23:47.928Z</time></trkpt><trkpt lat="43.8829558" lon="10.5321434"><ele>28.0</ele><time>2026-04-19T15:23:48.928Z</time></trkpt><trkpt lat="43.8827958" lon="10.5320607"><ele>28.0</ele><time>2026-04-19T15:23:49.928Z</time></trkpt><trkpt lat="43.8826371" lon="10.5319822"><ele>28.0</ele><time>2026-04-19T15:23:50.928Z</time></trkpt><trkpt lat="43.8824764" lon="10.5319037"><ele>28.0</ele><time>2026-04-19T15:23:51.928Z</time></trkpt><trkpt lat="43.8823158" lon="10.5318228"><ele>28.0</ele><time>2026-04-19T15:23:52.928Z</time></trkpt><trkpt lat="43.8821577" lon="10.531738"><ele>28.0</ele><time>2026-04-19T15:23:53.928Z</time></trkpt><trkpt lat="43.8820026" lon="10.5316481"><ele>28.0</ele><time>2026-04-19T15:23:54.928Z</time></trkpt><trkpt lat="43.8818493" lon="10.5315509"><ele>28.0</ele><time>2026-04-19T15:23:55.928Z</time></trkpt><trkpt lat="43.8816957" lon="10.5314481"><ele>28.0</ele><time>2026-04-19T15:23:56.928Z</time></trkpt><trkpt lat="43.8815424" lon="10.531342"><ele>28.0</ele><time>2026-04-19T15:23:57.928Z</time></trkpt><trkpt lat="43.8813898" lon="10.5312357"><ele>28.0</ele><time>2026-04-19T15:23:58.928Z</time></trkpt><trkpt lat="43.8812345" lon="10.5311326"><ele>28.0</ele><time>2026-04-19T15:23:59.928Z</time></trkpt><trkpt lat="43.881075" lon="10.5310351"><ele>28.0</ele><time>2026-04-19T15:24:00.928Z</time></trkpt><trkpt lat="43.8809114" lon="10.5309407"><ele>28.0</ele><time>2026-04-19T15:24:01.928Z</time></trkpt><trkpt lat="43.880746" lon="10.5308498"><ele>28.0</ele><time>2026-04-19T15:24:02.928Z</time></trkpt><trkpt lat="43.8805805" lon="10.5307611"><ele>28.0</ele><time>2026-04-19T15:24:03.928Z</time></trkpt><trkpt lat="43.8804156" lon="10.5306739"><ele>28.0</ele><time>2026-04-19T15:24:04.928Z</time></trkpt><trkpt lat="43.8802516" lon="10.5305883"><ele>27.666666666666668</ele><time>2026-04-19T15:24:05.928Z</time></trkpt><trkpt lat="43.8800877" lon="10.5305031"><ele>27.333333333333336</ele><time>2026-04-19T15:24:06.928Z</time></trkpt><trkpt lat="43.8799236" lon="10.5304197"><ele>27.0</ele><time>2026-04-19T15:24:07.928Z</time></trkpt><trkpt lat="43.8797587" lon="10.5303362"><ele>27.333333333333336</ele><time>2026-04-19T15:24:08.928Z</time></trkpt><trkpt lat="43.8795911" lon="10.5302515"><ele>27.666666666666668</ele><time>2026-04-19T15:24:09.928Z</time></trkpt><trkpt lat="43.8794241" lon="10.530167"><ele>28.0</ele><time>2026-04-19T15:24:10.928Z</time></trkpt><trkpt lat="43.8792583" lon="10.5300804"><ele>28.0</ele><time>2026-04-19T15:24:11.928Z</time></trkpt><trkpt lat="43.8790959" lon="10.5299944"><ele>28.0</ele><time>2026-04-19T15:24:12.928Z</time></trkpt><trkpt lat="43.8789357" lon="10.5299105"><ele>28.0</ele><time>2026-04-19T15:24:13.928Z</time></trkpt><trkpt lat="43.8787745" lon="10.529828"><ele>28.0</ele><time>2026-04-19T15:24:14.928Z</time></trkpt><trkpt lat="43.8786115" lon="10.5297421"><ele>28.0</ele><time>2026-04-19T15:24:15.928Z</time></trkpt><trkpt lat="43.878449" lon="10.5296536"><ele>28.0</ele><time>2026-04-19T15:24:16.928Z</time></trkpt><trkpt lat="43.8782853" lon="10.5295664"><ele>27.333333333333336</ele><time>2026-04-19T15:24:17.928Z</time></trkpt><trkpt lat="43.8781246" lon="10.5294825"><ele>26.666666666666664</ele><time>2026-04-19T15:24:18.928Z</time></trkpt><trkpt lat="43.8779675" lon="10.5294"><ele>26.0</ele><time>2026-04-19T15:24:19.928Z</time></trkpt><trkpt lat="43.8778177" lon="10.5293223"><ele>26.0</ele><time>2026-04-19T15:24:20.928Z</time></trkpt><trkpt lat="43.8776764" lon="10.5292477"><ele>26.0</ele><time>2026-04-19T15:24:21.928Z</time></trkpt><trkpt lat="43.87754" lon="10.5291769"><ele>26.0</ele><time>2026-04-19T15:24:22.928Z</time></trkpt><trkpt lat="43.8774114" lon="10.5291096"><ele>26.0</ele><time>2026-04-19T15:24:23.928Z</time></trkpt><trkpt lat="43.8772888" lon="10.5290444"><ele>26.0</ele><time>2026-04-19T15:24:24.928Z</time></trkpt><trkpt lat="43.8771706" lon="10.5289809"><ele>26.0</ele><time>2026-04-19T15:24:25.928Z</time></trkpt><trkpt lat="43.8770512" lon="10.5289179"><ele>26.0</ele><time>2026-04-19T15:24:26.928Z</time></trkpt><trkpt lat="43.8769288" lon="10.5288559"><ele>26.0</ele><time>2026-04-19T15:24:27.928Z</time></trkpt><trkpt lat="43.8768016" lon="10.5287921"><ele>27.0</ele><time>2026-04-19T15:24:28.929Z</time></trkpt><trkpt lat="43.8766691" lon="10.5287247"><ele>28.0</ele><time>2026-04-19T15:24:29.928Z</time></trkpt><trkpt lat="43.8765365" lon="10.5286554"><ele>29.0</ele><time>2026-04-19T15:24:30.928Z</time></trkpt><trkpt lat="43.8764051" lon="10.5285858"><ele>30.0</ele><time>2026-04-19T15:24:31.929Z</time></trkpt><trkpt lat="43.8762737" lon="10.5285145"><ele>30.0</ele><time>2026-04-19T15:24:32.929Z</time></trkpt><trkpt lat="43.8761424" lon="10.5284449"><ele>30.0</ele><time>2026-04-19T15:24:33.928Z</time></trkpt><trkpt lat="43.876011" lon="10.528375"><ele>30.0</ele><time>2026-04-19T15:24:34.928Z</time></trkpt><trkpt lat="43.8758773" lon="10.5283042"><ele>30.0</ele><time>2026-04-19T15:24:35.928Z</time></trkpt><trkpt lat="43.8757382" lon="10.5282321"><ele>29.5</ele><time>2026-04-19T15:24:36.928Z</time></trkpt><trkpt lat="43.8755988" lon="10.5281627"><ele>29.0</ele><time>2026-04-19T15:24:37.928Z</time></trkpt><trkpt lat="43.8754572" lon="10.528095"><ele>28.5</ele><time>2026-04-19T15:24:38.928Z</time></trkpt><trkpt lat="43.8753143" lon="10.5280266"><ele>28.0</ele><time>2026-04-19T15:24:39.928Z</time></trkpt><trkpt lat="43.8751703" lon="10.5279564"><ele>27.666666666666668</ele><time>2026-04-19T15:24:40.928Z</time></trkpt><trkpt lat="43.8750268" lon="10.5278865"><ele>27.333333333333336</ele><time>2026-04-19T15:24:41.928Z</time></trkpt><trkpt lat="43.8748837" lon="10.5278154"><ele>27.0</ele><time>2026-04-19T15:24:42.928Z</time></trkpt><trkpt lat="43.874741" lon="10.5277444"><ele>27.0</ele><time>2026-04-19T15:24:43.928Z</time></trkpt><trkpt lat="43.874597" lon="10.5276743"><ele>27.0</ele><time>2026-04-19T15:24:44.928Z</time></trkpt><trkpt lat="43.8744485" lon="10.5276031"><ele>27.0</ele><time>2026-04-19T15:24:45.928Z</time></trkpt><trkpt lat="43.8742979" lon="10.5275306"><ele>26.666666666666664</ele><time>2026-04-19T15:24:46.929Z</time></trkpt><trkpt lat="43.8741472" lon="10.5274575"><ele>26.333333333333332</ele><time>2026-04-19T15:24:47.928Z</time></trkpt><trkpt lat="43.8739986" lon="10.5273848"><ele>26.0</ele><time>2026-04-19T15:24:48.929Z</time></trkpt><trkpt lat="43.8738519" lon="10.5273125"><ele>26.0</ele><time>2026-04-19T15:24:49.928Z</time></trkpt><trkpt lat="43.873711" lon="10.5272392"><ele>26.0</ele><time>2026-04-19T15:24:50.928Z</time></trkpt><trkpt lat="43.8735706" lon="10.5271632"><ele>26.0</ele><time>2026-04-19T15:24:51.928Z</time></trkpt><trkpt lat="43.8734273" lon="10.5270847"><ele>26.666666666666664</ele><time>2026-04-19T15:24:52.929Z</time></trkpt><trkpt lat="43.8732789" lon="10.5270015"><ele>27.333333333333336</ele><time>2026-04-19T15:24:53.928Z</time></trkpt><trkpt lat="43.8731296" lon="10.5269187"><ele>28.0</ele><time>2026-04-19T15:24:54.928Z</time></trkpt><trkpt lat="43.8729756" lon="10.5268354"><ele>28.0</ele><time>2026-04-19T15:24:55.928Z</time></trkpt><trkpt lat="43.8728219" lon="10.5267506"><ele>28.0</ele><time>2026-04-19T15:24:56.928Z</time></trkpt><trkpt lat="43.8726742" lon="10.5266688"><ele>28.0</ele><time>2026-04-19T15:24:57.929Z</time></trkpt><trkpt lat="43.8725286" lon="10.526589"><ele>28.0</ele><time>2026-04-19T15:24:58.928Z</time></trkpt><trkpt lat="43.8723821" lon="10.5265063"><ele>28.0</ele><time>2026-04-19T15:24:59.928Z</time></trkpt><trkpt lat="43.8722351" lon="10.5264225"><ele>28.0</ele><time>2026-04-19T15:25:00.928Z</time></trkpt><trkpt lat="43.8720927" lon="10.5263376"><ele>28.0</ele><time>2026-04-19T15:25:01.928Z</time></trkpt><trkpt lat="43.8719567" lon="10.5262583"><ele>28.0</ele><time>2026-04-19T15:25:02.928Z</time></trkpt><trkpt lat="43.8718229" lon="10.5261822"><ele>28.0</ele><time>2026-04-19T15:25:03.928Z</time></trkpt><trkpt lat="43.8716867" lon="10.526104"><ele>28.0</ele><time>2026-04-19T15:25:04.928Z</time></trkpt><trkpt lat="43.8715458" lon="10.5260258"><ele>27.333333333333336</ele><time>2026-04-19T15:25:05.928Z</time></trkpt><trkpt lat="43.8714035" lon="10.5259457"><ele>26.666666666666664</ele><time>2026-04-19T15:25:06.928Z</time></trkpt><trkpt lat="43.8712625" lon="10.5258596"><ele>26.0</ele><time>2026-04-19T15:25:07.928Z</time></trkpt><trkpt lat="43.8711278" lon="10.5257672"><ele>26.0</ele><time>2026-04-19T15:25:08.928Z</time></trkpt><trkpt lat="43.8709971" lon="10.5256638"><ele>26.0</ele><time>2026-04-19T15:25:09.928Z</time></trkpt><trkpt lat="43.8708701" lon="10.5255502"><ele>26.0</ele><time>2026-04-19T15:25:10.928Z</time></trkpt><trkpt lat="43.8707473" lon="10.5254319"><ele>25.75</ele><time>2026-04-19T15:25:11.928Z</time></trkpt><trkpt lat="43.8706317" lon="10.525317"><ele>25.5</ele><time>2026-04-19T15:25:12.928Z</time></trkpt><trkpt lat="43.8705228" lon="10.5252055"><ele>25.25</ele><time>2026-04-19T15:25:13.928Z</time></trkpt><trkpt lat="43.8704222" lon="10.5250946"><ele>25.0</ele><time>2026-04-19T15:25:14.928Z</time></trkpt><trkpt lat="43.8703194" lon="10.5249824"><ele>25.0</ele><time>2026-04-19T15:25:15.928Z</time></trkpt><trkpt lat="43.8702102" lon="10.5248662"><ele>25.0</ele><time>2026-04-19T15:25:16.928Z</time></trkpt><trkpt lat="43.870095" lon="10.5247438"><ele>25.0</ele><time>2026-04-19T15:25:17.928Z</time></trkpt><trkpt lat="43.8699782" lon="10.5246168"><ele>25.0</ele><time>2026-04-19T15:25:18.928Z</time></trkpt><trkpt lat="43.8698576" lon="10.5244849"><ele>25.666666666666668</ele><time>2026-04-19T15:25:19.928Z</time></trkpt><trkpt lat="43.8697317" lon="10.524346"><ele>26.333333333333336</ele><time>2026-04-19T15:25:20.928Z</time></trkpt><trkpt lat="43.8696018" lon="10.5242031"><ele>27.0</ele><time>2026-04-19T15:25:21.929Z</time></trkpt><trkpt lat="43.8694636" lon="10.5240509"><ele>27.0</ele><time>2026-04-19T15:25:22.928Z</time></trkpt><trkpt lat="43.8693265" lon="10.5238998"><ele>27.0</ele><time>2026-04-19T15:25:23.928Z</time></trkpt><trkpt lat="43.8691907" lon="10.5237498"><ele>27.0</ele><time>2026-04-19T15:25:24.929Z</time></trkpt><trkpt lat="43.8690527" lon="10.5235972"><ele>26.333333333333336</ele><time>2026-04-19T15:25:25.928Z</time></trkpt><trkpt lat="43.8689101" lon="10.5234394"><ele>25.666666666666668</ele><time>2026-04-19T15:25:26.928Z</time></trkpt><trkpt lat="43.868765" lon="10.5232807"><ele>25.0</ele><time>2026-04-19T15:25:27.928Z</time></trkpt><trkpt lat="43.8686222" lon="10.5231227"><ele>25.0</ele><time>2026-04-19T15:25:28.928Z</time></trkpt><trkpt lat="43.8684836" lon="10.5229675"><ele>25.0</ele><time>2026-04-19T15:25:29.928Z</time></trkpt><trkpt lat="43.868347" lon="10.5228158"><ele>25.0</ele><time>2026-04-19T15:25:30.928Z</time></trkpt><trkpt lat="43.8682094" lon="10.5226644"><ele>25.333333333333336</ele><time>2026-04-19T15:25:31.928Z</time></trkpt><trkpt lat="43.8680739" lon="10.5225162"><ele>25.666666666666664</ele><time>2026-04-19T15:25:32.928Z</time></trkpt><trkpt lat="43.8679411" lon="10.5223701"><ele>26.0</ele><time>2026-04-19T15:25:33.928Z</time></trkpt><trkpt lat="43.8678092" lon="10.5222248"><ele>26.0</ele><time>2026-04-19T15:25:34.928Z</time></trkpt><trkpt lat="43.867677" lon="10.522078"><ele>26.0</ele><time>2026-04-19T15:25:35.929Z</time></trkpt><trkpt lat="43.8675483" lon="10.5219357"><ele>26.0</ele><time>2026-04-19T15:25:36.928Z</time></trkpt><trkpt lat="43.8674234" lon="10.5217958"><ele>25.666666666666664</ele><time>2026-04-19T15:25:37.928Z</time></trkpt><trkpt lat="43.8672981" lon="10.5216561"><ele>25.333333333333336</ele><time>2026-04-19T15:25:38.928Z</time></trkpt><trkpt lat="43.8671702" lon="10.521513"><ele>25.0</ele><time>2026-04-19T15:25:39.929Z</time></trkpt><trkpt lat="43.8670406" lon="10.5213687"><ele>25.0</ele><time>2026-04-19T15:25:40.929Z</time></trkpt><trkpt lat="43.8669095" lon="10.5212253"><ele>25.0</ele><time>2026-04-19T15:25:41.928Z</time></trkpt><trkpt lat="43.8667823" lon="10.5210887"><ele>25.0</ele><time>2026-04-19T15:25:42.928Z</time></trkpt><trkpt lat="43.8666574" lon="10.5209551"><ele>25.0</ele><time>2026-04-19T15:25:43.929Z</time></trkpt><trkpt lat="43.8665366" lon="10.5208245"><ele>25.0</ele><time>2026-04-19T15:25:44.928Z</time></trkpt><trkpt lat="43.8664213" lon="10.5206977"><ele>25.0</ele><time>2026-04-19T15:25:45.928Z</time></trkpt><trkpt lat="43.8663093" lon="10.5205752"><ele>25.0</ele><time>2026-04-19T15:25:46.928Z</time></trkpt><trkpt lat="43.8661987" lon="10.5204547"><ele>25.25</ele><time>2026-04-19T15:25:47.928Z</time></trkpt><trkpt lat="43.8660909" lon="10.5203375"><ele>25.5</ele><time>2026-04-19T15:25:48.928Z</time></trkpt><trkpt lat="43.8659857" lon="10.5202236"><ele>25.75</ele><time>2026-04-19T15:25:49.928Z</time></trkpt><trkpt lat="43.8658772" lon="10.5201074"><ele>26.0</ele><time>2026-04-19T15:25:50.928Z</time></trkpt><trkpt lat="43.8657669" lon="10.5199888"><ele>25.75</ele><time>2026-04-19T15:25:51.928Z</time></trkpt><trkpt lat="43.8656594" lon="10.5198709"><ele>25.5</ele><time>2026-04-19T15:25:52.928Z</time></trkpt><trkpt lat="43.8655571" lon="10.5197577"><ele>25.25</ele><time>2026-04-19T15:25:53.928Z</time></trkpt><trkpt lat="43.8654605" lon="10.5196501"><ele>25.0</ele><time>2026-04-19T15:25:54.928Z</time></trkpt><trkpt lat="43.8653695" lon="10.5195483"><ele>25.0</ele><time>2026-04-19T15:25:55.929Z</time></trkpt><trkpt lat="43.8652838" lon="10.5194526"><ele>25.0</ele><time>2026-04-19T15:25:56.928Z</time></trkpt><trkpt lat="43.8652029" lon="10.5193629"><ele>25.0</ele><time>2026-04-19T15:25:57.928Z</time></trkpt><trkpt lat="43.8651265" lon="10.5192769"><ele>25.0</ele><time>2026-04-19T15:25:58.928Z</time></trkpt><trkpt lat="43.8650554" lon="10.5191883"><ele>25.0</ele><time>2026-04-19T15:25:59.928Z</time></trkpt><trkpt lat="43.8649938" lon="10.5190999"><ele>25.333333333333336</ele><time>2026-04-19T15:26:00.928Z</time></trkpt><trkpt lat="43.8649455" lon="10.5190155"><ele>25.666666666666668</ele><time>2026-04-19T15:26:01.928Z</time></trkpt><trkpt lat="43.8649058" lon="10.5189222"><ele>26.0</ele><time>2026-04-19T15:26:02.929Z</time></trkpt><trkpt lat="43.864867" lon="10.5188187"><ele>26.333333333333336</ele><time>2026-04-19T15:26:03.928Z</time></trkpt><trkpt lat="43.8648194" lon="10.5187223"><ele>26.666666666666668</ele><time>2026-04-19T15:26:04.928Z</time></trkpt><trkpt lat="43.8647579" lon="10.5186506"><ele>27.0</ele><time>2026-04-19T15:26:05.928Z</time></trkpt><trkpt lat="43.8646781" lon="10.5186046"><ele>27.200000000000003</ele><time>2026-04-19T15:26:06.928Z</time></trkpt><trkpt lat="43.8645827" lon="10.5185654"><ele>27.400000000000002</ele><time>2026-04-19T15:26:07.928Z</time></trkpt><trkpt lat="43.8644879" lon="10.5185138"><ele>27.599999999999998</ele><time>2026-04-19T15:26:08.928Z</time></trkpt><trkpt lat="43.8643908" lon="10.5184356"><ele>27.799999999999997</ele><time>2026-04-19T15:26:09.928Z</time></trkpt><trkpt lat="43.8642859" lon="10.5183296"><ele>28.0</ele><time>2026-04-19T15:26:10.928Z</time></trkpt><trkpt lat="43.8641744" lon="10.5182098"><ele>28.0</ele><time>2026-04-19T15:26:11.928Z</time></trkpt><trkpt lat="43.8640652" lon="10.5180891"><ele>28.0</ele><time>2026-04-19T15:26:12.928Z</time></trkpt><trkpt lat="43.8639549" lon="10.517967"><ele>28.0</ele><time>2026-04-19T15:26:13.928Z</time></trkpt><trkpt lat="43.8638475" lon="10.5178445"><ele>28.0</ele><time>2026-04-19T15:26:14.928Z</time></trkpt><trkpt lat="43.8637372" lon="10.5177197"><ele>27.333333333333336</ele><time>2026-04-19T15:26:15.929Z</time></trkpt><trkpt lat="43.8636209" lon="10.517589"><ele>26.666666666666664</ele><time>2026-04-19T15:26:16.928Z</time></trkpt><trkpt lat="43.8635008" lon="10.5174566"><ele>26.0</ele><time>2026-04-19T15:26:17.928Z</time></trkpt><trkpt lat="43.8633787" lon="10.5173208"><ele>26.0</ele><time>2026-04-19T15:26:18.928Z</time></trkpt><trkpt lat="43.8632555" lon="10.5171845"><ele>26.0</ele><time>2026-04-19T15:26:19.928Z</time></trkpt><trkpt lat="43.8631316" lon="10.5170432"><ele>26.0</ele><time>2026-04-19T15:26:20.928Z</time></trkpt><trkpt lat="43.8630078" lon="10.5169008"><ele>25.666666666666664</ele><time>2026-04-19T15:26:21.928Z</time></trkpt><trkpt lat="43.8628837" lon="10.5167621"><ele>25.333333333333336</ele><time>2026-04-19T15:26:22.928Z</time></trkpt><trkpt lat="43.8627597" lon="10.5166248"><ele>25.0</ele><time>2026-04-19T15:26:23.928Z</time></trkpt><trkpt lat="43.8626402" lon="10.5164936"><ele>24.333333333333336</ele><time>2026-04-19T15:26:24.928Z</time></trkpt><trkpt lat="43.8625228" lon="10.5163649"><ele>23.666666666666668</ele><time>2026-04-19T15:26:25.929Z</time></trkpt><trkpt lat="43.8624061" lon="10.5162325"><ele>23.0</ele><time>2026-04-19T15:26:26.929Z</time></trkpt><trkpt lat="43.8622895" lon="10.5160982"><ele>23.0</ele><time>2026-04-19T15:26:27.928Z</time></trkpt><trkpt lat="43.8621702" lon="10.515967"><ele>23.0</ele><time>2026-04-19T15:26:28.928Z</time></trkpt><trkpt lat="43.8620452" lon="10.5158447"><ele>23.0</ele><time>2026-04-19T15:26:29.929Z</time></trkpt><trkpt lat="43.861914" lon="10.5157346"><ele>23.0</ele><time>2026-04-19T15:26:30.928Z</time></trkpt><trkpt lat="43.8617763" lon="10.5156324"><ele>23.0</ele><time>2026-04-19T15:26:31.928Z</time></trkpt><trkpt lat="43.8616331" lon="10.5155417"><ele>23.0</ele><time>2026-04-19T15:26:32.928Z</time></trkpt><trkpt lat="43.8614852" lon="10.5154622"><ele>23.333333333333336</ele><time>2026-04-19T15:26:33.928Z</time></trkpt><trkpt lat="43.8613354" lon="10.5153975"><ele>23.666666666666668</ele><time>2026-04-19T15:26:34.928Z</time></trkpt><trkpt lat="43.861184" lon="10.5153477"><ele>24.0</ele><time>2026-04-19T15:26:35.928Z</time></trkpt><trkpt lat="43.8610294" lon="10.5153127"><ele>23.666666666666668</ele><time>2026-04-19T15:26:36.928Z</time></trkpt><trkpt lat="43.8608715" lon="10.51529"><ele>23.333333333333336</ele><time>2026-04-19T15:26:37.928Z</time></trkpt><trkpt lat="43.8607126" lon="10.5152763"><ele>23.0</ele><time>2026-04-19T15:26:38.928Z</time></trkpt><trkpt lat="43.8605533" lon="10.5152667"><ele>23.0</ele><time>2026-04-19T15:26:39.928Z</time></trkpt><trkpt lat="43.860397" lon="10.5152581"><ele>23.0</ele><time>2026-04-19T15:26:40.928Z</time></trkpt><trkpt lat="43.8602441" lon="10.5152487"><ele>23.0</ele><time>2026-04-19T15:26:41.928Z</time></trkpt><trkpt lat="43.8600938" lon="10.5152396"><ele>22.75</ele><time>2026-04-19T15:26:42.928Z</time></trkpt><trkpt lat="43.8599452" lon="10.5152256"><ele>22.5</ele><time>2026-04-19T15:26:43.928Z</time></trkpt><trkpt lat="43.8597985" lon="10.5152017"><ele>22.25</ele><time>2026-04-19T15:26:44.929Z</time></trkpt><trkpt lat="43.8596551" lon="10.5151657"><ele>22.0</ele><time>2026-04-19T15:26:45.929Z</time></trkpt><trkpt lat="43.8595137" lon="10.5151167"><ele>22.0</ele><time>2026-04-19T15:26:46.928Z</time></trkpt><trkpt lat="43.8593731" lon="10.5150519"><ele>22.0</ele><time>2026-04-19T15:26:47.928Z</time></trkpt><trkpt lat="43.8592372" lon="10.514976"><ele>22.0</ele><time>2026-04-19T15:26:48.928Z</time></trkpt><trkpt lat="43.8591096" lon="10.5148893"><ele>22.0</ele><time>2026-04-19T15:26:49.928Z</time></trkpt><trkpt lat="43.8589904" lon="10.5147919"><ele>22.0</ele><time>2026-04-19T15:26:50.928Z</time></trkpt><trkpt lat="43.8588781" lon="10.5146862"><ele>22.0</ele><time>2026-04-19T15:26:51.929Z</time></trkpt><trkpt lat="43.8587722" lon="10.5145761"><ele>22.0</ele><time>2026-04-19T15:26:52.928Z</time></trkpt><trkpt lat="43.8586704" lon="10.5144624"><ele>22.0</ele><time>2026-04-19T15:26:53.928Z</time></trkpt><trkpt lat="43.8585716" lon="10.5143473"><ele>22.0</ele><time>2026-04-19T15:26:54.928Z</time></trkpt><trkpt lat="43.8584739" lon="10.5142313"><ele>22.0</ele><time>2026-04-19T15:26:55.928Z</time></trkpt><trkpt lat="43.8583776" lon="10.5141154"><ele>22.0</ele><time>2026-04-19T15:26:56.929Z</time></trkpt><trkpt lat="43.8582822" lon="10.5139996"><ele>22.0</ele><time>2026-04-19T15:26:57.928Z</time></trkpt><trkpt lat="43.8581886" lon="10.5138866"><ele>21.75</ele><time>2026-04-19T15:26:58.929Z</time></trkpt><trkpt lat="43.8580964" lon="10.5137755"><ele>21.5</ele><time>2026-04-19T15:26:59.928Z</time></trkpt><trkpt lat="43.8580022" lon="10.5136615"><ele>21.25</ele><time>2026-04-19T15:27:00.928Z</time></trkpt><trkpt lat="43.8579098" lon="10.5135487"><ele>21.0</ele><time>2026-04-19T15:27:01.928Z</time></trkpt><trkpt lat="43.8578207" lon="10.5134386"><ele>21.0</ele><time>2026-04-19T15:27:02.928Z</time></trkpt><trkpt lat="43.8577331" lon="10.5133302"><ele>21.0</ele><time>2026-04-19T15:27:03.928Z</time></trkpt><trkpt lat="43.857648" lon="10.5132228"><ele>21.0</ele><time>2026-04-19T15:27:04.928Z</time></trkpt><trkpt lat="43.8575658" lon="10.5131206"><ele>21.0</ele><time>2026-04-19T15:27:05.929Z</time></trkpt><trkpt lat="43.8574838" lon="10.5130188"><ele>21.0</ele><time>2026-04-19T15:27:06.928Z</time></trkpt><trkpt lat="43.8574023" lon="10.5129166"><ele>21.0</ele><time>2026-04-19T15:27:07.928Z</time></trkpt><trkpt lat="43.8573089" lon="10.5128017"><ele>21.0</ele><time>2026-04-19T15:27:08.928Z</time></trkpt><trkpt lat="43.8572149" lon="10.5126862"><ele>21.0</ele><time>2026-04-19T15:27:09.929Z</time></trkpt><trkpt lat="43.8571194" lon="10.5125738"><ele>22.0</ele><time>2026-04-19T15:27:10.928Z</time></trkpt><trkpt lat="43.8570266" lon="10.5124603"><ele>22.0</ele><time>2026-04-19T15:27:11.928Z</time></trkpt><trkpt lat="43.8569327" lon="10.512349"><ele>22.0</ele><time>2026-04-19T15:27:12.928Z</time></trkpt><trkpt lat="43.8568342" lon="10.5122333"><ele>22.0</ele><time>2026-04-19T15:27:13.929Z</time></trkpt></trkseg></trk></gpx>